<?xml version="1.0" encoding="UTF-8" standalone="no" ?>
<gpx xmlns="http://www.topografix.com/GPX/1/1" xmlns:xsi="http://www.w3.org/2001/XMLSchema-instance" xsi:schemaLocation="http://www.topografix.com/GPX/1/1 http://www.topografix.com/GPX/1/1/gpx.xsd" version="1.1" creator="VisuGPX - https://www.visugpx.com">
  <metadata>
    <name>Tour en Thur prkl</name>
  </metadata>
  <trk>
    <name><![CDATA[6 mai 2023 à 09:00:37]]></name>
    <extensions>
      <line xmlns="http://www.topografix.com/GPX/gpx_style/0/2">
        <color>0000FF</color>
        <width>4</width>
      </line>
    </extensions>
    <trkseg>
      <trkpt lat="47.79308" lon="7.09782">
        <ele>364</ele>
        <time>2023-05-06T07:00:37Z</time>
      </trkpt>
      <trkpt lat="47.79309" lon="7.09783">
        <ele>364</ele>
        <time>2023-05-06T07:00:38Z</time>
      </trkpt>
      <trkpt lat="47.79326" lon="7.09792">
        <ele>364</ele>
        <time>2023-05-06T07:00:52Z</time>
      </trkpt>
      <trkpt lat="47.7933" lon="7.09785">
        <ele>365</ele>
        <time>2023-05-06T07:01:00Z</time>
      </trkpt>
      <trkpt lat="47.79331" lon="7.09764">
        <ele>365</ele>
        <time>2023-05-06T07:01:12Z</time>
      </trkpt>
      <trkpt lat="47.79341" lon="7.09724">
        <ele>367</ele>
        <time>2023-05-06T07:01:37Z</time>
      </trkpt>
      <trkpt lat="47.79342" lon="7.09711">
        <ele>367</ele>
        <time>2023-05-06T07:01:45Z</time>
      </trkpt>
      <trkpt lat="47.79346" lon="7.09692">
        <ele>368</ele>
        <time>2023-05-06T07:01:57Z</time>
      </trkpt>
      <trkpt lat="47.79352" lon="7.09681">
        <ele>369</ele>
        <time>2023-05-06T07:02:05Z</time>
      </trkpt>
      <trkpt lat="47.79355" lon="7.09677">
        <ele>369</ele>
        <time>2023-05-06T07:02:09Z</time>
      </trkpt>
      <trkpt lat="47.7936" lon="7.09679">
        <ele>370</ele>
        <time>2023-05-06T07:02:13Z</time>
      </trkpt>
      <trkpt lat="47.79371" lon="7.09685">
        <ele>371</ele>
        <time>2023-05-06T07:02:27Z</time>
      </trkpt>
      <trkpt lat="47.79376" lon="7.09686">
        <ele>371</ele>
        <time>2023-05-06T07:02:30Z</time>
      </trkpt>
      <trkpt lat="47.79413" lon="7.09696">
        <ele>375</ele>
        <time>2023-05-06T07:03:02Z</time>
      </trkpt>
      <trkpt lat="47.79449" lon="7.0971">
        <ele>380</ele>
        <time>2023-05-06T07:03:37Z</time>
      </trkpt>
      <trkpt lat="47.79479" lon="7.09724">
        <ele>387</ele>
        <time>2023-05-06T07:04:08Z</time>
      </trkpt>
      <trkpt lat="47.79503" lon="7.09735">
        <ele>390</ele>
        <time>2023-05-06T07:04:30Z</time>
      </trkpt>
      <trkpt lat="47.79539" lon="7.09735">
        <ele>395</ele>
        <time>2023-05-06T07:05:04Z</time>
      </trkpt>
      <trkpt lat="47.79549" lon="7.09735">
        <ele>396</ele>
        <time>2023-05-06T07:05:12Z</time>
      </trkpt>
      <trkpt lat="47.79554" lon="7.09736">
        <ele>396</ele>
        <time>2023-05-06T07:05:16Z</time>
      </trkpt>
      <trkpt lat="47.79557" lon="7.09741">
        <ele>396</ele>
        <time>2023-05-06T07:05:20Z</time>
      </trkpt>
      <trkpt lat="47.7956" lon="7.09747">
        <ele>396</ele>
        <time>2023-05-06T07:05:24Z</time>
      </trkpt>
      <trkpt lat="47.79559" lon="7.09754">
        <ele>396</ele>
        <time>2023-05-06T07:05:28Z</time>
      </trkpt>
      <trkpt lat="47.79568" lon="7.09795">
        <ele>397</ele>
        <time>2023-05-06T07:05:50Z</time>
      </trkpt>
      <trkpt lat="47.79572" lon="7.09801">
        <ele>398</ele>
        <time>2023-05-06T07:05:55Z</time>
      </trkpt>
      <trkpt lat="47.79577" lon="7.09797">
        <ele>399</ele>
        <time>2023-05-06T07:06:05Z</time>
      </trkpt>
      <trkpt lat="47.79594" lon="7.09779">
        <ele>402</ele>
        <time>2023-05-06T07:06:26Z</time>
      </trkpt>
      <trkpt lat="47.796" lon="7.09779">
        <ele>402</ele>
        <time>2023-05-06T07:06:29Z</time>
      </trkpt>
      <trkpt lat="47.79622" lon="7.09805">
        <ele>404</ele>
        <time>2023-05-06T07:06:51Z</time>
      </trkpt>
      <trkpt lat="47.79631" lon="7.0981">
        <ele>404</ele>
        <time>2023-05-06T07:07:01Z</time>
      </trkpt>
      <trkpt lat="47.79662" lon="7.09847">
        <ele>407</ele>
        <time>2023-05-06T07:07:33Z</time>
      </trkpt>
      <trkpt lat="47.79673" lon="7.09867">
        <ele>408</ele>
        <time>2023-05-06T07:07:50Z</time>
      </trkpt>
      <trkpt lat="47.79696" lon="7.09888">
        <ele>409</ele>
        <time>2023-05-06T07:08:14Z</time>
      </trkpt>
      <trkpt lat="47.797" lon="7.0989">
        <ele>409</ele>
        <time>2023-05-06T07:08:17Z</time>
      </trkpt>
      <trkpt lat="47.79703" lon="7.09896">
        <ele>409</ele>
        <time>2023-05-06T07:08:20Z</time>
      </trkpt>
      <trkpt lat="47.79715" lon="7.09912">
        <ele>410</ele>
        <time>2023-05-06T07:08:35Z</time>
      </trkpt>
      <trkpt lat="47.79727" lon="7.09936">
        <ele>410</ele>
        <time>2023-05-06T07:08:49Z</time>
      </trkpt>
      <trkpt lat="47.79727" lon="7.09946">
        <ele>410</ele>
        <time>2023-05-06T07:08:57Z</time>
      </trkpt>
      <trkpt lat="47.7973" lon="7.09952">
        <ele>410</ele>
        <time>2023-05-06T07:09:01Z</time>
      </trkpt>
      <trkpt lat="47.79737" lon="7.09964">
        <ele>410</ele>
        <time>2023-05-06T07:09:09Z</time>
      </trkpt>
      <trkpt lat="47.79743" lon="7.09984">
        <ele>410</ele>
        <time>2023-05-06T07:09:22Z</time>
      </trkpt>
      <trkpt lat="47.79743" lon="7.09991">
        <ele>409</ele>
        <time>2023-05-06T07:09:26Z</time>
      </trkpt>
      <trkpt lat="47.79746" lon="7.09997">
        <ele>409</ele>
        <time>2023-05-06T07:09:30Z</time>
      </trkpt>
      <trkpt lat="47.79751" lon="7.09996">
        <ele>409</ele>
        <time>2023-05-06T07:09:36Z</time>
      </trkpt>
      <trkpt lat="47.79765" lon="7.09994">
        <ele>411</ele>
        <time>2023-05-06T07:09:49Z</time>
      </trkpt>
      <trkpt lat="47.79774" lon="7.09989">
        <ele>412</ele>
        <time>2023-05-06T07:09:58Z</time>
      </trkpt>
      <trkpt lat="47.79778" lon="7.09981">
        <ele>412</ele>
        <time>2023-05-06T07:10:04Z</time>
      </trkpt>
      <trkpt lat="47.79786" lon="7.09967">
        <ele>414</ele>
        <time>2023-05-06T07:10:17Z</time>
      </trkpt>
      <trkpt lat="47.79792" lon="7.09958">
        <ele>415</ele>
        <time>2023-05-06T07:10:26Z</time>
      </trkpt>
      <trkpt lat="47.79796" lon="7.09955">
        <ele>416</ele>
        <time>2023-05-06T07:10:31Z</time>
      </trkpt>
      <trkpt lat="47.79802" lon="7.09958">
        <ele>416</ele>
        <time>2023-05-06T07:10:35Z</time>
      </trkpt>
      <trkpt lat="47.79806" lon="7.09962">
        <ele>416</ele>
        <time>2023-05-06T07:10:38Z</time>
      </trkpt>
      <trkpt lat="47.79809" lon="7.09968">
        <ele>416</ele>
        <time>2023-05-06T07:10:41Z</time>
      </trkpt>
      <trkpt lat="47.79812" lon="7.09974">
        <ele>416</ele>
        <time>2023-05-06T07:10:46Z</time>
      </trkpt>
      <trkpt lat="47.79819" lon="7.09982">
        <ele>416</ele>
        <time>2023-05-06T07:10:54Z</time>
      </trkpt>
      <trkpt lat="47.79825" lon="7.09993">
        <ele>416</ele>
        <time>2023-05-06T07:11:03Z</time>
      </trkpt>
      <trkpt lat="47.7983" lon="7.09996">
        <ele>416</ele>
        <time>2023-05-06T07:11:07Z</time>
      </trkpt>
      <trkpt lat="47.79842" lon="7.10008">
        <ele>417</ele>
        <time>2023-05-06T07:11:19Z</time>
      </trkpt>
      <trkpt lat="47.79865" lon="7.10023">
        <ele>417</ele>
        <time>2023-05-06T07:11:43Z</time>
      </trkpt>
      <trkpt lat="47.79871" lon="7.10024">
        <ele>418</ele>
        <time>2023-05-06T07:11:48Z</time>
      </trkpt>
      <trkpt lat="47.79876" lon="7.10025">
        <ele>418</ele>
        <time>2023-05-06T07:11:52Z</time>
      </trkpt>
      <trkpt lat="47.79881" lon="7.10027">
        <ele>418</ele>
        <time>2023-05-06T07:11:56Z</time>
      </trkpt>
      <trkpt lat="47.79885" lon="7.1003">
        <ele>418</ele>
        <time>2023-05-06T07:12:01Z</time>
      </trkpt>
      <trkpt lat="47.79893" lon="7.10029">
        <ele>417</ele>
        <time>2023-05-06T07:12:09Z</time>
      </trkpt>
      <trkpt lat="47.79913" lon="7.1003">
        <ele>417</ele>
        <time>2023-05-06T07:12:27Z</time>
      </trkpt>
      <trkpt lat="47.79926" lon="7.10028">
        <ele>417</ele>
        <time>2023-05-06T07:12:38Z</time>
      </trkpt>
      <trkpt lat="47.79931" lon="7.10029">
        <ele>416</ele>
        <time>2023-05-06T07:12:43Z</time>
      </trkpt>
      <trkpt lat="47.79941" lon="7.10026">
        <ele>415</ele>
        <time>2023-05-06T07:12:53Z</time>
      </trkpt>
      <trkpt lat="47.79957" lon="7.10027">
        <ele>414</ele>
        <time>2023-05-06T07:13:08Z</time>
      </trkpt>
      <trkpt lat="47.79982" lon="7.10013">
        <ele>411</ele>
        <time>2023-05-06T07:13:31Z</time>
      </trkpt>
      <trkpt lat="47.79984" lon="7.10006">
        <ele>411</ele>
        <time>2023-05-06T07:13:35Z</time>
      </trkpt>
      <trkpt lat="47.7999" lon="7.09995">
        <ele>410</ele>
        <time>2023-05-06T07:13:43Z</time>
      </trkpt>
      <trkpt lat="47.80011" lon="7.09973">
        <ele>407</ele>
        <time>2023-05-06T07:14:07Z</time>
      </trkpt>
      <trkpt lat="47.80015" lon="7.09971">
        <ele>406</ele>
        <time>2023-05-06T07:14:16Z</time>
      </trkpt>
      <trkpt lat="47.80019" lon="7.09963">
        <ele>406</ele>
        <time>2023-05-06T07:14:50Z</time>
      </trkpt>
      <trkpt lat="47.80032" lon="7.09943">
        <ele>404</ele>
        <time>2023-05-06T07:15:06Z</time>
      </trkpt>
      <trkpt lat="47.80051" lon="7.0992">
        <ele>402</ele>
        <time>2023-05-06T07:15:27Z</time>
      </trkpt>
      <trkpt lat="47.8007" lon="7.09909">
        <ele>399</ele>
        <time>2023-05-06T07:15:43Z</time>
      </trkpt>
      <trkpt lat="47.80098" lon="7.09883">
        <ele>396</ele>
        <time>2023-05-06T07:16:11Z</time>
      </trkpt>
      <trkpt lat="47.80107" lon="7.09877">
        <ele>395</ele>
        <time>2023-05-06T07:16:19Z</time>
      </trkpt>
      <trkpt lat="47.80111" lon="7.09872">
        <ele>394</ele>
        <time>2023-05-06T07:16:23Z</time>
      </trkpt>
      <trkpt lat="47.80117" lon="7.0986">
        <ele>393</ele>
        <time>2023-05-06T07:16:31Z</time>
      </trkpt>
      <trkpt lat="47.80122" lon="7.09858">
        <ele>393</ele>
        <time>2023-05-06T07:16:34Z</time>
      </trkpt>
      <trkpt lat="47.80162" lon="7.09866">
        <ele>390</ele>
        <time>2023-05-06T07:17:06Z</time>
      </trkpt>
      <trkpt lat="47.802" lon="7.09863">
        <ele>385</ele>
        <time>2023-05-06T07:17:39Z</time>
      </trkpt>
      <trkpt lat="47.8023" lon="7.09876">
        <ele>380</ele>
        <time>2023-05-06T07:18:06Z</time>
      </trkpt>
      <trkpt lat="47.80234" lon="7.09879">
        <ele>379</ele>
        <time>2023-05-06T07:18:10Z</time>
      </trkpt>
      <trkpt lat="47.80238" lon="7.09884">
        <ele>379</ele>
        <time>2023-05-06T07:18:14Z</time>
      </trkpt>
      <trkpt lat="47.80248" lon="7.0991">
        <ele>377</ele>
        <time>2023-05-06T07:18:30Z</time>
      </trkpt>
      <trkpt lat="47.80265" lon="7.09927">
        <ele>374</ele>
        <time>2023-05-06T07:18:46Z</time>
      </trkpt>
      <trkpt lat="47.803" lon="7.09948">
        <ele>370</ele>
        <time>2023-05-06T07:19:19Z</time>
      </trkpt>
      <trkpt lat="47.80335" lon="7.0997">
        <ele>366</ele>
        <time>2023-05-06T07:19:52Z</time>
      </trkpt>
      <trkpt lat="47.80347" lon="7.0998">
        <ele>364</ele>
        <time>2023-05-06T07:20:04Z</time>
      </trkpt>
      <trkpt lat="47.80381" lon="7.10015">
        <ele>360</ele>
        <time>2023-05-06T07:20:37Z</time>
      </trkpt>
      <trkpt lat="47.80413" lon="7.10044">
        <ele>356</ele>
        <time>2023-05-06T07:21:09Z</time>
      </trkpt>
      <trkpt lat="47.80431" lon="7.10057">
        <ele>354</ele>
        <time>2023-05-06T07:21:25Z</time>
      </trkpt>
      <trkpt lat="47.80435" lon="7.10062">
        <ele>354</ele>
        <time>2023-05-06T07:21:29Z</time>
      </trkpt>
      <trkpt lat="47.80442" lon="7.10071">
        <ele>353</ele>
        <time>2023-05-06T07:21:38Z</time>
      </trkpt>
      <trkpt lat="47.80465" lon="7.10123">
        <ele>350</ele>
        <time>2023-05-06T07:22:12Z</time>
      </trkpt>
      <trkpt lat="47.80469" lon="7.10127">
        <ele>350</ele>
        <time>2023-05-06T07:22:16Z</time>
      </trkpt>
      <trkpt lat="47.80473" lon="7.10129">
        <ele>349</ele>
        <time>2023-05-06T07:22:20Z</time>
      </trkpt>
      <trkpt lat="47.80493" lon="7.10131">
        <ele>349</ele>
        <time>2023-05-06T07:22:39Z</time>
      </trkpt>
      <trkpt lat="47.80498" lon="7.10133">
        <ele>349</ele>
        <time>2023-05-06T07:22:42Z</time>
      </trkpt>
      <trkpt lat="47.80512" lon="7.10134">
        <ele>349</ele>
        <time>2023-05-06T07:22:54Z</time>
      </trkpt>
      <trkpt lat="47.80515" lon="7.10139">
        <ele>349</ele>
        <time>2023-05-06T07:22:57Z</time>
      </trkpt>
      <trkpt lat="47.80527" lon="7.10131">
        <ele>349</ele>
        <time>2023-05-06T07:23:08Z</time>
      </trkpt>
      <trkpt lat="47.80542" lon="7.10127">
        <ele>349</ele>
        <time>2023-05-06T07:23:20Z</time>
      </trkpt>
      <trkpt lat="47.80581" lon="7.10125">
        <ele>349</ele>
        <time>2023-05-06T07:23:52Z</time>
      </trkpt>
      <trkpt lat="47.80618" lon="7.10124">
        <ele>349</ele>
        <time>2023-05-06T07:24:24Z</time>
      </trkpt>
      <trkpt lat="47.80658" lon="7.1013">
        <ele>349</ele>
        <time>2023-05-06T07:24:57Z</time>
      </trkpt>
      <trkpt lat="47.80663" lon="7.10129">
        <ele>349</ele>
        <time>2023-05-06T07:25:00Z</time>
      </trkpt>
      <trkpt lat="47.80681" lon="7.10133">
        <ele>348</ele>
        <time>2023-05-06T07:25:15Z</time>
      </trkpt>
      <trkpt lat="47.80687" lon="7.10131">
        <ele>349</ele>
        <time>2023-05-06T07:25:19Z</time>
      </trkpt>
      <trkpt lat="47.80691" lon="7.10131">
        <ele>349</ele>
        <time>2023-05-06T07:25:22Z</time>
      </trkpt>
      <trkpt lat="47.80729" lon="7.10147">
        <ele>348</ele>
        <time>2023-05-06T07:25:54Z</time>
      </trkpt>
      <trkpt lat="47.80734" lon="7.10148">
        <ele>347</ele>
        <time>2023-05-06T07:25:58Z</time>
      </trkpt>
      <trkpt lat="47.80772" lon="7.10154">
        <ele>347</ele>
        <time>2023-05-06T07:26:29Z</time>
      </trkpt>
      <trkpt lat="47.80812" lon="7.10164">
        <ele>346</ele>
        <time>2023-05-06T07:27:00Z</time>
      </trkpt>
      <trkpt lat="47.80851" lon="7.10174">
        <ele>345</ele>
        <time>2023-05-06T07:27:33Z</time>
      </trkpt>
      <trkpt lat="47.80888" lon="7.1018">
        <ele>345</ele>
        <time>2023-05-06T07:28:06Z</time>
      </trkpt>
      <trkpt lat="47.80926" lon="7.1019">
        <ele>344</ele>
        <time>2023-05-06T07:28:38Z</time>
      </trkpt>
      <trkpt lat="47.80965" lon="7.10198">
        <ele>343</ele>
        <time>2023-05-06T07:29:10Z</time>
      </trkpt>
      <trkpt lat="47.8097" lon="7.102">
        <ele>342</ele>
        <time>2023-05-06T07:29:14Z</time>
      </trkpt>
      <trkpt lat="47.80972" lon="7.10193">
        <ele>342</ele>
        <time>2023-05-06T07:29:18Z</time>
      </trkpt>
      <trkpt lat="47.80975" lon="7.10189">
        <ele>343</ele>
        <time>2023-05-06T07:29:34Z</time>
      </trkpt>
      <trkpt lat="47.80983" lon="7.10196">
        <ele>343</ele>
        <time>2023-05-06T07:29:41Z</time>
      </trkpt>
      <trkpt lat="47.80985" lon="7.10204">
        <ele>343</ele>
        <time>2023-05-06T07:29:48Z</time>
      </trkpt>
      <trkpt lat="47.81009" lon="7.10212">
        <ele>343</ele>
        <time>2023-05-06T07:30:08Z</time>
      </trkpt>
      <trkpt lat="47.81026" lon="7.10221">
        <ele>343</ele>
        <time>2023-05-06T07:30:24Z</time>
      </trkpt>
      <trkpt lat="47.81037" lon="7.10234">
        <ele>343</ele>
        <time>2023-05-06T07:30:36Z</time>
      </trkpt>
      <trkpt lat="47.81043" lon="7.10243">
        <ele>342</ele>
        <time>2023-05-06T07:30:43Z</time>
      </trkpt>
      <trkpt lat="47.81054" lon="7.10251">
        <ele>342</ele>
        <time>2023-05-06T07:30:59Z</time>
      </trkpt>
      <trkpt lat="47.81058" lon="7.10254">
        <ele>343</ele>
        <time>2023-05-06T07:31:10Z</time>
      </trkpt>
      <trkpt lat="47.81058" lon="7.10262">
        <ele>342</ele>
        <time>2023-05-06T07:31:22Z</time>
      </trkpt>
      <trkpt lat="47.81065" lon="7.10277">
        <ele>342</ele>
        <time>2023-05-06T07:31:56Z</time>
      </trkpt>
      <trkpt lat="47.81068" lon="7.10286">
        <ele>342</ele>
        <time>2023-05-06T07:32:05Z</time>
      </trkpt>
      <trkpt lat="47.8107" lon="7.10293">
        <ele>342</ele>
        <time>2023-05-06T07:32:12Z</time>
      </trkpt>
      <trkpt lat="47.8109" lon="7.10314">
        <ele>342</ele>
        <time>2023-05-06T07:32:31Z</time>
      </trkpt>
      <trkpt lat="47.81121" lon="7.10337">
        <ele>341</ele>
        <time>2023-05-06T07:32:58Z</time>
      </trkpt>
      <trkpt lat="47.81125" lon="7.10341">
        <ele>341</ele>
        <time>2023-05-06T07:33:02Z</time>
      </trkpt>
      <trkpt lat="47.81131" lon="7.10346">
        <ele>341</ele>
        <time>2023-05-06T07:33:11Z</time>
      </trkpt>
      <trkpt lat="47.81138" lon="7.10353">
        <ele>340</ele>
        <time>2023-05-06T07:33:17Z</time>
      </trkpt>
      <trkpt lat="47.81142" lon="7.1036">
        <ele>340</ele>
        <time>2023-05-06T07:33:21Z</time>
      </trkpt>
      <trkpt lat="47.81156" lon="7.10405">
        <ele>341</ele>
        <time>2023-05-06T07:33:52Z</time>
      </trkpt>
      <trkpt lat="47.81166" lon="7.10436">
        <ele>341</ele>
        <time>2023-05-06T07:34:14Z</time>
      </trkpt>
      <trkpt lat="47.8118" lon="7.10453">
        <ele>341</ele>
        <time>2023-05-06T07:34:27Z</time>
      </trkpt>
      <trkpt lat="47.81192" lon="7.10459">
        <ele>340</ele>
        <time>2023-05-06T07:34:38Z</time>
      </trkpt>
      <trkpt lat="47.81219" lon="7.10468">
        <ele>340</ele>
        <time>2023-05-06T07:35:12Z</time>
      </trkpt>
      <trkpt lat="47.81254" lon="7.10478">
        <ele>340</ele>
        <time>2023-05-06T07:35:39Z</time>
      </trkpt>
      <trkpt lat="47.81262" lon="7.10484">
        <ele>341</ele>
        <time>2023-05-06T07:35:47Z</time>
      </trkpt>
      <trkpt lat="47.81277" lon="7.10488">
        <ele>341</ele>
        <time>2023-05-06T07:35:59Z</time>
      </trkpt>
      <trkpt lat="47.813" lon="7.10487">
        <ele>342</ele>
        <time>2023-05-06T07:36:20Z</time>
      </trkpt>
      <trkpt lat="47.81303" lon="7.10482">
        <ele>342</ele>
        <time>2023-05-06T07:36:24Z</time>
      </trkpt>
      <trkpt lat="47.81339" lon="7.10451">
        <ele>344</ele>
        <time>2023-05-06T07:36:58Z</time>
      </trkpt>
      <trkpt lat="47.81355" lon="7.10436">
        <ele>345</ele>
        <time>2023-05-06T07:37:13Z</time>
      </trkpt>
      <trkpt lat="47.81356" lon="7.1043">
        <ele>345</ele>
        <time>2023-05-06T07:37:18Z</time>
      </trkpt>
      <trkpt lat="47.8136" lon="7.10433">
        <ele>346</ele>
        <time>2023-05-06T07:37:22Z</time>
      </trkpt>
      <trkpt lat="47.81362" lon="7.10423">
        <ele>347</ele>
        <time>2023-05-06T07:37:32Z</time>
      </trkpt>
      <trkpt lat="47.81363" lon="7.10416">
        <ele>347</ele>
        <time>2023-05-06T07:37:35Z</time>
      </trkpt>
      <trkpt lat="47.81373" lon="7.10384">
        <ele>349</ele>
        <time>2023-05-06T07:37:55Z</time>
      </trkpt>
      <trkpt lat="47.81378" lon="7.10381">
        <ele>349</ele>
        <time>2023-05-06T07:38:00Z</time>
      </trkpt>
      <trkpt lat="47.81395" lon="7.10375">
        <ele>351</ele>
        <time>2023-05-06T07:38:17Z</time>
      </trkpt>
      <trkpt lat="47.81404" lon="7.10375">
        <ele>352</ele>
        <time>2023-05-06T07:38:26Z</time>
      </trkpt>
      <trkpt lat="47.81409" lon="7.10373">
        <ele>353</ele>
        <time>2023-05-06T07:38:31Z</time>
      </trkpt>
      <trkpt lat="47.8141" lon="7.10367">
        <ele>353</ele>
        <time>2023-05-06T07:38:36Z</time>
      </trkpt>
      <trkpt lat="47.81413" lon="7.10362">
        <ele>354</ele>
        <time>2023-05-06T07:38:41Z</time>
      </trkpt>
      <trkpt lat="47.81426" lon="7.10346">
        <ele>358</ele>
        <time>2023-05-06T07:39:03Z</time>
      </trkpt>
      <trkpt lat="47.81431" lon="7.10346">
        <ele>359</ele>
        <time>2023-05-06T07:39:08Z</time>
      </trkpt>
      <trkpt lat="47.81451" lon="7.10333">
        <ele>363</ele>
        <time>2023-05-06T07:39:34Z</time>
      </trkpt>
      <trkpt lat="47.8148" lon="7.10323">
        <ele>369</ele>
        <time>2023-05-06T07:40:06Z</time>
      </trkpt>
      <trkpt lat="47.81508" lon="7.1032">
        <ele>374</ele>
        <time>2023-05-06T07:40:39Z</time>
      </trkpt>
      <trkpt lat="47.81538" lon="7.10319">
        <ele>379</ele>
        <time>2023-05-06T07:41:15Z</time>
      </trkpt>
      <trkpt lat="47.81564" lon="7.10321">
        <ele>385</ele>
        <time>2023-05-06T07:41:46Z</time>
      </trkpt>
      <trkpt lat="47.81569" lon="7.10321">
        <ele>386</ele>
        <time>2023-05-06T07:41:53Z</time>
      </trkpt>
      <trkpt lat="47.81572" lon="7.10325">
        <ele>387</ele>
        <time>2023-05-06T07:41:59Z</time>
      </trkpt>
      <trkpt lat="47.81584" lon="7.10325">
        <ele>389</ele>
        <time>2023-05-06T07:42:12Z</time>
      </trkpt>
      <trkpt lat="47.81594" lon="7.10329">
        <ele>390</ele>
        <time>2023-05-06T07:42:22Z</time>
      </trkpt>
      <trkpt lat="47.81598" lon="7.10333">
        <ele>391</ele>
        <time>2023-05-06T07:42:30Z</time>
      </trkpt>
      <trkpt lat="47.81602" lon="7.10337">
        <ele>392</ele>
        <time>2023-05-06T07:42:36Z</time>
      </trkpt>
      <trkpt lat="47.81611" lon="7.10342">
        <ele>394</ele>
        <time>2023-05-06T07:42:47Z</time>
      </trkpt>
      <trkpt lat="47.81615" lon="7.10335">
        <ele>397</ele>
        <time>2023-05-06T07:43:03Z</time>
      </trkpt>
      <trkpt lat="47.81613" lon="7.10324">
        <ele>399</ele>
        <time>2023-05-06T07:43:12Z</time>
      </trkpt>
      <trkpt lat="47.81612" lon="7.10305">
        <ele>401</ele>
        <time>2023-05-06T07:43:26Z</time>
      </trkpt>
      <trkpt lat="47.81607" lon="7.10293">
        <ele>402</ele>
        <time>2023-05-06T07:43:36Z</time>
      </trkpt>
      <trkpt lat="47.81582" lon="7.10265">
        <ele>408</ele>
        <time>2023-05-06T07:44:10Z</time>
      </trkpt>
      <trkpt lat="47.81577" lon="7.10261">
        <ele>409</ele>
        <time>2023-05-06T07:44:16Z</time>
      </trkpt>
      <trkpt lat="47.81568" lon="7.10243">
        <ele>412</ele>
        <time>2023-05-06T07:44:32Z</time>
      </trkpt>
      <trkpt lat="47.81545" lon="7.10207">
        <ele>416</ele>
        <time>2023-05-06T07:45:06Z</time>
      </trkpt>
      <trkpt lat="47.81528" lon="7.10185">
        <ele>419</ele>
        <time>2023-05-06T07:45:29Z</time>
      </trkpt>
      <trkpt lat="47.81524" lon="7.10183">
        <ele>420</ele>
        <time>2023-05-06T07:45:34Z</time>
      </trkpt>
      <trkpt lat="47.81512" lon="7.10186">
        <ele>421</ele>
        <time>2023-05-06T07:45:46Z</time>
      </trkpt>
      <trkpt lat="47.81509" lon="7.10181">
        <ele>422</ele>
        <time>2023-05-06T07:45:53Z</time>
      </trkpt>
      <trkpt lat="47.81527" lon="7.10158">
        <ele>424</ele>
        <time>2023-05-06T07:46:12Z</time>
      </trkpt>
      <trkpt lat="47.8153" lon="7.10143">
        <ele>425</ele>
        <time>2023-05-06T07:46:23Z</time>
      </trkpt>
      <trkpt lat="47.81526" lon="7.10147">
        <ele>429</ele>
        <time>2023-05-06T07:46:43Z</time>
      </trkpt>
      <trkpt lat="47.81521" lon="7.10144">
        <ele>431</ele>
        <time>2023-05-06T07:46:53Z</time>
      </trkpt>
      <trkpt lat="47.8152" lon="7.10137">
        <ele>433</ele>
        <time>2023-05-06T07:46:59Z</time>
      </trkpt>
      <trkpt lat="47.81521" lon="7.1013">
        <ele>434</ele>
        <time>2023-05-06T07:47:05Z</time>
      </trkpt>
      <trkpt lat="47.81524" lon="7.10117">
        <ele>434</ele>
        <time>2023-05-06T07:47:13Z</time>
      </trkpt>
      <trkpt lat="47.81519" lon="7.10114">
        <ele>435</ele>
        <time>2023-05-06T07:47:21Z</time>
      </trkpt>
      <trkpt lat="47.81508" lon="7.10091">
        <ele>440</ele>
        <time>2023-05-06T07:47:51Z</time>
      </trkpt>
      <trkpt lat="47.81502" lon="7.10084">
        <ele>442</ele>
        <time>2023-05-06T07:48:02Z</time>
      </trkpt>
      <trkpt lat="47.81503" lon="7.10095">
        <ele>443</ele>
        <time>2023-05-06T07:48:14Z</time>
      </trkpt>
      <trkpt lat="47.81502" lon="7.10106">
        <ele>442</ele>
        <time>2023-05-06T07:48:46Z</time>
      </trkpt>
      <trkpt lat="47.81498" lon="7.10107">
        <ele>442</ele>
        <time>2023-05-06T07:48:57Z</time>
      </trkpt>
      <trkpt lat="47.81494" lon="7.10108">
        <ele>443</ele>
        <time>2023-05-06T07:49:07Z</time>
      </trkpt>
      <trkpt lat="47.81497" lon="7.10114">
        <ele>444</ele>
        <time>2023-05-06T07:49:13Z</time>
      </trkpt>
      <trkpt lat="47.81495" lon="7.10112">
        <ele>444</ele>
        <time>2023-05-06T07:49:48Z</time>
      </trkpt>
      <trkpt lat="47.81491" lon="7.10115">
        <ele>445</ele>
        <time>2023-05-06T07:49:58Z</time>
      </trkpt>
      <trkpt lat="47.81491" lon="7.10123">
        <ele>446</ele>
        <time>2023-05-06T07:50:12Z</time>
      </trkpt>
      <trkpt lat="47.8148" lon="7.10131">
        <ele>446</ele>
        <time>2023-05-06T07:50:28Z</time>
      </trkpt>
      <trkpt lat="47.81482" lon="7.10092">
        <ele>437</ele>
        <time>2023-05-06T07:54:05Z</time>
      </trkpt>
      <trkpt lat="47.81483" lon="7.10092">
        <ele>437</ele>
        <time>2023-05-06T07:54:06Z</time>
      </trkpt>
      <trkpt lat="47.81488" lon="7.1009">
        <ele>437</ele>
        <time>2023-05-06T07:54:11Z</time>
      </trkpt>
      <trkpt lat="47.81493" lon="7.10086">
        <ele>437</ele>
        <time>2023-05-06T07:54:16Z</time>
      </trkpt>
      <trkpt lat="47.815" lon="7.10083">
        <ele>437</ele>
        <time>2023-05-06T07:54:25Z</time>
      </trkpt>
      <trkpt lat="47.81504" lon="7.10084">
        <ele>438</ele>
        <time>2023-05-06T07:54:31Z</time>
      </trkpt>
      <trkpt lat="47.81507" lon="7.10089">
        <ele>438</ele>
        <time>2023-05-06T07:54:36Z</time>
      </trkpt>
      <trkpt lat="47.81514" lon="7.10101">
        <ele>436</ele>
        <time>2023-05-06T07:54:45Z</time>
      </trkpt>
      <trkpt lat="47.81516" lon="7.10107">
        <ele>435</ele>
        <time>2023-05-06T07:54:49Z</time>
      </trkpt>
      <trkpt lat="47.81521" lon="7.10114">
        <ele>433</ele>
        <time>2023-05-06T07:54:56Z</time>
      </trkpt>
      <trkpt lat="47.81525" lon="7.10116">
        <ele>432</ele>
        <time>2023-05-06T07:55:00Z</time>
      </trkpt>
      <trkpt lat="47.81532" lon="7.10105">
        <ele>429</ele>
        <time>2023-05-06T07:55:11Z</time>
      </trkpt>
      <trkpt lat="47.81532" lon="7.10098">
        <ele>428</ele>
        <time>2023-05-06T07:55:15Z</time>
      </trkpt>
      <trkpt lat="47.81532" lon="7.10084">
        <ele>426</ele>
        <time>2023-05-06T07:55:23Z</time>
      </trkpt>
      <trkpt lat="47.81537" lon="7.10086">
        <ele>424</ele>
        <time>2023-05-06T07:55:31Z</time>
      </trkpt>
      <trkpt lat="47.81541" lon="7.10091">
        <ele>423</ele>
        <time>2023-05-06T07:55:45Z</time>
      </trkpt>
      <trkpt lat="47.81544" lon="7.10083">
        <ele>422</ele>
        <time>2023-05-06T07:55:56Z</time>
      </trkpt>
      <trkpt lat="47.81548" lon="7.1008">
        <ele>422</ele>
        <time>2023-05-06T07:56:01Z</time>
      </trkpt>
      <trkpt lat="47.81557" lon="7.10083">
        <ele>421</ele>
        <time>2023-05-06T07:56:11Z</time>
      </trkpt>
      <trkpt lat="47.81561" lon="7.10086">
        <ele>421</ele>
        <time>2023-05-06T07:56:15Z</time>
      </trkpt>
      <trkpt lat="47.81569" lon="7.10091">
        <ele>422</ele>
        <time>2023-05-06T07:56:23Z</time>
      </trkpt>
      <trkpt lat="47.81573" lon="7.10094">
        <ele>422</ele>
        <time>2023-05-06T07:56:27Z</time>
      </trkpt>
      <trkpt lat="47.81586" lon="7.10103">
        <ele>422</ele>
        <time>2023-05-06T07:56:39Z</time>
      </trkpt>
      <trkpt lat="47.8159" lon="7.10107">
        <ele>422</ele>
        <time>2023-05-06T07:56:42Z</time>
      </trkpt>
      <trkpt lat="47.81598" lon="7.10116">
        <ele>422</ele>
        <time>2023-05-06T07:56:48Z</time>
      </trkpt>
      <trkpt lat="47.816" lon="7.10123">
        <ele>421</ele>
        <time>2023-05-06T07:56:52Z</time>
      </trkpt>
      <trkpt lat="47.81601" lon="7.1013">
        <ele>421</ele>
        <time>2023-05-06T07:56:56Z</time>
      </trkpt>
      <trkpt lat="47.81604" lon="7.10146">
        <ele>422</ele>
        <time>2023-05-06T07:57:07Z</time>
      </trkpt>
      <trkpt lat="47.81611" lon="7.10162">
        <ele>424</ele>
        <time>2023-05-06T07:57:19Z</time>
      </trkpt>
      <trkpt lat="47.81623" lon="7.102">
        <ele>427</ele>
        <time>2023-05-06T07:57:44Z</time>
      </trkpt>
      <trkpt lat="47.81627" lon="7.10206">
        <ele>428</ele>
        <time>2023-05-06T07:57:49Z</time>
      </trkpt>
      <trkpt lat="47.81631" lon="7.1021">
        <ele>428</ele>
        <time>2023-05-06T07:57:53Z</time>
      </trkpt>
      <trkpt lat="47.81638" lon="7.10212">
        <ele>429</ele>
        <time>2023-05-06T07:58:02Z</time>
      </trkpt>
      <trkpt lat="47.81643" lon="7.1021">
        <ele>430</ele>
        <time>2023-05-06T07:58:07Z</time>
      </trkpt>
      <trkpt lat="47.81653" lon="7.102">
        <ele>431</ele>
        <time>2023-05-06T07:58:20Z</time>
      </trkpt>
      <trkpt lat="47.81666" lon="7.10192">
        <ele>435</ele>
        <time>2023-05-06T07:58:38Z</time>
      </trkpt>
      <trkpt lat="47.81679" lon="7.10174">
        <ele>438</ele>
        <time>2023-05-06T07:58:57Z</time>
      </trkpt>
      <trkpt lat="47.81685" lon="7.10176">
        <ele>440</ele>
        <time>2023-05-06T07:59:06Z</time>
      </trkpt>
      <trkpt lat="47.81696" lon="7.10179">
        <ele>443</ele>
        <time>2023-05-06T07:59:18Z</time>
      </trkpt>
      <trkpt lat="47.81701" lon="7.10183">
        <ele>445</ele>
        <time>2023-05-06T07:59:29Z</time>
      </trkpt>
      <trkpt lat="47.81709" lon="7.10183">
        <ele>447</ele>
        <time>2023-05-06T07:59:41Z</time>
      </trkpt>
      <trkpt lat="47.81714" lon="7.10185">
        <ele>448</ele>
        <time>2023-05-06T07:59:46Z</time>
      </trkpt>
      <trkpt lat="47.81718" lon="7.10188">
        <ele>449</ele>
        <time>2023-05-06T07:59:51Z</time>
      </trkpt>
      <trkpt lat="47.81729" lon="7.10183">
        <ele>452</ele>
        <time>2023-05-06T08:00:06Z</time>
      </trkpt>
      <trkpt lat="47.81733" lon="7.10179">
        <ele>453</ele>
        <time>2023-05-06T08:00:14Z</time>
      </trkpt>
      <trkpt lat="47.81739" lon="7.10176">
        <ele>456</ele>
        <time>2023-05-06T08:00:26Z</time>
      </trkpt>
      <trkpt lat="47.81741" lon="7.10181">
        <ele>457</ele>
        <time>2023-05-06T08:00:30Z</time>
      </trkpt>
      <trkpt lat="47.81744" lon="7.10186">
        <ele>457</ele>
        <time>2023-05-06T08:00:34Z</time>
      </trkpt>
      <trkpt lat="47.81748" lon="7.10184">
        <ele>459</ele>
        <time>2023-05-06T08:00:42Z</time>
      </trkpt>
      <trkpt lat="47.81755" lon="7.10167">
        <ele>463</ele>
        <time>2023-05-06T08:01:03Z</time>
      </trkpt>
      <trkpt lat="47.81761" lon="7.10179">
        <ele>465</ele>
        <time>2023-05-06T08:01:12Z</time>
      </trkpt>
      <trkpt lat="47.81765" lon="7.10175">
        <ele>466</ele>
        <time>2023-05-06T08:01:19Z</time>
      </trkpt>
      <trkpt lat="47.81769" lon="7.1016">
        <ele>467</ele>
        <time>2023-05-06T08:01:31Z</time>
      </trkpt>
      <trkpt lat="47.81772" lon="7.10139">
        <ele>469</ele>
        <time>2023-05-06T08:01:48Z</time>
      </trkpt>
      <trkpt lat="47.81787" lon="7.10095">
        <ele>474</ele>
        <time>2023-05-06T08:02:21Z</time>
      </trkpt>
      <trkpt lat="47.81799" lon="7.10048">
        <ele>478</ele>
        <time>2023-05-06T08:02:55Z</time>
      </trkpt>
      <trkpt lat="47.81814" lon="7.10012">
        <ele>483</ele>
        <time>2023-05-06T08:03:26Z</time>
      </trkpt>
      <trkpt lat="47.81816" lon="7.10005">
        <ele>483</ele>
        <time>2023-05-06T08:03:31Z</time>
      </trkpt>
      <trkpt lat="47.81817" lon="7.09999">
        <ele>484</ele>
        <time>2023-05-06T08:03:35Z</time>
      </trkpt>
      <trkpt lat="47.81827" lon="7.09971">
        <ele>487</ele>
        <time>2023-05-06T08:03:57Z</time>
      </trkpt>
      <trkpt lat="47.8183" lon="7.09977">
        <ele>488</ele>
        <time>2023-05-06T08:04:05Z</time>
      </trkpt>
      <trkpt lat="47.81833" lon="7.10005">
        <ele>491</ele>
        <time>2023-05-06T08:04:24Z</time>
      </trkpt>
      <trkpt lat="47.81832" lon="7.10013">
        <ele>492</ele>
        <time>2023-05-06T08:04:29Z</time>
      </trkpt>
      <trkpt lat="47.81834" lon="7.1002">
        <ele>492</ele>
        <time>2023-05-06T08:04:33Z</time>
      </trkpt>
      <trkpt lat="47.81833" lon="7.10028">
        <ele>493</ele>
        <time>2023-05-06T08:04:38Z</time>
      </trkpt>
      <trkpt lat="47.81834" lon="7.10037">
        <ele>494</ele>
        <time>2023-05-06T08:04:45Z</time>
      </trkpt>
      <trkpt lat="47.81834" lon="7.10048">
        <ele>495</ele>
        <time>2023-05-06T08:04:53Z</time>
      </trkpt>
      <trkpt lat="47.81836" lon="7.10069">
        <ele>496</ele>
        <time>2023-05-06T08:05:06Z</time>
      </trkpt>
      <trkpt lat="47.81838" lon="7.10075">
        <ele>497</ele>
        <time>2023-05-06T08:05:09Z</time>
      </trkpt>
      <trkpt lat="47.81841" lon="7.10096">
        <ele>499</ele>
        <time>2023-05-06T08:05:25Z</time>
      </trkpt>
      <trkpt lat="47.81848" lon="7.10121">
        <ele>501</ele>
        <time>2023-05-06T08:05:44Z</time>
      </trkpt>
      <trkpt lat="47.8185" lon="7.10111">
        <ele>504</ele>
        <time>2023-05-06T08:05:57Z</time>
      </trkpt>
      <trkpt lat="47.81856" lon="7.10061">
        <ele>510</ele>
        <time>2023-05-06T08:06:30Z</time>
      </trkpt>
      <trkpt lat="47.81863" lon="7.10019">
        <ele>513</ele>
        <time>2023-05-06T08:06:57Z</time>
      </trkpt>
      <trkpt lat="47.81867" lon="7.10005">
        <ele>514</ele>
        <time>2023-05-06T08:07:08Z</time>
      </trkpt>
      <trkpt lat="47.81871" lon="7.09986">
        <ele>516</ele>
        <time>2023-05-06T08:07:19Z</time>
      </trkpt>
      <trkpt lat="47.81887" lon="7.09946">
        <ele>520</ele>
        <time>2023-05-06T08:07:52Z</time>
      </trkpt>
      <trkpt lat="47.81894" lon="7.09932">
        <ele>522</ele>
        <time>2023-05-06T08:08:06Z</time>
      </trkpt>
      <trkpt lat="47.81896" lon="7.0992">
        <ele>524</ele>
        <time>2023-05-06T08:08:16Z</time>
      </trkpt>
      <trkpt lat="47.81899" lon="7.09907">
        <ele>526</ele>
        <time>2023-05-06T08:08:26Z</time>
      </trkpt>
      <trkpt lat="47.81904" lon="7.09898">
        <ele>527</ele>
        <time>2023-05-06T08:08:36Z</time>
      </trkpt>
      <trkpt lat="47.81906" lon="7.09889">
        <ele>528</ele>
        <time>2023-05-06T08:08:48Z</time>
      </trkpt>
      <trkpt lat="47.81908" lon="7.09882">
        <ele>528</ele>
        <time>2023-05-06T08:08:53Z</time>
      </trkpt>
      <trkpt lat="47.81908" lon="7.09875">
        <ele>529</ele>
        <time>2023-05-06T08:08:58Z</time>
      </trkpt>
      <trkpt lat="47.81916" lon="7.0984">
        <ele>532</ele>
        <time>2023-05-06T08:09:24Z</time>
      </trkpt>
      <trkpt lat="47.8192" lon="7.09793">
        <ele>535</ele>
        <time>2023-05-06T08:09:57Z</time>
      </trkpt>
      <trkpt lat="47.81923" lon="7.09764">
        <ele>538</ele>
        <time>2023-05-06T08:10:16Z</time>
      </trkpt>
      <trkpt lat="47.81923" lon="7.09774">
        <ele>538</ele>
        <time>2023-05-06T08:10:58Z</time>
      </trkpt>
      <trkpt lat="47.81928" lon="7.09766">
        <ele>538</ele>
        <time>2023-05-06T08:11:04Z</time>
      </trkpt>
      <trkpt lat="47.81936" lon="7.09755">
        <ele>540</ele>
        <time>2023-05-06T08:11:15Z</time>
      </trkpt>
      <trkpt lat="47.81944" lon="7.09762">
        <ele>540</ele>
        <time>2023-05-06T08:11:22Z</time>
      </trkpt>
      <trkpt lat="47.81978" lon="7.09786">
        <ele>542</ele>
        <time>2023-05-06T08:11:56Z</time>
      </trkpt>
      <trkpt lat="47.81996" lon="7.09797">
        <ele>544</ele>
        <time>2023-05-06T08:12:14Z</time>
      </trkpt>
      <trkpt lat="47.82009" lon="7.09813">
        <ele>545</ele>
        <time>2023-05-06T08:12:28Z</time>
      </trkpt>
      <trkpt lat="47.82033" lon="7.0986">
        <ele>547</ele>
        <time>2023-05-06T08:13:02Z</time>
      </trkpt>
      <trkpt lat="47.82052" lon="7.09903">
        <ele>549</ele>
        <time>2023-05-06T08:13:32Z</time>
      </trkpt>
      <trkpt lat="47.8206" lon="7.09918">
        <ele>550</ele>
        <time>2023-05-06T08:13:43Z</time>
      </trkpt>
      <trkpt lat="47.82086" lon="7.09948">
        <ele>551</ele>
        <time>2023-05-06T08:14:11Z</time>
      </trkpt>
      <trkpt lat="47.82108" lon="7.09962">
        <ele>553</ele>
        <time>2023-05-06T08:14:34Z</time>
      </trkpt>
      <trkpt lat="47.82112" lon="7.09964">
        <ele>553</ele>
        <time>2023-05-06T08:14:39Z</time>
      </trkpt>
      <trkpt lat="47.82143" lon="7.09953">
        <ele>556</ele>
        <time>2023-05-06T08:15:10Z</time>
      </trkpt>
      <trkpt lat="47.82147" lon="7.09952">
        <ele>556</ele>
        <time>2023-05-06T08:15:14Z</time>
      </trkpt>
      <trkpt lat="47.82151" lon="7.09948">
        <ele>556</ele>
        <time>2023-05-06T08:15:17Z</time>
      </trkpt>
      <trkpt lat="47.82177" lon="7.09934">
        <ele>558</ele>
        <time>2023-05-06T08:15:42Z</time>
      </trkpt>
      <trkpt lat="47.8219" lon="7.09924">
        <ele>559</ele>
        <time>2023-05-06T08:15:55Z</time>
      </trkpt>
      <trkpt lat="47.82194" lon="7.09923">
        <ele>560</ele>
        <time>2023-05-06T08:15:59Z</time>
      </trkpt>
      <trkpt lat="47.82204" lon="7.09917">
        <ele>561</ele>
        <time>2023-05-06T08:16:09Z</time>
      </trkpt>
      <trkpt lat="47.82221" lon="7.09911">
        <ele>562</ele>
        <time>2023-05-06T08:16:25Z</time>
      </trkpt>
      <trkpt lat="47.82226" lon="7.09913">
        <ele>562</ele>
        <time>2023-05-06T08:16:29Z</time>
      </trkpt>
      <trkpt lat="47.82243" lon="7.09928">
        <ele>563</ele>
        <time>2023-05-06T08:16:45Z</time>
      </trkpt>
      <trkpt lat="47.82251" lon="7.09937">
        <ele>563</ele>
        <time>2023-05-06T08:16:54Z</time>
      </trkpt>
      <trkpt lat="47.82281" lon="7.09957">
        <ele>565</ele>
        <time>2023-05-06T08:17:23Z</time>
      </trkpt>
      <trkpt lat="47.82291" lon="7.09961">
        <ele>566</ele>
        <time>2023-05-06T08:17:32Z</time>
      </trkpt>
      <trkpt lat="47.82298" lon="7.0997">
        <ele>567</ele>
        <time>2023-05-06T08:17:40Z</time>
      </trkpt>
      <trkpt lat="47.82301" lon="7.09977">
        <ele>567</ele>
        <time>2023-05-06T08:17:44Z</time>
      </trkpt>
      <trkpt lat="47.82303" lon="7.09985">
        <ele>568</ele>
        <time>2023-05-06T08:17:49Z</time>
      </trkpt>
      <trkpt lat="47.82307" lon="7.09998">
        <ele>568</ele>
        <time>2023-05-06T08:17:57Z</time>
      </trkpt>
      <trkpt lat="47.82305" lon="7.10018">
        <ele>569</ele>
        <time>2023-05-06T08:18:10Z</time>
      </trkpt>
      <trkpt lat="47.82302" lon="7.10023">
        <ele>570</ele>
        <time>2023-05-06T08:18:15Z</time>
      </trkpt>
      <trkpt lat="47.82287" lon="7.10064">
        <ele>572</ele>
        <time>2023-05-06T08:18:41Z</time>
      </trkpt>
      <trkpt lat="47.82286" lon="7.10077">
        <ele>574</ele>
        <time>2023-05-06T08:18:50Z</time>
      </trkpt>
      <trkpt lat="47.82286" lon="7.10103">
        <ele>576</ele>
        <time>2023-05-06T08:19:07Z</time>
      </trkpt>
      <trkpt lat="47.82294" lon="7.10139">
        <ele>579</ele>
        <time>2023-05-06T08:19:30Z</time>
      </trkpt>
      <trkpt lat="47.82296" lon="7.10144">
        <ele>579</ele>
        <time>2023-05-06T08:19:33Z</time>
      </trkpt>
      <trkpt lat="47.82297" lon="7.10164">
        <ele>581</ele>
        <time>2023-05-06T08:19:48Z</time>
      </trkpt>
      <trkpt lat="47.82293" lon="7.1021">
        <ele>585</ele>
        <time>2023-05-06T08:20:20Z</time>
      </trkpt>
      <trkpt lat="47.82286" lon="7.10255">
        <ele>588</ele>
        <time>2023-05-06T08:20:47Z</time>
      </trkpt>
      <trkpt lat="47.82278" lon="7.10287">
        <ele>591</ele>
        <time>2023-05-06T08:21:09Z</time>
      </trkpt>
      <trkpt lat="47.82277" lon="7.10294">
        <ele>591</ele>
        <time>2023-05-06T08:21:13Z</time>
      </trkpt>
      <trkpt lat="47.82275" lon="7.103">
        <ele>592</ele>
        <time>2023-05-06T08:21:17Z</time>
      </trkpt>
      <trkpt lat="47.82272" lon="7.1032">
        <ele>594</ele>
        <time>2023-05-06T08:21:30Z</time>
      </trkpt>
      <trkpt lat="47.82273" lon="7.10328">
        <ele>594</ele>
        <time>2023-05-06T08:21:36Z</time>
      </trkpt>
      <trkpt lat="47.82279" lon="7.10332">
        <ele>595</ele>
        <time>2023-05-06T08:21:42Z</time>
      </trkpt>
      <trkpt lat="47.82288" lon="7.10331">
        <ele>595</ele>
        <time>2023-05-06T08:21:49Z</time>
      </trkpt>
      <trkpt lat="47.82314" lon="7.10321">
        <ele>595</ele>
        <time>2023-05-06T08:22:15Z</time>
      </trkpt>
      <trkpt lat="47.82347" lon="7.10317">
        <ele>596</ele>
        <time>2023-05-06T08:22:44Z</time>
      </trkpt>
      <trkpt lat="47.82352" lon="7.10315">
        <ele>596</ele>
        <time>2023-05-06T08:22:48Z</time>
      </trkpt>
      <trkpt lat="47.82372" lon="7.10312">
        <ele>597</ele>
        <time>2023-05-06T08:23:07Z</time>
      </trkpt>
      <trkpt lat="47.8241" lon="7.10314">
        <ele>597</ele>
        <time>2023-05-06T08:23:40Z</time>
      </trkpt>
      <trkpt lat="47.82448" lon="7.10332">
        <ele>597</ele>
        <time>2023-05-06T08:24:12Z</time>
      </trkpt>
      <trkpt lat="47.82476" lon="7.10346">
        <ele>594</ele>
        <time>2023-05-06T08:24:40Z</time>
      </trkpt>
      <trkpt lat="47.8251" lon="7.10359">
        <ele>591</ele>
        <time>2023-05-06T08:25:11Z</time>
      </trkpt>
      <trkpt lat="47.82529" lon="7.1037">
        <ele>590</ele>
        <time>2023-05-06T08:25:30Z</time>
      </trkpt>
      <trkpt lat="47.82561" lon="7.10378">
        <ele>590</ele>
        <time>2023-05-06T08:25:58Z</time>
      </trkpt>
      <trkpt lat="47.82576" lon="7.10383">
        <ele>590</ele>
        <time>2023-05-06T08:26:09Z</time>
      </trkpt>
      <trkpt lat="47.82586" lon="7.10384">
        <ele>590</ele>
        <time>2023-05-06T08:26:17Z</time>
      </trkpt>
      <trkpt lat="47.8259" lon="7.10381">
        <ele>590</ele>
        <time>2023-05-06T08:26:22Z</time>
      </trkpt>
      <trkpt lat="47.82614" lon="7.10357">
        <ele>592</ele>
        <time>2023-05-06T08:26:53Z</time>
      </trkpt>
      <trkpt lat="47.8262" lon="7.10358">
        <ele>593</ele>
        <time>2023-05-06T08:27:00Z</time>
      </trkpt>
      <trkpt lat="47.82621" lon="7.10365">
        <ele>594</ele>
        <time>2023-05-06T08:27:04Z</time>
      </trkpt>
      <trkpt lat="47.82624" lon="7.1037">
        <ele>595</ele>
        <time>2023-05-06T08:27:08Z</time>
      </trkpt>
      <trkpt lat="47.82628" lon="7.10365">
        <ele>596</ele>
        <time>2023-05-06T08:27:13Z</time>
      </trkpt>
      <trkpt lat="47.82639" lon="7.10331">
        <ele>599</ele>
        <time>2023-05-06T08:27:39Z</time>
      </trkpt>
      <trkpt lat="47.82653" lon="7.10368">
        <ele>604</ele>
        <time>2023-05-06T08:28:07Z</time>
      </trkpt>
      <trkpt lat="47.82658" lon="7.1036">
        <ele>606</ele>
        <time>2023-05-06T08:28:19Z</time>
      </trkpt>
      <trkpt lat="47.82659" lon="7.10353">
        <ele>606</ele>
        <time>2023-05-06T08:28:24Z</time>
      </trkpt>
      <trkpt lat="47.82662" lon="7.10345">
        <ele>608</ele>
        <time>2023-05-06T08:28:32Z</time>
      </trkpt>
      <trkpt lat="47.82664" lon="7.10336">
        <ele>609</ele>
        <time>2023-05-06T08:28:40Z</time>
      </trkpt>
      <trkpt lat="47.82667" lon="7.1033">
        <ele>610</ele>
        <time>2023-05-06T08:28:46Z</time>
      </trkpt>
      <trkpt lat="47.82673" lon="7.10326">
        <ele>611</ele>
        <time>2023-05-06T08:28:53Z</time>
      </trkpt>
      <trkpt lat="47.8268" lon="7.10325">
        <ele>613</ele>
        <time>2023-05-06T08:29:02Z</time>
      </trkpt>
      <trkpt lat="47.82699" lon="7.10309">
        <ele>617</ele>
        <time>2023-05-06T08:29:30Z</time>
      </trkpt>
      <trkpt lat="47.82708" lon="7.10296">
        <ele>620</ele>
        <time>2023-05-06T08:29:44Z</time>
      </trkpt>
      <trkpt lat="47.82713" lon="7.10295">
        <ele>620</ele>
        <time>2023-05-06T08:29:48Z</time>
      </trkpt>
      <trkpt lat="47.82722" lon="7.10288">
        <ele>622</ele>
        <time>2023-05-06T08:30:00Z</time>
      </trkpt>
      <trkpt lat="47.82739" lon="7.10282">
        <ele>624</ele>
        <time>2023-05-06T08:30:18Z</time>
      </trkpt>
      <trkpt lat="47.82753" lon="7.10269">
        <ele>626</ele>
        <time>2023-05-06T08:30:36Z</time>
      </trkpt>
      <trkpt lat="47.82758" lon="7.10267">
        <ele>627</ele>
        <time>2023-05-06T08:30:42Z</time>
      </trkpt>
      <trkpt lat="47.82771" lon="7.10258">
        <ele>627</ele>
        <time>2023-05-06T08:30:55Z</time>
      </trkpt>
      <trkpt lat="47.82782" lon="7.10248">
        <ele>629</ele>
        <time>2023-05-06T08:31:07Z</time>
      </trkpt>
      <trkpt lat="47.82786" lon="7.10242">
        <ele>630</ele>
        <time>2023-05-06T08:31:15Z</time>
      </trkpt>
      <trkpt lat="47.82809" lon="7.10226">
        <ele>635</ele>
        <time>2023-05-06T08:31:42Z</time>
      </trkpt>
      <trkpt lat="47.82825" lon="7.10206">
        <ele>640</ele>
        <time>2023-05-06T08:32:11Z</time>
      </trkpt>
      <trkpt lat="47.8283" lon="7.10202">
        <ele>641</ele>
        <time>2023-05-06T08:32:16Z</time>
      </trkpt>
      <trkpt lat="47.82855" lon="7.10174">
        <ele>647</ele>
        <time>2023-05-06T08:32:50Z</time>
      </trkpt>
      <trkpt lat="47.82887" lon="7.10154">
        <ele>650</ele>
        <time>2023-05-06T08:33:20Z</time>
      </trkpt>
      <trkpt lat="47.8292" lon="7.10153">
        <ele>657</ele>
        <time>2023-05-06T08:33:58Z</time>
      </trkpt>
      <trkpt lat="47.82925" lon="7.10151">
        <ele>657</ele>
        <time>2023-05-06T08:34:02Z</time>
      </trkpt>
      <trkpt lat="47.8293" lon="7.10149">
        <ele>657</ele>
        <time>2023-05-06T08:34:06Z</time>
      </trkpt>
      <trkpt lat="47.82934" lon="7.10147">
        <ele>658</ele>
        <time>2023-05-06T08:34:10Z</time>
      </trkpt>
      <trkpt lat="47.82952" lon="7.1013">
        <ele>660</ele>
        <time>2023-05-06T08:34:33Z</time>
      </trkpt>
      <trkpt lat="47.82962" lon="7.1013">
        <ele>662</ele>
        <time>2023-05-06T08:34:43Z</time>
      </trkpt>
      <trkpt lat="47.82974" lon="7.10123">
        <ele>664</ele>
        <time>2023-05-06T08:34:58Z</time>
      </trkpt>
      <trkpt lat="47.82996" lon="7.10106">
        <ele>667</ele>
        <time>2023-05-06T08:35:24Z</time>
      </trkpt>
      <trkpt lat="47.83011" lon="7.10099">
        <ele>669</ele>
        <time>2023-05-06T08:35:42Z</time>
      </trkpt>
      <trkpt lat="47.83016" lon="7.101">
        <ele>670</ele>
        <time>2023-05-06T08:35:47Z</time>
      </trkpt>
      <trkpt lat="47.83026" lon="7.10097">
        <ele>672</ele>
        <time>2023-05-06T08:35:59Z</time>
      </trkpt>
      <trkpt lat="47.83031" lon="7.10097">
        <ele>672</ele>
        <time>2023-05-06T08:36:03Z</time>
      </trkpt>
      <trkpt lat="47.83056" lon="7.10083">
        <ele>677</ele>
        <time>2023-05-06T08:36:28Z</time>
      </trkpt>
      <trkpt lat="47.8306" lon="7.10081">
        <ele>677</ele>
        <time>2023-05-06T08:36:32Z</time>
      </trkpt>
      <trkpt lat="47.83065" lon="7.10077">
        <ele>678</ele>
        <time>2023-05-06T08:36:37Z</time>
      </trkpt>
      <trkpt lat="47.83068" lon="7.10071">
        <ele>678</ele>
        <time>2023-05-06T08:36:41Z</time>
      </trkpt>
      <trkpt lat="47.83072" lon="7.1007">
        <ele>678</ele>
        <time>2023-05-06T08:36:46Z</time>
      </trkpt>
      <trkpt lat="47.83075" lon="7.10062">
        <ele>679</ele>
        <time>2023-05-06T08:36:52Z</time>
      </trkpt>
      <trkpt lat="47.83078" lon="7.10057">
        <ele>679</ele>
        <time>2023-05-06T08:36:56Z</time>
      </trkpt>
      <trkpt lat="47.83084" lon="7.1005">
        <ele>680</ele>
        <time>2023-05-06T08:37:04Z</time>
      </trkpt>
      <trkpt lat="47.83089" lon="7.10048">
        <ele>681</ele>
        <time>2023-05-06T08:37:09Z</time>
      </trkpt>
      <trkpt lat="47.8311" lon="7.10032">
        <ele>684</ele>
        <time>2023-05-06T08:37:35Z</time>
      </trkpt>
      <trkpt lat="47.83114" lon="7.10027">
        <ele>685</ele>
        <time>2023-05-06T08:37:40Z</time>
      </trkpt>
      <trkpt lat="47.83119" lon="7.10028">
        <ele>685</ele>
        <time>2023-05-06T08:37:44Z</time>
      </trkpt>
      <trkpt lat="47.83123" lon="7.1003">
        <ele>685</ele>
        <time>2023-05-06T08:37:48Z</time>
      </trkpt>
      <trkpt lat="47.83138" lon="7.10037">
        <ele>684</ele>
        <time>2023-05-06T08:38:00Z</time>
      </trkpt>
      <trkpt lat="47.83146" lon="7.10035">
        <ele>684</ele>
        <time>2023-05-06T08:38:08Z</time>
      </trkpt>
      <trkpt lat="47.8315" lon="7.10037">
        <ele>684</ele>
        <time>2023-05-06T08:38:11Z</time>
      </trkpt>
      <trkpt lat="47.83156" lon="7.10037">
        <ele>685</ele>
        <time>2023-05-06T08:38:17Z</time>
      </trkpt>
      <trkpt lat="47.83163" lon="7.10048">
        <ele>686</ele>
        <time>2023-05-06T08:38:24Z</time>
      </trkpt>
      <trkpt lat="47.83169" lon="7.10062">
        <ele>686</ele>
        <time>2023-05-06T08:38:33Z</time>
      </trkpt>
      <trkpt lat="47.8318" lon="7.10078">
        <ele>689</ele>
        <time>2023-05-06T08:38:49Z</time>
      </trkpt>
      <trkpt lat="47.83187" lon="7.10088">
        <ele>689</ele>
        <time>2023-05-06T08:38:59Z</time>
      </trkpt>
      <trkpt lat="47.83198" lon="7.10103">
        <ele>692</ele>
        <time>2023-05-06T08:39:16Z</time>
      </trkpt>
      <trkpt lat="47.83207" lon="7.10113">
        <ele>693</ele>
        <time>2023-05-06T08:39:27Z</time>
      </trkpt>
      <trkpt lat="47.8321" lon="7.10119">
        <ele>694</ele>
        <time>2023-05-06T08:39:32Z</time>
      </trkpt>
      <trkpt lat="47.83213" lon="7.10127">
        <ele>695</ele>
        <time>2023-05-06T08:39:40Z</time>
      </trkpt>
      <trkpt lat="47.8322" lon="7.1014">
        <ele>698</ele>
        <time>2023-05-06T08:39:54Z</time>
      </trkpt>
      <trkpt lat="47.83233" lon="7.10154">
        <ele>700</ele>
        <time>2023-05-06T08:40:07Z</time>
      </trkpt>
      <trkpt lat="47.83251" lon="7.10157">
        <ele>703</ele>
        <time>2023-05-06T08:40:28Z</time>
      </trkpt>
      <trkpt lat="47.83256" lon="7.10152">
        <ele>704</ele>
        <time>2023-05-06T08:40:35Z</time>
      </trkpt>
      <trkpt lat="47.83261" lon="7.10151">
        <ele>704</ele>
        <time>2023-05-06T08:40:40Z</time>
      </trkpt>
      <trkpt lat="47.83268" lon="7.10152">
        <ele>704</ele>
        <time>2023-05-06T08:40:47Z</time>
      </trkpt>
      <trkpt lat="47.83273" lon="7.10154">
        <ele>704</ele>
        <time>2023-05-06T08:40:51Z</time>
      </trkpt>
      <trkpt lat="47.83277" lon="7.10154">
        <ele>704</ele>
        <time>2023-05-06T08:40:55Z</time>
      </trkpt>
      <trkpt lat="47.83294" lon="7.1016">
        <ele>706</ele>
        <time>2023-05-06T08:41:10Z</time>
      </trkpt>
      <trkpt lat="47.83299" lon="7.10159">
        <ele>707</ele>
        <time>2023-05-06T08:41:17Z</time>
      </trkpt>
      <trkpt lat="47.83329" lon="7.10146">
        <ele>713</ele>
        <time>2023-05-06T08:41:53Z</time>
      </trkpt>
      <trkpt lat="47.83337" lon="7.10141">
        <ele>715</ele>
        <time>2023-05-06T08:42:04Z</time>
      </trkpt>
      <trkpt lat="47.83342" lon="7.10136">
        <ele>716</ele>
        <time>2023-05-06T08:42:09Z</time>
      </trkpt>
      <trkpt lat="47.83346" lon="7.10133">
        <ele>716</ele>
        <time>2023-05-06T08:42:13Z</time>
      </trkpt>
      <trkpt lat="47.83374" lon="7.10112">
        <ele>722</ele>
        <time>2023-05-06T08:42:46Z</time>
      </trkpt>
      <trkpt lat="47.83387" lon="7.10101">
        <ele>724</ele>
        <time>2023-05-06T08:43:05Z</time>
      </trkpt>
      <trkpt lat="47.83391" lon="7.10095">
        <ele>725</ele>
        <time>2023-05-06T08:43:10Z</time>
      </trkpt>
      <trkpt lat="47.83415" lon="7.10075">
        <ele>730</ele>
        <time>2023-05-06T08:43:45Z</time>
      </trkpt>
      <trkpt lat="47.83419" lon="7.10071">
        <ele>731</ele>
        <time>2023-05-06T08:43:50Z</time>
      </trkpt>
      <trkpt lat="47.83422" lon="7.10066">
        <ele>732</ele>
        <time>2023-05-06T08:43:57Z</time>
      </trkpt>
      <trkpt lat="47.83426" lon="7.10063">
        <ele>733</ele>
        <time>2023-05-06T08:44:03Z</time>
      </trkpt>
      <trkpt lat="47.83457" lon="7.10056">
        <ele>737</ele>
        <time>2023-05-06T08:44:36Z</time>
      </trkpt>
      <trkpt lat="47.8347" lon="7.10053">
        <ele>740</ele>
        <time>2023-05-06T08:44:50Z</time>
      </trkpt>
      <trkpt lat="47.83481" lon="7.10067">
        <ele>741</ele>
        <time>2023-05-06T08:45:03Z</time>
      </trkpt>
      <trkpt lat="47.83488" lon="7.10078">
        <ele>741</ele>
        <time>2023-05-06T08:45:11Z</time>
      </trkpt>
      <trkpt lat="47.8349" lon="7.10084">
        <ele>742</ele>
        <time>2023-05-06T08:45:16Z</time>
      </trkpt>
      <trkpt lat="47.83494" lon="7.10089">
        <ele>743</ele>
        <time>2023-05-06T08:45:20Z</time>
      </trkpt>
      <trkpt lat="47.83499" lon="7.10108">
        <ele>746</ele>
        <time>2023-05-06T08:45:39Z</time>
      </trkpt>
      <trkpt lat="47.83501" lon="7.10115">
        <ele>746</ele>
        <time>2023-05-06T08:45:45Z</time>
      </trkpt>
      <trkpt lat="47.83507" lon="7.10125">
        <ele>747</ele>
        <time>2023-05-06T08:45:52Z</time>
      </trkpt>
      <trkpt lat="47.83522" lon="7.10166">
        <ele>752</ele>
        <time>2023-05-06T08:46:24Z</time>
      </trkpt>
      <trkpt lat="47.83525" lon="7.10174">
        <ele>754</ele>
        <time>2023-05-06T08:46:32Z</time>
      </trkpt>
      <trkpt lat="47.83528" lon="7.10178">
        <ele>756</ele>
        <time>2023-05-06T08:46:39Z</time>
      </trkpt>
      <trkpt lat="47.83547" lon="7.10207">
        <ele>759</ele>
        <time>2023-05-06T08:47:04Z</time>
      </trkpt>
      <trkpt lat="47.83558" lon="7.10231">
        <ele>762</ele>
        <time>2023-05-06T08:47:23Z</time>
      </trkpt>
      <trkpt lat="47.8356" lon="7.10239">
        <ele>763</ele>
        <time>2023-05-06T08:47:28Z</time>
      </trkpt>
      <trkpt lat="47.83559" lon="7.1027">
        <ele>766</ele>
        <time>2023-05-06T08:47:49Z</time>
      </trkpt>
      <trkpt lat="47.83558" lon="7.10284">
        <ele>767</ele>
        <time>2023-05-06T08:47:57Z</time>
      </trkpt>
      <trkpt lat="47.8356" lon="7.10289">
        <ele>767</ele>
        <time>2023-05-06T08:48:00Z</time>
      </trkpt>
      <trkpt lat="47.83563" lon="7.10302">
        <ele>768</ele>
        <time>2023-05-06T08:48:08Z</time>
      </trkpt>
      <trkpt lat="47.83563" lon="7.10309">
        <ele>768</ele>
        <time>2023-05-06T08:48:13Z</time>
      </trkpt>
      <trkpt lat="47.83562" lon="7.1033">
        <ele>770</ele>
        <time>2023-05-06T08:48:28Z</time>
      </trkpt>
      <trkpt lat="47.83559" lon="7.10339">
        <ele>771</ele>
        <time>2023-05-06T08:48:34Z</time>
      </trkpt>
      <trkpt lat="47.83558" lon="7.10345">
        <ele>772</ele>
        <time>2023-05-06T08:48:39Z</time>
      </trkpt>
      <trkpt lat="47.83562" lon="7.10366">
        <ele>774</ele>
        <time>2023-05-06T08:48:53Z</time>
      </trkpt>
      <trkpt lat="47.83564" lon="7.10372">
        <ele>774</ele>
        <time>2023-05-06T08:48:57Z</time>
      </trkpt>
      <trkpt lat="47.83571" lon="7.10374">
        <ele>774</ele>
        <time>2023-05-06T08:49:03Z</time>
      </trkpt>
      <trkpt lat="47.83575" lon="7.10376">
        <ele>774</ele>
        <time>2023-05-06T08:49:08Z</time>
      </trkpt>
      <trkpt lat="47.8358" lon="7.1038">
        <ele>774</ele>
        <time>2023-05-06T08:49:13Z</time>
      </trkpt>
      <trkpt lat="47.83583" lon="7.10387">
        <ele>775</ele>
        <time>2023-05-06T08:49:18Z</time>
      </trkpt>
      <trkpt lat="47.83587" lon="7.1039">
        <ele>774</ele>
        <time>2023-05-06T08:49:22Z</time>
      </trkpt>
      <trkpt lat="47.83593" lon="7.10402">
        <ele>774</ele>
        <time>2023-05-06T08:49:30Z</time>
      </trkpt>
      <trkpt lat="47.83603" lon="7.10409">
        <ele>774</ele>
        <time>2023-05-06T08:49:40Z</time>
      </trkpt>
      <trkpt lat="47.83613" lon="7.10411">
        <ele>774</ele>
        <time>2023-05-06T08:49:50Z</time>
      </trkpt>
      <trkpt lat="47.83618" lon="7.10414">
        <ele>774</ele>
        <time>2023-05-06T08:49:54Z</time>
      </trkpt>
      <trkpt lat="47.83637" lon="7.10416">
        <ele>774</ele>
        <time>2023-05-06T08:50:10Z</time>
      </trkpt>
      <trkpt lat="47.83647" lon="7.1042">
        <ele>774</ele>
        <time>2023-05-06T08:50:20Z</time>
      </trkpt>
      <trkpt lat="47.83659" lon="7.10422">
        <ele>775</ele>
        <time>2023-05-06T08:50:31Z</time>
      </trkpt>
      <trkpt lat="47.83674" lon="7.10438">
        <ele>776</ele>
        <time>2023-05-06T08:50:48Z</time>
      </trkpt>
      <trkpt lat="47.83678" lon="7.10443">
        <ele>778</ele>
        <time>2023-05-06T08:50:54Z</time>
      </trkpt>
      <trkpt lat="47.83686" lon="7.1045">
        <ele>780</ele>
        <time>2023-05-06T08:51:04Z</time>
      </trkpt>
      <trkpt lat="47.83691" lon="7.10457">
        <ele>780</ele>
        <time>2023-05-06T08:51:10Z</time>
      </trkpt>
      <trkpt lat="47.83694" lon="7.10461">
        <ele>780</ele>
        <time>2023-05-06T08:51:14Z</time>
      </trkpt>
      <trkpt lat="47.83703" lon="7.10472">
        <ele>781</ele>
        <time>2023-05-06T08:51:24Z</time>
      </trkpt>
      <trkpt lat="47.83707" lon="7.10478">
        <ele>781</ele>
        <time>2023-05-06T08:51:28Z</time>
      </trkpt>
      <trkpt lat="47.83716" lon="7.10485">
        <ele>781</ele>
        <time>2023-05-06T08:51:37Z</time>
      </trkpt>
      <trkpt lat="47.83718" lon="7.1049">
        <ele>781</ele>
        <time>2023-05-06T08:51:41Z</time>
      </trkpt>
      <trkpt lat="47.83723" lon="7.10494">
        <ele>781</ele>
        <time>2023-05-06T08:51:45Z</time>
      </trkpt>
      <trkpt lat="47.83726" lon="7.10499">
        <ele>781</ele>
        <time>2023-05-06T08:51:50Z</time>
      </trkpt>
      <trkpt lat="47.83727" lon="7.10505">
        <ele>781</ele>
        <time>2023-05-06T08:51:54Z</time>
      </trkpt>
      <trkpt lat="47.83728" lon="7.10512">
        <ele>781</ele>
        <time>2023-05-06T08:51:58Z</time>
      </trkpt>
      <trkpt lat="47.83731" lon="7.10525">
        <ele>780</ele>
        <time>2023-05-06T08:52:06Z</time>
      </trkpt>
      <trkpt lat="47.83731" lon="7.10533">
        <ele>779</ele>
        <time>2023-05-06T08:52:11Z</time>
      </trkpt>
      <trkpt lat="47.83735" lon="7.10553">
        <ele>780</ele>
        <time>2023-05-06T08:52:23Z</time>
      </trkpt>
      <trkpt lat="47.83737" lon="7.10568">
        <ele>779</ele>
        <time>2023-05-06T08:52:31Z</time>
      </trkpt>
      <trkpt lat="47.83738" lon="7.10575">
        <ele>779</ele>
        <time>2023-05-06T08:52:35Z</time>
      </trkpt>
      <trkpt lat="47.83737" lon="7.10588">
        <ele>779</ele>
        <time>2023-05-06T08:52:43Z</time>
      </trkpt>
      <trkpt lat="47.83737" lon="7.10602">
        <ele>778</ele>
        <time>2023-05-06T08:52:51Z</time>
      </trkpt>
      <trkpt lat="47.83736" lon="7.1061">
        <ele>778</ele>
        <time>2023-05-06T08:52:55Z</time>
      </trkpt>
      <trkpt lat="47.83737" lon="7.10625">
        <ele>778</ele>
        <time>2023-05-06T08:53:04Z</time>
      </trkpt>
      <trkpt lat="47.83739" lon="7.10632">
        <ele>778</ele>
        <time>2023-05-06T08:53:08Z</time>
      </trkpt>
      <trkpt lat="47.83741" lon="7.10651">
        <ele>779</ele>
        <time>2023-05-06T08:53:19Z</time>
      </trkpt>
      <trkpt lat="47.83739" lon="7.10665">
        <ele>781</ele>
        <time>2023-05-06T08:53:28Z</time>
      </trkpt>
      <trkpt lat="47.83738" lon="7.1068">
        <ele>782</ele>
        <time>2023-05-06T08:53:37Z</time>
      </trkpt>
      <trkpt lat="47.83739" lon="7.10702">
        <ele>781</ele>
        <time>2023-05-06T08:53:50Z</time>
      </trkpt>
      <trkpt lat="47.83739" lon="7.10725">
        <ele>782</ele>
        <time>2023-05-06T08:54:04Z</time>
      </trkpt>
      <trkpt lat="47.83743" lon="7.10739">
        <ele>781</ele>
        <time>2023-05-06T08:54:12Z</time>
      </trkpt>
      <trkpt lat="47.83741" lon="7.10745">
        <ele>781</ele>
        <time>2023-05-06T08:54:16Z</time>
      </trkpt>
      <trkpt lat="47.83743" lon="7.10781">
        <ele>784</ele>
        <time>2023-05-06T08:54:36Z</time>
      </trkpt>
      <trkpt lat="47.83742" lon="7.10787">
        <ele>785</ele>
        <time>2023-05-06T08:54:40Z</time>
      </trkpt>
      <trkpt lat="47.83744" lon="7.10805">
        <ele>786</ele>
        <time>2023-05-06T08:54:52Z</time>
      </trkpt>
      <trkpt lat="47.83764" lon="7.10851">
        <ele>791</ele>
        <time>2023-05-06T08:55:27Z</time>
      </trkpt>
      <trkpt lat="47.83768" lon="7.10852">
        <ele>792</ele>
        <time>2023-05-06T08:55:32Z</time>
      </trkpt>
      <trkpt lat="47.83777" lon="7.10848">
        <ele>794</ele>
        <time>2023-05-06T08:55:44Z</time>
      </trkpt>
      <trkpt lat="47.83784" lon="7.10848">
        <ele>795</ele>
        <time>2023-05-06T08:55:54Z</time>
      </trkpt>
      <trkpt lat="47.83795" lon="7.10861">
        <ele>796</ele>
        <time>2023-05-06T08:56:07Z</time>
      </trkpt>
      <trkpt lat="47.83818" lon="7.10895">
        <ele>800</ele>
        <time>2023-05-06T08:56:38Z</time>
      </trkpt>
      <trkpt lat="47.8384" lon="7.10927">
        <ele>806</ele>
        <time>2023-05-06T08:57:11Z</time>
      </trkpt>
      <trkpt lat="47.83853" lon="7.10944">
        <ele>809</ele>
        <time>2023-05-06T08:57:29Z</time>
      </trkpt>
      <trkpt lat="47.83872" lon="7.10978">
        <ele>815</ele>
        <time>2023-05-06T08:58:01Z</time>
      </trkpt>
      <trkpt lat="47.83888" lon="7.10994">
        <ele>817</ele>
        <time>2023-05-06T08:58:22Z</time>
      </trkpt>
      <trkpt lat="47.83906" lon="7.11003">
        <ele>820</ele>
        <time>2023-05-06T08:58:42Z</time>
      </trkpt>
      <trkpt lat="47.83915" lon="7.11011">
        <ele>822</ele>
        <time>2023-05-06T08:58:52Z</time>
      </trkpt>
      <trkpt lat="47.83923" lon="7.11028">
        <ele>824</ele>
        <time>2023-05-06T08:59:06Z</time>
      </trkpt>
      <trkpt lat="47.83928" lon="7.11051">
        <ele>826</ele>
        <time>2023-05-06T08:59:21Z</time>
      </trkpt>
      <trkpt lat="47.83932" lon="7.1106">
        <ele>827</ele>
        <time>2023-05-06T08:59:29Z</time>
      </trkpt>
      <trkpt lat="47.83939" lon="7.11079">
        <ele>829</ele>
        <time>2023-05-06T08:59:42Z</time>
      </trkpt>
      <trkpt lat="47.83942" lon="7.11086">
        <ele>829</ele>
        <time>2023-05-06T08:59:46Z</time>
      </trkpt>
      <trkpt lat="47.83944" lon="7.11091">
        <ele>829</ele>
        <time>2023-05-06T08:59:50Z</time>
      </trkpt>
      <trkpt lat="47.83956" lon="7.11116">
        <ele>832</ele>
        <time>2023-05-06T09:00:08Z</time>
      </trkpt>
      <trkpt lat="47.83958" lon="7.11129">
        <ele>833</ele>
        <time>2023-05-06T09:00:17Z</time>
      </trkpt>
      <trkpt lat="47.83967" lon="7.11145">
        <ele>834</ele>
        <time>2023-05-06T09:00:30Z</time>
      </trkpt>
      <trkpt lat="47.83975" lon="7.11158">
        <ele>836</ele>
        <time>2023-05-06T09:00:43Z</time>
      </trkpt>
      <trkpt lat="47.83982" lon="7.1118">
        <ele>838</ele>
        <time>2023-05-06T09:01:00Z</time>
      </trkpt>
      <trkpt lat="47.83983" lon="7.11188">
        <ele>838</ele>
        <time>2023-05-06T09:01:05Z</time>
      </trkpt>
      <trkpt lat="47.83984" lon="7.11207">
        <ele>839</ele>
        <time>2023-05-06T09:01:17Z</time>
      </trkpt>
      <trkpt lat="47.83987" lon="7.11234">
        <ele>841</ele>
        <time>2023-05-06T09:01:33Z</time>
      </trkpt>
      <trkpt lat="47.83994" lon="7.11251">
        <ele>843</ele>
        <time>2023-05-06T09:01:46Z</time>
      </trkpt>
      <trkpt lat="47.83998" lon="7.11255">
        <ele>843</ele>
        <time>2023-05-06T09:01:50Z</time>
      </trkpt>
      <trkpt lat="47.84018" lon="7.11295">
        <ele>846</ele>
        <time>2023-05-06T09:02:23Z</time>
      </trkpt>
      <trkpt lat="47.84021" lon="7.11301">
        <ele>847</ele>
        <time>2023-05-06T09:02:28Z</time>
      </trkpt>
      <trkpt lat="47.84021" lon="7.11322">
        <ele>848</ele>
        <time>2023-05-06T09:02:42Z</time>
      </trkpt>
      <trkpt lat="47.8402" lon="7.11329">
        <ele>849</ele>
        <time>2023-05-06T09:02:46Z</time>
      </trkpt>
      <trkpt lat="47.84022" lon="7.1135">
        <ele>850</ele>
        <time>2023-05-06T09:03:00Z</time>
      </trkpt>
      <trkpt lat="47.84027" lon="7.11364">
        <ele>851</ele>
        <time>2023-05-06T09:03:08Z</time>
      </trkpt>
      <trkpt lat="47.84043" lon="7.11383">
        <ele>853</ele>
        <time>2023-05-06T09:03:23Z</time>
      </trkpt>
      <trkpt lat="47.84074" lon="7.11409">
        <ele>856</ele>
        <time>2023-05-06T09:03:56Z</time>
      </trkpt>
      <trkpt lat="47.84084" lon="7.11423">
        <ele>858</ele>
        <time>2023-05-06T09:04:09Z</time>
      </trkpt>
      <trkpt lat="47.84092" lon="7.11439">
        <ele>862</ele>
        <time>2023-05-06T09:04:30Z</time>
      </trkpt>
      <trkpt lat="47.84096" lon="7.11443">
        <ele>863</ele>
        <time>2023-05-06T09:04:35Z</time>
      </trkpt>
      <trkpt lat="47.84101" lon="7.11438">
        <ele>865</ele>
        <time>2023-05-06T09:04:49Z</time>
      </trkpt>
      <trkpt lat="47.84101" lon="7.11446">
        <ele>865</ele>
        <time>2023-05-06T09:05:26Z</time>
      </trkpt>
      <trkpt lat="47.84094" lon="7.11446">
        <ele>865</ele>
        <time>2023-05-06T09:05:38Z</time>
      </trkpt>
      <trkpt lat="47.84098" lon="7.11453">
        <ele>866</ele>
        <time>2023-05-06T09:05:47Z</time>
      </trkpt>
      <trkpt lat="47.84089" lon="7.11448">
        <ele>865</ele>
        <time>2023-05-06T09:06:01Z</time>
      </trkpt>
      <trkpt lat="47.8409" lon="7.11449">
        <ele>865</ele>
        <time>2023-05-06T09:06:12Z</time>
      </trkpt>
      <trkpt lat="47.84082" lon="7.11449">
        <ele>862</ele>
        <time>2023-05-06T09:06:25Z</time>
      </trkpt>
      <trkpt lat="47.8408" lon="7.11443">
        <ele>862</ele>
        <time>2023-05-06T09:06:29Z</time>
      </trkpt>
      <trkpt lat="47.84076" lon="7.11434">
        <ele>860</ele>
        <time>2023-05-06T09:06:37Z</time>
      </trkpt>
      <trkpt lat="47.84074" lon="7.11424">
        <ele>857</ele>
        <time>2023-05-06T09:06:45Z</time>
      </trkpt>
      <trkpt lat="47.84079" lon="7.11421">
        <ele>856</ele>
        <time>2023-05-06T09:06:48Z</time>
      </trkpt>
      <trkpt lat="47.84083" lon="7.11418">
        <ele>856</ele>
        <time>2023-05-06T09:06:51Z</time>
      </trkpt>
      <trkpt lat="47.84093" lon="7.11411">
        <ele>856</ele>
        <time>2023-05-06T09:06:59Z</time>
      </trkpt>
      <trkpt lat="47.84111" lon="7.11401">
        <ele>856</ele>
        <time>2023-05-06T09:07:14Z</time>
      </trkpt>
      <trkpt lat="47.84116" lon="7.11401">
        <ele>857</ele>
        <time>2023-05-06T09:07:18Z</time>
      </trkpt>
      <trkpt lat="47.8413" lon="7.11396">
        <ele>857</ele>
        <time>2023-05-06T09:07:30Z</time>
      </trkpt>
      <trkpt lat="47.84138" lon="7.11389">
        <ele>857</ele>
        <time>2023-05-06T09:07:37Z</time>
      </trkpt>
      <trkpt lat="47.84152" lon="7.11383">
        <ele>857</ele>
        <time>2023-05-06T09:07:50Z</time>
      </trkpt>
      <trkpt lat="47.8418" lon="7.11377">
        <ele>858</ele>
        <time>2023-05-06T09:08:13Z</time>
      </trkpt>
      <trkpt lat="47.84204" lon="7.11353">
        <ele>859</ele>
        <time>2023-05-06T09:08:39Z</time>
      </trkpt>
      <trkpt lat="47.84207" lon="7.11348">
        <ele>859</ele>
        <time>2023-05-06T09:08:43Z</time>
      </trkpt>
      <trkpt lat="47.84241" lon="7.11318">
        <ele>860</ele>
        <time>2023-05-06T09:09:15Z</time>
      </trkpt>
      <trkpt lat="47.84275" lon="7.11296">
        <ele>862</ele>
        <time>2023-05-06T09:09:46Z</time>
      </trkpt>
      <trkpt lat="47.84287" lon="7.11287">
        <ele>862</ele>
        <time>2023-05-06T09:09:58Z</time>
      </trkpt>
      <trkpt lat="47.84295" lon="7.11279">
        <ele>863</ele>
        <time>2023-05-06T09:10:06Z</time>
      </trkpt>
      <trkpt lat="47.84302" lon="7.11268">
        <ele>863</ele>
        <time>2023-05-06T09:10:14Z</time>
      </trkpt>
      <trkpt lat="47.84305" lon="7.11262">
        <ele>863</ele>
        <time>2023-05-06T09:10:19Z</time>
      </trkpt>
      <trkpt lat="47.84304" lon="7.11254">
        <ele>863</ele>
        <time>2023-05-06T09:10:24Z</time>
      </trkpt>
      <trkpt lat="47.843" lon="7.11248">
        <ele>864</ele>
        <time>2023-05-06T09:10:33Z</time>
      </trkpt>
      <trkpt lat="47.84295" lon="7.11249">
        <ele>864</ele>
        <time>2023-05-06T09:11:25Z</time>
      </trkpt>
      <trkpt lat="47.84323" lon="7.11266">
        <ele>862</ele>
        <time>2023-05-06T09:13:56Z</time>
      </trkpt>
      <trkpt lat="47.84332" lon="7.11263">
        <ele>862</ele>
        <time>2023-05-06T09:14:05Z</time>
      </trkpt>
      <trkpt lat="47.84352" lon="7.11258">
        <ele>863</ele>
        <time>2023-05-06T09:14:25Z</time>
      </trkpt>
      <trkpt lat="47.84359" lon="7.11261">
        <ele>863</ele>
        <time>2023-05-06T09:14:31Z</time>
      </trkpt>
      <trkpt lat="47.84367" lon="7.11269">
        <ele>863</ele>
        <time>2023-05-06T09:14:39Z</time>
      </trkpt>
      <trkpt lat="47.8438" lon="7.11293">
        <ele>864</ele>
        <time>2023-05-06T09:14:58Z</time>
      </trkpt>
      <trkpt lat="47.84389" lon="7.11319">
        <ele>865</ele>
        <time>2023-05-06T09:15:16Z</time>
      </trkpt>
      <trkpt lat="47.8439" lon="7.11326">
        <ele>865</ele>
        <time>2023-05-06T09:15:20Z</time>
      </trkpt>
      <trkpt lat="47.84393" lon="7.11361">
        <ele>867</ele>
        <time>2023-05-06T09:15:42Z</time>
      </trkpt>
      <trkpt lat="47.8441" lon="7.11414">
        <ele>869</ele>
        <time>2023-05-06T09:16:14Z</time>
      </trkpt>
      <trkpt lat="47.84419" lon="7.11469">
        <ele>870</ele>
        <time>2023-05-06T09:16:47Z</time>
      </trkpt>
      <trkpt lat="47.84423" lon="7.11484">
        <ele>870</ele>
        <time>2023-05-06T09:16:56Z</time>
      </trkpt>
      <trkpt lat="47.84427" lon="7.11489">
        <ele>870</ele>
        <time>2023-05-06T09:17:01Z</time>
      </trkpt>
      <trkpt lat="47.84431" lon="7.11501">
        <ele>871</ele>
        <time>2023-05-06T09:17:09Z</time>
      </trkpt>
      <trkpt lat="47.84453" lon="7.11529">
        <ele>872</ele>
        <time>2023-05-06T09:17:34Z</time>
      </trkpt>
      <trkpt lat="47.84469" lon="7.11546">
        <ele>873</ele>
        <time>2023-05-06T09:17:50Z</time>
      </trkpt>
      <trkpt lat="47.84488" lon="7.11568">
        <ele>875</ele>
        <time>2023-05-06T09:18:11Z</time>
      </trkpt>
      <trkpt lat="47.84496" lon="7.11574">
        <ele>875</ele>
        <time>2023-05-06T09:18:19Z</time>
      </trkpt>
      <trkpt lat="47.84509" lon="7.1158">
        <ele>874</ele>
        <time>2023-05-06T09:18:32Z</time>
      </trkpt>
      <trkpt lat="47.84513" lon="7.1158">
        <ele>875</ele>
        <time>2023-05-06T09:18:36Z</time>
      </trkpt>
      <trkpt lat="47.8453" lon="7.11585">
        <ele>875</ele>
        <time>2023-05-06T09:18:50Z</time>
      </trkpt>
      <trkpt lat="47.84552" lon="7.11586">
        <ele>875</ele>
        <time>2023-05-06T09:19:10Z</time>
      </trkpt>
      <trkpt lat="47.84557" lon="7.11588">
        <ele>875</ele>
        <time>2023-05-06T09:19:14Z</time>
      </trkpt>
      <trkpt lat="47.84592" lon="7.1161">
        <ele>875</ele>
        <time>2023-05-06T09:19:45Z</time>
      </trkpt>
      <trkpt lat="47.84617" lon="7.11623">
        <ele>878</ele>
        <time>2023-05-06T09:20:09Z</time>
      </trkpt>
      <trkpt lat="47.84633" lon="7.11626">
        <ele>880</ele>
        <time>2023-05-06T09:20:23Z</time>
      </trkpt>
      <trkpt lat="47.84637" lon="7.11628">
        <ele>880</ele>
        <time>2023-05-06T09:20:27Z</time>
      </trkpt>
      <trkpt lat="47.84659" lon="7.11627">
        <ele>884</ele>
        <time>2023-05-06T09:20:52Z</time>
      </trkpt>
      <trkpt lat="47.84686" lon="7.11621">
        <ele>888</ele>
        <time>2023-05-06T09:21:21Z</time>
      </trkpt>
      <trkpt lat="47.84713" lon="7.11598">
        <ele>891</ele>
        <time>2023-05-06T09:21:52Z</time>
      </trkpt>
      <trkpt lat="47.84719" lon="7.11595">
        <ele>891</ele>
        <time>2023-05-06T09:21:59Z</time>
      </trkpt>
      <trkpt lat="47.84741" lon="7.1158">
        <ele>894</ele>
        <time>2023-05-06T09:22:22Z</time>
      </trkpt>
      <trkpt lat="47.84745" lon="7.11579">
        <ele>894</ele>
        <time>2023-05-06T09:22:25Z</time>
      </trkpt>
      <trkpt lat="47.84774" lon="7.11566">
        <ele>898</ele>
        <time>2023-05-06T09:22:54Z</time>
      </trkpt>
      <trkpt lat="47.84798" lon="7.11535">
        <ele>901</ele>
        <time>2023-05-06T09:23:25Z</time>
      </trkpt>
      <trkpt lat="47.84824" lon="7.1151">
        <ele>904</ele>
        <time>2023-05-06T09:23:57Z</time>
      </trkpt>
      <trkpt lat="47.84839" lon="7.11505">
        <ele>906</ele>
        <time>2023-05-06T09:24:13Z</time>
      </trkpt>
      <trkpt lat="47.84851" lon="7.11508">
        <ele>907</ele>
        <time>2023-05-06T09:24:24Z</time>
      </trkpt>
      <trkpt lat="47.84858" lon="7.11518">
        <ele>908</ele>
        <time>2023-05-06T09:24:32Z</time>
      </trkpt>
      <trkpt lat="47.84862" lon="7.11531">
        <ele>908</ele>
        <time>2023-05-06T09:24:40Z</time>
      </trkpt>
      <trkpt lat="47.84862" lon="7.11538">
        <ele>908</ele>
        <time>2023-05-06T09:24:44Z</time>
      </trkpt>
      <trkpt lat="47.84855" lon="7.11578">
        <ele>909</ele>
        <time>2023-05-06T09:25:08Z</time>
      </trkpt>
      <trkpt lat="47.84857" lon="7.11593">
        <ele>910</ele>
        <time>2023-05-06T09:25:16Z</time>
      </trkpt>
      <trkpt lat="47.84857" lon="7.11615">
        <ele>910</ele>
        <time>2023-05-06T09:25:30Z</time>
      </trkpt>
      <trkpt lat="47.84861" lon="7.11636">
        <ele>911</ele>
        <time>2023-05-06T09:25:43Z</time>
      </trkpt>
      <trkpt lat="47.84865" lon="7.11641">
        <ele>911</ele>
        <time>2023-05-06T09:25:47Z</time>
      </trkpt>
      <trkpt lat="47.84872" lon="7.11667">
        <ele>912</ele>
        <time>2023-05-06T09:26:04Z</time>
      </trkpt>
      <trkpt lat="47.84872" lon="7.11678">
        <ele>912</ele>
        <time>2023-05-06T09:26:11Z</time>
      </trkpt>
      <trkpt lat="47.84881" lon="7.11731">
        <ele>914</ele>
        <time>2023-05-06T09:26:41Z</time>
      </trkpt>
      <trkpt lat="47.84883" lon="7.11747">
        <ele>914</ele>
        <time>2023-05-06T09:26:49Z</time>
      </trkpt>
      <trkpt lat="47.84884" lon="7.11774">
        <ele>916</ele>
        <time>2023-05-06T09:27:05Z</time>
      </trkpt>
      <trkpt lat="47.84881" lon="7.11788">
        <ele>916</ele>
        <time>2023-05-06T09:27:13Z</time>
      </trkpt>
      <trkpt lat="47.84881" lon="7.11795">
        <ele>916</ele>
        <time>2023-05-06T09:27:18Z</time>
      </trkpt>
      <trkpt lat="47.84892" lon="7.11826">
        <ele>921</ele>
        <time>2023-05-06T09:27:50Z</time>
      </trkpt>
      <trkpt lat="47.84898" lon="7.11839">
        <ele>922</ele>
        <time>2023-05-06T09:28:00Z</time>
      </trkpt>
      <trkpt lat="47.84904" lon="7.11845">
        <ele>923</ele>
        <time>2023-05-06T09:28:09Z</time>
      </trkpt>
      <trkpt lat="47.84915" lon="7.11871">
        <ele>926</ele>
        <time>2023-05-06T09:28:29Z</time>
      </trkpt>
      <trkpt lat="47.84919" lon="7.11878">
        <ele>927</ele>
        <time>2023-05-06T09:28:35Z</time>
      </trkpt>
      <trkpt lat="47.84921" lon="7.11894">
        <ele>929</ele>
        <time>2023-05-06T09:28:47Z</time>
      </trkpt>
      <trkpt lat="47.84923" lon="7.11902">
        <ele>930</ele>
        <time>2023-05-06T09:28:54Z</time>
      </trkpt>
      <trkpt lat="47.84925" lon="7.11912">
        <ele>931</ele>
        <time>2023-05-06T09:29:03Z</time>
      </trkpt>
      <trkpt lat="47.84926" lon="7.1192">
        <ele>931</ele>
        <time>2023-05-06T09:29:08Z</time>
      </trkpt>
      <trkpt lat="47.84933" lon="7.11968">
        <ele>937</ele>
        <time>2023-05-06T09:29:47Z</time>
      </trkpt>
      <trkpt lat="47.84934" lon="7.11974">
        <ele>937</ele>
        <time>2023-05-06T09:29:52Z</time>
      </trkpt>
      <trkpt lat="47.84934" lon="7.11982">
        <ele>939</ele>
        <time>2023-05-06T09:29:59Z</time>
      </trkpt>
      <trkpt lat="47.84936" lon="7.11992">
        <ele>940</ele>
        <time>2023-05-06T09:30:07Z</time>
      </trkpt>
      <trkpt lat="47.84947" lon="7.12013">
        <ele>943</ele>
        <time>2023-05-06T09:30:28Z</time>
      </trkpt>
      <trkpt lat="47.84948" lon="7.12019">
        <ele>944</ele>
        <time>2023-05-06T09:30:32Z</time>
      </trkpt>
      <trkpt lat="47.84947" lon="7.12026">
        <ele>944</ele>
        <time>2023-05-06T09:30:36Z</time>
      </trkpt>
      <trkpt lat="47.84948" lon="7.12032">
        <ele>944</ele>
        <time>2023-05-06T09:30:39Z</time>
      </trkpt>
      <trkpt lat="47.84948" lon="7.12039">
        <ele>944</ele>
        <time>2023-05-06T09:30:43Z</time>
      </trkpt>
      <trkpt lat="47.84949" lon="7.1205">
        <ele>945</ele>
        <time>2023-05-06T09:30:50Z</time>
      </trkpt>
      <trkpt lat="47.84949" lon="7.12068">
        <ele>947</ele>
        <time>2023-05-06T09:31:02Z</time>
      </trkpt>
      <trkpt lat="47.84947" lon="7.12075">
        <ele>947</ele>
        <time>2023-05-06T09:31:06Z</time>
      </trkpt>
      <trkpt lat="47.84945" lon="7.1208">
        <ele>948</ele>
        <time>2023-05-06T09:31:11Z</time>
      </trkpt>
      <trkpt lat="47.84944" lon="7.12099">
        <ele>950</ele>
        <time>2023-05-06T09:31:24Z</time>
      </trkpt>
      <trkpt lat="47.84945" lon="7.12113">
        <ele>952</ele>
        <time>2023-05-06T09:31:34Z</time>
      </trkpt>
      <trkpt lat="47.84953" lon="7.12144">
        <ele>956</ele>
        <time>2023-05-06T09:32:03Z</time>
      </trkpt>
      <trkpt lat="47.84958" lon="7.12138">
        <ele>959</ele>
        <time>2023-05-06T09:32:21Z</time>
      </trkpt>
      <trkpt lat="47.8496" lon="7.12131">
        <ele>960</ele>
        <time>2023-05-06T09:32:26Z</time>
      </trkpt>
      <trkpt lat="47.84963" lon="7.12123">
        <ele>961</ele>
        <time>2023-05-06T09:32:32Z</time>
      </trkpt>
      <trkpt lat="47.84968" lon="7.12121">
        <ele>963</ele>
        <time>2023-05-06T09:32:41Z</time>
      </trkpt>
      <trkpt lat="47.84971" lon="7.12124">
        <ele>964</ele>
        <time>2023-05-06T09:32:44Z</time>
      </trkpt>
      <trkpt lat="47.84979" lon="7.12135">
        <ele>966</ele>
        <time>2023-05-06T09:32:57Z</time>
      </trkpt>
      <trkpt lat="47.84987" lon="7.12139">
        <ele>968</ele>
        <time>2023-05-06T09:33:06Z</time>
      </trkpt>
      <trkpt lat="47.85003" lon="7.12153">
        <ele>971</ele>
        <time>2023-05-06T09:33:26Z</time>
      </trkpt>
      <trkpt lat="47.85006" lon="7.12158">
        <ele>971</ele>
        <time>2023-05-06T09:33:31Z</time>
      </trkpt>
      <trkpt lat="47.85012" lon="7.12158">
        <ele>973</ele>
        <time>2023-05-06T09:33:39Z</time>
      </trkpt>
      <trkpt lat="47.85015" lon="7.12164">
        <ele>974</ele>
        <time>2023-05-06T09:33:44Z</time>
      </trkpt>
      <trkpt lat="47.85018" lon="7.12176">
        <ele>974</ele>
        <time>2023-05-06T09:33:53Z</time>
      </trkpt>
      <trkpt lat="47.85019" lon="7.12182">
        <ele>975</ele>
        <time>2023-05-06T09:33:58Z</time>
      </trkpt>
      <trkpt lat="47.85021" lon="7.12199">
        <ele>977</ele>
        <time>2023-05-06T09:34:10Z</time>
      </trkpt>
      <trkpt lat="47.85024" lon="7.12206">
        <ele>978</ele>
        <time>2023-05-06T09:34:18Z</time>
      </trkpt>
      <trkpt lat="47.85028" lon="7.12227">
        <ele>981</ele>
        <time>2023-05-06T09:34:34Z</time>
      </trkpt>
      <trkpt lat="47.8505" lon="7.12257">
        <ele>985</ele>
        <time>2023-05-06T09:35:06Z</time>
      </trkpt>
      <trkpt lat="47.85052" lon="7.12262">
        <ele>986</ele>
        <time>2023-05-06T09:35:11Z</time>
      </trkpt>
      <trkpt lat="47.85055" lon="7.12268">
        <ele>986</ele>
        <time>2023-05-06T09:35:15Z</time>
      </trkpt>
      <trkpt lat="47.85059" lon="7.12274">
        <ele>987</ele>
        <time>2023-05-06T09:35:22Z</time>
      </trkpt>
      <trkpt lat="47.8506" lon="7.12283">
        <ele>988</ele>
        <time>2023-05-06T09:35:28Z</time>
      </trkpt>
      <trkpt lat="47.85064" lon="7.12291">
        <ele>989</ele>
        <time>2023-05-06T09:35:35Z</time>
      </trkpt>
      <trkpt lat="47.85066" lon="7.12306">
        <ele>990</ele>
        <time>2023-05-06T09:35:44Z</time>
      </trkpt>
      <trkpt lat="47.85065" lon="7.12319">
        <ele>992</ele>
        <time>2023-05-06T09:35:53Z</time>
      </trkpt>
      <trkpt lat="47.85061" lon="7.12326">
        <ele>992</ele>
        <time>2023-05-06T09:36:01Z</time>
      </trkpt>
      <trkpt lat="47.85058" lon="7.12331">
        <ele>991</ele>
        <time>2023-05-06T09:36:05Z</time>
      </trkpt>
      <trkpt lat="47.85054" lon="7.12338">
        <ele>991</ele>
        <time>2023-05-06T09:36:11Z</time>
      </trkpt>
      <trkpt lat="47.85049" lon="7.12342">
        <ele>991</ele>
        <time>2023-05-06T09:36:16Z</time>
      </trkpt>
      <trkpt lat="47.85046" lon="7.12351">
        <ele>990</ele>
        <time>2023-05-06T09:36:24Z</time>
      </trkpt>
      <trkpt lat="47.85048" lon="7.12355">
        <ele>992</ele>
        <time>2023-05-06T09:37:29Z</time>
      </trkpt>
      <trkpt lat="47.85055" lon="7.12356">
        <ele>993</ele>
        <time>2023-05-06T09:37:36Z</time>
      </trkpt>
      <trkpt lat="47.8506" lon="7.12367">
        <ele>994</ele>
        <time>2023-05-06T09:37:39Z</time>
      </trkpt>
      <trkpt lat="47.85062" lon="7.12368">
        <ele>996</ele>
        <time>2023-05-06T09:38:07Z</time>
      </trkpt>
      <trkpt lat="47.85064" lon="7.12379">
        <ele>998</ele>
        <time>2023-05-06T09:38:20Z</time>
      </trkpt>
      <trkpt lat="47.85064" lon="7.12386">
        <ele>999</ele>
        <time>2023-05-06T09:38:26Z</time>
      </trkpt>
      <trkpt lat="47.85066" lon="7.12392">
        <ele>1000</ele>
        <time>2023-05-06T09:38:32Z</time>
      </trkpt>
      <trkpt lat="47.85069" lon="7.12421">
        <ele>1003</ele>
        <time>2023-05-06T09:38:52Z</time>
      </trkpt>
      <trkpt lat="47.85072" lon="7.12436">
        <ele>1004</ele>
        <time>2023-05-06T09:39:04Z</time>
      </trkpt>
      <trkpt lat="47.85074" lon="7.12455">
        <ele>1006</ele>
        <time>2023-05-06T09:39:17Z</time>
      </trkpt>
      <trkpt lat="47.85075" lon="7.12461">
        <ele>1006</ele>
        <time>2023-05-06T09:39:21Z</time>
      </trkpt>
      <trkpt lat="47.85075" lon="7.12467">
        <ele>1007</ele>
        <time>2023-05-06T09:39:26Z</time>
      </trkpt>
      <trkpt lat="47.85076" lon="7.1249">
        <ele>1010</ele>
        <time>2023-05-06T09:39:45Z</time>
      </trkpt>
      <trkpt lat="47.85079" lon="7.12498">
        <ele>1011</ele>
        <time>2023-05-06T09:39:50Z</time>
      </trkpt>
      <trkpt lat="47.85085" lon="7.12541">
        <ele>1014</ele>
        <time>2023-05-06T09:40:22Z</time>
      </trkpt>
      <trkpt lat="47.85087" lon="7.12551">
        <ele>1015</ele>
        <time>2023-05-06T09:40:29Z</time>
      </trkpt>
      <trkpt lat="47.85089" lon="7.1258">
        <ele>1018</ele>
        <time>2023-05-06T09:40:52Z</time>
      </trkpt>
      <trkpt lat="47.85091" lon="7.12586">
        <ele>1019</ele>
        <time>2023-05-06T09:40:56Z</time>
      </trkpt>
      <trkpt lat="47.85092" lon="7.12595">
        <ele>1020</ele>
        <time>2023-05-06T09:41:03Z</time>
      </trkpt>
      <trkpt lat="47.85097" lon="7.12641">
        <ele>1026</ele>
        <time>2023-05-06T09:41:36Z</time>
      </trkpt>
      <trkpt lat="47.85098" lon="7.12649">
        <ele>1026</ele>
        <time>2023-05-06T09:41:41Z</time>
      </trkpt>
      <trkpt lat="47.85102" lon="7.12663">
        <ele>1027</ele>
        <time>2023-05-06T09:41:52Z</time>
      </trkpt>
      <trkpt lat="47.85103" lon="7.12671">
        <ele>1028</ele>
        <time>2023-05-06T09:41:56Z</time>
      </trkpt>
      <trkpt lat="47.85109" lon="7.12693">
        <ele>1030</ele>
        <time>2023-05-06T09:42:15Z</time>
      </trkpt>
      <trkpt lat="47.85113" lon="7.12716">
        <ele>1032</ele>
        <time>2023-05-06T09:42:32Z</time>
      </trkpt>
      <trkpt lat="47.85116" lon="7.12721">
        <ele>1033</ele>
        <time>2023-05-06T09:42:37Z</time>
      </trkpt>
      <trkpt lat="47.8512" lon="7.12739">
        <ele>1036</ele>
        <time>2023-05-06T09:42:52Z</time>
      </trkpt>
      <trkpt lat="47.85124" lon="7.12765">
        <ele>1039</ele>
        <time>2023-05-06T09:43:12Z</time>
      </trkpt>
      <trkpt lat="47.85133" lon="7.12808">
        <ele>1044</ele>
        <time>2023-05-06T09:43:42Z</time>
      </trkpt>
      <trkpt lat="47.85135" lon="7.12826">
        <ele>1046</ele>
        <time>2023-05-06T09:43:57Z</time>
      </trkpt>
      <trkpt lat="47.85135" lon="7.12833">
        <ele>1047</ele>
        <time>2023-05-06T09:44:03Z</time>
      </trkpt>
      <trkpt lat="47.85139" lon="7.12863">
        <ele>1051</ele>
        <time>2023-05-06T09:44:26Z</time>
      </trkpt>
      <trkpt lat="47.8514" lon="7.12909">
        <ele>1056</ele>
        <time>2023-05-06T09:45:03Z</time>
      </trkpt>
      <trkpt lat="47.85141" lon="7.12915">
        <ele>1057</ele>
        <time>2023-05-06T09:45:08Z</time>
      </trkpt>
      <trkpt lat="47.85143" lon="7.12921">
        <ele>1058</ele>
        <time>2023-05-06T09:45:14Z</time>
      </trkpt>
      <trkpt lat="47.85145" lon="7.12956">
        <ele>1062</ele>
        <time>2023-05-06T09:45:41Z</time>
      </trkpt>
      <trkpt lat="47.85143" lon="7.12964">
        <ele>1062</ele>
        <time>2023-05-06T09:45:47Z</time>
      </trkpt>
      <trkpt lat="47.85145" lon="7.12987">
        <ele>1065</ele>
        <time>2023-05-06T09:46:08Z</time>
      </trkpt>
      <trkpt lat="47.85145" lon="7.12994">
        <ele>1066</ele>
        <time>2023-05-06T09:46:14Z</time>
      </trkpt>
      <trkpt lat="47.85146" lon="7.13016">
        <ele>1069</ele>
        <time>2023-05-06T09:46:32Z</time>
      </trkpt>
      <trkpt lat="47.85148" lon="7.13022">
        <ele>1069</ele>
        <time>2023-05-06T09:46:37Z</time>
      </trkpt>
      <trkpt lat="47.85149" lon="7.13031">
        <ele>1071</ele>
        <time>2023-05-06T09:46:44Z</time>
      </trkpt>
      <trkpt lat="47.85155" lon="7.13056">
        <ele>1074</ele>
        <time>2023-05-06T09:47:04Z</time>
      </trkpt>
      <trkpt lat="47.85163" lon="7.13098">
        <ele>1078</ele>
        <time>2023-05-06T09:47:36Z</time>
      </trkpt>
      <trkpt lat="47.85163" lon="7.13109">
        <ele>1080</ele>
        <time>2023-05-06T09:47:44Z</time>
      </trkpt>
      <trkpt lat="47.85165" lon="7.13115">
        <ele>1080</ele>
        <time>2023-05-06T09:47:50Z</time>
      </trkpt>
      <trkpt lat="47.85166" lon="7.1313">
        <ele>1082</ele>
        <time>2023-05-06T09:48:02Z</time>
      </trkpt>
      <trkpt lat="47.85168" lon="7.13135">
        <ele>1083</ele>
        <time>2023-05-06T09:48:06Z</time>
      </trkpt>
      <trkpt lat="47.85172" lon="7.13191">
        <ele>1086</ele>
        <time>2023-05-06T09:48:43Z</time>
      </trkpt>
      <trkpt lat="47.85171" lon="7.13215">
        <ele>1088</ele>
        <time>2023-05-06T09:48:59Z</time>
      </trkpt>
      <trkpt lat="47.85168" lon="7.1322">
        <ele>1089</ele>
        <time>2023-05-06T09:49:04Z</time>
      </trkpt>
      <trkpt lat="47.85168" lon="7.13227">
        <ele>1089</ele>
        <time>2023-05-06T09:49:08Z</time>
      </trkpt>
      <trkpt lat="47.85168" lon="7.13243">
        <ele>1090</ele>
        <time>2023-05-06T09:49:20Z</time>
      </trkpt>
      <trkpt lat="47.85166" lon="7.13248">
        <ele>1091</ele>
        <time>2023-05-06T09:50:09Z</time>
      </trkpt>
      <trkpt lat="47.85162" lon="7.1325">
        <ele>1090</ele>
        <time>2023-05-06T09:50:56Z</time>
      </trkpt>
      <trkpt lat="47.85158" lon="7.13256">
        <ele>1090</ele>
        <time>2023-05-06T09:51:08Z</time>
      </trkpt>
      <trkpt lat="47.8515" lon="7.13261">
        <ele>1090</ele>
        <time>2023-05-06T09:51:16Z</time>
      </trkpt>
      <trkpt lat="47.85143" lon="7.13271">
        <ele>1090</ele>
        <time>2023-05-06T09:51:23Z</time>
      </trkpt>
      <trkpt lat="47.85147" lon="7.13279">
        <ele>1090</ele>
        <time>2023-05-06T09:51:33Z</time>
      </trkpt>
      <trkpt lat="47.8514" lon="7.13282">
        <ele>1091</ele>
        <time>2023-05-06T09:51:45Z</time>
      </trkpt>
      <trkpt lat="47.85157" lon="7.13249">
        <ele>1092</ele>
        <time>2023-05-06T10:36:53Z</time>
      </trkpt>
      <trkpt lat="47.85167" lon="7.13247">
        <ele>1092</ele>
        <time>2023-05-06T10:37:30Z</time>
      </trkpt>
      <trkpt lat="47.85187" lon="7.13276">
        <ele>1097</ele>
        <time>2023-05-06T10:39:59Z</time>
      </trkpt>
      <trkpt lat="47.85198" lon="7.13304">
        <ele>1099</ele>
        <time>2023-05-06T10:40:20Z</time>
      </trkpt>
      <trkpt lat="47.852" lon="7.13309">
        <ele>1099</ele>
        <time>2023-05-06T10:40:25Z</time>
      </trkpt>
      <trkpt lat="47.85204" lon="7.13314">
        <ele>1100</ele>
        <time>2023-05-06T10:40:30Z</time>
      </trkpt>
      <trkpt lat="47.85209" lon="7.13314">
        <ele>1100</ele>
        <time>2023-05-06T10:40:35Z</time>
      </trkpt>
      <trkpt lat="47.85215" lon="7.13325">
        <ele>1099</ele>
        <time>2023-05-06T10:40:47Z</time>
      </trkpt>
      <trkpt lat="47.85238" lon="7.13336">
        <ele>1098</ele>
        <time>2023-05-06T10:41:10Z</time>
      </trkpt>
      <trkpt lat="47.85243" lon="7.13341">
        <ele>1097</ele>
        <time>2023-05-06T10:41:17Z</time>
      </trkpt>
      <trkpt lat="47.85248" lon="7.13343">
        <ele>1096</ele>
        <time>2023-05-06T10:41:22Z</time>
      </trkpt>
      <trkpt lat="47.85257" lon="7.13352">
        <ele>1094</ele>
        <time>2023-05-06T10:41:34Z</time>
      </trkpt>
      <trkpt lat="47.85259" lon="7.13359">
        <ele>1093</ele>
        <time>2023-05-06T10:41:47Z</time>
      </trkpt>
      <trkpt lat="47.85266" lon="7.13375">
        <ele>1091</ele>
        <time>2023-05-06T10:42:00Z</time>
      </trkpt>
      <trkpt lat="47.85282" lon="7.13413">
        <ele>1082</ele>
        <time>2023-05-06T10:42:31Z</time>
      </trkpt>
      <trkpt lat="47.85296" lon="7.1345">
        <ele>1073</ele>
        <time>2023-05-06T10:43:03Z</time>
      </trkpt>
      <trkpt lat="47.85313" lon="7.13489">
        <ele>1063</ele>
        <time>2023-05-06T10:43:35Z</time>
      </trkpt>
      <trkpt lat="47.85321" lon="7.13507">
        <ele>1058</ele>
        <time>2023-05-06T10:43:49Z</time>
      </trkpt>
      <trkpt lat="47.85323" lon="7.13515">
        <ele>1057</ele>
        <time>2023-05-06T10:43:54Z</time>
      </trkpt>
      <trkpt lat="47.85325" lon="7.1352">
        <ele>1056</ele>
        <time>2023-05-06T10:43:58Z</time>
      </trkpt>
      <trkpt lat="47.85329" lon="7.13529">
        <ele>1053</ele>
        <time>2023-05-06T10:44:06Z</time>
      </trkpt>
      <trkpt lat="47.85332" lon="7.13537">
        <ele>1051</ele>
        <time>2023-05-06T10:44:11Z</time>
      </trkpt>
      <trkpt lat="47.85332" lon="7.13544">
        <ele>1050</ele>
        <time>2023-05-06T10:44:15Z</time>
      </trkpt>
      <trkpt lat="47.8533" lon="7.13552">
        <ele>1049</ele>
        <time>2023-05-06T10:44:19Z</time>
      </trkpt>
      <trkpt lat="47.85327" lon="7.13558">
        <ele>1049</ele>
        <time>2023-05-06T10:44:23Z</time>
      </trkpt>
      <trkpt lat="47.85325" lon="7.13564">
        <ele>1049</ele>
        <time>2023-05-06T10:44:27Z</time>
      </trkpt>
      <trkpt lat="47.85325" lon="7.13579">
        <ele>1047</ele>
        <time>2023-05-06T10:44:41Z</time>
      </trkpt>
      <trkpt lat="47.85324" lon="7.13585">
        <ele>1046</ele>
        <time>2023-05-06T10:44:46Z</time>
      </trkpt>
      <trkpt lat="47.85329" lon="7.13587">
        <ele>1045</ele>
        <time>2023-05-06T10:44:54Z</time>
      </trkpt>
      <trkpt lat="47.85333" lon="7.13585">
        <ele>1044</ele>
        <time>2023-05-06T10:44:58Z</time>
      </trkpt>
      <trkpt lat="47.8535" lon="7.1357">
        <ele>1043</ele>
        <time>2023-05-06T10:45:16Z</time>
      </trkpt>
      <trkpt lat="47.85366" lon="7.13555">
        <ele>1043</ele>
        <time>2023-05-06T10:45:32Z</time>
      </trkpt>
      <trkpt lat="47.85403" lon="7.13536">
        <ele>1039</ele>
        <time>2023-05-06T10:46:04Z</time>
      </trkpt>
      <trkpt lat="47.8544" lon="7.13522">
        <ele>1034</ele>
        <time>2023-05-06T10:46:35Z</time>
      </trkpt>
      <trkpt lat="47.8546" lon="7.13515">
        <ele>1031</ele>
        <time>2023-05-06T10:46:51Z</time>
      </trkpt>
      <trkpt lat="47.85475" lon="7.13516">
        <ele>1029</ele>
        <time>2023-05-06T10:47:03Z</time>
      </trkpt>
      <trkpt lat="47.85502" lon="7.13531">
        <ele>1026</ele>
        <time>2023-05-06T10:47:28Z</time>
      </trkpt>
      <trkpt lat="47.85513" lon="7.13539">
        <ele>1024</ele>
        <time>2023-05-06T10:47:37Z</time>
      </trkpt>
      <trkpt lat="47.85517" lon="7.13543">
        <ele>1024</ele>
        <time>2023-05-06T10:47:41Z</time>
      </trkpt>
      <trkpt lat="47.8555" lon="7.13574">
        <ele>1018</ele>
        <time>2023-05-06T10:48:13Z</time>
      </trkpt>
      <trkpt lat="47.8557" lon="7.13592">
        <ele>1016</ele>
        <time>2023-05-06T10:48:32Z</time>
      </trkpt>
      <trkpt lat="47.85583" lon="7.136">
        <ele>1014</ele>
        <time>2023-05-06T10:48:43Z</time>
      </trkpt>
      <trkpt lat="47.85587" lon="7.13602">
        <ele>1013</ele>
        <time>2023-05-06T10:48:47Z</time>
      </trkpt>
      <trkpt lat="47.8562" lon="7.13622">
        <ele>1011</ele>
        <time>2023-05-06T10:49:19Z</time>
      </trkpt>
      <trkpt lat="47.85634" lon="7.13629">
        <ele>1010</ele>
        <time>2023-05-06T10:49:32Z</time>
      </trkpt>
      <trkpt lat="47.85654" lon="7.13662">
        <ele>1007</ele>
        <time>2023-05-06T10:49:56Z</time>
      </trkpt>
      <trkpt lat="47.85669" lon="7.13696">
        <ele>1005</ele>
        <time>2023-05-06T10:50:21Z</time>
      </trkpt>
      <trkpt lat="47.8568" lon="7.1371">
        <ele>1003</ele>
        <time>2023-05-06T10:50:38Z</time>
      </trkpt>
      <trkpt lat="47.85686" lon="7.13719">
        <ele>1003</ele>
        <time>2023-05-06T10:50:46Z</time>
      </trkpt>
      <trkpt lat="47.85694" lon="7.13753">
        <ele>999</ele>
        <time>2023-05-06T10:51:07Z</time>
      </trkpt>
      <trkpt lat="47.85698" lon="7.13758">
        <ele>999</ele>
        <time>2023-05-06T10:51:11Z</time>
      </trkpt>
      <trkpt lat="47.85702" lon="7.13762">
        <ele>999</ele>
        <time>2023-05-06T10:51:14Z</time>
      </trkpt>
      <trkpt lat="47.85712" lon="7.13775">
        <ele>999</ele>
        <time>2023-05-06T10:51:25Z</time>
      </trkpt>
      <trkpt lat="47.85718" lon="7.13789">
        <ele>1000</ele>
        <time>2023-05-06T10:51:36Z</time>
      </trkpt>
      <trkpt lat="47.85726" lon="7.13801">
        <ele>1002</ele>
        <time>2023-05-06T10:51:48Z</time>
      </trkpt>
      <trkpt lat="47.85731" lon="7.13812">
        <ele>1003</ele>
        <time>2023-05-06T10:51:57Z</time>
      </trkpt>
      <trkpt lat="47.85746" lon="7.13831">
        <ele>1007</ele>
        <time>2023-05-06T10:52:16Z</time>
      </trkpt>
      <trkpt lat="47.85748" lon="7.13837">
        <ele>1007</ele>
        <time>2023-05-06T10:52:20Z</time>
      </trkpt>
      <trkpt lat="47.8577" lon="7.13867">
        <ele>1007</ele>
        <time>2023-05-06T10:52:43Z</time>
      </trkpt>
      <trkpt lat="47.85773" lon="7.13873">
        <ele>1007</ele>
        <time>2023-05-06T10:52:47Z</time>
      </trkpt>
      <trkpt lat="47.85764" lon="7.1389">
        <ele>1006</ele>
        <time>2023-05-06T10:52:56Z</time>
      </trkpt>
      <trkpt lat="47.85762" lon="7.13897">
        <ele>1005</ele>
        <time>2023-05-06T10:52:59Z</time>
      </trkpt>
      <trkpt lat="47.85755" lon="7.13899">
        <ele>1005</ele>
        <time>2023-05-06T10:53:34Z</time>
      </trkpt>
      <trkpt lat="47.85755" lon="7.1391">
        <ele>1004</ele>
        <time>2023-05-06T10:53:59Z</time>
      </trkpt>
      <trkpt lat="47.85755" lon="7.13916">
        <ele>1004</ele>
        <time>2023-05-06T10:54:04Z</time>
      </trkpt>
      <trkpt lat="47.85752" lon="7.13922">
        <ele>1003</ele>
        <time>2023-05-06T10:54:07Z</time>
      </trkpt>
      <trkpt lat="47.85751" lon="7.13929">
        <ele>1003</ele>
        <time>2023-05-06T10:54:11Z</time>
      </trkpt>
      <trkpt lat="47.85751" lon="7.13938">
        <ele>1002</ele>
        <time>2023-05-06T10:54:17Z</time>
      </trkpt>
      <trkpt lat="47.8575" lon="7.13947">
        <ele>1002</ele>
        <time>2023-05-06T10:54:21Z</time>
      </trkpt>
      <trkpt lat="47.85752" lon="7.1396">
        <ele>1001</ele>
        <time>2023-05-06T10:54:29Z</time>
      </trkpt>
      <trkpt lat="47.85751" lon="7.1399">
        <ele>998</ele>
        <time>2023-05-06T10:54:46Z</time>
      </trkpt>
      <trkpt lat="47.85755" lon="7.14003">
        <ele>997</ele>
        <time>2023-05-06T10:54:55Z</time>
      </trkpt>
      <trkpt lat="47.85755" lon="7.14012">
        <ele>996</ele>
        <time>2023-05-06T10:55:01Z</time>
      </trkpt>
      <trkpt lat="47.85755" lon="7.14019">
        <ele>995</ele>
        <time>2023-05-06T10:55:05Z</time>
      </trkpt>
      <trkpt lat="47.85755" lon="7.14026">
        <ele>995</ele>
        <time>2023-05-06T10:55:09Z</time>
      </trkpt>
      <trkpt lat="47.85754" lon="7.14034">
        <ele>995</ele>
        <time>2023-05-06T10:55:14Z</time>
      </trkpt>
      <trkpt lat="47.85752" lon="7.1404">
        <ele>994</ele>
        <time>2023-05-06T10:55:17Z</time>
      </trkpt>
      <trkpt lat="47.85743" lon="7.14065">
        <ele>993</ele>
        <time>2023-05-06T10:55:32Z</time>
      </trkpt>
      <trkpt lat="47.85738" lon="7.14094">
        <ele>990</ele>
        <time>2023-05-06T10:55:51Z</time>
      </trkpt>
      <trkpt lat="47.85735" lon="7.14101">
        <ele>990</ele>
        <time>2023-05-06T10:55:56Z</time>
      </trkpt>
      <trkpt lat="47.85735" lon="7.14109">
        <ele>989</ele>
        <time>2023-05-06T10:56:01Z</time>
      </trkpt>
      <trkpt lat="47.85729" lon="7.14122">
        <ele>988</ele>
        <time>2023-05-06T10:56:10Z</time>
      </trkpt>
      <trkpt lat="47.85725" lon="7.14128">
        <ele>987</ele>
        <time>2023-05-06T10:56:14Z</time>
      </trkpt>
      <trkpt lat="47.85709" lon="7.14171">
        <ele>983</ele>
        <time>2023-05-06T10:56:46Z</time>
      </trkpt>
      <trkpt lat="47.85709" lon="7.14181">
        <ele>982</ele>
        <time>2023-05-06T10:56:53Z</time>
      </trkpt>
      <trkpt lat="47.85707" lon="7.14186">
        <ele>981</ele>
        <time>2023-05-06T10:56:57Z</time>
      </trkpt>
      <trkpt lat="47.85707" lon="7.14208">
        <ele>979</ele>
        <time>2023-05-06T10:57:09Z</time>
      </trkpt>
      <trkpt lat="47.85712" lon="7.14247">
        <ele>975</ele>
        <time>2023-05-06T10:57:34Z</time>
      </trkpt>
      <trkpt lat="47.85711" lon="7.14254">
        <ele>975</ele>
        <time>2023-05-06T10:57:38Z</time>
      </trkpt>
      <trkpt lat="47.85714" lon="7.14268">
        <ele>974</ele>
        <time>2023-05-06T10:57:47Z</time>
      </trkpt>
      <trkpt lat="47.85716" lon="7.14275">
        <ele>973</ele>
        <time>2023-05-06T10:57:52Z</time>
      </trkpt>
      <trkpt lat="47.85717" lon="7.1429">
        <ele>972</ele>
        <time>2023-05-06T10:58:00Z</time>
      </trkpt>
      <trkpt lat="47.85717" lon="7.14297">
        <ele>971</ele>
        <time>2023-05-06T10:58:04Z</time>
      </trkpt>
      <trkpt lat="47.85718" lon="7.1431">
        <ele>970</ele>
        <time>2023-05-06T10:58:12Z</time>
      </trkpt>
      <trkpt lat="47.85721" lon="7.14322">
        <ele>969</ele>
        <time>2023-05-06T10:58:20Z</time>
      </trkpt>
      <trkpt lat="47.8572" lon="7.14329">
        <ele>969</ele>
        <time>2023-05-06T10:58:24Z</time>
      </trkpt>
      <trkpt lat="47.8572" lon="7.14337">
        <ele>968</ele>
        <time>2023-05-06T10:58:28Z</time>
      </trkpt>
      <trkpt lat="47.85725" lon="7.14364">
        <ele>966</ele>
        <time>2023-05-06T10:58:44Z</time>
      </trkpt>
      <trkpt lat="47.85725" lon="7.14371">
        <ele>965</ele>
        <time>2023-05-06T10:58:48Z</time>
      </trkpt>
      <trkpt lat="47.85725" lon="7.14414">
        <ele>962</ele>
        <time>2023-05-06T10:59:11Z</time>
      </trkpt>
      <trkpt lat="47.85723" lon="7.14435">
        <ele>960</ele>
        <time>2023-05-06T10:59:24Z</time>
      </trkpt>
      <trkpt lat="47.85723" lon="7.14451">
        <ele>959</ele>
        <time>2023-05-06T10:59:35Z</time>
      </trkpt>
      <trkpt lat="47.85723" lon="7.14461">
        <ele>958</ele>
        <time>2023-05-06T10:59:43Z</time>
      </trkpt>
      <trkpt lat="47.85723" lon="7.14469">
        <ele>957</ele>
        <time>2023-05-06T10:59:47Z</time>
      </trkpt>
      <trkpt lat="47.85724" lon="7.14476">
        <ele>957</ele>
        <time>2023-05-06T10:59:51Z</time>
      </trkpt>
      <trkpt lat="47.85724" lon="7.1449">
        <ele>955</ele>
        <time>2023-05-06T11:00:00Z</time>
      </trkpt>
      <trkpt lat="47.8573" lon="7.14531">
        <ele>952</ele>
        <time>2023-05-06T11:00:23Z</time>
      </trkpt>
      <trkpt lat="47.85729" lon="7.14542">
        <ele>951</ele>
        <time>2023-05-06T11:00:30Z</time>
      </trkpt>
      <trkpt lat="47.8573" lon="7.14549">
        <ele>950</ele>
        <time>2023-05-06T11:00:34Z</time>
      </trkpt>
      <trkpt lat="47.85739" lon="7.14581">
        <ele>948</ele>
        <time>2023-05-06T11:00:54Z</time>
      </trkpt>
      <trkpt lat="47.85754" lon="7.14606">
        <ele>945</ele>
        <time>2023-05-06T11:01:13Z</time>
      </trkpt>
      <trkpt lat="47.85765" lon="7.14637">
        <ele>941</ele>
        <time>2023-05-06T11:01:33Z</time>
      </trkpt>
      <trkpt lat="47.85768" lon="7.14641">
        <ele>941</ele>
        <time>2023-05-06T11:01:36Z</time>
      </trkpt>
      <trkpt lat="47.85769" lon="7.14652">
        <ele>940</ele>
        <time>2023-05-06T11:01:42Z</time>
      </trkpt>
      <trkpt lat="47.85778" lon="7.14662">
        <ele>938</ele>
        <time>2023-05-06T11:01:51Z</time>
      </trkpt>
      <trkpt lat="47.85779" lon="7.14668">
        <ele>938</ele>
        <time>2023-05-06T11:01:55Z</time>
      </trkpt>
      <trkpt lat="47.85788" lon="7.14678">
        <ele>936</ele>
        <time>2023-05-06T11:02:04Z</time>
      </trkpt>
      <trkpt lat="47.8579" lon="7.14686">
        <ele>935</ele>
        <time>2023-05-06T11:02:08Z</time>
      </trkpt>
      <trkpt lat="47.85789" lon="7.14692">
        <ele>935</ele>
        <time>2023-05-06T11:02:11Z</time>
      </trkpt>
      <trkpt lat="47.85783" lon="7.14694">
        <ele>934</ele>
        <time>2023-05-06T11:02:15Z</time>
      </trkpt>
      <trkpt lat="47.85778" lon="7.14695">
        <ele>933</ele>
        <time>2023-05-06T11:02:18Z</time>
      </trkpt>
      <trkpt lat="47.85768" lon="7.147">
        <ele>932</ele>
        <time>2023-05-06T11:02:26Z</time>
      </trkpt>
      <trkpt lat="47.85763" lon="7.147">
        <ele>931</ele>
        <time>2023-05-06T11:02:30Z</time>
      </trkpt>
      <trkpt lat="47.85734" lon="7.14709">
        <ele>926</ele>
        <time>2023-05-06T11:02:54Z</time>
      </trkpt>
      <trkpt lat="47.85725" lon="7.1471">
        <ele>924</ele>
        <time>2023-05-06T11:03:01Z</time>
      </trkpt>
      <trkpt lat="47.85722" lon="7.14714">
        <ele>924</ele>
        <time>2023-05-06T11:03:05Z</time>
      </trkpt>
      <trkpt lat="47.85722" lon="7.14721">
        <ele>923</ele>
        <time>2023-05-06T11:03:08Z</time>
      </trkpt>
      <trkpt lat="47.85748" lon="7.14766">
        <ele>918</ele>
        <time>2023-05-06T11:03:41Z</time>
      </trkpt>
      <trkpt lat="47.85774" lon="7.14803">
        <ele>914</ele>
        <time>2023-05-06T11:04:13Z</time>
      </trkpt>
      <trkpt lat="47.85787" lon="7.14814">
        <ele>913</ele>
        <time>2023-05-06T11:04:24Z</time>
      </trkpt>
      <trkpt lat="47.8579" lon="7.14821">
        <ele>912</ele>
        <time>2023-05-06T11:04:28Z</time>
      </trkpt>
      <trkpt lat="47.8579" lon="7.14828">
        <ele>912</ele>
        <time>2023-05-06T11:04:31Z</time>
      </trkpt>
      <trkpt lat="47.85793" lon="7.14834">
        <ele>912</ele>
        <time>2023-05-06T11:04:35Z</time>
      </trkpt>
      <trkpt lat="47.85792" lon="7.14842">
        <ele>911</ele>
        <time>2023-05-06T11:04:39Z</time>
      </trkpt>
      <trkpt lat="47.85791" lon="7.1485">
        <ele>912</ele>
        <time>2023-05-06T11:04:43Z</time>
      </trkpt>
      <trkpt lat="47.85786" lon="7.14852">
        <ele>912</ele>
        <time>2023-05-06T11:04:46Z</time>
      </trkpt>
      <trkpt lat="47.85781" lon="7.14853">
        <ele>912</ele>
        <time>2023-05-06T11:04:49Z</time>
      </trkpt>
      <trkpt lat="47.85777" lon="7.14854">
        <ele>911</ele>
        <time>2023-05-06T11:04:53Z</time>
      </trkpt>
      <trkpt lat="47.85773" lon="7.14858">
        <ele>911</ele>
        <time>2023-05-06T11:04:56Z</time>
      </trkpt>
      <trkpt lat="47.85775" lon="7.14865">
        <ele>910</ele>
        <time>2023-05-06T11:05:00Z</time>
      </trkpt>
      <trkpt lat="47.85788" lon="7.14884">
        <ele>910</ele>
        <time>2023-05-06T11:05:15Z</time>
      </trkpt>
      <trkpt lat="47.85804" lon="7.1492">
        <ele>910</ele>
        <time>2023-05-06T11:05:39Z</time>
      </trkpt>
      <trkpt lat="47.85803" lon="7.14909">
        <ele>910</ele>
        <time>2023-05-06T11:05:51Z</time>
      </trkpt>
      <trkpt lat="47.85807" lon="7.14906">
        <ele>910</ele>
        <time>2023-05-06T11:05:55Z</time>
      </trkpt>
      <trkpt lat="47.85825" lon="7.1492">
        <ele>913</ele>
        <time>2023-05-06T11:06:17Z</time>
      </trkpt>
      <trkpt lat="47.85847" lon="7.14933">
        <ele>917</ele>
        <time>2023-05-06T11:06:39Z</time>
      </trkpt>
      <trkpt lat="47.85855" lon="7.14941">
        <ele>917</ele>
        <time>2023-05-06T11:06:47Z</time>
      </trkpt>
      <trkpt lat="47.85854" lon="7.14955">
        <ele>917</ele>
        <time>2023-05-06T11:07:14Z</time>
      </trkpt>
      <trkpt lat="47.85859" lon="7.14988">
        <ele>917</ele>
        <time>2023-05-06T11:07:33Z</time>
      </trkpt>
      <trkpt lat="47.85862" lon="7.14998">
        <ele>917</ele>
        <time>2023-05-06T11:07:41Z</time>
      </trkpt>
      <trkpt lat="47.85865" lon="7.15003">
        <ele>917</ele>
        <time>2023-05-06T11:07:45Z</time>
      </trkpt>
      <trkpt lat="47.85868" lon="7.15007">
        <ele>918</ele>
        <time>2023-05-06T11:07:49Z</time>
      </trkpt>
      <trkpt lat="47.85873" lon="7.15017">
        <ele>917</ele>
        <time>2023-05-06T11:07:58Z</time>
      </trkpt>
      <trkpt lat="47.85878" lon="7.15017">
        <ele>918</ele>
        <time>2023-05-06T11:08:12Z</time>
      </trkpt>
      <trkpt lat="47.85884" lon="7.15011">
        <ele>919</ele>
        <time>2023-05-06T11:08:24Z</time>
      </trkpt>
      <trkpt lat="47.85891" lon="7.15012">
        <ele>919</ele>
        <time>2023-05-06T11:08:54Z</time>
      </trkpt>
      <trkpt lat="47.85893" lon="7.15018">
        <ele>919</ele>
        <time>2023-05-06T11:09:08Z</time>
      </trkpt>
      <trkpt lat="47.85895" lon="7.15035">
        <ele>917</ele>
        <time>2023-05-06T11:09:42Z</time>
      </trkpt>
      <trkpt lat="47.85895" lon="7.15042">
        <ele>916</ele>
        <time>2023-05-06T11:09:46Z</time>
      </trkpt>
      <trkpt lat="47.85896" lon="7.1505">
        <ele>916</ele>
        <time>2023-05-06T11:09:51Z</time>
      </trkpt>
      <trkpt lat="47.85898" lon="7.15056">
        <ele>916</ele>
        <time>2023-05-06T11:09:55Z</time>
      </trkpt>
      <trkpt lat="47.859" lon="7.15061">
        <ele>915</ele>
        <time>2023-05-06T11:10:03Z</time>
      </trkpt>
      <trkpt lat="47.85904" lon="7.15065">
        <ele>914</ele>
        <time>2023-05-06T11:10:08Z</time>
      </trkpt>
      <trkpt lat="47.85913" lon="7.15107">
        <ele>910</ele>
        <time>2023-05-06T11:10:41Z</time>
      </trkpt>
      <trkpt lat="47.85924" lon="7.15155">
        <ele>903</ele>
        <time>2023-05-06T11:11:14Z</time>
      </trkpt>
      <trkpt lat="47.85933" lon="7.15198">
        <ele>897</ele>
        <time>2023-05-06T11:11:44Z</time>
      </trkpt>
      <trkpt lat="47.85941" lon="7.15242">
        <ele>892</ele>
        <time>2023-05-06T11:12:17Z</time>
      </trkpt>
      <trkpt lat="47.85938" lon="7.15253">
        <ele>891</ele>
        <time>2023-05-06T11:12:25Z</time>
      </trkpt>
      <trkpt lat="47.85935" lon="7.15258">
        <ele>890</ele>
        <time>2023-05-06T11:12:29Z</time>
      </trkpt>
      <trkpt lat="47.85939" lon="7.15264">
        <ele>889</ele>
        <time>2023-05-06T11:12:38Z</time>
      </trkpt>
      <trkpt lat="47.85947" lon="7.15269">
        <ele>888</ele>
        <time>2023-05-06T11:12:49Z</time>
      </trkpt>
      <trkpt lat="47.85951" lon="7.15273">
        <ele>888</ele>
        <time>2023-05-06T11:12:53Z</time>
      </trkpt>
      <trkpt lat="47.85955" lon="7.1528">
        <ele>888</ele>
        <time>2023-05-06T11:13:01Z</time>
      </trkpt>
      <trkpt lat="47.85958" lon="7.15284">
        <ele>888</ele>
        <time>2023-05-06T11:13:05Z</time>
      </trkpt>
      <trkpt lat="47.85961" lon="7.15281">
        <ele>888</ele>
        <time>2023-05-06T11:13:47Z</time>
      </trkpt>
      <trkpt lat="47.85965" lon="7.15275">
        <ele>889</ele>
        <time>2023-05-06T11:14:00Z</time>
      </trkpt>
      <trkpt lat="47.85973" lon="7.1527">
        <ele>889</ele>
        <time>2023-05-06T11:14:09Z</time>
      </trkpt>
      <trkpt lat="47.85977" lon="7.15269">
        <ele>890</ele>
        <time>2023-05-06T11:14:13Z</time>
      </trkpt>
      <trkpt lat="47.85983" lon="7.15267">
        <ele>891</ele>
        <time>2023-05-06T11:14:20Z</time>
      </trkpt>
      <trkpt lat="47.85989" lon="7.15267">
        <ele>891</ele>
        <time>2023-05-06T11:14:27Z</time>
      </trkpt>
      <trkpt lat="47.85994" lon="7.15279">
        <ele>891</ele>
        <time>2023-05-06T11:14:34Z</time>
      </trkpt>
      <trkpt lat="47.86001" lon="7.15288">
        <ele>892</ele>
        <time>2023-05-06T11:14:43Z</time>
      </trkpt>
      <trkpt lat="47.86006" lon="7.15292">
        <ele>892</ele>
        <time>2023-05-06T11:14:48Z</time>
      </trkpt>
      <trkpt lat="47.86008" lon="7.15301">
        <ele>893</ele>
        <time>2023-05-06T11:14:54Z</time>
      </trkpt>
      <trkpt lat="47.86026" lon="7.15348">
        <ele>898</ele>
        <time>2023-05-06T11:15:33Z</time>
      </trkpt>
      <trkpt lat="47.86029" lon="7.15357">
        <ele>899</ele>
        <time>2023-05-06T11:15:40Z</time>
      </trkpt>
      <trkpt lat="47.86041" lon="7.15356">
        <ele>902</ele>
        <time>2023-05-06T11:16:04Z</time>
      </trkpt>
      <trkpt lat="47.86038" lon="7.15362">
        <ele>902</ele>
        <time>2023-05-06T11:16:23Z</time>
      </trkpt>
      <trkpt lat="47.86034" lon="7.15361">
        <ele>902</ele>
        <time>2023-05-06T11:16:28Z</time>
      </trkpt>
      <trkpt lat="47.86031" lon="7.15372">
        <ele>900</ele>
        <time>2023-05-06T11:16:37Z</time>
      </trkpt>
      <trkpt lat="47.86036" lon="7.1538">
        <ele>901</ele>
        <time>2023-05-06T11:17:08Z</time>
      </trkpt>
      <trkpt lat="47.86044" lon="7.15398">
        <ele>902</ele>
        <time>2023-05-06T11:17:23Z</time>
      </trkpt>
      <trkpt lat="47.86045" lon="7.15407">
        <ele>904</ele>
        <time>2023-05-06T11:17:30Z</time>
      </trkpt>
      <trkpt lat="47.86045" lon="7.15413">
        <ele>904</ele>
        <time>2023-05-06T11:17:34Z</time>
      </trkpt>
      <trkpt lat="47.86047" lon="7.1542">
        <ele>903</ele>
        <time>2023-05-06T11:17:38Z</time>
      </trkpt>
      <trkpt lat="47.86059" lon="7.15445">
        <ele>905</ele>
        <time>2023-05-06T11:17:58Z</time>
      </trkpt>
      <trkpt lat="47.86063" lon="7.15459">
        <ele>906</ele>
        <time>2023-05-06T11:18:08Z</time>
      </trkpt>
      <trkpt lat="47.86069" lon="7.1547">
        <ele>906</ele>
        <time>2023-05-06T11:18:16Z</time>
      </trkpt>
      <trkpt lat="47.86069" lon="7.15477">
        <ele>907</ele>
        <time>2023-05-06T11:18:21Z</time>
      </trkpt>
      <trkpt lat="47.86067" lon="7.15506">
        <ele>907</ele>
        <time>2023-05-06T11:18:38Z</time>
      </trkpt>
      <trkpt lat="47.86069" lon="7.15512">
        <ele>907</ele>
        <time>2023-05-06T11:18:42Z</time>
      </trkpt>
      <trkpt lat="47.86067" lon="7.15518">
        <ele>907</ele>
        <time>2023-05-06T11:18:46Z</time>
      </trkpt>
      <trkpt lat="47.86067" lon="7.15525">
        <ele>907</ele>
        <time>2023-05-06T11:18:51Z</time>
      </trkpt>
      <trkpt lat="47.86069" lon="7.15533">
        <ele>907</ele>
        <time>2023-05-06T11:18:58Z</time>
      </trkpt>
      <trkpt lat="47.86068" lon="7.1554">
        <ele>907</ele>
        <time>2023-05-06T11:19:03Z</time>
      </trkpt>
      <trkpt lat="47.86066" lon="7.15546">
        <ele>907</ele>
        <time>2023-05-06T11:19:07Z</time>
      </trkpt>
      <trkpt lat="47.86067" lon="7.15553">
        <ele>907</ele>
        <time>2023-05-06T11:19:11Z</time>
      </trkpt>
      <trkpt lat="47.86068" lon="7.15561">
        <ele>907</ele>
        <time>2023-05-06T11:19:20Z</time>
      </trkpt>
      <trkpt lat="47.86072" lon="7.15566">
        <ele>908</ele>
        <time>2023-05-06T11:19:27Z</time>
      </trkpt>
      <trkpt lat="47.86076" lon="7.15568">
        <ele>909</ele>
        <time>2023-05-06T11:19:30Z</time>
      </trkpt>
      <trkpt lat="47.86081" lon="7.15581">
        <ele>910</ele>
        <time>2023-05-06T11:19:42Z</time>
      </trkpt>
      <trkpt lat="47.86083" lon="7.1559">
        <ele>910</ele>
        <time>2023-05-06T11:19:48Z</time>
      </trkpt>
      <trkpt lat="47.86084" lon="7.15596">
        <ele>911</ele>
        <time>2023-05-06T11:19:52Z</time>
      </trkpt>
      <trkpt lat="47.86085" lon="7.15603">
        <ele>911</ele>
        <time>2023-05-06T11:19:56Z</time>
      </trkpt>
      <trkpt lat="47.86089" lon="7.15626">
        <ele>912</ele>
        <time>2023-05-06T11:20:10Z</time>
      </trkpt>
      <trkpt lat="47.86092" lon="7.15631">
        <ele>912</ele>
        <time>2023-05-06T11:20:13Z</time>
      </trkpt>
      <trkpt lat="47.86098" lon="7.15635">
        <ele>912</ele>
        <time>2023-05-06T11:20:20Z</time>
      </trkpt>
      <trkpt lat="47.86102" lon="7.1564">
        <ele>912</ele>
        <time>2023-05-06T11:20:27Z</time>
      </trkpt>
      <trkpt lat="47.86105" lon="7.15653">
        <ele>913</ele>
        <time>2023-05-06T11:20:36Z</time>
      </trkpt>
      <trkpt lat="47.86119" lon="7.15673">
        <ele>915</ele>
        <time>2023-05-06T11:20:53Z</time>
      </trkpt>
      <trkpt lat="47.86124" lon="7.15678">
        <ele>915</ele>
        <time>2023-05-06T11:21:00Z</time>
      </trkpt>
      <trkpt lat="47.86129" lon="7.1568">
        <ele>915</ele>
        <time>2023-05-06T11:21:05Z</time>
      </trkpt>
      <trkpt lat="47.86137" lon="7.15691">
        <ele>915</ele>
        <time>2023-05-06T11:21:17Z</time>
      </trkpt>
      <trkpt lat="47.86143" lon="7.15697">
        <ele>915</ele>
        <time>2023-05-06T11:21:25Z</time>
      </trkpt>
      <trkpt lat="47.86145" lon="7.15703">
        <ele>915</ele>
        <time>2023-05-06T11:21:30Z</time>
      </trkpt>
      <trkpt lat="47.86148" lon="7.15706">
        <ele>916</ele>
        <time>2023-05-06T11:21:38Z</time>
      </trkpt>
      <trkpt lat="47.86153" lon="7.15708">
        <ele>917</ele>
        <time>2023-05-06T11:22:01Z</time>
      </trkpt>
      <trkpt lat="47.86153" lon="7.15707">
        <ele>915</ele>
        <time>2023-05-06T11:22:43Z</time>
      </trkpt>
      <trkpt lat="47.86152" lon="7.15715">
        <ele>916</ele>
        <time>2023-05-06T11:22:55Z</time>
      </trkpt>
      <trkpt lat="47.86153" lon="7.15721">
        <ele>918</ele>
        <time>2023-05-06T11:23:07Z</time>
      </trkpt>
      <trkpt lat="47.86156" lon="7.15728">
        <ele>918</ele>
        <time>2023-05-06T11:23:55Z</time>
      </trkpt>
      <trkpt lat="47.86145" lon="7.15735">
        <ele>920</ele>
        <time>2023-05-06T11:24:12Z</time>
      </trkpt>
      <trkpt lat="47.8614" lon="7.15733">
        <ele>921</ele>
        <time>2023-05-06T11:24:21Z</time>
      </trkpt>
      <trkpt lat="47.86135" lon="7.15725">
        <ele>920</ele>
        <time>2023-05-06T11:24:33Z</time>
      </trkpt>
      <trkpt lat="47.86132" lon="7.15719">
        <ele>919</ele>
        <time>2023-05-06T11:24:39Z</time>
      </trkpt>
      <trkpt lat="47.86125" lon="7.15714">
        <ele>919</ele>
        <time>2023-05-06T11:25:31Z</time>
      </trkpt>
      <trkpt lat="47.86121" lon="7.15713">
        <ele>919</ele>
        <time>2023-05-06T11:25:37Z</time>
      </trkpt>
      <trkpt lat="47.86114" lon="7.15713">
        <ele>919</ele>
        <time>2023-05-06T11:25:46Z</time>
      </trkpt>
      <trkpt lat="47.86108" lon="7.15718">
        <ele>920</ele>
        <time>2023-05-06T11:25:53Z</time>
      </trkpt>
      <trkpt lat="47.86106" lon="7.15725">
        <ele>921</ele>
        <time>2023-05-06T11:26:02Z</time>
      </trkpt>
      <trkpt lat="47.86112" lon="7.15744">
        <ele>926</ele>
        <time>2023-05-06T11:26:26Z</time>
      </trkpt>
      <trkpt lat="47.86111" lon="7.1576">
        <ele>928</ele>
        <time>2023-05-06T11:26:50Z</time>
      </trkpt>
      <trkpt lat="47.86107" lon="7.15765">
        <ele>929</ele>
        <time>2023-05-06T11:26:55Z</time>
      </trkpt>
      <trkpt lat="47.86104" lon="7.15775">
        <ele>930</ele>
        <time>2023-05-06T11:27:05Z</time>
      </trkpt>
      <trkpt lat="47.86104" lon="7.15783">
        <ele>932</ele>
        <time>2023-05-06T11:27:13Z</time>
      </trkpt>
      <trkpt lat="47.86106" lon="7.15796">
        <ele>933</ele>
        <time>2023-05-06T11:27:25Z</time>
      </trkpt>
      <trkpt lat="47.86105" lon="7.1581">
        <ele>935</ele>
        <time>2023-05-06T11:27:37Z</time>
      </trkpt>
      <trkpt lat="47.86106" lon="7.15816">
        <ele>935</ele>
        <time>2023-05-06T11:27:43Z</time>
      </trkpt>
      <trkpt lat="47.86106" lon="7.15828">
        <ele>937</ele>
        <time>2023-05-06T11:27:55Z</time>
      </trkpt>
      <trkpt lat="47.86106" lon="7.1586">
        <ele>940</ele>
        <time>2023-05-06T11:28:24Z</time>
      </trkpt>
      <trkpt lat="47.86108" lon="7.15867">
        <ele>941</ele>
        <time>2023-05-06T11:28:30Z</time>
      </trkpt>
      <trkpt lat="47.86113" lon="7.15881">
        <ele>942</ele>
        <time>2023-05-06T11:28:44Z</time>
      </trkpt>
      <trkpt lat="47.86112" lon="7.15888">
        <ele>942</ele>
        <time>2023-05-06T11:28:49Z</time>
      </trkpt>
      <trkpt lat="47.86117" lon="7.15902">
        <ele>943</ele>
        <time>2023-05-06T11:29:01Z</time>
      </trkpt>
      <trkpt lat="47.86117" lon="7.15911">
        <ele>944</ele>
        <time>2023-05-06T11:29:09Z</time>
      </trkpt>
      <trkpt lat="47.86122" lon="7.15913">
        <ele>944</ele>
        <time>2023-05-06T11:29:15Z</time>
      </trkpt>
      <trkpt lat="47.8613" lon="7.15899">
        <ele>941</ele>
        <time>2023-05-06T11:29:31Z</time>
      </trkpt>
      <trkpt lat="47.86135" lon="7.15898">
        <ele>940</ele>
        <time>2023-05-06T11:29:37Z</time>
      </trkpt>
      <trkpt lat="47.8614" lon="7.15905">
        <ele>939</ele>
        <time>2023-05-06T11:29:55Z</time>
      </trkpt>
      <trkpt lat="47.86146" lon="7.15925">
        <ele>939</ele>
        <time>2023-05-06T11:30:07Z</time>
      </trkpt>
      <trkpt lat="47.86148" lon="7.1593">
        <ele>940</ele>
        <time>2023-05-06T11:30:11Z</time>
      </trkpt>
      <trkpt lat="47.86148" lon="7.15936">
        <ele>940</ele>
        <time>2023-05-06T11:30:15Z</time>
      </trkpt>
      <trkpt lat="47.86153" lon="7.15953">
        <ele>940</ele>
        <time>2023-05-06T11:30:24Z</time>
      </trkpt>
      <trkpt lat="47.86154" lon="7.15962">
        <ele>941</ele>
        <time>2023-05-06T11:30:31Z</time>
      </trkpt>
      <trkpt lat="47.86158" lon="7.1597">
        <ele>941</ele>
        <time>2023-05-06T11:30:41Z</time>
      </trkpt>
      <trkpt lat="47.8616" lon="7.15977">
        <ele>941</ele>
        <time>2023-05-06T11:30:46Z</time>
      </trkpt>
      <trkpt lat="47.86163" lon="7.15984">
        <ele>942</ele>
        <time>2023-05-06T11:30:53Z</time>
      </trkpt>
      <trkpt lat="47.86164" lon="7.15991">
        <ele>942</ele>
        <time>2023-05-06T11:30:58Z</time>
      </trkpt>
      <trkpt lat="47.86166" lon="7.15997">
        <ele>942</ele>
        <time>2023-05-06T11:31:02Z</time>
      </trkpt>
      <trkpt lat="47.86168" lon="7.16005">
        <ele>943</ele>
        <time>2023-05-06T11:31:09Z</time>
      </trkpt>
      <trkpt lat="47.86171" lon="7.16013">
        <ele>943</ele>
        <time>2023-05-06T11:31:16Z</time>
      </trkpt>
      <trkpt lat="47.86171" lon="7.1602">
        <ele>943</ele>
        <time>2023-05-06T11:31:21Z</time>
      </trkpt>
      <trkpt lat="47.86171" lon="7.16031">
        <ele>945</ele>
        <time>2023-05-06T11:31:34Z</time>
      </trkpt>
      <trkpt lat="47.8617" lon="7.16045">
        <ele>945</ele>
        <time>2023-05-06T11:31:43Z</time>
      </trkpt>
      <trkpt lat="47.86173" lon="7.16055">
        <ele>946</ele>
        <time>2023-05-06T11:31:52Z</time>
      </trkpt>
      <trkpt lat="47.86176" lon="7.16066">
        <ele>946</ele>
        <time>2023-05-06T11:32:23Z</time>
      </trkpt>
      <trkpt lat="47.8618" lon="7.16073">
        <ele>945</ele>
        <time>2023-05-06T11:32:27Z</time>
      </trkpt>
      <trkpt lat="47.86178" lon="7.16079">
        <ele>945</ele>
        <time>2023-05-06T11:32:32Z</time>
      </trkpt>
      <trkpt lat="47.86173" lon="7.16089">
        <ele>947</ele>
        <time>2023-05-06T11:32:42Z</time>
      </trkpt>
      <trkpt lat="47.86171" lon="7.16103">
        <ele>949</ele>
        <time>2023-05-06T11:33:00Z</time>
      </trkpt>
      <trkpt lat="47.86166" lon="7.16122">
        <ele>951</ele>
        <time>2023-05-06T11:33:25Z</time>
      </trkpt>
      <trkpt lat="47.8616" lon="7.1613">
        <ele>953</ele>
        <time>2023-05-06T11:33:38Z</time>
      </trkpt>
      <trkpt lat="47.86155" lon="7.16131">
        <ele>954</ele>
        <time>2023-05-06T11:33:50Z</time>
      </trkpt>
      <trkpt lat="47.86149" lon="7.16135">
        <ele>954</ele>
        <time>2023-05-06T11:34:02Z</time>
      </trkpt>
      <trkpt lat="47.86148" lon="7.16142">
        <ele>955</ele>
        <time>2023-05-06T11:34:08Z</time>
      </trkpt>
      <trkpt lat="47.86144" lon="7.16143">
        <ele>955</ele>
        <time>2023-05-06T11:34:20Z</time>
      </trkpt>
      <trkpt lat="47.8614" lon="7.16141">
        <ele>955</ele>
        <time>2023-05-06T11:34:25Z</time>
      </trkpt>
      <trkpt lat="47.86137" lon="7.16131">
        <ele>954</ele>
        <time>2023-05-06T11:34:37Z</time>
      </trkpt>
      <trkpt lat="47.86133" lon="7.16137">
        <ele>955</ele>
        <time>2023-05-06T11:34:55Z</time>
      </trkpt>
      <trkpt lat="47.86135" lon="7.16145">
        <ele>954</ele>
        <time>2023-05-06T11:35:07Z</time>
      </trkpt>
      <trkpt lat="47.86132" lon="7.16149">
        <ele>954</ele>
        <time>2023-05-06T11:35:13Z</time>
      </trkpt>
      <trkpt lat="47.86124" lon="7.1617">
        <ele>952</ele>
        <time>2023-05-06T11:35:32Z</time>
      </trkpt>
      <trkpt lat="47.86124" lon="7.16177">
        <ele>952</ele>
        <time>2023-05-06T11:35:37Z</time>
      </trkpt>
      <trkpt lat="47.86128" lon="7.16185">
        <ele>950</ele>
        <time>2023-05-06T11:35:47Z</time>
      </trkpt>
      <trkpt lat="47.86125" lon="7.16193">
        <ele>950</ele>
        <time>2023-05-06T11:35:59Z</time>
      </trkpt>
      <trkpt lat="47.86115" lon="7.16198">
        <ele>948</ele>
        <time>2023-05-06T11:36:13Z</time>
      </trkpt>
      <trkpt lat="47.86106" lon="7.16205">
        <ele>948</ele>
        <time>2023-05-06T11:36:22Z</time>
      </trkpt>
      <trkpt lat="47.86099" lon="7.16208">
        <ele>949</ele>
        <time>2023-05-06T11:36:30Z</time>
      </trkpt>
      <trkpt lat="47.86094" lon="7.1621">
        <ele>949</ele>
        <time>2023-05-06T11:36:34Z</time>
      </trkpt>
      <trkpt lat="47.86088" lon="7.1621">
        <ele>949</ele>
        <time>2023-05-06T11:36:41Z</time>
      </trkpt>
      <trkpt lat="47.86083" lon="7.16206">
        <ele>950</ele>
        <time>2023-05-06T11:36:52Z</time>
      </trkpt>
      <trkpt lat="47.86079" lon="7.16197">
        <ele>950</ele>
        <time>2023-05-06T11:37:01Z</time>
      </trkpt>
      <trkpt lat="47.86075" lon="7.1619">
        <ele>952</ele>
        <time>2023-05-06T11:37:09Z</time>
      </trkpt>
      <trkpt lat="47.86068" lon="7.1619">
        <ele>953</ele>
        <time>2023-05-06T11:37:28Z</time>
      </trkpt>
      <trkpt lat="47.86057" lon="7.16206">
        <ele>952</ele>
        <time>2023-05-06T11:37:49Z</time>
      </trkpt>
      <trkpt lat="47.86056" lon="7.16214">
        <ele>951</ele>
        <time>2023-05-06T11:37:55Z</time>
      </trkpt>
      <trkpt lat="47.86054" lon="7.16219">
        <ele>951</ele>
        <time>2023-05-06T11:37:59Z</time>
      </trkpt>
      <trkpt lat="47.8605" lon="7.16224">
        <ele>950</ele>
        <time>2023-05-06T11:38:03Z</time>
      </trkpt>
      <trkpt lat="47.86045" lon="7.16236">
        <ele>949</ele>
        <time>2023-05-06T11:38:11Z</time>
      </trkpt>
      <trkpt lat="47.86039" lon="7.1624">
        <ele>949</ele>
        <time>2023-05-06T11:38:18Z</time>
      </trkpt>
      <trkpt lat="47.86034" lon="7.16241">
        <ele>948</ele>
        <time>2023-05-06T11:38:22Z</time>
      </trkpt>
      <trkpt lat="47.86032" lon="7.16246">
        <ele>948</ele>
        <time>2023-05-06T11:38:26Z</time>
      </trkpt>
      <trkpt lat="47.86033" lon="7.16255">
        <ele>948</ele>
        <time>2023-05-06T11:38:37Z</time>
      </trkpt>
      <trkpt lat="47.86029" lon="7.16267">
        <ele>947</ele>
        <time>2023-05-06T11:38:45Z</time>
      </trkpt>
      <trkpt lat="47.86026" lon="7.16274">
        <ele>946</ele>
        <time>2023-05-06T11:38:49Z</time>
      </trkpt>
      <trkpt lat="47.86024" lon="7.16287">
        <ele>945</ele>
        <time>2023-05-06T11:38:58Z</time>
      </trkpt>
      <trkpt lat="47.86017" lon="7.16306">
        <ele>943</ele>
        <time>2023-05-06T11:39:12Z</time>
      </trkpt>
      <trkpt lat="47.86011" lon="7.1631">
        <ele>942</ele>
        <time>2023-05-06T11:39:24Z</time>
      </trkpt>
      <trkpt lat="47.85999" lon="7.1631">
        <ele>940</ele>
        <time>2023-05-06T11:39:35Z</time>
      </trkpt>
      <trkpt lat="47.85995" lon="7.16308">
        <ele>940</ele>
        <time>2023-05-06T11:39:39Z</time>
      </trkpt>
      <trkpt lat="47.8599" lon="7.1631">
        <ele>939</ele>
        <time>2023-05-06T11:39:43Z</time>
      </trkpt>
      <trkpt lat="47.85987" lon="7.16317">
        <ele>938</ele>
        <time>2023-05-06T11:39:47Z</time>
      </trkpt>
      <trkpt lat="47.85978" lon="7.16319">
        <ele>937</ele>
        <time>2023-05-06T11:39:56Z</time>
      </trkpt>
      <trkpt lat="47.85971" lon="7.16319">
        <ele>937</ele>
        <time>2023-05-06T11:40:05Z</time>
      </trkpt>
      <trkpt lat="47.85969" lon="7.16326">
        <ele>936</ele>
        <time>2023-05-06T11:40:13Z</time>
      </trkpt>
      <trkpt lat="47.85975" lon="7.1633">
        <ele>935</ele>
        <time>2023-05-06T11:40:23Z</time>
      </trkpt>
      <trkpt lat="47.85979" lon="7.16337">
        <ele>935</ele>
        <time>2023-05-06T11:40:30Z</time>
      </trkpt>
      <trkpt lat="47.85986" lon="7.16339">
        <ele>936</ele>
        <time>2023-05-06T11:40:43Z</time>
      </trkpt>
      <trkpt lat="47.85988" lon="7.16345">
        <ele>936</ele>
        <time>2023-05-06T11:40:47Z</time>
      </trkpt>
      <trkpt lat="47.85989" lon="7.16352">
        <ele>937</ele>
        <time>2023-05-06T11:40:51Z</time>
      </trkpt>
      <trkpt lat="47.85991" lon="7.16357">
        <ele>937</ele>
        <time>2023-05-06T11:40:54Z</time>
      </trkpt>
      <trkpt lat="47.85998" lon="7.16369">
        <ele>936</ele>
        <time>2023-05-06T11:41:04Z</time>
      </trkpt>
      <trkpt lat="47.85999" lon="7.16377">
        <ele>935</ele>
        <time>2023-05-06T11:41:14Z</time>
      </trkpt>
      <trkpt lat="47.85997" lon="7.16383">
        <ele>934</ele>
        <time>2023-05-06T11:41:19Z</time>
      </trkpt>
      <trkpt lat="47.86" lon="7.1639">
        <ele>933</ele>
        <time>2023-05-06T11:41:31Z</time>
      </trkpt>
      <trkpt lat="47.86005" lon="7.16399">
        <ele>932</ele>
        <time>2023-05-06T11:42:23Z</time>
      </trkpt>
      <trkpt lat="47.86007" lon="7.16405">
        <ele>931</ele>
        <time>2023-05-06T11:42:31Z</time>
      </trkpt>
      <trkpt lat="47.86002" lon="7.16405">
        <ele>931</ele>
        <time>2023-05-06T11:42:37Z</time>
      </trkpt>
      <trkpt lat="47.85994" lon="7.16408">
        <ele>933</ele>
        <time>2023-05-06T11:42:48Z</time>
      </trkpt>
      <trkpt lat="47.85989" lon="7.16406">
        <ele>934</ele>
        <time>2023-05-06T11:42:56Z</time>
      </trkpt>
      <trkpt lat="47.85986" lon="7.1641">
        <ele>934</ele>
        <time>2023-05-06T11:43:01Z</time>
      </trkpt>
      <trkpt lat="47.85984" lon="7.16418">
        <ele>934</ele>
        <time>2023-05-06T11:43:18Z</time>
      </trkpt>
      <trkpt lat="47.85985" lon="7.16425">
        <ele>934</ele>
        <time>2023-05-06T11:43:23Z</time>
      </trkpt>
      <trkpt lat="47.85986" lon="7.16443">
        <ele>932</ele>
        <time>2023-05-06T11:43:35Z</time>
      </trkpt>
      <trkpt lat="47.85979" lon="7.16478">
        <ele>927</ele>
        <time>2023-05-06T11:43:58Z</time>
      </trkpt>
      <trkpt lat="47.85976" lon="7.16485">
        <ele>926</ele>
        <time>2023-05-06T11:44:08Z</time>
      </trkpt>
      <trkpt lat="47.85975" lon="7.16492">
        <ele>926</ele>
        <time>2023-05-06T11:44:14Z</time>
      </trkpt>
      <trkpt lat="47.85966" lon="7.16501">
        <ele>930</ele>
        <time>2023-05-06T11:44:32Z</time>
      </trkpt>
      <trkpt lat="47.85966" lon="7.16508">
        <ele>930</ele>
        <time>2023-05-06T11:44:37Z</time>
      </trkpt>
      <trkpt lat="47.85966" lon="7.16528">
        <ele>927</ele>
        <time>2023-05-06T11:44:50Z</time>
      </trkpt>
      <trkpt lat="47.85965" lon="7.16534">
        <ele>927</ele>
        <time>2023-05-06T11:44:54Z</time>
      </trkpt>
      <trkpt lat="47.85966" lon="7.16541">
        <ele>927</ele>
        <time>2023-05-06T11:44:59Z</time>
      </trkpt>
      <trkpt lat="47.85971" lon="7.16546">
        <ele>927</ele>
        <time>2023-05-06T11:45:12Z</time>
      </trkpt>
      <trkpt lat="47.8598" lon="7.16549">
        <ele>923</ele>
        <time>2023-05-06T11:45:25Z</time>
      </trkpt>
      <trkpt lat="47.85977" lon="7.16549">
        <ele>922</ele>
        <time>2023-05-06T11:46:19Z</time>
      </trkpt>
      <trkpt lat="47.85965" lon="7.16545">
        <ele>926</ele>
        <time>2023-05-06T11:46:33Z</time>
      </trkpt>
      <trkpt lat="47.85961" lon="7.16547">
        <ele>926</ele>
        <time>2023-05-06T11:46:38Z</time>
      </trkpt>
      <trkpt lat="47.85953" lon="7.16547">
        <ele>927</ele>
        <time>2023-05-06T11:46:48Z</time>
      </trkpt>
      <trkpt lat="47.85948" lon="7.16548">
        <ele>927</ele>
        <time>2023-05-06T11:46:57Z</time>
      </trkpt>
      <trkpt lat="47.85959" lon="7.16502">
        <ele>929</ele>
        <time>2023-05-06T11:50:03Z</time>
      </trkpt>
      <trkpt lat="47.8596" lon="7.16501">
        <ele>929</ele>
        <time>2023-05-06T11:50:04Z</time>
      </trkpt>
      <trkpt lat="47.85962" lon="7.16492">
        <ele>929</ele>
        <time>2023-05-06T11:50:12Z</time>
      </trkpt>
      <trkpt lat="47.85964" lon="7.16482">
        <ele>931</ele>
        <time>2023-05-06T11:50:30Z</time>
      </trkpt>
      <trkpt lat="47.85966" lon="7.1647">
        <ele>932</ele>
        <time>2023-05-06T11:50:42Z</time>
      </trkpt>
      <trkpt lat="47.85966" lon="7.1645">
        <ele>931</ele>
        <time>2023-05-06T11:50:59Z</time>
      </trkpt>
      <trkpt lat="47.85966" lon="7.16444">
        <ele>930</ele>
        <time>2023-05-06T11:51:04Z</time>
      </trkpt>
      <trkpt lat="47.85969" lon="7.1644">
        <ele>930</ele>
        <time>2023-05-06T11:51:09Z</time>
      </trkpt>
      <trkpt lat="47.8597" lon="7.16431">
        <ele>931</ele>
        <time>2023-05-06T11:51:16Z</time>
      </trkpt>
      <trkpt lat="47.85972" lon="7.16412">
        <ele>934</ele>
        <time>2023-05-06T11:51:32Z</time>
      </trkpt>
      <trkpt lat="47.85975" lon="7.16407">
        <ele>935</ele>
        <time>2023-05-06T11:51:37Z</time>
      </trkpt>
      <trkpt lat="47.85979" lon="7.164">
        <ele>935</ele>
        <time>2023-05-06T11:51:48Z</time>
      </trkpt>
      <trkpt lat="47.85983" lon="7.16398">
        <ele>934</ele>
        <time>2023-05-06T11:51:53Z</time>
      </trkpt>
      <trkpt lat="47.85988" lon="7.16391">
        <ele>935</ele>
        <time>2023-05-06T11:52:04Z</time>
      </trkpt>
      <trkpt lat="47.85988" lon="7.16384">
        <ele>935</ele>
        <time>2023-05-06T11:52:08Z</time>
      </trkpt>
      <trkpt lat="47.85988" lon="7.16377">
        <ele>935</ele>
        <time>2023-05-06T11:52:12Z</time>
      </trkpt>
      <trkpt lat="47.85985" lon="7.16363">
        <ele>937</ele>
        <time>2023-05-06T11:52:21Z</time>
      </trkpt>
      <trkpt lat="47.85984" lon="7.16356">
        <ele>937</ele>
        <time>2023-05-06T11:52:27Z</time>
      </trkpt>
      <trkpt lat="47.85979" lon="7.1635">
        <ele>936</ele>
        <time>2023-05-06T11:52:35Z</time>
      </trkpt>
      <trkpt lat="47.85974" lon="7.16348">
        <ele>935</ele>
        <time>2023-05-06T11:52:41Z</time>
      </trkpt>
      <trkpt lat="47.85971" lon="7.16344">
        <ele>934</ele>
        <time>2023-05-06T11:52:45Z</time>
      </trkpt>
      <trkpt lat="47.85969" lon="7.16337">
        <ele>934</ele>
        <time>2023-05-06T11:52:50Z</time>
      </trkpt>
      <trkpt lat="47.85967" lon="7.16332">
        <ele>934</ele>
        <time>2023-05-06T11:52:55Z</time>
      </trkpt>
      <trkpt lat="47.85969" lon="7.1632">
        <ele>933</ele>
        <time>2023-05-06T11:53:05Z</time>
      </trkpt>
      <trkpt lat="47.85974" lon="7.16315">
        <ele>935</ele>
        <time>2023-05-06T11:53:13Z</time>
      </trkpt>
      <trkpt lat="47.85977" lon="7.16306">
        <ele>936</ele>
        <time>2023-05-06T11:53:20Z</time>
      </trkpt>
      <trkpt lat="47.85976" lon="7.16298">
        <ele>936</ele>
        <time>2023-05-06T11:53:24Z</time>
      </trkpt>
      <trkpt lat="47.85977" lon="7.16292">
        <ele>937</ele>
        <time>2023-05-06T11:53:28Z</time>
      </trkpt>
      <trkpt lat="47.85975" lon="7.16285">
        <ele>937</ele>
        <time>2023-05-06T11:53:32Z</time>
      </trkpt>
      <trkpt lat="47.85985" lon="7.1626">
        <ele>940</ele>
        <time>2023-05-06T11:53:52Z</time>
      </trkpt>
      <trkpt lat="47.85988" lon="7.16248">
        <ele>942</ele>
        <time>2023-05-06T11:54:01Z</time>
      </trkpt>
      <trkpt lat="47.85984" lon="7.16235">
        <ele>941</ele>
        <time>2023-05-06T11:54:09Z</time>
      </trkpt>
      <trkpt lat="47.85985" lon="7.16229">
        <ele>942</ele>
        <time>2023-05-06T11:54:13Z</time>
      </trkpt>
      <trkpt lat="47.85988" lon="7.16223">
        <ele>942</ele>
        <time>2023-05-06T11:54:18Z</time>
      </trkpt>
      <trkpt lat="47.85988" lon="7.16216">
        <ele>943</ele>
        <time>2023-05-06T11:54:22Z</time>
      </trkpt>
      <trkpt lat="47.85987" lon="7.16208">
        <ele>943</ele>
        <time>2023-05-06T11:54:27Z</time>
      </trkpt>
      <trkpt lat="47.85989" lon="7.16202">
        <ele>943</ele>
        <time>2023-05-06T11:54:32Z</time>
      </trkpt>
      <trkpt lat="47.85987" lon="7.16194">
        <ele>942</ele>
        <time>2023-05-06T11:54:37Z</time>
      </trkpt>
      <trkpt lat="47.85982" lon="7.16197">
        <ele>942</ele>
        <time>2023-05-06T11:54:44Z</time>
      </trkpt>
      <trkpt lat="47.85978" lon="7.16193">
        <ele>941</ele>
        <time>2023-05-06T11:54:48Z</time>
      </trkpt>
      <trkpt lat="47.85975" lon="7.16176">
        <ele>940</ele>
        <time>2023-05-06T11:55:00Z</time>
      </trkpt>
      <trkpt lat="47.85976" lon="7.16166">
        <ele>939</ele>
        <time>2023-05-06T11:55:06Z</time>
      </trkpt>
      <trkpt lat="47.85974" lon="7.1616">
        <ele>938</ele>
        <time>2023-05-06T11:55:10Z</time>
      </trkpt>
      <trkpt lat="47.85973" lon="7.16152">
        <ele>937</ele>
        <time>2023-05-06T11:55:14Z</time>
      </trkpt>
      <trkpt lat="47.85971" lon="7.16146">
        <ele>937</ele>
        <time>2023-05-06T11:55:18Z</time>
      </trkpt>
      <trkpt lat="47.85969" lon="7.16124">
        <ele>935</ele>
        <time>2023-05-06T11:55:30Z</time>
      </trkpt>
      <trkpt lat="47.85961" lon="7.16107">
        <ele>932</ele>
        <time>2023-05-06T11:55:43Z</time>
      </trkpt>
      <trkpt lat="47.85961" lon="7.16099">
        <ele>931</ele>
        <time>2023-05-06T11:55:47Z</time>
      </trkpt>
      <trkpt lat="47.85962" lon="7.16093">
        <ele>931</ele>
        <time>2023-05-06T11:55:51Z</time>
      </trkpt>
      <trkpt lat="47.85963" lon="7.16086">
        <ele>931</ele>
        <time>2023-05-06T11:55:55Z</time>
      </trkpt>
      <trkpt lat="47.85963" lon="7.16078">
        <ele>931</ele>
        <time>2023-05-06T11:55:59Z</time>
      </trkpt>
      <trkpt lat="47.85959" lon="7.1607">
        <ele>931</ele>
        <time>2023-05-06T11:56:05Z</time>
      </trkpt>
      <trkpt lat="47.85952" lon="7.16058">
        <ele>928</ele>
        <time>2023-05-06T11:56:13Z</time>
      </trkpt>
      <trkpt lat="47.85953" lon="7.16052">
        <ele>928</ele>
        <time>2023-05-06T11:56:17Z</time>
      </trkpt>
      <trkpt lat="47.85955" lon="7.16045">
        <ele>928</ele>
        <time>2023-05-06T11:56:21Z</time>
      </trkpt>
      <trkpt lat="47.8596" lon="7.1602">
        <ele>928</ele>
        <time>2023-05-06T11:56:38Z</time>
      </trkpt>
      <trkpt lat="47.85959" lon="7.16014">
        <ele>928</ele>
        <time>2023-05-06T11:56:41Z</time>
      </trkpt>
      <trkpt lat="47.85961" lon="7.16008">
        <ele>928</ele>
        <time>2023-05-06T11:56:45Z</time>
      </trkpt>
      <trkpt lat="47.85962" lon="7.16001">
        <ele>927</ele>
        <time>2023-05-06T11:56:49Z</time>
      </trkpt>
      <trkpt lat="47.85959" lon="7.15994">
        <ele>927</ele>
        <time>2023-05-06T11:56:53Z</time>
      </trkpt>
      <trkpt lat="47.85962" lon="7.15986">
        <ele>926</ele>
        <time>2023-05-06T11:56:59Z</time>
      </trkpt>
      <trkpt lat="47.85965" lon="7.15977">
        <ele>926</ele>
        <time>2023-05-06T11:57:06Z</time>
      </trkpt>
      <trkpt lat="47.85969" lon="7.15956">
        <ele>925</ele>
        <time>2023-05-06T11:57:18Z</time>
      </trkpt>
      <trkpt lat="47.8597" lon="7.1595">
        <ele>924</ele>
        <time>2023-05-06T11:57:21Z</time>
      </trkpt>
      <trkpt lat="47.85972" lon="7.15944">
        <ele>924</ele>
        <time>2023-05-06T11:57:25Z</time>
      </trkpt>
      <trkpt lat="47.85974" lon="7.15939">
        <ele>923</ele>
        <time>2023-05-06T11:57:29Z</time>
      </trkpt>
      <trkpt lat="47.85981" lon="7.1593">
        <ele>924</ele>
        <time>2023-05-06T11:57:37Z</time>
      </trkpt>
      <trkpt lat="47.85983" lon="7.15924">
        <ele>924</ele>
        <time>2023-05-06T11:57:41Z</time>
      </trkpt>
      <trkpt lat="47.85984" lon="7.15909">
        <ele>924</ele>
        <time>2023-05-06T11:57:49Z</time>
      </trkpt>
      <trkpt lat="47.85986" lon="7.15903">
        <ele>924</ele>
        <time>2023-05-06T11:57:53Z</time>
      </trkpt>
      <trkpt lat="47.85988" lon="7.15897">
        <ele>924</ele>
        <time>2023-05-06T11:57:57Z</time>
      </trkpt>
      <trkpt lat="47.8599" lon="7.15883">
        <ele>924</ele>
        <time>2023-05-06T11:58:04Z</time>
      </trkpt>
      <trkpt lat="47.85993" lon="7.1587">
        <ele>923</ele>
        <time>2023-05-06T11:58:12Z</time>
      </trkpt>
      <trkpt lat="47.85996" lon="7.15865">
        <ele>923</ele>
        <time>2023-05-06T11:58:16Z</time>
      </trkpt>
      <trkpt lat="47.85999" lon="7.15859">
        <ele>924</ele>
        <time>2023-05-06T11:58:21Z</time>
      </trkpt>
      <trkpt lat="47.85999" lon="7.15853">
        <ele>924</ele>
        <time>2023-05-06T11:58:24Z</time>
      </trkpt>
      <trkpt lat="47.86003" lon="7.1585">
        <ele>924</ele>
        <time>2023-05-06T11:58:28Z</time>
      </trkpt>
      <trkpt lat="47.86006" lon="7.15844">
        <ele>925</ele>
        <time>2023-05-06T11:58:32Z</time>
      </trkpt>
      <trkpt lat="47.86008" lon="7.15837">
        <ele>925</ele>
        <time>2023-05-06T11:58:36Z</time>
      </trkpt>
      <trkpt lat="47.86014" lon="7.15818">
        <ele>924</ele>
        <time>2023-05-06T11:58:49Z</time>
      </trkpt>
      <trkpt lat="47.86016" lon="7.15797">
        <ele>922</ele>
        <time>2023-05-06T11:59:01Z</time>
      </trkpt>
      <trkpt lat="47.86021" lon="7.15786">
        <ele>921</ele>
        <time>2023-05-06T11:59:09Z</time>
      </trkpt>
      <trkpt lat="47.86022" lon="7.15772">
        <ele>920</ele>
        <time>2023-05-06T11:59:18Z</time>
      </trkpt>
      <trkpt lat="47.86016" lon="7.15753">
        <ele>917</ele>
        <time>2023-05-06T11:59:31Z</time>
      </trkpt>
      <trkpt lat="47.86015" lon="7.15742">
        <ele>916</ele>
        <time>2023-05-06T11:59:38Z</time>
      </trkpt>
      <trkpt lat="47.86016" lon="7.15729">
        <ele>915</ele>
        <time>2023-05-06T11:59:46Z</time>
      </trkpt>
      <trkpt lat="47.86019" lon="7.15716">
        <ele>914</ele>
        <time>2023-05-06T11:59:54Z</time>
      </trkpt>
      <trkpt lat="47.86019" lon="7.15708">
        <ele>913</ele>
        <time>2023-05-06T11:59:58Z</time>
      </trkpt>
      <trkpt lat="47.86022" lon="7.15674">
        <ele>909</ele>
        <time>2023-05-06T12:00:23Z</time>
      </trkpt>
      <trkpt lat="47.86022" lon="7.15651">
        <ele>907</ele>
        <time>2023-05-06T12:00:39Z</time>
      </trkpt>
      <trkpt lat="47.86019" lon="7.15639">
        <ele>906</ele>
        <time>2023-05-06T12:00:47Z</time>
      </trkpt>
      <trkpt lat="47.86019" lon="7.15604">
        <ele>903</ele>
        <time>2023-05-06T12:01:11Z</time>
      </trkpt>
      <trkpt lat="47.86017" lon="7.15593">
        <ele>902</ele>
        <time>2023-05-06T12:01:18Z</time>
      </trkpt>
      <trkpt lat="47.86014" lon="7.15543">
        <ele>899</ele>
        <time>2023-05-06T12:01:51Z</time>
      </trkpt>
      <trkpt lat="47.86011" lon="7.15509">
        <ele>898</ele>
        <time>2023-05-06T12:02:13Z</time>
      </trkpt>
      <trkpt lat="47.86008" lon="7.15494">
        <ele>897</ele>
        <time>2023-05-06T12:02:23Z</time>
      </trkpt>
      <trkpt lat="47.86002" lon="7.1545">
        <ele>896</ele>
        <time>2023-05-06T12:02:50Z</time>
      </trkpt>
      <trkpt lat="47.86" lon="7.15443">
        <ele>896</ele>
        <time>2023-05-06T12:02:55Z</time>
      </trkpt>
      <trkpt lat="47.85998" lon="7.15429">
        <ele>896</ele>
        <time>2023-05-06T12:03:03Z</time>
      </trkpt>
      <trkpt lat="47.8599" lon="7.15391">
        <ele>895</ele>
        <time>2023-05-06T12:03:26Z</time>
      </trkpt>
      <trkpt lat="47.85989" lon="7.15377">
        <ele>895</ele>
        <time>2023-05-06T12:03:35Z</time>
      </trkpt>
      <trkpt lat="47.85983" lon="7.15358">
        <ele>894</ele>
        <time>2023-05-06T12:03:47Z</time>
      </trkpt>
      <trkpt lat="47.85965" lon="7.15316">
        <ele>891</ele>
        <time>2023-05-06T12:04:19Z</time>
      </trkpt>
      <trkpt lat="47.85959" lon="7.15305">
        <ele>891</ele>
        <time>2023-05-06T12:04:26Z</time>
      </trkpt>
      <trkpt lat="47.85954" lon="7.15291">
        <ele>891</ele>
        <time>2023-05-06T12:04:34Z</time>
      </trkpt>
      <trkpt lat="47.85951" lon="7.15286">
        <ele>891</ele>
        <time>2023-05-06T12:04:38Z</time>
      </trkpt>
      <trkpt lat="47.85947" lon="7.15282">
        <ele>891</ele>
        <time>2023-05-06T12:04:42Z</time>
      </trkpt>
      <trkpt lat="47.85913" lon="7.15283">
        <ele>889</ele>
        <time>2023-05-06T12:05:13Z</time>
      </trkpt>
      <trkpt lat="47.8588" lon="7.15276">
        <ele>889</ele>
        <time>2023-05-06T12:05:42Z</time>
      </trkpt>
      <trkpt lat="47.85868" lon="7.15263">
        <ele>890</ele>
        <time>2023-05-06T12:05:54Z</time>
      </trkpt>
      <trkpt lat="47.85865" lon="7.15257">
        <ele>890</ele>
        <time>2023-05-06T12:05:59Z</time>
      </trkpt>
      <trkpt lat="47.85855" lon="7.15225">
        <ele>893</ele>
        <time>2023-05-06T12:06:25Z</time>
      </trkpt>
      <trkpt lat="47.85845" lon="7.15184">
        <ele>898</ele>
        <time>2023-05-06T12:06:58Z</time>
      </trkpt>
      <trkpt lat="47.85836" lon="7.15146">
        <ele>902</ele>
        <time>2023-05-06T12:07:29Z</time>
      </trkpt>
      <trkpt lat="47.85832" lon="7.15119">
        <ele>903</ele>
        <time>2023-05-06T12:07:47Z</time>
      </trkpt>
      <trkpt lat="47.85828" lon="7.15105">
        <ele>904</ele>
        <time>2023-05-06T12:07:57Z</time>
      </trkpt>
      <trkpt lat="47.85826" lon="7.15071">
        <ele>906</ele>
        <time>2023-05-06T12:08:21Z</time>
      </trkpt>
      <trkpt lat="47.85829" lon="7.1506">
        <ele>907</ele>
        <time>2023-05-06T12:08:30Z</time>
      </trkpt>
      <trkpt lat="47.85829" lon="7.15052">
        <ele>907</ele>
        <time>2023-05-06T12:08:36Z</time>
      </trkpt>
      <trkpt lat="47.85829" lon="7.15032">
        <ele>909</ele>
        <time>2023-05-06T12:08:50Z</time>
      </trkpt>
      <trkpt lat="47.85827" lon="7.15022">
        <ele>909</ele>
        <time>2023-05-06T12:08:58Z</time>
      </trkpt>
      <trkpt lat="47.85814" lon="7.14987">
        <ele>909</ele>
        <time>2023-05-06T12:09:24Z</time>
      </trkpt>
      <trkpt lat="47.85813" lon="7.1498">
        <ele>909</ele>
        <time>2023-05-06T12:09:28Z</time>
      </trkpt>
      <trkpt lat="47.8581" lon="7.14973">
        <ele>909</ele>
        <time>2023-05-06T12:09:32Z</time>
      </trkpt>
      <trkpt lat="47.85807" lon="7.14958">
        <ele>909</ele>
        <time>2023-05-06T12:09:42Z</time>
      </trkpt>
      <trkpt lat="47.85807" lon="7.14951">
        <ele>909</ele>
        <time>2023-05-06T12:09:47Z</time>
      </trkpt>
      <trkpt lat="47.85797" lon="7.14915">
        <ele>908</ele>
        <time>2023-05-06T12:10:12Z</time>
      </trkpt>
      <trkpt lat="47.85778" lon="7.14875">
        <ele>908</ele>
        <time>2023-05-06T12:10:43Z</time>
      </trkpt>
      <trkpt lat="47.85775" lon="7.14869">
        <ele>908</ele>
        <time>2023-05-06T12:10:48Z</time>
      </trkpt>
      <trkpt lat="47.8577" lon="7.14865">
        <ele>908</ele>
        <time>2023-05-06T12:10:53Z</time>
      </trkpt>
      <trkpt lat="47.85767" lon="7.14859">
        <ele>908</ele>
        <time>2023-05-06T12:10:57Z</time>
      </trkpt>
      <trkpt lat="47.8577" lon="7.14849">
        <ele>909</ele>
        <time>2023-05-06T12:11:04Z</time>
      </trkpt>
      <trkpt lat="47.85774" lon="7.14849">
        <ele>909</ele>
        <time>2023-05-06T12:11:08Z</time>
      </trkpt>
      <trkpt lat="47.85806" lon="7.14869">
        <ele>911</ele>
        <time>2023-05-06T12:11:34Z</time>
      </trkpt>
      <trkpt lat="47.8581" lon="7.14873">
        <ele>911</ele>
        <time>2023-05-06T12:11:39Z</time>
      </trkpt>
      <trkpt lat="47.85815" lon="7.14875">
        <ele>911</ele>
        <time>2023-05-06T12:11:43Z</time>
      </trkpt>
      <trkpt lat="47.85821" lon="7.14877">
        <ele>912</ele>
        <time>2023-05-06T12:11:51Z</time>
      </trkpt>
      <trkpt lat="47.85855" lon="7.1486">
        <ele>914</ele>
        <time>2023-05-06T12:12:26Z</time>
      </trkpt>
      <trkpt lat="47.85865" lon="7.14853">
        <ele>914</ele>
        <time>2023-05-06T12:12:35Z</time>
      </trkpt>
      <trkpt lat="47.8587" lon="7.14841">
        <ele>914</ele>
        <time>2023-05-06T12:12:45Z</time>
      </trkpt>
      <trkpt lat="47.8588" lon="7.14788">
        <ele>913</ele>
        <time>2023-05-06T12:13:19Z</time>
      </trkpt>
      <trkpt lat="47.85882" lon="7.14782">
        <ele>913</ele>
        <time>2023-05-06T12:13:23Z</time>
      </trkpt>
      <trkpt lat="47.85888" lon="7.14734">
        <ele>913</ele>
        <time>2023-05-06T12:13:55Z</time>
      </trkpt>
      <trkpt lat="47.85888" lon="7.14728">
        <ele>913</ele>
        <time>2023-05-06T12:13:59Z</time>
      </trkpt>
      <trkpt lat="47.85888" lon="7.14721">
        <ele>913</ele>
        <time>2023-05-06T12:14:03Z</time>
      </trkpt>
      <trkpt lat="47.85893" lon="7.14724">
        <ele>912</ele>
        <time>2023-05-06T12:14:10Z</time>
      </trkpt>
      <trkpt lat="47.85901" lon="7.14735">
        <ele>910</ele>
        <time>2023-05-06T12:14:20Z</time>
      </trkpt>
      <trkpt lat="47.85899" lon="7.14708">
        <ele>905</ele>
        <time>2023-05-06T12:14:39Z</time>
      </trkpt>
      <trkpt lat="47.85899" lon="7.147">
        <ele>905</ele>
        <time>2023-05-06T12:14:43Z</time>
      </trkpt>
      <trkpt lat="47.85897" lon="7.1467">
        <ele>905</ele>
        <time>2023-05-06T12:15:00Z</time>
      </trkpt>
      <trkpt lat="47.85898" lon="7.14664">
        <ele>905</ele>
        <time>2023-05-06T12:15:04Z</time>
      </trkpt>
      <trkpt lat="47.859" lon="7.14658">
        <ele>905</ele>
        <time>2023-05-06T12:15:09Z</time>
      </trkpt>
      <trkpt lat="47.85902" lon="7.14646">
        <ele>905</ele>
        <time>2023-05-06T12:15:18Z</time>
      </trkpt>
      <trkpt lat="47.85907" lon="7.14644">
        <ele>906</ele>
        <time>2023-05-06T12:15:22Z</time>
      </trkpt>
      <trkpt lat="47.85911" lon="7.14638">
        <ele>906</ele>
        <time>2023-05-06T12:15:31Z</time>
      </trkpt>
      <trkpt lat="47.85913" lon="7.14632">
        <ele>906</ele>
        <time>2023-05-06T12:15:35Z</time>
      </trkpt>
      <trkpt lat="47.85919" lon="7.14625">
        <ele>906</ele>
        <time>2023-05-06T12:15:42Z</time>
      </trkpt>
      <trkpt lat="47.85919" lon="7.14618">
        <ele>906</ele>
        <time>2023-05-06T12:15:47Z</time>
      </trkpt>
      <trkpt lat="47.85929" lon="7.14594">
        <ele>905</ele>
        <time>2023-05-06T12:16:11Z</time>
      </trkpt>
      <trkpt lat="47.85933" lon="7.14591">
        <ele>905</ele>
        <time>2023-05-06T12:16:15Z</time>
      </trkpt>
      <trkpt lat="47.85936" lon="7.14584">
        <ele>905</ele>
        <time>2023-05-06T12:16:22Z</time>
      </trkpt>
      <trkpt lat="47.8594" lon="7.14581">
        <ele>905</ele>
        <time>2023-05-06T12:16:25Z</time>
      </trkpt>
      <trkpt lat="47.85956" lon="7.14548">
        <ele>902</ele>
        <time>2023-05-06T12:16:50Z</time>
      </trkpt>
      <trkpt lat="47.85959" lon="7.14543">
        <ele>902</ele>
        <time>2023-05-06T12:16:56Z</time>
      </trkpt>
      <trkpt lat="47.85967" lon="7.14516">
        <ele>901</ele>
        <time>2023-05-06T12:17:29Z</time>
      </trkpt>
      <trkpt lat="47.8597" lon="7.14511">
        <ele>900</ele>
        <time>2023-05-06T12:17:34Z</time>
      </trkpt>
      <trkpt lat="47.85972" lon="7.14504">
        <ele>899</ele>
        <time>2023-05-06T12:17:40Z</time>
      </trkpt>
      <trkpt lat="47.8598" lon="7.14489">
        <ele>897</ele>
        <time>2023-05-06T12:17:55Z</time>
      </trkpt>
      <trkpt lat="47.85984" lon="7.14485">
        <ele>896</ele>
        <time>2023-05-06T12:18:00Z</time>
      </trkpt>
      <trkpt lat="47.85988" lon="7.14479">
        <ele>895</ele>
        <time>2023-05-06T12:18:07Z</time>
      </trkpt>
      <trkpt lat="47.85989" lon="7.14473">
        <ele>894</ele>
        <time>2023-05-06T12:18:11Z</time>
      </trkpt>
      <trkpt lat="47.85991" lon="7.14467">
        <ele>894</ele>
        <time>2023-05-06T12:18:15Z</time>
      </trkpt>
      <trkpt lat="47.85994" lon="7.1445">
        <ele>893</ele>
        <time>2023-05-06T12:18:27Z</time>
      </trkpt>
      <trkpt lat="47.85995" lon="7.14439">
        <ele>891</ele>
        <time>2023-05-06T12:18:35Z</time>
      </trkpt>
      <trkpt lat="47.85997" lon="7.14429">
        <ele>891</ele>
        <time>2023-05-06T12:18:41Z</time>
      </trkpt>
      <trkpt lat="47.85998" lon="7.14421">
        <ele>890</ele>
        <time>2023-05-06T12:18:46Z</time>
      </trkpt>
      <trkpt lat="47.86009" lon="7.14398">
        <ele>887</ele>
        <time>2023-05-06T12:19:04Z</time>
      </trkpt>
      <trkpt lat="47.86009" lon="7.14382">
        <ele>884</ele>
        <time>2023-05-06T12:19:16Z</time>
      </trkpt>
      <trkpt lat="47.86012" lon="7.14388">
        <ele>882</ele>
        <time>2023-05-06T12:19:47Z</time>
      </trkpt>
      <trkpt lat="47.86015" lon="7.14375">
        <ele>880</ele>
        <time>2023-05-06T12:20:28Z</time>
      </trkpt>
      <trkpt lat="47.86014" lon="7.14369">
        <ele>880</ele>
        <time>2023-05-06T12:20:31Z</time>
      </trkpt>
      <trkpt lat="47.86014" lon="7.14346">
        <ele>877</ele>
        <time>2023-05-06T12:20:48Z</time>
      </trkpt>
      <trkpt lat="47.86012" lon="7.1434">
        <ele>877</ele>
        <time>2023-05-06T12:20:53Z</time>
      </trkpt>
      <trkpt lat="47.8601" lon="7.14326">
        <ele>876</ele>
        <time>2023-05-06T12:21:00Z</time>
      </trkpt>
      <trkpt lat="47.86011" lon="7.14319">
        <ele>874</ele>
        <time>2023-05-06T12:21:05Z</time>
      </trkpt>
      <trkpt lat="47.8601" lon="7.14313">
        <ele>874</ele>
        <time>2023-05-06T12:21:09Z</time>
      </trkpt>
      <trkpt lat="47.86011" lon="7.14306">
        <ele>873</ele>
        <time>2023-05-06T12:21:14Z</time>
      </trkpt>
      <trkpt lat="47.86009" lon="7.14299">
        <ele>873</ele>
        <time>2023-05-06T12:21:17Z</time>
      </trkpt>
      <trkpt lat="47.86011" lon="7.14293">
        <ele>872</ele>
        <time>2023-05-06T12:21:21Z</time>
      </trkpt>
      <trkpt lat="47.86009" lon="7.14285">
        <ele>871</ele>
        <time>2023-05-06T12:21:27Z</time>
      </trkpt>
      <trkpt lat="47.86009" lon="7.14277">
        <ele>871</ele>
        <time>2023-05-06T12:21:31Z</time>
      </trkpt>
      <trkpt lat="47.8601" lon="7.14271">
        <ele>870</ele>
        <time>2023-05-06T12:21:35Z</time>
      </trkpt>
      <trkpt lat="47.86007" lon="7.14265">
        <ele>870</ele>
        <time>2023-05-06T12:21:40Z</time>
      </trkpt>
      <trkpt lat="47.86008" lon="7.14258">
        <ele>870</ele>
        <time>2023-05-06T12:21:45Z</time>
      </trkpt>
      <trkpt lat="47.8601" lon="7.14253">
        <ele>868</ele>
        <time>2023-05-06T12:21:51Z</time>
      </trkpt>
      <trkpt lat="47.86009" lon="7.14235">
        <ele>866</ele>
        <time>2023-05-06T12:22:03Z</time>
      </trkpt>
      <trkpt lat="47.86012" lon="7.14217">
        <ele>863</ele>
        <time>2023-05-06T12:22:16Z</time>
      </trkpt>
      <trkpt lat="47.86011" lon="7.14202">
        <ele>862</ele>
        <time>2023-05-06T12:22:24Z</time>
      </trkpt>
      <trkpt lat="47.86009" lon="7.14195">
        <ele>862</ele>
        <time>2023-05-06T12:22:28Z</time>
      </trkpt>
      <trkpt lat="47.86008" lon="7.14188">
        <ele>862</ele>
        <time>2023-05-06T12:22:32Z</time>
      </trkpt>
      <trkpt lat="47.8601" lon="7.1417">
        <ele>861</ele>
        <time>2023-05-06T12:22:43Z</time>
      </trkpt>
      <trkpt lat="47.8601" lon="7.14162">
        <ele>859</ele>
        <time>2023-05-06T12:22:50Z</time>
      </trkpt>
      <trkpt lat="47.86011" lon="7.14155">
        <ele>858</ele>
        <time>2023-05-06T12:22:54Z</time>
      </trkpt>
      <trkpt lat="47.86009" lon="7.14147">
        <ele>858</ele>
        <time>2023-05-06T12:23:00Z</time>
      </trkpt>
      <trkpt lat="47.86014" lon="7.14144">
        <ele>857</ele>
        <time>2023-05-06T12:23:06Z</time>
      </trkpt>
      <trkpt lat="47.86013" lon="7.14133">
        <ele>856</ele>
        <time>2023-05-06T12:23:12Z</time>
      </trkpt>
      <trkpt lat="47.86011" lon="7.1412">
        <ele>856</ele>
        <time>2023-05-06T12:23:19Z</time>
      </trkpt>
      <trkpt lat="47.8601" lon="7.14112">
        <ele>856</ele>
        <time>2023-05-06T12:23:23Z</time>
      </trkpt>
      <trkpt lat="47.86007" lon="7.14107">
        <ele>855</ele>
        <time>2023-05-06T12:23:33Z</time>
      </trkpt>
      <trkpt lat="47.86007" lon="7.141">
        <ele>855</ele>
        <time>2023-05-06T12:23:40Z</time>
      </trkpt>
      <trkpt lat="47.86002" lon="7.14087">
        <ele>855</ele>
        <time>2023-05-06T12:23:48Z</time>
      </trkpt>
      <trkpt lat="47.86005" lon="7.14072">
        <ele>855</ele>
        <time>2023-05-06T12:23:59Z</time>
      </trkpt>
      <trkpt lat="47.86006" lon="7.14044">
        <ele>855</ele>
        <time>2023-05-06T12:24:13Z</time>
      </trkpt>
      <trkpt lat="47.86006" lon="7.14035">
        <ele>855</ele>
        <time>2023-05-06T12:24:20Z</time>
      </trkpt>
      <trkpt lat="47.86003" lon="7.14029">
        <ele>854</ele>
        <time>2023-05-06T12:24:24Z</time>
      </trkpt>
      <trkpt lat="47.86001" lon="7.14022">
        <ele>854</ele>
        <time>2023-05-06T12:24:29Z</time>
      </trkpt>
      <trkpt lat="47.86" lon="7.14016">
        <ele>854</ele>
        <time>2023-05-06T12:24:33Z</time>
      </trkpt>
      <trkpt lat="47.85997" lon="7.14007">
        <ele>855</ele>
        <time>2023-05-06T12:24:39Z</time>
      </trkpt>
      <trkpt lat="47.85997" lon="7.13994">
        <ele>855</ele>
        <time>2023-05-06T12:24:48Z</time>
      </trkpt>
      <trkpt lat="47.85996" lon="7.13985">
        <ele>854</ele>
        <time>2023-05-06T12:24:51Z</time>
      </trkpt>
      <trkpt lat="47.85998" lon="7.13964">
        <ele>853</ele>
        <time>2023-05-06T12:25:02Z</time>
      </trkpt>
      <trkpt lat="47.86002" lon="7.13959">
        <ele>853</ele>
        <time>2023-05-06T12:25:06Z</time>
      </trkpt>
      <trkpt lat="47.86006" lon="7.13956">
        <ele>853</ele>
        <time>2023-05-06T12:25:10Z</time>
      </trkpt>
      <trkpt lat="47.8601" lon="7.13953">
        <ele>853</ele>
        <time>2023-05-06T12:25:13Z</time>
      </trkpt>
      <trkpt lat="47.86018" lon="7.13948">
        <ele>853</ele>
        <time>2023-05-06T12:25:20Z</time>
      </trkpt>
      <trkpt lat="47.8602" lon="7.13942">
        <ele>852</ele>
        <time>2023-05-06T12:25:24Z</time>
      </trkpt>
      <trkpt lat="47.86022" lon="7.13936">
        <ele>853</ele>
        <time>2023-05-06T12:25:29Z</time>
      </trkpt>
      <trkpt lat="47.86027" lon="7.13933">
        <ele>853</ele>
        <time>2023-05-06T12:25:32Z</time>
      </trkpt>
      <trkpt lat="47.8603" lon="7.13927">
        <ele>852</ele>
        <time>2023-05-06T12:25:36Z</time>
      </trkpt>
      <trkpt lat="47.86029" lon="7.13916">
        <ele>854</ele>
        <time>2023-05-06T12:25:47Z</time>
      </trkpt>
      <trkpt lat="47.86035" lon="7.13913">
        <ele>853</ele>
        <time>2023-05-06T12:25:51Z</time>
      </trkpt>
      <trkpt lat="47.86044" lon="7.1391">
        <ele>853</ele>
        <time>2023-05-06T12:25:57Z</time>
      </trkpt>
      <trkpt lat="47.86049" lon="7.13906">
        <ele>853</ele>
        <time>2023-05-06T12:26:06Z</time>
      </trkpt>
      <trkpt lat="47.86053" lon="7.139">
        <ele>853</ele>
        <time>2023-05-06T12:26:29Z</time>
      </trkpt>
      <trkpt lat="47.86056" lon="7.13906">
        <ele>854</ele>
        <time>2023-05-06T12:26:59Z</time>
      </trkpt>
      <trkpt lat="47.86059" lon="7.13901">
        <ele>854</ele>
        <time>2023-05-06T12:27:04Z</time>
      </trkpt>
      <trkpt lat="47.86067" lon="7.13905">
        <ele>856</ele>
        <time>2023-05-06T12:27:17Z</time>
      </trkpt>
      <trkpt lat="47.86074" lon="7.13906">
        <ele>856</ele>
        <time>2023-05-06T12:27:24Z</time>
      </trkpt>
      <trkpt lat="47.86077" lon="7.1391">
        <ele>855</ele>
        <time>2023-05-06T12:27:29Z</time>
      </trkpt>
      <trkpt lat="47.8608" lon="7.13916">
        <ele>855</ele>
        <time>2023-05-06T12:27:34Z</time>
      </trkpt>
      <trkpt lat="47.86084" lon="7.1392">
        <ele>855</ele>
        <time>2023-05-06T12:27:39Z</time>
      </trkpt>
      <trkpt lat="47.86089" lon="7.13917">
        <ele>856</ele>
        <time>2023-05-06T12:27:44Z</time>
      </trkpt>
      <trkpt lat="47.86092" lon="7.13903">
        <ele>856</ele>
        <time>2023-05-06T12:27:53Z</time>
      </trkpt>
      <trkpt lat="47.86094" lon="7.13897">
        <ele>857</ele>
        <time>2023-05-06T12:27:58Z</time>
      </trkpt>
      <trkpt lat="47.86097" lon="7.13892">
        <ele>856</ele>
        <time>2023-05-06T12:28:02Z</time>
      </trkpt>
      <trkpt lat="47.86099" lon="7.13884">
        <ele>856</ele>
        <time>2023-05-06T12:28:07Z</time>
      </trkpt>
      <trkpt lat="47.86098" lon="7.13871">
        <ele>856</ele>
        <time>2023-05-06T12:28:15Z</time>
      </trkpt>
      <trkpt lat="47.86099" lon="7.13864">
        <ele>856</ele>
        <time>2023-05-06T12:28:20Z</time>
      </trkpt>
      <trkpt lat="47.861" lon="7.13856">
        <ele>856</ele>
        <time>2023-05-06T12:28:24Z</time>
      </trkpt>
      <trkpt lat="47.86099" lon="7.13843">
        <ele>856</ele>
        <time>2023-05-06T12:28:32Z</time>
      </trkpt>
      <trkpt lat="47.86097" lon="7.1383">
        <ele>858</ele>
        <time>2023-05-06T12:28:46Z</time>
      </trkpt>
      <trkpt lat="47.86094" lon="7.13822">
        <ele>859</ele>
        <time>2023-05-06T12:28:53Z</time>
      </trkpt>
      <trkpt lat="47.86093" lon="7.13812">
        <ele>860</ele>
        <time>2023-05-06T12:29:00Z</time>
      </trkpt>
      <trkpt lat="47.86093" lon="7.13801">
        <ele>862</ele>
        <time>2023-05-06T12:29:10Z</time>
      </trkpt>
      <trkpt lat="47.8609" lon="7.13784">
        <ele>864</ele>
        <time>2023-05-06T12:29:27Z</time>
      </trkpt>
      <trkpt lat="47.86086" lon="7.13775">
        <ele>865</ele>
        <time>2023-05-06T12:29:39Z</time>
      </trkpt>
      <trkpt lat="47.86085" lon="7.13769">
        <ele>865</ele>
        <time>2023-05-06T12:29:45Z</time>
      </trkpt>
      <trkpt lat="47.86083" lon="7.13762">
        <ele>866</ele>
        <time>2023-05-06T12:29:50Z</time>
      </trkpt>
      <trkpt lat="47.86076" lon="7.13757">
        <ele>867</ele>
        <time>2023-05-06T12:30:04Z</time>
      </trkpt>
      <trkpt lat="47.86073" lon="7.1375">
        <ele>867</ele>
        <time>2023-05-06T12:30:11Z</time>
      </trkpt>
      <trkpt lat="47.86066" lon="7.13745">
        <ele>866</ele>
        <time>2023-05-06T12:30:22Z</time>
      </trkpt>
      <trkpt lat="47.86061" lon="7.13741">
        <ele>867</ele>
        <time>2023-05-06T12:30:30Z</time>
      </trkpt>
      <trkpt lat="47.86058" lon="7.13734">
        <ele>867</ele>
        <time>2023-05-06T12:30:34Z</time>
      </trkpt>
      <trkpt lat="47.86055" lon="7.13729">
        <ele>866</ele>
        <time>2023-05-06T12:30:38Z</time>
      </trkpt>
      <trkpt lat="47.86051" lon="7.13725">
        <ele>866</ele>
        <time>2023-05-06T12:30:42Z</time>
      </trkpt>
      <trkpt lat="47.86045" lon="7.1372">
        <ele>867</ele>
        <time>2023-05-06T12:30:50Z</time>
      </trkpt>
      <trkpt lat="47.86041" lon="7.13711">
        <ele>869</ele>
        <time>2023-05-06T12:31:00Z</time>
      </trkpt>
      <trkpt lat="47.86037" lon="7.13705">
        <ele>870</ele>
        <time>2023-05-06T12:31:07Z</time>
      </trkpt>
      <trkpt lat="47.86034" lon="7.13696">
        <ele>870</ele>
        <time>2023-05-06T12:31:26Z</time>
      </trkpt>
      <trkpt lat="47.86029" lon="7.13697">
        <ele>872</ele>
        <time>2023-05-06T12:31:38Z</time>
      </trkpt>
      <trkpt lat="47.86026" lon="7.13687">
        <ele>874</ele>
        <time>2023-05-06T12:31:49Z</time>
      </trkpt>
      <trkpt lat="47.86026" lon="7.13673">
        <ele>873</ele>
        <time>2023-05-06T12:31:59Z</time>
      </trkpt>
      <trkpt lat="47.86026" lon="7.13666">
        <ele>873</ele>
        <time>2023-05-06T12:32:03Z</time>
      </trkpt>
      <trkpt lat="47.86024" lon="7.1365">
        <ele>875</ele>
        <time>2023-05-06T12:32:14Z</time>
      </trkpt>
      <trkpt lat="47.86023" lon="7.13643">
        <ele>875</ele>
        <time>2023-05-06T12:32:19Z</time>
      </trkpt>
      <trkpt lat="47.86024" lon="7.13636">
        <ele>875</ele>
        <time>2023-05-06T12:32:28Z</time>
      </trkpt>
      <trkpt lat="47.86023" lon="7.13627">
        <ele>876</ele>
        <time>2023-05-06T12:32:51Z</time>
      </trkpt>
      <trkpt lat="47.86024" lon="7.1362">
        <ele>874</ele>
        <time>2023-05-06T12:32:58Z</time>
      </trkpt>
      <trkpt lat="47.8602" lon="7.13606">
        <ele>873</ele>
        <time>2023-05-06T12:33:06Z</time>
      </trkpt>
      <trkpt lat="47.86018" lon="7.13601">
        <ele>873</ele>
        <time>2023-05-06T12:33:10Z</time>
      </trkpt>
      <trkpt lat="47.86016" lon="7.13592">
        <ele>874</ele>
        <time>2023-05-06T12:33:17Z</time>
      </trkpt>
      <trkpt lat="47.86012" lon="7.13583">
        <ele>876</ele>
        <time>2023-05-06T12:33:30Z</time>
      </trkpt>
      <trkpt lat="47.86005" lon="7.13583">
        <ele>879</ele>
        <time>2023-05-06T12:33:54Z</time>
      </trkpt>
      <trkpt lat="47.86005" lon="7.13575">
        <ele>881</ele>
        <time>2023-05-06T12:34:06Z</time>
      </trkpt>
      <trkpt lat="47.86011" lon="7.13575">
        <ele>880</ele>
        <time>2023-05-06T12:34:18Z</time>
      </trkpt>
      <trkpt lat="47.86013" lon="7.13569">
        <ele>879</ele>
        <time>2023-05-06T12:34:25Z</time>
      </trkpt>
      <trkpt lat="47.86018" lon="7.13565">
        <ele>878</ele>
        <time>2023-05-06T12:34:31Z</time>
      </trkpt>
      <trkpt lat="47.86017" lon="7.13563">
        <ele>876</ele>
        <time>2023-05-06T12:35:03Z</time>
      </trkpt>
      <trkpt lat="47.86017" lon="7.13555">
        <ele>875</ele>
        <time>2023-05-06T12:35:06Z</time>
      </trkpt>
      <trkpt lat="47.86016" lon="7.13549">
        <ele>875</ele>
        <time>2023-05-06T12:35:09Z</time>
      </trkpt>
      <trkpt lat="47.86016" lon="7.13543">
        <ele>875</ele>
        <time>2023-05-06T12:35:13Z</time>
      </trkpt>
      <trkpt lat="47.86017" lon="7.13536">
        <ele>875</ele>
        <time>2023-05-06T12:35:17Z</time>
      </trkpt>
      <trkpt lat="47.86018" lon="7.13527">
        <ele>875</ele>
        <time>2023-05-06T12:35:25Z</time>
      </trkpt>
      <trkpt lat="47.86018" lon="7.1352">
        <ele>875</ele>
        <time>2023-05-06T12:35:29Z</time>
      </trkpt>
      <trkpt lat="47.86021" lon="7.13516">
        <ele>874</ele>
        <time>2023-05-06T12:35:34Z</time>
      </trkpt>
      <trkpt lat="47.86021" lon="7.13509">
        <ele>873</ele>
        <time>2023-05-06T12:35:39Z</time>
      </trkpt>
      <trkpt lat="47.8602" lon="7.13501">
        <ele>874</ele>
        <time>2023-05-06T12:35:47Z</time>
      </trkpt>
      <trkpt lat="47.86022" lon="7.13495">
        <ele>873</ele>
        <time>2023-05-06T12:35:52Z</time>
      </trkpt>
      <trkpt lat="47.86023" lon="7.1349">
        <ele>874</ele>
        <time>2023-05-06T12:36:04Z</time>
      </trkpt>
      <trkpt lat="47.86026" lon="7.13483">
        <ele>875</ele>
        <time>2023-05-06T12:36:22Z</time>
      </trkpt>
      <trkpt lat="47.86031" lon="7.13475">
        <ele>873</ele>
        <time>2023-05-06T12:36:45Z</time>
      </trkpt>
      <trkpt lat="47.86032" lon="7.13468">
        <ele>872</ele>
        <time>2023-05-06T12:36:50Z</time>
      </trkpt>
      <trkpt lat="47.86035" lon="7.13461">
        <ele>873</ele>
        <time>2023-05-06T12:36:55Z</time>
      </trkpt>
      <trkpt lat="47.86037" lon="7.13454">
        <ele>872</ele>
        <time>2023-05-06T12:37:00Z</time>
      </trkpt>
      <trkpt lat="47.86036" lon="7.13444">
        <ele>874</ele>
        <time>2023-05-06T12:37:08Z</time>
      </trkpt>
      <trkpt lat="47.86041" lon="7.13433">
        <ele>873</ele>
        <time>2023-05-06T12:37:20Z</time>
      </trkpt>
      <trkpt lat="47.86042" lon="7.13426">
        <ele>873</ele>
        <time>2023-05-06T12:37:24Z</time>
      </trkpt>
      <trkpt lat="47.86044" lon="7.13411">
        <ele>874</ele>
        <time>2023-05-06T12:37:38Z</time>
      </trkpt>
      <trkpt lat="47.86047" lon="7.13404">
        <ele>874</ele>
        <time>2023-05-06T12:37:43Z</time>
      </trkpt>
      <trkpt lat="47.86047" lon="7.13397">
        <ele>874</ele>
        <time>2023-05-06T12:37:47Z</time>
      </trkpt>
      <trkpt lat="47.86051" lon="7.13387">
        <ele>875</ele>
        <time>2023-05-06T12:38:02Z</time>
      </trkpt>
      <trkpt lat="47.86058" lon="7.13374">
        <ele>875</ele>
        <time>2023-05-06T12:38:14Z</time>
      </trkpt>
      <trkpt lat="47.86065" lon="7.1336">
        <ele>873</ele>
        <time>2023-05-06T12:38:32Z</time>
      </trkpt>
      <trkpt lat="47.86065" lon="7.13352">
        <ele>873</ele>
        <time>2023-05-06T12:38:39Z</time>
      </trkpt>
      <trkpt lat="47.86067" lon="7.13345">
        <ele>873</ele>
        <time>2023-05-06T12:38:47Z</time>
      </trkpt>
      <trkpt lat="47.8607" lon="7.13333">
        <ele>875</ele>
        <time>2023-05-06T12:38:58Z</time>
      </trkpt>
      <trkpt lat="47.86075" lon="7.13328">
        <ele>875</ele>
        <time>2023-05-06T12:39:05Z</time>
      </trkpt>
      <trkpt lat="47.86077" lon="7.13322">
        <ele>875</ele>
        <time>2023-05-06T12:39:09Z</time>
      </trkpt>
      <trkpt lat="47.86078" lon="7.13315">
        <ele>875</ele>
        <time>2023-05-06T12:39:13Z</time>
      </trkpt>
      <trkpt lat="47.86081" lon="7.133">
        <ele>874</ele>
        <time>2023-05-06T12:39:24Z</time>
      </trkpt>
      <trkpt lat="47.86082" lon="7.13303">
        <ele>875</ele>
        <time>2023-05-06T12:39:58Z</time>
      </trkpt>
      <trkpt lat="47.86087" lon="7.13302">
        <ele>875</ele>
        <time>2023-05-06T12:40:01Z</time>
      </trkpt>
      <trkpt lat="47.86093" lon="7.13299">
        <ele>876</ele>
        <time>2023-05-06T12:40:10Z</time>
      </trkpt>
      <trkpt lat="47.86098" lon="7.1331">
        <ele>873</ele>
        <time>2023-05-06T12:40:27Z</time>
      </trkpt>
      <trkpt lat="47.86102" lon="7.13311">
        <ele>871</ele>
        <time>2023-05-06T12:40:35Z</time>
      </trkpt>
      <trkpt lat="47.86107" lon="7.13311">
        <ele>871</ele>
        <time>2023-05-06T12:40:43Z</time>
      </trkpt>
      <trkpt lat="47.86111" lon="7.13308">
        <ele>870</ele>
        <time>2023-05-06T12:40:46Z</time>
      </trkpt>
      <trkpt lat="47.86128" lon="7.13305">
        <ele>870</ele>
        <time>2023-05-06T12:41:07Z</time>
      </trkpt>
      <trkpt lat="47.86144" lon="7.13307">
        <ele>871</ele>
        <time>2023-05-06T12:41:22Z</time>
      </trkpt>
      <trkpt lat="47.86148" lon="7.13309">
        <ele>871</ele>
        <time>2023-05-06T12:41:27Z</time>
      </trkpt>
      <trkpt lat="47.86155" lon="7.1331">
        <ele>872</ele>
        <time>2023-05-06T12:41:34Z</time>
      </trkpt>
      <trkpt lat="47.8616" lon="7.13309">
        <ele>872</ele>
        <time>2023-05-06T12:41:38Z</time>
      </trkpt>
      <trkpt lat="47.86165" lon="7.13307">
        <ele>872</ele>
        <time>2023-05-06T12:41:42Z</time>
      </trkpt>
      <trkpt lat="47.86178" lon="7.13306">
        <ele>871</ele>
        <time>2023-05-06T12:41:53Z</time>
      </trkpt>
      <trkpt lat="47.86187" lon="7.13305">
        <ele>871</ele>
        <time>2023-05-06T12:42:00Z</time>
      </trkpt>
      <trkpt lat="47.86191" lon="7.13307">
        <ele>871</ele>
        <time>2023-05-06T12:42:05Z</time>
      </trkpt>
      <trkpt lat="47.86196" lon="7.13306">
        <ele>871</ele>
        <time>2023-05-06T12:42:17Z</time>
      </trkpt>
      <trkpt lat="47.86201" lon="7.13305">
        <ele>871</ele>
        <time>2023-05-06T12:42:23Z</time>
      </trkpt>
      <trkpt lat="47.86205" lon="7.13307">
        <ele>871</ele>
        <time>2023-05-06T12:42:28Z</time>
      </trkpt>
      <trkpt lat="47.86209" lon="7.13311">
        <ele>870</ele>
        <time>2023-05-06T12:42:33Z</time>
      </trkpt>
      <trkpt lat="47.86214" lon="7.13312">
        <ele>870</ele>
        <time>2023-05-06T12:42:43Z</time>
      </trkpt>
      <trkpt lat="47.8622" lon="7.1331">
        <ele>871</ele>
        <time>2023-05-06T12:43:00Z</time>
      </trkpt>
      <trkpt lat="47.8623" lon="7.13314">
        <ele>871</ele>
        <time>2023-05-06T12:43:09Z</time>
      </trkpt>
      <trkpt lat="47.86238" lon="7.13322">
        <ele>871</ele>
        <time>2023-05-06T12:43:16Z</time>
      </trkpt>
      <trkpt lat="47.86255" lon="7.13332">
        <ele>870</ele>
        <time>2023-05-06T12:43:31Z</time>
      </trkpt>
      <trkpt lat="47.86261" lon="7.13333">
        <ele>868</ele>
        <time>2023-05-06T12:43:36Z</time>
      </trkpt>
      <trkpt lat="47.8627" lon="7.13339">
        <ele>867</ele>
        <time>2023-05-06T12:43:43Z</time>
      </trkpt>
      <trkpt lat="47.86275" lon="7.1334">
        <ele>866</ele>
        <time>2023-05-06T12:43:47Z</time>
      </trkpt>
      <trkpt lat="47.86287" lon="7.13343">
        <ele>870</ele>
        <time>2023-05-06T12:44:12Z</time>
      </trkpt>
      <trkpt lat="47.86294" lon="7.13342">
        <ele>872</ele>
        <time>2023-05-06T12:44:24Z</time>
      </trkpt>
      <trkpt lat="47.86301" lon="7.13345">
        <ele>873</ele>
        <time>2023-05-06T12:44:33Z</time>
      </trkpt>
      <trkpt lat="47.86305" lon="7.13348">
        <ele>872</ele>
        <time>2023-05-06T12:44:38Z</time>
      </trkpt>
      <trkpt lat="47.8631" lon="7.13346">
        <ele>872</ele>
        <time>2023-05-06T12:44:42Z</time>
      </trkpt>
      <trkpt lat="47.86315" lon="7.13345">
        <ele>872</ele>
        <time>2023-05-06T12:44:46Z</time>
      </trkpt>
      <trkpt lat="47.86324" lon="7.13337">
        <ele>872</ele>
        <time>2023-05-06T12:44:57Z</time>
      </trkpt>
      <trkpt lat="47.86327" lon="7.13334">
        <ele>872</ele>
        <time>2023-05-06T12:45:01Z</time>
      </trkpt>
      <trkpt lat="47.86331" lon="7.13328">
        <ele>871</ele>
        <time>2023-05-06T12:45:08Z</time>
      </trkpt>
      <trkpt lat="47.8634" lon="7.1332">
        <ele>870</ele>
        <time>2023-05-06T12:45:16Z</time>
      </trkpt>
      <trkpt lat="47.86343" lon="7.13312">
        <ele>870</ele>
        <time>2023-05-06T12:45:21Z</time>
      </trkpt>
      <trkpt lat="47.86347" lon="7.13308">
        <ele>870</ele>
        <time>2023-05-06T12:45:24Z</time>
      </trkpt>
      <trkpt lat="47.8635" lon="7.13299">
        <ele>870</ele>
        <time>2023-05-06T12:45:31Z</time>
      </trkpt>
      <trkpt lat="47.86359" lon="7.13289">
        <ele>871</ele>
        <time>2023-05-06T12:45:49Z</time>
      </trkpt>
      <trkpt lat="47.86363" lon="7.13283">
        <ele>870</ele>
        <time>2023-05-06T12:45:55Z</time>
      </trkpt>
      <trkpt lat="47.86374" lon="7.13279">
        <ele>870</ele>
        <time>2023-05-06T12:46:02Z</time>
      </trkpt>
      <trkpt lat="47.86384" lon="7.13275">
        <ele>870</ele>
        <time>2023-05-06T12:46:10Z</time>
      </trkpt>
      <trkpt lat="47.86388" lon="7.13276">
        <ele>870</ele>
        <time>2023-05-06T12:46:14Z</time>
      </trkpt>
      <trkpt lat="47.86393" lon="7.13279">
        <ele>870</ele>
        <time>2023-05-06T12:46:18Z</time>
      </trkpt>
      <trkpt lat="47.86397" lon="7.13273">
        <ele>871</ele>
        <time>2023-05-06T12:46:27Z</time>
      </trkpt>
      <trkpt lat="47.86401" lon="7.1327">
        <ele>871</ele>
        <time>2023-05-06T12:46:31Z</time>
      </trkpt>
      <trkpt lat="47.86409" lon="7.13254">
        <ele>872</ele>
        <time>2023-05-06T12:46:43Z</time>
      </trkpt>
      <trkpt lat="47.86409" lon="7.13247">
        <ele>872</ele>
        <time>2023-05-06T12:46:47Z</time>
      </trkpt>
      <trkpt lat="47.86411" lon="7.1324">
        <ele>872</ele>
        <time>2023-05-06T12:46:51Z</time>
      </trkpt>
      <trkpt lat="47.86416" lon="7.13226">
        <ele>873</ele>
        <time>2023-05-06T12:47:02Z</time>
      </trkpt>
      <trkpt lat="47.8642" lon="7.13223">
        <ele>872</ele>
        <time>2023-05-06T12:47:06Z</time>
      </trkpt>
      <trkpt lat="47.86424" lon="7.13209">
        <ele>871</ele>
        <time>2023-05-06T12:47:14Z</time>
      </trkpt>
      <trkpt lat="47.86429" lon="7.13198">
        <ele>871</ele>
        <time>2023-05-06T12:47:23Z</time>
      </trkpt>
      <trkpt lat="47.8643" lon="7.13192">
        <ele>872</ele>
        <time>2023-05-06T12:47:27Z</time>
      </trkpt>
      <trkpt lat="47.86433" lon="7.13186">
        <ele>872</ele>
        <time>2023-05-06T12:47:31Z</time>
      </trkpt>
      <trkpt lat="47.86432" lon="7.13177">
        <ele>872</ele>
        <time>2023-05-06T12:47:39Z</time>
      </trkpt>
      <trkpt lat="47.86439" lon="7.13131">
        <ele>872</ele>
        <time>2023-05-06T12:48:03Z</time>
      </trkpt>
      <trkpt lat="47.86441" lon="7.13123">
        <ele>872</ele>
        <time>2023-05-06T12:48:09Z</time>
      </trkpt>
      <trkpt lat="47.86446" lon="7.1312">
        <ele>872</ele>
        <time>2023-05-06T12:48:12Z</time>
      </trkpt>
      <trkpt lat="47.86445" lon="7.13114">
        <ele>872</ele>
        <time>2023-05-06T12:48:17Z</time>
      </trkpt>
      <trkpt lat="47.86442" lon="7.131">
        <ele>873</ele>
        <time>2023-05-06T12:48:28Z</time>
      </trkpt>
      <trkpt lat="47.86443" lon="7.13093">
        <ele>873</ele>
        <time>2023-05-06T12:48:32Z</time>
      </trkpt>
      <trkpt lat="47.86443" lon="7.13086">
        <ele>873</ele>
        <time>2023-05-06T12:48:37Z</time>
      </trkpt>
      <trkpt lat="47.86442" lon="7.13074">
        <ele>873</ele>
        <time>2023-05-06T12:48:46Z</time>
      </trkpt>
      <trkpt lat="47.86436" lon="7.13072">
        <ele>874</ele>
        <time>2023-05-06T12:48:53Z</time>
      </trkpt>
      <trkpt lat="47.86433" lon="7.13066">
        <ele>876</ele>
        <time>2023-05-06T12:49:00Z</time>
      </trkpt>
      <trkpt lat="47.86438" lon="7.13059">
        <ele>876</ele>
        <time>2023-05-06T12:49:08Z</time>
      </trkpt>
      <trkpt lat="47.86443" lon="7.13058">
        <ele>876</ele>
        <time>2023-05-06T12:49:12Z</time>
      </trkpt>
      <trkpt lat="47.86447" lon="7.13056">
        <ele>874</ele>
        <time>2023-05-06T12:49:17Z</time>
      </trkpt>
      <trkpt lat="47.86451" lon="7.13048">
        <ele>873</ele>
        <time>2023-05-06T12:49:28Z</time>
      </trkpt>
      <trkpt lat="47.86452" lon="7.13041">
        <ele>873</ele>
        <time>2023-05-06T12:49:32Z</time>
      </trkpt>
      <trkpt lat="47.86451" lon="7.13027">
        <ele>873</ele>
        <time>2023-05-06T12:49:39Z</time>
      </trkpt>
      <trkpt lat="47.86454" lon="7.1302">
        <ele>873</ele>
        <time>2023-05-06T12:49:43Z</time>
      </trkpt>
      <trkpt lat="47.86458" lon="7.13016">
        <ele>873</ele>
        <time>2023-05-06T12:49:46Z</time>
      </trkpt>
      <trkpt lat="47.86462" lon="7.1301">
        <ele>873</ele>
        <time>2023-05-06T12:49:50Z</time>
      </trkpt>
      <trkpt lat="47.86468" lon="7.13011">
        <ele>872</ele>
        <time>2023-05-06T12:49:59Z</time>
      </trkpt>
      <trkpt lat="47.86472" lon="7.13008">
        <ele>872</ele>
        <time>2023-05-06T12:50:04Z</time>
      </trkpt>
      <trkpt lat="47.86478" lon="7.1301">
        <ele>872</ele>
        <time>2023-05-06T12:50:09Z</time>
      </trkpt>
      <trkpt lat="47.86484" lon="7.13005">
        <ele>872</ele>
        <time>2023-05-06T12:50:21Z</time>
      </trkpt>
      <trkpt lat="47.86487" lon="7.13">
        <ele>871</ele>
        <time>2023-05-06T12:50:24Z</time>
      </trkpt>
      <trkpt lat="47.86491" lon="7.13002">
        <ele>871</ele>
        <time>2023-05-06T12:50:27Z</time>
      </trkpt>
      <trkpt lat="47.86491" lon="7.12994">
        <ele>871</ele>
        <time>2023-05-06T12:50:34Z</time>
      </trkpt>
      <trkpt lat="47.86498" lon="7.1299">
        <ele>872</ele>
        <time>2023-05-06T12:50:41Z</time>
      </trkpt>
      <trkpt lat="47.86502" lon="7.12986">
        <ele>871</ele>
        <time>2023-05-06T12:50:51Z</time>
      </trkpt>
      <trkpt lat="47.86502" lon="7.12979">
        <ele>871</ele>
        <time>2023-05-06T12:50:57Z</time>
      </trkpt>
      <trkpt lat="47.86502" lon="7.12968">
        <ele>873</ele>
        <time>2023-05-06T12:51:05Z</time>
      </trkpt>
      <trkpt lat="47.86508" lon="7.12964">
        <ele>873</ele>
        <time>2023-05-06T12:51:16Z</time>
      </trkpt>
      <trkpt lat="47.86514" lon="7.12954">
        <ele>873</ele>
        <time>2023-05-06T12:51:24Z</time>
      </trkpt>
      <trkpt lat="47.86518" lon="7.12951">
        <ele>873</ele>
        <time>2023-05-06T12:51:29Z</time>
      </trkpt>
      <trkpt lat="47.86522" lon="7.12948">
        <ele>873</ele>
        <time>2023-05-06T12:51:36Z</time>
      </trkpt>
      <trkpt lat="47.86523" lon="7.12941">
        <ele>873</ele>
        <time>2023-05-06T12:51:48Z</time>
      </trkpt>
      <trkpt lat="47.86525" lon="7.12934">
        <ele>872</ele>
        <time>2023-05-06T12:51:53Z</time>
      </trkpt>
      <trkpt lat="47.86527" lon="7.12926">
        <ele>873</ele>
        <time>2023-05-06T12:52:01Z</time>
      </trkpt>
      <trkpt lat="47.86523" lon="7.12901">
        <ele>873</ele>
        <time>2023-05-06T12:52:16Z</time>
      </trkpt>
      <trkpt lat="47.86522" lon="7.12895">
        <ele>873</ele>
        <time>2023-05-06T12:52:20Z</time>
      </trkpt>
      <trkpt lat="47.86519" lon="7.1289">
        <ele>874</ele>
        <time>2023-05-06T12:52:25Z</time>
      </trkpt>
      <trkpt lat="47.86513" lon="7.12886">
        <ele>874</ele>
        <time>2023-05-06T12:52:35Z</time>
      </trkpt>
      <trkpt lat="47.86511" lon="7.12869">
        <ele>872</ele>
        <time>2023-05-06T12:52:54Z</time>
      </trkpt>
      <trkpt lat="47.86506" lon="7.12864">
        <ele>874</ele>
        <time>2023-05-06T12:53:19Z</time>
      </trkpt>
      <trkpt lat="47.86508" lon="7.12851">
        <ele>874</ele>
        <time>2023-05-06T12:53:40Z</time>
      </trkpt>
      <trkpt lat="47.86508" lon="7.12837">
        <ele>874</ele>
        <time>2023-05-06T12:53:48Z</time>
      </trkpt>
      <trkpt lat="47.86507" lon="7.12824">
        <ele>874</ele>
        <time>2023-05-06T12:53:56Z</time>
      </trkpt>
      <trkpt lat="47.86504" lon="7.12811">
        <ele>873</ele>
        <time>2023-05-06T12:54:04Z</time>
      </trkpt>
      <trkpt lat="47.86502" lon="7.12802">
        <ele>873</ele>
        <time>2023-05-06T12:54:11Z</time>
      </trkpt>
      <trkpt lat="47.86505" lon="7.12794">
        <ele>872</ele>
        <time>2023-05-06T12:54:17Z</time>
      </trkpt>
      <trkpt lat="47.86505" lon="7.12787">
        <ele>872</ele>
        <time>2023-05-06T12:54:20Z</time>
      </trkpt>
      <trkpt lat="47.86509" lon="7.12781">
        <ele>872</ele>
        <time>2023-05-06T12:54:24Z</time>
      </trkpt>
      <trkpt lat="47.86514" lon="7.1278">
        <ele>872</ele>
        <time>2023-05-06T12:54:27Z</time>
      </trkpt>
      <trkpt lat="47.86528" lon="7.12781">
        <ele>870</ele>
        <time>2023-05-06T12:54:37Z</time>
      </trkpt>
      <trkpt lat="47.86538" lon="7.1278">
        <ele>869</ele>
        <time>2023-05-06T12:54:44Z</time>
      </trkpt>
      <trkpt lat="47.86541" lon="7.12773">
        <ele>867</ele>
        <time>2023-05-06T12:54:51Z</time>
      </trkpt>
      <trkpt lat="47.86543" lon="7.12766">
        <ele>868</ele>
        <time>2023-05-06T12:54:57Z</time>
      </trkpt>
      <trkpt lat="47.86552" lon="7.12758">
        <ele>869</ele>
        <time>2023-05-06T12:55:09Z</time>
      </trkpt>
      <trkpt lat="47.86563" lon="7.12753">
        <ele>870</ele>
        <time>2023-05-06T12:55:17Z</time>
      </trkpt>
      <trkpt lat="47.86569" lon="7.1275">
        <ele>871</ele>
        <time>2023-05-06T12:55:31Z</time>
      </trkpt>
      <trkpt lat="47.86581" lon="7.12749">
        <ele>868</ele>
        <time>2023-05-06T12:55:46Z</time>
      </trkpt>
      <trkpt lat="47.86588" lon="7.12744">
        <ele>868</ele>
        <time>2023-05-06T12:55:55Z</time>
      </trkpt>
      <trkpt lat="47.86596" lon="7.1274">
        <ele>868</ele>
        <time>2023-05-06T12:56:03Z</time>
      </trkpt>
      <trkpt lat="47.86608" lon="7.12727">
        <ele>871</ele>
        <time>2023-05-06T12:56:31Z</time>
      </trkpt>
      <trkpt lat="47.86611" lon="7.12721">
        <ele>871</ele>
        <time>2023-05-06T12:56:37Z</time>
      </trkpt>
      <trkpt lat="47.86616" lon="7.12712">
        <ele>871</ele>
        <time>2023-05-06T12:56:46Z</time>
      </trkpt>
      <trkpt lat="47.86619" lon="7.12706">
        <ele>871</ele>
        <time>2023-05-06T12:56:50Z</time>
      </trkpt>
      <trkpt lat="47.8662" lon="7.127">
        <ele>871</ele>
        <time>2023-05-06T12:56:54Z</time>
      </trkpt>
      <trkpt lat="47.86623" lon="7.12694">
        <ele>871</ele>
        <time>2023-05-06T12:56:58Z</time>
      </trkpt>
      <trkpt lat="47.86623" lon="7.12687">
        <ele>870</ele>
        <time>2023-05-06T12:57:02Z</time>
      </trkpt>
      <trkpt lat="47.86626" lon="7.12679">
        <ele>869</ele>
        <time>2023-05-06T12:57:06Z</time>
      </trkpt>
      <trkpt lat="47.86628" lon="7.12673">
        <ele>869</ele>
        <time>2023-05-06T12:57:11Z</time>
      </trkpt>
      <trkpt lat="47.86627" lon="7.12665">
        <ele>868</ele>
        <time>2023-05-06T12:57:15Z</time>
      </trkpt>
      <trkpt lat="47.86627" lon="7.12657">
        <ele>869</ele>
        <time>2023-05-06T12:57:19Z</time>
      </trkpt>
      <trkpt lat="47.86632" lon="7.1265">
        <ele>869</ele>
        <time>2023-05-06T12:57:22Z</time>
      </trkpt>
      <trkpt lat="47.86633" lon="7.12645">
        <ele>869</ele>
        <time>2023-05-06T12:57:25Z</time>
      </trkpt>
      <trkpt lat="47.86632" lon="7.12638">
        <ele>869</ele>
        <time>2023-05-06T12:57:29Z</time>
      </trkpt>
      <trkpt lat="47.86635" lon="7.12631">
        <ele>870</ele>
        <time>2023-05-06T12:57:35Z</time>
      </trkpt>
      <trkpt lat="47.86637" lon="7.12625">
        <ele>870</ele>
        <time>2023-05-06T12:57:39Z</time>
      </trkpt>
      <trkpt lat="47.86639" lon="7.12618">
        <ele>870</ele>
        <time>2023-05-06T12:57:43Z</time>
      </trkpt>
      <trkpt lat="47.86641" lon="7.12611">
        <ele>870</ele>
        <time>2023-05-06T12:57:48Z</time>
      </trkpt>
      <trkpt lat="47.86644" lon="7.12606">
        <ele>869</ele>
        <time>2023-05-06T12:57:52Z</time>
      </trkpt>
      <trkpt lat="47.86647" lon="7.12599">
        <ele>868</ele>
        <time>2023-05-06T12:57:56Z</time>
      </trkpt>
      <trkpt lat="47.86658" lon="7.12575">
        <ele>869</ele>
        <time>2023-05-06T12:58:10Z</time>
      </trkpt>
      <trkpt lat="47.86661" lon="7.12568">
        <ele>869</ele>
        <time>2023-05-06T12:58:14Z</time>
      </trkpt>
      <trkpt lat="47.86662" lon="7.12561">
        <ele>869</ele>
        <time>2023-05-06T12:58:18Z</time>
      </trkpt>
      <trkpt lat="47.86666" lon="7.12556">
        <ele>869</ele>
        <time>2023-05-06T12:58:23Z</time>
      </trkpt>
      <trkpt lat="47.86669" lon="7.1255">
        <ele>870</ele>
        <time>2023-05-06T12:58:28Z</time>
      </trkpt>
      <trkpt lat="47.86673" lon="7.12546">
        <ele>870</ele>
        <time>2023-05-06T12:58:32Z</time>
      </trkpt>
      <trkpt lat="47.86676" lon="7.12541">
        <ele>871</ele>
        <time>2023-05-06T12:58:36Z</time>
      </trkpt>
      <trkpt lat="47.86681" lon="7.12537">
        <ele>871</ele>
        <time>2023-05-06T12:58:39Z</time>
      </trkpt>
      <trkpt lat="47.86683" lon="7.12532">
        <ele>870</ele>
        <time>2023-05-06T12:58:43Z</time>
      </trkpt>
      <trkpt lat="47.86689" lon="7.12521">
        <ele>870</ele>
        <time>2023-05-06T12:58:51Z</time>
      </trkpt>
      <trkpt lat="47.8669" lon="7.12515">
        <ele>870</ele>
        <time>2023-05-06T12:58:55Z</time>
      </trkpt>
      <trkpt lat="47.86694" lon="7.12507">
        <ele>870</ele>
        <time>2023-05-06T12:59:02Z</time>
      </trkpt>
      <trkpt lat="47.86696" lon="7.12501">
        <ele>870</ele>
        <time>2023-05-06T12:59:06Z</time>
      </trkpt>
      <trkpt lat="47.86699" lon="7.12494">
        <ele>871</ele>
        <time>2023-05-06T12:59:11Z</time>
      </trkpt>
      <trkpt lat="47.86702" lon="7.12489">
        <ele>871</ele>
        <time>2023-05-06T12:59:15Z</time>
      </trkpt>
      <trkpt lat="47.86706" lon="7.12478">
        <ele>871</ele>
        <time>2023-05-06T12:59:23Z</time>
      </trkpt>
      <trkpt lat="47.8671" lon="7.12474">
        <ele>871</ele>
        <time>2023-05-06T12:59:39Z</time>
      </trkpt>
      <trkpt lat="47.86711" lon="7.12468">
        <ele>871</ele>
        <time>2023-05-06T12:59:46Z</time>
      </trkpt>
      <trkpt lat="47.86715" lon="7.12456">
        <ele>871</ele>
        <time>2023-05-06T12:59:54Z</time>
      </trkpt>
      <trkpt lat="47.86718" lon="7.12452">
        <ele>871</ele>
        <time>2023-05-06T12:59:58Z</time>
      </trkpt>
      <trkpt lat="47.86723" lon="7.12449">
        <ele>871</ele>
        <time>2023-05-06T13:00:02Z</time>
      </trkpt>
      <trkpt lat="47.86727" lon="7.12451">
        <ele>871</ele>
        <time>2023-05-06T13:00:05Z</time>
      </trkpt>
      <trkpt lat="47.86732" lon="7.1245">
        <ele>871</ele>
        <time>2023-05-06T13:00:09Z</time>
      </trkpt>
      <trkpt lat="47.86736" lon="7.12447">
        <ele>870</ele>
        <time>2023-05-06T13:00:13Z</time>
      </trkpt>
      <trkpt lat="47.86744" lon="7.1244">
        <ele>870</ele>
        <time>2023-05-06T13:00:21Z</time>
      </trkpt>
      <trkpt lat="47.86747" lon="7.12435">
        <ele>870</ele>
        <time>2023-05-06T13:00:25Z</time>
      </trkpt>
      <trkpt lat="47.86758" lon="7.12431">
        <ele>870</ele>
        <time>2023-05-06T13:00:34Z</time>
      </trkpt>
      <trkpt lat="47.86767" lon="7.12418">
        <ele>869</ele>
        <time>2023-05-06T13:00:44Z</time>
      </trkpt>
      <trkpt lat="47.86769" lon="7.12411">
        <ele>869</ele>
        <time>2023-05-06T13:00:47Z</time>
      </trkpt>
      <trkpt lat="47.8677" lon="7.12404">
        <ele>868</ele>
        <time>2023-05-06T13:00:51Z</time>
      </trkpt>
      <trkpt lat="47.86773" lon="7.12399">
        <ele>869</ele>
        <time>2023-05-06T13:00:55Z</time>
      </trkpt>
      <trkpt lat="47.86776" lon="7.12394">
        <ele>868</ele>
        <time>2023-05-06T13:00:59Z</time>
      </trkpt>
      <trkpt lat="47.86779" lon="7.12389">
        <ele>868</ele>
        <time>2023-05-06T13:01:03Z</time>
      </trkpt>
      <trkpt lat="47.8678" lon="7.12381">
        <ele>869</ele>
        <time>2023-05-06T13:01:07Z</time>
      </trkpt>
      <trkpt lat="47.86783" lon="7.12376">
        <ele>869</ele>
        <time>2023-05-06T13:01:12Z</time>
      </trkpt>
      <trkpt lat="47.86795" lon="7.12354">
        <ele>870</ele>
        <time>2023-05-06T13:01:31Z</time>
      </trkpt>
      <trkpt lat="47.86798" lon="7.12348">
        <ele>870</ele>
        <time>2023-05-06T13:01:35Z</time>
      </trkpt>
      <trkpt lat="47.868" lon="7.12342">
        <ele>870</ele>
        <time>2023-05-06T13:01:39Z</time>
      </trkpt>
      <trkpt lat="47.86804" lon="7.12339">
        <ele>869</ele>
        <time>2023-05-06T13:01:44Z</time>
      </trkpt>
      <trkpt lat="47.86807" lon="7.12332">
        <ele>868</ele>
        <time>2023-05-06T13:01:48Z</time>
      </trkpt>
      <trkpt lat="47.86813" lon="7.12324">
        <ele>867</ele>
        <time>2023-05-06T13:01:55Z</time>
      </trkpt>
      <trkpt lat="47.86824" lon="7.12302">
        <ele>867</ele>
        <time>2023-05-06T13:02:12Z</time>
      </trkpt>
      <trkpt lat="47.8683" lon="7.12292">
        <ele>866</ele>
        <time>2023-05-06T13:02:20Z</time>
      </trkpt>
      <trkpt lat="47.86832" lon="7.12286">
        <ele>866</ele>
        <time>2023-05-06T13:02:24Z</time>
      </trkpt>
      <trkpt lat="47.86837" lon="7.12285">
        <ele>867</ele>
        <time>2023-05-06T13:02:29Z</time>
      </trkpt>
      <trkpt lat="47.8685" lon="7.12285">
        <ele>869</ele>
        <time>2023-05-06T13:02:44Z</time>
      </trkpt>
      <trkpt lat="47.86873" lon="7.12271">
        <ele>872</ele>
        <time>2023-05-06T13:03:15Z</time>
      </trkpt>
      <trkpt lat="47.86878" lon="7.12272">
        <ele>873</ele>
        <time>2023-05-06T13:03:21Z</time>
      </trkpt>
      <trkpt lat="47.86899" lon="7.12264">
        <ele>878</ele>
        <time>2023-05-06T13:03:56Z</time>
      </trkpt>
      <trkpt lat="47.86923" lon="7.12272">
        <ele>884</ele>
        <time>2023-05-06T13:04:29Z</time>
      </trkpt>
      <trkpt lat="47.86928" lon="7.12273">
        <ele>885</ele>
        <time>2023-05-06T13:04:36Z</time>
      </trkpt>
      <trkpt lat="47.86933" lon="7.12277">
        <ele>886</ele>
        <time>2023-05-06T13:04:44Z</time>
      </trkpt>
      <trkpt lat="47.86946" lon="7.12293">
        <ele>890</ele>
        <time>2023-05-06T13:05:25Z</time>
      </trkpt>
      <trkpt lat="47.86951" lon="7.12297">
        <ele>891</ele>
        <time>2023-05-06T13:05:31Z</time>
      </trkpt>
      <trkpt lat="47.86957" lon="7.1231">
        <ele>893</ele>
        <time>2023-05-06T13:05:45Z</time>
      </trkpt>
      <trkpt lat="47.8698" lon="7.12337">
        <ele>900</ele>
        <time>2023-05-06T13:06:25Z</time>
      </trkpt>
      <trkpt lat="47.86993" lon="7.12347">
        <ele>902</ele>
        <time>2023-05-06T13:06:42Z</time>
      </trkpt>
      <trkpt lat="47.86996" lon="7.12352">
        <ele>903</ele>
        <time>2023-05-06T13:06:47Z</time>
      </trkpt>
      <trkpt lat="47.87002" lon="7.12359">
        <ele>904</ele>
        <time>2023-05-06T13:06:54Z</time>
      </trkpt>
      <trkpt lat="47.87006" lon="7.12365">
        <ele>905</ele>
        <time>2023-05-06T13:07:00Z</time>
      </trkpt>
      <trkpt lat="47.8701" lon="7.1237">
        <ele>906</ele>
        <time>2023-05-06T13:07:05Z</time>
      </trkpt>
      <trkpt lat="47.87024" lon="7.12393">
        <ele>908</ele>
        <time>2023-05-06T13:07:25Z</time>
      </trkpt>
      <trkpt lat="47.87027" lon="7.12401">
        <ele>908</ele>
        <time>2023-05-06T13:07:32Z</time>
      </trkpt>
      <trkpt lat="47.87029" lon="7.12407">
        <ele>908</ele>
        <time>2023-05-06T13:07:36Z</time>
      </trkpt>
      <trkpt lat="47.8703" lon="7.12413">
        <ele>908</ele>
        <time>2023-05-06T13:07:40Z</time>
      </trkpt>
      <trkpt lat="47.8703" lon="7.12422">
        <ele>909</ele>
        <time>2023-05-06T13:07:48Z</time>
      </trkpt>
      <trkpt lat="47.87031" lon="7.12429">
        <ele>910</ele>
        <time>2023-05-06T13:07:53Z</time>
      </trkpt>
      <trkpt lat="47.87031" lon="7.12437">
        <ele>912</ele>
        <time>2023-05-06T13:08:01Z</time>
      </trkpt>
      <trkpt lat="47.87033" lon="7.12444">
        <ele>912</ele>
        <time>2023-05-06T13:08:06Z</time>
      </trkpt>
      <trkpt lat="47.87034" lon="7.12455">
        <ele>914</ele>
        <time>2023-05-06T13:08:15Z</time>
      </trkpt>
      <trkpt lat="47.87024" lon="7.1247">
        <ele>915</ele>
        <time>2023-05-06T13:08:29Z</time>
      </trkpt>
      <trkpt lat="47.87021" lon="7.12478">
        <ele>916</ele>
        <time>2023-05-06T13:08:35Z</time>
      </trkpt>
      <trkpt lat="47.87021" lon="7.12489">
        <ele>917</ele>
        <time>2023-05-06T13:08:46Z</time>
      </trkpt>
      <trkpt lat="47.8702" lon="7.12503">
        <ele>916</ele>
        <time>2023-05-06T13:08:55Z</time>
      </trkpt>
      <trkpt lat="47.87023" lon="7.12508">
        <ele>916</ele>
        <time>2023-05-06T13:09:05Z</time>
      </trkpt>
      <trkpt lat="47.87029" lon="7.12509">
        <ele>919</ele>
        <time>2023-05-06T13:09:17Z</time>
      </trkpt>
      <trkpt lat="47.87033" lon="7.12505">
        <ele>922</ele>
        <time>2023-05-06T13:09:35Z</time>
      </trkpt>
      <trkpt lat="47.87032" lon="7.12497">
        <ele>927</ele>
        <time>2023-05-06T13:10:11Z</time>
      </trkpt>
      <trkpt lat="47.87037" lon="7.12496">
        <ele>929</ele>
        <time>2023-05-06T13:10:21Z</time>
      </trkpt>
      <trkpt lat="47.87043" lon="7.12493">
        <ele>931</ele>
        <time>2023-05-06T13:10:38Z</time>
      </trkpt>
      <trkpt lat="47.87025" lon="7.12461">
        <ele>910</ele>
        <time>2023-05-06T13:16:33Z</time>
      </trkpt>
      <trkpt lat="47.87026" lon="7.12459">
        <ele>910</ele>
        <time>2023-05-06T13:16:34Z</time>
      </trkpt>
      <trkpt lat="47.87032" lon="7.12461">
        <ele>909</ele>
        <time>2023-05-06T13:16:44Z</time>
      </trkpt>
      <trkpt lat="47.87039" lon="7.12465">
        <ele>907</ele>
        <time>2023-05-06T13:16:55Z</time>
      </trkpt>
      <trkpt lat="47.87051" lon="7.12476">
        <ele>903</ele>
        <time>2023-05-06T13:17:11Z</time>
      </trkpt>
      <trkpt lat="47.87068" lon="7.12501">
        <ele>897</ele>
        <time>2023-05-06T13:17:35Z</time>
      </trkpt>
      <trkpt lat="47.87072" lon="7.12504">
        <ele>897</ele>
        <time>2023-05-06T13:17:39Z</time>
      </trkpt>
      <trkpt lat="47.87076" lon="7.12512">
        <ele>895</ele>
        <time>2023-05-06T13:17:46Z</time>
      </trkpt>
      <trkpt lat="47.8708" lon="7.12518">
        <ele>893</ele>
        <time>2023-05-06T13:17:51Z</time>
      </trkpt>
      <trkpt lat="47.87086" lon="7.12528">
        <ele>891</ele>
        <time>2023-05-06T13:17:59Z</time>
      </trkpt>
      <trkpt lat="47.87093" lon="7.12545">
        <ele>888</ele>
        <time>2023-05-06T13:18:13Z</time>
      </trkpt>
      <trkpt lat="47.87098" lon="7.12551">
        <ele>886</ele>
        <time>2023-05-06T13:18:21Z</time>
      </trkpt>
      <trkpt lat="47.87106" lon="7.1256">
        <ele>883</ele>
        <time>2023-05-06T13:18:31Z</time>
      </trkpt>
      <trkpt lat="47.87108" lon="7.12567">
        <ele>882</ele>
        <time>2023-05-06T13:18:35Z</time>
      </trkpt>
      <trkpt lat="47.87119" lon="7.12581">
        <ele>880</ele>
        <time>2023-05-06T13:18:47Z</time>
      </trkpt>
      <trkpt lat="47.87123" lon="7.12586">
        <ele>880</ele>
        <time>2023-05-06T13:18:51Z</time>
      </trkpt>
      <trkpt lat="47.87135" lon="7.12599">
        <ele>877</ele>
        <time>2023-05-06T13:19:04Z</time>
      </trkpt>
      <trkpt lat="47.87156" lon="7.12637">
        <ele>875</ele>
        <time>2023-05-06T13:19:31Z</time>
      </trkpt>
      <trkpt lat="47.87157" lon="7.12643">
        <ele>874</ele>
        <time>2023-05-06T13:19:35Z</time>
      </trkpt>
      <trkpt lat="47.87161" lon="7.1265">
        <ele>874</ele>
        <time>2023-05-06T13:19:39Z</time>
      </trkpt>
      <trkpt lat="47.87163" lon="7.12659">
        <ele>874</ele>
        <time>2023-05-06T13:19:45Z</time>
      </trkpt>
      <trkpt lat="47.87166" lon="7.12664">
        <ele>873</ele>
        <time>2023-05-06T13:19:50Z</time>
      </trkpt>
      <trkpt lat="47.87167" lon="7.12671">
        <ele>873</ele>
        <time>2023-05-06T13:19:55Z</time>
      </trkpt>
      <trkpt lat="47.87178" lon="7.12693">
        <ele>871</ele>
        <time>2023-05-06T13:20:12Z</time>
      </trkpt>
      <trkpt lat="47.87189" lon="7.12707">
        <ele>871</ele>
        <time>2023-05-06T13:20:23Z</time>
      </trkpt>
      <trkpt lat="47.87194" lon="7.12714">
        <ele>870</ele>
        <time>2023-05-06T13:20:31Z</time>
      </trkpt>
      <trkpt lat="47.87227" lon="7.1274">
        <ele>865</ele>
        <time>2023-05-06T13:21:02Z</time>
      </trkpt>
      <trkpt lat="47.87236" lon="7.12745">
        <ele>864</ele>
        <time>2023-05-06T13:21:11Z</time>
      </trkpt>
      <trkpt lat="47.87246" lon="7.12744">
        <ele>863</ele>
        <time>2023-05-06T13:21:20Z</time>
      </trkpt>
      <trkpt lat="47.8725" lon="7.12741">
        <ele>862</ele>
        <time>2023-05-06T13:21:24Z</time>
      </trkpt>
      <trkpt lat="47.87255" lon="7.12741">
        <ele>861</ele>
        <time>2023-05-06T13:21:28Z</time>
      </trkpt>
      <trkpt lat="47.87264" lon="7.12736">
        <ele>860</ele>
        <time>2023-05-06T13:21:36Z</time>
      </trkpt>
      <trkpt lat="47.8727" lon="7.12738">
        <ele>860</ele>
        <time>2023-05-06T13:21:40Z</time>
      </trkpt>
      <trkpt lat="47.87274" lon="7.12741">
        <ele>860</ele>
        <time>2023-05-06T13:21:44Z</time>
      </trkpt>
      <trkpt lat="47.87277" lon="7.12745">
        <ele>860</ele>
        <time>2023-05-06T13:21:47Z</time>
      </trkpt>
      <trkpt lat="47.87312" lon="7.12776">
        <ele>859</ele>
        <time>2023-05-06T13:22:18Z</time>
      </trkpt>
      <trkpt lat="47.87316" lon="7.12771">
        <ele>859</ele>
        <time>2023-05-06T13:22:23Z</time>
      </trkpt>
      <trkpt lat="47.87318" lon="7.12757">
        <ele>858</ele>
        <time>2023-05-06T13:22:32Z</time>
      </trkpt>
      <trkpt lat="47.87317" lon="7.12743">
        <ele>857</ele>
        <time>2023-05-06T13:22:40Z</time>
      </trkpt>
      <trkpt lat="47.87318" lon="7.12689">
        <ele>853</ele>
        <time>2023-05-06T13:23:13Z</time>
      </trkpt>
      <trkpt lat="47.8732" lon="7.12668">
        <ele>852</ele>
        <time>2023-05-06T13:23:26Z</time>
      </trkpt>
      <trkpt lat="47.87322" lon="7.12661">
        <ele>851</ele>
        <time>2023-05-06T13:23:31Z</time>
      </trkpt>
      <trkpt lat="47.87327" lon="7.1265">
        <ele>850</ele>
        <time>2023-05-06T13:23:40Z</time>
      </trkpt>
      <trkpt lat="47.87332" lon="7.12647">
        <ele>849</ele>
        <time>2023-05-06T13:23:45Z</time>
      </trkpt>
      <trkpt lat="47.87336" lon="7.12647">
        <ele>848</ele>
        <time>2023-05-06T13:23:49Z</time>
      </trkpt>
      <trkpt lat="47.87355" lon="7.12638">
        <ele>847</ele>
        <time>2023-05-06T13:24:05Z</time>
      </trkpt>
      <trkpt lat="47.87366" lon="7.1264">
        <ele>846</ele>
        <time>2023-05-06T13:24:15Z</time>
      </trkpt>
      <trkpt lat="47.87399" lon="7.1266">
        <ele>845</ele>
        <time>2023-05-06T13:24:43Z</time>
      </trkpt>
      <trkpt lat="47.87408" lon="7.12667">
        <ele>844</ele>
        <time>2023-05-06T13:24:52Z</time>
      </trkpt>
      <trkpt lat="47.87414" lon="7.12672">
        <ele>844</ele>
        <time>2023-05-06T13:24:58Z</time>
      </trkpt>
      <trkpt lat="47.87419" lon="7.12674">
        <ele>843</ele>
        <time>2023-05-06T13:25:04Z</time>
      </trkpt>
      <trkpt lat="47.87453" lon="7.12686">
        <ele>839</ele>
        <time>2023-05-06T13:25:35Z</time>
      </trkpt>
      <trkpt lat="47.87472" lon="7.12693">
        <ele>836</ele>
        <time>2023-05-06T13:25:51Z</time>
      </trkpt>
      <trkpt lat="47.87496" lon="7.12708">
        <ele>834</ele>
        <time>2023-05-06T13:26:10Z</time>
      </trkpt>
      <trkpt lat="47.87531" lon="7.12724">
        <ele>829</ele>
        <time>2023-05-06T13:26:43Z</time>
      </trkpt>
      <trkpt lat="47.87536" lon="7.1273">
        <ele>830</ele>
        <time>2023-05-06T13:26:51Z</time>
      </trkpt>
      <trkpt lat="47.87541" lon="7.12733">
        <ele>832</ele>
        <time>2023-05-06T13:27:02Z</time>
      </trkpt>
      <trkpt lat="47.87545" lon="7.12734">
        <ele>832</ele>
        <time>2023-05-06T13:27:07Z</time>
      </trkpt>
      <trkpt lat="47.87549" lon="7.12739">
        <ele>832</ele>
        <time>2023-05-06T13:27:11Z</time>
      </trkpt>
      <trkpt lat="47.87553" lon="7.12741">
        <ele>832</ele>
        <time>2023-05-06T13:27:14Z</time>
      </trkpt>
      <trkpt lat="47.87558" lon="7.12741">
        <ele>832</ele>
        <time>2023-05-06T13:27:18Z</time>
      </trkpt>
      <trkpt lat="47.87563" lon="7.12739">
        <ele>832</ele>
        <time>2023-05-06T13:27:23Z</time>
      </trkpt>
      <trkpt lat="47.87566" lon="7.1273">
        <ele>833</ele>
        <time>2023-05-06T13:27:41Z</time>
      </trkpt>
      <trkpt lat="47.87569" lon="7.12718">
        <ele>833</ele>
        <time>2023-05-06T13:27:49Z</time>
      </trkpt>
      <trkpt lat="47.87573" lon="7.12713">
        <ele>834</ele>
        <time>2023-05-06T13:27:54Z</time>
      </trkpt>
      <trkpt lat="47.8758" lon="7.1271">
        <ele>835</ele>
        <time>2023-05-06T13:28:03Z</time>
      </trkpt>
      <trkpt lat="47.87585" lon="7.1271">
        <ele>836</ele>
        <time>2023-05-06T13:28:08Z</time>
      </trkpt>
      <trkpt lat="47.87592" lon="7.12711">
        <ele>837</ele>
        <time>2023-05-06T13:28:17Z</time>
      </trkpt>
      <trkpt lat="47.87602" lon="7.12712">
        <ele>838</ele>
        <time>2023-05-06T13:28:33Z</time>
      </trkpt>
      <trkpt lat="47.87617" lon="7.12713">
        <ele>841</ele>
        <time>2023-05-06T13:28:51Z</time>
      </trkpt>
      <trkpt lat="47.87619" lon="7.12719">
        <ele>842</ele>
        <time>2023-05-06T13:28:55Z</time>
      </trkpt>
      <trkpt lat="47.87621" lon="7.12726">
        <ele>842</ele>
        <time>2023-05-06T13:28:59Z</time>
      </trkpt>
      <trkpt lat="47.87623" lon="7.12732">
        <ele>842</ele>
        <time>2023-05-06T13:29:04Z</time>
      </trkpt>
      <trkpt lat="47.87626" lon="7.12737">
        <ele>842</ele>
        <time>2023-05-06T13:29:08Z</time>
      </trkpt>
      <trkpt lat="47.8763" lon="7.12738">
        <ele>842</ele>
        <time>2023-05-06T13:29:13Z</time>
      </trkpt>
      <trkpt lat="47.87635" lon="7.12737">
        <ele>843</ele>
        <time>2023-05-06T13:29:18Z</time>
      </trkpt>
      <trkpt lat="47.87651" lon="7.12749">
        <ele>845</ele>
        <time>2023-05-06T13:29:36Z</time>
      </trkpt>
      <trkpt lat="47.87662" lon="7.12754">
        <ele>847</ele>
        <time>2023-05-06T13:29:47Z</time>
      </trkpt>
      <trkpt lat="47.87666" lon="7.12758">
        <ele>847</ele>
        <time>2023-05-06T13:29:51Z</time>
      </trkpt>
      <trkpt lat="47.87671" lon="7.12758">
        <ele>848</ele>
        <time>2023-05-06T13:29:55Z</time>
      </trkpt>
      <trkpt lat="47.87677" lon="7.12758">
        <ele>850</ele>
        <time>2023-05-06T13:30:04Z</time>
      </trkpt>
      <trkpt lat="47.87701" lon="7.12751">
        <ele>855</ele>
        <time>2023-05-06T13:30:35Z</time>
      </trkpt>
      <trkpt lat="47.87711" lon="7.12743">
        <ele>855</ele>
        <time>2023-05-06T13:30:46Z</time>
      </trkpt>
      <trkpt lat="47.87715" lon="7.12737">
        <ele>856</ele>
        <time>2023-05-06T13:30:52Z</time>
      </trkpt>
      <trkpt lat="47.87717" lon="7.12732">
        <ele>856</ele>
        <time>2023-05-06T13:30:56Z</time>
      </trkpt>
      <trkpt lat="47.87734" lon="7.12723">
        <ele>854</ele>
        <time>2023-05-06T13:31:11Z</time>
      </trkpt>
      <trkpt lat="47.87743" lon="7.12719">
        <ele>854</ele>
        <time>2023-05-06T13:31:19Z</time>
      </trkpt>
      <trkpt lat="47.87748" lon="7.12718">
        <ele>855</ele>
        <time>2023-05-06T13:31:23Z</time>
      </trkpt>
      <trkpt lat="47.87761" lon="7.12729">
        <ele>857</ele>
        <time>2023-05-06T13:31:38Z</time>
      </trkpt>
      <trkpt lat="47.87765" lon="7.12732">
        <ele>857</ele>
        <time>2023-05-06T13:31:41Z</time>
      </trkpt>
      <trkpt lat="47.87776" lon="7.12735">
        <ele>858</ele>
        <time>2023-05-06T13:31:49Z</time>
      </trkpt>
      <trkpt lat="47.87788" lon="7.12735">
        <ele>860</ele>
        <time>2023-05-06T13:32:03Z</time>
      </trkpt>
      <trkpt lat="47.87808" lon="7.12745">
        <ele>864</ele>
        <time>2023-05-06T13:32:26Z</time>
      </trkpt>
      <trkpt lat="47.87812" lon="7.12745">
        <ele>865</ele>
        <time>2023-05-06T13:32:31Z</time>
      </trkpt>
      <trkpt lat="47.87827" lon="7.12754">
        <ele>867</ele>
        <time>2023-05-06T13:32:48Z</time>
      </trkpt>
      <trkpt lat="47.87833" lon="7.12757">
        <ele>867</ele>
        <time>2023-05-06T13:32:52Z</time>
      </trkpt>
      <trkpt lat="47.87835" lon="7.12762">
        <ele>867</ele>
        <time>2023-05-06T13:32:56Z</time>
      </trkpt>
      <trkpt lat="47.87839" lon="7.12765">
        <ele>867</ele>
        <time>2023-05-06T13:33:01Z</time>
      </trkpt>
      <trkpt lat="47.87844" lon="7.12767">
        <ele>867</ele>
        <time>2023-05-06T13:33:04Z</time>
      </trkpt>
      <trkpt lat="47.87855" lon="7.12766">
        <ele>871</ele>
        <time>2023-05-06T13:33:25Z</time>
      </trkpt>
      <trkpt lat="47.8786" lon="7.12768">
        <ele>873</ele>
        <time>2023-05-06T13:33:33Z</time>
      </trkpt>
      <trkpt lat="47.87864" lon="7.12772">
        <ele>874</ele>
        <time>2023-05-06T13:33:38Z</time>
      </trkpt>
      <trkpt lat="47.87872" lon="7.12776">
        <ele>875</ele>
        <time>2023-05-06T13:33:47Z</time>
      </trkpt>
      <trkpt lat="47.87876" lon="7.1278">
        <ele>876</ele>
        <time>2023-05-06T13:33:50Z</time>
      </trkpt>
      <trkpt lat="47.87881" lon="7.12784">
        <ele>876</ele>
        <time>2023-05-06T13:33:54Z</time>
      </trkpt>
      <trkpt lat="47.87888" lon="7.12786">
        <ele>876</ele>
        <time>2023-05-06T13:34:01Z</time>
      </trkpt>
      <trkpt lat="47.87891" lon="7.12789">
        <ele>877</ele>
        <time>2023-05-06T13:34:05Z</time>
      </trkpt>
      <trkpt lat="47.87897" lon="7.12796">
        <ele>878</ele>
        <time>2023-05-06T13:34:12Z</time>
      </trkpt>
      <trkpt lat="47.87903" lon="7.128">
        <ele>879</ele>
        <time>2023-05-06T13:34:22Z</time>
      </trkpt>
      <trkpt lat="47.87913" lon="7.12803">
        <ele>881</ele>
        <time>2023-05-06T13:34:33Z</time>
      </trkpt>
      <trkpt lat="47.87926" lon="7.12811">
        <ele>885</ele>
        <time>2023-05-06T13:34:52Z</time>
      </trkpt>
      <trkpt lat="47.87932" lon="7.12814">
        <ele>886</ele>
        <time>2023-05-06T13:35:00Z</time>
      </trkpt>
      <trkpt lat="47.87939" lon="7.12821">
        <ele>888</ele>
        <time>2023-05-06T13:35:10Z</time>
      </trkpt>
      <trkpt lat="47.87944" lon="7.12827">
        <ele>889</ele>
        <time>2023-05-06T13:35:19Z</time>
      </trkpt>
      <trkpt lat="47.8795" lon="7.12831">
        <ele>891</ele>
        <time>2023-05-06T13:35:29Z</time>
      </trkpt>
      <trkpt lat="47.87956" lon="7.1284">
        <ele>893</ele>
        <time>2023-05-06T13:35:39Z</time>
      </trkpt>
      <trkpt lat="47.87961" lon="7.12843">
        <ele>893</ele>
        <time>2023-05-06T13:35:45Z</time>
      </trkpt>
      <trkpt lat="47.87964" lon="7.12848">
        <ele>894</ele>
        <time>2023-05-06T13:35:50Z</time>
      </trkpt>
      <trkpt lat="47.87967" lon="7.12853">
        <ele>894</ele>
        <time>2023-05-06T13:35:54Z</time>
      </trkpt>
      <trkpt lat="47.87972" lon="7.12857">
        <ele>895</ele>
        <time>2023-05-06T13:36:01Z</time>
      </trkpt>
      <trkpt lat="47.87981" lon="7.12862">
        <ele>896</ele>
        <time>2023-05-06T13:36:11Z</time>
      </trkpt>
      <trkpt lat="47.87986" lon="7.12867">
        <ele>896</ele>
        <time>2023-05-06T13:36:16Z</time>
      </trkpt>
      <trkpt lat="47.88005" lon="7.1287">
        <ele>901</ele>
        <time>2023-05-06T13:36:45Z</time>
      </trkpt>
      <trkpt lat="47.88014" lon="7.12877">
        <ele>901</ele>
        <time>2023-05-06T13:36:56Z</time>
      </trkpt>
      <trkpt lat="47.88025" lon="7.12882">
        <ele>902</ele>
        <time>2023-05-06T13:37:05Z</time>
      </trkpt>
      <trkpt lat="47.88028" lon="7.12887">
        <ele>903</ele>
        <time>2023-05-06T13:37:13Z</time>
      </trkpt>
      <trkpt lat="47.88042" lon="7.12897">
        <ele>905</ele>
        <time>2023-05-06T13:37:31Z</time>
      </trkpt>
      <trkpt lat="47.88046" lon="7.12904">
        <ele>907</ele>
        <time>2023-05-06T13:37:45Z</time>
      </trkpt>
      <trkpt lat="47.88051" lon="7.12905">
        <ele>908</ele>
        <time>2023-05-06T13:37:51Z</time>
      </trkpt>
      <trkpt lat="47.88055" lon="7.12905">
        <ele>908</ele>
        <time>2023-05-06T13:37:55Z</time>
      </trkpt>
      <trkpt lat="47.8807" lon="7.12904">
        <ele>906</ele>
        <time>2023-05-06T13:38:10Z</time>
      </trkpt>
      <trkpt lat="47.8808" lon="7.12901">
        <ele>905</ele>
        <time>2023-05-06T13:38:19Z</time>
      </trkpt>
      <trkpt lat="47.88085" lon="7.12896">
        <ele>905</ele>
        <time>2023-05-06T13:38:26Z</time>
      </trkpt>
      <trkpt lat="47.88099" lon="7.12876">
        <ele>907</ele>
        <time>2023-05-06T13:38:46Z</time>
      </trkpt>
      <trkpt lat="47.88113" lon="7.1286">
        <ele>911</ele>
        <time>2023-05-06T13:39:12Z</time>
      </trkpt>
      <trkpt lat="47.88117" lon="7.12854">
        <ele>912</ele>
        <time>2023-05-06T13:39:19Z</time>
      </trkpt>
      <trkpt lat="47.88121" lon="7.12851">
        <ele>913</ele>
        <time>2023-05-06T13:39:25Z</time>
      </trkpt>
      <trkpt lat="47.88126" lon="7.1285">
        <ele>913</ele>
        <time>2023-05-06T13:39:31Z</time>
      </trkpt>
      <trkpt lat="47.88145" lon="7.12839">
        <ele>914</ele>
        <time>2023-05-06T13:39:52Z</time>
      </trkpt>
      <trkpt lat="47.88149" lon="7.12838">
        <ele>914</ele>
        <time>2023-05-06T13:39:57Z</time>
      </trkpt>
      <trkpt lat="47.88155" lon="7.12839">
        <ele>915</ele>
        <time>2023-05-06T13:40:03Z</time>
      </trkpt>
      <trkpt lat="47.88182" lon="7.12857">
        <ele>918</ele>
        <time>2023-05-06T13:40:34Z</time>
      </trkpt>
      <trkpt lat="47.88186" lon="7.1286">
        <ele>919</ele>
        <time>2023-05-06T13:40:38Z</time>
      </trkpt>
      <trkpt lat="47.88191" lon="7.12862">
        <ele>919</ele>
        <time>2023-05-06T13:40:42Z</time>
      </trkpt>
      <trkpt lat="47.88194" lon="7.12866">
        <ele>919</ele>
        <time>2023-05-06T13:40:46Z</time>
      </trkpt>
      <trkpt lat="47.88209" lon="7.12872">
        <ele>921</ele>
        <time>2023-05-06T13:41:00Z</time>
      </trkpt>
      <trkpt lat="47.88221" lon="7.12882">
        <ele>923</ele>
        <time>2023-05-06T13:41:14Z</time>
      </trkpt>
      <trkpt lat="47.88226" lon="7.12883">
        <ele>923</ele>
        <time>2023-05-06T13:41:19Z</time>
      </trkpt>
      <trkpt lat="47.88258" lon="7.12897">
        <ele>927</ele>
        <time>2023-05-06T13:41:50Z</time>
      </trkpt>
      <trkpt lat="47.88283" lon="7.12906">
        <ele>931</ele>
        <time>2023-05-06T13:42:13Z</time>
      </trkpt>
      <trkpt lat="47.88288" lon="7.12903">
        <ele>931</ele>
        <time>2023-05-06T13:42:17Z</time>
      </trkpt>
      <trkpt lat="47.88292" lon="7.12905">
        <ele>931</ele>
        <time>2023-05-06T13:42:19Z</time>
      </trkpt>
      <trkpt lat="47.88298" lon="7.12906">
        <ele>932</ele>
        <time>2023-05-06T13:42:24Z</time>
      </trkpt>
      <trkpt lat="47.88305" lon="7.12912">
        <ele>934</ele>
        <time>2023-05-06T13:42:35Z</time>
      </trkpt>
      <trkpt lat="47.88322" lon="7.12922">
        <ele>936</ele>
        <time>2023-05-06T13:42:52Z</time>
      </trkpt>
      <trkpt lat="47.88326" lon="7.12922">
        <ele>937</ele>
        <time>2023-05-06T13:42:56Z</time>
      </trkpt>
      <trkpt lat="47.88333" lon="7.12925">
        <ele>937</ele>
        <time>2023-05-06T13:43:03Z</time>
      </trkpt>
      <trkpt lat="47.88345" lon="7.12938">
        <ele>939</ele>
        <time>2023-05-06T13:43:17Z</time>
      </trkpt>
      <trkpt lat="47.88356" lon="7.12944">
        <ele>940</ele>
        <time>2023-05-06T13:43:29Z</time>
      </trkpt>
      <trkpt lat="47.88361" lon="7.12947">
        <ele>941</ele>
        <time>2023-05-06T13:43:33Z</time>
      </trkpt>
      <trkpt lat="47.8837" lon="7.1295">
        <ele>942</ele>
        <time>2023-05-06T13:43:44Z</time>
      </trkpt>
      <trkpt lat="47.88374" lon="7.12951">
        <ele>943</ele>
        <time>2023-05-06T13:43:49Z</time>
      </trkpt>
      <trkpt lat="47.88379" lon="7.12953">
        <ele>943</ele>
        <time>2023-05-06T13:43:54Z</time>
      </trkpt>
      <trkpt lat="47.88399" lon="7.12956">
        <ele>946</ele>
        <time>2023-05-06T13:44:14Z</time>
      </trkpt>
      <trkpt lat="47.88427" lon="7.12954">
        <ele>951</ele>
        <time>2023-05-06T13:44:47Z</time>
      </trkpt>
      <trkpt lat="47.88436" lon="7.12953">
        <ele>952</ele>
        <time>2023-05-06T13:44:56Z</time>
      </trkpt>
      <trkpt lat="47.88441" lon="7.12949">
        <ele>953</ele>
        <time>2023-05-06T13:45:03Z</time>
      </trkpt>
      <trkpt lat="47.88453" lon="7.12933">
        <ele>954</ele>
        <time>2023-05-06T13:45:18Z</time>
      </trkpt>
      <trkpt lat="47.88459" lon="7.12922">
        <ele>955</ele>
        <time>2023-05-06T13:45:27Z</time>
      </trkpt>
      <trkpt lat="47.88463" lon="7.12917">
        <ele>956</ele>
        <time>2023-05-06T13:45:35Z</time>
      </trkpt>
      <trkpt lat="47.88495" lon="7.12882">
        <ele>961</ele>
        <time>2023-05-06T13:46:14Z</time>
      </trkpt>
      <trkpt lat="47.88514" lon="7.12873">
        <ele>964</ele>
        <time>2023-05-06T13:46:36Z</time>
      </trkpt>
      <trkpt lat="47.88522" lon="7.12874">
        <ele>965</ele>
        <time>2023-05-06T13:46:44Z</time>
      </trkpt>
      <trkpt lat="47.88526" lon="7.12873">
        <ele>965</ele>
        <time>2023-05-06T13:46:48Z</time>
      </trkpt>
      <trkpt lat="47.88531" lon="7.12873">
        <ele>966</ele>
        <time>2023-05-06T13:46:52Z</time>
      </trkpt>
      <trkpt lat="47.88541" lon="7.12867">
        <ele>966</ele>
        <time>2023-05-06T13:47:02Z</time>
      </trkpt>
      <trkpt lat="47.8855" lon="7.12862">
        <ele>966</ele>
        <time>2023-05-06T13:47:10Z</time>
      </trkpt>
      <trkpt lat="47.88555" lon="7.12861">
        <ele>966</ele>
        <time>2023-05-06T13:47:14Z</time>
      </trkpt>
      <trkpt lat="47.88559" lon="7.12857">
        <ele>966</ele>
        <time>2023-05-06T13:47:18Z</time>
      </trkpt>
      <trkpt lat="47.88567" lon="7.12856">
        <ele>966</ele>
        <time>2023-05-06T13:47:26Z</time>
      </trkpt>
      <trkpt lat="47.88571" lon="7.12858">
        <ele>966</ele>
        <time>2023-05-06T13:47:29Z</time>
      </trkpt>
      <trkpt lat="47.8858" lon="7.12854">
        <ele>966</ele>
        <time>2023-05-06T13:47:38Z</time>
      </trkpt>
      <trkpt lat="47.88613" lon="7.12848">
        <ele>964</ele>
        <time>2023-05-06T13:48:09Z</time>
      </trkpt>
      <trkpt lat="47.88627" lon="7.12846">
        <ele>964</ele>
        <time>2023-05-06T13:48:22Z</time>
      </trkpt>
      <trkpt lat="47.88632" lon="7.12843">
        <ele>964</ele>
        <time>2023-05-06T13:48:26Z</time>
      </trkpt>
      <trkpt lat="47.88651" lon="7.12821">
        <ele>963</ele>
        <time>2023-05-06T13:48:46Z</time>
      </trkpt>
      <trkpt lat="47.88663" lon="7.12811">
        <ele>963</ele>
        <time>2023-05-06T13:48:58Z</time>
      </trkpt>
      <trkpt lat="47.88668" lon="7.1281">
        <ele>963</ele>
        <time>2023-05-06T13:49:02Z</time>
      </trkpt>
      <trkpt lat="47.88672" lon="7.12814">
        <ele>963</ele>
        <time>2023-05-06T13:49:18Z</time>
      </trkpt>
      <trkpt lat="47.88677" lon="7.12811">
        <ele>963</ele>
        <time>2023-05-06T13:49:30Z</time>
      </trkpt>
      <trkpt lat="47.88681" lon="7.12806">
        <ele>962</ele>
        <time>2023-05-06T13:49:42Z</time>
      </trkpt>
      <trkpt lat="47.88678" lon="7.12796">
        <ele>962</ele>
        <time>2023-05-06T13:49:52Z</time>
      </trkpt>
      <trkpt lat="47.88676" lon="7.1279">
        <ele>962</ele>
        <time>2023-05-06T13:49:56Z</time>
      </trkpt>
      <trkpt lat="47.88675" lon="7.12749">
        <ele>961</ele>
        <time>2023-05-06T13:50:21Z</time>
      </trkpt>
      <trkpt lat="47.88674" lon="7.12742">
        <ele>962</ele>
        <time>2023-05-06T13:50:25Z</time>
      </trkpt>
      <trkpt lat="47.88673" lon="7.12727">
        <ele>962</ele>
        <time>2023-05-06T13:50:34Z</time>
      </trkpt>
      <trkpt lat="47.88671" lon="7.12714">
        <ele>963</ele>
        <time>2023-05-06T13:50:42Z</time>
      </trkpt>
      <trkpt lat="47.88674" lon="7.12717">
        <ele>962</ele>
        <time>2023-05-06T13:51:57Z</time>
      </trkpt>
      <trkpt lat="47.88676" lon="7.12738">
        <ele>961</ele>
        <time>2023-05-06T14:35:00Z</time>
      </trkpt>
      <trkpt lat="47.88675" lon="7.12739">
        <ele>961</ele>
        <time>2023-05-06T14:35:01Z</time>
      </trkpt>
      <trkpt lat="47.88674" lon="7.12748">
        <ele>960</ele>
        <time>2023-05-06T14:35:07Z</time>
      </trkpt>
      <trkpt lat="47.88675" lon="7.12757">
        <ele>959</ele>
        <time>2023-05-06T14:35:14Z</time>
      </trkpt>
      <trkpt lat="47.88676" lon="7.12763">
        <ele>958</ele>
        <time>2023-05-06T14:35:19Z</time>
      </trkpt>
      <trkpt lat="47.88677" lon="7.128">
        <ele>957</ele>
        <time>2023-05-06T14:35:46Z</time>
      </trkpt>
      <trkpt lat="47.88681" lon="7.12802">
        <ele>957</ele>
        <time>2023-05-06T14:35:50Z</time>
      </trkpt>
      <trkpt lat="47.88686" lon="7.12802">
        <ele>957</ele>
        <time>2023-05-06T14:35:54Z</time>
      </trkpt>
      <trkpt lat="47.88689" lon="7.12795">
        <ele>957</ele>
        <time>2023-05-06T14:36:01Z</time>
      </trkpt>
      <trkpt lat="47.88691" lon="7.12788">
        <ele>957</ele>
        <time>2023-05-06T14:36:05Z</time>
      </trkpt>
      <trkpt lat="47.88697" lon="7.12769">
        <ele>956</ele>
        <time>2023-05-06T14:36:18Z</time>
      </trkpt>
      <trkpt lat="47.88699" lon="7.12755">
        <ele>957</ele>
        <time>2023-05-06T14:36:27Z</time>
      </trkpt>
      <trkpt lat="47.88706" lon="7.12742">
        <ele>958</ele>
        <time>2023-05-06T14:36:39Z</time>
      </trkpt>
      <trkpt lat="47.88709" lon="7.12736">
        <ele>958</ele>
        <time>2023-05-06T14:36:44Z</time>
      </trkpt>
      <trkpt lat="47.88709" lon="7.12728">
        <ele>959</ele>
        <time>2023-05-06T14:36:52Z</time>
      </trkpt>
      <trkpt lat="47.88712" lon="7.12722">
        <ele>959</ele>
        <time>2023-05-06T14:36:56Z</time>
      </trkpt>
      <trkpt lat="47.88712" lon="7.12712">
        <ele>959</ele>
        <time>2023-05-06T14:37:03Z</time>
      </trkpt>
      <trkpt lat="47.88711" lon="7.12703">
        <ele>960</ele>
        <time>2023-05-06T14:37:08Z</time>
      </trkpt>
      <trkpt lat="47.88714" lon="7.12696">
        <ele>960</ele>
        <time>2023-05-06T14:37:11Z</time>
      </trkpt>
      <trkpt lat="47.88721" lon="7.12688">
        <ele>960</ele>
        <time>2023-05-06T14:37:19Z</time>
      </trkpt>
      <trkpt lat="47.88723" lon="7.12681">
        <ele>961</ele>
        <time>2023-05-06T14:37:25Z</time>
      </trkpt>
      <trkpt lat="47.88724" lon="7.12675">
        <ele>961</ele>
        <time>2023-05-06T14:37:30Z</time>
      </trkpt>
      <trkpt lat="47.88735" lon="7.12664">
        <ele>963</ele>
        <time>2023-05-06T14:37:41Z</time>
      </trkpt>
      <trkpt lat="47.88738" lon="7.12653">
        <ele>964</ele>
        <time>2023-05-06T14:37:49Z</time>
      </trkpt>
      <trkpt lat="47.88742" lon="7.12647">
        <ele>964</ele>
        <time>2023-05-06T14:37:53Z</time>
      </trkpt>
      <trkpt lat="47.88747" lon="7.12641">
        <ele>965</ele>
        <time>2023-05-06T14:38:00Z</time>
      </trkpt>
      <trkpt lat="47.8875" lon="7.12632">
        <ele>967</ele>
        <time>2023-05-06T14:38:13Z</time>
      </trkpt>
      <trkpt lat="47.88755" lon="7.12627">
        <ele>967</ele>
        <time>2023-05-06T14:38:15Z</time>
      </trkpt>
      <trkpt lat="47.88766" lon="7.12615">
        <ele>969</ele>
        <time>2023-05-06T14:38:31Z</time>
      </trkpt>
      <trkpt lat="47.88774" lon="7.12612">
        <ele>971</ele>
        <time>2023-05-06T14:38:41Z</time>
      </trkpt>
      <trkpt lat="47.88782" lon="7.12609">
        <ele>972</ele>
        <time>2023-05-06T14:38:51Z</time>
      </trkpt>
      <trkpt lat="47.88801" lon="7.12606">
        <ele>974</ele>
        <time>2023-05-06T14:39:07Z</time>
      </trkpt>
      <trkpt lat="47.88805" lon="7.12602">
        <ele>975</ele>
        <time>2023-05-06T14:39:15Z</time>
      </trkpt>
      <trkpt lat="47.88807" lon="7.12593">
        <ele>975</ele>
        <time>2023-05-06T14:39:19Z</time>
      </trkpt>
      <trkpt lat="47.88812" lon="7.12589">
        <ele>975</ele>
        <time>2023-05-06T14:39:22Z</time>
      </trkpt>
      <trkpt lat="47.88817" lon="7.12593">
        <ele>976</ele>
        <time>2023-05-06T14:39:27Z</time>
      </trkpt>
      <trkpt lat="47.88816" lon="7.12581">
        <ele>976</ele>
        <time>2023-05-06T14:39:39Z</time>
      </trkpt>
      <trkpt lat="47.88822" lon="7.12579">
        <ele>977</ele>
        <time>2023-05-06T14:39:43Z</time>
      </trkpt>
      <trkpt lat="47.88822" lon="7.12565">
        <ele>978</ele>
        <time>2023-05-06T14:39:50Z</time>
      </trkpt>
      <trkpt lat="47.88826" lon="7.12561">
        <ele>978</ele>
        <time>2023-05-06T14:39:55Z</time>
      </trkpt>
      <trkpt lat="47.88825" lon="7.12568">
        <ele>981</ele>
        <time>2023-05-06T14:40:15Z</time>
      </trkpt>
      <trkpt lat="47.88819" lon="7.12577">
        <ele>981</ele>
        <time>2023-05-06T14:40:20Z</time>
      </trkpt>
      <trkpt lat="47.88817" lon="7.12585">
        <ele>981</ele>
        <time>2023-05-06T14:40:22Z</time>
      </trkpt>
      <trkpt lat="47.88808" lon="7.12585">
        <ele>983</ele>
        <time>2023-05-06T14:40:35Z</time>
      </trkpt>
      <trkpt lat="47.88804" lon="7.12582">
        <ele>984</ele>
        <time>2023-05-06T14:40:39Z</time>
      </trkpt>
      <trkpt lat="47.88797" lon="7.12577">
        <ele>985</ele>
        <time>2023-05-06T14:40:51Z</time>
      </trkpt>
      <trkpt lat="47.8879" lon="7.12575">
        <ele>986</ele>
        <time>2023-05-06T14:40:58Z</time>
      </trkpt>
      <trkpt lat="47.88784" lon="7.12565">
        <ele>987</ele>
        <time>2023-05-06T14:41:07Z</time>
      </trkpt>
      <trkpt lat="47.88782" lon="7.12559">
        <ele>988</ele>
        <time>2023-05-06T14:41:12Z</time>
      </trkpt>
      <trkpt lat="47.88777" lon="7.12558">
        <ele>989</ele>
        <time>2023-05-06T14:41:17Z</time>
      </trkpt>
      <trkpt lat="47.88772" lon="7.12559">
        <ele>989</ele>
        <time>2023-05-06T14:41:22Z</time>
      </trkpt>
      <trkpt lat="47.88768" lon="7.12553">
        <ele>990</ele>
        <time>2023-05-06T14:41:29Z</time>
      </trkpt>
      <trkpt lat="47.88764" lon="7.12534">
        <ele>993</ele>
        <time>2023-05-06T14:41:47Z</time>
      </trkpt>
      <trkpt lat="47.88761" lon="7.12524">
        <ele>994</ele>
        <time>2023-05-06T14:41:52Z</time>
      </trkpt>
      <trkpt lat="47.88755" lon="7.1251">
        <ele>996</ele>
        <time>2023-05-06T14:42:09Z</time>
      </trkpt>
      <trkpt lat="47.88751" lon="7.12493">
        <ele>999</ele>
        <time>2023-05-06T14:42:25Z</time>
      </trkpt>
      <trkpt lat="47.88745" lon="7.12491">
        <ele>999</ele>
        <time>2023-05-06T14:42:28Z</time>
      </trkpt>
      <trkpt lat="47.88742" lon="7.12482">
        <ele>1001</ele>
        <time>2023-05-06T14:42:39Z</time>
      </trkpt>
      <trkpt lat="47.88743" lon="7.12475">
        <ele>1002</ele>
        <time>2023-05-06T14:42:43Z</time>
      </trkpt>
      <trkpt lat="47.88749" lon="7.12473">
        <ele>1002</ele>
        <time>2023-05-06T14:42:50Z</time>
      </trkpt>
      <trkpt lat="47.88755" lon="7.12472">
        <ele>1003</ele>
        <time>2023-05-06T14:42:52Z</time>
      </trkpt>
      <trkpt lat="47.88764" lon="7.12468">
        <ele>1004</ele>
        <time>2023-05-06T14:43:03Z</time>
      </trkpt>
      <trkpt lat="47.88772" lon="7.12456">
        <ele>1006</ele>
        <time>2023-05-06T14:43:18Z</time>
      </trkpt>
      <trkpt lat="47.88777" lon="7.12454">
        <ele>1006</ele>
        <time>2023-05-06T14:43:24Z</time>
      </trkpt>
      <trkpt lat="47.88781" lon="7.12446">
        <ele>1007</ele>
        <time>2023-05-06T14:43:31Z</time>
      </trkpt>
      <trkpt lat="47.88787" lon="7.12438">
        <ele>1008</ele>
        <time>2023-05-06T14:43:35Z</time>
      </trkpt>
      <trkpt lat="47.8879" lon="7.1243">
        <ele>1009</ele>
        <time>2023-05-06T14:43:45Z</time>
      </trkpt>
      <trkpt lat="47.88788" lon="7.12421">
        <ele>1010</ele>
        <time>2023-05-06T14:43:53Z</time>
      </trkpt>
      <trkpt lat="47.88795" lon="7.12414">
        <ele>1011</ele>
        <time>2023-05-06T14:44:04Z</time>
      </trkpt>
      <trkpt lat="47.88803" lon="7.1239">
        <ele>1013</ele>
        <time>2023-05-06T14:44:20Z</time>
      </trkpt>
      <trkpt lat="47.888" lon="7.1238">
        <ele>1015</ele>
        <time>2023-05-06T14:44:30Z</time>
      </trkpt>
      <trkpt lat="47.88801" lon="7.12372">
        <ele>1016</ele>
        <time>2023-05-06T14:44:37Z</time>
      </trkpt>
      <trkpt lat="47.88802" lon="7.12364">
        <ele>1017</ele>
        <time>2023-05-06T14:44:45Z</time>
      </trkpt>
      <trkpt lat="47.88806" lon="7.12353">
        <ele>1018</ele>
        <time>2023-05-06T14:44:57Z</time>
      </trkpt>
      <trkpt lat="47.88807" lon="7.12339">
        <ele>1019</ele>
        <time>2023-05-06T14:45:07Z</time>
      </trkpt>
      <trkpt lat="47.88809" lon="7.1233">
        <ele>1020</ele>
        <time>2023-05-06T14:45:15Z</time>
      </trkpt>
      <trkpt lat="47.88813" lon="7.12289">
        <ele>1023</ele>
        <time>2023-05-06T14:45:44Z</time>
      </trkpt>
      <trkpt lat="47.88816" lon="7.1228">
        <ele>1024</ele>
        <time>2023-05-06T14:45:54Z</time>
      </trkpt>
      <trkpt lat="47.88823" lon="7.12265">
        <ele>1027</ele>
        <time>2023-05-06T14:46:09Z</time>
      </trkpt>
      <trkpt lat="47.88823" lon="7.12258">
        <ele>1027</ele>
        <time>2023-05-06T14:46:14Z</time>
      </trkpt>
      <trkpt lat="47.88831" lon="7.12247">
        <ele>1029</ele>
        <time>2023-05-06T14:46:28Z</time>
      </trkpt>
      <trkpt lat="47.88834" lon="7.12237">
        <ele>1030</ele>
        <time>2023-05-06T14:46:35Z</time>
      </trkpt>
      <trkpt lat="47.88835" lon="7.12225">
        <ele>1031</ele>
        <time>2023-05-06T14:46:45Z</time>
      </trkpt>
      <trkpt lat="47.88837" lon="7.12218">
        <ele>1031</ele>
        <time>2023-05-06T14:46:50Z</time>
      </trkpt>
      <trkpt lat="47.88841" lon="7.12211">
        <ele>1032</ele>
        <time>2023-05-06T14:46:54Z</time>
      </trkpt>
      <trkpt lat="47.88845" lon="7.12202">
        <ele>1033</ele>
        <time>2023-05-06T14:47:04Z</time>
      </trkpt>
      <trkpt lat="47.88846" lon="7.12194">
        <ele>1033</ele>
        <time>2023-05-06T14:47:12Z</time>
      </trkpt>
      <trkpt lat="47.88849" lon="7.12189">
        <ele>1034</ele>
        <time>2023-05-06T14:47:17Z</time>
      </trkpt>
      <trkpt lat="47.88863" lon="7.1218">
        <ele>1036</ele>
        <time>2023-05-06T14:47:33Z</time>
      </trkpt>
      <trkpt lat="47.88863" lon="7.12171">
        <ele>1036</ele>
        <time>2023-05-06T14:47:40Z</time>
      </trkpt>
      <trkpt lat="47.88874" lon="7.12148">
        <ele>1039</ele>
        <time>2023-05-06T14:48:01Z</time>
      </trkpt>
      <trkpt lat="47.8888" lon="7.12141">
        <ele>1040</ele>
        <time>2023-05-06T14:48:13Z</time>
      </trkpt>
      <trkpt lat="47.88889" lon="7.12135">
        <ele>1041</ele>
        <time>2023-05-06T14:48:24Z</time>
      </trkpt>
      <trkpt lat="47.88894" lon="7.12127">
        <ele>1042</ele>
        <time>2023-05-06T14:48:27Z</time>
      </trkpt>
      <trkpt lat="47.88899" lon="7.12114">
        <ele>1043</ele>
        <time>2023-05-06T14:48:41Z</time>
      </trkpt>
      <trkpt lat="47.88903" lon="7.12111">
        <ele>1043</ele>
        <time>2023-05-06T14:48:46Z</time>
      </trkpt>
      <trkpt lat="47.88918" lon="7.12091">
        <ele>1045</ele>
        <time>2023-05-06T14:49:08Z</time>
      </trkpt>
      <trkpt lat="47.88938" lon="7.12078">
        <ele>1045</ele>
        <time>2023-05-06T14:49:27Z</time>
      </trkpt>
      <trkpt lat="47.88953" lon="7.12071">
        <ele>1047</ele>
        <time>2023-05-06T14:49:43Z</time>
      </trkpt>
      <trkpt lat="47.88963" lon="7.12054">
        <ele>1052</ele>
        <time>2023-05-06T14:50:05Z</time>
      </trkpt>
      <trkpt lat="47.88969" lon="7.12048">
        <ele>1053</ele>
        <time>2023-05-06T14:50:13Z</time>
      </trkpt>
      <trkpt lat="47.88977" lon="7.1204">
        <ele>1054</ele>
        <time>2023-05-06T14:50:17Z</time>
      </trkpt>
      <trkpt lat="47.88983" lon="7.1203">
        <ele>1055</ele>
        <time>2023-05-06T14:50:27Z</time>
      </trkpt>
      <trkpt lat="47.88991" lon="7.12013">
        <ele>1057</ele>
        <time>2023-05-06T14:50:41Z</time>
      </trkpt>
      <trkpt lat="47.88995" lon="7.12009">
        <ele>1058</ele>
        <time>2023-05-06T14:50:50Z</time>
      </trkpt>
      <trkpt lat="47.89" lon="7.12007">
        <ele>1059</ele>
        <time>2023-05-06T14:50:57Z</time>
      </trkpt>
      <trkpt lat="47.89" lon="7.11999">
        <ele>1061</ele>
        <time>2023-05-06T14:51:10Z</time>
      </trkpt>
      <trkpt lat="47.89002" lon="7.11991">
        <ele>1063</ele>
        <time>2023-05-06T14:51:22Z</time>
      </trkpt>
      <trkpt lat="47.89019" lon="7.11971">
        <ele>1066</ele>
        <time>2023-05-06T14:51:48Z</time>
      </trkpt>
      <trkpt lat="47.89024" lon="7.11972">
        <ele>1067</ele>
        <time>2023-05-06T14:51:52Z</time>
      </trkpt>
      <trkpt lat="47.89033" lon="7.1196">
        <ele>1068</ele>
        <time>2023-05-06T14:52:05Z</time>
      </trkpt>
      <trkpt lat="47.89043" lon="7.11957">
        <ele>1069</ele>
        <time>2023-05-06T14:52:14Z</time>
      </trkpt>
      <trkpt lat="47.89048" lon="7.11949">
        <ele>1070</ele>
        <time>2023-05-06T14:52:22Z</time>
      </trkpt>
      <trkpt lat="47.89058" lon="7.11947">
        <ele>1071</ele>
        <time>2023-05-06T14:52:31Z</time>
      </trkpt>
      <trkpt lat="47.89062" lon="7.11943">
        <ele>1071</ele>
        <time>2023-05-06T14:52:36Z</time>
      </trkpt>
      <trkpt lat="47.89064" lon="7.11937">
        <ele>1072</ele>
        <time>2023-05-06T14:52:40Z</time>
      </trkpt>
      <trkpt lat="47.89073" lon="7.11922">
        <ele>1074</ele>
        <time>2023-05-06T14:52:56Z</time>
      </trkpt>
      <trkpt lat="47.89076" lon="7.11916">
        <ele>1075</ele>
        <time>2023-05-06T14:53:01Z</time>
      </trkpt>
      <trkpt lat="47.8908" lon="7.11901">
        <ele>1078</ele>
        <time>2023-05-06T14:53:15Z</time>
      </trkpt>
      <trkpt lat="47.89102" lon="7.11875">
        <ele>1081</ele>
        <time>2023-05-06T14:53:44Z</time>
      </trkpt>
      <trkpt lat="47.89128" lon="7.1184">
        <ele>1083</ele>
        <time>2023-05-06T14:54:18Z</time>
      </trkpt>
      <trkpt lat="47.89138" lon="7.11829">
        <ele>1084</ele>
        <time>2023-05-06T14:54:29Z</time>
      </trkpt>
      <trkpt lat="47.89141" lon="7.11823">
        <ele>1085</ele>
        <time>2023-05-06T14:54:34Z</time>
      </trkpt>
      <trkpt lat="47.89152" lon="7.11771">
        <ele>1089</ele>
        <time>2023-05-06T14:55:09Z</time>
      </trkpt>
      <trkpt lat="47.89157" lon="7.11764">
        <ele>1091</ele>
        <time>2023-05-06T14:55:16Z</time>
      </trkpt>
      <trkpt lat="47.89158" lon="7.11757">
        <ele>1091</ele>
        <time>2023-05-06T14:55:21Z</time>
      </trkpt>
      <trkpt lat="47.8916" lon="7.11748">
        <ele>1093</ele>
        <time>2023-05-06T14:55:28Z</time>
      </trkpt>
      <trkpt lat="47.89173" lon="7.11712">
        <ele>1098</ele>
        <time>2023-05-06T14:56:00Z</time>
      </trkpt>
      <trkpt lat="47.89189" lon="7.11689">
        <ele>1105</ele>
        <time>2023-05-06T14:56:28Z</time>
      </trkpt>
      <trkpt lat="47.89202" lon="7.1165">
        <ele>1109</ele>
        <time>2023-05-06T14:56:59Z</time>
      </trkpt>
      <trkpt lat="47.89205" lon="7.11646">
        <ele>1110</ele>
        <time>2023-05-06T14:57:07Z</time>
      </trkpt>
      <trkpt lat="47.8921" lon="7.11636">
        <ele>1112</ele>
        <time>2023-05-06T14:57:19Z</time>
      </trkpt>
      <trkpt lat="47.89216" lon="7.11626">
        <ele>1112</ele>
        <time>2023-05-06T14:57:28Z</time>
      </trkpt>
      <trkpt lat="47.89228" lon="7.11612">
        <ele>1113</ele>
        <time>2023-05-06T14:57:43Z</time>
      </trkpt>
      <trkpt lat="47.89233" lon="7.11611">
        <ele>1114</ele>
        <time>2023-05-06T14:57:52Z</time>
      </trkpt>
      <trkpt lat="47.89242" lon="7.11598">
        <ele>1114</ele>
        <time>2023-05-06T14:58:05Z</time>
      </trkpt>
      <trkpt lat="47.89249" lon="7.11585">
        <ele>1116</ele>
        <time>2023-05-06T14:58:19Z</time>
      </trkpt>
      <trkpt lat="47.89253" lon="7.11581">
        <ele>1116</ele>
        <time>2023-05-06T14:58:23Z</time>
      </trkpt>
      <trkpt lat="47.89257" lon="7.11579">
        <ele>1117</ele>
        <time>2023-05-06T14:58:27Z</time>
      </trkpt>
      <trkpt lat="47.89266" lon="7.11568">
        <ele>1119</ele>
        <time>2023-05-06T14:58:40Z</time>
      </trkpt>
      <trkpt lat="47.89271" lon="7.11567">
        <ele>1119</ele>
        <time>2023-05-06T14:58:44Z</time>
      </trkpt>
      <trkpt lat="47.89277" lon="7.11563">
        <ele>1121</ele>
        <time>2023-05-06T14:58:52Z</time>
      </trkpt>
      <trkpt lat="47.89282" lon="7.1156">
        <ele>1121</ele>
        <time>2023-05-06T14:58:56Z</time>
      </trkpt>
      <trkpt lat="47.8929" lon="7.11544">
        <ele>1123</ele>
        <time>2023-05-06T14:59:11Z</time>
      </trkpt>
      <trkpt lat="47.89299" lon="7.11533">
        <ele>1125</ele>
        <time>2023-05-06T14:59:24Z</time>
      </trkpt>
      <trkpt lat="47.89303" lon="7.11533">
        <ele>1126</ele>
        <time>2023-05-06T14:59:28Z</time>
      </trkpt>
      <trkpt lat="47.89309" lon="7.11525">
        <ele>1128</ele>
        <time>2023-05-06T14:59:39Z</time>
      </trkpt>
      <trkpt lat="47.89315" lon="7.11514">
        <ele>1130</ele>
        <time>2023-05-06T14:59:48Z</time>
      </trkpt>
      <trkpt lat="47.89319" lon="7.11512">
        <ele>1131</ele>
        <time>2023-05-06T14:59:52Z</time>
      </trkpt>
      <trkpt lat="47.89327" lon="7.11485">
        <ele>1137</ele>
        <time>2023-05-06T15:00:24Z</time>
      </trkpt>
      <trkpt lat="47.89332" lon="7.11474">
        <ele>1140</ele>
        <time>2023-05-06T15:00:35Z</time>
      </trkpt>
      <trkpt lat="47.89334" lon="7.11465">
        <ele>1142</ele>
        <time>2023-05-06T15:00:42Z</time>
      </trkpt>
      <trkpt lat="47.89337" lon="7.1146">
        <ele>1144</ele>
        <time>2023-05-06T15:00:48Z</time>
      </trkpt>
      <trkpt lat="47.89342" lon="7.11453">
        <ele>1146</ele>
        <time>2023-05-06T15:00:59Z</time>
      </trkpt>
      <trkpt lat="47.89348" lon="7.11436">
        <ele>1150</ele>
        <time>2023-05-06T15:01:17Z</time>
      </trkpt>
      <trkpt lat="47.89358" lon="7.11425">
        <ele>1152</ele>
        <time>2023-05-06T15:01:30Z</time>
      </trkpt>
      <trkpt lat="47.89362" lon="7.11424">
        <ele>1153</ele>
        <time>2023-05-06T15:01:34Z</time>
      </trkpt>
      <trkpt lat="47.89384" lon="7.11394">
        <ele>1158</ele>
        <time>2023-05-06T15:02:08Z</time>
      </trkpt>
      <trkpt lat="47.89393" lon="7.11379">
        <ele>1160</ele>
        <time>2023-05-06T15:02:21Z</time>
      </trkpt>
      <trkpt lat="47.89397" lon="7.11376">
        <ele>1160</ele>
        <time>2023-05-06T15:02:25Z</time>
      </trkpt>
      <trkpt lat="47.89402" lon="7.11374">
        <ele>1161</ele>
        <time>2023-05-06T15:02:30Z</time>
      </trkpt>
      <trkpt lat="47.8941" lon="7.11366">
        <ele>1161</ele>
        <time>2023-05-06T15:02:37Z</time>
      </trkpt>
      <trkpt lat="47.89421" lon="7.11348">
        <ele>1161</ele>
        <time>2023-05-06T15:02:49Z</time>
      </trkpt>
      <trkpt lat="47.89428" lon="7.1134">
        <ele>1162</ele>
        <time>2023-05-06T15:02:57Z</time>
      </trkpt>
      <trkpt lat="47.89438" lon="7.11322">
        <ele>1163</ele>
        <time>2023-05-06T15:03:11Z</time>
      </trkpt>
      <trkpt lat="47.89443" lon="7.11306">
        <ele>1164</ele>
        <time>2023-05-06T15:03:21Z</time>
      </trkpt>
      <trkpt lat="47.89455" lon="7.11285">
        <ele>1166</ele>
        <time>2023-05-06T15:03:37Z</time>
      </trkpt>
      <trkpt lat="47.89469" lon="7.11246">
        <ele>1169</ele>
        <time>2023-05-06T15:04:06Z</time>
      </trkpt>
      <trkpt lat="47.89473" lon="7.11241">
        <ele>1170</ele>
        <time>2023-05-06T15:04:12Z</time>
      </trkpt>
      <trkpt lat="47.89476" lon="7.11225">
        <ele>1171</ele>
        <time>2023-05-06T15:04:23Z</time>
      </trkpt>
      <trkpt lat="47.89483" lon="7.11207">
        <ele>1173</ele>
        <time>2023-05-06T15:04:36Z</time>
      </trkpt>
      <trkpt lat="47.89487" lon="7.11202">
        <ele>1173</ele>
        <time>2023-05-06T15:04:40Z</time>
      </trkpt>
      <trkpt lat="47.89497" lon="7.11178">
        <ele>1175</ele>
        <time>2023-05-06T15:04:59Z</time>
      </trkpt>
      <trkpt lat="47.89522" lon="7.11137">
        <ele>1180</ele>
        <time>2023-05-06T15:05:35Z</time>
      </trkpt>
      <trkpt lat="47.8953" lon="7.11111">
        <ele>1182</ele>
        <time>2023-05-06T15:05:52Z</time>
      </trkpt>
      <trkpt lat="47.89536" lon="7.11099">
        <ele>1183</ele>
        <time>2023-05-06T15:06:03Z</time>
      </trkpt>
      <trkpt lat="47.8954" lon="7.11094">
        <ele>1184</ele>
        <time>2023-05-06T15:06:08Z</time>
      </trkpt>
      <trkpt lat="47.89554" lon="7.1107">
        <ele>1187</ele>
        <time>2023-05-06T15:06:30Z</time>
      </trkpt>
      <trkpt lat="47.89556" lon="7.11064">
        <ele>1187</ele>
        <time>2023-05-06T15:06:34Z</time>
      </trkpt>
      <trkpt lat="47.89559" lon="7.11059">
        <ele>1188</ele>
        <time>2023-05-06T15:06:38Z</time>
      </trkpt>
      <trkpt lat="47.89563" lon="7.11055">
        <ele>1188</ele>
        <time>2023-05-06T15:06:43Z</time>
      </trkpt>
      <trkpt lat="47.89566" lon="7.11049">
        <ele>1189</ele>
        <time>2023-05-06T15:06:47Z</time>
      </trkpt>
      <trkpt lat="47.89575" lon="7.11023">
        <ele>1190</ele>
        <time>2023-05-06T15:07:03Z</time>
      </trkpt>
      <trkpt lat="47.8958" lon="7.11011">
        <ele>1192</ele>
        <time>2023-05-06T15:07:11Z</time>
      </trkpt>
      <trkpt lat="47.89581" lon="7.11005">
        <ele>1192</ele>
        <time>2023-05-06T15:07:15Z</time>
      </trkpt>
      <trkpt lat="47.89587" lon="7.10994">
        <ele>1193</ele>
        <time>2023-05-06T15:07:23Z</time>
      </trkpt>
      <trkpt lat="47.89594" lon="7.10984">
        <ele>1195</ele>
        <time>2023-05-06T15:07:32Z</time>
      </trkpt>
      <trkpt lat="47.89597" lon="7.10979">
        <ele>1196</ele>
        <time>2023-05-06T15:07:36Z</time>
      </trkpt>
      <trkpt lat="47.89612" lon="7.10963">
        <ele>1199</ele>
        <time>2023-05-06T15:07:54Z</time>
      </trkpt>
      <trkpt lat="47.89634" lon="7.10933">
        <ele>1202</ele>
        <time>2023-05-06T15:08:22Z</time>
      </trkpt>
      <trkpt lat="47.89663" lon="7.10905">
        <ele>1206</ele>
        <time>2023-05-06T15:08:53Z</time>
      </trkpt>
      <trkpt lat="47.89677" lon="7.10889">
        <ele>1209</ele>
        <time>2023-05-06T15:09:12Z</time>
      </trkpt>
      <trkpt lat="47.89681" lon="7.10881">
        <ele>1211</ele>
        <time>2023-05-06T15:09:20Z</time>
      </trkpt>
      <trkpt lat="47.89683" lon="7.10874">
        <ele>1212</ele>
        <time>2023-05-06T15:09:24Z</time>
      </trkpt>
      <trkpt lat="47.89703" lon="7.10847">
        <ele>1218</ele>
        <time>2023-05-06T15:09:53Z</time>
      </trkpt>
      <trkpt lat="47.89716" lon="7.10812">
        <ele>1225</ele>
        <time>2023-05-06T15:10:28Z</time>
      </trkpt>
      <trkpt lat="47.89728" lon="7.1079">
        <ele>1228</ele>
        <time>2023-05-06T15:10:47Z</time>
      </trkpt>
      <trkpt lat="47.89732" lon="7.10785">
        <ele>1229</ele>
        <time>2023-05-06T15:10:52Z</time>
      </trkpt>
      <trkpt lat="47.89737" lon="7.10781">
        <ele>1230</ele>
        <time>2023-05-06T15:10:57Z</time>
      </trkpt>
      <trkpt lat="47.89742" lon="7.10775">
        <ele>1231</ele>
        <time>2023-05-06T15:11:04Z</time>
      </trkpt>
      <trkpt lat="47.89774" lon="7.1075">
        <ele>1238</ele>
        <time>2023-05-06T15:11:39Z</time>
      </trkpt>
      <trkpt lat="47.89786" lon="7.10737">
        <ele>1241</ele>
        <time>2023-05-06T15:11:54Z</time>
      </trkpt>
      <trkpt lat="47.898" lon="7.10713">
        <ele>1244</ele>
        <time>2023-05-06T15:12:17Z</time>
      </trkpt>
      <trkpt lat="47.89803" lon="7.10707">
        <ele>1244</ele>
        <time>2023-05-06T15:12:21Z</time>
      </trkpt>
      <trkpt lat="47.89806" lon="7.10702">
        <ele>1245</ele>
        <time>2023-05-06T15:12:25Z</time>
      </trkpt>
      <trkpt lat="47.89809" lon="7.1069">
        <ele>1246</ele>
        <time>2023-05-06T15:12:33Z</time>
      </trkpt>
      <trkpt lat="47.89831" lon="7.10659">
        <ele>1250</ele>
        <time>2023-05-06T15:13:04Z</time>
      </trkpt>
      <trkpt lat="47.89849" lon="7.10627">
        <ele>1256</ele>
        <time>2023-05-06T15:13:35Z</time>
      </trkpt>
      <trkpt lat="47.89854" lon="7.10617">
        <ele>1258</ele>
        <time>2023-05-06T15:13:44Z</time>
      </trkpt>
      <trkpt lat="47.89857" lon="7.10611">
        <ele>1259</ele>
        <time>2023-05-06T15:13:48Z</time>
      </trkpt>
      <trkpt lat="47.89858" lon="7.10602">
        <ele>1260</ele>
        <time>2023-05-06T15:13:55Z</time>
      </trkpt>
      <trkpt lat="47.89858" lon="7.10586">
        <ele>1262</ele>
        <time>2023-05-06T15:14:06Z</time>
      </trkpt>
      <trkpt lat="47.89862" lon="7.10546">
        <ele>1267</ele>
        <time>2023-05-06T15:14:38Z</time>
      </trkpt>
      <trkpt lat="47.89869" lon="7.10518">
        <ele>1271</ele>
        <time>2023-05-06T15:14:58Z</time>
      </trkpt>
      <trkpt lat="47.8987" lon="7.10494">
        <ele>1274</ele>
        <time>2023-05-06T15:15:15Z</time>
      </trkpt>
      <trkpt lat="47.89865" lon="7.10477">
        <ele>1277</ele>
        <time>2023-05-06T15:15:30Z</time>
      </trkpt>
      <trkpt lat="47.89859" lon="7.10467">
        <ele>1279</ele>
        <time>2023-05-06T15:15:39Z</time>
      </trkpt>
      <trkpt lat="47.89835" lon="7.10437">
        <ele>1283</ele>
        <time>2023-05-06T15:16:09Z</time>
      </trkpt>
      <trkpt lat="47.89812" lon="7.10405">
        <ele>1287</ele>
        <time>2023-05-06T15:16:40Z</time>
      </trkpt>
      <trkpt lat="47.89809" lon="7.10399">
        <ele>1288</ele>
        <time>2023-05-06T15:16:44Z</time>
      </trkpt>
      <trkpt lat="47.89807" lon="7.10395">
        <ele>1288</ele>
        <time>2023-05-06T15:16:48Z</time>
      </trkpt>
      <trkpt lat="47.89785" lon="7.10369">
        <ele>1291</ele>
        <time>2023-05-06T15:17:12Z</time>
      </trkpt>
      <trkpt lat="47.89764" lon="7.10325">
        <ele>1293</ele>
        <time>2023-05-06T15:17:53Z</time>
      </trkpt>
      <trkpt lat="47.89756" lon="7.10319">
        <ele>1293</ele>
        <time>2023-05-06T15:18:01Z</time>
      </trkpt>
      <trkpt lat="47.89751" lon="7.10317">
        <ele>1293</ele>
        <time>2023-05-06T15:18:07Z</time>
      </trkpt>
      <trkpt lat="47.89742" lon="7.10307">
        <ele>1293</ele>
        <time>2023-05-06T15:18:40Z</time>
      </trkpt>
      <trkpt lat="47.89745" lon="7.10293">
        <ele>1294</ele>
        <time>2023-05-06T15:18:50Z</time>
      </trkpt>
      <trkpt lat="47.89754" lon="7.10265">
        <ele>1297</ele>
        <time>2023-05-06T15:19:13Z</time>
      </trkpt>
      <trkpt lat="47.8976" lon="7.10226">
        <ele>1303</ele>
        <time>2023-05-06T15:19:44Z</time>
      </trkpt>
      <trkpt lat="47.89761" lon="7.10215">
        <ele>1304</ele>
        <time>2023-05-06T15:19:51Z</time>
      </trkpt>
      <trkpt lat="47.89763" lon="7.10209">
        <ele>1305</ele>
        <time>2023-05-06T15:19:56Z</time>
      </trkpt>
      <trkpt lat="47.89765" lon="7.10203">
        <ele>1306</ele>
        <time>2023-05-06T15:20:08Z</time>
      </trkpt>
      <trkpt lat="47.89773" lon="7.10173">
        <ele>1309</ele>
        <time>2023-05-06T15:20:34Z</time>
      </trkpt>
      <trkpt lat="47.89778" lon="7.10172">
        <ele>1310</ele>
        <time>2023-05-06T15:20:42Z</time>
      </trkpt>
      <trkpt lat="47.8978" lon="7.10178">
        <ele>1311</ele>
        <time>2023-05-06T15:20:47Z</time>
      </trkpt>
      <trkpt lat="47.89789" lon="7.10209">
        <ele>1313</ele>
        <time>2023-05-06T15:21:11Z</time>
      </trkpt>
      <trkpt lat="47.89794" lon="7.10214">
        <ele>1314</ele>
        <time>2023-05-06T15:21:19Z</time>
      </trkpt>
      <trkpt lat="47.89816" lon="7.10224">
        <ele>1320</ele>
        <time>2023-05-06T15:21:55Z</time>
      </trkpt>
      <trkpt lat="47.89821" lon="7.10227">
        <ele>1322</ele>
        <time>2023-05-06T15:22:02Z</time>
      </trkpt>
      <trkpt lat="47.89834" lon="7.10232">
        <ele>1326</ele>
        <time>2023-05-06T15:22:22Z</time>
      </trkpt>
      <trkpt lat="47.89845" lon="7.10208">
        <ele>1330</ele>
        <time>2023-05-06T15:22:51Z</time>
      </trkpt>
      <trkpt lat="47.89851" lon="7.10201">
        <ele>1332</ele>
        <time>2023-05-06T15:23:02Z</time>
      </trkpt>
      <trkpt lat="47.89857" lon="7.10195">
        <ele>1334</ele>
        <time>2023-05-06T15:23:14Z</time>
      </trkpt>
      <trkpt lat="47.89862" lon="7.10172">
        <ele>1338</ele>
        <time>2023-05-06T15:23:38Z</time>
      </trkpt>
      <trkpt lat="47.8987" lon="7.10181">
        <ele>1340</ele>
        <time>2023-05-06T15:23:50Z</time>
      </trkpt>
      <trkpt lat="47.89886" lon="7.10185">
        <ele>1343</ele>
        <time>2023-05-06T15:24:14Z</time>
      </trkpt>
      <trkpt lat="47.89891" lon="7.10184">
        <ele>1344</ele>
        <time>2023-05-06T15:24:20Z</time>
      </trkpt>
      <trkpt lat="47.89895" lon="7.10181">
        <ele>1345</ele>
        <time>2023-05-06T15:24:26Z</time>
      </trkpt>
      <trkpt lat="47.89899" lon="7.10185">
        <ele>1346</ele>
        <time>2023-05-06T15:24:38Z</time>
      </trkpt>
      <trkpt lat="47.89903" lon="7.10189">
        <ele>1346</ele>
        <time>2023-05-06T15:24:43Z</time>
      </trkpt>
      <trkpt lat="47.89918" lon="7.10194">
        <ele>1347</ele>
        <time>2023-05-06T15:24:59Z</time>
      </trkpt>
      <trkpt lat="47.89923" lon="7.10195">
        <ele>1348</ele>
        <time>2023-05-06T15:25:04Z</time>
      </trkpt>
      <trkpt lat="47.89938" lon="7.10182">
        <ele>1349</ele>
        <time>2023-05-06T15:25:23Z</time>
      </trkpt>
      <trkpt lat="47.89958" lon="7.10175">
        <ele>1350</ele>
        <time>2023-05-06T15:25:42Z</time>
      </trkpt>
      <trkpt lat="47.89962" lon="7.10172">
        <ele>1350</ele>
        <time>2023-05-06T15:25:46Z</time>
      </trkpt>
      <trkpt lat="47.89975" lon="7.10167">
        <ele>1350</ele>
        <time>2023-05-06T15:25:59Z</time>
      </trkpt>
      <trkpt lat="47.8998" lon="7.10168">
        <ele>1351</ele>
        <time>2023-05-06T15:26:04Z</time>
      </trkpt>
      <trkpt lat="47.9" lon="7.10161">
        <ele>1354</ele>
        <time>2023-05-06T15:26:26Z</time>
      </trkpt>
      <trkpt lat="47.90012" lon="7.10148">
        <ele>1357</ele>
        <time>2023-05-06T15:26:42Z</time>
      </trkpt>
      <trkpt lat="47.90016" lon="7.10145">
        <ele>1357</ele>
        <time>2023-05-06T15:26:47Z</time>
      </trkpt>
      <trkpt lat="47.90025" lon="7.10139">
        <ele>1359</ele>
        <time>2023-05-06T15:27:00Z</time>
      </trkpt>
      <trkpt lat="47.90036" lon="7.10127">
        <ele>1362</ele>
        <time>2023-05-06T15:27:16Z</time>
      </trkpt>
      <trkpt lat="47.90059" lon="7.1011">
        <ele>1367</ele>
        <time>2023-05-06T15:27:47Z</time>
      </trkpt>
      <trkpt lat="47.90063" lon="7.10108">
        <ele>1368</ele>
        <time>2023-05-06T15:27:54Z</time>
      </trkpt>
      <trkpt lat="47.90068" lon="7.10107">
        <ele>1368</ele>
        <time>2023-05-06T15:27:58Z</time>
      </trkpt>
      <trkpt lat="47.90084" lon="7.10099">
        <ele>1370</ele>
        <time>2023-05-06T15:28:17Z</time>
      </trkpt>
      <trkpt lat="47.90108" lon="7.10095">
        <ele>1374</ele>
        <time>2023-05-06T15:28:44Z</time>
      </trkpt>
      <trkpt lat="47.90132" lon="7.10082">
        <ele>1379</ele>
        <time>2023-05-06T15:29:12Z</time>
      </trkpt>
      <trkpt lat="47.90142" lon="7.10074">
        <ele>1380</ele>
        <time>2023-05-06T15:29:24Z</time>
      </trkpt>
      <trkpt lat="47.90173" lon="7.10067">
        <ele>1384</ele>
        <time>2023-05-06T15:29:57Z</time>
      </trkpt>
      <trkpt lat="47.90183" lon="7.10065">
        <ele>1385</ele>
        <time>2023-05-06T15:30:07Z</time>
      </trkpt>
      <trkpt lat="47.90197" lon="7.10064">
        <ele>1387</ele>
        <time>2023-05-06T15:30:20Z</time>
      </trkpt>
      <trkpt lat="47.90213" lon="7.10068">
        <ele>1389</ele>
        <time>2023-05-06T15:30:38Z</time>
      </trkpt>
      <trkpt lat="47.90216" lon="7.10061">
        <ele>1390</ele>
        <time>2023-05-06T15:30:47Z</time>
      </trkpt>
      <trkpt lat="47.90196" lon="7.10043">
        <ele>1393</ele>
        <time>2023-05-06T15:31:13Z</time>
      </trkpt>
      <trkpt lat="47.90173" lon="7.10018">
        <ele>1397</ele>
        <time>2023-05-06T15:31:44Z</time>
      </trkpt>
      <trkpt lat="47.90164" lon="7.10008">
        <ele>1399</ele>
        <time>2023-05-06T15:31:57Z</time>
      </trkpt>
      <trkpt lat="47.90138" lon="7.09992">
        <ele>1403</ele>
        <time>2023-05-06T15:32:28Z</time>
      </trkpt>
      <trkpt lat="47.90107" lon="7.09974">
        <ele>1408</ele>
        <time>2023-05-06T15:33:04Z</time>
      </trkpt>
      <trkpt lat="47.90093" lon="7.09968">
        <ele>1410</ele>
        <time>2023-05-06T15:33:20Z</time>
      </trkpt>
      <trkpt lat="47.90064" lon="7.09945">
        <ele>1414</ele>
        <time>2023-05-06T15:33:53Z</time>
      </trkpt>
      <trkpt lat="47.90037" lon="7.09923">
        <ele>1416</ele>
        <time>2023-05-06T15:34:24Z</time>
      </trkpt>
      <trkpt lat="47.90022" lon="7.09918">
        <ele>1415</ele>
        <time>2023-05-06T15:34:41Z</time>
      </trkpt>
      <trkpt lat="47.90019" lon="7.09913">
        <ele>1415</ele>
        <time>2023-05-06T15:34:47Z</time>
      </trkpt>
      <trkpt lat="47.9002" lon="7.09901">
        <ele>1415</ele>
        <time>2023-05-06T15:35:05Z</time>
      </trkpt>
      <trkpt lat="47.90047" lon="7.09896">
        <ele>1418</ele>
        <time>2023-05-06T15:38:48Z</time>
      </trkpt>
      <trkpt lat="47.90076" lon="7.09875">
        <ele>1423</ele>
        <time>2023-05-06T15:39:23Z</time>
      </trkpt>
      <trkpt lat="47.90081" lon="7.0987">
        <ele>1423</ele>
        <time>2023-05-06T15:39:42Z</time>
      </trkpt>
      <trkpt lat="47.90097" lon="7.09848">
        <ele>1426</ele>
        <time>2023-05-06T15:40:06Z</time>
      </trkpt>
      <trkpt lat="47.90106" lon="7.09845">
        <ele>1426</ele>
        <time>2023-05-06T15:40:16Z</time>
      </trkpt>
      <trkpt lat="47.90113" lon="7.09846">
        <ele>1426</ele>
        <time>2023-05-06T15:40:24Z</time>
      </trkpt>
      <trkpt lat="47.90118" lon="7.0984">
        <ele>1426</ele>
        <time>2023-05-06T15:40:36Z</time>
      </trkpt>
      <trkpt lat="47.90116" lon="7.09834">
        <ele>1426</ele>
        <time>2023-05-06T15:40:41Z</time>
      </trkpt>
      <trkpt lat="47.90111" lon="7.09833">
        <ele>1428</ele>
        <time>2023-05-06T15:40:53Z</time>
      </trkpt>
      <trkpt lat="47.90104" lon="7.09828">
        <ele>1430</ele>
        <time>2023-05-06T15:41:04Z</time>
      </trkpt>
      <trkpt lat="47.90099" lon="7.09825">
        <ele>1432</ele>
        <time>2023-05-06T15:41:18Z</time>
      </trkpt>
      <trkpt lat="47.90094" lon="7.09828">
        <ele>1432</ele>
        <time>2023-05-06T15:41:30Z</time>
      </trkpt>
      <trkpt lat="47.90092" lon="7.09822">
        <ele>1433</ele>
        <time>2023-05-06T15:42:18Z</time>
      </trkpt>
      <trkpt lat="47.90096" lon="7.09818">
        <ele>1433</ele>
        <time>2023-05-06T15:42:56Z</time>
      </trkpt>
      <trkpt lat="47.90063" lon="7.09888">
        <ele>1420</ele>
        <time>2023-05-06T15:48:56Z</time>
      </trkpt>
      <trkpt lat="47.90044" lon="7.09897">
        <ele>1418</ele>
        <time>2023-05-06T15:49:18Z</time>
      </trkpt>
      <trkpt lat="47.90039" lon="7.09896">
        <ele>1418</ele>
        <time>2023-05-06T15:49:22Z</time>
      </trkpt>
      <trkpt lat="47.90028" lon="7.09892">
        <ele>1415</ele>
        <time>2023-05-06T15:49:35Z</time>
      </trkpt>
      <trkpt lat="47.90025" lon="7.09881">
        <ele>1414</ele>
        <time>2023-05-06T15:50:10Z</time>
      </trkpt>
      <trkpt lat="47.90021" lon="7.09883">
        <ele>1413</ele>
        <time>2023-05-06T15:51:16Z</time>
      </trkpt>
      <trkpt lat="47.90016" lon="7.0988">
        <ele>1412</ele>
        <time>2023-05-06T15:51:27Z</time>
      </trkpt>
      <trkpt lat="47.89998" lon="7.09906">
        <ele>1409</ele>
        <time>2023-05-06T15:51:57Z</time>
      </trkpt>
      <trkpt lat="47.89994" lon="7.09913">
        <ele>1409</ele>
        <time>2023-05-06T15:52:04Z</time>
      </trkpt>
      <trkpt lat="47.89985" lon="7.09934">
        <ele>1407</ele>
        <time>2023-05-06T15:52:23Z</time>
      </trkpt>
      <trkpt lat="47.89985" lon="7.0994">
        <ele>1407</ele>
        <time>2023-05-06T15:52:28Z</time>
      </trkpt>
      <trkpt lat="47.89987" lon="7.09946">
        <ele>1407</ele>
        <time>2023-05-06T15:52:32Z</time>
      </trkpt>
      <trkpt lat="47.89994" lon="7.09955">
        <ele>1407</ele>
        <time>2023-05-06T15:52:41Z</time>
      </trkpt>
      <trkpt lat="47.9" lon="7.09959">
        <ele>1406</ele>
        <time>2023-05-06T15:52:48Z</time>
      </trkpt>
      <trkpt lat="47.9002" lon="7.09963">
        <ele>1407</ele>
        <time>2023-05-06T15:53:10Z</time>
      </trkpt>
      <trkpt lat="47.90024" lon="7.09969">
        <ele>1406</ele>
        <time>2023-05-06T15:53:20Z</time>
      </trkpt>
      <trkpt lat="47.9002" lon="7.0998">
        <ele>1403</ele>
        <time>2023-05-06T15:53:31Z</time>
      </trkpt>
      <trkpt lat="47.90011" lon="7.09983">
        <ele>1402</ele>
        <time>2023-05-06T15:53:42Z</time>
      </trkpt>
      <trkpt lat="47.9" lon="7.09993">
        <ele>1399</ele>
        <time>2023-05-06T15:53:56Z</time>
      </trkpt>
      <trkpt lat="47.89993" lon="7.09997">
        <ele>1398</ele>
        <time>2023-05-06T15:54:05Z</time>
      </trkpt>
      <trkpt lat="47.89972" lon="7.09997">
        <ele>1396</ele>
        <time>2023-05-06T15:54:36Z</time>
      </trkpt>
      <trkpt lat="47.89967" lon="7.09997">
        <ele>1395</ele>
        <time>2023-05-06T15:54:42Z</time>
      </trkpt>
      <trkpt lat="47.89954" lon="7.09992">
        <ele>1392</ele>
        <time>2023-05-06T15:55:02Z</time>
      </trkpt>
      <trkpt lat="47.8995" lon="7.09987">
        <ele>1391</ele>
        <time>2023-05-06T15:55:08Z</time>
      </trkpt>
      <trkpt lat="47.89948" lon="7.09981">
        <ele>1390</ele>
        <time>2023-05-06T15:55:14Z</time>
      </trkpt>
      <trkpt lat="47.89928" lon="7.09954">
        <ele>1386</ele>
        <time>2023-05-06T15:55:49Z</time>
      </trkpt>
      <trkpt lat="47.89924" lon="7.09951">
        <ele>1386</ele>
        <time>2023-05-06T15:55:55Z</time>
      </trkpt>
      <trkpt lat="47.89907" lon="7.09933">
        <ele>1382</ele>
        <time>2023-05-06T15:56:27Z</time>
      </trkpt>
      <trkpt lat="47.89902" lon="7.09925">
        <ele>1381</ele>
        <time>2023-05-06T15:56:39Z</time>
      </trkpt>
      <trkpt lat="47.899" lon="7.09915">
        <ele>1379</ele>
        <time>2023-05-06T15:56:51Z</time>
      </trkpt>
      <trkpt lat="47.89903" lon="7.09899">
        <ele>1378</ele>
        <time>2023-05-06T15:57:08Z</time>
      </trkpt>
      <trkpt lat="47.8991" lon="7.09888">
        <ele>1376</ele>
        <time>2023-05-06T15:57:19Z</time>
      </trkpt>
      <trkpt lat="47.89911" lon="7.09881">
        <ele>1376</ele>
        <time>2023-05-06T15:57:24Z</time>
      </trkpt>
      <trkpt lat="47.89915" lon="7.09875">
        <ele>1375</ele>
        <time>2023-05-06T15:57:29Z</time>
      </trkpt>
      <trkpt lat="47.8992" lon="7.09857">
        <ele>1373</ele>
        <time>2023-05-06T15:57:43Z</time>
      </trkpt>
      <trkpt lat="47.89923" lon="7.09852">
        <ele>1372</ele>
        <time>2023-05-06T15:57:48Z</time>
      </trkpt>
      <trkpt lat="47.89924" lon="7.09845">
        <ele>1371</ele>
        <time>2023-05-06T15:57:53Z</time>
      </trkpt>
      <trkpt lat="47.89927" lon="7.09838">
        <ele>1370</ele>
        <time>2023-05-06T15:58:02Z</time>
      </trkpt>
      <trkpt lat="47.8993" lon="7.09824">
        <ele>1369</ele>
        <time>2023-05-06T15:58:12Z</time>
      </trkpt>
      <trkpt lat="47.89932" lon="7.09817">
        <ele>1368</ele>
        <time>2023-05-06T15:58:17Z</time>
      </trkpt>
      <trkpt lat="47.89935" lon="7.09813">
        <ele>1368</ele>
        <time>2023-05-06T15:58:22Z</time>
      </trkpt>
      <trkpt lat="47.89936" lon="7.09806">
        <ele>1367</ele>
        <time>2023-05-06T15:58:28Z</time>
      </trkpt>
      <trkpt lat="47.89939" lon="7.09797">
        <ele>1365</ele>
        <time>2023-05-06T15:58:36Z</time>
      </trkpt>
      <trkpt lat="47.89939" lon="7.0979">
        <ele>1364</ele>
        <time>2023-05-06T15:58:40Z</time>
      </trkpt>
      <trkpt lat="47.89945" lon="7.09779">
        <ele>1363</ele>
        <time>2023-05-06T15:58:49Z</time>
      </trkpt>
      <trkpt lat="47.89949" lon="7.09774">
        <ele>1363</ele>
        <time>2023-05-06T15:58:54Z</time>
      </trkpt>
      <trkpt lat="47.89949" lon="7.09765">
        <ele>1361</ele>
        <time>2023-05-06T15:59:01Z</time>
      </trkpt>
      <trkpt lat="47.89962" lon="7.09746">
        <ele>1359</ele>
        <time>2023-05-06T15:59:32Z</time>
      </trkpt>
      <trkpt lat="47.89975" lon="7.09718">
        <ele>1355</ele>
        <time>2023-05-06T15:59:55Z</time>
      </trkpt>
      <trkpt lat="47.89977" lon="7.09713">
        <ele>1355</ele>
        <time>2023-05-06T16:00:00Z</time>
      </trkpt>
      <trkpt lat="47.89989" lon="7.09691">
        <ele>1350</ele>
        <time>2023-05-06T16:00:37Z</time>
      </trkpt>
      <trkpt lat="47.89993" lon="7.09686">
        <ele>1349</ele>
        <time>2023-05-06T16:00:41Z</time>
      </trkpt>
      <trkpt lat="47.89994" lon="7.09679">
        <ele>1349</ele>
        <time>2023-05-06T16:00:45Z</time>
      </trkpt>
      <trkpt lat="47.89998" lon="7.09675">
        <ele>1348</ele>
        <time>2023-05-06T16:00:53Z</time>
      </trkpt>
      <trkpt lat="47.89998" lon="7.09668">
        <ele>1347</ele>
        <time>2023-05-06T16:00:58Z</time>
      </trkpt>
      <trkpt lat="47.90003" lon="7.09656">
        <ele>1345</ele>
        <time>2023-05-06T16:01:07Z</time>
      </trkpt>
      <trkpt lat="47.90005" lon="7.0965">
        <ele>1344</ele>
        <time>2023-05-06T16:01:11Z</time>
      </trkpt>
      <trkpt lat="47.90011" lon="7.09647">
        <ele>1344</ele>
        <time>2023-05-06T16:01:31Z</time>
      </trkpt>
      <trkpt lat="47.90018" lon="7.09635">
        <ele>1343</ele>
        <time>2023-05-06T16:01:38Z</time>
      </trkpt>
      <trkpt lat="47.90018" lon="7.09628">
        <ele>1342</ele>
        <time>2023-05-06T16:01:43Z</time>
      </trkpt>
      <trkpt lat="47.90026" lon="7.09616">
        <ele>1340</ele>
        <time>2023-05-06T16:01:56Z</time>
      </trkpt>
      <trkpt lat="47.90027" lon="7.09609">
        <ele>1339</ele>
        <time>2023-05-06T16:02:02Z</time>
      </trkpt>
      <trkpt lat="47.90033" lon="7.09601">
        <ele>1338</ele>
        <time>2023-05-06T16:02:10Z</time>
      </trkpt>
      <trkpt lat="47.90042" lon="7.09583">
        <ele>1334</ele>
        <time>2023-05-06T16:02:31Z</time>
      </trkpt>
      <trkpt lat="47.90057" lon="7.09571">
        <ele>1330</ele>
        <time>2023-05-06T16:02:51Z</time>
      </trkpt>
      <trkpt lat="47.90062" lon="7.09569">
        <ele>1330</ele>
        <time>2023-05-06T16:02:56Z</time>
      </trkpt>
      <trkpt lat="47.90086" lon="7.09554">
        <ele>1326</ele>
        <time>2023-05-06T16:03:28Z</time>
      </trkpt>
      <trkpt lat="47.90098" lon="7.09546">
        <ele>1322</ele>
        <time>2023-05-06T16:03:46Z</time>
      </trkpt>
      <trkpt lat="47.90101" lon="7.09541">
        <ele>1321</ele>
        <time>2023-05-06T16:03:51Z</time>
      </trkpt>
      <trkpt lat="47.90105" lon="7.09537">
        <ele>1320</ele>
        <time>2023-05-06T16:03:56Z</time>
      </trkpt>
      <trkpt lat="47.90113" lon="7.09528">
        <ele>1318</ele>
        <time>2023-05-06T16:04:06Z</time>
      </trkpt>
      <trkpt lat="47.90124" lon="7.09518">
        <ele>1317</ele>
        <time>2023-05-06T16:04:18Z</time>
      </trkpt>
      <trkpt lat="47.90139" lon="7.09509">
        <ele>1314</ele>
        <time>2023-05-06T16:04:35Z</time>
      </trkpt>
      <trkpt lat="47.90143" lon="7.09505">
        <ele>1314</ele>
        <time>2023-05-06T16:04:39Z</time>
      </trkpt>
      <trkpt lat="47.90147" lon="7.09503">
        <ele>1313</ele>
        <time>2023-05-06T16:04:45Z</time>
      </trkpt>
      <trkpt lat="47.9015" lon="7.09497">
        <ele>1311</ele>
        <time>2023-05-06T16:04:50Z</time>
      </trkpt>
      <trkpt lat="47.90155" lon="7.09496">
        <ele>1310</ele>
        <time>2023-05-06T16:04:54Z</time>
      </trkpt>
      <trkpt lat="47.90163" lon="7.0949">
        <ele>1310</ele>
        <time>2023-05-06T16:05:02Z</time>
      </trkpt>
      <trkpt lat="47.90172" lon="7.0948">
        <ele>1307</ele>
        <time>2023-05-06T16:05:13Z</time>
      </trkpt>
      <trkpt lat="47.90182" lon="7.09466">
        <ele>1304</ele>
        <time>2023-05-06T16:05:29Z</time>
      </trkpt>
      <trkpt lat="47.90185" lon="7.09461">
        <ele>1304</ele>
        <time>2023-05-06T16:05:33Z</time>
      </trkpt>
      <trkpt lat="47.90188" lon="7.09455">
        <ele>1304</ele>
        <time>2023-05-06T16:05:37Z</time>
      </trkpt>
      <trkpt lat="47.9019" lon="7.09446">
        <ele>1303</ele>
        <time>2023-05-06T16:05:43Z</time>
      </trkpt>
      <trkpt lat="47.9019" lon="7.0944">
        <ele>1302</ele>
        <time>2023-05-06T16:05:47Z</time>
      </trkpt>
      <trkpt lat="47.90189" lon="7.09432">
        <ele>1302</ele>
        <time>2023-05-06T16:05:52Z</time>
      </trkpt>
      <trkpt lat="47.90186" lon="7.09427">
        <ele>1301</ele>
        <time>2023-05-06T16:05:56Z</time>
      </trkpt>
      <trkpt lat="47.90184" lon="7.0941">
        <ele>1299</ele>
        <time>2023-05-06T16:06:08Z</time>
      </trkpt>
      <trkpt lat="47.90185" lon="7.09402">
        <ele>1299</ele>
        <time>2023-05-06T16:06:16Z</time>
      </trkpt>
      <trkpt lat="47.90185" lon="7.09395">
        <ele>1300</ele>
        <time>2023-05-06T16:06:21Z</time>
      </trkpt>
      <trkpt lat="47.90187" lon="7.09388">
        <ele>1300</ele>
        <time>2023-05-06T16:06:26Z</time>
      </trkpt>
      <trkpt lat="47.9019" lon="7.09384">
        <ele>1300</ele>
        <time>2023-05-06T16:06:30Z</time>
      </trkpt>
      <trkpt lat="47.90198" lon="7.09354">
        <ele>1298</ele>
        <time>2023-05-06T16:06:52Z</time>
      </trkpt>
      <trkpt lat="47.90201" lon="7.0935">
        <ele>1298</ele>
        <time>2023-05-06T16:06:56Z</time>
      </trkpt>
      <trkpt lat="47.90207" lon="7.09338">
        <ele>1297</ele>
        <time>2023-05-06T16:07:05Z</time>
      </trkpt>
      <trkpt lat="47.90211" lon="7.09333">
        <ele>1296</ele>
        <time>2023-05-06T16:07:10Z</time>
      </trkpt>
      <trkpt lat="47.90214" lon="7.09327">
        <ele>1295</ele>
        <time>2023-05-06T16:07:15Z</time>
      </trkpt>
      <trkpt lat="47.90218" lon="7.09324">
        <ele>1294</ele>
        <time>2023-05-06T16:07:19Z</time>
      </trkpt>
      <trkpt lat="47.90225" lon="7.09308">
        <ele>1293</ele>
        <time>2023-05-06T16:07:31Z</time>
      </trkpt>
      <trkpt lat="47.90231" lon="7.09303">
        <ele>1291</ele>
        <time>2023-05-06T16:07:38Z</time>
      </trkpt>
      <trkpt lat="47.90239" lon="7.09293">
        <ele>1290</ele>
        <time>2023-05-06T16:07:49Z</time>
      </trkpt>
      <trkpt lat="47.90259" lon="7.09288">
        <ele>1287</ele>
        <time>2023-05-06T16:08:07Z</time>
      </trkpt>
      <trkpt lat="47.90271" lon="7.09288">
        <ele>1286</ele>
        <time>2023-05-06T16:08:21Z</time>
      </trkpt>
      <trkpt lat="47.90306" lon="7.09283">
        <ele>1279</ele>
        <time>2023-05-06T16:08:57Z</time>
      </trkpt>
      <trkpt lat="47.90339" lon="7.09286">
        <ele>1274</ele>
        <time>2023-05-06T16:09:31Z</time>
      </trkpt>
      <trkpt lat="47.90354" lon="7.0929">
        <ele>1271</ele>
        <time>2023-05-06T16:09:48Z</time>
      </trkpt>
      <trkpt lat="47.90366" lon="7.09289">
        <ele>1269</ele>
        <time>2023-05-06T16:10:01Z</time>
      </trkpt>
      <trkpt lat="47.9039" lon="7.09296">
        <ele>1265</ele>
        <time>2023-05-06T16:10:26Z</time>
      </trkpt>
      <trkpt lat="47.90395" lon="7.09295">
        <ele>1264</ele>
        <time>2023-05-06T16:10:31Z</time>
      </trkpt>
      <trkpt lat="47.90402" lon="7.09285">
        <ele>1262</ele>
        <time>2023-05-06T16:10:41Z</time>
      </trkpt>
      <trkpt lat="47.90416" lon="7.09249">
        <ele>1256</ele>
        <time>2023-05-06T16:11:13Z</time>
      </trkpt>
      <trkpt lat="47.90426" lon="7.09214">
        <ele>1251</ele>
        <time>2023-05-06T16:11:41Z</time>
      </trkpt>
      <trkpt lat="47.90426" lon="7.09207">
        <ele>1249</ele>
        <time>2023-05-06T16:11:46Z</time>
      </trkpt>
      <trkpt lat="47.90434" lon="7.09178">
        <ele>1246</ele>
        <time>2023-05-06T16:12:08Z</time>
      </trkpt>
      <trkpt lat="47.90442" lon="7.0916">
        <ele>1243</ele>
        <time>2023-05-06T16:12:23Z</time>
      </trkpt>
      <trkpt lat="47.9045" lon="7.09135">
        <ele>1241</ele>
        <time>2023-05-06T16:12:41Z</time>
      </trkpt>
      <trkpt lat="47.90452" lon="7.09129">
        <ele>1240</ele>
        <time>2023-05-06T16:12:46Z</time>
      </trkpt>
      <trkpt lat="47.90461" lon="7.09099">
        <ele>1237</ele>
        <time>2023-05-06T16:13:09Z</time>
      </trkpt>
      <trkpt lat="47.9048" lon="7.09065">
        <ele>1235</ele>
        <time>2023-05-06T16:13:38Z</time>
      </trkpt>
      <trkpt lat="47.90486" lon="7.09059">
        <ele>1235</ele>
        <time>2023-05-06T16:13:46Z</time>
      </trkpt>
      <trkpt lat="47.90498" lon="7.09038">
        <ele>1233</ele>
        <time>2023-05-06T16:14:04Z</time>
      </trkpt>
      <trkpt lat="47.90504" lon="7.09032">
        <ele>1233</ele>
        <time>2023-05-06T16:14:12Z</time>
      </trkpt>
      <trkpt lat="47.90505" lon="7.09026">
        <ele>1232</ele>
        <time>2023-05-06T16:14:16Z</time>
      </trkpt>
      <trkpt lat="47.90512" lon="7.08991">
        <ele>1232</ele>
        <time>2023-05-06T16:14:42Z</time>
      </trkpt>
      <trkpt lat="47.90514" lon="7.08981">
        <ele>1232</ele>
        <time>2023-05-06T16:14:49Z</time>
      </trkpt>
      <trkpt lat="47.90516" lon="7.08974">
        <ele>1232</ele>
        <time>2023-05-06T16:14:54Z</time>
      </trkpt>
      <trkpt lat="47.90517" lon="7.08961">
        <ele>1232</ele>
        <time>2023-05-06T16:15:02Z</time>
      </trkpt>
      <trkpt lat="47.90516" lon="7.08955">
        <ele>1233</ele>
        <time>2023-05-06T16:15:07Z</time>
      </trkpt>
      <trkpt lat="47.90511" lon="7.08951">
        <ele>1233</ele>
        <time>2023-05-06T16:15:12Z</time>
      </trkpt>
      <trkpt lat="47.90497" lon="7.08933">
        <ele>1234</ele>
        <time>2023-05-06T16:15:33Z</time>
      </trkpt>
      <trkpt lat="47.90494" lon="7.08928">
        <ele>1234</ele>
        <time>2023-05-06T16:15:38Z</time>
      </trkpt>
      <trkpt lat="47.90483" lon="7.08879">
        <ele>1233</ele>
        <time>2023-05-06T16:16:11Z</time>
      </trkpt>
      <trkpt lat="47.90482" lon="7.08873">
        <ele>1233</ele>
        <time>2023-05-06T16:16:15Z</time>
      </trkpt>
      <trkpt lat="47.90477" lon="7.08866">
        <ele>1233</ele>
        <time>2023-05-06T16:16:22Z</time>
      </trkpt>
      <trkpt lat="47.90472" lon="7.08859">
        <ele>1232</ele>
        <time>2023-05-06T16:16:30Z</time>
      </trkpt>
      <trkpt lat="47.90477" lon="7.08832">
        <ele>1235</ele>
        <time>2023-05-06T16:16:52Z</time>
      </trkpt>
      <trkpt lat="47.90477" lon="7.08822">
        <ele>1236</ele>
        <time>2023-05-06T16:17:03Z</time>
      </trkpt>
      <trkpt lat="47.90472" lon="7.08786">
        <ele>1237</ele>
        <time>2023-05-06T16:17:29Z</time>
      </trkpt>
      <trkpt lat="47.90466" lon="7.08767">
        <ele>1236</ele>
        <time>2023-05-06T16:17:42Z</time>
      </trkpt>
      <trkpt lat="47.90455" lon="7.08738">
        <ele>1235</ele>
        <time>2023-05-06T16:18:02Z</time>
      </trkpt>
      <trkpt lat="47.90439" lon="7.08695">
        <ele>1237</ele>
        <time>2023-05-06T16:18:34Z</time>
      </trkpt>
      <trkpt lat="47.90428" lon="7.08664">
        <ele>1239</ele>
        <time>2023-05-06T16:18:57Z</time>
      </trkpt>
      <trkpt lat="47.90424" lon="7.08649">
        <ele>1241</ele>
        <time>2023-05-06T16:19:10Z</time>
      </trkpt>
      <trkpt lat="47.9041" lon="7.08613">
        <ele>1246</ele>
        <time>2023-05-06T16:19:44Z</time>
      </trkpt>
      <trkpt lat="47.90405" lon="7.086">
        <ele>1247</ele>
        <time>2023-05-06T16:19:55Z</time>
      </trkpt>
      <trkpt lat="47.90402" lon="7.08592">
        <ele>1249</ele>
        <time>2023-05-06T16:20:04Z</time>
      </trkpt>
      <trkpt lat="47.90401" lon="7.08583">
        <ele>1251</ele>
        <time>2023-05-06T16:20:16Z</time>
      </trkpt>
      <trkpt lat="47.90405" lon="7.08582">
        <ele>1252</ele>
        <time>2023-05-06T16:20:34Z</time>
      </trkpt>
      <trkpt lat="47.90371" lon="7.08474">
        <ele>1271</ele>
        <time>2023-05-06T16:32:11Z</time>
      </trkpt>
      <trkpt lat="47.90371" lon="7.08473">
        <ele>1271</ele>
        <time>2023-05-06T16:32:12Z</time>
      </trkpt>
      <trkpt lat="47.90369" lon="7.08467">
        <ele>1272</ele>
        <time>2023-05-06T16:32:16Z</time>
      </trkpt>
      <trkpt lat="47.90369" lon="7.08457">
        <ele>1274</ele>
        <time>2023-05-06T16:32:29Z</time>
      </trkpt>
      <trkpt lat="47.90366" lon="7.08448">
        <ele>1277</ele>
        <time>2023-05-06T16:32:41Z</time>
      </trkpt>
      <trkpt lat="47.90362" lon="7.08417">
        <ele>1281</ele>
        <time>2023-05-06T16:33:11Z</time>
      </trkpt>
      <trkpt lat="47.90361" lon="7.08409">
        <ele>1282</ele>
        <time>2023-05-06T16:33:17Z</time>
      </trkpt>
      <trkpt lat="47.90361" lon="7.08389">
        <ele>1285</ele>
        <time>2023-05-06T16:33:37Z</time>
      </trkpt>
      <trkpt lat="47.90356" lon="7.08365">
        <ele>1290</ele>
        <time>2023-05-06T16:34:08Z</time>
      </trkpt>
      <trkpt lat="47.90355" lon="7.08358">
        <ele>1292</ele>
        <time>2023-05-06T16:34:20Z</time>
      </trkpt>
      <trkpt lat="47.90355" lon="7.0835">
        <ele>1294</ele>
        <time>2023-05-06T16:34:32Z</time>
      </trkpt>
      <trkpt lat="47.90355" lon="7.08336">
        <ele>1297</ele>
        <time>2023-05-06T16:34:51Z</time>
      </trkpt>
      <trkpt lat="47.90353" lon="7.08328">
        <ele>1299</ele>
        <time>2023-05-06T16:35:03Z</time>
      </trkpt>
      <trkpt lat="47.9035" lon="7.08299">
        <ele>1306</ele>
        <time>2023-05-06T16:35:38Z</time>
      </trkpt>
      <trkpt lat="47.90348" lon="7.08284">
        <ele>1309</ele>
        <time>2023-05-06T16:35:56Z</time>
      </trkpt>
      <trkpt lat="47.90346" lon="7.08277">
        <ele>1312</ele>
        <time>2023-05-06T16:36:08Z</time>
      </trkpt>
      <trkpt lat="47.90345" lon="7.08239">
        <ele>1319</ele>
        <time>2023-05-06T16:36:54Z</time>
      </trkpt>
      <trkpt lat="47.90343" lon="7.08231">
        <ele>1321</ele>
        <time>2023-05-06T16:37:06Z</time>
      </trkpt>
      <trkpt lat="47.90341" lon="7.082">
        <ele>1326</ele>
        <time>2023-05-06T16:37:41Z</time>
      </trkpt>
      <trkpt lat="47.90336" lon="7.08165">
        <ele>1334</ele>
        <time>2023-05-06T16:38:33Z</time>
      </trkpt>
      <trkpt lat="47.90331" lon="7.08151">
        <ele>1337</ele>
        <time>2023-05-06T16:38:57Z</time>
      </trkpt>
      <trkpt lat="47.90324" lon="7.08118">
        <ele>1341</ele>
        <time>2023-05-06T16:39:28Z</time>
      </trkpt>
      <trkpt lat="47.90324" lon="7.08111">
        <ele>1342</ele>
        <time>2023-05-06T16:39:34Z</time>
      </trkpt>
      <trkpt lat="47.90318" lon="7.08084">
        <ele>1344</ele>
        <time>2023-05-06T16:39:58Z</time>
      </trkpt>
      <trkpt lat="47.90315" lon="7.08078">
        <ele>1344</ele>
        <time>2023-05-06T16:40:05Z</time>
      </trkpt>
      <trkpt lat="47.90313" lon="7.08069">
        <ele>1345</ele>
        <time>2023-05-06T16:40:17Z</time>
      </trkpt>
      <trkpt lat="47.90311" lon="7.08056">
        <ele>1346</ele>
        <time>2023-05-06T16:40:28Z</time>
      </trkpt>
      <trkpt lat="47.90306" lon="7.08013">
        <ele>1347</ele>
        <time>2023-05-06T16:40:59Z</time>
      </trkpt>
      <trkpt lat="47.90298" lon="7.07991">
        <ele>1348</ele>
        <time>2023-05-06T16:41:19Z</time>
      </trkpt>
      <trkpt lat="47.90281" lon="7.07987">
        <ele>1349</ele>
        <time>2023-05-06T16:41:41Z</time>
      </trkpt>
      <trkpt lat="47.90275" lon="7.07981">
        <ele>1349</ele>
        <time>2023-05-06T16:41:53Z</time>
      </trkpt>
      <trkpt lat="47.90271" lon="7.07979">
        <ele>1349</ele>
        <time>2023-05-06T16:42:10Z</time>
      </trkpt>
      <trkpt lat="47.90266" lon="7.07987">
        <ele>1349</ele>
        <time>2023-05-06T16:42:18Z</time>
      </trkpt>
      <trkpt lat="47.90261" lon="7.07992">
        <ele>1350</ele>
        <time>2023-05-06T16:42:26Z</time>
      </trkpt>
      <trkpt lat="47.90258" lon="7.07998">
        <ele>1350</ele>
        <time>2023-05-06T16:42:42Z</time>
      </trkpt>
      <trkpt lat="47.90265" lon="7.08004">
        <ele>1350</ele>
        <time>2023-05-06T16:43:00Z</time>
      </trkpt>
      <trkpt lat="47.90262" lon="7.08001">
        <ele>1349</ele>
        <time>2023-05-06T16:43:50Z</time>
      </trkpt>
      <trkpt lat="47.90261" lon="7.07994">
        <ele>1350</ele>
        <time>2023-05-06T16:43:58Z</time>
      </trkpt>
    </trkseg>
  </trk>
  <trk>
    <name><![CDATA[7 mai 2023 à 07:01:04]]></name>
    <extensions>
      <line xmlns="http://www.topografix.com/GPX/gpx_style/0/2">
        <color>FF0000</color>
        <width>4</width>
      </line>
    </extensions>
    <trkseg>
      <trkpt lat="47.90263" lon="7.0797">
        <ele>1349</ele>
        <time>2023-05-07T05:01:04Z</time>
      </trkpt>
      <trkpt lat="47.90263" lon="7.0797">
        <ele>1349</ele>
        <time>2023-05-07T05:01:05Z</time>
      </trkpt>
      <trkpt lat="47.90259" lon="7.07954">
        <ele>1347</ele>
        <time>2023-05-07T05:01:20Z</time>
      </trkpt>
      <trkpt lat="47.90258" lon="7.07947">
        <ele>1348</ele>
        <time>2023-05-07T05:01:26Z</time>
      </trkpt>
      <trkpt lat="47.90259" lon="7.07933">
        <ele>1346</ele>
        <time>2023-05-07T05:01:35Z</time>
      </trkpt>
      <trkpt lat="47.90264" lon="7.07922">
        <ele>1344</ele>
        <time>2023-05-07T05:01:44Z</time>
      </trkpt>
      <trkpt lat="47.90265" lon="7.07917">
        <ele>1344</ele>
        <time>2023-05-07T05:01:53Z</time>
      </trkpt>
      <trkpt lat="47.90264" lon="7.07909">
        <ele>1343</ele>
        <time>2023-05-07T05:01:58Z</time>
      </trkpt>
      <trkpt lat="47.90266" lon="7.07902">
        <ele>1343</ele>
        <time>2023-05-07T05:02:02Z</time>
      </trkpt>
      <trkpt lat="47.9027" lon="7.07887">
        <ele>1341</ele>
        <time>2023-05-07T05:02:14Z</time>
      </trkpt>
      <trkpt lat="47.90296" lon="7.07853">
        <ele>1334</ele>
        <time>2023-05-07T05:02:45Z</time>
      </trkpt>
      <trkpt lat="47.90306" lon="7.0784">
        <ele>1332</ele>
        <time>2023-05-07T05:02:58Z</time>
      </trkpt>
      <trkpt lat="47.90311" lon="7.07825">
        <ele>1328</ele>
        <time>2023-05-07T05:03:10Z</time>
      </trkpt>
      <trkpt lat="47.90314" lon="7.07819">
        <ele>1327</ele>
        <time>2023-05-07T05:03:15Z</time>
      </trkpt>
      <trkpt lat="47.90317" lon="7.07811">
        <ele>1325</ele>
        <time>2023-05-07T05:03:24Z</time>
      </trkpt>
      <trkpt lat="47.90325" lon="7.07786">
        <ele>1320</ele>
        <time>2023-05-07T05:03:44Z</time>
      </trkpt>
      <trkpt lat="47.90334" lon="7.07775">
        <ele>1318</ele>
        <time>2023-05-07T05:03:56Z</time>
      </trkpt>
      <trkpt lat="47.90338" lon="7.07765">
        <ele>1317</ele>
        <time>2023-05-07T05:04:05Z</time>
      </trkpt>
      <trkpt lat="47.90353" lon="7.07728">
        <ele>1310</ele>
        <time>2023-05-07T05:04:31Z</time>
      </trkpt>
      <trkpt lat="47.90357" lon="7.07723">
        <ele>1310</ele>
        <time>2023-05-07T05:04:36Z</time>
      </trkpt>
      <trkpt lat="47.90361" lon="7.07718">
        <ele>1310</ele>
        <time>2023-05-07T05:04:40Z</time>
      </trkpt>
      <trkpt lat="47.90362" lon="7.07711">
        <ele>1310</ele>
        <time>2023-05-07T05:04:44Z</time>
      </trkpt>
      <trkpt lat="47.90365" lon="7.07703">
        <ele>1309</ele>
        <time>2023-05-07T05:04:49Z</time>
      </trkpt>
      <trkpt lat="47.90369" lon="7.07701">
        <ele>1308</ele>
        <time>2023-05-07T05:04:53Z</time>
      </trkpt>
      <trkpt lat="47.90372" lon="7.07696">
        <ele>1309</ele>
        <time>2023-05-07T05:04:57Z</time>
      </trkpt>
      <trkpt lat="47.90375" lon="7.07692">
        <ele>1308</ele>
        <time>2023-05-07T05:05:01Z</time>
      </trkpt>
      <trkpt lat="47.90376" lon="7.07684">
        <ele>1307</ele>
        <time>2023-05-07T05:05:07Z</time>
      </trkpt>
      <trkpt lat="47.9038" lon="7.07678">
        <ele>1306</ele>
        <time>2023-05-07T05:05:12Z</time>
      </trkpt>
      <trkpt lat="47.90385" lon="7.07677">
        <ele>1305</ele>
        <time>2023-05-07T05:05:16Z</time>
      </trkpt>
      <trkpt lat="47.9039" lon="7.07675">
        <ele>1306</ele>
        <time>2023-05-07T05:05:20Z</time>
      </trkpt>
      <trkpt lat="47.90394" lon="7.07673">
        <ele>1307</ele>
        <time>2023-05-07T05:05:25Z</time>
      </trkpt>
      <trkpt lat="47.90397" lon="7.07665">
        <ele>1307</ele>
        <time>2023-05-07T05:05:30Z</time>
      </trkpt>
      <trkpt lat="47.90398" lon="7.07659">
        <ele>1306</ele>
        <time>2023-05-07T05:05:33Z</time>
      </trkpt>
      <trkpt lat="47.90403" lon="7.07659">
        <ele>1306</ele>
        <time>2023-05-07T05:05:37Z</time>
      </trkpt>
      <trkpt lat="47.90403" lon="7.07651">
        <ele>1305</ele>
        <time>2023-05-07T05:05:42Z</time>
      </trkpt>
      <trkpt lat="47.90405" lon="7.07645">
        <ele>1304</ele>
        <time>2023-05-07T05:05:46Z</time>
      </trkpt>
      <trkpt lat="47.90408" lon="7.07641">
        <ele>1303</ele>
        <time>2023-05-07T05:05:51Z</time>
      </trkpt>
      <trkpt lat="47.90411" lon="7.07629">
        <ele>1300</ele>
        <time>2023-05-07T05:06:00Z</time>
      </trkpt>
      <trkpt lat="47.90414" lon="7.07624">
        <ele>1299</ele>
        <time>2023-05-07T05:06:04Z</time>
      </trkpt>
      <trkpt lat="47.90418" lon="7.07613">
        <ele>1296</ele>
        <time>2023-05-07T05:06:13Z</time>
      </trkpt>
      <trkpt lat="47.9042" lon="7.07607">
        <ele>1295</ele>
        <time>2023-05-07T05:06:17Z</time>
      </trkpt>
      <trkpt lat="47.90419" lon="7.07599">
        <ele>1295</ele>
        <time>2023-05-07T05:06:20Z</time>
      </trkpt>
      <trkpt lat="47.9042" lon="7.07593">
        <ele>1294</ele>
        <time>2023-05-07T05:06:23Z</time>
      </trkpt>
      <trkpt lat="47.90419" lon="7.07587">
        <ele>1293</ele>
        <time>2023-05-07T05:06:26Z</time>
      </trkpt>
      <trkpt lat="47.9042" lon="7.07579">
        <ele>1292</ele>
        <time>2023-05-07T05:06:30Z</time>
      </trkpt>
      <trkpt lat="47.9042" lon="7.07571">
        <ele>1292</ele>
        <time>2023-05-07T05:06:34Z</time>
      </trkpt>
      <trkpt lat="47.90422" lon="7.07563">
        <ele>1292</ele>
        <time>2023-05-07T05:06:38Z</time>
      </trkpt>
      <trkpt lat="47.90426" lon="7.0755">
        <ele>1292</ele>
        <time>2023-05-07T05:06:47Z</time>
      </trkpt>
      <trkpt lat="47.9043" lon="7.07547">
        <ele>1291</ele>
        <time>2023-05-07T05:06:51Z</time>
      </trkpt>
      <trkpt lat="47.9043" lon="7.07537">
        <ele>1291</ele>
        <time>2023-05-07T05:06:57Z</time>
      </trkpt>
      <trkpt lat="47.90434" lon="7.07524">
        <ele>1290</ele>
        <time>2023-05-07T05:07:04Z</time>
      </trkpt>
      <trkpt lat="47.90436" lon="7.07518">
        <ele>1289</ele>
        <time>2023-05-07T05:07:07Z</time>
      </trkpt>
      <trkpt lat="47.90438" lon="7.07511">
        <ele>1289</ele>
        <time>2023-05-07T05:07:11Z</time>
      </trkpt>
      <trkpt lat="47.90439" lon="7.07504">
        <ele>1289</ele>
        <time>2023-05-07T05:07:15Z</time>
      </trkpt>
      <trkpt lat="47.90441" lon="7.07497">
        <ele>1288</ele>
        <time>2023-05-07T05:07:20Z</time>
      </trkpt>
      <trkpt lat="47.90443" lon="7.07484">
        <ele>1287</ele>
        <time>2023-05-07T05:07:28Z</time>
      </trkpt>
      <trkpt lat="47.90441" lon="7.07478">
        <ele>1286</ele>
        <time>2023-05-07T05:07:31Z</time>
      </trkpt>
      <trkpt lat="47.90442" lon="7.0747">
        <ele>1286</ele>
        <time>2023-05-07T05:07:35Z</time>
      </trkpt>
      <trkpt lat="47.9044" lon="7.07464">
        <ele>1286</ele>
        <time>2023-05-07T05:07:38Z</time>
      </trkpt>
      <trkpt lat="47.90442" lon="7.07458">
        <ele>1286</ele>
        <time>2023-05-07T05:07:40Z</time>
      </trkpt>
      <trkpt lat="47.90443" lon="7.07442">
        <ele>1286</ele>
        <time>2023-05-07T05:07:48Z</time>
      </trkpt>
      <trkpt lat="47.90443" lon="7.07436">
        <ele>1287</ele>
        <time>2023-05-07T05:07:52Z</time>
      </trkpt>
      <trkpt lat="47.90448" lon="7.07421">
        <ele>1288</ele>
        <time>2023-05-07T05:08:02Z</time>
      </trkpt>
      <trkpt lat="47.90451" lon="7.07417">
        <ele>1288</ele>
        <time>2023-05-07T05:08:06Z</time>
      </trkpt>
      <trkpt lat="47.90451" lon="7.07408">
        <ele>1289</ele>
        <time>2023-05-07T05:08:10Z</time>
      </trkpt>
      <trkpt lat="47.90453" lon="7.07377">
        <ele>1289</ele>
        <time>2023-05-07T05:08:26Z</time>
      </trkpt>
      <trkpt lat="47.90454" lon="7.07371">
        <ele>1289</ele>
        <time>2023-05-07T05:08:30Z</time>
      </trkpt>
      <trkpt lat="47.90454" lon="7.07363">
        <ele>1289</ele>
        <time>2023-05-07T05:08:34Z</time>
      </trkpt>
      <trkpt lat="47.90455" lon="7.07356">
        <ele>1289</ele>
        <time>2023-05-07T05:08:38Z</time>
      </trkpt>
      <trkpt lat="47.90458" lon="7.07344">
        <ele>1288</ele>
        <time>2023-05-07T05:08:47Z</time>
      </trkpt>
      <trkpt lat="47.90458" lon="7.07336">
        <ele>1288</ele>
        <time>2023-05-07T05:08:52Z</time>
      </trkpt>
      <trkpt lat="47.90457" lon="7.07328">
        <ele>1287</ele>
        <time>2023-05-07T05:08:57Z</time>
      </trkpt>
      <trkpt lat="47.9046" lon="7.07323">
        <ele>1286</ele>
        <time>2023-05-07T05:09:02Z</time>
      </trkpt>
      <trkpt lat="47.90462" lon="7.07314">
        <ele>1284</ele>
        <time>2023-05-07T05:09:09Z</time>
      </trkpt>
      <trkpt lat="47.9047" lon="7.07304">
        <ele>1283</ele>
        <time>2023-05-07T05:09:20Z</time>
      </trkpt>
      <trkpt lat="47.90471" lon="7.07296">
        <ele>1283</ele>
        <time>2023-05-07T05:09:24Z</time>
      </trkpt>
      <trkpt lat="47.90486" lon="7.0727">
        <ele>1281</ele>
        <time>2023-05-07T05:09:45Z</time>
      </trkpt>
      <trkpt lat="47.9049" lon="7.07264">
        <ele>1281</ele>
        <time>2023-05-07T05:09:49Z</time>
      </trkpt>
      <trkpt lat="47.9049" lon="7.07257">
        <ele>1281</ele>
        <time>2023-05-07T05:09:53Z</time>
      </trkpt>
      <trkpt lat="47.90492" lon="7.0725">
        <ele>1281</ele>
        <time>2023-05-07T05:09:57Z</time>
      </trkpt>
      <trkpt lat="47.90493" lon="7.07244">
        <ele>1281</ele>
        <time>2023-05-07T05:10:01Z</time>
      </trkpt>
      <trkpt lat="47.90492" lon="7.07236">
        <ele>1280</ele>
        <time>2023-05-07T05:10:05Z</time>
      </trkpt>
      <trkpt lat="47.90493" lon="7.0723">
        <ele>1279</ele>
        <time>2023-05-07T05:10:09Z</time>
      </trkpt>
      <trkpt lat="47.90497" lon="7.07226">
        <ele>1279</ele>
        <time>2023-05-07T05:10:12Z</time>
      </trkpt>
      <trkpt lat="47.905" lon="7.07222">
        <ele>1279</ele>
        <time>2023-05-07T05:10:16Z</time>
      </trkpt>
      <trkpt lat="47.90499" lon="7.07216">
        <ele>1278</ele>
        <time>2023-05-07T05:10:20Z</time>
      </trkpt>
      <trkpt lat="47.90502" lon="7.07177">
        <ele>1273</ele>
        <time>2023-05-07T05:10:43Z</time>
      </trkpt>
      <trkpt lat="47.90507" lon="7.07156">
        <ele>1272</ele>
        <time>2023-05-07T05:10:56Z</time>
      </trkpt>
      <trkpt lat="47.90509" lon="7.0715">
        <ele>1272</ele>
        <time>2023-05-07T05:11:00Z</time>
      </trkpt>
      <trkpt lat="47.90508" lon="7.07142">
        <ele>1271</ele>
        <time>2023-05-07T05:11:04Z</time>
      </trkpt>
      <trkpt lat="47.90505" lon="7.07129">
        <ele>1270</ele>
        <time>2023-05-07T05:11:11Z</time>
      </trkpt>
      <trkpt lat="47.90505" lon="7.07115">
        <ele>1268</ele>
        <time>2023-05-07T05:11:19Z</time>
      </trkpt>
      <trkpt lat="47.90507" lon="7.07109">
        <ele>1267</ele>
        <time>2023-05-07T05:11:23Z</time>
      </trkpt>
      <trkpt lat="47.90506" lon="7.07102">
        <ele>1267</ele>
        <time>2023-05-07T05:11:27Z</time>
      </trkpt>
      <trkpt lat="47.90507" lon="7.07095">
        <ele>1266</ele>
        <time>2023-05-07T05:11:32Z</time>
      </trkpt>
      <trkpt lat="47.90511" lon="7.07086">
        <ele>1264</ele>
        <time>2023-05-07T05:11:41Z</time>
      </trkpt>
      <trkpt lat="47.9051" lon="7.07079">
        <ele>1263</ele>
        <time>2023-05-07T05:11:45Z</time>
      </trkpt>
      <trkpt lat="47.90511" lon="7.07057">
        <ele>1260</ele>
        <time>2023-05-07T05:11:57Z</time>
      </trkpt>
      <trkpt lat="47.90516" lon="7.07055">
        <ele>1258</ele>
        <time>2023-05-07T05:12:02Z</time>
      </trkpt>
      <trkpt lat="47.90519" lon="7.07049">
        <ele>1257</ele>
        <time>2023-05-07T05:12:07Z</time>
      </trkpt>
      <trkpt lat="47.90527" lon="7.07041">
        <ele>1255</ele>
        <time>2023-05-07T05:12:16Z</time>
      </trkpt>
      <trkpt lat="47.90532" lon="7.07043">
        <ele>1253</ele>
        <time>2023-05-07T05:12:21Z</time>
      </trkpt>
      <trkpt lat="47.90537" lon="7.07041">
        <ele>1252</ele>
        <time>2023-05-07T05:12:27Z</time>
      </trkpt>
      <trkpt lat="47.90542" lon="7.07035">
        <ele>1250</ele>
        <time>2023-05-07T05:12:33Z</time>
      </trkpt>
      <trkpt lat="47.90542" lon="7.07029">
        <ele>1249</ele>
        <time>2023-05-07T05:12:37Z</time>
      </trkpt>
      <trkpt lat="47.90546" lon="7.07024">
        <ele>1248</ele>
        <time>2023-05-07T05:12:45Z</time>
      </trkpt>
      <trkpt lat="47.90582" lon="7.07007">
        <ele>1235</ele>
        <time>2023-05-07T05:15:23Z</time>
      </trkpt>
      <trkpt lat="47.90591" lon="7.07003">
        <ele>1233</ele>
        <time>2023-05-07T05:15:31Z</time>
      </trkpt>
      <trkpt lat="47.906" lon="7.07002">
        <ele>1232</ele>
        <time>2023-05-07T05:15:39Z</time>
      </trkpt>
      <trkpt lat="47.90621" lon="7.06993">
        <ele>1230</ele>
        <time>2023-05-07T05:15:53Z</time>
      </trkpt>
      <trkpt lat="47.90625" lon="7.06992">
        <ele>1230</ele>
        <time>2023-05-07T05:15:57Z</time>
      </trkpt>
      <trkpt lat="47.90634" lon="7.06989">
        <ele>1228</ele>
        <time>2023-05-07T05:16:05Z</time>
      </trkpt>
      <trkpt lat="47.90638" lon="7.06985">
        <ele>1228</ele>
        <time>2023-05-07T05:16:09Z</time>
      </trkpt>
      <trkpt lat="47.90659" lon="7.06974">
        <ele>1223</ele>
        <time>2023-05-07T05:16:30Z</time>
      </trkpt>
      <trkpt lat="47.90662" lon="7.06971">
        <ele>1222</ele>
        <time>2023-05-07T05:16:34Z</time>
      </trkpt>
      <trkpt lat="47.90667" lon="7.0697">
        <ele>1221</ele>
        <time>2023-05-07T05:16:38Z</time>
      </trkpt>
      <trkpt lat="47.90672" lon="7.06962">
        <ele>1220</ele>
        <time>2023-05-07T05:16:44Z</time>
      </trkpt>
      <trkpt lat="47.90673" lon="7.06956">
        <ele>1219</ele>
        <time>2023-05-07T05:16:48Z</time>
      </trkpt>
      <trkpt lat="47.90695" lon="7.0691">
        <ele>1214</ele>
        <time>2023-05-07T05:17:22Z</time>
      </trkpt>
      <trkpt lat="47.90711" lon="7.06887">
        <ele>1212</ele>
        <time>2023-05-07T05:17:38Z</time>
      </trkpt>
      <trkpt lat="47.90746" lon="7.06855">
        <ele>1207</ele>
        <time>2023-05-07T05:18:09Z</time>
      </trkpt>
      <trkpt lat="47.90779" lon="7.0682">
        <ele>1202</ele>
        <time>2023-05-07T05:18:43Z</time>
      </trkpt>
      <trkpt lat="47.90786" lon="7.0681">
        <ele>1201</ele>
        <time>2023-05-07T05:18:51Z</time>
      </trkpt>
      <trkpt lat="47.90795" lon="7.06803">
        <ele>1201</ele>
        <time>2023-05-07T05:18:59Z</time>
      </trkpt>
      <trkpt lat="47.90812" lon="7.06788">
        <ele>1200</ele>
        <time>2023-05-07T05:19:16Z</time>
      </trkpt>
      <trkpt lat="47.90817" lon="7.06785">
        <ele>1200</ele>
        <time>2023-05-07T05:19:20Z</time>
      </trkpt>
      <trkpt lat="47.90836" lon="7.06762">
        <ele>1199</ele>
        <time>2023-05-07T05:19:40Z</time>
      </trkpt>
      <trkpt lat="47.90841" lon="7.06759">
        <ele>1199</ele>
        <time>2023-05-07T05:19:44Z</time>
      </trkpt>
      <trkpt lat="47.90846" lon="7.0676">
        <ele>1199</ele>
        <time>2023-05-07T05:19:48Z</time>
      </trkpt>
      <trkpt lat="47.9085" lon="7.06762">
        <ele>1199</ele>
        <time>2023-05-07T05:19:52Z</time>
      </trkpt>
      <trkpt lat="47.90854" lon="7.06766">
        <ele>1199</ele>
        <time>2023-05-07T05:19:56Z</time>
      </trkpt>
      <trkpt lat="47.90858" lon="7.06762">
        <ele>1199</ele>
        <time>2023-05-07T05:20:00Z</time>
      </trkpt>
      <trkpt lat="47.90868" lon="7.06747">
        <ele>1199</ele>
        <time>2023-05-07T05:20:12Z</time>
      </trkpt>
      <trkpt lat="47.90888" lon="7.06725">
        <ele>1200</ele>
        <time>2023-05-07T05:20:31Z</time>
      </trkpt>
      <trkpt lat="47.90893" lon="7.06721">
        <ele>1200</ele>
        <time>2023-05-07T05:20:35Z</time>
      </trkpt>
      <trkpt lat="47.90908" lon="7.06712">
        <ele>1200</ele>
        <time>2023-05-07T05:20:47Z</time>
      </trkpt>
      <trkpt lat="47.9092" lon="7.06699">
        <ele>1200</ele>
        <time>2023-05-07T05:20:59Z</time>
      </trkpt>
      <trkpt lat="47.90924" lon="7.06693">
        <ele>1200</ele>
        <time>2023-05-07T05:21:03Z</time>
      </trkpt>
      <trkpt lat="47.90941" lon="7.06675">
        <ele>1200</ele>
        <time>2023-05-07T05:21:19Z</time>
      </trkpt>
      <trkpt lat="47.9095" lon="7.06659">
        <ele>1201</ele>
        <time>2023-05-07T05:21:32Z</time>
      </trkpt>
      <trkpt lat="47.90954" lon="7.06652">
        <ele>1202</ele>
        <time>2023-05-07T05:21:40Z</time>
      </trkpt>
      <trkpt lat="47.90958" lon="7.06648">
        <ele>1202</ele>
        <time>2023-05-07T05:21:44Z</time>
      </trkpt>
      <trkpt lat="47.90966" lon="7.0664">
        <ele>1203</ele>
        <time>2023-05-07T05:21:52Z</time>
      </trkpt>
      <trkpt lat="47.9098" lon="7.06622">
        <ele>1205</ele>
        <time>2023-05-07T05:22:09Z</time>
      </trkpt>
      <trkpt lat="47.90983" lon="7.06616">
        <ele>1206</ele>
        <time>2023-05-07T05:22:13Z</time>
      </trkpt>
      <trkpt lat="47.90999" lon="7.0659">
        <ele>1208</ele>
        <time>2023-05-07T05:22:32Z</time>
      </trkpt>
      <trkpt lat="47.91005" lon="7.06577">
        <ele>1208</ele>
        <time>2023-05-07T05:22:40Z</time>
      </trkpt>
      <trkpt lat="47.91027" lon="7.06535">
        <ele>1208</ele>
        <time>2023-05-07T05:23:11Z</time>
      </trkpt>
      <trkpt lat="47.91037" lon="7.06521">
        <ele>1208</ele>
        <time>2023-05-07T05:23:24Z</time>
      </trkpt>
      <trkpt lat="47.9104" lon="7.06513">
        <ele>1208</ele>
        <time>2023-05-07T05:23:29Z</time>
      </trkpt>
      <trkpt lat="47.91046" lon="7.06503">
        <ele>1208</ele>
        <time>2023-05-07T05:23:36Z</time>
      </trkpt>
      <trkpt lat="47.91049" lon="7.06497">
        <ele>1208</ele>
        <time>2023-05-07T05:23:40Z</time>
      </trkpt>
      <trkpt lat="47.91051" lon="7.06491">
        <ele>1208</ele>
        <time>2023-05-07T05:23:44Z</time>
      </trkpt>
      <trkpt lat="47.91052" lon="7.06484">
        <ele>1208</ele>
        <time>2023-05-07T05:23:48Z</time>
      </trkpt>
      <trkpt lat="47.91056" lon="7.0648">
        <ele>1208</ele>
        <time>2023-05-07T05:23:52Z</time>
      </trkpt>
      <trkpt lat="47.91063" lon="7.06471">
        <ele>1209</ele>
        <time>2023-05-07T05:24:01Z</time>
      </trkpt>
      <trkpt lat="47.91066" lon="7.06463">
        <ele>1209</ele>
        <time>2023-05-07T05:24:08Z</time>
      </trkpt>
      <trkpt lat="47.91068" lon="7.06455">
        <ele>1209</ele>
        <time>2023-05-07T05:24:12Z</time>
      </trkpt>
      <trkpt lat="47.91071" lon="7.0645">
        <ele>1209</ele>
        <time>2023-05-07T05:24:16Z</time>
      </trkpt>
      <trkpt lat="47.91074" lon="7.06444">
        <ele>1209</ele>
        <time>2023-05-07T05:24:20Z</time>
      </trkpt>
      <trkpt lat="47.91078" lon="7.06431">
        <ele>1209</ele>
        <time>2023-05-07T05:24:28Z</time>
      </trkpt>
      <trkpt lat="47.91083" lon="7.06419">
        <ele>1209</ele>
        <time>2023-05-07T05:24:35Z</time>
      </trkpt>
      <trkpt lat="47.9109" lon="7.064">
        <ele>1209</ele>
        <time>2023-05-07T05:24:46Z</time>
      </trkpt>
      <trkpt lat="47.91097" lon="7.0639">
        <ele>1210</ele>
        <time>2023-05-07T05:24:55Z</time>
      </trkpt>
      <trkpt lat="47.91103" lon="7.06371">
        <ele>1211</ele>
        <time>2023-05-07T05:25:06Z</time>
      </trkpt>
      <trkpt lat="47.91105" lon="7.06364">
        <ele>1210</ele>
        <time>2023-05-07T05:25:10Z</time>
      </trkpt>
      <trkpt lat="47.91113" lon="7.06337">
        <ele>1211</ele>
        <time>2023-05-07T05:25:27Z</time>
      </trkpt>
      <trkpt lat="47.91114" lon="7.0633">
        <ele>1211</ele>
        <time>2023-05-07T05:25:31Z</time>
      </trkpt>
      <trkpt lat="47.91114" lon="7.06323">
        <ele>1211</ele>
        <time>2023-05-07T05:25:36Z</time>
      </trkpt>
      <trkpt lat="47.91116" lon="7.06317">
        <ele>1211</ele>
        <time>2023-05-07T05:25:40Z</time>
      </trkpt>
      <trkpt lat="47.91117" lon="7.0631">
        <ele>1211</ele>
        <time>2023-05-07T05:25:44Z</time>
      </trkpt>
      <trkpt lat="47.91115" lon="7.06281">
        <ele>1209</ele>
        <time>2023-05-07T05:26:00Z</time>
      </trkpt>
      <trkpt lat="47.91115" lon="7.06275">
        <ele>1209</ele>
        <time>2023-05-07T05:26:05Z</time>
      </trkpt>
      <trkpt lat="47.91116" lon="7.06267">
        <ele>1210</ele>
        <time>2023-05-07T05:26:10Z</time>
      </trkpt>
      <trkpt lat="47.91116" lon="7.0626">
        <ele>1210</ele>
        <time>2023-05-07T05:26:14Z</time>
      </trkpt>
      <trkpt lat="47.91117" lon="7.06253">
        <ele>1209</ele>
        <time>2023-05-07T05:26:18Z</time>
      </trkpt>
      <trkpt lat="47.91119" lon="7.06232">
        <ele>1209</ele>
        <time>2023-05-07T05:26:29Z</time>
      </trkpt>
      <trkpt lat="47.9112" lon="7.06225">
        <ele>1209</ele>
        <time>2023-05-07T05:26:33Z</time>
      </trkpt>
      <trkpt lat="47.91123" lon="7.06218">
        <ele>1209</ele>
        <time>2023-05-07T05:26:37Z</time>
      </trkpt>
      <trkpt lat="47.91123" lon="7.0621">
        <ele>1209</ele>
        <time>2023-05-07T05:26:41Z</time>
      </trkpt>
      <trkpt lat="47.91124" lon="7.06203">
        <ele>1209</ele>
        <time>2023-05-07T05:26:44Z</time>
      </trkpt>
      <trkpt lat="47.91127" lon="7.06198">
        <ele>1209</ele>
        <time>2023-05-07T05:26:48Z</time>
      </trkpt>
      <trkpt lat="47.91128" lon="7.06191">
        <ele>1209</ele>
        <time>2023-05-07T05:26:52Z</time>
      </trkpt>
      <trkpt lat="47.91134" lon="7.06158">
        <ele>1209</ele>
        <time>2023-05-07T05:27:12Z</time>
      </trkpt>
      <trkpt lat="47.91135" lon="7.0615">
        <ele>1208</ele>
        <time>2023-05-07T05:27:15Z</time>
      </trkpt>
      <trkpt lat="47.91136" lon="7.06144">
        <ele>1208</ele>
        <time>2023-05-07T05:27:18Z</time>
      </trkpt>
      <trkpt lat="47.91141" lon="7.06133">
        <ele>1208</ele>
        <time>2023-05-07T05:27:26Z</time>
      </trkpt>
      <trkpt lat="47.91145" lon="7.06114">
        <ele>1209</ele>
        <time>2023-05-07T05:27:37Z</time>
      </trkpt>
      <trkpt lat="47.91146" lon="7.06107">
        <ele>1209</ele>
        <time>2023-05-07T05:27:42Z</time>
      </trkpt>
      <trkpt lat="47.91149" lon="7.06092">
        <ele>1208</ele>
        <time>2023-05-07T05:27:50Z</time>
      </trkpt>
      <trkpt lat="47.91151" lon="7.06086">
        <ele>1208</ele>
        <time>2023-05-07T05:27:54Z</time>
      </trkpt>
      <trkpt lat="47.91153" lon="7.06079">
        <ele>1208</ele>
        <time>2023-05-07T05:27:58Z</time>
      </trkpt>
      <trkpt lat="47.91155" lon="7.06073">
        <ele>1208</ele>
        <time>2023-05-07T05:28:03Z</time>
      </trkpt>
      <trkpt lat="47.91158" lon="7.06063">
        <ele>1207</ele>
        <time>2023-05-07T05:28:15Z</time>
      </trkpt>
      <trkpt lat="47.91156" lon="7.06019">
        <ele>1206</ele>
        <time>2023-05-07T05:28:37Z</time>
      </trkpt>
      <trkpt lat="47.91157" lon="7.06012">
        <ele>1205</ele>
        <time>2023-05-07T05:28:40Z</time>
      </trkpt>
      <trkpt lat="47.91154" lon="7.06005">
        <ele>1205</ele>
        <time>2023-05-07T05:28:46Z</time>
      </trkpt>
      <trkpt lat="47.91149" lon="7.0598">
        <ele>1205</ele>
        <time>2023-05-07T05:29:02Z</time>
      </trkpt>
      <trkpt lat="47.91147" lon="7.05966">
        <ele>1206</ele>
        <time>2023-05-07T05:29:12Z</time>
      </trkpt>
      <trkpt lat="47.91142" lon="7.05952">
        <ele>1207</ele>
        <time>2023-05-07T05:29:20Z</time>
      </trkpt>
      <trkpt lat="47.91137" lon="7.05931">
        <ele>1208</ele>
        <time>2023-05-07T05:29:33Z</time>
      </trkpt>
      <trkpt lat="47.91121" lon="7.0589">
        <ele>1213</ele>
        <time>2023-05-07T05:30:08Z</time>
      </trkpt>
      <trkpt lat="47.91116" lon="7.05883">
        <ele>1215</ele>
        <time>2023-05-07T05:30:16Z</time>
      </trkpt>
      <trkpt lat="47.91109" lon="7.05869">
        <ele>1216</ele>
        <time>2023-05-07T05:30:28Z</time>
      </trkpt>
      <trkpt lat="47.91105" lon="7.05864">
        <ele>1216</ele>
        <time>2023-05-07T05:30:32Z</time>
      </trkpt>
      <trkpt lat="47.91103" lon="7.05856">
        <ele>1216</ele>
        <time>2023-05-07T05:30:38Z</time>
      </trkpt>
      <trkpt lat="47.911" lon="7.05848">
        <ele>1216</ele>
        <time>2023-05-07T05:30:43Z</time>
      </trkpt>
      <trkpt lat="47.91098" lon="7.05841">
        <ele>1215</ele>
        <time>2023-05-07T05:30:46Z</time>
      </trkpt>
      <trkpt lat="47.91098" lon="7.05834">
        <ele>1215</ele>
        <time>2023-05-07T05:30:50Z</time>
      </trkpt>
      <trkpt lat="47.911" lon="7.05812">
        <ele>1215</ele>
        <time>2023-05-07T05:31:02Z</time>
      </trkpt>
      <trkpt lat="47.91098" lon="7.05798">
        <ele>1215</ele>
        <time>2023-05-07T05:31:09Z</time>
      </trkpt>
      <trkpt lat="47.91096" lon="7.05786">
        <ele>1217</ele>
        <time>2023-05-07T05:31:20Z</time>
      </trkpt>
      <trkpt lat="47.91094" lon="7.05781">
        <ele>1217</ele>
        <time>2023-05-07T05:31:23Z</time>
      </trkpt>
      <trkpt lat="47.91091" lon="7.05764">
        <ele>1216</ele>
        <time>2023-05-07T05:31:34Z</time>
      </trkpt>
      <trkpt lat="47.91087" lon="7.0576">
        <ele>1216</ele>
        <time>2023-05-07T05:31:38Z</time>
      </trkpt>
      <trkpt lat="47.91087" lon="7.05752">
        <ele>1214</ele>
        <time>2023-05-07T05:31:43Z</time>
      </trkpt>
      <trkpt lat="47.91087" lon="7.05745">
        <ele>1214</ele>
        <time>2023-05-07T05:31:46Z</time>
      </trkpt>
      <trkpt lat="47.91087" lon="7.05738">
        <ele>1214</ele>
        <time>2023-05-07T05:31:50Z</time>
      </trkpt>
      <trkpt lat="47.91086" lon="7.05731">
        <ele>1214</ele>
        <time>2023-05-07T05:31:55Z</time>
      </trkpt>
      <trkpt lat="47.91085" lon="7.05724">
        <ele>1214</ele>
        <time>2023-05-07T05:31:59Z</time>
      </trkpt>
      <trkpt lat="47.91083" lon="7.05718">
        <ele>1214</ele>
        <time>2023-05-07T05:32:03Z</time>
      </trkpt>
      <trkpt lat="47.91081" lon="7.0571">
        <ele>1216</ele>
        <time>2023-05-07T05:32:08Z</time>
      </trkpt>
      <trkpt lat="47.9108" lon="7.05703">
        <ele>1215</ele>
        <time>2023-05-07T05:32:12Z</time>
      </trkpt>
      <trkpt lat="47.91081" lon="7.05696">
        <ele>1215</ele>
        <time>2023-05-07T05:32:16Z</time>
      </trkpt>
      <trkpt lat="47.91082" lon="7.05686">
        <ele>1216</ele>
        <time>2023-05-07T05:32:22Z</time>
      </trkpt>
      <trkpt lat="47.91082" lon="7.05679">
        <ele>1216</ele>
        <time>2023-05-07T05:32:26Z</time>
      </trkpt>
      <trkpt lat="47.9108" lon="7.05671">
        <ele>1216</ele>
        <time>2023-05-07T05:32:32Z</time>
      </trkpt>
      <trkpt lat="47.91082" lon="7.05664">
        <ele>1216</ele>
        <time>2023-05-07T05:32:36Z</time>
      </trkpt>
      <trkpt lat="47.91083" lon="7.05656">
        <ele>1216</ele>
        <time>2023-05-07T05:32:41Z</time>
      </trkpt>
      <trkpt lat="47.91082" lon="7.0565">
        <ele>1216</ele>
        <time>2023-05-07T05:32:45Z</time>
      </trkpt>
      <trkpt lat="47.91081" lon="7.05639">
        <ele>1216</ele>
        <time>2023-05-07T05:32:51Z</time>
      </trkpt>
      <trkpt lat="47.9108" lon="7.05632">
        <ele>1216</ele>
        <time>2023-05-07T05:32:56Z</time>
      </trkpt>
      <trkpt lat="47.91081" lon="7.0561">
        <ele>1216</ele>
        <time>2023-05-07T05:33:07Z</time>
      </trkpt>
      <trkpt lat="47.91085" lon="7.05576">
        <ele>1214</ele>
        <time>2023-05-07T05:33:24Z</time>
      </trkpt>
      <trkpt lat="47.91084" lon="7.05568">
        <ele>1213</ele>
        <time>2023-05-07T05:33:28Z</time>
      </trkpt>
      <trkpt lat="47.91082" lon="7.05531">
        <ele>1213</ele>
        <time>2023-05-07T05:33:47Z</time>
      </trkpt>
      <trkpt lat="47.91083" lon="7.05524">
        <ele>1213</ele>
        <time>2023-05-07T05:33:51Z</time>
      </trkpt>
      <trkpt lat="47.91082" lon="7.05507">
        <ele>1214</ele>
        <time>2023-05-07T05:34:04Z</time>
      </trkpt>
      <trkpt lat="47.91078" lon="7.0549">
        <ele>1215</ele>
        <time>2023-05-07T05:34:13Z</time>
      </trkpt>
      <trkpt lat="47.91078" lon="7.05476">
        <ele>1215</ele>
        <time>2023-05-07T05:34:21Z</time>
      </trkpt>
      <trkpt lat="47.91076" lon="7.05468">
        <ele>1214</ele>
        <time>2023-05-07T05:34:25Z</time>
      </trkpt>
      <trkpt lat="47.91077" lon="7.05454">
        <ele>1214</ele>
        <time>2023-05-07T05:34:34Z</time>
      </trkpt>
      <trkpt lat="47.91074" lon="7.05425">
        <ele>1210</ele>
        <time>2023-05-07T05:34:51Z</time>
      </trkpt>
      <trkpt lat="47.91075" lon="7.05418">
        <ele>1209</ele>
        <time>2023-05-07T05:34:56Z</time>
      </trkpt>
      <trkpt lat="47.91073" lon="7.05404">
        <ele>1208</ele>
        <time>2023-05-07T05:35:04Z</time>
      </trkpt>
      <trkpt lat="47.91075" lon="7.05397">
        <ele>1207</ele>
        <time>2023-05-07T05:35:08Z</time>
      </trkpt>
      <trkpt lat="47.91075" lon="7.05391">
        <ele>1206</ele>
        <time>2023-05-07T05:35:12Z</time>
      </trkpt>
      <trkpt lat="47.9107" lon="7.05369">
        <ele>1204</ele>
        <time>2023-05-07T05:35:25Z</time>
      </trkpt>
      <trkpt lat="47.91067" lon="7.05335">
        <ele>1201</ele>
        <time>2023-05-07T05:35:46Z</time>
      </trkpt>
      <trkpt lat="47.91073" lon="7.05323">
        <ele>1199</ele>
        <time>2023-05-07T05:35:56Z</time>
      </trkpt>
      <trkpt lat="47.91072" lon="7.05317">
        <ele>1198</ele>
        <time>2023-05-07T05:36:00Z</time>
      </trkpt>
      <trkpt lat="47.9107" lon="7.0531">
        <ele>1197</ele>
        <time>2023-05-07T05:36:06Z</time>
      </trkpt>
      <trkpt lat="47.91071" lon="7.05295">
        <ele>1195</ele>
        <time>2023-05-07T05:36:15Z</time>
      </trkpt>
      <trkpt lat="47.91069" lon="7.0529">
        <ele>1194</ele>
        <time>2023-05-07T05:36:19Z</time>
      </trkpt>
      <trkpt lat="47.91066" lon="7.05284">
        <ele>1193</ele>
        <time>2023-05-07T05:36:23Z</time>
      </trkpt>
      <trkpt lat="47.91064" lon="7.05276">
        <ele>1192</ele>
        <time>2023-05-07T05:36:27Z</time>
      </trkpt>
      <trkpt lat="47.91063" lon="7.05269">
        <ele>1191</ele>
        <time>2023-05-07T05:36:30Z</time>
      </trkpt>
      <trkpt lat="47.91065" lon="7.05247">
        <ele>1190</ele>
        <time>2023-05-07T05:36:41Z</time>
      </trkpt>
      <trkpt lat="47.91063" lon="7.05216">
        <ele>1188</ele>
        <time>2023-05-07T05:36:57Z</time>
      </trkpt>
      <trkpt lat="47.91064" lon="7.05193">
        <ele>1188</ele>
        <time>2023-05-07T05:37:08Z</time>
      </trkpt>
      <trkpt lat="47.91068" lon="7.05143">
        <ele>1192</ele>
        <time>2023-05-07T05:37:40Z</time>
      </trkpt>
      <trkpt lat="47.91071" lon="7.05093">
        <ele>1196</ele>
        <time>2023-05-07T05:38:13Z</time>
      </trkpt>
      <trkpt lat="47.91073" lon="7.05079">
        <ele>1196</ele>
        <time>2023-05-07T05:38:21Z</time>
      </trkpt>
      <trkpt lat="47.91079" lon="7.05069">
        <ele>1197</ele>
        <time>2023-05-07T05:38:31Z</time>
      </trkpt>
      <trkpt lat="47.91082" lon="7.05062">
        <ele>1196</ele>
        <time>2023-05-07T05:38:36Z</time>
      </trkpt>
      <trkpt lat="47.91101" lon="7.05039">
        <ele>1195</ele>
        <time>2023-05-07T05:38:54Z</time>
      </trkpt>
      <trkpt lat="47.91107" lon="7.05035">
        <ele>1194</ele>
        <time>2023-05-07T05:39:01Z</time>
      </trkpt>
      <trkpt lat="47.91112" lon="7.05023">
        <ele>1193</ele>
        <time>2023-05-07T05:39:09Z</time>
      </trkpt>
      <trkpt lat="47.91114" lon="7.05016">
        <ele>1192</ele>
        <time>2023-05-07T05:39:13Z</time>
      </trkpt>
      <trkpt lat="47.91119" lon="7.05015">
        <ele>1191</ele>
        <time>2023-05-07T05:39:17Z</time>
      </trkpt>
      <trkpt lat="47.91122" lon="7.05011">
        <ele>1191</ele>
        <time>2023-05-07T05:39:21Z</time>
      </trkpt>
      <trkpt lat="47.91133" lon="7.04995">
        <ele>1188</ele>
        <time>2023-05-07T05:39:33Z</time>
      </trkpt>
      <trkpt lat="47.91141" lon="7.04985">
        <ele>1187</ele>
        <time>2023-05-07T05:39:41Z</time>
      </trkpt>
      <trkpt lat="47.91151" lon="7.04969">
        <ele>1185</ele>
        <time>2023-05-07T05:39:51Z</time>
      </trkpt>
      <trkpt lat="47.91155" lon="7.04966">
        <ele>1185</ele>
        <time>2023-05-07T05:39:55Z</time>
      </trkpt>
      <trkpt lat="47.91162" lon="7.04954">
        <ele>1184</ele>
        <time>2023-05-07T05:40:03Z</time>
      </trkpt>
      <trkpt lat="47.91167" lon="7.04951">
        <ele>1184</ele>
        <time>2023-05-07T05:40:07Z</time>
      </trkpt>
      <trkpt lat="47.91178" lon="7.04934">
        <ele>1182</ele>
        <time>2023-05-07T05:40:20Z</time>
      </trkpt>
      <trkpt lat="47.91183" lon="7.04931">
        <ele>1182</ele>
        <time>2023-05-07T05:40:24Z</time>
      </trkpt>
      <trkpt lat="47.91192" lon="7.04927">
        <ele>1182</ele>
        <time>2023-05-07T05:40:31Z</time>
      </trkpt>
      <trkpt lat="47.91195" lon="7.04921">
        <ele>1182</ele>
        <time>2023-05-07T05:40:35Z</time>
      </trkpt>
      <trkpt lat="47.91195" lon="7.04915">
        <ele>1182</ele>
        <time>2023-05-07T05:40:39Z</time>
      </trkpt>
      <trkpt lat="47.91213" lon="7.04886">
        <ele>1182</ele>
        <time>2023-05-07T05:41:06Z</time>
      </trkpt>
      <trkpt lat="47.91217" lon="7.04881">
        <ele>1183</ele>
        <time>2023-05-07T05:41:10Z</time>
      </trkpt>
      <trkpt lat="47.91223" lon="7.0487">
        <ele>1184</ele>
        <time>2023-05-07T05:41:18Z</time>
      </trkpt>
      <trkpt lat="47.91227" lon="7.04866">
        <ele>1184</ele>
        <time>2023-05-07T05:41:23Z</time>
      </trkpt>
      <trkpt lat="47.91244" lon="7.04843">
        <ele>1185</ele>
        <time>2023-05-07T05:41:44Z</time>
      </trkpt>
      <trkpt lat="47.91249" lon="7.04836">
        <ele>1185</ele>
        <time>2023-05-07T05:41:53Z</time>
      </trkpt>
      <trkpt lat="47.91253" lon="7.04832">
        <ele>1185</ele>
        <time>2023-05-07T05:41:56Z</time>
      </trkpt>
      <trkpt lat="47.91255" lon="7.04825">
        <ele>1185</ele>
        <time>2023-05-07T05:42:00Z</time>
      </trkpt>
      <trkpt lat="47.9126" lon="7.04809">
        <ele>1185</ele>
        <time>2023-05-07T05:42:12Z</time>
      </trkpt>
      <trkpt lat="47.91271" lon="7.04761">
        <ele>1190</ele>
        <time>2023-05-07T05:42:49Z</time>
      </trkpt>
      <trkpt lat="47.91273" lon="7.04756">
        <ele>1191</ele>
        <time>2023-05-07T05:42:55Z</time>
      </trkpt>
      <trkpt lat="47.91278" lon="7.04737">
        <ele>1194</ele>
        <time>2023-05-07T05:43:15Z</time>
      </trkpt>
      <trkpt lat="47.9129" lon="7.04705">
        <ele>1198</ele>
        <time>2023-05-07T05:43:44Z</time>
      </trkpt>
      <trkpt lat="47.91295" lon="7.04689">
        <ele>1198</ele>
        <time>2023-05-07T05:43:57Z</time>
      </trkpt>
      <trkpt lat="47.91296" lon="7.04682">
        <ele>1197</ele>
        <time>2023-05-07T05:44:01Z</time>
      </trkpt>
      <trkpt lat="47.91301" lon="7.04655">
        <ele>1194</ele>
        <time>2023-05-07T05:44:19Z</time>
      </trkpt>
      <trkpt lat="47.91304" lon="7.0465">
        <ele>1193</ele>
        <time>2023-05-07T05:44:23Z</time>
      </trkpt>
      <trkpt lat="47.91325" lon="7.04602">
        <ele>1191</ele>
        <time>2023-05-07T05:44:56Z</time>
      </trkpt>
      <trkpt lat="47.91333" lon="7.04584">
        <ele>1190</ele>
        <time>2023-05-07T05:45:09Z</time>
      </trkpt>
      <trkpt lat="47.91335" lon="7.04577">
        <ele>1190</ele>
        <time>2023-05-07T05:45:13Z</time>
      </trkpt>
      <trkpt lat="47.91338" lon="7.0457">
        <ele>1190</ele>
        <time>2023-05-07T05:45:17Z</time>
      </trkpt>
      <trkpt lat="47.91342" lon="7.04563">
        <ele>1190</ele>
        <time>2023-05-07T05:45:21Z</time>
      </trkpt>
      <trkpt lat="47.91347" lon="7.04549">
        <ele>1190</ele>
        <time>2023-05-07T05:45:28Z</time>
      </trkpt>
      <trkpt lat="47.91351" lon="7.04544">
        <ele>1190</ele>
        <time>2023-05-07T05:45:32Z</time>
      </trkpt>
      <trkpt lat="47.91355" lon="7.04532">
        <ele>1190</ele>
        <time>2023-05-07T05:45:40Z</time>
      </trkpt>
      <trkpt lat="47.9136" lon="7.04527">
        <ele>1191</ele>
        <time>2023-05-07T05:45:48Z</time>
      </trkpt>
      <trkpt lat="47.91363" lon="7.04521">
        <ele>1191</ele>
        <time>2023-05-07T05:45:53Z</time>
      </trkpt>
      <trkpt lat="47.9137" lon="7.04509">
        <ele>1191</ele>
        <time>2023-05-07T05:46:01Z</time>
      </trkpt>
      <trkpt lat="47.91376" lon="7.04493">
        <ele>1191</ele>
        <time>2023-05-07T05:46:11Z</time>
      </trkpt>
      <trkpt lat="47.91379" lon="7.04488">
        <ele>1191</ele>
        <time>2023-05-07T05:46:15Z</time>
      </trkpt>
      <trkpt lat="47.9139" lon="7.04472">
        <ele>1191</ele>
        <time>2023-05-07T05:46:27Z</time>
      </trkpt>
      <trkpt lat="47.91396" lon="7.04465">
        <ele>1191</ele>
        <time>2023-05-07T05:46:37Z</time>
      </trkpt>
      <trkpt lat="47.91411" lon="7.04442">
        <ele>1192</ele>
        <time>2023-05-07T05:46:55Z</time>
      </trkpt>
      <trkpt lat="47.91415" lon="7.0444">
        <ele>1192</ele>
        <time>2023-05-07T05:46:59Z</time>
      </trkpt>
      <trkpt lat="47.9142" lon="7.04439">
        <ele>1193</ele>
        <time>2023-05-07T05:47:03Z</time>
      </trkpt>
      <trkpt lat="47.91452" lon="7.04427">
        <ele>1196</ele>
        <time>2023-05-07T05:47:34Z</time>
      </trkpt>
      <trkpt lat="47.91457" lon="7.04426">
        <ele>1196</ele>
        <time>2023-05-07T05:47:38Z</time>
      </trkpt>
      <trkpt lat="47.915" lon="7.04421">
        <ele>1198</ele>
        <time>2023-05-07T05:48:12Z</time>
      </trkpt>
      <trkpt lat="47.91519" lon="7.04419">
        <ele>1199</ele>
        <time>2023-05-07T05:48:29Z</time>
      </trkpt>
      <trkpt lat="47.91524" lon="7.04419">
        <ele>1199</ele>
        <time>2023-05-07T05:48:34Z</time>
      </trkpt>
      <trkpt lat="47.91533" lon="7.04417">
        <ele>1200</ele>
        <time>2023-05-07T05:48:44Z</time>
      </trkpt>
      <trkpt lat="47.91538" lon="7.04416">
        <ele>1200</ele>
        <time>2023-05-07T05:48:48Z</time>
      </trkpt>
      <trkpt lat="47.91543" lon="7.04414">
        <ele>1200</ele>
        <time>2023-05-07T05:48:53Z</time>
      </trkpt>
      <trkpt lat="47.91547" lon="7.04412">
        <ele>1200</ele>
        <time>2023-05-07T05:48:57Z</time>
      </trkpt>
      <trkpt lat="47.91552" lon="7.04411">
        <ele>1200</ele>
        <time>2023-05-07T05:49:01Z</time>
      </trkpt>
      <trkpt lat="47.9156" lon="7.04407">
        <ele>1200</ele>
        <time>2023-05-07T05:49:09Z</time>
      </trkpt>
      <trkpt lat="47.91593" lon="7.04383">
        <ele>1199</ele>
        <time>2023-05-07T05:49:38Z</time>
      </trkpt>
      <trkpt lat="47.91622" lon="7.04374">
        <ele>1202</ele>
        <time>2023-05-07T05:50:08Z</time>
      </trkpt>
      <trkpt lat="47.91634" lon="7.04361">
        <ele>1202</ele>
        <time>2023-05-07T05:50:19Z</time>
      </trkpt>
      <trkpt lat="47.91638" lon="7.04358">
        <ele>1201</ele>
        <time>2023-05-07T05:50:24Z</time>
      </trkpt>
      <trkpt lat="47.91644" lon="7.04355">
        <ele>1202</ele>
        <time>2023-05-07T05:50:30Z</time>
      </trkpt>
      <trkpt lat="47.91649" lon="7.04349">
        <ele>1202</ele>
        <time>2023-05-07T05:50:37Z</time>
      </trkpt>
      <trkpt lat="47.91674" lon="7.04314">
        <ele>1199</ele>
        <time>2023-05-07T05:51:08Z</time>
      </trkpt>
      <trkpt lat="47.91677" lon="7.04309">
        <ele>1198</ele>
        <time>2023-05-07T05:51:12Z</time>
      </trkpt>
      <trkpt lat="47.91685" lon="7.04301">
        <ele>1197</ele>
        <time>2023-05-07T05:51:19Z</time>
      </trkpt>
      <trkpt lat="47.91693" lon="7.04291">
        <ele>1196</ele>
        <time>2023-05-07T05:51:28Z</time>
      </trkpt>
      <trkpt lat="47.91697" lon="7.04286">
        <ele>1196</ele>
        <time>2023-05-07T05:51:32Z</time>
      </trkpt>
      <trkpt lat="47.91717" lon="7.04239">
        <ele>1191</ele>
        <time>2023-05-07T05:52:06Z</time>
      </trkpt>
      <trkpt lat="47.9172" lon="7.04232">
        <ele>1190</ele>
        <time>2023-05-07T05:52:11Z</time>
      </trkpt>
      <trkpt lat="47.9173" lon="7.04217">
        <ele>1188</ele>
        <time>2023-05-07T05:52:23Z</time>
      </trkpt>
      <trkpt lat="47.91734" lon="7.04213">
        <ele>1188</ele>
        <time>2023-05-07T05:52:26Z</time>
      </trkpt>
      <trkpt lat="47.91737" lon="7.04208">
        <ele>1187</ele>
        <time>2023-05-07T05:52:30Z</time>
      </trkpt>
      <trkpt lat="47.91742" lon="7.04206">
        <ele>1187</ele>
        <time>2023-05-07T05:52:34Z</time>
      </trkpt>
      <trkpt lat="47.91749" lon="7.04193">
        <ele>1188</ele>
        <time>2023-05-07T05:52:42Z</time>
      </trkpt>
      <trkpt lat="47.91754" lon="7.04185">
        <ele>1189</ele>
        <time>2023-05-07T05:52:50Z</time>
      </trkpt>
      <trkpt lat="47.9177" lon="7.04174">
        <ele>1191</ele>
        <time>2023-05-07T05:53:07Z</time>
      </trkpt>
      <trkpt lat="47.91775" lon="7.04169">
        <ele>1191</ele>
        <time>2023-05-07T05:53:11Z</time>
      </trkpt>
      <trkpt lat="47.91779" lon="7.04164">
        <ele>1191</ele>
        <time>2023-05-07T05:53:15Z</time>
      </trkpt>
      <trkpt lat="47.91807" lon="7.04143">
        <ele>1194</ele>
        <time>2023-05-07T05:53:42Z</time>
      </trkpt>
      <trkpt lat="47.91812" lon="7.04142">
        <ele>1194</ele>
        <time>2023-05-07T05:53:46Z</time>
      </trkpt>
      <trkpt lat="47.91817" lon="7.0414">
        <ele>1194</ele>
        <time>2023-05-07T05:53:49Z</time>
      </trkpt>
      <trkpt lat="47.91851" lon="7.04123">
        <ele>1192</ele>
        <time>2023-05-07T05:54:21Z</time>
      </trkpt>
      <trkpt lat="47.91875" lon="7.04114">
        <ele>1193</ele>
        <time>2023-05-07T05:54:45Z</time>
      </trkpt>
      <trkpt lat="47.91883" lon="7.04109">
        <ele>1193</ele>
        <time>2023-05-07T05:54:53Z</time>
      </trkpt>
      <trkpt lat="47.91916" lon="7.04093">
        <ele>1193</ele>
        <time>2023-05-07T05:55:24Z</time>
      </trkpt>
      <trkpt lat="47.91922" lon="7.04091">
        <ele>1193</ele>
        <time>2023-05-07T05:55:29Z</time>
      </trkpt>
      <trkpt lat="47.9193" lon="7.04085">
        <ele>1193</ele>
        <time>2023-05-07T05:55:36Z</time>
      </trkpt>
      <trkpt lat="47.91939" lon="7.04078">
        <ele>1194</ele>
        <time>2023-05-07T05:55:47Z</time>
      </trkpt>
      <trkpt lat="47.9197" lon="7.04054">
        <ele>1195</ele>
        <time>2023-05-07T05:56:15Z</time>
      </trkpt>
      <trkpt lat="47.92" lon="7.04036">
        <ele>1196</ele>
        <time>2023-05-07T05:56:42Z</time>
      </trkpt>
      <trkpt lat="47.92009" lon="7.04029">
        <ele>1197</ele>
        <time>2023-05-07T05:56:53Z</time>
      </trkpt>
      <trkpt lat="47.92023" lon="7.04022">
        <ele>1197</ele>
        <time>2023-05-07T05:57:06Z</time>
      </trkpt>
      <trkpt lat="47.92036" lon="7.0401">
        <ele>1195</ele>
        <time>2023-05-07T05:57:22Z</time>
      </trkpt>
      <trkpt lat="47.92041" lon="7.04007">
        <ele>1195</ele>
        <time>2023-05-07T05:57:27Z</time>
      </trkpt>
      <trkpt lat="47.9205" lon="7.03998">
        <ele>1195</ele>
        <time>2023-05-07T05:57:35Z</time>
      </trkpt>
      <trkpt lat="47.92054" lon="7.03996">
        <ele>1195</ele>
        <time>2023-05-07T05:57:39Z</time>
      </trkpt>
      <trkpt lat="47.92061" lon="7.03995">
        <ele>1196</ele>
        <time>2023-05-07T05:57:48Z</time>
      </trkpt>
      <trkpt lat="47.92065" lon="7.03992">
        <ele>1196</ele>
        <time>2023-05-07T05:57:52Z</time>
      </trkpt>
      <trkpt lat="47.9209" lon="7.0398">
        <ele>1194</ele>
        <time>2023-05-07T05:58:16Z</time>
      </trkpt>
      <trkpt lat="47.92112" lon="7.03965">
        <ele>1194</ele>
        <time>2023-05-07T05:58:36Z</time>
      </trkpt>
      <trkpt lat="47.92116" lon="7.03962">
        <ele>1194</ele>
        <time>2023-05-07T05:58:40Z</time>
      </trkpt>
      <trkpt lat="47.92127" lon="7.03948">
        <ele>1194</ele>
        <time>2023-05-07T05:58:52Z</time>
      </trkpt>
      <trkpt lat="47.9213" lon="7.03942">
        <ele>1194</ele>
        <time>2023-05-07T05:58:56Z</time>
      </trkpt>
      <trkpt lat="47.92135" lon="7.0393">
        <ele>1194</ele>
        <time>2023-05-07T05:59:04Z</time>
      </trkpt>
      <trkpt lat="47.92139" lon="7.03924">
        <ele>1195</ele>
        <time>2023-05-07T05:59:12Z</time>
      </trkpt>
      <trkpt lat="47.92144" lon="7.03911">
        <ele>1194</ele>
        <time>2023-05-07T05:59:21Z</time>
      </trkpt>
      <trkpt lat="47.92147" lon="7.03907">
        <ele>1194</ele>
        <time>2023-05-07T05:59:25Z</time>
      </trkpt>
      <trkpt lat="47.92162" lon="7.03878">
        <ele>1192</ele>
        <time>2023-05-07T05:59:44Z</time>
      </trkpt>
      <trkpt lat="47.9217" lon="7.03871">
        <ele>1192</ele>
        <time>2023-05-07T05:59:53Z</time>
      </trkpt>
      <trkpt lat="47.92197" lon="7.03833">
        <ele>1192</ele>
        <time>2023-05-07T06:00:24Z</time>
      </trkpt>
      <trkpt lat="47.92207" lon="7.03821">
        <ele>1192</ele>
        <time>2023-05-07T06:00:36Z</time>
      </trkpt>
      <trkpt lat="47.92212" lon="7.03817">
        <ele>1191</ele>
        <time>2023-05-07T06:00:40Z</time>
      </trkpt>
      <trkpt lat="47.92215" lon="7.03812">
        <ele>1191</ele>
        <time>2023-05-07T06:00:44Z</time>
      </trkpt>
      <trkpt lat="47.92225" lon="7.038">
        <ele>1191</ele>
        <time>2023-05-07T06:00:56Z</time>
      </trkpt>
      <trkpt lat="47.92244" lon="7.03759">
        <ele>1190</ele>
        <time>2023-05-07T06:01:26Z</time>
      </trkpt>
      <trkpt lat="47.92247" lon="7.03753">
        <ele>1189</ele>
        <time>2023-05-07T06:01:30Z</time>
      </trkpt>
      <trkpt lat="47.92249" lon="7.03747">
        <ele>1190</ele>
        <time>2023-05-07T06:01:34Z</time>
      </trkpt>
      <trkpt lat="47.92262" lon="7.03716">
        <ele>1188</ele>
        <time>2023-05-07T06:01:55Z</time>
      </trkpt>
      <trkpt lat="47.92269" lon="7.03705">
        <ele>1187</ele>
        <time>2023-05-07T06:02:04Z</time>
      </trkpt>
      <trkpt lat="47.92284" lon="7.03677">
        <ele>1188</ele>
        <time>2023-05-07T06:02:23Z</time>
      </trkpt>
      <trkpt lat="47.9229" lon="7.03658">
        <ele>1186</ele>
        <time>2023-05-07T06:02:35Z</time>
      </trkpt>
      <trkpt lat="47.92291" lon="7.03651">
        <ele>1186</ele>
        <time>2023-05-07T06:02:39Z</time>
      </trkpt>
      <trkpt lat="47.92292" lon="7.03645">
        <ele>1185</ele>
        <time>2023-05-07T06:02:43Z</time>
      </trkpt>
      <trkpt lat="47.92293" lon="7.03638">
        <ele>1185</ele>
        <time>2023-05-07T06:02:47Z</time>
      </trkpt>
      <trkpt lat="47.92293" lon="7.03631">
        <ele>1185</ele>
        <time>2023-05-07T06:02:51Z</time>
      </trkpt>
      <trkpt lat="47.92293" lon="7.03617">
        <ele>1183</ele>
        <time>2023-05-07T06:02:59Z</time>
      </trkpt>
      <trkpt lat="47.92289" lon="7.03557">
        <ele>1182</ele>
        <time>2023-05-07T06:03:36Z</time>
      </trkpt>
      <trkpt lat="47.92283" lon="7.03503">
        <ele>1180</ele>
        <time>2023-05-07T06:04:09Z</time>
      </trkpt>
      <trkpt lat="47.92277" lon="7.03454">
        <ele>1180</ele>
        <time>2023-05-07T06:04:36Z</time>
      </trkpt>
      <trkpt lat="47.92278" lon="7.03447">
        <ele>1180</ele>
        <time>2023-05-07T06:04:40Z</time>
      </trkpt>
      <trkpt lat="47.92279" lon="7.0344">
        <ele>1180</ele>
        <time>2023-05-07T06:04:44Z</time>
      </trkpt>
      <trkpt lat="47.92276" lon="7.0342">
        <ele>1180</ele>
        <time>2023-05-07T06:04:56Z</time>
      </trkpt>
      <trkpt lat="47.9227" lon="7.03409">
        <ele>1180</ele>
        <time>2023-05-07T06:05:05Z</time>
      </trkpt>
      <trkpt lat="47.92269" lon="7.03402">
        <ele>1180</ele>
        <time>2023-05-07T06:05:09Z</time>
      </trkpt>
      <trkpt lat="47.92271" lon="7.03395">
        <ele>1181</ele>
        <time>2023-05-07T06:05:14Z</time>
      </trkpt>
      <trkpt lat="47.9228" lon="7.03363">
        <ele>1182</ele>
        <time>2023-05-07T06:05:39Z</time>
      </trkpt>
      <trkpt lat="47.92284" lon="7.03342">
        <ele>1184</ele>
        <time>2023-05-07T06:05:53Z</time>
      </trkpt>
      <trkpt lat="47.92286" lon="7.03336">
        <ele>1184</ele>
        <time>2023-05-07T06:05:58Z</time>
      </trkpt>
      <trkpt lat="47.92296" lon="7.03286">
        <ele>1186</ele>
        <time>2023-05-07T06:06:32Z</time>
      </trkpt>
      <trkpt lat="47.92306" lon="7.03244">
        <ele>1187</ele>
        <time>2023-05-07T06:07:01Z</time>
      </trkpt>
      <trkpt lat="47.92309" lon="7.03238">
        <ele>1187</ele>
        <time>2023-05-07T06:07:06Z</time>
      </trkpt>
      <trkpt lat="47.92311" lon="7.03224">
        <ele>1187</ele>
        <time>2023-05-07T06:07:16Z</time>
      </trkpt>
      <trkpt lat="47.92311" lon="7.03217">
        <ele>1187</ele>
        <time>2023-05-07T06:07:20Z</time>
      </trkpt>
      <trkpt lat="47.92312" lon="7.0321">
        <ele>1187</ele>
        <time>2023-05-07T06:07:25Z</time>
      </trkpt>
      <trkpt lat="47.92315" lon="7.03197">
        <ele>1188</ele>
        <time>2023-05-07T06:07:35Z</time>
      </trkpt>
      <trkpt lat="47.92323" lon="7.03161">
        <ele>1189</ele>
        <time>2023-05-07T06:08:00Z</time>
      </trkpt>
      <trkpt lat="47.92325" lon="7.03154">
        <ele>1189</ele>
        <time>2023-05-07T06:08:05Z</time>
      </trkpt>
      <trkpt lat="47.92332" lon="7.03141">
        <ele>1189</ele>
        <time>2023-05-07T06:08:17Z</time>
      </trkpt>
      <trkpt lat="47.92336" lon="7.03127">
        <ele>1190</ele>
        <time>2023-05-07T06:08:27Z</time>
      </trkpt>
      <trkpt lat="47.92353" lon="7.03095">
        <ele>1190</ele>
        <time>2023-05-07T06:08:51Z</time>
      </trkpt>
      <trkpt lat="47.9238" lon="7.03064">
        <ele>1192</ele>
        <time>2023-05-07T06:09:22Z</time>
      </trkpt>
      <trkpt lat="47.92404" lon="7.03037">
        <ele>1193</ele>
        <time>2023-05-07T06:09:48Z</time>
      </trkpt>
      <trkpt lat="47.92407" lon="7.03032">
        <ele>1193</ele>
        <time>2023-05-07T06:09:53Z</time>
      </trkpt>
      <trkpt lat="47.92411" lon="7.03028">
        <ele>1194</ele>
        <time>2023-05-07T06:09:57Z</time>
      </trkpt>
      <trkpt lat="47.92426" lon="7.03024">
        <ele>1195</ele>
        <time>2023-05-07T06:10:09Z</time>
      </trkpt>
      <trkpt lat="47.92435" lon="7.03025">
        <ele>1195</ele>
        <time>2023-05-07T06:10:17Z</time>
      </trkpt>
      <trkpt lat="47.9243" lon="7.03011">
        <ele>1195</ele>
        <time>2023-05-07T06:10:28Z</time>
      </trkpt>
      <trkpt lat="47.92431" lon="7.03001">
        <ele>1196</ele>
        <time>2023-05-07T06:10:51Z</time>
      </trkpt>
      <trkpt lat="47.9243" lon="7.02994">
        <ele>1196</ele>
        <time>2023-05-07T06:10:57Z</time>
      </trkpt>
      <trkpt lat="47.92442" lon="7.0298">
        <ele>1198</ele>
        <time>2023-05-07T06:11:11Z</time>
      </trkpt>
      <trkpt lat="47.92444" lon="7.02974">
        <ele>1198</ele>
        <time>2023-05-07T06:11:15Z</time>
      </trkpt>
      <trkpt lat="47.92441" lon="7.02968">
        <ele>1199</ele>
        <time>2023-05-07T06:11:23Z</time>
      </trkpt>
      <trkpt lat="47.92441" lon="7.02961">
        <ele>1200</ele>
        <time>2023-05-07T06:11:31Z</time>
      </trkpt>
      <trkpt lat="47.92441" lon="7.0294">
        <ele>1201</ele>
        <time>2023-05-07T06:11:47Z</time>
      </trkpt>
      <trkpt lat="47.92447" lon="7.02932">
        <ele>1201</ele>
        <time>2023-05-07T06:11:57Z</time>
      </trkpt>
      <trkpt lat="47.92459" lon="7.02928">
        <ele>1202</ele>
        <time>2023-05-07T06:12:11Z</time>
      </trkpt>
      <trkpt lat="47.9249" lon="7.02923">
        <ele>1205</ele>
        <time>2023-05-07T06:12:45Z</time>
      </trkpt>
      <trkpt lat="47.9251" lon="7.02916">
        <ele>1207</ele>
        <time>2023-05-07T06:13:05Z</time>
      </trkpt>
      <trkpt lat="47.92542" lon="7.02896">
        <ele>1210</ele>
        <time>2023-05-07T06:13:43Z</time>
      </trkpt>
      <trkpt lat="47.92571" lon="7.02874">
        <ele>1214</ele>
        <time>2023-05-07T06:14:19Z</time>
      </trkpt>
      <trkpt lat="47.92596" lon="7.02853">
        <ele>1217</ele>
        <time>2023-05-07T06:14:51Z</time>
      </trkpt>
      <trkpt lat="47.92624" lon="7.02828">
        <ele>1220</ele>
        <time>2023-05-07T06:15:25Z</time>
      </trkpt>
      <trkpt lat="47.92649" lon="7.02803">
        <ele>1223</ele>
        <time>2023-05-07T06:15:59Z</time>
      </trkpt>
      <trkpt lat="47.92656" lon="7.02794">
        <ele>1224</ele>
        <time>2023-05-07T06:16:09Z</time>
      </trkpt>
      <trkpt lat="47.92662" lon="7.02782">
        <ele>1224</ele>
        <time>2023-05-07T06:16:19Z</time>
      </trkpt>
      <trkpt lat="47.92665" lon="7.02771">
        <ele>1223</ele>
        <time>2023-05-07T06:16:27Z</time>
      </trkpt>
      <trkpt lat="47.92668" lon="7.02766">
        <ele>1224</ele>
        <time>2023-05-07T06:16:32Z</time>
      </trkpt>
      <trkpt lat="47.9267" lon="7.02759">
        <ele>1224</ele>
        <time>2023-05-07T06:16:37Z</time>
      </trkpt>
      <trkpt lat="47.92685" lon="7.02714">
        <ele>1223</ele>
        <time>2023-05-07T06:17:08Z</time>
      </trkpt>
      <trkpt lat="47.92687" lon="7.02709">
        <ele>1223</ele>
        <time>2023-05-07T06:17:12Z</time>
      </trkpt>
      <trkpt lat="47.92695" lon="7.02684">
        <ele>1223</ele>
        <time>2023-05-07T06:17:29Z</time>
      </trkpt>
      <trkpt lat="47.92709" lon="7.02651">
        <ele>1223</ele>
        <time>2023-05-07T06:17:54Z</time>
      </trkpt>
      <trkpt lat="47.92728" lon="7.02619">
        <ele>1224</ele>
        <time>2023-05-07T06:18:22Z</time>
      </trkpt>
      <trkpt lat="47.9273" lon="7.02605">
        <ele>1224</ele>
        <time>2023-05-07T06:18:31Z</time>
      </trkpt>
      <trkpt lat="47.92733" lon="7.02599">
        <ele>1223</ele>
        <time>2023-05-07T06:18:35Z</time>
      </trkpt>
      <trkpt lat="47.92737" lon="7.02596">
        <ele>1223</ele>
        <time>2023-05-07T06:18:39Z</time>
      </trkpt>
      <trkpt lat="47.92746" lon="7.02592">
        <ele>1222</ele>
        <time>2023-05-07T06:18:47Z</time>
      </trkpt>
      <trkpt lat="47.9275" lon="7.0259">
        <ele>1221</ele>
        <time>2023-05-07T06:18:51Z</time>
      </trkpt>
      <trkpt lat="47.92754" lon="7.02585">
        <ele>1220</ele>
        <time>2023-05-07T06:18:55Z</time>
      </trkpt>
      <trkpt lat="47.92757" lon="7.02578">
        <ele>1221</ele>
        <time>2023-05-07T06:19:01Z</time>
      </trkpt>
      <trkpt lat="47.9276" lon="7.02571">
        <ele>1221</ele>
        <time>2023-05-07T06:19:05Z</time>
      </trkpt>
      <trkpt lat="47.92766" lon="7.02547">
        <ele>1223</ele>
        <time>2023-05-07T06:19:24Z</time>
      </trkpt>
      <trkpt lat="47.92773" lon="7.02536">
        <ele>1225</ele>
        <time>2023-05-07T06:19:36Z</time>
      </trkpt>
      <trkpt lat="47.9278" lon="7.02517">
        <ele>1225</ele>
        <time>2023-05-07T06:19:48Z</time>
      </trkpt>
      <trkpt lat="47.92786" lon="7.02497">
        <ele>1225</ele>
        <time>2023-05-07T06:20:01Z</time>
      </trkpt>
      <trkpt lat="47.92788" lon="7.02489">
        <ele>1225</ele>
        <time>2023-05-07T06:20:07Z</time>
      </trkpt>
      <trkpt lat="47.92788" lon="7.02482">
        <ele>1226</ele>
        <time>2023-05-07T06:20:12Z</time>
      </trkpt>
      <trkpt lat="47.92799" lon="7.02435">
        <ele>1227</ele>
        <time>2023-05-07T06:20:44Z</time>
      </trkpt>
      <trkpt lat="47.92802" lon="7.02414">
        <ele>1227</ele>
        <time>2023-05-07T06:20:59Z</time>
      </trkpt>
      <trkpt lat="47.92803" lon="7.02408">
        <ele>1227</ele>
        <time>2023-05-07T06:21:04Z</time>
      </trkpt>
      <trkpt lat="47.92803" lon="7.02401">
        <ele>1228</ele>
        <time>2023-05-07T06:21:08Z</time>
      </trkpt>
      <trkpt lat="47.92804" lon="7.02394">
        <ele>1227</ele>
        <time>2023-05-07T06:21:13Z</time>
      </trkpt>
      <trkpt lat="47.92804" lon="7.02373">
        <ele>1227</ele>
        <time>2023-05-07T06:21:27Z</time>
      </trkpt>
      <trkpt lat="47.92806" lon="7.02366">
        <ele>1227</ele>
        <time>2023-05-07T06:21:32Z</time>
      </trkpt>
      <trkpt lat="47.92808" lon="7.0236">
        <ele>1227</ele>
        <time>2023-05-07T06:21:36Z</time>
      </trkpt>
      <trkpt lat="47.92808" lon="7.02306">
        <ele>1227</ele>
        <time>2023-05-07T06:22:08Z</time>
      </trkpt>
      <trkpt lat="47.92809" lon="7.02251">
        <ele>1227</ele>
        <time>2023-05-07T06:22:41Z</time>
      </trkpt>
      <trkpt lat="47.92808" lon="7.02229">
        <ele>1227</ele>
        <time>2023-05-07T06:22:54Z</time>
      </trkpt>
      <trkpt lat="47.92805" lon="7.02223">
        <ele>1228</ele>
        <time>2023-05-07T06:22:59Z</time>
      </trkpt>
      <trkpt lat="47.92793" lon="7.02205">
        <ele>1230</ele>
        <time>2023-05-07T06:23:17Z</time>
      </trkpt>
      <trkpt lat="47.92792" lon="7.02198">
        <ele>1230</ele>
        <time>2023-05-07T06:23:20Z</time>
      </trkpt>
      <trkpt lat="47.92799" lon="7.02158">
        <ele>1229</ele>
        <time>2023-05-07T06:23:45Z</time>
      </trkpt>
      <trkpt lat="47.92802" lon="7.02146">
        <ele>1228</ele>
        <time>2023-05-07T06:23:53Z</time>
      </trkpt>
      <trkpt lat="47.92803" lon="7.02139">
        <ele>1228</ele>
        <time>2023-05-07T06:23:57Z</time>
      </trkpt>
      <trkpt lat="47.92803" lon="7.02132">
        <ele>1227</ele>
        <time>2023-05-07T06:24:01Z</time>
      </trkpt>
      <trkpt lat="47.92791" lon="7.0208">
        <ele>1227</ele>
        <time>2023-05-07T06:24:35Z</time>
      </trkpt>
      <trkpt lat="47.9279" lon="7.02072">
        <ele>1227</ele>
        <time>2023-05-07T06:24:40Z</time>
      </trkpt>
      <trkpt lat="47.92775" lon="7.02026">
        <ele>1228</ele>
        <time>2023-05-07T06:25:12Z</time>
      </trkpt>
      <trkpt lat="47.92774" lon="7.0202">
        <ele>1228</ele>
        <time>2023-05-07T06:25:16Z</time>
      </trkpt>
      <trkpt lat="47.92773" lon="7.02013">
        <ele>1228</ele>
        <time>2023-05-07T06:25:20Z</time>
      </trkpt>
      <trkpt lat="47.92764" lon="7.0197">
        <ele>1229</ele>
        <time>2023-05-07T06:25:46Z</time>
      </trkpt>
      <trkpt lat="47.92765" lon="7.01963">
        <ele>1229</ele>
        <time>2023-05-07T06:25:50Z</time>
      </trkpt>
      <trkpt lat="47.92767" lon="7.01956">
        <ele>1229</ele>
        <time>2023-05-07T06:25:55Z</time>
      </trkpt>
      <trkpt lat="47.92771" lon="7.01952">
        <ele>1229</ele>
        <time>2023-05-07T06:25:59Z</time>
      </trkpt>
      <trkpt lat="47.92804" lon="7.0194">
        <ele>1230</ele>
        <time>2023-05-07T06:26:30Z</time>
      </trkpt>
      <trkpt lat="47.92842" lon="7.01933">
        <ele>1232</ele>
        <time>2023-05-07T06:27:05Z</time>
      </trkpt>
      <trkpt lat="47.9286" lon="7.01931">
        <ele>1232</ele>
        <time>2023-05-07T06:27:21Z</time>
      </trkpt>
      <trkpt lat="47.92895" lon="7.01945">
        <ele>1232</ele>
        <time>2023-05-07T06:27:52Z</time>
      </trkpt>
      <trkpt lat="47.92918" lon="7.01954">
        <ele>1232</ele>
        <time>2023-05-07T06:28:13Z</time>
      </trkpt>
      <trkpt lat="47.92923" lon="7.01955">
        <ele>1232</ele>
        <time>2023-05-07T06:28:18Z</time>
      </trkpt>
      <trkpt lat="47.92953" lon="7.01946">
        <ele>1230</ele>
        <time>2023-05-07T06:28:49Z</time>
      </trkpt>
      <trkpt lat="47.92963" lon="7.01943">
        <ele>1230</ele>
        <time>2023-05-07T06:28:58Z</time>
      </trkpt>
      <trkpt lat="47.92998" lon="7.01941">
        <ele>1228</ele>
        <time>2023-05-07T06:29:31Z</time>
      </trkpt>
      <trkpt lat="47.93032" lon="7.01938">
        <ele>1226</ele>
        <time>2023-05-07T06:30:10Z</time>
      </trkpt>
      <trkpt lat="47.93063" lon="7.01937">
        <ele>1224</ele>
        <time>2023-05-07T06:30:44Z</time>
      </trkpt>
      <trkpt lat="47.93098" lon="7.0194">
        <ele>1220</ele>
        <time>2023-05-07T06:31:18Z</time>
      </trkpt>
      <trkpt lat="47.93129" lon="7.01943">
        <ele>1217</ele>
        <time>2023-05-07T06:31:48Z</time>
      </trkpt>
      <trkpt lat="47.93161" lon="7.01951">
        <ele>1215</ele>
        <time>2023-05-07T06:32:19Z</time>
      </trkpt>
      <trkpt lat="47.93185" lon="7.01953">
        <ele>1214</ele>
        <time>2023-05-07T06:32:43Z</time>
      </trkpt>
      <trkpt lat="47.93191" lon="7.01956">
        <ele>1214</ele>
        <time>2023-05-07T06:32:51Z</time>
      </trkpt>
      <trkpt lat="47.93195" lon="7.01961">
        <ele>1214</ele>
        <time>2023-05-07T06:32:56Z</time>
      </trkpt>
      <trkpt lat="47.93199" lon="7.01965">
        <ele>1213</ele>
        <time>2023-05-07T06:33:01Z</time>
      </trkpt>
      <trkpt lat="47.93207" lon="7.01968">
        <ele>1213</ele>
        <time>2023-05-07T06:33:10Z</time>
      </trkpt>
      <trkpt lat="47.93225" lon="7.01967">
        <ele>1213</ele>
        <time>2023-05-07T06:33:26Z</time>
      </trkpt>
      <trkpt lat="47.93253" lon="7.01967">
        <ele>1213</ele>
        <time>2023-05-07T06:34:00Z</time>
      </trkpt>
      <trkpt lat="47.9329" lon="7.01967">
        <ele>1215</ele>
        <time>2023-05-07T06:34:34Z</time>
      </trkpt>
      <trkpt lat="47.93325" lon="7.01967">
        <ele>1218</ele>
        <time>2023-05-07T06:35:07Z</time>
      </trkpt>
      <trkpt lat="47.93358" lon="7.01978">
        <ele>1221</ele>
        <time>2023-05-07T06:35:39Z</time>
      </trkpt>
      <trkpt lat="47.93394" lon="7.01992">
        <ele>1223</ele>
        <time>2023-05-07T06:36:12Z</time>
      </trkpt>
      <trkpt lat="47.93425" lon="7.02006">
        <ele>1223</ele>
        <time>2023-05-07T06:36:40Z</time>
      </trkpt>
      <trkpt lat="47.9343" lon="7.02005">
        <ele>1223</ele>
        <time>2023-05-07T06:36:45Z</time>
      </trkpt>
      <trkpt lat="47.93435" lon="7.02006">
        <ele>1223</ele>
        <time>2023-05-07T06:36:49Z</time>
      </trkpt>
      <trkpt lat="47.93439" lon="7.02009">
        <ele>1223</ele>
        <time>2023-05-07T06:36:53Z</time>
      </trkpt>
      <trkpt lat="47.93467" lon="7.02045">
        <ele>1222</ele>
        <time>2023-05-07T06:37:27Z</time>
      </trkpt>
      <trkpt lat="47.93483" lon="7.02057">
        <ele>1222</ele>
        <time>2023-05-07T06:37:43Z</time>
      </trkpt>
      <trkpt lat="47.93496" lon="7.02066">
        <ele>1220</ele>
        <time>2023-05-07T06:37:56Z</time>
      </trkpt>
      <trkpt lat="47.93501" lon="7.02062">
        <ele>1220</ele>
        <time>2023-05-07T06:38:00Z</time>
      </trkpt>
      <trkpt lat="47.93509" lon="7.02054">
        <ele>1219</ele>
        <time>2023-05-07T06:38:09Z</time>
      </trkpt>
      <trkpt lat="47.93513" lon="7.02052">
        <ele>1219</ele>
        <time>2023-05-07T06:38:13Z</time>
      </trkpt>
      <trkpt lat="47.93518" lon="7.02051">
        <ele>1219</ele>
        <time>2023-05-07T06:38:17Z</time>
      </trkpt>
      <trkpt lat="47.93522" lon="7.02052">
        <ele>1218</ele>
        <time>2023-05-07T06:38:21Z</time>
      </trkpt>
      <trkpt lat="47.9353" lon="7.02057">
        <ele>1218</ele>
        <time>2023-05-07T06:38:29Z</time>
      </trkpt>
      <trkpt lat="47.93561" lon="7.02089">
        <ele>1217</ele>
        <time>2023-05-07T06:39:04Z</time>
      </trkpt>
      <trkpt lat="47.93591" lon="7.02122">
        <ele>1216</ele>
        <time>2023-05-07T06:39:38Z</time>
      </trkpt>
      <trkpt lat="47.93619" lon="7.02158">
        <ele>1216</ele>
        <time>2023-05-07T06:40:09Z</time>
      </trkpt>
      <trkpt lat="47.93634" lon="7.02173">
        <ele>1217</ele>
        <time>2023-05-07T06:40:26Z</time>
      </trkpt>
      <trkpt lat="47.93669" lon="7.02195">
        <ele>1217</ele>
        <time>2023-05-07T06:41:01Z</time>
      </trkpt>
      <trkpt lat="47.93702" lon="7.02212">
        <ele>1216</ele>
        <time>2023-05-07T06:41:34Z</time>
      </trkpt>
      <trkpt lat="47.93737" lon="7.02229">
        <ele>1215</ele>
        <time>2023-05-07T06:42:08Z</time>
      </trkpt>
      <trkpt lat="47.93774" lon="7.02245">
        <ele>1214</ele>
        <time>2023-05-07T06:42:41Z</time>
      </trkpt>
      <trkpt lat="47.93806" lon="7.02258">
        <ele>1214</ele>
        <time>2023-05-07T06:43:13Z</time>
      </trkpt>
      <trkpt lat="47.93838" lon="7.02273">
        <ele>1216</ele>
        <time>2023-05-07T06:43:44Z</time>
      </trkpt>
      <trkpt lat="47.93847" lon="7.02276">
        <ele>1216</ele>
        <time>2023-05-07T06:43:53Z</time>
      </trkpt>
      <trkpt lat="47.93877" lon="7.02288">
        <ele>1218</ele>
        <time>2023-05-07T06:47:22Z</time>
      </trkpt>
      <trkpt lat="47.93897" lon="7.02296">
        <ele>1221</ele>
        <time>2023-05-07T06:47:43Z</time>
      </trkpt>
      <trkpt lat="47.93901" lon="7.02297">
        <ele>1221</ele>
        <time>2023-05-07T06:47:47Z</time>
      </trkpt>
      <trkpt lat="47.93934" lon="7.02307">
        <ele>1223</ele>
        <time>2023-05-07T06:48:18Z</time>
      </trkpt>
      <trkpt lat="47.9397" lon="7.02318">
        <ele>1226</ele>
        <time>2023-05-07T06:48:55Z</time>
      </trkpt>
      <trkpt lat="47.94004" lon="7.02323">
        <ele>1229</ele>
        <time>2023-05-07T06:49:26Z</time>
      </trkpt>
      <trkpt lat="47.94018" lon="7.02324">
        <ele>1230</ele>
        <time>2023-05-07T06:49:40Z</time>
      </trkpt>
      <trkpt lat="47.94028" lon="7.02325">
        <ele>1230</ele>
        <time>2023-05-07T06:49:49Z</time>
      </trkpt>
      <trkpt lat="47.94056" lon="7.02327">
        <ele>1228</ele>
        <time>2023-05-07T06:50:14Z</time>
      </trkpt>
      <trkpt lat="47.9407" lon="7.02328">
        <ele>1227</ele>
        <time>2023-05-07T06:50:26Z</time>
      </trkpt>
      <trkpt lat="47.94079" lon="7.02331">
        <ele>1225</ele>
        <time>2023-05-07T06:50:34Z</time>
      </trkpt>
      <trkpt lat="47.94112" lon="7.02335">
        <ele>1223</ele>
        <time>2023-05-07T06:51:02Z</time>
      </trkpt>
      <trkpt lat="47.94117" lon="7.02338">
        <ele>1222</ele>
        <time>2023-05-07T06:51:07Z</time>
      </trkpt>
      <trkpt lat="47.94144" lon="7.02341">
        <ele>1221</ele>
        <time>2023-05-07T06:51:31Z</time>
      </trkpt>
      <trkpt lat="47.94178" lon="7.02341">
        <ele>1223</ele>
        <time>2023-05-07T06:52:03Z</time>
      </trkpt>
      <trkpt lat="47.94214" lon="7.02341">
        <ele>1226</ele>
        <time>2023-05-07T06:52:38Z</time>
      </trkpt>
      <trkpt lat="47.94233" lon="7.02343">
        <ele>1227</ele>
        <time>2023-05-07T06:52:54Z</time>
      </trkpt>
      <trkpt lat="47.94242" lon="7.02345">
        <ele>1228</ele>
        <time>2023-05-07T06:53:04Z</time>
      </trkpt>
      <trkpt lat="47.94263" lon="7.02343">
        <ele>1231</ele>
        <time>2023-05-07T06:53:27Z</time>
      </trkpt>
      <trkpt lat="47.9427" lon="7.02341">
        <ele>1233</ele>
        <time>2023-05-07T06:53:39Z</time>
      </trkpt>
      <trkpt lat="47.94273" lon="7.02334">
        <ele>1233</ele>
        <time>2023-05-07T06:53:44Z</time>
      </trkpt>
      <trkpt lat="47.94278" lon="7.0233">
        <ele>1234</ele>
        <time>2023-05-07T06:53:50Z</time>
      </trkpt>
      <trkpt lat="47.94307" lon="7.02328">
        <ele>1239</ele>
        <time>2023-05-07T06:54:28Z</time>
      </trkpt>
      <trkpt lat="47.94326" lon="7.02329">
        <ele>1243</ele>
        <time>2023-05-07T06:54:55Z</time>
      </trkpt>
      <trkpt lat="47.9434" lon="7.02319">
        <ele>1245</ele>
        <time>2023-05-07T06:55:09Z</time>
      </trkpt>
      <trkpt lat="47.94344" lon="7.02321">
        <ele>1246</ele>
        <time>2023-05-07T06:55:13Z</time>
      </trkpt>
      <trkpt lat="47.94356" lon="7.02324">
        <ele>1248</ele>
        <time>2023-05-07T06:55:28Z</time>
      </trkpt>
      <trkpt lat="47.9436" lon="7.02326">
        <ele>1249</ele>
        <time>2023-05-07T06:55:34Z</time>
      </trkpt>
      <trkpt lat="47.94364" lon="7.02325">
        <ele>1250</ele>
        <time>2023-05-07T06:55:40Z</time>
      </trkpt>
      <trkpt lat="47.94369" lon="7.02322">
        <ele>1251</ele>
        <time>2023-05-07T06:55:47Z</time>
      </trkpt>
      <trkpt lat="47.94374" lon="7.02323">
        <ele>1252</ele>
        <time>2023-05-07T06:55:53Z</time>
      </trkpt>
      <trkpt lat="47.94379" lon="7.02325">
        <ele>1253</ele>
        <time>2023-05-07T06:55:58Z</time>
      </trkpt>
      <trkpt lat="47.94385" lon="7.02326">
        <ele>1254</ele>
        <time>2023-05-07T06:56:04Z</time>
      </trkpt>
      <trkpt lat="47.94391" lon="7.02324">
        <ele>1255</ele>
        <time>2023-05-07T06:56:11Z</time>
      </trkpt>
      <trkpt lat="47.944" lon="7.02328">
        <ele>1256</ele>
        <time>2023-05-07T06:56:19Z</time>
      </trkpt>
      <trkpt lat="47.94405" lon="7.02332">
        <ele>1256</ele>
        <time>2023-05-07T06:56:23Z</time>
      </trkpt>
      <trkpt lat="47.94408" lon="7.02336">
        <ele>1256</ele>
        <time>2023-05-07T06:56:27Z</time>
      </trkpt>
      <trkpt lat="47.94413" lon="7.02339">
        <ele>1257</ele>
        <time>2023-05-07T06:56:32Z</time>
      </trkpt>
      <trkpt lat="47.9442" lon="7.02339">
        <ele>1257</ele>
        <time>2023-05-07T06:56:40Z</time>
      </trkpt>
      <trkpt lat="47.94448" lon="7.02326">
        <ele>1260</ele>
        <time>2023-05-07T06:57:13Z</time>
      </trkpt>
      <trkpt lat="47.94455" lon="7.02317">
        <ele>1261</ele>
        <time>2023-05-07T06:57:23Z</time>
      </trkpt>
      <trkpt lat="47.94461" lon="7.02312">
        <ele>1262</ele>
        <time>2023-05-07T06:57:30Z</time>
      </trkpt>
      <trkpt lat="47.94466" lon="7.02311">
        <ele>1263</ele>
        <time>2023-05-07T06:57:34Z</time>
      </trkpt>
      <trkpt lat="47.94475" lon="7.02313">
        <ele>1264</ele>
        <time>2023-05-07T06:57:43Z</time>
      </trkpt>
      <trkpt lat="47.9448" lon="7.02316">
        <ele>1264</ele>
        <time>2023-05-07T06:57:47Z</time>
      </trkpt>
      <trkpt lat="47.94492" lon="7.02328">
        <ele>1265</ele>
        <time>2023-05-07T06:58:00Z</time>
      </trkpt>
      <trkpt lat="47.94499" lon="7.02327">
        <ele>1266</ele>
        <time>2023-05-07T06:58:08Z</time>
      </trkpt>
      <trkpt lat="47.94519" lon="7.02311">
        <ele>1268</ele>
        <time>2023-05-07T06:58:32Z</time>
      </trkpt>
      <trkpt lat="47.94524" lon="7.02308">
        <ele>1268</ele>
        <time>2023-05-07T06:58:36Z</time>
      </trkpt>
      <trkpt lat="47.94529" lon="7.02306">
        <ele>1268</ele>
        <time>2023-05-07T06:58:41Z</time>
      </trkpt>
      <trkpt lat="47.94543" lon="7.02306">
        <ele>1267</ele>
        <time>2023-05-07T06:58:53Z</time>
      </trkpt>
      <trkpt lat="47.94558" lon="7.02311">
        <ele>1267</ele>
        <time>2023-05-07T06:59:05Z</time>
      </trkpt>
      <trkpt lat="47.94563" lon="7.02312">
        <ele>1267</ele>
        <time>2023-05-07T06:59:09Z</time>
      </trkpt>
      <trkpt lat="47.94577" lon="7.0231">
        <ele>1267</ele>
        <time>2023-05-07T06:59:21Z</time>
      </trkpt>
      <trkpt lat="47.94582" lon="7.0231">
        <ele>1266</ele>
        <time>2023-05-07T06:59:25Z</time>
      </trkpt>
      <trkpt lat="47.94587" lon="7.02312">
        <ele>1266</ele>
        <time>2023-05-07T06:59:30Z</time>
      </trkpt>
      <trkpt lat="47.94592" lon="7.02311">
        <ele>1266</ele>
        <time>2023-05-07T06:59:34Z</time>
      </trkpt>
      <trkpt lat="47.94602" lon="7.02308">
        <ele>1266</ele>
        <time>2023-05-07T06:59:43Z</time>
      </trkpt>
      <trkpt lat="47.9461" lon="7.023">
        <ele>1265</ele>
        <time>2023-05-07T06:59:51Z</time>
      </trkpt>
      <trkpt lat="47.94614" lon="7.023">
        <ele>1265</ele>
        <time>2023-05-07T06:59:55Z</time>
      </trkpt>
      <trkpt lat="47.94619" lon="7.023">
        <ele>1265</ele>
        <time>2023-05-07T06:59:59Z</time>
      </trkpt>
      <trkpt lat="47.94628" lon="7.02291">
        <ele>1263</ele>
        <time>2023-05-07T07:00:11Z</time>
      </trkpt>
      <trkpt lat="47.9463" lon="7.02284">
        <ele>1263</ele>
        <time>2023-05-07T07:00:16Z</time>
      </trkpt>
      <trkpt lat="47.9463" lon="7.02278">
        <ele>1262</ele>
        <time>2023-05-07T07:00:21Z</time>
      </trkpt>
      <trkpt lat="47.94632" lon="7.02272">
        <ele>1261</ele>
        <time>2023-05-07T07:00:26Z</time>
      </trkpt>
      <trkpt lat="47.9464" lon="7.02262">
        <ele>1260</ele>
        <time>2023-05-07T07:00:36Z</time>
      </trkpt>
      <trkpt lat="47.94645" lon="7.02248">
        <ele>1259</ele>
        <time>2023-05-07T07:00:48Z</time>
      </trkpt>
      <trkpt lat="47.94652" lon="7.02238">
        <ele>1257</ele>
        <time>2023-05-07T07:00:57Z</time>
      </trkpt>
      <trkpt lat="47.94682" lon="7.02212">
        <ele>1253</ele>
        <time>2023-05-07T07:01:27Z</time>
      </trkpt>
      <trkpt lat="47.94694" lon="7.022">
        <ele>1251</ele>
        <time>2023-05-07T07:01:43Z</time>
      </trkpt>
      <trkpt lat="47.94703" lon="7.02192">
        <ele>1250</ele>
        <time>2023-05-07T07:01:52Z</time>
      </trkpt>
      <trkpt lat="47.94707" lon="7.02189">
        <ele>1250</ele>
        <time>2023-05-07T07:01:55Z</time>
      </trkpt>
      <trkpt lat="47.94711" lon="7.02185">
        <ele>1248</ele>
        <time>2023-05-07T07:02:00Z</time>
      </trkpt>
      <trkpt lat="47.94737" lon="7.0216">
        <ele>1244</ele>
        <time>2023-05-07T07:02:35Z</time>
      </trkpt>
      <trkpt lat="47.94753" lon="7.02142">
        <ele>1241</ele>
        <time>2023-05-07T07:03:00Z</time>
      </trkpt>
      <trkpt lat="47.94782" lon="7.02119">
        <ele>1236</ele>
        <time>2023-05-07T07:03:32Z</time>
      </trkpt>
      <trkpt lat="47.94807" lon="7.02094">
        <ele>1231</ele>
        <time>2023-05-07T07:04:06Z</time>
      </trkpt>
      <trkpt lat="47.94839" lon="7.02076">
        <ele>1228</ele>
        <time>2023-05-07T07:04:39Z</time>
      </trkpt>
      <trkpt lat="47.94876" lon="7.02059">
        <ele>1222</ele>
        <time>2023-05-07T07:05:14Z</time>
      </trkpt>
      <trkpt lat="47.94909" lon="7.02045">
        <ele>1217</ele>
        <time>2023-05-07T07:05:48Z</time>
      </trkpt>
      <trkpt lat="47.94945" lon="7.02029">
        <ele>1212</ele>
        <time>2023-05-07T07:06:24Z</time>
      </trkpt>
      <trkpt lat="47.94974" lon="7.02015">
        <ele>1208</ele>
        <time>2023-05-07T07:06:55Z</time>
      </trkpt>
      <trkpt lat="47.95002" lon="7.02002">
        <ele>1205</ele>
        <time>2023-05-07T07:07:29Z</time>
      </trkpt>
      <trkpt lat="47.95035" lon="7.01986">
        <ele>1202</ele>
        <time>2023-05-07T07:08:02Z</time>
      </trkpt>
      <trkpt lat="47.95061" lon="7.01978">
        <ele>1198</ele>
        <time>2023-05-07T07:08:29Z</time>
      </trkpt>
      <trkpt lat="47.95069" lon="7.01976">
        <ele>1197</ele>
        <time>2023-05-07T07:09:01Z</time>
      </trkpt>
      <trkpt lat="47.95078" lon="7.01975">
        <ele>1196</ele>
        <time>2023-05-07T07:09:09Z</time>
      </trkpt>
      <trkpt lat="47.95119" lon="7.01967">
        <ele>1191</ele>
        <time>2023-05-07T07:09:43Z</time>
      </trkpt>
      <trkpt lat="47.95138" lon="7.01964">
        <ele>1191</ele>
        <time>2023-05-07T07:09:58Z</time>
      </trkpt>
      <trkpt lat="47.9517" lon="7.01944">
        <ele>1189</ele>
        <time>2023-05-07T07:10:29Z</time>
      </trkpt>
      <trkpt lat="47.95204" lon="7.01917">
        <ele>1187</ele>
        <time>2023-05-07T07:11:02Z</time>
      </trkpt>
      <trkpt lat="47.95238" lon="7.01891">
        <ele>1186</ele>
        <time>2023-05-07T07:11:35Z</time>
      </trkpt>
      <trkpt lat="47.95242" lon="7.01893">
        <ele>1186</ele>
        <time>2023-05-07T07:11:39Z</time>
      </trkpt>
      <trkpt lat="47.95246" lon="7.01894">
        <ele>1186</ele>
        <time>2023-05-07T07:11:44Z</time>
      </trkpt>
      <trkpt lat="47.95255" lon="7.01888">
        <ele>1185</ele>
        <time>2023-05-07T07:11:52Z</time>
      </trkpt>
      <trkpt lat="47.95267" lon="7.0188">
        <ele>1183</ele>
        <time>2023-05-07T07:12:13Z</time>
      </trkpt>
      <trkpt lat="47.9527" lon="7.01867">
        <ele>1183</ele>
        <time>2023-05-07T07:12:21Z</time>
      </trkpt>
      <trkpt lat="47.95282" lon="7.01837">
        <ele>1182</ele>
        <time>2023-05-07T07:12:42Z</time>
      </trkpt>
      <trkpt lat="47.95288" lon="7.01818">
        <ele>1181</ele>
        <time>2023-05-07T07:12:53Z</time>
      </trkpt>
      <trkpt lat="47.95292" lon="7.01805">
        <ele>1182</ele>
        <time>2023-05-07T07:13:01Z</time>
      </trkpt>
      <trkpt lat="47.95294" lon="7.01799">
        <ele>1181</ele>
        <time>2023-05-07T07:13:05Z</time>
      </trkpt>
      <trkpt lat="47.95296" lon="7.01793">
        <ele>1181</ele>
        <time>2023-05-07T07:13:09Z</time>
      </trkpt>
      <trkpt lat="47.95302" lon="7.0178">
        <ele>1181</ele>
        <time>2023-05-07T07:13:17Z</time>
      </trkpt>
      <trkpt lat="47.95305" lon="7.01776">
        <ele>1182</ele>
        <time>2023-05-07T07:13:21Z</time>
      </trkpt>
      <trkpt lat="47.95309" lon="7.0177">
        <ele>1181</ele>
        <time>2023-05-07T07:13:25Z</time>
      </trkpt>
      <trkpt lat="47.9531" lon="7.01764">
        <ele>1181</ele>
        <time>2023-05-07T07:13:29Z</time>
      </trkpt>
      <trkpt lat="47.95312" lon="7.01758">
        <ele>1182</ele>
        <time>2023-05-07T07:13:33Z</time>
      </trkpt>
      <trkpt lat="47.95315" lon="7.01751">
        <ele>1182</ele>
        <time>2023-05-07T07:13:37Z</time>
      </trkpt>
      <trkpt lat="47.95324" lon="7.01732">
        <ele>1182</ele>
        <time>2023-05-07T07:13:49Z</time>
      </trkpt>
      <trkpt lat="47.95326" lon="7.01726">
        <ele>1182</ele>
        <time>2023-05-07T07:13:53Z</time>
      </trkpt>
      <trkpt lat="47.95329" lon="7.0172">
        <ele>1182</ele>
        <time>2023-05-07T07:13:57Z</time>
      </trkpt>
      <trkpt lat="47.95332" lon="7.01713">
        <ele>1182</ele>
        <time>2023-05-07T07:14:01Z</time>
      </trkpt>
      <trkpt lat="47.95339" lon="7.01701">
        <ele>1182</ele>
        <time>2023-05-07T07:14:13Z</time>
      </trkpt>
      <trkpt lat="47.95341" lon="7.01693">
        <ele>1181</ele>
        <time>2023-05-07T07:14:17Z</time>
      </trkpt>
      <trkpt lat="47.95351" lon="7.01667">
        <ele>1181</ele>
        <time>2023-05-07T07:14:33Z</time>
      </trkpt>
      <trkpt lat="47.9535" lon="7.01646">
        <ele>1181</ele>
        <time>2023-05-07T07:14:46Z</time>
      </trkpt>
      <trkpt lat="47.95349" lon="7.01638">
        <ele>1182</ele>
        <time>2023-05-07T07:14:50Z</time>
      </trkpt>
      <trkpt lat="47.9535" lon="7.01631">
        <ele>1182</ele>
        <time>2023-05-07T07:14:54Z</time>
      </trkpt>
      <trkpt lat="47.95352" lon="7.01603">
        <ele>1182</ele>
        <time>2023-05-07T07:15:09Z</time>
      </trkpt>
      <trkpt lat="47.95365" lon="7.01548">
        <ele>1180</ele>
        <time>2023-05-07T07:15:41Z</time>
      </trkpt>
      <trkpt lat="47.95368" lon="7.01542">
        <ele>1180</ele>
        <time>2023-05-07T07:15:44Z</time>
      </trkpt>
      <trkpt lat="47.95369" lon="7.01536">
        <ele>1179</ele>
        <time>2023-05-07T07:15:48Z</time>
      </trkpt>
      <trkpt lat="47.95369" lon="7.01528">
        <ele>1179</ele>
        <time>2023-05-07T07:15:52Z</time>
      </trkpt>
      <trkpt lat="47.95372" lon="7.01522">
        <ele>1179</ele>
        <time>2023-05-07T07:15:56Z</time>
      </trkpt>
      <trkpt lat="47.95376" lon="7.01501">
        <ele>1179</ele>
        <time>2023-05-07T07:16:08Z</time>
      </trkpt>
      <trkpt lat="47.95376" lon="7.01486">
        <ele>1179</ele>
        <time>2023-05-07T07:16:16Z</time>
      </trkpt>
      <trkpt lat="47.95376" lon="7.01479">
        <ele>1179</ele>
        <time>2023-05-07T07:16:20Z</time>
      </trkpt>
      <trkpt lat="47.95376" lon="7.01472">
        <ele>1179</ele>
        <time>2023-05-07T07:16:24Z</time>
      </trkpt>
      <trkpt lat="47.95388" lon="7.01415">
        <ele>1181</ele>
        <time>2023-05-07T07:16:57Z</time>
      </trkpt>
      <trkpt lat="47.9539" lon="7.01408">
        <ele>1181</ele>
        <time>2023-05-07T07:17:02Z</time>
      </trkpt>
      <trkpt lat="47.95402" lon="7.01355">
        <ele>1183</ele>
        <time>2023-05-07T07:17:35Z</time>
      </trkpt>
      <trkpt lat="47.95414" lon="7.01315">
        <ele>1184</ele>
        <time>2023-05-07T07:17:59Z</time>
      </trkpt>
      <trkpt lat="47.95415" lon="7.01307">
        <ele>1184</ele>
        <time>2023-05-07T07:18:02Z</time>
      </trkpt>
      <trkpt lat="47.95433" lon="7.01255">
        <ele>1186</ele>
        <time>2023-05-07T07:18:36Z</time>
      </trkpt>
      <trkpt lat="47.95441" lon="7.01223">
        <ele>1187</ele>
        <time>2023-05-07T07:18:58Z</time>
      </trkpt>
      <trkpt lat="47.95442" lon="7.01209">
        <ele>1188</ele>
        <time>2023-05-07T07:19:05Z</time>
      </trkpt>
      <trkpt lat="47.95447" lon="7.01189">
        <ele>1189</ele>
        <time>2023-05-07T07:19:18Z</time>
      </trkpt>
      <trkpt lat="47.95451" lon="7.01186">
        <ele>1190</ele>
        <time>2023-05-07T07:19:32Z</time>
      </trkpt>
      <trkpt lat="47.9545" lon="7.01179">
        <ele>1190</ele>
        <time>2023-05-07T07:20:07Z</time>
      </trkpt>
      <trkpt lat="47.95455" lon="7.01174">
        <ele>1190</ele>
        <time>2023-05-07T07:20:30Z</time>
      </trkpt>
      <trkpt lat="47.95459" lon="7.01157">
        <ele>1191</ele>
        <time>2023-05-07T07:20:42Z</time>
      </trkpt>
      <trkpt lat="47.95462" lon="7.0113">
        <ele>1192</ele>
        <time>2023-05-07T07:20:58Z</time>
      </trkpt>
      <trkpt lat="47.95465" lon="7.01117">
        <ele>1193</ele>
        <time>2023-05-07T07:21:07Z</time>
      </trkpt>
      <trkpt lat="47.95473" lon="7.01076">
        <ele>1195</ele>
        <time>2023-05-07T07:21:32Z</time>
      </trkpt>
      <trkpt lat="47.95475" lon="7.01071">
        <ele>1196</ele>
        <time>2023-05-07T07:21:36Z</time>
      </trkpt>
      <trkpt lat="47.95476" lon="7.01057">
        <ele>1196</ele>
        <time>2023-05-07T07:21:44Z</time>
      </trkpt>
      <trkpt lat="47.95478" lon="7.01052">
        <ele>1197</ele>
        <time>2023-05-07T07:21:48Z</time>
      </trkpt>
      <trkpt lat="47.95485" lon="7.00997">
        <ele>1198</ele>
        <time>2023-05-07T07:22:19Z</time>
      </trkpt>
      <trkpt lat="47.95486" lon="7.00989">
        <ele>1198</ele>
        <time>2023-05-07T07:22:23Z</time>
      </trkpt>
      <trkpt lat="47.95486" lon="7.00979">
        <ele>1199</ele>
        <time>2023-05-07T07:22:29Z</time>
      </trkpt>
      <trkpt lat="47.9549" lon="7.0095">
        <ele>1200</ele>
        <time>2023-05-07T07:22:45Z</time>
      </trkpt>
      <trkpt lat="47.95492" lon="7.00944">
        <ele>1201</ele>
        <time>2023-05-07T07:22:50Z</time>
      </trkpt>
      <trkpt lat="47.95493" lon="7.00924">
        <ele>1202</ele>
        <time>2023-05-07T07:23:02Z</time>
      </trkpt>
      <trkpt lat="47.95495" lon="7.00916">
        <ele>1202</ele>
        <time>2023-05-07T07:23:06Z</time>
      </trkpt>
      <trkpt lat="47.95502" lon="7.00866">
        <ele>1204</ele>
        <time>2023-05-07T07:23:41Z</time>
      </trkpt>
      <trkpt lat="47.95511" lon="7.00816">
        <ele>1206</ele>
        <time>2023-05-07T07:24:12Z</time>
      </trkpt>
      <trkpt lat="47.95514" lon="7.00788">
        <ele>1207</ele>
        <time>2023-05-07T07:24:27Z</time>
      </trkpt>
      <trkpt lat="47.9552" lon="7.00769">
        <ele>1207</ele>
        <time>2023-05-07T07:24:39Z</time>
      </trkpt>
      <trkpt lat="47.95521" lon="7.00756">
        <ele>1207</ele>
        <time>2023-05-07T07:24:47Z</time>
      </trkpt>
      <trkpt lat="47.95537" lon="7.00705">
        <ele>1208</ele>
        <time>2023-05-07T07:25:20Z</time>
      </trkpt>
      <trkpt lat="47.95558" lon="7.00654">
        <ele>1209</ele>
        <time>2023-05-07T07:25:53Z</time>
      </trkpt>
      <trkpt lat="47.95567" lon="7.00638">
        <ele>1208</ele>
        <time>2023-05-07T07:26:05Z</time>
      </trkpt>
      <trkpt lat="47.95572" lon="7.00634">
        <ele>1208</ele>
        <time>2023-05-07T07:26:09Z</time>
      </trkpt>
      <trkpt lat="47.95575" lon="7.0063">
        <ele>1208</ele>
        <time>2023-05-07T07:26:13Z</time>
      </trkpt>
      <trkpt lat="47.95599" lon="7.00619">
        <ele>1207</ele>
        <time>2023-05-07T07:26:35Z</time>
      </trkpt>
      <trkpt lat="47.95604" lon="7.00617">
        <ele>1207</ele>
        <time>2023-05-07T07:26:39Z</time>
      </trkpt>
      <trkpt lat="47.95609" lon="7.00614">
        <ele>1207</ele>
        <time>2023-05-07T07:26:43Z</time>
      </trkpt>
      <trkpt lat="47.95619" lon="7.00614">
        <ele>1207</ele>
        <time>2023-05-07T07:26:52Z</time>
      </trkpt>
      <trkpt lat="47.95657" lon="7.00599">
        <ele>1207</ele>
        <time>2023-05-07T07:27:26Z</time>
      </trkpt>
      <trkpt lat="47.95691" lon="7.00583">
        <ele>1207</ele>
        <time>2023-05-07T07:27:58Z</time>
      </trkpt>
      <trkpt lat="47.95703" lon="7.00577">
        <ele>1208</ele>
        <time>2023-05-07T07:28:08Z</time>
      </trkpt>
      <trkpt lat="47.95735" lon="7.00549">
        <ele>1207</ele>
        <time>2023-05-07T07:28:39Z</time>
      </trkpt>
      <trkpt lat="47.95752" lon="7.00536">
        <ele>1207</ele>
        <time>2023-05-07T07:28:55Z</time>
      </trkpt>
      <trkpt lat="47.95757" lon="7.00534">
        <ele>1207</ele>
        <time>2023-05-07T07:28:58Z</time>
      </trkpt>
      <trkpt lat="47.95783" lon="7.00512">
        <ele>1208</ele>
        <time>2023-05-07T07:29:25Z</time>
      </trkpt>
      <trkpt lat="47.95816" lon="7.00494">
        <ele>1210</ele>
        <time>2023-05-07T07:29:59Z</time>
      </trkpt>
      <trkpt lat="47.9583" lon="7.00487">
        <ele>1212</ele>
        <time>2023-05-07T07:30:13Z</time>
      </trkpt>
      <trkpt lat="47.95834" lon="7.00484">
        <ele>1212</ele>
        <time>2023-05-07T07:30:16Z</time>
      </trkpt>
      <trkpt lat="47.9584" lon="7.00483">
        <ele>1212</ele>
        <time>2023-05-07T07:30:21Z</time>
      </trkpt>
      <trkpt lat="47.95879" lon="7.00481">
        <ele>1211</ele>
        <time>2023-05-07T07:30:55Z</time>
      </trkpt>
      <trkpt lat="47.95883" lon="7.00481">
        <ele>1211</ele>
        <time>2023-05-07T07:30:59Z</time>
      </trkpt>
      <trkpt lat="47.95888" lon="7.0048">
        <ele>1211</ele>
        <time>2023-05-07T07:31:03Z</time>
      </trkpt>
      <trkpt lat="47.95916" lon="7.00484">
        <ele>1208</ele>
        <time>2023-05-07T07:31:30Z</time>
      </trkpt>
      <trkpt lat="47.95947" lon="7.00464">
        <ele>1206</ele>
        <time>2023-05-07T07:32:01Z</time>
      </trkpt>
      <trkpt lat="47.95951" lon="7.0046">
        <ele>1206</ele>
        <time>2023-05-07T07:32:05Z</time>
      </trkpt>
      <trkpt lat="47.95958" lon="7.00457">
        <ele>1207</ele>
        <time>2023-05-07T07:32:11Z</time>
      </trkpt>
      <trkpt lat="47.95978" lon="7.00427">
        <ele>1209</ele>
        <time>2023-05-07T07:32:36Z</time>
      </trkpt>
      <trkpt lat="47.95998" lon="7.00385">
        <ele>1211</ele>
        <time>2023-05-07T07:33:06Z</time>
      </trkpt>
      <trkpt lat="47.96007" lon="7.00368">
        <ele>1212</ele>
        <time>2023-05-07T07:33:19Z</time>
      </trkpt>
      <trkpt lat="47.9603" lon="7.00334">
        <ele>1217</ele>
        <time>2023-05-07T07:33:53Z</time>
      </trkpt>
      <trkpt lat="47.96051" lon="7.00306">
        <ele>1220</ele>
        <time>2023-05-07T07:34:21Z</time>
      </trkpt>
      <trkpt lat="47.96065" lon="7.0029">
        <ele>1222</ele>
        <time>2023-05-07T07:34:42Z</time>
      </trkpt>
      <trkpt lat="47.96083" lon="7.00266">
        <ele>1224</ele>
        <time>2023-05-07T07:35:02Z</time>
      </trkpt>
      <trkpt lat="47.96086" lon="7.00261">
        <ele>1224</ele>
        <time>2023-05-07T07:35:06Z</time>
      </trkpt>
      <trkpt lat="47.96089" lon="7.00256">
        <ele>1223</ele>
        <time>2023-05-07T07:35:10Z</time>
      </trkpt>
      <trkpt lat="47.96091" lon="7.0025">
        <ele>1223</ele>
        <time>2023-05-07T07:35:14Z</time>
      </trkpt>
      <trkpt lat="47.96106" lon="7.00232">
        <ele>1224</ele>
        <time>2023-05-07T07:35:31Z</time>
      </trkpt>
      <trkpt lat="47.96114" lon="7.00226">
        <ele>1225</ele>
        <time>2023-05-07T07:35:39Z</time>
      </trkpt>
      <trkpt lat="47.96118" lon="7.00221">
        <ele>1226</ele>
        <time>2023-05-07T07:35:44Z</time>
      </trkpt>
      <trkpt lat="47.96123" lon="7.00218">
        <ele>1226</ele>
        <time>2023-05-07T07:35:49Z</time>
      </trkpt>
      <trkpt lat="47.96134" lon="7.00204">
        <ele>1227</ele>
        <time>2023-05-07T07:36:01Z</time>
      </trkpt>
      <trkpt lat="47.96138" lon="7.002">
        <ele>1228</ele>
        <time>2023-05-07T07:36:05Z</time>
      </trkpt>
      <trkpt lat="47.96164" lon="7.00159">
        <ele>1229</ele>
        <time>2023-05-07T07:36:39Z</time>
      </trkpt>
      <trkpt lat="47.96187" lon="7.00114">
        <ele>1228</ele>
        <time>2023-05-07T07:37:10Z</time>
      </trkpt>
      <trkpt lat="47.9619" lon="7.00108">
        <ele>1228</ele>
        <time>2023-05-07T07:37:14Z</time>
      </trkpt>
      <trkpt lat="47.96195" lon="7.00088">
        <ele>1228</ele>
        <time>2023-05-07T07:37:26Z</time>
      </trkpt>
      <trkpt lat="47.96199" lon="7.00064">
        <ele>1228</ele>
        <time>2023-05-07T07:37:40Z</time>
      </trkpt>
      <trkpt lat="47.96202" lon="7.00057">
        <ele>1229</ele>
        <time>2023-05-07T07:37:45Z</time>
      </trkpt>
      <trkpt lat="47.96205" lon="7.00006">
        <ele>1229</ele>
        <time>2023-05-07T07:38:12Z</time>
      </trkpt>
      <trkpt lat="47.96207" lon="6.99992">
        <ele>1229</ele>
        <time>2023-05-07T07:38:20Z</time>
      </trkpt>
      <trkpt lat="47.96209" lon="6.99974">
        <ele>1229</ele>
        <time>2023-05-07T07:38:32Z</time>
      </trkpt>
      <trkpt lat="47.96211" lon="6.99967">
        <ele>1229</ele>
        <time>2023-05-07T07:38:36Z</time>
      </trkpt>
      <trkpt lat="47.96211" lon="6.9996">
        <ele>1229</ele>
        <time>2023-05-07T07:38:40Z</time>
      </trkpt>
      <trkpt lat="47.96217" lon="6.99932">
        <ele>1229</ele>
        <time>2023-05-07T07:38:55Z</time>
      </trkpt>
      <trkpt lat="47.96219" lon="6.99926">
        <ele>1229</ele>
        <time>2023-05-07T07:38:59Z</time>
      </trkpt>
      <trkpt lat="47.96222" lon="6.99919">
        <ele>1229</ele>
        <time>2023-05-07T07:39:03Z</time>
      </trkpt>
      <trkpt lat="47.96223" lon="6.99912">
        <ele>1229</ele>
        <time>2023-05-07T07:39:06Z</time>
      </trkpt>
      <trkpt lat="47.96228" lon="6.99899">
        <ele>1229</ele>
        <time>2023-05-07T07:39:14Z</time>
      </trkpt>
      <trkpt lat="47.96229" lon="6.99893">
        <ele>1229</ele>
        <time>2023-05-07T07:39:19Z</time>
      </trkpt>
      <trkpt lat="47.96232" lon="6.99887">
        <ele>1230</ele>
        <time>2023-05-07T07:39:23Z</time>
      </trkpt>
      <trkpt lat="47.96239" lon="6.9986">
        <ele>1230</ele>
        <time>2023-05-07T07:39:37Z</time>
      </trkpt>
      <trkpt lat="47.9626" lon="6.99817">
        <ele>1229</ele>
        <time>2023-05-07T07:40:07Z</time>
      </trkpt>
      <trkpt lat="47.96288" lon="6.99786">
        <ele>1228</ele>
        <time>2023-05-07T07:40:34Z</time>
      </trkpt>
      <trkpt lat="47.96315" lon="6.99771">
        <ele>1227</ele>
        <time>2023-05-07T07:40:57Z</time>
      </trkpt>
      <trkpt lat="47.96321" lon="6.99771">
        <ele>1227</ele>
        <time>2023-05-07T07:41:01Z</time>
      </trkpt>
      <trkpt lat="47.96329" lon="6.99766">
        <ele>1227</ele>
        <time>2023-05-07T07:41:09Z</time>
      </trkpt>
      <trkpt lat="47.96334" lon="6.99767">
        <ele>1227</ele>
        <time>2023-05-07T07:41:13Z</time>
      </trkpt>
      <trkpt lat="47.96339" lon="6.99768">
        <ele>1227</ele>
        <time>2023-05-07T07:41:18Z</time>
      </trkpt>
      <trkpt lat="47.96343" lon="6.99762">
        <ele>1227</ele>
        <time>2023-05-07T07:41:22Z</time>
      </trkpt>
      <trkpt lat="47.96348" lon="6.99759">
        <ele>1226</ele>
        <time>2023-05-07T07:41:27Z</time>
      </trkpt>
      <trkpt lat="47.96352" lon="6.99755">
        <ele>1227</ele>
        <time>2023-05-07T07:41:32Z</time>
      </trkpt>
      <trkpt lat="47.96356" lon="6.9975">
        <ele>1226</ele>
        <time>2023-05-07T07:41:36Z</time>
      </trkpt>
      <trkpt lat="47.96365" lon="6.99743">
        <ele>1226</ele>
        <time>2023-05-07T07:41:44Z</time>
      </trkpt>
      <trkpt lat="47.96376" lon="6.9974">
        <ele>1226</ele>
        <time>2023-05-07T07:41:52Z</time>
      </trkpt>
      <trkpt lat="47.96385" lon="6.99737">
        <ele>1225</ele>
        <time>2023-05-07T07:42:00Z</time>
      </trkpt>
      <trkpt lat="47.9639" lon="6.99738">
        <ele>1225</ele>
        <time>2023-05-07T07:42:05Z</time>
      </trkpt>
      <trkpt lat="47.96394" lon="6.99738">
        <ele>1225</ele>
        <time>2023-05-07T07:42:09Z</time>
      </trkpt>
      <trkpt lat="47.964" lon="6.99738">
        <ele>1226</ele>
        <time>2023-05-07T07:42:14Z</time>
      </trkpt>
      <trkpt lat="47.96439" lon="6.99724">
        <ele>1225</ele>
        <time>2023-05-07T07:42:46Z</time>
      </trkpt>
      <trkpt lat="47.96462" lon="6.99714">
        <ele>1224</ele>
        <time>2023-05-07T07:43:05Z</time>
      </trkpt>
      <trkpt lat="47.96467" lon="6.99713">
        <ele>1224</ele>
        <time>2023-05-07T07:43:10Z</time>
      </trkpt>
      <trkpt lat="47.96472" lon="6.99713">
        <ele>1224</ele>
        <time>2023-05-07T07:43:14Z</time>
      </trkpt>
      <trkpt lat="47.96477" lon="6.99711">
        <ele>1223</ele>
        <time>2023-05-07T07:43:18Z</time>
      </trkpt>
      <trkpt lat="47.96487" lon="6.99705">
        <ele>1222</ele>
        <time>2023-05-07T07:43:30Z</time>
      </trkpt>
      <trkpt lat="47.96501" lon="6.99698">
        <ele>1221</ele>
        <time>2023-05-07T07:43:42Z</time>
      </trkpt>
      <trkpt lat="47.96504" lon="6.99695">
        <ele>1220</ele>
        <time>2023-05-07T07:43:46Z</time>
      </trkpt>
      <trkpt lat="47.96509" lon="6.99694">
        <ele>1220</ele>
        <time>2023-05-07T07:43:50Z</time>
      </trkpt>
      <trkpt lat="47.96542" lon="6.9967">
        <ele>1214</ele>
        <time>2023-05-07T07:44:23Z</time>
      </trkpt>
      <trkpt lat="47.9657" lon="6.99643">
        <ele>1210</ele>
        <time>2023-05-07T07:44:51Z</time>
      </trkpt>
      <trkpt lat="47.96577" lon="6.99633">
        <ele>1209</ele>
        <time>2023-05-07T07:45:00Z</time>
      </trkpt>
      <trkpt lat="47.96613" lon="6.99611">
        <ele>1205</ele>
        <time>2023-05-07T07:45:33Z</time>
      </trkpt>
      <trkpt lat="47.96617" lon="6.99608">
        <ele>1205</ele>
        <time>2023-05-07T07:45:37Z</time>
      </trkpt>
      <trkpt lat="47.96621" lon="6.99603">
        <ele>1205</ele>
        <time>2023-05-07T07:45:41Z</time>
      </trkpt>
      <trkpt lat="47.96625" lon="6.99599">
        <ele>1204</ele>
        <time>2023-05-07T07:45:45Z</time>
      </trkpt>
      <trkpt lat="47.96644" lon="6.99577">
        <ele>1203</ele>
        <time>2023-05-07T07:46:05Z</time>
      </trkpt>
      <trkpt lat="47.96673" lon="6.99537">
        <ele>1203</ele>
        <time>2023-05-07T07:46:38Z</time>
      </trkpt>
      <trkpt lat="47.96688" lon="6.99518">
        <ele>1203</ele>
        <time>2023-05-07T07:46:54Z</time>
      </trkpt>
      <trkpt lat="47.96691" lon="6.99513">
        <ele>1203</ele>
        <time>2023-05-07T07:46:58Z</time>
      </trkpt>
      <trkpt lat="47.96717" lon="6.99494">
        <ele>1203</ele>
        <time>2023-05-07T07:47:21Z</time>
      </trkpt>
      <trkpt lat="47.96727" lon="6.9949">
        <ele>1203</ele>
        <time>2023-05-07T07:47:29Z</time>
      </trkpt>
      <trkpt lat="47.9673" lon="6.99485">
        <ele>1203</ele>
        <time>2023-05-07T07:47:33Z</time>
      </trkpt>
      <trkpt lat="47.96734" lon="6.99482">
        <ele>1203</ele>
        <time>2023-05-07T07:47:37Z</time>
      </trkpt>
      <trkpt lat="47.96742" lon="6.99473">
        <ele>1203</ele>
        <time>2023-05-07T07:47:45Z</time>
      </trkpt>
      <trkpt lat="47.9675" lon="6.99467">
        <ele>1203</ele>
        <time>2023-05-07T07:47:53Z</time>
      </trkpt>
      <trkpt lat="47.96763" lon="6.99461">
        <ele>1204</ele>
        <time>2023-05-07T07:48:05Z</time>
      </trkpt>
      <trkpt lat="47.9679" lon="6.99432">
        <ele>1206</ele>
        <time>2023-05-07T07:48:36Z</time>
      </trkpt>
      <trkpt lat="47.96799" lon="6.99424">
        <ele>1207</ele>
        <time>2023-05-07T07:48:46Z</time>
      </trkpt>
      <trkpt lat="47.96802" lon="6.99419">
        <ele>1207</ele>
        <time>2023-05-07T07:48:50Z</time>
      </trkpt>
      <trkpt lat="47.96809" lon="6.99407">
        <ele>1208</ele>
        <time>2023-05-07T07:49:01Z</time>
      </trkpt>
      <trkpt lat="47.96814" lon="6.99399">
        <ele>1209</ele>
        <time>2023-05-07T07:49:08Z</time>
      </trkpt>
      <trkpt lat="47.96831" lon="6.99383">
        <ele>1213</ele>
        <time>2023-05-07T07:49:33Z</time>
      </trkpt>
      <trkpt lat="47.96835" lon="6.9938">
        <ele>1214</ele>
        <time>2023-05-07T07:49:39Z</time>
      </trkpt>
      <trkpt lat="47.96839" lon="6.99377">
        <ele>1215</ele>
        <time>2023-05-07T07:49:43Z</time>
      </trkpt>
      <trkpt lat="47.96841" lon="6.99371">
        <ele>1215</ele>
        <time>2023-05-07T07:49:48Z</time>
      </trkpt>
      <trkpt lat="47.96845" lon="6.99355">
        <ele>1218</ele>
        <time>2023-05-07T07:50:02Z</time>
      </trkpt>
      <trkpt lat="47.96844" lon="6.99348">
        <ele>1219</ele>
        <time>2023-05-07T07:50:08Z</time>
      </trkpt>
      <trkpt lat="47.96845" lon="6.99342">
        <ele>1220</ele>
        <time>2023-05-07T07:50:13Z</time>
      </trkpt>
      <trkpt lat="47.96848" lon="6.99332">
        <ele>1221</ele>
        <time>2023-05-07T07:50:22Z</time>
      </trkpt>
      <trkpt lat="47.9686" lon="6.99323">
        <ele>1224</ele>
        <time>2023-05-07T07:50:40Z</time>
      </trkpt>
      <trkpt lat="47.96867" lon="6.99313">
        <ele>1227</ele>
        <time>2023-05-07T07:50:52Z</time>
      </trkpt>
      <trkpt lat="47.96873" lon="6.99311">
        <ele>1228</ele>
        <time>2023-05-07T07:50:59Z</time>
      </trkpt>
      <trkpt lat="47.96879" lon="6.99312">
        <ele>1230</ele>
        <time>2023-05-07T07:51:07Z</time>
      </trkpt>
      <trkpt lat="47.96883" lon="6.9931">
        <ele>1231</ele>
        <time>2023-05-07T07:51:13Z</time>
      </trkpt>
      <trkpt lat="47.96899" lon="6.99285">
        <ele>1238</ele>
        <time>2023-05-07T07:51:49Z</time>
      </trkpt>
      <trkpt lat="47.96919" lon="6.99251">
        <ele>1243</ele>
        <time>2023-05-07T07:52:24Z</time>
      </trkpt>
      <trkpt lat="47.96933" lon="6.99232">
        <ele>1246</ele>
        <time>2023-05-07T07:52:44Z</time>
      </trkpt>
      <trkpt lat="47.96945" lon="6.99221">
        <ele>1246</ele>
        <time>2023-05-07T07:52:57Z</time>
      </trkpt>
      <trkpt lat="47.9695" lon="6.99219">
        <ele>1246</ele>
        <time>2023-05-07T07:53:02Z</time>
      </trkpt>
      <trkpt lat="47.96983" lon="6.99211">
        <ele>1248</ele>
        <time>2023-05-07T07:53:31Z</time>
      </trkpt>
      <trkpt lat="47.96988" lon="6.99211">
        <ele>1248</ele>
        <time>2023-05-07T07:54:22Z</time>
      </trkpt>
      <trkpt lat="47.96992" lon="6.9921">
        <ele>1248</ele>
        <time>2023-05-07T07:54:26Z</time>
      </trkpt>
      <trkpt lat="47.97001" lon="6.99209">
        <ele>1248</ele>
        <time>2023-05-07T07:54:34Z</time>
      </trkpt>
      <trkpt lat="47.97038" lon="6.99203">
        <ele>1248</ele>
        <time>2023-05-07T07:55:07Z</time>
      </trkpt>
      <trkpt lat="47.97068" lon="6.99195">
        <ele>1247</ele>
        <time>2023-05-07T07:55:32Z</time>
      </trkpt>
      <trkpt lat="47.97081" lon="6.99186">
        <ele>1247</ele>
        <time>2023-05-07T07:55:44Z</time>
      </trkpt>
      <trkpt lat="47.97113" lon="6.99166">
        <ele>1250</ele>
        <time>2023-05-07T07:56:14Z</time>
      </trkpt>
      <trkpt lat="47.97146" lon="6.99148">
        <ele>1254</ele>
        <time>2023-05-07T07:56:49Z</time>
      </trkpt>
      <trkpt lat="47.97177" lon="6.99135">
        <ele>1256</ele>
        <time>2023-05-07T07:57:17Z</time>
      </trkpt>
      <trkpt lat="47.97214" lon="6.99133">
        <ele>1259</ele>
        <time>2023-05-07T07:57:50Z</time>
      </trkpt>
      <trkpt lat="47.97219" lon="6.99133">
        <ele>1259</ele>
        <time>2023-05-07T07:57:54Z</time>
      </trkpt>
      <trkpt lat="47.97229" lon="6.99135">
        <ele>1260</ele>
        <time>2023-05-07T07:58:02Z</time>
      </trkpt>
      <trkpt lat="47.97238" lon="6.99134">
        <ele>1260</ele>
        <time>2023-05-07T07:58:09Z</time>
      </trkpt>
      <trkpt lat="47.97243" lon="6.99134">
        <ele>1261</ele>
        <time>2023-05-07T07:58:13Z</time>
      </trkpt>
      <trkpt lat="47.97247" lon="6.99133">
        <ele>1261</ele>
        <time>2023-05-07T07:58:22Z</time>
      </trkpt>
      <trkpt lat="47.97254" lon="6.99133">
        <ele>1262</ele>
        <time>2023-05-07T07:58:33Z</time>
      </trkpt>
      <trkpt lat="47.97284" lon="6.99128">
        <ele>1263</ele>
        <time>2023-05-07T07:59:04Z</time>
      </trkpt>
      <trkpt lat="47.97322" lon="6.99123">
        <ele>1266</ele>
        <time>2023-05-07T07:59:36Z</time>
      </trkpt>
      <trkpt lat="47.97358" lon="6.99107">
        <ele>1267</ele>
        <time>2023-05-07T08:00:07Z</time>
      </trkpt>
      <trkpt lat="47.97397" lon="6.9909">
        <ele>1267</ele>
        <time>2023-05-07T08:00:39Z</time>
      </trkpt>
      <trkpt lat="47.97401" lon="6.99087">
        <ele>1267</ele>
        <time>2023-05-07T08:00:43Z</time>
      </trkpt>
      <trkpt lat="47.97436" lon="6.99069">
        <ele>1270</ele>
        <time>2023-05-07T08:01:17Z</time>
      </trkpt>
      <trkpt lat="47.97449" lon="6.99062">
        <ele>1272</ele>
        <time>2023-05-07T08:01:34Z</time>
      </trkpt>
      <trkpt lat="47.97452" lon="6.99058">
        <ele>1272</ele>
        <time>2023-05-07T08:01:40Z</time>
      </trkpt>
      <trkpt lat="47.97472" lon="6.99042">
        <ele>1268</ele>
        <time>2023-05-07T08:02:03Z</time>
      </trkpt>
      <trkpt lat="47.97483" lon="6.99028">
        <ele>1268</ele>
        <time>2023-05-07T08:02:14Z</time>
      </trkpt>
      <trkpt lat="47.9751" lon="6.98997">
        <ele>1270</ele>
        <time>2023-05-07T08:02:46Z</time>
      </trkpt>
      <trkpt lat="47.97521" lon="6.98983">
        <ele>1271</ele>
        <time>2023-05-07T08:03:10Z</time>
      </trkpt>
      <trkpt lat="47.97519" lon="6.98968">
        <ele>1272</ele>
        <time>2023-05-07T08:03:25Z</time>
      </trkpt>
      <trkpt lat="47.97519" lon="6.98959">
        <ele>1271</ele>
        <time>2023-05-07T08:03:34Z</time>
      </trkpt>
      <trkpt lat="47.97521" lon="6.98964">
        <ele>1271</ele>
        <time>2023-05-07T08:31:38Z</time>
      </trkpt>
      <trkpt lat="47.97521" lon="6.98966">
        <ele>1271</ele>
        <time>2023-05-07T08:31:39Z</time>
      </trkpt>
      <trkpt lat="47.97521" lon="6.98973">
        <ele>1271</ele>
        <time>2023-05-07T08:31:44Z</time>
      </trkpt>
      <trkpt lat="47.97526" lon="6.98971">
        <ele>1271</ele>
        <time>2023-05-07T08:31:52Z</time>
      </trkpt>
      <trkpt lat="47.97542" lon="6.98948">
        <ele>1268</ele>
        <time>2023-05-07T08:32:20Z</time>
      </trkpt>
      <trkpt lat="47.97548" lon="6.98945">
        <ele>1267</ele>
        <time>2023-05-07T08:32:28Z</time>
      </trkpt>
      <trkpt lat="47.97569" lon="6.98915">
        <ele>1260</ele>
        <time>2023-05-07T08:33:01Z</time>
      </trkpt>
      <trkpt lat="47.97568" lon="6.989">
        <ele>1259</ele>
        <time>2023-05-07T08:33:11Z</time>
      </trkpt>
      <trkpt lat="47.97562" lon="6.9888">
        <ele>1256</ele>
        <time>2023-05-07T08:33:27Z</time>
      </trkpt>
      <trkpt lat="47.97551" lon="6.98852">
        <ele>1252</ele>
        <time>2023-05-07T08:33:49Z</time>
      </trkpt>
      <trkpt lat="47.9755" lon="6.98845">
        <ele>1251</ele>
        <time>2023-05-07T08:33:54Z</time>
      </trkpt>
      <trkpt lat="47.97559" lon="6.98831">
        <ele>1248</ele>
        <time>2023-05-07T08:34:08Z</time>
      </trkpt>
      <trkpt lat="47.97562" lon="6.98824">
        <ele>1247</ele>
        <time>2023-05-07T08:34:13Z</time>
      </trkpt>
      <trkpt lat="47.97588" lon="6.98792">
        <ele>1243</ele>
        <time>2023-05-07T08:34:45Z</time>
      </trkpt>
      <trkpt lat="47.97614" lon="6.98761">
        <ele>1238</ele>
        <time>2023-05-07T08:35:18Z</time>
      </trkpt>
      <trkpt lat="47.97618" lon="6.98757">
        <ele>1238</ele>
        <time>2023-05-07T08:35:23Z</time>
      </trkpt>
      <trkpt lat="47.97647" lon="6.98737">
        <ele>1234</ele>
        <time>2023-05-07T08:35:54Z</time>
      </trkpt>
      <trkpt lat="47.97668" lon="6.98729">
        <ele>1232</ele>
        <time>2023-05-07T08:36:16Z</time>
      </trkpt>
      <trkpt lat="47.97699" lon="6.98731">
        <ele>1228</ele>
        <time>2023-05-07T08:36:50Z</time>
      </trkpt>
      <trkpt lat="47.97715" lon="6.98703">
        <ele>1224</ele>
        <time>2023-05-07T08:37:10Z</time>
      </trkpt>
      <trkpt lat="47.97746" lon="6.9867">
        <ele>1219</ele>
        <time>2023-05-07T08:37:41Z</time>
      </trkpt>
      <trkpt lat="47.97777" lon="6.98643">
        <ele>1214</ele>
        <time>2023-05-07T08:38:13Z</time>
      </trkpt>
      <trkpt lat="47.97808" lon="6.98615">
        <ele>1210</ele>
        <time>2023-05-07T08:38:46Z</time>
      </trkpt>
      <trkpt lat="47.97839" lon="6.98585">
        <ele>1207</ele>
        <time>2023-05-07T08:39:18Z</time>
      </trkpt>
      <trkpt lat="47.97848" lon="6.98578">
        <ele>1206</ele>
        <time>2023-05-07T08:39:27Z</time>
      </trkpt>
      <trkpt lat="47.97852" lon="6.98576">
        <ele>1206</ele>
        <time>2023-05-07T08:39:32Z</time>
      </trkpt>
      <trkpt lat="47.97876" lon="6.98552">
        <ele>1202</ele>
        <time>2023-05-07T08:39:58Z</time>
      </trkpt>
      <trkpt lat="47.97885" lon="6.98552">
        <ele>1202</ele>
        <time>2023-05-07T08:40:06Z</time>
      </trkpt>
      <trkpt lat="47.9789" lon="6.9855">
        <ele>1201</ele>
        <time>2023-05-07T08:40:11Z</time>
      </trkpt>
      <trkpt lat="47.97922" lon="6.98527">
        <ele>1198</ele>
        <time>2023-05-07T08:40:45Z</time>
      </trkpt>
      <trkpt lat="47.97952" lon="6.98507">
        <ele>1195</ele>
        <time>2023-05-07T08:41:16Z</time>
      </trkpt>
      <trkpt lat="47.97969" lon="6.98495">
        <ele>1194</ele>
        <time>2023-05-07T08:41:33Z</time>
      </trkpt>
      <trkpt lat="47.97973" lon="6.98495">
        <ele>1194</ele>
        <time>2023-05-07T08:41:37Z</time>
      </trkpt>
      <trkpt lat="47.98007" lon="6.98471">
        <ele>1194</ele>
        <time>2023-05-07T08:42:09Z</time>
      </trkpt>
      <trkpt lat="47.98036" lon="6.98452">
        <ele>1197</ele>
        <time>2023-05-07T08:42:43Z</time>
      </trkpt>
      <trkpt lat="47.98063" lon="6.98434">
        <ele>1200</ele>
        <time>2023-05-07T08:43:16Z</time>
      </trkpt>
      <trkpt lat="47.98091" lon="6.98417">
        <ele>1204</ele>
        <time>2023-05-07T08:43:48Z</time>
      </trkpt>
      <trkpt lat="47.98095" lon="6.98413">
        <ele>1204</ele>
        <time>2023-05-07T08:43:53Z</time>
      </trkpt>
      <trkpt lat="47.98122" lon="6.98395">
        <ele>1208</ele>
        <time>2023-05-07T08:44:25Z</time>
      </trkpt>
      <trkpt lat="47.98154" lon="6.98384">
        <ele>1211</ele>
        <time>2023-05-07T08:44:59Z</time>
      </trkpt>
      <trkpt lat="47.98181" lon="6.98376">
        <ele>1214</ele>
        <time>2023-05-07T08:45:33Z</time>
      </trkpt>
      <trkpt lat="47.98213" lon="6.98367">
        <ele>1217</ele>
        <time>2023-05-07T08:46:05Z</time>
      </trkpt>
      <trkpt lat="47.98245" lon="6.98354">
        <ele>1221</ele>
        <time>2023-05-07T08:46:37Z</time>
      </trkpt>
      <trkpt lat="47.98258" lon="6.98347">
        <ele>1221</ele>
        <time>2023-05-07T08:46:50Z</time>
      </trkpt>
      <trkpt lat="47.98262" lon="6.98344">
        <ele>1221</ele>
        <time>2023-05-07T08:46:54Z</time>
      </trkpt>
      <trkpt lat="47.98281" lon="6.98334">
        <ele>1222</ele>
        <time>2023-05-07T08:47:14Z</time>
      </trkpt>
      <trkpt lat="47.98285" lon="6.98334">
        <ele>1222</ele>
        <time>2023-05-07T08:47:19Z</time>
      </trkpt>
      <trkpt lat="47.98295" lon="6.98337">
        <ele>1223</ele>
        <time>2023-05-07T08:47:28Z</time>
      </trkpt>
      <trkpt lat="47.983" lon="6.98336">
        <ele>1223</ele>
        <time>2023-05-07T08:47:33Z</time>
      </trkpt>
      <trkpt lat="47.98312" lon="6.98329">
        <ele>1225</ele>
        <time>2023-05-07T08:47:47Z</time>
      </trkpt>
      <trkpt lat="47.98325" lon="6.98318">
        <ele>1227</ele>
        <time>2023-05-07T08:48:02Z</time>
      </trkpt>
      <trkpt lat="47.98348" lon="6.98284">
        <ele>1230</ele>
        <time>2023-05-07T08:48:33Z</time>
      </trkpt>
      <trkpt lat="47.9836" lon="6.98271">
        <ele>1230</ele>
        <time>2023-05-07T08:48:47Z</time>
      </trkpt>
      <trkpt lat="47.98363" lon="6.98266">
        <ele>1231</ele>
        <time>2023-05-07T08:48:52Z</time>
      </trkpt>
      <trkpt lat="47.98364" lon="6.98263">
        <ele>1229</ele>
        <time>2023-05-07T08:51:08Z</time>
      </trkpt>
      <trkpt lat="47.9837" lon="6.98265">
        <ele>1229</ele>
        <time>2023-05-07T08:51:20Z</time>
      </trkpt>
      <trkpt lat="47.98375" lon="6.98265">
        <ele>1228</ele>
        <time>2023-05-07T08:51:25Z</time>
      </trkpt>
      <trkpt lat="47.98393" lon="6.98259">
        <ele>1227</ele>
        <time>2023-05-07T08:51:41Z</time>
      </trkpt>
      <trkpt lat="47.9841" lon="6.98243">
        <ele>1225</ele>
        <time>2023-05-07T08:52:00Z</time>
      </trkpt>
      <trkpt lat="47.98414" lon="6.98232">
        <ele>1223</ele>
        <time>2023-05-07T08:52:08Z</time>
      </trkpt>
      <trkpt lat="47.98414" lon="6.98218">
        <ele>1223</ele>
        <time>2023-05-07T08:52:16Z</time>
      </trkpt>
      <trkpt lat="47.98411" lon="6.98204">
        <ele>1224</ele>
        <time>2023-05-07T08:52:24Z</time>
      </trkpt>
      <trkpt lat="47.98414" lon="6.98198">
        <ele>1224</ele>
        <time>2023-05-07T08:52:28Z</time>
      </trkpt>
      <trkpt lat="47.98418" lon="6.98194">
        <ele>1224</ele>
        <time>2023-05-07T08:52:32Z</time>
      </trkpt>
      <trkpt lat="47.98446" lon="6.98167">
        <ele>1226</ele>
        <time>2023-05-07T08:53:01Z</time>
      </trkpt>
      <trkpt lat="47.98457" lon="6.98152">
        <ele>1225</ele>
        <time>2023-05-07T08:53:13Z</time>
      </trkpt>
      <trkpt lat="47.98461" lon="6.98147">
        <ele>1225</ele>
        <time>2023-05-07T08:53:17Z</time>
      </trkpt>
      <trkpt lat="47.98464" lon="6.98142">
        <ele>1225</ele>
        <time>2023-05-07T08:53:21Z</time>
      </trkpt>
      <trkpt lat="47.98471" lon="6.98132">
        <ele>1225</ele>
        <time>2023-05-07T08:53:30Z</time>
      </trkpt>
      <trkpt lat="47.98474" lon="6.98125">
        <ele>1225</ele>
        <time>2023-05-07T08:53:34Z</time>
      </trkpt>
      <trkpt lat="47.98477" lon="6.98119">
        <ele>1225</ele>
        <time>2023-05-07T08:53:38Z</time>
      </trkpt>
      <trkpt lat="47.98494" lon="6.98095">
        <ele>1225</ele>
        <time>2023-05-07T08:53:58Z</time>
      </trkpt>
      <trkpt lat="47.98501" lon="6.98087">
        <ele>1226</ele>
        <time>2023-05-07T08:54:06Z</time>
      </trkpt>
      <trkpt lat="47.98509" lon="6.9807">
        <ele>1227</ele>
        <time>2023-05-07T08:54:19Z</time>
      </trkpt>
      <trkpt lat="47.98512" lon="6.98065">
        <ele>1227</ele>
        <time>2023-05-07T08:54:23Z</time>
      </trkpt>
      <trkpt lat="47.98535" lon="6.98035">
        <ele>1232</ele>
        <time>2023-05-07T08:54:54Z</time>
      </trkpt>
      <trkpt lat="47.98547" lon="6.98027">
        <ele>1233</ele>
        <time>2023-05-07T08:55:07Z</time>
      </trkpt>
      <trkpt lat="47.98552" lon="6.98025">
        <ele>1234</ele>
        <time>2023-05-07T08:55:12Z</time>
      </trkpt>
      <trkpt lat="47.9857" lon="6.9802">
        <ele>1234</ele>
        <time>2023-05-07T08:55:28Z</time>
      </trkpt>
      <trkpt lat="47.98609" lon="6.98015">
        <ele>1235</ele>
        <time>2023-05-07T08:56:01Z</time>
      </trkpt>
      <trkpt lat="47.98614" lon="6.98013">
        <ele>1235</ele>
        <time>2023-05-07T08:56:05Z</time>
      </trkpt>
      <trkpt lat="47.98618" lon="6.98012">
        <ele>1235</ele>
        <time>2023-05-07T08:56:09Z</time>
      </trkpt>
      <trkpt lat="47.98653" lon="6.98006">
        <ele>1239</ele>
        <time>2023-05-07T08:56:44Z</time>
      </trkpt>
      <trkpt lat="47.9866" lon="6.98004">
        <ele>1240</ele>
        <time>2023-05-07T08:56:51Z</time>
      </trkpt>
      <trkpt lat="47.98664" lon="6.98001">
        <ele>1240</ele>
        <time>2023-05-07T08:56:55Z</time>
      </trkpt>
      <trkpt lat="47.98672" lon="6.97994">
        <ele>1240</ele>
        <time>2023-05-07T08:57:03Z</time>
      </trkpt>
      <trkpt lat="47.98677" lon="6.97995">
        <ele>1240</ele>
        <time>2023-05-07T08:57:08Z</time>
      </trkpt>
      <trkpt lat="47.98681" lon="6.98">
        <ele>1240</ele>
        <time>2023-05-07T08:57:12Z</time>
      </trkpt>
      <trkpt lat="47.98687" lon="6.97997">
        <ele>1240</ele>
        <time>2023-05-07T08:57:18Z</time>
      </trkpt>
      <trkpt lat="47.98691" lon="6.97999">
        <ele>1240</ele>
        <time>2023-05-07T08:57:22Z</time>
      </trkpt>
      <trkpt lat="47.98696" lon="6.97999">
        <ele>1240</ele>
        <time>2023-05-07T08:57:26Z</time>
      </trkpt>
      <trkpt lat="47.98705" lon="6.98002">
        <ele>1240</ele>
        <time>2023-05-07T08:57:34Z</time>
      </trkpt>
      <trkpt lat="47.98715" lon="6.98007">
        <ele>1239</ele>
        <time>2023-05-07T08:57:43Z</time>
      </trkpt>
      <trkpt lat="47.98749" lon="6.98009">
        <ele>1241</ele>
        <time>2023-05-07T08:58:11Z</time>
      </trkpt>
      <trkpt lat="47.98766" lon="6.98021">
        <ele>1243</ele>
        <time>2023-05-07T08:58:27Z</time>
      </trkpt>
      <trkpt lat="47.98801" lon="6.98033">
        <ele>1247</ele>
        <time>2023-05-07T08:58:59Z</time>
      </trkpt>
      <trkpt lat="47.98834" lon="6.98043">
        <ele>1249</ele>
        <time>2023-05-07T08:59:28Z</time>
      </trkpt>
      <trkpt lat="47.98839" lon="6.98043">
        <ele>1248</ele>
        <time>2023-05-07T08:59:32Z</time>
      </trkpt>
      <trkpt lat="47.98845" lon="6.98044">
        <ele>1249</ele>
        <time>2023-05-07T08:59:36Z</time>
      </trkpt>
      <trkpt lat="47.9885" lon="6.98044">
        <ele>1249</ele>
        <time>2023-05-07T08:59:40Z</time>
      </trkpt>
      <trkpt lat="47.98859" lon="6.98046">
        <ele>1249</ele>
        <time>2023-05-07T08:59:49Z</time>
      </trkpt>
      <trkpt lat="47.98869" lon="6.98047">
        <ele>1248</ele>
        <time>2023-05-07T08:59:57Z</time>
      </trkpt>
      <trkpt lat="47.98885" lon="6.98049">
        <ele>1248</ele>
        <time>2023-05-07T09:00:09Z</time>
      </trkpt>
      <trkpt lat="47.9889" lon="6.9805">
        <ele>1249</ele>
        <time>2023-05-07T09:00:14Z</time>
      </trkpt>
      <trkpt lat="47.98918" lon="6.98051">
        <ele>1252</ele>
        <time>2023-05-07T09:00:42Z</time>
      </trkpt>
      <trkpt lat="47.98922" lon="6.98052">
        <ele>1252</ele>
        <time>2023-05-07T09:00:46Z</time>
      </trkpt>
      <trkpt lat="47.98927" lon="6.98054">
        <ele>1251</ele>
        <time>2023-05-07T09:00:49Z</time>
      </trkpt>
      <trkpt lat="47.98931" lon="6.98054">
        <ele>1250</ele>
        <time>2023-05-07T09:00:53Z</time>
      </trkpt>
      <trkpt lat="47.98936" lon="6.98055">
        <ele>1250</ele>
        <time>2023-05-07T09:00:57Z</time>
      </trkpt>
      <trkpt lat="47.98942" lon="6.98054">
        <ele>1250</ele>
        <time>2023-05-07T09:01:01Z</time>
      </trkpt>
      <trkpt lat="47.98952" lon="6.98056">
        <ele>1249</ele>
        <time>2023-05-07T09:01:09Z</time>
      </trkpt>
      <trkpt lat="47.98962" lon="6.98056">
        <ele>1249</ele>
        <time>2023-05-07T09:01:17Z</time>
      </trkpt>
      <trkpt lat="47.98991" lon="6.98058">
        <ele>1253</ele>
        <time>2023-05-07T09:01:43Z</time>
      </trkpt>
      <trkpt lat="47.98995" lon="6.9806">
        <ele>1254</ele>
        <time>2023-05-07T09:01:47Z</time>
      </trkpt>
      <trkpt lat="47.99" lon="6.98059">
        <ele>1255</ele>
        <time>2023-05-07T09:01:52Z</time>
      </trkpt>
      <trkpt lat="47.9903" lon="6.98065">
        <ele>1255</ele>
        <time>2023-05-07T09:02:16Z</time>
      </trkpt>
      <trkpt lat="47.99035" lon="6.98066">
        <ele>1255</ele>
        <time>2023-05-07T09:02:20Z</time>
      </trkpt>
      <trkpt lat="47.9904" lon="6.98067">
        <ele>1255</ele>
        <time>2023-05-07T09:02:24Z</time>
      </trkpt>
      <trkpt lat="47.99058" lon="6.98071">
        <ele>1258</ele>
        <time>2023-05-07T09:02:42Z</time>
      </trkpt>
      <trkpt lat="47.99062" lon="6.9807">
        <ele>1259</ele>
        <time>2023-05-07T09:02:46Z</time>
      </trkpt>
      <trkpt lat="47.99067" lon="6.98072">
        <ele>1260</ele>
        <time>2023-05-07T09:02:51Z</time>
      </trkpt>
      <trkpt lat="47.99102" lon="6.98081">
        <ele>1263</ele>
        <time>2023-05-07T09:03:22Z</time>
      </trkpt>
      <trkpt lat="47.99138" lon="6.98087">
        <ele>1267</ele>
        <time>2023-05-07T09:03:56Z</time>
      </trkpt>
      <trkpt lat="47.99143" lon="6.98087">
        <ele>1267</ele>
        <time>2023-05-07T09:04:01Z</time>
      </trkpt>
      <trkpt lat="47.99147" lon="6.98087">
        <ele>1267</ele>
        <time>2023-05-07T09:04:05Z</time>
      </trkpt>
      <trkpt lat="47.99179" lon="6.98082">
        <ele>1273</ele>
        <time>2023-05-07T09:04:42Z</time>
      </trkpt>
      <trkpt lat="47.99207" lon="6.9808">
        <ele>1280</ele>
        <time>2023-05-07T09:05:22Z</time>
      </trkpt>
      <trkpt lat="47.99234" lon="6.98078">
        <ele>1286</ele>
        <time>2023-05-07T09:05:58Z</time>
      </trkpt>
      <trkpt lat="47.99251" lon="6.98073">
        <ele>1288</ele>
        <time>2023-05-07T09:06:18Z</time>
      </trkpt>
      <trkpt lat="47.99271" lon="6.98072">
        <ele>1291</ele>
        <time>2023-05-07T09:06:40Z</time>
      </trkpt>
      <trkpt lat="47.99282" lon="6.98068">
        <ele>1294</ele>
        <time>2023-05-07T09:06:54Z</time>
      </trkpt>
      <trkpt lat="47.99305" lon="6.98068">
        <ele>1296</ele>
        <time>2023-05-07T09:07:15Z</time>
      </trkpt>
      <trkpt lat="47.99334" lon="6.98063">
        <ele>1300</ele>
        <time>2023-05-07T09:07:47Z</time>
      </trkpt>
      <trkpt lat="47.9936" lon="6.98057">
        <ele>1306</ele>
        <time>2023-05-07T09:08:20Z</time>
      </trkpt>
      <trkpt lat="47.99367" lon="6.98053">
        <ele>1309</ele>
        <time>2023-05-07T09:08:32Z</time>
      </trkpt>
      <trkpt lat="47.99374" lon="6.98051">
        <ele>1312</ele>
        <time>2023-05-07T09:08:44Z</time>
      </trkpt>
      <trkpt lat="47.99379" lon="6.98049">
        <ele>1312</ele>
        <time>2023-05-07T09:08:50Z</time>
      </trkpt>
      <trkpt lat="47.99386" lon="6.98052">
        <ele>1314</ele>
        <time>2023-05-07T09:09:45Z</time>
      </trkpt>
      <trkpt lat="47.99396" lon="6.98052">
        <ele>1314</ele>
        <time>2023-05-07T09:09:53Z</time>
      </trkpt>
      <trkpt lat="47.99401" lon="6.98054">
        <ele>1314</ele>
        <time>2023-05-07T09:09:57Z</time>
      </trkpt>
      <trkpt lat="47.99406" lon="6.98053">
        <ele>1314</ele>
        <time>2023-05-07T09:10:01Z</time>
      </trkpt>
      <trkpt lat="47.9941" lon="6.98057">
        <ele>1314</ele>
        <time>2023-05-07T09:10:06Z</time>
      </trkpt>
      <trkpt lat="47.99414" lon="6.9806">
        <ele>1313</ele>
        <time>2023-05-07T09:10:14Z</time>
      </trkpt>
      <trkpt lat="47.99421" lon="6.98059">
        <ele>1312</ele>
        <time>2023-05-07T09:10:25Z</time>
      </trkpt>
      <trkpt lat="47.99429" lon="6.98057">
        <ele>1310</ele>
        <time>2023-05-07T09:10:36Z</time>
      </trkpt>
      <trkpt lat="47.99432" lon="6.98062">
        <ele>1308</ele>
        <time>2023-05-07T09:10:50Z</time>
      </trkpt>
      <trkpt lat="47.99443" lon="6.98063">
        <ele>1304</ele>
        <time>2023-05-07T09:11:13Z</time>
      </trkpt>
      <trkpt lat="47.99449" lon="6.98064">
        <ele>1302</ele>
        <time>2023-05-07T09:11:17Z</time>
      </trkpt>
      <trkpt lat="47.99455" lon="6.98066">
        <ele>1299</ele>
        <time>2023-05-07T09:11:26Z</time>
      </trkpt>
      <trkpt lat="47.9946" lon="6.98067">
        <ele>1299</ele>
        <time>2023-05-07T09:11:30Z</time>
      </trkpt>
      <trkpt lat="47.99465" lon="6.98065">
        <ele>1297</ele>
        <time>2023-05-07T09:11:34Z</time>
      </trkpt>
      <trkpt lat="47.99484" lon="6.98072">
        <ele>1294</ele>
        <time>2023-05-07T09:11:50Z</time>
      </trkpt>
      <trkpt lat="47.99494" lon="6.98076">
        <ele>1294</ele>
        <time>2023-05-07T09:11:58Z</time>
      </trkpt>
      <trkpt lat="47.99534" lon="6.98084">
        <ele>1291</ele>
        <time>2023-05-07T09:12:31Z</time>
      </trkpt>
      <trkpt lat="47.99559" lon="6.98086">
        <ele>1288</ele>
        <time>2023-05-07T09:12:51Z</time>
      </trkpt>
      <trkpt lat="47.99565" lon="6.98085">
        <ele>1288</ele>
        <time>2023-05-07T09:12:56Z</time>
      </trkpt>
      <trkpt lat="47.99569" lon="6.98085">
        <ele>1287</ele>
        <time>2023-05-07T09:13:00Z</time>
      </trkpt>
      <trkpt lat="47.99597" lon="6.98075">
        <ele>1284</ele>
        <time>2023-05-07T09:13:23Z</time>
      </trkpt>
      <trkpt lat="47.99632" lon="6.98064">
        <ele>1283</ele>
        <time>2023-05-07T09:13:51Z</time>
      </trkpt>
      <trkpt lat="47.99641" lon="6.9806">
        <ele>1282</ele>
        <time>2023-05-07T09:13:59Z</time>
      </trkpt>
      <trkpt lat="47.99661" lon="6.98053">
        <ele>1283</ele>
        <time>2023-05-07T09:14:15Z</time>
      </trkpt>
      <trkpt lat="47.99666" lon="6.98051">
        <ele>1283</ele>
        <time>2023-05-07T09:14:19Z</time>
      </trkpt>
      <trkpt lat="47.99671" lon="6.9805">
        <ele>1283</ele>
        <time>2023-05-07T09:14:23Z</time>
      </trkpt>
      <trkpt lat="47.99676" lon="6.98048">
        <ele>1284</ele>
        <time>2023-05-07T09:14:28Z</time>
      </trkpt>
      <trkpt lat="47.99713" lon="6.98036">
        <ele>1287</ele>
        <time>2023-05-07T09:15:02Z</time>
      </trkpt>
      <trkpt lat="47.99747" lon="6.98025">
        <ele>1289</ele>
        <time>2023-05-07T09:15:33Z</time>
      </trkpt>
      <trkpt lat="47.99786" lon="6.98012">
        <ele>1294</ele>
        <time>2023-05-07T09:16:05Z</time>
      </trkpt>
      <trkpt lat="47.99805" lon="6.98011">
        <ele>1296</ele>
        <time>2023-05-07T09:16:22Z</time>
      </trkpt>
      <trkpt lat="47.99818" lon="6.98013">
        <ele>1296</ele>
        <time>2023-05-07T09:16:35Z</time>
      </trkpt>
      <trkpt lat="47.99824" lon="6.98013">
        <ele>1296</ele>
        <time>2023-05-07T09:16:39Z</time>
      </trkpt>
      <trkpt lat="47.99829" lon="6.98014">
        <ele>1297</ele>
        <time>2023-05-07T09:16:43Z</time>
      </trkpt>
      <trkpt lat="47.99859" lon="6.9802">
        <ele>1297</ele>
        <time>2023-05-07T09:17:07Z</time>
      </trkpt>
      <trkpt lat="47.99864" lon="6.98018">
        <ele>1297</ele>
        <time>2023-05-07T09:17:11Z</time>
      </trkpt>
      <trkpt lat="47.99874" lon="6.9802">
        <ele>1298</ele>
        <time>2023-05-07T09:17:19Z</time>
      </trkpt>
      <trkpt lat="47.99883" lon="6.98025">
        <ele>1300</ele>
        <time>2023-05-07T09:17:28Z</time>
      </trkpt>
      <trkpt lat="47.99918" lon="6.98029">
        <ele>1306</ele>
        <time>2023-05-07T09:18:02Z</time>
      </trkpt>
      <trkpt lat="47.99926" lon="6.98031">
        <ele>1307</ele>
        <time>2023-05-07T09:18:12Z</time>
      </trkpt>
      <trkpt lat="47.99931" lon="6.98031">
        <ele>1306</ele>
        <time>2023-05-07T09:18:16Z</time>
      </trkpt>
      <trkpt lat="47.99936" lon="6.98031">
        <ele>1307</ele>
        <time>2023-05-07T09:18:20Z</time>
      </trkpt>
      <trkpt lat="47.99941" lon="6.98031">
        <ele>1306</ele>
        <time>2023-05-07T09:18:24Z</time>
      </trkpt>
      <trkpt lat="47.99946" lon="6.98031">
        <ele>1306</ele>
        <time>2023-05-07T09:18:28Z</time>
      </trkpt>
      <trkpt lat="47.99951" lon="6.9803">
        <ele>1306</ele>
        <time>2023-05-07T09:18:32Z</time>
      </trkpt>
      <trkpt lat="47.99956" lon="6.98031">
        <ele>1305</ele>
        <time>2023-05-07T09:18:36Z</time>
      </trkpt>
      <trkpt lat="47.99973" lon="6.9804">
        <ele>1305</ele>
        <time>2023-05-07T09:18:51Z</time>
      </trkpt>
      <trkpt lat="47.99983" lon="6.98045">
        <ele>1305</ele>
        <time>2023-05-07T09:18:59Z</time>
      </trkpt>
      <trkpt lat="47.99997" lon="6.98055">
        <ele>1305</ele>
        <time>2023-05-07T09:19:11Z</time>
      </trkpt>
      <trkpt lat="48.00002" lon="6.98057">
        <ele>1304</ele>
        <time>2023-05-07T09:19:15Z</time>
      </trkpt>
      <trkpt lat="48.00011" lon="6.98061">
        <ele>1305</ele>
        <time>2023-05-07T09:19:23Z</time>
      </trkpt>
      <trkpt lat="48.00047" lon="6.98079">
        <ele>1308</ele>
        <time>2023-05-07T09:19:55Z</time>
      </trkpt>
      <trkpt lat="48.00052" lon="6.98082">
        <ele>1309</ele>
        <time>2023-05-07T09:20:00Z</time>
      </trkpt>
      <trkpt lat="48.00058" lon="6.98083">
        <ele>1309</ele>
        <time>2023-05-07T09:20:07Z</time>
      </trkpt>
      <trkpt lat="48.00063" lon="6.98085">
        <ele>1311</ele>
        <time>2023-05-07T09:20:15Z</time>
      </trkpt>
      <trkpt lat="48.00071" lon="6.98088">
        <ele>1313</ele>
        <time>2023-05-07T09:20:27Z</time>
      </trkpt>
      <trkpt lat="48.00076" lon="6.9809">
        <ele>1316</ele>
        <time>2023-05-07T09:20:34Z</time>
      </trkpt>
      <trkpt lat="48.00074" lon="6.981">
        <ele>1318</ele>
        <time>2023-05-07T09:20:46Z</time>
      </trkpt>
      <trkpt lat="48.0008" lon="6.98102">
        <ele>1318</ele>
        <time>2023-05-07T09:21:03Z</time>
      </trkpt>
      <trkpt lat="48.00089" lon="6.98097">
        <ele>1314</ele>
        <time>2023-05-07T09:21:13Z</time>
      </trkpt>
      <trkpt lat="48.00096" lon="6.98094">
        <ele>1314</ele>
        <time>2023-05-07T09:21:22Z</time>
      </trkpt>
      <trkpt lat="48.001" lon="6.9809">
        <ele>1311</ele>
        <time>2023-05-07T09:21:28Z</time>
      </trkpt>
      <trkpt lat="48.00106" lon="6.98082">
        <ele>1309</ele>
        <time>2023-05-07T09:21:38Z</time>
      </trkpt>
      <trkpt lat="48.0011" lon="6.98072">
        <ele>1306</ele>
        <time>2023-05-07T09:21:46Z</time>
      </trkpt>
      <trkpt lat="48.00115" lon="6.98064">
        <ele>1302</ele>
        <time>2023-05-07T09:21:54Z</time>
      </trkpt>
      <trkpt lat="48.00114" lon="6.98057">
        <ele>1301</ele>
        <time>2023-05-07T09:21:59Z</time>
      </trkpt>
      <trkpt lat="48.00119" lon="6.98059">
        <ele>1301</ele>
        <time>2023-05-07T09:22:03Z</time>
      </trkpt>
      <trkpt lat="48.00122" lon="6.98065">
        <ele>1300</ele>
        <time>2023-05-07T09:22:08Z</time>
      </trkpt>
      <trkpt lat="48.00125" lon="6.98061">
        <ele>1296</ele>
        <time>2023-05-07T09:22:23Z</time>
      </trkpt>
      <trkpt lat="48.00128" lon="6.98052">
        <ele>1293</ele>
        <time>2023-05-07T09:22:33Z</time>
      </trkpt>
      <trkpt lat="48.00134" lon="6.98041">
        <ele>1290</ele>
        <time>2023-05-07T09:22:43Z</time>
      </trkpt>
      <trkpt lat="48.00137" lon="6.98035">
        <ele>1289</ele>
        <time>2023-05-07T09:22:47Z</time>
      </trkpt>
      <trkpt lat="48.00168" lon="6.98021">
        <ele>1282</ele>
        <time>2023-05-07T09:23:21Z</time>
      </trkpt>
      <trkpt lat="48.00177" lon="6.9802">
        <ele>1279</ele>
        <time>2023-05-07T09:23:30Z</time>
      </trkpt>
      <trkpt lat="48.00206" lon="6.98009">
        <ele>1272</ele>
        <time>2023-05-07T09:23:53Z</time>
      </trkpt>
      <trkpt lat="48.00216" lon="6.98009">
        <ele>1270</ele>
        <time>2023-05-07T09:24:01Z</time>
      </trkpt>
      <trkpt lat="48.0022" lon="6.98012">
        <ele>1269</ele>
        <time>2023-05-07T09:24:05Z</time>
      </trkpt>
      <trkpt lat="48.00225" lon="6.98011">
        <ele>1267</ele>
        <time>2023-05-07T09:24:09Z</time>
      </trkpt>
      <trkpt lat="48.0023" lon="6.98009">
        <ele>1266</ele>
        <time>2023-05-07T09:24:13Z</time>
      </trkpt>
      <trkpt lat="48.00235" lon="6.98008">
        <ele>1265</ele>
        <time>2023-05-07T09:24:17Z</time>
      </trkpt>
      <trkpt lat="48.0024" lon="6.98006">
        <ele>1264</ele>
        <time>2023-05-07T09:24:21Z</time>
      </trkpt>
      <trkpt lat="48.00265" lon="6.98005">
        <ele>1259</ele>
        <time>2023-05-07T09:24:41Z</time>
      </trkpt>
      <trkpt lat="48.00275" lon="6.97998">
        <ele>1257</ele>
        <time>2023-05-07T09:24:49Z</time>
      </trkpt>
      <trkpt lat="48.00285" lon="6.98">
        <ele>1256</ele>
        <time>2023-05-07T09:24:58Z</time>
      </trkpt>
      <trkpt lat="48.00291" lon="6.97998">
        <ele>1254</ele>
        <time>2023-05-07T09:25:02Z</time>
      </trkpt>
      <trkpt lat="48.00295" lon="6.97996">
        <ele>1253</ele>
        <time>2023-05-07T09:25:06Z</time>
      </trkpt>
      <trkpt lat="48.00299" lon="6.97995">
        <ele>1253</ele>
        <time>2023-05-07T09:25:10Z</time>
      </trkpt>
      <trkpt lat="48.00319" lon="6.97994">
        <ele>1250</ele>
        <time>2023-05-07T09:25:26Z</time>
      </trkpt>
      <trkpt lat="48.00323" lon="6.97996">
        <ele>1249</ele>
        <time>2023-05-07T09:25:30Z</time>
      </trkpt>
      <trkpt lat="48.00338" lon="6.97996">
        <ele>1243</ele>
        <time>2023-05-07T09:25:42Z</time>
      </trkpt>
      <trkpt lat="48.00341" lon="6.9799">
        <ele>1242</ele>
        <time>2023-05-07T09:25:46Z</time>
      </trkpt>
      <trkpt lat="48.00346" lon="6.97989">
        <ele>1241</ele>
        <time>2023-05-07T09:25:50Z</time>
      </trkpt>
      <trkpt lat="48.00366" lon="6.97994">
        <ele>1235</ele>
        <time>2023-05-07T09:26:05Z</time>
      </trkpt>
      <trkpt lat="48.0037" lon="6.97991">
        <ele>1234</ele>
        <time>2023-05-07T09:26:09Z</time>
      </trkpt>
      <trkpt lat="48.00376" lon="6.97992">
        <ele>1233</ele>
        <time>2023-05-07T09:26:13Z</time>
      </trkpt>
      <trkpt lat="48.0038" lon="6.97996">
        <ele>1232</ele>
        <time>2023-05-07T09:26:17Z</time>
      </trkpt>
      <trkpt lat="48.00426" lon="6.97998">
        <ele>1222</ele>
        <time>2023-05-07T09:26:51Z</time>
      </trkpt>
      <trkpt lat="48.00468" lon="6.98002">
        <ele>1214</ele>
        <time>2023-05-07T09:27:23Z</time>
      </trkpt>
      <trkpt lat="48.00479" lon="6.98003">
        <ele>1212</ele>
        <time>2023-05-07T09:27:31Z</time>
      </trkpt>
      <trkpt lat="48.00514" lon="6.97999">
        <ele>1208</ele>
        <time>2023-05-07T09:27:55Z</time>
      </trkpt>
      <trkpt lat="48.00529" lon="6.98">
        <ele>1206</ele>
        <time>2023-05-07T09:28:05Z</time>
      </trkpt>
      <trkpt lat="48.00533" lon="6.97999">
        <ele>1206</ele>
        <time>2023-05-07T09:28:08Z</time>
      </trkpt>
      <trkpt lat="48.00539" lon="6.97999">
        <ele>1206</ele>
        <time>2023-05-07T09:28:12Z</time>
      </trkpt>
      <trkpt lat="48.00544" lon="6.98001">
        <ele>1206</ele>
        <time>2023-05-07T09:28:16Z</time>
      </trkpt>
      <trkpt lat="48.00547" lon="6.98004">
        <ele>1206</ele>
        <time>2023-05-07T09:28:20Z</time>
      </trkpt>
      <trkpt lat="48.00553" lon="6.98005">
        <ele>1207</ele>
        <time>2023-05-07T09:28:27Z</time>
      </trkpt>
      <trkpt lat="48.00585" lon="6.9802">
        <ele>1210</ele>
        <time>2023-05-07T09:28:56Z</time>
      </trkpt>
      <trkpt lat="48.00617" lon="6.98036">
        <ele>1216</ele>
        <time>2023-05-07T09:29:29Z</time>
      </trkpt>
      <trkpt lat="48.00653" lon="6.98042">
        <ele>1224</ele>
        <time>2023-05-07T09:30:03Z</time>
      </trkpt>
      <trkpt lat="48.00679" lon="6.98057">
        <ele>1233</ele>
        <time>2023-05-07T09:30:35Z</time>
      </trkpt>
      <trkpt lat="48.0069" lon="6.98059">
        <ele>1235</ele>
        <time>2023-05-07T09:30:47Z</time>
      </trkpt>
      <trkpt lat="48.00706" lon="6.98058">
        <ele>1240</ele>
        <time>2023-05-07T09:31:06Z</time>
      </trkpt>
      <trkpt lat="48.00735" lon="6.98066">
        <ele>1249</ele>
        <time>2023-05-07T09:31:42Z</time>
      </trkpt>
      <trkpt lat="48.00755" lon="6.98071">
        <ele>1256</ele>
        <time>2023-05-07T09:32:08Z</time>
      </trkpt>
      <trkpt lat="48.00763" lon="6.98076">
        <ele>1259</ele>
        <time>2023-05-07T09:32:18Z</time>
      </trkpt>
      <trkpt lat="48.00785" lon="6.98081">
        <ele>1265</ele>
        <time>2023-05-07T09:32:46Z</time>
      </trkpt>
      <trkpt lat="48.00796" lon="6.98088">
        <ele>1268</ele>
        <time>2023-05-07T09:32:58Z</time>
      </trkpt>
      <trkpt lat="48.00803" lon="6.98089">
        <ele>1270</ele>
        <time>2023-05-07T09:33:06Z</time>
      </trkpt>
      <trkpt lat="48.00816" lon="6.98095">
        <ele>1273</ele>
        <time>2023-05-07T09:33:23Z</time>
      </trkpt>
      <trkpt lat="48.00834" lon="6.98099">
        <ele>1278</ele>
        <time>2023-05-07T09:33:43Z</time>
      </trkpt>
      <trkpt lat="48.00867" lon="6.98119">
        <ele>1287</ele>
        <time>2023-05-07T09:34:19Z</time>
      </trkpt>
      <trkpt lat="48.00896" lon="6.98136">
        <ele>1292</ele>
        <time>2023-05-07T09:34:50Z</time>
      </trkpt>
      <trkpt lat="48.00926" lon="6.98157">
        <ele>1299</ele>
        <time>2023-05-07T09:35:23Z</time>
      </trkpt>
      <trkpt lat="48.0094" lon="6.98162">
        <ele>1300</ele>
        <time>2023-05-07T09:35:37Z</time>
      </trkpt>
      <trkpt lat="48.00945" lon="6.98162">
        <ele>1301</ele>
        <time>2023-05-07T09:35:41Z</time>
      </trkpt>
      <trkpt lat="48.00954" lon="6.98169">
        <ele>1302</ele>
        <time>2023-05-07T09:35:50Z</time>
      </trkpt>
      <trkpt lat="48.00966" lon="6.98214">
        <ele>1306</ele>
        <time>2023-05-07T09:38:46Z</time>
      </trkpt>
      <trkpt lat="48.00976" lon="6.98248">
        <ele>1308</ele>
        <time>2023-05-07T09:39:10Z</time>
      </trkpt>
      <trkpt lat="48.0098" lon="6.98252">
        <ele>1308</ele>
        <time>2023-05-07T09:39:15Z</time>
      </trkpt>
      <trkpt lat="48.00979" lon="6.98264">
        <ele>1308</ele>
        <time>2023-05-07T09:39:32Z</time>
      </trkpt>
      <trkpt lat="48.00978" lon="6.9827">
        <ele>1308</ele>
        <time>2023-05-07T09:39:36Z</time>
      </trkpt>
      <trkpt lat="48.00977" lon="6.98275">
        <ele>1309</ele>
        <time>2023-05-07T09:40:12Z</time>
      </trkpt>
      <trkpt lat="48.0097" lon="6.98229">
        <ele>1307</ele>
        <time>2023-05-07T09:41:35Z</time>
      </trkpt>
      <trkpt lat="48.00955" lon="6.98177">
        <ele>1303</ele>
        <time>2023-05-07T09:42:08Z</time>
      </trkpt>
      <trkpt lat="48.00953" lon="6.9817">
        <ele>1302</ele>
        <time>2023-05-07T09:42:12Z</time>
      </trkpt>
      <trkpt lat="48.00954" lon="6.98164">
        <ele>1302</ele>
        <time>2023-05-07T09:42:16Z</time>
      </trkpt>
      <trkpt lat="48.0095" lon="6.98106">
        <ele>1296</ele>
        <time>2023-05-07T09:42:49Z</time>
      </trkpt>
      <trkpt lat="48.00949" lon="6.9809">
        <ele>1295</ele>
        <time>2023-05-07T09:43:02Z</time>
      </trkpt>
      <trkpt lat="48.00948" lon="6.98065">
        <ele>1293</ele>
        <time>2023-05-07T09:43:19Z</time>
      </trkpt>
      <trkpt lat="48.00945" lon="6.98031">
        <ele>1289</ele>
        <time>2023-05-07T09:43:40Z</time>
      </trkpt>
      <trkpt lat="48.00942" lon="6.98024">
        <ele>1289</ele>
        <time>2023-05-07T09:43:44Z</time>
      </trkpt>
      <trkpt lat="48.00941" lon="6.97988">
        <ele>1286</ele>
        <time>2023-05-07T09:44:05Z</time>
      </trkpt>
      <trkpt lat="48.0094" lon="6.97981">
        <ele>1286</ele>
        <time>2023-05-07T09:44:09Z</time>
      </trkpt>
      <trkpt lat="48.00938" lon="6.97973">
        <ele>1285</ele>
        <time>2023-05-07T09:44:13Z</time>
      </trkpt>
      <trkpt lat="48.00936" lon="6.97958">
        <ele>1285</ele>
        <time>2023-05-07T09:44:21Z</time>
      </trkpt>
      <trkpt lat="48.00935" lon="6.97943">
        <ele>1284</ele>
        <time>2023-05-07T09:44:29Z</time>
      </trkpt>
      <trkpt lat="48.00932" lon="6.97923">
        <ele>1282</ele>
        <time>2023-05-07T09:44:41Z</time>
      </trkpt>
      <trkpt lat="48.0093" lon="6.97867">
        <ele>1277</ele>
        <time>2023-05-07T09:45:14Z</time>
      </trkpt>
      <trkpt lat="48.00929" lon="6.97852">
        <ele>1275</ele>
        <time>2023-05-07T09:45:22Z</time>
      </trkpt>
      <trkpt lat="48.00931" lon="6.97832">
        <ele>1272</ele>
        <time>2023-05-07T09:45:35Z</time>
      </trkpt>
      <trkpt lat="48.0093" lon="6.97823">
        <ele>1270</ele>
        <time>2023-05-07T09:45:41Z</time>
      </trkpt>
      <trkpt lat="48.00929" lon="6.9781">
        <ele>1269</ele>
        <time>2023-05-07T09:45:49Z</time>
      </trkpt>
      <trkpt lat="48.00927" lon="6.97804">
        <ele>1268</ele>
        <time>2023-05-07T09:45:53Z</time>
      </trkpt>
      <trkpt lat="48.00927" lon="6.9779">
        <ele>1266</ele>
        <time>2023-05-07T09:46:03Z</time>
      </trkpt>
      <trkpt lat="48.00929" lon="6.97776">
        <ele>1263</ele>
        <time>2023-05-07T09:46:12Z</time>
      </trkpt>
      <trkpt lat="48.00928" lon="6.97736">
        <ele>1257</ele>
        <time>2023-05-07T09:46:39Z</time>
      </trkpt>
      <trkpt lat="48.00929" lon="6.97729">
        <ele>1256</ele>
        <time>2023-05-07T09:46:44Z</time>
      </trkpt>
      <trkpt lat="48.00928" lon="6.9772">
        <ele>1254</ele>
        <time>2023-05-07T09:46:50Z</time>
      </trkpt>
      <trkpt lat="48.00929" lon="6.97712">
        <ele>1253</ele>
        <time>2023-05-07T09:46:55Z</time>
      </trkpt>
      <trkpt lat="48.00928" lon="6.977">
        <ele>1251</ele>
        <time>2023-05-07T09:47:03Z</time>
      </trkpt>
      <trkpt lat="48.00929" lon="6.97652">
        <ele>1243</ele>
        <time>2023-05-07T09:47:35Z</time>
      </trkpt>
      <trkpt lat="48.00933" lon="6.97625">
        <ele>1238</ele>
        <time>2023-05-07T09:47:54Z</time>
      </trkpt>
      <trkpt lat="48.0093" lon="6.97619">
        <ele>1237</ele>
        <time>2023-05-07T09:47:59Z</time>
      </trkpt>
      <trkpt lat="48.00929" lon="6.97599">
        <ele>1234</ele>
        <time>2023-05-07T09:48:25Z</time>
      </trkpt>
      <trkpt lat="48.00928" lon="6.97592">
        <ele>1234</ele>
        <time>2023-05-07T09:48:28Z</time>
      </trkpt>
      <trkpt lat="48.00929" lon="6.97577">
        <ele>1232</ele>
        <time>2023-05-07T09:48:36Z</time>
      </trkpt>
      <trkpt lat="48.00928" lon="6.9757">
        <ele>1231</ele>
        <time>2023-05-07T09:48:40Z</time>
      </trkpt>
      <trkpt lat="48.00929" lon="6.97563">
        <ele>1230</ele>
        <time>2023-05-07T09:48:44Z</time>
      </trkpt>
      <trkpt lat="48.00927" lon="6.97547">
        <ele>1229</ele>
        <time>2023-05-07T09:48:52Z</time>
      </trkpt>
      <trkpt lat="48.00929" lon="6.9754">
        <ele>1228</ele>
        <time>2023-05-07T09:48:56Z</time>
      </trkpt>
      <trkpt lat="48.00928" lon="6.97533">
        <ele>1228</ele>
        <time>2023-05-07T09:48:59Z</time>
      </trkpt>
      <trkpt lat="48.00926" lon="6.97527">
        <ele>1227</ele>
        <time>2023-05-07T09:49:03Z</time>
      </trkpt>
      <trkpt lat="48.00921" lon="6.97523">
        <ele>1227</ele>
        <time>2023-05-07T09:49:09Z</time>
      </trkpt>
      <trkpt lat="48.00918" lon="6.97517">
        <ele>1226</ele>
        <time>2023-05-07T09:49:13Z</time>
      </trkpt>
      <trkpt lat="48.0091" lon="6.97509">
        <ele>1225</ele>
        <time>2023-05-07T09:49:22Z</time>
      </trkpt>
      <trkpt lat="48.00907" lon="6.97503">
        <ele>1224</ele>
        <time>2023-05-07T09:49:27Z</time>
      </trkpt>
      <trkpt lat="48.00906" lon="6.97497">
        <ele>1223</ele>
        <time>2023-05-07T09:49:31Z</time>
      </trkpt>
      <trkpt lat="48.00901" lon="6.9749">
        <ele>1222</ele>
        <time>2023-05-07T09:49:38Z</time>
      </trkpt>
      <trkpt lat="48.00901" lon="6.97484">
        <ele>1221</ele>
        <time>2023-05-07T09:49:42Z</time>
      </trkpt>
      <trkpt lat="48.00898" lon="6.97476">
        <ele>1220</ele>
        <time>2023-05-07T09:49:48Z</time>
      </trkpt>
      <trkpt lat="48.00878" lon="6.97455">
        <ele>1213</ele>
        <time>2023-05-07T09:50:16Z</time>
      </trkpt>
      <trkpt lat="48.00872" lon="6.97442">
        <ele>1210</ele>
        <time>2023-05-07T09:50:29Z</time>
      </trkpt>
      <trkpt lat="48.00862" lon="6.97436">
        <ele>1207</ele>
        <time>2023-05-07T09:50:42Z</time>
      </trkpt>
      <trkpt lat="48.00858" lon="6.97426">
        <ele>1205</ele>
        <time>2023-05-07T09:50:51Z</time>
      </trkpt>
      <trkpt lat="48.00853" lon="6.97425">
        <ele>1205</ele>
        <time>2023-05-07T09:50:55Z</time>
      </trkpt>
      <trkpt lat="48.00849" lon="6.97408">
        <ele>1202</ele>
        <time>2023-05-07T09:51:09Z</time>
      </trkpt>
      <trkpt lat="48.00844" lon="6.97402">
        <ele>1200</ele>
        <time>2023-05-07T09:51:15Z</time>
      </trkpt>
      <trkpt lat="48.00836" lon="6.97372">
        <ele>1194</ele>
        <time>2023-05-07T09:51:36Z</time>
      </trkpt>
      <trkpt lat="48.00833" lon="6.97363">
        <ele>1192</ele>
        <time>2023-05-07T09:51:44Z</time>
      </trkpt>
      <trkpt lat="48.00826" lon="6.97353">
        <ele>1190</ele>
        <time>2023-05-07T09:51:53Z</time>
      </trkpt>
      <trkpt lat="48.00823" lon="6.97348">
        <ele>1189</ele>
        <time>2023-05-07T09:51:56Z</time>
      </trkpt>
      <trkpt lat="48.00821" lon="6.97339">
        <ele>1188</ele>
        <time>2023-05-07T09:52:03Z</time>
      </trkpt>
      <trkpt lat="48.00815" lon="6.97323">
        <ele>1185</ele>
        <time>2023-05-07T09:52:16Z</time>
      </trkpt>
      <trkpt lat="48.00808" lon="6.97314">
        <ele>1183</ele>
        <time>2023-05-07T09:52:24Z</time>
      </trkpt>
      <trkpt lat="48.00804" lon="6.97325">
        <ele>1182</ele>
        <time>2023-05-07T09:52:35Z</time>
      </trkpt>
      <trkpt lat="48.00802" lon="6.97331">
        <ele>1183</ele>
        <time>2023-05-07T09:52:39Z</time>
      </trkpt>
      <trkpt lat="48.00797" lon="6.97389">
        <ele>1186</ele>
        <time>2023-05-07T09:53:12Z</time>
      </trkpt>
      <trkpt lat="48.00798" lon="6.97432">
        <ele>1189</ele>
        <time>2023-05-07T09:53:39Z</time>
      </trkpt>
      <trkpt lat="48.0079" lon="6.97474">
        <ele>1192</ele>
        <time>2023-05-07T09:54:06Z</time>
      </trkpt>
      <trkpt lat="48.00787" lon="6.9748">
        <ele>1192</ele>
        <time>2023-05-07T09:54:10Z</time>
      </trkpt>
      <trkpt lat="48.00785" lon="6.97486">
        <ele>1192</ele>
        <time>2023-05-07T09:54:14Z</time>
      </trkpt>
      <trkpt lat="48.00782" lon="6.97492">
        <ele>1192</ele>
        <time>2023-05-07T09:54:18Z</time>
      </trkpt>
      <trkpt lat="48.00778" lon="6.97498">
        <ele>1193</ele>
        <time>2023-05-07T09:54:23Z</time>
      </trkpt>
      <trkpt lat="48.00777" lon="6.97504">
        <ele>1193</ele>
        <time>2023-05-07T09:54:28Z</time>
      </trkpt>
      <trkpt lat="48.00788" lon="6.97464">
        <ele>1194</ele>
        <time>2023-05-07T10:02:22Z</time>
      </trkpt>
      <trkpt lat="48.00792" lon="6.97422">
        <ele>1191</ele>
        <time>2023-05-07T10:02:47Z</time>
      </trkpt>
      <trkpt lat="48.0079" lon="6.97413">
        <ele>1190</ele>
        <time>2023-05-07T10:02:54Z</time>
      </trkpt>
      <trkpt lat="48.00791" lon="6.97406">
        <ele>1190</ele>
        <time>2023-05-07T10:02:58Z</time>
      </trkpt>
      <trkpt lat="48.00792" lon="6.97368">
        <ele>1187</ele>
        <time>2023-05-07T10:03:18Z</time>
      </trkpt>
      <trkpt lat="48.00804" lon="6.97314">
        <ele>1184</ele>
        <time>2023-05-07T10:03:47Z</time>
      </trkpt>
      <trkpt lat="48.00798" lon="6.97314">
        <ele>1184</ele>
        <time>2023-05-07T10:03:56Z</time>
      </trkpt>
      <trkpt lat="48.00795" lon="6.97317">
        <ele>1183</ele>
        <time>2023-05-07T10:04:00Z</time>
      </trkpt>
      <trkpt lat="48.00784" lon="6.97308">
        <ele>1180</ele>
        <time>2023-05-07T10:04:12Z</time>
      </trkpt>
      <trkpt lat="48.00781" lon="6.97298">
        <ele>1179</ele>
        <time>2023-05-07T10:04:19Z</time>
      </trkpt>
      <trkpt lat="48.00763" lon="6.97252">
        <ele>1169</ele>
        <time>2023-05-07T10:04:55Z</time>
      </trkpt>
      <trkpt lat="48.0076" lon="6.97247">
        <ele>1169</ele>
        <time>2023-05-07T10:04:59Z</time>
      </trkpt>
      <trkpt lat="48.00756" lon="6.97244">
        <ele>1168</ele>
        <time>2023-05-07T10:05:03Z</time>
      </trkpt>
      <trkpt lat="48.00753" lon="6.97238">
        <ele>1168</ele>
        <time>2023-05-07T10:05:08Z</time>
      </trkpt>
      <trkpt lat="48.00744" lon="6.97193">
        <ele>1162</ele>
        <time>2023-05-07T10:05:41Z</time>
      </trkpt>
      <trkpt lat="48.00745" lon="6.97184">
        <ele>1161</ele>
        <time>2023-05-07T10:05:48Z</time>
      </trkpt>
      <trkpt lat="48.0074" lon="6.97175">
        <ele>1159</ele>
        <time>2023-05-07T10:06:00Z</time>
      </trkpt>
      <trkpt lat="48.00738" lon="6.97169">
        <ele>1159</ele>
        <time>2023-05-07T10:06:05Z</time>
      </trkpt>
      <trkpt lat="48.00733" lon="6.97165">
        <ele>1158</ele>
        <time>2023-05-07T10:06:10Z</time>
      </trkpt>
      <trkpt lat="48.0073" lon="6.97159">
        <ele>1158</ele>
        <time>2023-05-07T10:06:16Z</time>
      </trkpt>
      <trkpt lat="48.00721" lon="6.97152">
        <ele>1156</ele>
        <time>2023-05-07T10:06:24Z</time>
      </trkpt>
      <trkpt lat="48.00718" lon="6.97147">
        <ele>1155</ele>
        <time>2023-05-07T10:06:28Z</time>
      </trkpt>
      <trkpt lat="48.00716" lon="6.97141">
        <ele>1155</ele>
        <time>2023-05-07T10:06:32Z</time>
      </trkpt>
      <trkpt lat="48.00713" lon="6.97137">
        <ele>1155</ele>
        <time>2023-05-07T10:06:35Z</time>
      </trkpt>
      <trkpt lat="48.00698" lon="6.97112">
        <ele>1151</ele>
        <time>2023-05-07T10:06:56Z</time>
      </trkpt>
      <trkpt lat="48.00696" lon="6.97105">
        <ele>1150</ele>
        <time>2023-05-07T10:07:02Z</time>
      </trkpt>
      <trkpt lat="48.0069" lon="6.97094">
        <ele>1148</ele>
        <time>2023-05-07T10:07:11Z</time>
      </trkpt>
      <trkpt lat="48.00685" lon="6.97092">
        <ele>1148</ele>
        <time>2023-05-07T10:07:15Z</time>
      </trkpt>
      <trkpt lat="48.00685" lon="6.97086">
        <ele>1147</ele>
        <time>2023-05-07T10:07:19Z</time>
      </trkpt>
      <trkpt lat="48.00662" lon="6.97049">
        <ele>1144</ele>
        <time>2023-05-07T10:07:48Z</time>
      </trkpt>
      <trkpt lat="48.00658" lon="6.97045">
        <ele>1143</ele>
        <time>2023-05-07T10:07:51Z</time>
      </trkpt>
      <trkpt lat="48.0065" lon="6.97027">
        <ele>1140</ele>
        <time>2023-05-07T10:08:05Z</time>
      </trkpt>
      <trkpt lat="48.00648" lon="6.96998">
        <ele>1136</ele>
        <time>2023-05-07T10:08:24Z</time>
      </trkpt>
      <trkpt lat="48.00647" lon="6.96992">
        <ele>1136</ele>
        <time>2023-05-07T10:08:28Z</time>
      </trkpt>
      <trkpt lat="48.00648" lon="6.96985">
        <ele>1135</ele>
        <time>2023-05-07T10:08:33Z</time>
      </trkpt>
      <trkpt lat="48.00646" lon="6.96977">
        <ele>1133</ele>
        <time>2023-05-07T10:08:39Z</time>
      </trkpt>
      <trkpt lat="48.00641" lon="6.96964">
        <ele>1131</ele>
        <time>2023-05-07T10:08:52Z</time>
      </trkpt>
      <trkpt lat="48.00633" lon="6.96941">
        <ele>1127</ele>
        <time>2023-05-07T10:09:11Z</time>
      </trkpt>
      <trkpt lat="48.00633" lon="6.96935">
        <ele>1127</ele>
        <time>2023-05-07T10:09:15Z</time>
      </trkpt>
      <trkpt lat="48.00623" lon="6.96898">
        <ele>1122</ele>
        <time>2023-05-07T10:09:48Z</time>
      </trkpt>
      <trkpt lat="48.00611" lon="6.96883">
        <ele>1118</ele>
        <time>2023-05-07T10:10:07Z</time>
      </trkpt>
      <trkpt lat="48.00607" lon="6.96889">
        <ele>1116</ele>
        <time>2023-05-07T10:10:20Z</time>
      </trkpt>
      <trkpt lat="48.00604" lon="6.96904">
        <ele>1115</ele>
        <time>2023-05-07T10:10:30Z</time>
      </trkpt>
      <trkpt lat="48.00598" lon="6.96923">
        <ele>1112</ele>
        <time>2023-05-07T10:10:47Z</time>
      </trkpt>
      <trkpt lat="48.00596" lon="6.96929">
        <ele>1111</ele>
        <time>2023-05-07T10:10:52Z</time>
      </trkpt>
      <trkpt lat="48.00592" lon="6.96931">
        <ele>1110</ele>
        <time>2023-05-07T10:10:57Z</time>
      </trkpt>
      <trkpt lat="48.00588" lon="6.96936">
        <ele>1110</ele>
        <time>2023-05-07T10:11:01Z</time>
      </trkpt>
      <trkpt lat="48.0058" lon="6.96949">
        <ele>1108</ele>
        <time>2023-05-07T10:11:14Z</time>
      </trkpt>
      <trkpt lat="48.00578" lon="6.96941">
        <ele>1106</ele>
        <time>2023-05-07T10:11:22Z</time>
      </trkpt>
      <trkpt lat="48.00578" lon="6.96935">
        <ele>1106</ele>
        <time>2023-05-07T10:11:26Z</time>
      </trkpt>
      <trkpt lat="48.00574" lon="6.96929">
        <ele>1105</ele>
        <time>2023-05-07T10:11:29Z</time>
      </trkpt>
      <trkpt lat="48.00574" lon="6.96923">
        <ele>1104</ele>
        <time>2023-05-07T10:11:33Z</time>
      </trkpt>
      <trkpt lat="48.00573" lon="6.96906">
        <ele>1102</ele>
        <time>2023-05-07T10:11:44Z</time>
      </trkpt>
      <trkpt lat="48.0057" lon="6.96913">
        <ele>1100</ele>
        <time>2023-05-07T10:11:57Z</time>
      </trkpt>
      <trkpt lat="48.00569" lon="6.96923">
        <ele>1098</ele>
        <time>2023-05-07T10:12:03Z</time>
      </trkpt>
      <trkpt lat="48.00569" lon="6.96929">
        <ele>1097</ele>
        <time>2023-05-07T10:12:07Z</time>
      </trkpt>
      <trkpt lat="48.00564" lon="6.96941">
        <ele>1096</ele>
        <time>2023-05-07T10:12:16Z</time>
      </trkpt>
      <trkpt lat="48.0056" lon="6.96936">
        <ele>1094</ele>
        <time>2023-05-07T10:12:23Z</time>
      </trkpt>
      <trkpt lat="48.00556" lon="6.96916">
        <ele>1091</ele>
        <time>2023-05-07T10:12:35Z</time>
      </trkpt>
      <trkpt lat="48.00556" lon="6.96909">
        <ele>1090</ele>
        <time>2023-05-07T10:12:40Z</time>
      </trkpt>
      <trkpt lat="48.00553" lon="6.96922">
        <ele>1088</ele>
        <time>2023-05-07T10:12:51Z</time>
      </trkpt>
      <trkpt lat="48.00551" lon="6.96928">
        <ele>1087</ele>
        <time>2023-05-07T10:12:55Z</time>
      </trkpt>
      <trkpt lat="48.00546" lon="6.96924">
        <ele>1085</ele>
        <time>2023-05-07T10:13:03Z</time>
      </trkpt>
      <trkpt lat="48.0054" lon="6.96913">
        <ele>1084</ele>
        <time>2023-05-07T10:13:10Z</time>
      </trkpt>
      <trkpt lat="48.00538" lon="6.9692">
        <ele>1083</ele>
        <time>2023-05-07T10:13:18Z</time>
      </trkpt>
      <trkpt lat="48.0054" lon="6.96927">
        <ele>1082</ele>
        <time>2023-05-07T10:13:22Z</time>
      </trkpt>
      <trkpt lat="48.00539" lon="6.96934">
        <ele>1082</ele>
        <time>2023-05-07T10:13:26Z</time>
      </trkpt>
      <trkpt lat="48.00533" lon="6.96946">
        <ele>1080</ele>
        <time>2023-05-07T10:13:35Z</time>
      </trkpt>
      <trkpt lat="48.00527" lon="6.9695">
        <ele>1079</ele>
        <time>2023-05-07T10:13:43Z</time>
      </trkpt>
      <trkpt lat="48.00524" lon="6.96942">
        <ele>1078</ele>
        <time>2023-05-07T10:13:51Z</time>
      </trkpt>
      <trkpt lat="48.00524" lon="6.96935">
        <ele>1077</ele>
        <time>2023-05-07T10:13:54Z</time>
      </trkpt>
      <trkpt lat="48.00517" lon="6.96899">
        <ele>1073</ele>
        <time>2023-05-07T10:14:14Z</time>
      </trkpt>
      <trkpt lat="48.00515" lon="6.96903">
        <ele>1070</ele>
        <time>2023-05-07T10:14:28Z</time>
      </trkpt>
      <trkpt lat="48.00515" lon="6.96912">
        <ele>1069</ele>
        <time>2023-05-07T10:14:34Z</time>
      </trkpt>
      <trkpt lat="48.00513" lon="6.96918">
        <ele>1068</ele>
        <time>2023-05-07T10:14:38Z</time>
      </trkpt>
      <trkpt lat="48.0051" lon="6.96919">
        <ele>1066</ele>
        <time>2023-05-07T10:14:47Z</time>
      </trkpt>
      <trkpt lat="48.00506" lon="6.96906">
        <ele>1063</ele>
        <time>2023-05-07T10:14:55Z</time>
      </trkpt>
      <trkpt lat="48.005" lon="6.96895">
        <ele>1060</ele>
        <time>2023-05-07T10:15:05Z</time>
      </trkpt>
      <trkpt lat="48.00485" lon="6.96858">
        <ele>1054</ele>
        <time>2023-05-07T10:15:32Z</time>
      </trkpt>
      <trkpt lat="48.0048" lon="6.96856">
        <ele>1052</ele>
        <time>2023-05-07T10:15:39Z</time>
      </trkpt>
      <trkpt lat="48.00472" lon="6.96826">
        <ele>1048</ele>
        <time>2023-05-07T10:15:58Z</time>
      </trkpt>
      <trkpt lat="48.00472" lon="6.9682">
        <ele>1047</ele>
        <time>2023-05-07T10:16:02Z</time>
      </trkpt>
      <trkpt lat="48.00465" lon="6.96823">
        <ele>1044</ele>
        <time>2023-05-07T10:16:11Z</time>
      </trkpt>
      <trkpt lat="48.00462" lon="6.96826">
        <ele>1043</ele>
        <time>2023-05-07T10:16:14Z</time>
      </trkpt>
      <trkpt lat="48.00458" lon="6.96829">
        <ele>1042</ele>
        <time>2023-05-07T10:16:22Z</time>
      </trkpt>
      <trkpt lat="48.00452" lon="6.96819">
        <ele>1040</ele>
        <time>2023-05-07T10:16:32Z</time>
      </trkpt>
      <trkpt lat="48.00447" lon="6.96815">
        <ele>1038</ele>
        <time>2023-05-07T10:16:39Z</time>
      </trkpt>
      <trkpt lat="48.00442" lon="6.96818">
        <ele>1038</ele>
        <time>2023-05-07T10:16:43Z</time>
      </trkpt>
      <trkpt lat="48.00439" lon="6.96822">
        <ele>1037</ele>
        <time>2023-05-07T10:16:47Z</time>
      </trkpt>
      <trkpt lat="48.00432" lon="6.9682">
        <ele>1036</ele>
        <time>2023-05-07T10:16:54Z</time>
      </trkpt>
      <trkpt lat="48.00425" lon="6.96817">
        <ele>1036</ele>
        <time>2023-05-07T10:17:02Z</time>
      </trkpt>
      <trkpt lat="48.00422" lon="6.96811">
        <ele>1035</ele>
        <time>2023-05-07T10:17:05Z</time>
      </trkpt>
      <trkpt lat="48.00417" lon="6.9681">
        <ele>1036</ele>
        <time>2023-05-07T10:17:11Z</time>
      </trkpt>
      <trkpt lat="48.00415" lon="6.96801">
        <ele>1035</ele>
        <time>2023-05-07T10:17:18Z</time>
      </trkpt>
      <trkpt lat="48.00414" lon="6.96795">
        <ele>1035</ele>
        <time>2023-05-07T10:17:22Z</time>
      </trkpt>
      <trkpt lat="48.00416" lon="6.96789">
        <ele>1035</ele>
        <time>2023-05-07T10:17:26Z</time>
      </trkpt>
      <trkpt lat="48.0041" lon="6.96768">
        <ele>1032</ele>
        <time>2023-05-07T10:17:46Z</time>
      </trkpt>
      <trkpt lat="48.00402" lon="6.96752">
        <ele>1031</ele>
        <time>2023-05-07T10:17:58Z</time>
      </trkpt>
      <trkpt lat="48.00392" lon="6.96746">
        <ele>1030</ele>
        <time>2023-05-07T10:18:07Z</time>
      </trkpt>
      <trkpt lat="48.00392" lon="6.96739">
        <ele>1029</ele>
        <time>2023-05-07T10:18:11Z</time>
      </trkpt>
      <trkpt lat="48.00392" lon="6.96733">
        <ele>1029</ele>
        <time>2023-05-07T10:18:15Z</time>
      </trkpt>
      <trkpt lat="48.0039" lon="6.9672">
        <ele>1027</ele>
        <time>2023-05-07T10:18:23Z</time>
      </trkpt>
      <trkpt lat="48.00375" lon="6.96687">
        <ele>1025</ele>
        <time>2023-05-07T10:18:53Z</time>
      </trkpt>
      <trkpt lat="48.0037" lon="6.96678">
        <ele>1025</ele>
        <time>2023-05-07T10:19:03Z</time>
      </trkpt>
      <trkpt lat="48.00368" lon="6.96672">
        <ele>1026</ele>
        <time>2023-05-07T10:19:07Z</time>
      </trkpt>
      <trkpt lat="48.00366" lon="6.96665">
        <ele>1026</ele>
        <time>2023-05-07T10:19:11Z</time>
      </trkpt>
      <trkpt lat="48.00361" lon="6.96655">
        <ele>1026</ele>
        <time>2023-05-07T10:19:18Z</time>
      </trkpt>
      <trkpt lat="48.00348" lon="6.96635">
        <ele>1027</ele>
        <time>2023-05-07T10:19:32Z</time>
      </trkpt>
      <trkpt lat="48.00346" lon="6.96626">
        <ele>1028</ele>
        <time>2023-05-07T10:19:38Z</time>
      </trkpt>
      <trkpt lat="48.00345" lon="6.96606">
        <ele>1028</ele>
        <time>2023-05-07T10:19:49Z</time>
      </trkpt>
      <trkpt lat="48.00345" lon="6.96592">
        <ele>1029</ele>
        <time>2023-05-07T10:19:58Z</time>
      </trkpt>
      <trkpt lat="48.00343" lon="6.96585">
        <ele>1030</ele>
        <time>2023-05-07T10:20:03Z</time>
      </trkpt>
      <trkpt lat="48.00341" lon="6.9658">
        <ele>1030</ele>
        <time>2023-05-07T10:20:07Z</time>
      </trkpt>
      <trkpt lat="48.00334" lon="6.96574">
        <ele>1032</ele>
        <time>2023-05-07T10:20:20Z</time>
      </trkpt>
      <trkpt lat="48.00331" lon="6.96567">
        <ele>1033</ele>
        <time>2023-05-07T10:20:24Z</time>
      </trkpt>
      <trkpt lat="48.0031" lon="6.96548">
        <ele>1037</ele>
        <time>2023-05-07T10:20:52Z</time>
      </trkpt>
      <trkpt lat="48.00306" lon="6.96548">
        <ele>1039</ele>
        <time>2023-05-07T10:21:00Z</time>
      </trkpt>
      <trkpt lat="48.00298" lon="6.96544">
        <ele>1041</ele>
        <time>2023-05-07T10:21:11Z</time>
      </trkpt>
      <trkpt lat="48.00279" lon="6.96521">
        <ele>1046</ele>
        <time>2023-05-07T10:21:43Z</time>
      </trkpt>
      <trkpt lat="48.00274" lon="6.96517">
        <ele>1047</ele>
        <time>2023-05-07T10:21:50Z</time>
      </trkpt>
      <trkpt lat="48.00267" lon="6.96505">
        <ele>1049</ele>
        <time>2023-05-07T10:22:04Z</time>
      </trkpt>
      <trkpt lat="48.00265" lon="6.96499">
        <ele>1050</ele>
        <time>2023-05-07T10:22:09Z</time>
      </trkpt>
      <trkpt lat="48.00255" lon="6.96486">
        <ele>1052</ele>
        <time>2023-05-07T10:22:23Z</time>
      </trkpt>
      <trkpt lat="48.00243" lon="6.96473">
        <ele>1053</ele>
        <time>2023-05-07T10:22:37Z</time>
      </trkpt>
      <trkpt lat="48.00234" lon="6.96466">
        <ele>1055</ele>
        <time>2023-05-07T10:22:49Z</time>
      </trkpt>
      <trkpt lat="48.00231" lon="6.96461">
        <ele>1056</ele>
        <time>2023-05-07T10:22:54Z</time>
      </trkpt>
      <trkpt lat="48.00227" lon="6.96458">
        <ele>1056</ele>
        <time>2023-05-07T10:22:58Z</time>
      </trkpt>
      <trkpt lat="48.00218" lon="6.96457">
        <ele>1057</ele>
        <time>2023-05-07T10:23:06Z</time>
      </trkpt>
      <trkpt lat="48.00212" lon="6.96452">
        <ele>1058</ele>
        <time>2023-05-07T10:23:12Z</time>
      </trkpt>
      <trkpt lat="48.00192" lon="6.96445">
        <ele>1058</ele>
        <time>2023-05-07T10:23:28Z</time>
      </trkpt>
      <trkpt lat="48.00184" lon="6.96435">
        <ele>1060</ele>
        <time>2023-05-07T10:23:40Z</time>
      </trkpt>
      <trkpt lat="48.0018" lon="6.96433">
        <ele>1060</ele>
        <time>2023-05-07T10:23:44Z</time>
      </trkpt>
      <trkpt lat="48.00175" lon="6.96433">
        <ele>1061</ele>
        <time>2023-05-07T10:23:50Z</time>
      </trkpt>
      <trkpt lat="48.00166" lon="6.96435">
        <ele>1061</ele>
        <time>2023-05-07T10:23:58Z</time>
      </trkpt>
      <trkpt lat="48.00158" lon="6.9643">
        <ele>1061</ele>
        <time>2023-05-07T10:24:06Z</time>
      </trkpt>
      <trkpt lat="48.00153" lon="6.96431">
        <ele>1061</ele>
        <time>2023-05-07T10:24:10Z</time>
      </trkpt>
      <trkpt lat="48.00148" lon="6.96432">
        <ele>1060</ele>
        <time>2023-05-07T10:24:14Z</time>
      </trkpt>
      <trkpt lat="48.00141" lon="6.96433">
        <ele>1061</ele>
        <time>2023-05-07T10:24:22Z</time>
      </trkpt>
      <trkpt lat="48.00136" lon="6.96432">
        <ele>1062</ele>
        <time>2023-05-07T10:24:25Z</time>
      </trkpt>
      <trkpt lat="48.00129" lon="6.96436">
        <ele>1062</ele>
        <time>2023-05-07T10:24:32Z</time>
      </trkpt>
      <trkpt lat="48.00116" lon="6.96437">
        <ele>1061</ele>
        <time>2023-05-07T10:24:43Z</time>
      </trkpt>
      <trkpt lat="48.00111" lon="6.96436">
        <ele>1061</ele>
        <time>2023-05-07T10:24:47Z</time>
      </trkpt>
      <trkpt lat="48.00081" lon="6.96444">
        <ele>1058</ele>
        <time>2023-05-07T10:25:12Z</time>
      </trkpt>
      <trkpt lat="48.00066" lon="6.96442">
        <ele>1056</ele>
        <time>2023-05-07T10:25:24Z</time>
      </trkpt>
      <trkpt lat="48.00052" lon="6.96449">
        <ele>1055</ele>
        <time>2023-05-07T10:25:35Z</time>
      </trkpt>
      <trkpt lat="48.00047" lon="6.96448">
        <ele>1054</ele>
        <time>2023-05-07T10:25:39Z</time>
      </trkpt>
      <trkpt lat="48.00043" lon="6.96447">
        <ele>1055</ele>
        <time>2023-05-07T10:25:43Z</time>
      </trkpt>
      <trkpt lat="48.0004" lon="6.9644">
        <ele>1055</ele>
        <time>2023-05-07T10:25:49Z</time>
      </trkpt>
      <trkpt lat="48.00035" lon="6.96437">
        <ele>1056</ele>
        <time>2023-05-07T10:25:55Z</time>
      </trkpt>
      <trkpt lat="48.00031" lon="6.96432">
        <ele>1056</ele>
        <time>2023-05-07T10:25:59Z</time>
      </trkpt>
      <trkpt lat="48.00011" lon="6.96418">
        <ele>1058</ele>
        <time>2023-05-07T10:26:25Z</time>
      </trkpt>
      <trkpt lat="48.00002" lon="6.96412">
        <ele>1059</ele>
        <time>2023-05-07T10:26:35Z</time>
      </trkpt>
      <trkpt lat="47.99992" lon="6.96406">
        <ele>1060</ele>
        <time>2023-05-07T10:26:45Z</time>
      </trkpt>
      <trkpt lat="47.99985" lon="6.96398">
        <ele>1062</ele>
        <time>2023-05-07T10:26:53Z</time>
      </trkpt>
      <trkpt lat="47.99976" lon="6.96393">
        <ele>1062</ele>
        <time>2023-05-07T10:27:03Z</time>
      </trkpt>
      <trkpt lat="47.99966" lon="6.96387">
        <ele>1064</ele>
        <time>2023-05-07T10:27:15Z</time>
      </trkpt>
      <trkpt lat="47.99957" lon="6.96381">
        <ele>1064</ele>
        <time>2023-05-07T10:27:22Z</time>
      </trkpt>
      <trkpt lat="47.99951" lon="6.96375">
        <ele>1065</ele>
        <time>2023-05-07T10:27:30Z</time>
      </trkpt>
      <trkpt lat="47.99947" lon="6.96366">
        <ele>1066</ele>
        <time>2023-05-07T10:27:38Z</time>
      </trkpt>
      <trkpt lat="47.99943" lon="6.96365">
        <ele>1067</ele>
        <time>2023-05-07T10:27:42Z</time>
      </trkpt>
      <trkpt lat="47.99941" lon="6.96359">
        <ele>1067</ele>
        <time>2023-05-07T10:27:47Z</time>
      </trkpt>
      <trkpt lat="47.99932" lon="6.96349">
        <ele>1068</ele>
        <time>2023-05-07T10:27:58Z</time>
      </trkpt>
      <trkpt lat="47.99909" lon="6.96336">
        <ele>1071</ele>
        <time>2023-05-07T10:28:22Z</time>
      </trkpt>
      <trkpt lat="47.99905" lon="6.9633">
        <ele>1072</ele>
        <time>2023-05-07T10:28:28Z</time>
      </trkpt>
      <trkpt lat="47.99892" lon="6.96325">
        <ele>1074</ele>
        <time>2023-05-07T10:28:42Z</time>
      </trkpt>
      <trkpt lat="47.99866" lon="6.96307">
        <ele>1078</ele>
        <time>2023-05-07T10:29:13Z</time>
      </trkpt>
      <trkpt lat="47.99859" lon="6.96304">
        <ele>1079</ele>
        <time>2023-05-07T10:29:22Z</time>
      </trkpt>
      <trkpt lat="47.99854" lon="6.96302">
        <ele>1079</ele>
        <time>2023-05-07T10:29:25Z</time>
      </trkpt>
      <trkpt lat="47.99849" lon="6.96302">
        <ele>1079</ele>
        <time>2023-05-07T10:29:28Z</time>
      </trkpt>
      <trkpt lat="47.99842" lon="6.96298">
        <ele>1080</ele>
        <time>2023-05-07T10:29:37Z</time>
      </trkpt>
      <trkpt lat="47.99835" lon="6.96289">
        <ele>1082</ele>
        <time>2023-05-07T10:29:47Z</time>
      </trkpt>
      <trkpt lat="47.99823" lon="6.96287">
        <ele>1083</ele>
        <time>2023-05-07T10:30:00Z</time>
      </trkpt>
      <trkpt lat="47.99819" lon="6.96284">
        <ele>1084</ele>
        <time>2023-05-07T10:30:05Z</time>
      </trkpt>
      <trkpt lat="47.99814" lon="6.96283">
        <ele>1084</ele>
        <time>2023-05-07T10:30:10Z</time>
      </trkpt>
      <trkpt lat="47.99809" lon="6.96281">
        <ele>1084</ele>
        <time>2023-05-07T10:30:15Z</time>
      </trkpt>
      <trkpt lat="47.99805" lon="6.96277">
        <ele>1085</ele>
        <time>2023-05-07T10:30:20Z</time>
      </trkpt>
      <trkpt lat="47.998" lon="6.96274">
        <ele>1085</ele>
        <time>2023-05-07T10:30:25Z</time>
      </trkpt>
      <trkpt lat="47.99796" lon="6.96269">
        <ele>1085</ele>
        <time>2023-05-07T10:30:30Z</time>
      </trkpt>
      <trkpt lat="47.99794" lon="6.96265">
        <ele>1086</ele>
        <time>2023-05-07T10:30:34Z</time>
      </trkpt>
      <trkpt lat="47.9979" lon="6.96261">
        <ele>1086</ele>
        <time>2023-05-07T10:30:37Z</time>
      </trkpt>
      <trkpt lat="47.9978" lon="6.96243">
        <ele>1087</ele>
        <time>2023-05-07T10:30:51Z</time>
      </trkpt>
      <trkpt lat="47.99778" lon="6.96235">
        <ele>1087</ele>
        <time>2023-05-07T10:30:56Z</time>
      </trkpt>
      <trkpt lat="47.99773" lon="6.96212">
        <ele>1089</ele>
        <time>2023-05-07T10:31:10Z</time>
      </trkpt>
      <trkpt lat="47.99774" lon="6.96201">
        <ele>1090</ele>
        <time>2023-05-07T10:31:18Z</time>
      </trkpt>
      <trkpt lat="47.99779" lon="6.96189">
        <ele>1091</ele>
        <time>2023-05-07T10:31:26Z</time>
      </trkpt>
      <trkpt lat="47.99781" lon="6.96175">
        <ele>1092</ele>
        <time>2023-05-07T10:31:36Z</time>
      </trkpt>
      <trkpt lat="47.99781" lon="6.96163">
        <ele>1093</ele>
        <time>2023-05-07T10:31:44Z</time>
      </trkpt>
      <trkpt lat="47.99782" lon="6.96154">
        <ele>1093</ele>
        <time>2023-05-07T10:31:52Z</time>
      </trkpt>
      <trkpt lat="47.99782" lon="6.96146">
        <ele>1094</ele>
        <time>2023-05-07T10:31:57Z</time>
      </trkpt>
      <trkpt lat="47.99782" lon="6.9614">
        <ele>1094</ele>
        <time>2023-05-07T10:32:02Z</time>
      </trkpt>
      <trkpt lat="47.99782" lon="6.96132">
        <ele>1095</ele>
        <time>2023-05-07T10:32:10Z</time>
      </trkpt>
      <trkpt lat="47.99789" lon="6.96124">
        <ele>1096</ele>
        <time>2023-05-07T10:32:56Z</time>
      </trkpt>
      <trkpt lat="47.99789" lon="6.96116">
        <ele>1096</ele>
        <time>2023-05-07T10:32:59Z</time>
      </trkpt>
      <trkpt lat="47.99788" lon="6.9611">
        <ele>1097</ele>
        <time>2023-05-07T10:33:03Z</time>
      </trkpt>
      <trkpt lat="47.99795" lon="6.96083">
        <ele>1102</ele>
        <time>2023-05-07T10:33:31Z</time>
      </trkpt>
      <trkpt lat="47.99797" lon="6.96069">
        <ele>1104</ele>
        <time>2023-05-07T10:33:42Z</time>
      </trkpt>
      <trkpt lat="47.99804" lon="6.96065">
        <ele>1105</ele>
        <time>2023-05-07T10:33:50Z</time>
      </trkpt>
      <trkpt lat="47.99808" lon="6.9606">
        <ele>1105</ele>
        <time>2023-05-07T10:33:55Z</time>
      </trkpt>
      <trkpt lat="47.99814" lon="6.96048">
        <ele>1106</ele>
        <time>2023-05-07T10:34:04Z</time>
      </trkpt>
      <trkpt lat="47.99828" lon="6.96036">
        <ele>1109</ele>
        <time>2023-05-07T10:34:25Z</time>
      </trkpt>
      <trkpt lat="47.99839" lon="6.96018">
        <ele>1111</ele>
        <time>2023-05-07T10:34:41Z</time>
      </trkpt>
      <trkpt lat="47.9985" lon="6.96006">
        <ele>1111</ele>
        <time>2023-05-07T10:34:52Z</time>
      </trkpt>
      <trkpt lat="47.99858" lon="6.95999">
        <ele>1111</ele>
        <time>2023-05-07T10:34:59Z</time>
      </trkpt>
      <trkpt lat="47.99873" lon="6.95971">
        <ele>1109</ele>
        <time>2023-05-07T10:35:18Z</time>
      </trkpt>
      <trkpt lat="47.99875" lon="6.95965">
        <ele>1108</ele>
        <time>2023-05-07T10:35:22Z</time>
      </trkpt>
      <trkpt lat="47.99879" lon="6.95939">
        <ele>1106</ele>
        <time>2023-05-07T10:35:36Z</time>
      </trkpt>
      <trkpt lat="47.9988" lon="6.95932">
        <ele>1106</ele>
        <time>2023-05-07T10:35:39Z</time>
      </trkpt>
      <trkpt lat="47.99884" lon="6.95926">
        <ele>1105</ele>
        <time>2023-05-07T10:35:43Z</time>
      </trkpt>
      <trkpt lat="47.99886" lon="6.95921">
        <ele>1105</ele>
        <time>2023-05-07T10:35:46Z</time>
      </trkpt>
      <trkpt lat="47.99889" lon="6.95915">
        <ele>1104</ele>
        <time>2023-05-07T10:35:50Z</time>
      </trkpt>
      <trkpt lat="47.99891" lon="6.95907">
        <ele>1104</ele>
        <time>2023-05-07T10:35:54Z</time>
      </trkpt>
      <trkpt lat="47.99894" lon="6.95903">
        <ele>1104</ele>
        <time>2023-05-07T10:35:58Z</time>
      </trkpt>
      <trkpt lat="47.9991" lon="6.9589">
        <ele>1102</ele>
        <time>2023-05-07T10:36:13Z</time>
      </trkpt>
      <trkpt lat="47.99926" lon="6.95882">
        <ele>1100</ele>
        <time>2023-05-07T10:36:25Z</time>
      </trkpt>
      <trkpt lat="47.99929" lon="6.95877">
        <ele>1100</ele>
        <time>2023-05-07T10:36:29Z</time>
      </trkpt>
      <trkpt lat="47.99933" lon="6.95875">
        <ele>1099</ele>
        <time>2023-05-07T10:36:32Z</time>
      </trkpt>
      <trkpt lat="47.99946" lon="6.95864">
        <ele>1097</ele>
        <time>2023-05-07T10:36:44Z</time>
      </trkpt>
      <trkpt lat="47.99951" lon="6.95861">
        <ele>1097</ele>
        <time>2023-05-07T10:36:48Z</time>
      </trkpt>
      <trkpt lat="47.9997" lon="6.95817">
        <ele>1094</ele>
        <time>2023-05-07T10:37:20Z</time>
      </trkpt>
      <trkpt lat="47.99989" lon="6.95783">
        <ele>1090</ele>
        <time>2023-05-07T10:37:47Z</time>
      </trkpt>
      <trkpt lat="47.99993" lon="6.95778">
        <ele>1090</ele>
        <time>2023-05-07T10:37:50Z</time>
      </trkpt>
      <trkpt lat="47.99998" lon="6.95765">
        <ele>1089</ele>
        <time>2023-05-07T10:37:58Z</time>
      </trkpt>
      <trkpt lat="48.00006" lon="6.95758">
        <ele>1088</ele>
        <time>2023-05-07T10:38:05Z</time>
      </trkpt>
      <trkpt lat="48.00008" lon="6.95751">
        <ele>1087</ele>
        <time>2023-05-07T10:38:09Z</time>
      </trkpt>
      <trkpt lat="48.0002" lon="6.95736">
        <ele>1085</ele>
        <time>2023-05-07T10:38:22Z</time>
      </trkpt>
      <trkpt lat="48.00027" lon="6.95731">
        <ele>1084</ele>
        <time>2023-05-07T10:38:30Z</time>
      </trkpt>
      <trkpt lat="48.00033" lon="6.9572">
        <ele>1083</ele>
        <time>2023-05-07T10:38:38Z</time>
      </trkpt>
      <trkpt lat="48.00034" lon="6.95713">
        <ele>1083</ele>
        <time>2023-05-07T10:38:42Z</time>
      </trkpt>
      <trkpt lat="48.00045" lon="6.95691">
        <ele>1081</ele>
        <time>2023-05-07T10:39:13Z</time>
      </trkpt>
      <trkpt lat="48.00048" lon="6.95686">
        <ele>1081</ele>
        <time>2023-05-07T10:39:17Z</time>
      </trkpt>
      <trkpt lat="48.0005" lon="6.95676">
        <ele>1079</ele>
        <time>2023-05-07T10:39:23Z</time>
      </trkpt>
      <trkpt lat="48.00056" lon="6.95656">
        <ele>1078</ele>
        <time>2023-05-07T10:39:33Z</time>
      </trkpt>
      <trkpt lat="48.00062" lon="6.95645">
        <ele>1077</ele>
        <time>2023-05-07T10:39:40Z</time>
      </trkpt>
      <trkpt lat="48.00057" lon="6.95616">
        <ele>1075</ele>
        <time>2023-05-07T10:39:55Z</time>
      </trkpt>
      <trkpt lat="48.00056" lon="6.9561">
        <ele>1075</ele>
        <time>2023-05-07T10:40:00Z</time>
      </trkpt>
      <trkpt lat="48.00054" lon="6.95588">
        <ele>1074</ele>
        <time>2023-05-07T10:40:11Z</time>
      </trkpt>
      <trkpt lat="48.00051" lon="6.95583">
        <ele>1073</ele>
        <time>2023-05-07T10:40:16Z</time>
      </trkpt>
      <trkpt lat="48.00048" lon="6.95578">
        <ele>1072</ele>
        <time>2023-05-07T10:40:20Z</time>
      </trkpt>
      <trkpt lat="48.00041" lon="6.95567">
        <ele>1071</ele>
        <time>2023-05-07T10:40:27Z</time>
      </trkpt>
      <trkpt lat="48.00039" lon="6.95562">
        <ele>1070</ele>
        <time>2023-05-07T10:40:31Z</time>
      </trkpt>
      <trkpt lat="48.00036" lon="6.95556">
        <ele>1070</ele>
        <time>2023-05-07T10:40:34Z</time>
      </trkpt>
      <trkpt lat="48.00033" lon="6.95543">
        <ele>1069</ele>
        <time>2023-05-07T10:40:45Z</time>
      </trkpt>
      <trkpt lat="48.00029" lon="6.95524">
        <ele>1067</ele>
        <time>2023-05-07T10:40:56Z</time>
      </trkpt>
      <trkpt lat="48.00021" lon="6.95515">
        <ele>1066</ele>
        <time>2023-05-07T10:41:04Z</time>
      </trkpt>
      <trkpt lat="48.00018" lon="6.95504">
        <ele>1065</ele>
        <time>2023-05-07T10:41:12Z</time>
      </trkpt>
      <trkpt lat="48.00013" lon="6.95474">
        <ele>1063</ele>
        <time>2023-05-07T10:41:25Z</time>
      </trkpt>
      <trkpt lat="48.00009" lon="6.95461">
        <ele>1062</ele>
        <time>2023-05-07T10:41:32Z</time>
      </trkpt>
      <trkpt lat="48.0001" lon="6.95438">
        <ele>1060</ele>
        <time>2023-05-07T10:41:45Z</time>
      </trkpt>
      <trkpt lat="48.00007" lon="6.95424">
        <ele>1059</ele>
        <time>2023-05-07T10:41:54Z</time>
      </trkpt>
      <trkpt lat="48" lon="6.95407">
        <ele>1057</ele>
        <time>2023-05-07T10:42:05Z</time>
      </trkpt>
      <trkpt lat="48" lon="6.95399">
        <ele>1057</ele>
        <time>2023-05-07T10:42:08Z</time>
      </trkpt>
      <trkpt lat="48.00002" lon="6.95394">
        <ele>1057</ele>
        <time>2023-05-07T10:42:12Z</time>
      </trkpt>
      <trkpt lat="48.00006" lon="6.95372">
        <ele>1055</ele>
        <time>2023-05-07T10:42:24Z</time>
      </trkpt>
      <trkpt lat="48.00006" lon="6.9535">
        <ele>1053</ele>
        <time>2023-05-07T10:42:33Z</time>
      </trkpt>
      <trkpt lat="48.00009" lon="6.95315">
        <ele>1051</ele>
        <time>2023-05-07T10:42:53Z</time>
      </trkpt>
      <trkpt lat="48.00009" lon="6.95306">
        <ele>1050</ele>
        <time>2023-05-07T10:42:58Z</time>
      </trkpt>
      <trkpt lat="48.00006" lon="6.95299">
        <ele>1049</ele>
        <time>2023-05-07T10:43:05Z</time>
      </trkpt>
      <trkpt lat="48.00002" lon="6.95291">
        <ele>1048</ele>
        <time>2023-05-07T10:43:11Z</time>
      </trkpt>
      <trkpt lat="48.00001" lon="6.95284">
        <ele>1047</ele>
        <time>2023-05-07T10:43:15Z</time>
      </trkpt>
      <trkpt lat="48.00001" lon="6.95277">
        <ele>1046</ele>
        <time>2023-05-07T10:43:18Z</time>
      </trkpt>
      <trkpt lat="47.99997" lon="6.95263">
        <ele>1045</ele>
        <time>2023-05-07T10:43:29Z</time>
      </trkpt>
      <trkpt lat="47.99998" lon="6.95245">
        <ele>1043</ele>
        <time>2023-05-07T10:43:39Z</time>
      </trkpt>
      <trkpt lat="47.99995" lon="6.95232">
        <ele>1041</ele>
        <time>2023-05-07T10:43:45Z</time>
      </trkpt>
      <trkpt lat="47.99995" lon="6.95225">
        <ele>1040</ele>
        <time>2023-05-07T10:43:49Z</time>
      </trkpt>
      <trkpt lat="47.99991" lon="6.95204">
        <ele>1039</ele>
        <time>2023-05-07T10:43:59Z</time>
      </trkpt>
      <trkpt lat="47.99989" lon="6.95191">
        <ele>1037</ele>
        <time>2023-05-07T10:44:07Z</time>
      </trkpt>
      <trkpt lat="47.99993" lon="6.95159">
        <ele>1034</ele>
        <time>2023-05-07T10:44:26Z</time>
      </trkpt>
      <trkpt lat="47.99993" lon="6.95149">
        <ele>1033</ele>
        <time>2023-05-07T10:44:32Z</time>
      </trkpt>
      <trkpt lat="47.99994" lon="6.95136">
        <ele>1032</ele>
        <time>2023-05-07T10:44:39Z</time>
      </trkpt>
      <trkpt lat="47.99993" lon="6.95128">
        <ele>1031</ele>
        <time>2023-05-07T10:44:43Z</time>
      </trkpt>
      <trkpt lat="47.99997" lon="6.95102">
        <ele>1028</ele>
        <time>2023-05-07T10:45:00Z</time>
      </trkpt>
      <trkpt lat="47.9999" lon="6.95061">
        <ele>1025</ele>
        <time>2023-05-07T10:45:23Z</time>
      </trkpt>
      <trkpt lat="47.99987" lon="6.95055">
        <ele>1024</ele>
        <time>2023-05-07T10:45:27Z</time>
      </trkpt>
      <trkpt lat="47.99987" lon="6.95048">
        <ele>1024</ele>
        <time>2023-05-07T10:45:32Z</time>
      </trkpt>
      <trkpt lat="47.99986" lon="6.9504">
        <ele>1023</ele>
        <time>2023-05-07T10:45:36Z</time>
      </trkpt>
      <trkpt lat="47.99989" lon="6.95025">
        <ele>1022</ele>
        <time>2023-05-07T10:45:43Z</time>
      </trkpt>
      <trkpt lat="47.99996" lon="6.95015">
        <ele>1021</ele>
        <time>2023-05-07T10:45:49Z</time>
      </trkpt>
      <trkpt lat="47.99998" lon="6.94998">
        <ele>1019</ele>
        <time>2023-05-07T10:45:59Z</time>
      </trkpt>
      <trkpt lat="48.00003" lon="6.94995">
        <ele>1019</ele>
        <time>2023-05-07T10:46:02Z</time>
      </trkpt>
      <trkpt lat="48.00004" lon="6.94988">
        <ele>1018</ele>
        <time>2023-05-07T10:46:05Z</time>
      </trkpt>
      <trkpt lat="48.00009" lon="6.94982">
        <ele>1017</ele>
        <time>2023-05-07T10:46:14Z</time>
      </trkpt>
      <trkpt lat="48.00013" lon="6.94976">
        <ele>1016</ele>
        <time>2023-05-07T10:46:17Z</time>
      </trkpt>
      <trkpt lat="48.00016" lon="6.94962">
        <ele>1015</ele>
        <time>2023-05-07T10:46:24Z</time>
      </trkpt>
      <trkpt lat="48.00016" lon="6.94956">
        <ele>1015</ele>
        <time>2023-05-07T10:46:29Z</time>
      </trkpt>
      <trkpt lat="48.00011" lon="6.9495">
        <ele>1013</ele>
        <time>2023-05-07T10:46:39Z</time>
      </trkpt>
      <trkpt lat="48" lon="6.94951">
        <ele>1012</ele>
        <time>2023-05-07T10:46:46Z</time>
      </trkpt>
      <trkpt lat="47.99996" lon="6.94949">
        <ele>1012</ele>
        <time>2023-05-07T10:46:50Z</time>
      </trkpt>
      <trkpt lat="47.99992" lon="6.94943">
        <ele>1011</ele>
        <time>2023-05-07T10:46:54Z</time>
      </trkpt>
      <trkpt lat="47.99992" lon="6.94926">
        <ele>1010</ele>
        <time>2023-05-07T10:47:03Z</time>
      </trkpt>
      <trkpt lat="47.99989" lon="6.94919">
        <ele>1009</ele>
        <time>2023-05-07T10:47:07Z</time>
      </trkpt>
      <trkpt lat="47.99984" lon="6.94874">
        <ele>1005</ele>
        <time>2023-05-07T10:47:33Z</time>
      </trkpt>
      <trkpt lat="47.9998" lon="6.94867">
        <ele>1003</ele>
        <time>2023-05-07T10:47:41Z</time>
      </trkpt>
      <trkpt lat="47.9998" lon="6.94858">
        <ele>1002</ele>
        <time>2023-05-07T10:47:46Z</time>
      </trkpt>
      <trkpt lat="47.99978" lon="6.9485">
        <ele>1000</ele>
        <time>2023-05-07T10:47:52Z</time>
      </trkpt>
      <trkpt lat="47.99978" lon="6.94841">
        <ele>1000</ele>
        <time>2023-05-07T10:48:00Z</time>
      </trkpt>
      <trkpt lat="47.9998" lon="6.94834">
        <ele>999</ele>
        <time>2023-05-07T10:48:04Z</time>
      </trkpt>
      <trkpt lat="47.99988" lon="6.9482">
        <ele>1000</ele>
        <time>2023-05-07T10:48:14Z</time>
      </trkpt>
      <trkpt lat="47.99991" lon="6.94805">
        <ele>999</ele>
        <time>2023-05-07T10:48:23Z</time>
      </trkpt>
      <trkpt lat="47.99992" lon="6.94797">
        <ele>1000</ele>
        <time>2023-05-07T10:48:29Z</time>
      </trkpt>
      <trkpt lat="47.99994" lon="6.9479">
        <ele>1000</ele>
        <time>2023-05-07T10:48:33Z</time>
      </trkpt>
      <trkpt lat="47.99997" lon="6.94776">
        <ele>998</ele>
        <time>2023-05-07T10:48:41Z</time>
      </trkpt>
      <trkpt lat="48" lon="6.94766">
        <ele>996</ele>
        <time>2023-05-07T10:48:50Z</time>
      </trkpt>
      <trkpt lat="48.00004" lon="6.94752">
        <ele>994</ele>
        <time>2023-05-07T10:49:01Z</time>
      </trkpt>
      <trkpt lat="47.99999" lon="6.94755">
        <ele>992</ele>
        <time>2023-05-07T10:49:08Z</time>
      </trkpt>
      <trkpt lat="47.99999" lon="6.94744">
        <ele>990</ele>
        <time>2023-05-07T10:49:14Z</time>
      </trkpt>
      <trkpt lat="47.99998" lon="6.94734">
        <ele>988</ele>
        <time>2023-05-07T10:49:29Z</time>
      </trkpt>
      <trkpt lat="47.99999" lon="6.94727">
        <ele>987</ele>
        <time>2023-05-07T10:49:33Z</time>
      </trkpt>
      <trkpt lat="47.99996" lon="6.94721">
        <ele>987</ele>
        <time>2023-05-07T10:49:36Z</time>
      </trkpt>
      <trkpt lat="47.99994" lon="6.94706">
        <ele>986</ele>
        <time>2023-05-07T10:49:43Z</time>
      </trkpt>
      <trkpt lat="47.99991" lon="6.94701">
        <ele>986</ele>
        <time>2023-05-07T10:49:46Z</time>
      </trkpt>
      <trkpt lat="47.99992" lon="6.94677">
        <ele>983</ele>
        <time>2023-05-07T10:50:01Z</time>
      </trkpt>
      <trkpt lat="47.99991" lon="6.94669">
        <ele>982</ele>
        <time>2023-05-07T10:50:05Z</time>
      </trkpt>
      <trkpt lat="47.99992" lon="6.9466">
        <ele>982</ele>
        <time>2023-05-07T10:50:09Z</time>
      </trkpt>
      <trkpt lat="47.99995" lon="6.94646">
        <ele>980</ele>
        <time>2023-05-07T10:50:17Z</time>
      </trkpt>
      <trkpt lat="48.00002" lon="6.94638">
        <ele>979</ele>
        <time>2023-05-07T10:50:25Z</time>
      </trkpt>
      <trkpt lat="48.00005" lon="6.94632">
        <ele>977</ele>
        <time>2023-05-07T10:50:30Z</time>
      </trkpt>
      <trkpt lat="48.0001" lon="6.94629">
        <ele>976</ele>
        <time>2023-05-07T10:50:37Z</time>
      </trkpt>
      <trkpt lat="48.00013" lon="6.94623">
        <ele>975</ele>
        <time>2023-05-07T10:50:41Z</time>
      </trkpt>
      <trkpt lat="48.00026" lon="6.9461">
        <ele>971</ele>
        <time>2023-05-07T10:50:58Z</time>
      </trkpt>
      <trkpt lat="48.00021" lon="6.94611">
        <ele>968</ele>
        <time>2023-05-07T10:51:13Z</time>
      </trkpt>
      <trkpt lat="48.00017" lon="6.94606">
        <ele>965</ele>
        <time>2023-05-07T10:51:25Z</time>
      </trkpt>
      <trkpt lat="48.00016" lon="6.94598">
        <ele>964</ele>
        <time>2023-05-07T10:51:31Z</time>
      </trkpt>
      <trkpt lat="48.00018" lon="6.94591">
        <ele>963</ele>
        <time>2023-05-07T10:51:35Z</time>
      </trkpt>
      <trkpt lat="48.00024" lon="6.9458">
        <ele>962</ele>
        <time>2023-05-07T10:51:43Z</time>
      </trkpt>
      <trkpt lat="48.00029" lon="6.94558">
        <ele>961</ele>
        <time>2023-05-07T10:51:55Z</time>
      </trkpt>
      <trkpt lat="48.00029" lon="6.94546">
        <ele>961</ele>
        <time>2023-05-07T10:52:01Z</time>
      </trkpt>
      <trkpt lat="48.00029" lon="6.94547">
        <ele>961</ele>
        <time>2023-05-07T10:52:29Z</time>
      </trkpt>
      <trkpt lat="48.00032" lon="6.94547">
        <ele>961</ele>
        <time>2023-05-07T10:52:45Z</time>
      </trkpt>
      <trkpt lat="48.00041" lon="6.9453">
        <ele>960</ele>
        <time>2023-05-07T10:52:55Z</time>
      </trkpt>
      <trkpt lat="48.00046" lon="6.94526">
        <ele>960</ele>
        <time>2023-05-07T10:52:58Z</time>
      </trkpt>
      <trkpt lat="48.00047" lon="6.94518">
        <ele>960</ele>
        <time>2023-05-07T10:53:10Z</time>
      </trkpt>
      <trkpt lat="48.00049" lon="6.94511">
        <ele>960</ele>
        <time>2023-05-07T10:53:15Z</time>
      </trkpt>
      <trkpt lat="48.00048" lon="6.94502">
        <ele>961</ele>
        <time>2023-05-07T10:53:22Z</time>
      </trkpt>
      <trkpt lat="48.00053" lon="6.94482">
        <ele>962</ele>
        <time>2023-05-07T10:53:34Z</time>
      </trkpt>
      <trkpt lat="48.00054" lon="6.94475">
        <ele>962</ele>
        <time>2023-05-07T10:53:38Z</time>
      </trkpt>
      <trkpt lat="48.00055" lon="6.94468">
        <ele>962</ele>
        <time>2023-05-07T10:53:42Z</time>
      </trkpt>
      <trkpt lat="48.00052" lon="6.94452">
        <ele>963</ele>
        <time>2023-05-07T10:53:52Z</time>
      </trkpt>
      <trkpt lat="48.00047" lon="6.94445">
        <ele>964</ele>
        <time>2023-05-07T10:54:00Z</time>
      </trkpt>
      <trkpt lat="48.00045" lon="6.94439">
        <ele>964</ele>
        <time>2023-05-07T10:54:05Z</time>
      </trkpt>
      <trkpt lat="48.0004" lon="6.94436">
        <ele>965</ele>
        <time>2023-05-07T10:54:08Z</time>
      </trkpt>
      <trkpt lat="48.00036" lon="6.94435">
        <ele>965</ele>
        <time>2023-05-07T10:54:11Z</time>
      </trkpt>
      <trkpt lat="48.00026" lon="6.94432">
        <ele>966</ele>
        <time>2023-05-07T10:54:20Z</time>
      </trkpt>
      <trkpt lat="48.00018" lon="6.94425">
        <ele>967</ele>
        <time>2023-05-07T10:54:27Z</time>
      </trkpt>
      <trkpt lat="48.00016" lon="6.9442">
        <ele>967</ele>
        <time>2023-05-07T10:54:30Z</time>
      </trkpt>
      <trkpt lat="48.00013" lon="6.94403">
        <ele>968</ele>
        <time>2023-05-07T10:54:37Z</time>
      </trkpt>
      <trkpt lat="48.00013" lon="6.94395">
        <ele>968</ele>
        <time>2023-05-07T10:54:41Z</time>
      </trkpt>
      <trkpt lat="48.00016" lon="6.94378">
        <ele>969</ele>
        <time>2023-05-07T10:54:48Z</time>
      </trkpt>
      <trkpt lat="48.0002" lon="6.94364">
        <ele>970</ele>
        <time>2023-05-07T10:54:56Z</time>
      </trkpt>
      <trkpt lat="48.00022" lon="6.9435">
        <ele>971</ele>
        <time>2023-05-07T10:55:03Z</time>
      </trkpt>
      <trkpt lat="48.00025" lon="6.94344">
        <ele>971</ele>
        <time>2023-05-07T10:55:07Z</time>
      </trkpt>
      <trkpt lat="48.00027" lon="6.94338">
        <ele>971</ele>
        <time>2023-05-07T10:55:11Z</time>
      </trkpt>
      <trkpt lat="48.00032" lon="6.94323">
        <ele>973</ele>
        <time>2023-05-07T10:55:25Z</time>
      </trkpt>
      <trkpt lat="48.00035" lon="6.94318">
        <ele>973</ele>
        <time>2023-05-07T10:55:29Z</time>
      </trkpt>
      <trkpt lat="48.00038" lon="6.94295">
        <ele>974</ele>
        <time>2023-05-07T10:55:40Z</time>
      </trkpt>
      <trkpt lat="48.00041" lon="6.94289">
        <ele>975</ele>
        <time>2023-05-07T10:55:45Z</time>
      </trkpt>
      <trkpt lat="48.00042" lon="6.94281">
        <ele>976</ele>
        <time>2023-05-07T10:55:49Z</time>
      </trkpt>
      <trkpt lat="48.00041" lon="6.94273">
        <ele>976</ele>
        <time>2023-05-07T10:55:53Z</time>
      </trkpt>
      <trkpt lat="48.00041" lon="6.94264">
        <ele>977</ele>
        <time>2023-05-07T10:56:00Z</time>
      </trkpt>
      <trkpt lat="48.00041" lon="6.94256">
        <ele>978</ele>
        <time>2023-05-07T10:56:11Z</time>
      </trkpt>
      <trkpt lat="48.00036" lon="6.94241">
        <ele>979</ele>
        <time>2023-05-07T10:56:31Z</time>
      </trkpt>
      <trkpt lat="48.00035" lon="6.94233">
        <ele>979</ele>
        <time>2023-05-07T10:56:35Z</time>
      </trkpt>
      <trkpt lat="48.00013" lon="6.94179">
        <ele>984</ele>
        <time>2023-05-07T10:57:13Z</time>
      </trkpt>
      <trkpt lat="48.0001" lon="6.94172">
        <ele>984</ele>
        <time>2023-05-07T10:57:17Z</time>
      </trkpt>
      <trkpt lat="48.00002" lon="6.94139">
        <ele>987</ele>
        <time>2023-05-07T10:57:39Z</time>
      </trkpt>
      <trkpt lat="47.99995" lon="6.94129">
        <ele>988</ele>
        <time>2023-05-07T10:57:47Z</time>
      </trkpt>
      <trkpt lat="47.9997" lon="6.94096">
        <ele>991</ele>
        <time>2023-05-07T10:58:17Z</time>
      </trkpt>
      <trkpt lat="47.99965" lon="6.94085">
        <ele>992</ele>
        <time>2023-05-07T10:58:24Z</time>
      </trkpt>
      <trkpt lat="47.99944" lon="6.94055">
        <ele>995</ele>
        <time>2023-05-07T10:58:49Z</time>
      </trkpt>
      <trkpt lat="47.99918" lon="6.94035">
        <ele>996</ele>
        <time>2023-05-07T10:59:11Z</time>
      </trkpt>
      <trkpt lat="47.99906" lon="6.94017">
        <ele>998</ele>
        <time>2023-05-07T10:59:28Z</time>
      </trkpt>
      <trkpt lat="47.9989" lon="6.94004">
        <ele>1000</ele>
        <time>2023-05-07T10:59:43Z</time>
      </trkpt>
      <trkpt lat="47.99881" lon="6.94001">
        <ele>1000</ele>
        <time>2023-05-07T10:59:51Z</time>
      </trkpt>
      <trkpt lat="47.99869" lon="6.93991">
        <ele>1001</ele>
        <time>2023-05-07T11:00:03Z</time>
      </trkpt>
      <trkpt lat="47.99847" lon="6.93977">
        <ele>1003</ele>
        <time>2023-05-07T11:00:24Z</time>
      </trkpt>
      <trkpt lat="47.99843" lon="6.93974">
        <ele>1003</ele>
        <time>2023-05-07T11:00:27Z</time>
      </trkpt>
      <trkpt lat="47.9982" lon="6.93965">
        <ele>1005</ele>
        <time>2023-05-07T11:00:46Z</time>
      </trkpt>
      <trkpt lat="47.99785" lon="6.93962">
        <ele>1007</ele>
        <time>2023-05-07T11:01:14Z</time>
      </trkpt>
      <trkpt lat="47.99752" lon="6.9395">
        <ele>1009</ele>
        <time>2023-05-07T11:01:44Z</time>
      </trkpt>
      <trkpt lat="47.99719" lon="6.93952">
        <ele>1012</ele>
        <time>2023-05-07T11:02:11Z</time>
      </trkpt>
      <trkpt lat="47.99706" lon="6.93944">
        <ele>1012</ele>
        <time>2023-05-07T11:02:22Z</time>
      </trkpt>
      <trkpt lat="47.99701" lon="6.9394">
        <ele>1013</ele>
        <time>2023-05-07T11:02:26Z</time>
      </trkpt>
      <trkpt lat="47.99697" lon="6.93933">
        <ele>1013</ele>
        <time>2023-05-07T11:02:32Z</time>
      </trkpt>
      <trkpt lat="47.99663" lon="6.93906">
        <ele>1016</ele>
        <time>2023-05-07T11:03:03Z</time>
      </trkpt>
      <trkpt lat="47.99626" lon="6.93887">
        <ele>1018</ele>
        <time>2023-05-07T11:03:36Z</time>
      </trkpt>
      <trkpt lat="47.99612" lon="6.93881">
        <ele>1019</ele>
        <time>2023-05-07T11:03:48Z</time>
      </trkpt>
      <trkpt lat="47.99577" lon="6.93855">
        <ele>1021</ele>
        <time>2023-05-07T11:04:19Z</time>
      </trkpt>
      <trkpt lat="47.99568" lon="6.93851">
        <ele>1022</ele>
        <time>2023-05-07T11:04:29Z</time>
      </trkpt>
      <trkpt lat="47.99556" lon="6.93838">
        <ele>1023</ele>
        <time>2023-05-07T11:04:40Z</time>
      </trkpt>
      <trkpt lat="47.99552" lon="6.93835">
        <ele>1023</ele>
        <time>2023-05-07T11:04:44Z</time>
      </trkpt>
      <trkpt lat="47.99548" lon="6.93832">
        <ele>1024</ele>
        <time>2023-05-07T11:04:48Z</time>
      </trkpt>
      <trkpt lat="47.99533" lon="6.93826">
        <ele>1025</ele>
        <time>2023-05-07T11:05:01Z</time>
      </trkpt>
      <trkpt lat="47.99525" lon="6.9382">
        <ele>1025</ele>
        <time>2023-05-07T11:05:09Z</time>
      </trkpt>
      <trkpt lat="47.99508" lon="6.93813">
        <ele>1027</ele>
        <time>2023-05-07T11:05:24Z</time>
      </trkpt>
      <trkpt lat="47.99473" lon="6.93792">
        <ele>1029</ele>
        <time>2023-05-07T11:05:57Z</time>
      </trkpt>
      <trkpt lat="47.9946" lon="6.93779">
        <ele>1031</ele>
        <time>2023-05-07T11:06:11Z</time>
      </trkpt>
      <trkpt lat="47.99451" lon="6.93767">
        <ele>1031</ele>
        <time>2023-05-07T11:06:21Z</time>
      </trkpt>
      <trkpt lat="47.99434" lon="6.93757">
        <ele>1033</ele>
        <time>2023-05-07T11:06:37Z</time>
      </trkpt>
      <trkpt lat="47.99402" lon="6.93754">
        <ele>1035</ele>
        <time>2023-05-07T11:07:05Z</time>
      </trkpt>
      <trkpt lat="47.9938" lon="6.93738">
        <ele>1037</ele>
        <time>2023-05-07T11:07:27Z</time>
      </trkpt>
      <trkpt lat="47.99375" lon="6.93738">
        <ele>1037</ele>
        <time>2023-05-07T11:07:30Z</time>
      </trkpt>
      <trkpt lat="47.9937" lon="6.93734">
        <ele>1037</ele>
        <time>2023-05-07T11:07:35Z</time>
      </trkpt>
      <trkpt lat="47.99361" lon="6.93731">
        <ele>1038</ele>
        <time>2023-05-07T11:07:42Z</time>
      </trkpt>
      <trkpt lat="47.99353" lon="6.93726">
        <ele>1039</ele>
        <time>2023-05-07T11:07:50Z</time>
      </trkpt>
      <trkpt lat="47.99345" lon="6.93716">
        <ele>1039</ele>
        <time>2023-05-07T11:08:02Z</time>
      </trkpt>
      <trkpt lat="47.99341" lon="6.93713">
        <ele>1040</ele>
        <time>2023-05-07T11:08:14Z</time>
      </trkpt>
      <trkpt lat="47.99336" lon="6.93707">
        <ele>1040</ele>
        <time>2023-05-07T11:08:19Z</time>
      </trkpt>
      <trkpt lat="47.99326" lon="6.93692">
        <ele>1041</ele>
        <time>2023-05-07T11:08:31Z</time>
      </trkpt>
      <trkpt lat="47.99295" lon="6.93666">
        <ele>1044</ele>
        <time>2023-05-07T11:09:04Z</time>
      </trkpt>
      <trkpt lat="47.99288" lon="6.93657">
        <ele>1044</ele>
        <time>2023-05-07T11:09:12Z</time>
      </trkpt>
      <trkpt lat="47.99283" lon="6.93653">
        <ele>1045</ele>
        <time>2023-05-07T11:09:16Z</time>
      </trkpt>
      <trkpt lat="47.99276" lon="6.93644">
        <ele>1045</ele>
        <time>2023-05-07T11:09:24Z</time>
      </trkpt>
      <trkpt lat="47.99247" lon="6.93616">
        <ele>1047</ele>
        <time>2023-05-07T11:09:53Z</time>
      </trkpt>
      <trkpt lat="47.9924" lon="6.93605">
        <ele>1048</ele>
        <time>2023-05-07T11:10:02Z</time>
      </trkpt>
      <trkpt lat="47.99226" lon="6.93572">
        <ele>1049</ele>
        <time>2023-05-07T11:10:25Z</time>
      </trkpt>
      <trkpt lat="47.99216" lon="6.93559">
        <ele>1050</ele>
        <time>2023-05-07T11:10:37Z</time>
      </trkpt>
      <trkpt lat="47.99211" lon="6.93557">
        <ele>1050</ele>
        <time>2023-05-07T11:10:40Z</time>
      </trkpt>
      <trkpt lat="47.99183" lon="6.93517">
        <ele>1053</ele>
        <time>2023-05-07T11:11:11Z</time>
      </trkpt>
      <trkpt lat="47.99171" lon="6.93494">
        <ele>1054</ele>
        <time>2023-05-07T11:11:29Z</time>
      </trkpt>
      <trkpt lat="47.99167" lon="6.93492">
        <ele>1054</ele>
        <time>2023-05-07T11:11:32Z</time>
      </trkpt>
      <trkpt lat="47.99153" lon="6.93475">
        <ele>1055</ele>
        <time>2023-05-07T11:11:48Z</time>
      </trkpt>
      <trkpt lat="47.99141" lon="6.9345">
        <ele>1056</ele>
        <time>2023-05-07T11:12:06Z</time>
      </trkpt>
      <trkpt lat="47.99139" lon="6.93443">
        <ele>1057</ele>
        <time>2023-05-07T11:12:10Z</time>
      </trkpt>
      <trkpt lat="47.99134" lon="6.93432">
        <ele>1057</ele>
        <time>2023-05-07T11:12:17Z</time>
      </trkpt>
      <trkpt lat="47.9912" lon="6.93384">
        <ele>1059</ele>
        <time>2023-05-07T11:12:48Z</time>
      </trkpt>
      <trkpt lat="47.99119" lon="6.93377">
        <ele>1060</ele>
        <time>2023-05-07T11:12:52Z</time>
      </trkpt>
      <trkpt lat="47.99111" lon="6.93351">
        <ele>1061</ele>
        <time>2023-05-07T11:13:07Z</time>
      </trkpt>
      <trkpt lat="47.99109" lon="6.93321">
        <ele>1062</ele>
        <time>2023-05-07T11:13:24Z</time>
      </trkpt>
      <trkpt lat="47.99107" lon="6.93307">
        <ele>1063</ele>
        <time>2023-05-07T11:13:32Z</time>
      </trkpt>
      <trkpt lat="47.99108" lon="6.933">
        <ele>1063</ele>
        <time>2023-05-07T11:13:36Z</time>
      </trkpt>
      <trkpt lat="47.99106" lon="6.93285">
        <ele>1063</ele>
        <time>2023-05-07T11:13:45Z</time>
      </trkpt>
      <trkpt lat="47.99102" lon="6.93272">
        <ele>1064</ele>
        <time>2023-05-07T11:13:53Z</time>
      </trkpt>
      <trkpt lat="47.99102" lon="6.93264">
        <ele>1064</ele>
        <time>2023-05-07T11:13:57Z</time>
      </trkpt>
      <trkpt lat="47.99092" lon="6.93217">
        <ele>1067</ele>
        <time>2023-05-07T11:14:29Z</time>
      </trkpt>
      <trkpt lat="47.99089" lon="6.93204">
        <ele>1067</ele>
        <time>2023-05-07T11:14:36Z</time>
      </trkpt>
      <trkpt lat="47.99088" lon="6.93169">
        <ele>1068</ele>
        <time>2023-05-07T11:14:55Z</time>
      </trkpt>
      <trkpt lat="47.9909" lon="6.9316">
        <ele>1069</ele>
        <time>2023-05-07T11:15:04Z</time>
      </trkpt>
      <trkpt lat="47.99092" lon="6.93153">
        <ele>1069</ele>
        <time>2023-05-07T11:15:07Z</time>
      </trkpt>
      <trkpt lat="47.9909" lon="6.93147">
        <ele>1069</ele>
        <time>2023-05-07T11:15:10Z</time>
      </trkpt>
      <trkpt lat="47.99095" lon="6.93118">
        <ele>1070</ele>
        <time>2023-05-07T11:15:25Z</time>
      </trkpt>
      <trkpt lat="47.99094" lon="6.93111">
        <ele>1070</ele>
        <time>2023-05-07T11:15:29Z</time>
      </trkpt>
      <trkpt lat="47.99097" lon="6.93083">
        <ele>1071</ele>
        <time>2023-05-07T11:15:45Z</time>
      </trkpt>
      <trkpt lat="47.99102" lon="6.93048">
        <ele>1072</ele>
        <time>2023-05-07T11:16:05Z</time>
      </trkpt>
      <trkpt lat="47.99103" lon="6.93027">
        <ele>1073</ele>
        <time>2023-05-07T11:16:19Z</time>
      </trkpt>
      <trkpt lat="47.99102" lon="6.9302">
        <ele>1073</ele>
        <time>2023-05-07T11:16:23Z</time>
      </trkpt>
      <trkpt lat="47.99103" lon="6.93006">
        <ele>1074</ele>
        <time>2023-05-07T11:16:31Z</time>
      </trkpt>
      <trkpt lat="47.99098" lon="6.9297">
        <ele>1075</ele>
        <time>2023-05-07T11:16:51Z</time>
      </trkpt>
      <trkpt lat="47.99096" lon="6.92964">
        <ele>1075</ele>
        <time>2023-05-07T11:16:55Z</time>
      </trkpt>
      <trkpt lat="47.99078" lon="6.92931">
        <ele>1076</ele>
        <time>2023-05-07T11:17:18Z</time>
      </trkpt>
      <trkpt lat="47.99075" lon="6.92916">
        <ele>1075</ele>
        <time>2023-05-07T11:17:27Z</time>
      </trkpt>
      <trkpt lat="47.99076" lon="6.92891">
        <ele>1075</ele>
        <time>2023-05-07T11:17:39Z</time>
      </trkpt>
      <trkpt lat="47.99077" lon="6.92883">
        <ele>1075</ele>
        <time>2023-05-07T11:17:43Z</time>
      </trkpt>
      <trkpt lat="47.99077" lon="6.92826">
        <ele>1075</ele>
        <time>2023-05-07T11:18:14Z</time>
      </trkpt>
      <trkpt lat="47.99075" lon="6.92796">
        <ele>1073</ele>
        <time>2023-05-07T11:18:33Z</time>
      </trkpt>
      <trkpt lat="47.99064" lon="6.92742">
        <ele>1071</ele>
        <time>2023-05-07T11:19:07Z</time>
      </trkpt>
      <trkpt lat="47.99056" lon="6.92717">
        <ele>1071</ele>
        <time>2023-05-07T11:19:21Z</time>
      </trkpt>
      <trkpt lat="47.99053" lon="6.92697">
        <ele>1072</ele>
        <time>2023-05-07T11:19:39Z</time>
      </trkpt>
      <trkpt lat="47.99053" lon="6.9269">
        <ele>1071</ele>
        <time>2023-05-07T11:19:43Z</time>
      </trkpt>
      <trkpt lat="47.99053" lon="6.92682">
        <ele>1071</ele>
        <time>2023-05-07T11:19:47Z</time>
      </trkpt>
      <trkpt lat="47.99053" lon="6.92676">
        <ele>1072</ele>
        <time>2023-05-07T11:19:52Z</time>
      </trkpt>
      <trkpt lat="47.99049" lon="6.92696">
        <ele>1071</ele>
        <time>2023-05-07T11:21:09Z</time>
      </trkpt>
      <trkpt lat="47.99053" lon="6.92695">
        <ele>1071</ele>
        <time>2023-05-07T11:21:13Z</time>
      </trkpt>
      <trkpt lat="47.99059" lon="6.927">
        <ele>1070</ele>
        <time>2023-05-07T11:21:19Z</time>
      </trkpt>
      <trkpt lat="47.99057" lon="6.92706">
        <ele>1071</ele>
        <time>2023-05-07T11:21:27Z</time>
      </trkpt>
      <trkpt lat="47.99054" lon="6.927">
        <ele>1070</ele>
        <time>2023-05-07T11:21:39Z</time>
      </trkpt>
      <trkpt lat="47.99053" lon="6.92711">
        <ele>1067</ele>
        <time>2023-05-07T12:20:13Z</time>
      </trkpt>
      <trkpt lat="47.99054" lon="6.92712">
        <ele>1067</ele>
        <time>2023-05-07T12:20:14Z</time>
      </trkpt>
      <trkpt lat="47.99046" lon="6.92716">
        <ele>1067</ele>
        <time>2023-05-07T12:20:26Z</time>
      </trkpt>
      <trkpt lat="47.99046" lon="6.92724">
        <ele>1066</ele>
        <time>2023-05-07T12:20:30Z</time>
      </trkpt>
      <trkpt lat="47.99048" lon="6.92731">
        <ele>1066</ele>
        <time>2023-05-07T12:20:35Z</time>
      </trkpt>
      <trkpt lat="47.99055" lon="6.92728">
        <ele>1066</ele>
        <time>2023-05-07T12:20:41Z</time>
      </trkpt>
      <trkpt lat="47.9906" lon="6.92729">
        <ele>1067</ele>
        <time>2023-05-07T12:20:43Z</time>
      </trkpt>
      <trkpt lat="47.99064" lon="6.92729">
        <ele>1066</ele>
        <time>2023-05-07T12:20:47Z</time>
      </trkpt>
      <trkpt lat="47.99069" lon="6.92732">
        <ele>1066</ele>
        <time>2023-05-07T12:20:51Z</time>
      </trkpt>
      <trkpt lat="47.99071" lon="6.92737">
        <ele>1066</ele>
        <time>2023-05-07T12:20:57Z</time>
      </trkpt>
      <trkpt lat="47.99072" lon="6.92746">
        <ele>1066</ele>
        <time>2023-05-07T12:21:03Z</time>
      </trkpt>
      <trkpt lat="47.99076" lon="6.92759">
        <ele>1067</ele>
        <time>2023-05-07T12:21:12Z</time>
      </trkpt>
      <trkpt lat="47.99077" lon="6.92767">
        <ele>1067</ele>
        <time>2023-05-07T12:21:15Z</time>
      </trkpt>
      <trkpt lat="47.99079" lon="6.92772">
        <ele>1067</ele>
        <time>2023-05-07T12:21:18Z</time>
      </trkpt>
      <trkpt lat="47.9908" lon="6.92787">
        <ele>1068</ele>
        <time>2023-05-07T12:21:29Z</time>
      </trkpt>
      <trkpt lat="47.99083" lon="6.92794">
        <ele>1068</ele>
        <time>2023-05-07T12:21:33Z</time>
      </trkpt>
      <trkpt lat="47.99084" lon="6.92801">
        <ele>1068</ele>
        <time>2023-05-07T12:21:37Z</time>
      </trkpt>
      <trkpt lat="47.99086" lon="6.92843">
        <ele>1070</ele>
        <time>2023-05-07T12:22:01Z</time>
      </trkpt>
      <trkpt lat="47.99088" lon="6.9285">
        <ele>1070</ele>
        <time>2023-05-07T12:22:05Z</time>
      </trkpt>
      <trkpt lat="47.99086" lon="6.92864">
        <ele>1070</ele>
        <time>2023-05-07T12:22:14Z</time>
      </trkpt>
      <trkpt lat="47.99085" lon="6.92871">
        <ele>1070</ele>
        <time>2023-05-07T12:22:18Z</time>
      </trkpt>
      <trkpt lat="47.99085" lon="6.92878">
        <ele>1070</ele>
        <time>2023-05-07T12:22:22Z</time>
      </trkpt>
      <trkpt lat="47.99084" lon="6.92885">
        <ele>1070</ele>
        <time>2023-05-07T12:22:26Z</time>
      </trkpt>
      <trkpt lat="47.99082" lon="6.9292">
        <ele>1071</ele>
        <time>2023-05-07T12:22:47Z</time>
      </trkpt>
      <trkpt lat="47.99085" lon="6.92934">
        <ele>1071</ele>
        <time>2023-05-07T12:23:04Z</time>
      </trkpt>
      <trkpt lat="47.99085" lon="6.92948">
        <ele>1072</ele>
        <time>2023-05-07T12:23:12Z</time>
      </trkpt>
      <trkpt lat="47.9907" lon="6.92989">
        <ele>1076</ele>
        <time>2023-05-07T12:23:46Z</time>
      </trkpt>
      <trkpt lat="47.99068" lon="6.92996">
        <ele>1077</ele>
        <time>2023-05-07T12:23:51Z</time>
      </trkpt>
      <trkpt lat="47.99065" lon="6.93001">
        <ele>1077</ele>
        <time>2023-05-07T12:23:56Z</time>
      </trkpt>
      <trkpt lat="47.99064" lon="6.93008">
        <ele>1078</ele>
        <time>2023-05-07T12:24:00Z</time>
      </trkpt>
      <trkpt lat="47.9905" lon="6.93031">
        <ele>1080</ele>
        <time>2023-05-07T12:24:20Z</time>
      </trkpt>
      <trkpt lat="47.99048" lon="6.93037">
        <ele>1080</ele>
        <time>2023-05-07T12:24:23Z</time>
      </trkpt>
      <trkpt lat="47.99043" lon="6.93044">
        <ele>1081</ele>
        <time>2023-05-07T12:24:31Z</time>
      </trkpt>
      <trkpt lat="47.99039" lon="6.93065">
        <ele>1084</ele>
        <time>2023-05-07T12:24:51Z</time>
      </trkpt>
      <trkpt lat="47.99037" lon="6.9307">
        <ele>1085</ele>
        <time>2023-05-07T12:24:58Z</time>
      </trkpt>
      <trkpt lat="47.99021" lon="6.93081">
        <ele>1088</ele>
        <time>2023-05-07T12:25:29Z</time>
      </trkpt>
      <trkpt lat="47.99018" lon="6.93093">
        <ele>1090</ele>
        <time>2023-05-07T12:25:41Z</time>
      </trkpt>
      <trkpt lat="47.99015" lon="6.9312">
        <ele>1093</ele>
        <time>2023-05-07T12:26:01Z</time>
      </trkpt>
      <trkpt lat="47.99009" lon="6.93123">
        <ele>1094</ele>
        <time>2023-05-07T12:26:07Z</time>
      </trkpt>
      <trkpt lat="47.99" lon="6.93121">
        <ele>1095</ele>
        <time>2023-05-07T12:26:15Z</time>
      </trkpt>
      <trkpt lat="47.98995" lon="6.93123">
        <ele>1095</ele>
        <time>2023-05-07T12:26:19Z</time>
      </trkpt>
      <trkpt lat="47.9899" lon="6.93122">
        <ele>1095</ele>
        <time>2023-05-07T12:26:22Z</time>
      </trkpt>
      <trkpt lat="47.98986" lon="6.93122">
        <ele>1096</ele>
        <time>2023-05-07T12:26:27Z</time>
      </trkpt>
      <trkpt lat="47.98959" lon="6.93151">
        <ele>1101</ele>
        <time>2023-05-07T12:27:05Z</time>
      </trkpt>
      <trkpt lat="47.98953" lon="6.93153">
        <ele>1102</ele>
        <time>2023-05-07T12:27:13Z</time>
      </trkpt>
      <trkpt lat="47.9895" lon="6.93158">
        <ele>1103</ele>
        <time>2023-05-07T12:27:18Z</time>
      </trkpt>
      <trkpt lat="47.98949" lon="6.93167">
        <ele>1105</ele>
        <time>2023-05-07T12:27:29Z</time>
      </trkpt>
      <trkpt lat="47.98951" lon="6.93173">
        <ele>1106</ele>
        <time>2023-05-07T12:27:35Z</time>
      </trkpt>
      <trkpt lat="47.98954" lon="6.93178">
        <ele>1106</ele>
        <time>2023-05-07T12:27:40Z</time>
      </trkpt>
      <trkpt lat="47.9896" lon="6.93195">
        <ele>1109</ele>
        <time>2023-05-07T12:27:56Z</time>
      </trkpt>
      <trkpt lat="47.98957" lon="6.93201">
        <ele>1110</ele>
        <time>2023-05-07T12:28:00Z</time>
      </trkpt>
      <trkpt lat="47.98949" lon="6.93207">
        <ele>1111</ele>
        <time>2023-05-07T12:28:07Z</time>
      </trkpt>
      <trkpt lat="47.98945" lon="6.93206">
        <ele>1111</ele>
        <time>2023-05-07T12:28:09Z</time>
      </trkpt>
      <trkpt lat="47.98937" lon="6.93211">
        <ele>1112</ele>
        <time>2023-05-07T12:28:17Z</time>
      </trkpt>
      <trkpt lat="47.98955" lon="6.93242">
        <ele>1116</ele>
        <time>2023-05-07T12:28:46Z</time>
      </trkpt>
      <trkpt lat="47.98955" lon="6.93251">
        <ele>1117</ele>
        <time>2023-05-07T12:28:54Z</time>
      </trkpt>
      <trkpt lat="47.98945" lon="6.93262">
        <ele>1119</ele>
        <time>2023-05-07T12:29:08Z</time>
      </trkpt>
      <trkpt lat="47.9894" lon="6.93268">
        <ele>1121</ele>
        <time>2023-05-07T12:29:17Z</time>
      </trkpt>
      <trkpt lat="47.98935" lon="6.9327">
        <ele>1121</ele>
        <time>2023-05-07T12:29:21Z</time>
      </trkpt>
      <trkpt lat="47.98933" lon="6.93275">
        <ele>1122</ele>
        <time>2023-05-07T12:29:26Z</time>
      </trkpt>
      <trkpt lat="47.98929" lon="6.93296">
        <ele>1125</ele>
        <time>2023-05-07T12:29:43Z</time>
      </trkpt>
      <trkpt lat="47.98929" lon="6.93303">
        <ele>1125</ele>
        <time>2023-05-07T12:29:48Z</time>
      </trkpt>
      <trkpt lat="47.98926" lon="6.93307">
        <ele>1126</ele>
        <time>2023-05-07T12:29:52Z</time>
      </trkpt>
      <trkpt lat="47.98923" lon="6.93316">
        <ele>1127</ele>
        <time>2023-05-07T12:30:00Z</time>
      </trkpt>
      <trkpt lat="47.98917" lon="6.93327">
        <ele>1128</ele>
        <time>2023-05-07T12:30:09Z</time>
      </trkpt>
      <trkpt lat="47.98916" lon="6.93345">
        <ele>1129</ele>
        <time>2023-05-07T12:30:23Z</time>
      </trkpt>
      <trkpt lat="47.98921" lon="6.93383">
        <ele>1133</ele>
        <time>2023-05-07T12:30:50Z</time>
      </trkpt>
      <trkpt lat="47.98923" lon="6.9339">
        <ele>1133</ele>
        <time>2023-05-07T12:30:55Z</time>
      </trkpt>
      <trkpt lat="47.98924" lon="6.93404">
        <ele>1133</ele>
        <time>2023-05-07T12:31:05Z</time>
      </trkpt>
      <trkpt lat="47.98931" lon="6.93432">
        <ele>1133</ele>
        <time>2023-05-07T12:31:24Z</time>
      </trkpt>
      <trkpt lat="47.98931" lon="6.9344">
        <ele>1133</ele>
        <time>2023-05-07T12:31:29Z</time>
      </trkpt>
      <trkpt lat="47.98938" lon="6.93467">
        <ele>1134</ele>
        <time>2023-05-07T12:31:48Z</time>
      </trkpt>
      <trkpt lat="47.98941" lon="6.93472">
        <ele>1134</ele>
        <time>2023-05-07T12:31:52Z</time>
      </trkpt>
      <trkpt lat="47.9895" lon="6.93507">
        <ele>1135</ele>
        <time>2023-05-07T12:32:16Z</time>
      </trkpt>
      <trkpt lat="47.98952" lon="6.93521">
        <ele>1135</ele>
        <time>2023-05-07T12:32:25Z</time>
      </trkpt>
      <trkpt lat="47.98951" lon="6.93542">
        <ele>1135</ele>
        <time>2023-05-07T12:32:38Z</time>
      </trkpt>
      <trkpt lat="47.98955" lon="6.93596">
        <ele>1137</ele>
        <time>2023-05-07T12:33:15Z</time>
      </trkpt>
      <trkpt lat="47.98957" lon="6.9361">
        <ele>1138</ele>
        <time>2023-05-07T12:33:25Z</time>
      </trkpt>
      <trkpt lat="47.98962" lon="6.93653">
        <ele>1139</ele>
        <time>2023-05-07T12:33:55Z</time>
      </trkpt>
      <trkpt lat="47.98963" lon="6.93682">
        <ele>1139</ele>
        <time>2023-05-07T12:34:15Z</time>
      </trkpt>
      <trkpt lat="47.9896" lon="6.93732">
        <ele>1140</ele>
        <time>2023-05-07T12:34:49Z</time>
      </trkpt>
      <trkpt lat="47.98959" lon="6.93739">
        <ele>1141</ele>
        <time>2023-05-07T12:34:54Z</time>
      </trkpt>
      <trkpt lat="47.98961" lon="6.93766">
        <ele>1142</ele>
        <time>2023-05-07T12:35:13Z</time>
      </trkpt>
      <trkpt lat="47.98963" lon="6.93773">
        <ele>1143</ele>
        <time>2023-05-07T12:35:18Z</time>
      </trkpt>
      <trkpt lat="47.98967" lon="6.93784">
        <ele>1144</ele>
        <time>2023-05-07T12:35:27Z</time>
      </trkpt>
      <trkpt lat="47.9897" lon="6.93797">
        <ele>1145</ele>
        <time>2023-05-07T12:35:39Z</time>
      </trkpt>
      <trkpt lat="47.98972" lon="6.93803">
        <ele>1145</ele>
        <time>2023-05-07T12:35:44Z</time>
      </trkpt>
      <trkpt lat="47.98976" lon="6.9381">
        <ele>1145</ele>
        <time>2023-05-07T12:35:51Z</time>
      </trkpt>
      <trkpt lat="47.9898" lon="6.93825">
        <ele>1147</ele>
        <time>2023-05-07T12:36:04Z</time>
      </trkpt>
      <trkpt lat="47.98981" lon="6.93841">
        <ele>1147</ele>
        <time>2023-05-07T12:36:15Z</time>
      </trkpt>
      <trkpt lat="47.98984" lon="6.93851">
        <ele>1148</ele>
        <time>2023-05-07T12:36:22Z</time>
      </trkpt>
      <trkpt lat="47.98991" lon="6.93869">
        <ele>1149</ele>
        <time>2023-05-07T12:36:34Z</time>
      </trkpt>
      <trkpt lat="47.98993" lon="6.93882">
        <ele>1150</ele>
        <time>2023-05-07T12:36:42Z</time>
      </trkpt>
      <trkpt lat="47.98992" lon="6.93889">
        <ele>1150</ele>
        <time>2023-05-07T12:36:47Z</time>
      </trkpt>
      <trkpt lat="47.9899" lon="6.93896">
        <ele>1150</ele>
        <time>2023-05-07T12:36:51Z</time>
      </trkpt>
      <trkpt lat="47.98991" lon="6.93898">
        <ele>1150</ele>
        <time>2023-05-07T12:38:30Z</time>
      </trkpt>
      <trkpt lat="47.98994" lon="6.93909">
        <ele>1151</ele>
        <time>2023-05-07T12:38:41Z</time>
      </trkpt>
      <trkpt lat="47.98992" lon="6.93919">
        <ele>1151</ele>
        <time>2023-05-07T12:38:49Z</time>
      </trkpt>
      <trkpt lat="47.9898" lon="6.93942">
        <ele>1152</ele>
        <time>2023-05-07T12:39:08Z</time>
      </trkpt>
      <trkpt lat="47.98955" lon="6.93975">
        <ele>1152</ele>
        <time>2023-05-07T12:39:36Z</time>
      </trkpt>
      <trkpt lat="47.98948" lon="6.93994">
        <ele>1152</ele>
        <time>2023-05-07T12:39:49Z</time>
      </trkpt>
      <trkpt lat="47.98944" lon="6.94031">
        <ele>1151</ele>
        <time>2023-05-07T12:40:13Z</time>
      </trkpt>
      <trkpt lat="47.98944" lon="6.94086">
        <ele>1151</ele>
        <time>2023-05-07T12:40:45Z</time>
      </trkpt>
      <trkpt lat="47.9894" lon="6.94114">
        <ele>1152</ele>
        <time>2023-05-07T12:41:02Z</time>
      </trkpt>
      <trkpt lat="47.98939" lon="6.94149">
        <ele>1153</ele>
        <time>2023-05-07T12:41:24Z</time>
      </trkpt>
      <trkpt lat="47.98943" lon="6.9417">
        <ele>1153</ele>
        <time>2023-05-07T12:41:37Z</time>
      </trkpt>
      <trkpt lat="47.98944" lon="6.94181">
        <ele>1153</ele>
        <time>2023-05-07T12:41:45Z</time>
      </trkpt>
      <trkpt lat="47.98945" lon="6.94194">
        <ele>1153</ele>
        <time>2023-05-07T12:41:54Z</time>
      </trkpt>
      <trkpt lat="47.98945" lon="6.94201">
        <ele>1152</ele>
        <time>2023-05-07T12:41:58Z</time>
      </trkpt>
      <trkpt lat="47.98949" lon="6.94214">
        <ele>1152</ele>
        <time>2023-05-07T12:42:07Z</time>
      </trkpt>
      <trkpt lat="47.98954" lon="6.9423">
        <ele>1151</ele>
        <time>2023-05-07T12:42:18Z</time>
      </trkpt>
      <trkpt lat="47.98952" lon="6.94244">
        <ele>1150</ele>
        <time>2023-05-07T12:42:27Z</time>
      </trkpt>
      <trkpt lat="47.98956" lon="6.94275">
        <ele>1149</ele>
        <time>2023-05-07T12:42:47Z</time>
      </trkpt>
      <trkpt lat="47.98955" lon="6.94289">
        <ele>1148</ele>
        <time>2023-05-07T12:42:56Z</time>
      </trkpt>
      <trkpt lat="47.98953" lon="6.94302">
        <ele>1147</ele>
        <time>2023-05-07T12:43:04Z</time>
      </trkpt>
      <trkpt lat="47.98955" lon="6.94308">
        <ele>1147</ele>
        <time>2023-05-07T12:43:08Z</time>
      </trkpt>
      <trkpt lat="47.98955" lon="6.94322">
        <ele>1148</ele>
        <time>2023-05-07T12:43:17Z</time>
      </trkpt>
      <trkpt lat="47.98957" lon="6.9433">
        <ele>1148</ele>
        <time>2023-05-07T12:43:22Z</time>
      </trkpt>
      <trkpt lat="47.98959" lon="6.94341">
        <ele>1148</ele>
        <time>2023-05-07T12:43:31Z</time>
      </trkpt>
      <trkpt lat="47.98959" lon="6.94348">
        <ele>1148</ele>
        <time>2023-05-07T12:43:35Z</time>
      </trkpt>
      <trkpt lat="47.98961" lon="6.94355">
        <ele>1148</ele>
        <time>2023-05-07T12:43:39Z</time>
      </trkpt>
      <trkpt lat="47.98961" lon="6.94361">
        <ele>1149</ele>
        <time>2023-05-07T12:43:43Z</time>
      </trkpt>
      <trkpt lat="47.98961" lon="6.94376">
        <ele>1148</ele>
        <time>2023-05-07T12:43:51Z</time>
      </trkpt>
      <trkpt lat="47.98966" lon="6.94388">
        <ele>1148</ele>
        <time>2023-05-07T12:44:00Z</time>
      </trkpt>
      <trkpt lat="47.98966" lon="6.94395">
        <ele>1148</ele>
        <time>2023-05-07T12:44:04Z</time>
      </trkpt>
      <trkpt lat="47.98967" lon="6.94402">
        <ele>1148</ele>
        <time>2023-05-07T12:44:08Z</time>
      </trkpt>
      <trkpt lat="47.98965" lon="6.94408">
        <ele>1148</ele>
        <time>2023-05-07T12:44:12Z</time>
      </trkpt>
      <trkpt lat="47.98963" lon="6.94415">
        <ele>1147</ele>
        <time>2023-05-07T12:44:20Z</time>
      </trkpt>
      <trkpt lat="47.98965" lon="6.94422">
        <ele>1147</ele>
        <time>2023-05-07T12:44:26Z</time>
      </trkpt>
      <trkpt lat="47.98964" lon="6.9443">
        <ele>1146</ele>
        <time>2023-05-07T12:44:33Z</time>
      </trkpt>
      <trkpt lat="47.98962" lon="6.94439">
        <ele>1146</ele>
        <time>2023-05-07T12:44:40Z</time>
      </trkpt>
      <trkpt lat="47.98966" lon="6.94465">
        <ele>1143</ele>
        <time>2023-05-07T12:45:02Z</time>
      </trkpt>
      <trkpt lat="47.98975" lon="6.94501">
        <ele>1141</ele>
        <time>2023-05-07T12:45:30Z</time>
      </trkpt>
      <trkpt lat="47.98975" lon="6.94508">
        <ele>1140</ele>
        <time>2023-05-07T12:45:35Z</time>
      </trkpt>
      <trkpt lat="47.9898" lon="6.94528">
        <ele>1139</ele>
        <time>2023-05-07T12:45:51Z</time>
      </trkpt>
      <trkpt lat="47.98984" lon="6.94537">
        <ele>1139</ele>
        <time>2023-05-07T12:46:00Z</time>
      </trkpt>
      <trkpt lat="47.98987" lon="6.94543">
        <ele>1138</ele>
        <time>2023-05-07T12:46:06Z</time>
      </trkpt>
      <trkpt lat="47.99001" lon="6.94554">
        <ele>1138</ele>
        <time>2023-05-07T12:46:21Z</time>
      </trkpt>
      <trkpt lat="47.99007" lon="6.94567">
        <ele>1137</ele>
        <time>2023-05-07T12:46:31Z</time>
      </trkpt>
      <trkpt lat="47.99013" lon="6.94578">
        <ele>1136</ele>
        <time>2023-05-07T12:46:41Z</time>
      </trkpt>
      <trkpt lat="47.99017" lon="6.94583">
        <ele>1137</ele>
        <time>2023-05-07T12:46:46Z</time>
      </trkpt>
      <trkpt lat="47.99019" lon="6.94592">
        <ele>1136</ele>
        <time>2023-05-07T12:46:54Z</time>
      </trkpt>
      <trkpt lat="47.99015" lon="6.94598">
        <ele>1135</ele>
        <time>2023-05-07T12:46:59Z</time>
      </trkpt>
      <trkpt lat="47.99011" lon="6.94599">
        <ele>1135</ele>
        <time>2023-05-07T12:47:02Z</time>
      </trkpt>
      <trkpt lat="47.99006" lon="6.946">
        <ele>1134</ele>
        <time>2023-05-07T12:47:04Z</time>
      </trkpt>
      <trkpt lat="47.98996" lon="6.94595">
        <ele>1133</ele>
        <time>2023-05-07T12:47:15Z</time>
      </trkpt>
      <trkpt lat="47.98991" lon="6.94595">
        <ele>1133</ele>
        <time>2023-05-07T12:47:20Z</time>
      </trkpt>
      <trkpt lat="47.98988" lon="6.94599">
        <ele>1132</ele>
        <time>2023-05-07T12:47:25Z</time>
      </trkpt>
      <trkpt lat="47.98983" lon="6.94599">
        <ele>1131</ele>
        <time>2023-05-07T12:47:31Z</time>
      </trkpt>
      <trkpt lat="47.98979" lon="6.94596">
        <ele>1130</ele>
        <time>2023-05-07T12:47:39Z</time>
      </trkpt>
      <trkpt lat="47.98971" lon="6.94588">
        <ele>1129</ele>
        <time>2023-05-07T12:47:47Z</time>
      </trkpt>
      <trkpt lat="47.98944" lon="6.9457">
        <ele>1125</ele>
        <time>2023-05-07T12:48:18Z</time>
      </trkpt>
      <trkpt lat="47.98941" lon="6.94566">
        <ele>1124</ele>
        <time>2023-05-07T12:48:23Z</time>
      </trkpt>
      <trkpt lat="47.98938" lon="6.9456">
        <ele>1124</ele>
        <time>2023-05-07T12:48:28Z</time>
      </trkpt>
      <trkpt lat="47.98921" lon="6.94543">
        <ele>1121</ele>
        <time>2023-05-07T12:48:49Z</time>
      </trkpt>
      <trkpt lat="47.9892" lon="6.94547">
        <ele>1119</ele>
        <time>2023-05-07T12:49:08Z</time>
      </trkpt>
      <trkpt lat="47.98921" lon="6.94553">
        <ele>1118</ele>
        <time>2023-05-07T12:49:13Z</time>
      </trkpt>
      <trkpt lat="47.98923" lon="6.94559">
        <ele>1117</ele>
        <time>2023-05-07T12:49:16Z</time>
      </trkpt>
      <trkpt lat="47.98919" lon="6.94568">
        <ele>1116</ele>
        <time>2023-05-07T12:49:26Z</time>
      </trkpt>
      <trkpt lat="47.98916" lon="6.94564">
        <ele>1116</ele>
        <time>2023-05-07T12:49:29Z</time>
      </trkpt>
      <trkpt lat="47.98908" lon="6.94542">
        <ele>1115</ele>
        <time>2023-05-07T12:49:43Z</time>
      </trkpt>
      <trkpt lat="47.98905" lon="6.94536">
        <ele>1115</ele>
        <time>2023-05-07T12:49:47Z</time>
      </trkpt>
      <trkpt lat="47.98902" lon="6.9453">
        <ele>1114</ele>
        <time>2023-05-07T12:49:51Z</time>
      </trkpt>
      <trkpt lat="47.98893" lon="6.94516">
        <ele>1112</ele>
        <time>2023-05-07T12:50:06Z</time>
      </trkpt>
      <trkpt lat="47.98892" lon="6.9451">
        <ele>1111</ele>
        <time>2023-05-07T12:50:13Z</time>
      </trkpt>
      <trkpt lat="47.98889" lon="6.94504">
        <ele>1111</ele>
        <time>2023-05-07T12:50:19Z</time>
      </trkpt>
      <trkpt lat="47.98885" lon="6.94501">
        <ele>1111</ele>
        <time>2023-05-07T12:50:23Z</time>
      </trkpt>
      <trkpt lat="47.98882" lon="6.94497">
        <ele>1110</ele>
        <time>2023-05-07T12:50:29Z</time>
      </trkpt>
      <trkpt lat="47.98876" lon="6.94495">
        <ele>1108</ele>
        <time>2023-05-07T12:50:43Z</time>
      </trkpt>
      <trkpt lat="47.9887" lon="6.94502">
        <ele>1106</ele>
        <time>2023-05-07T12:50:54Z</time>
      </trkpt>
      <trkpt lat="47.98865" lon="6.94511">
        <ele>1104</ele>
        <time>2023-05-07T12:51:02Z</time>
      </trkpt>
      <trkpt lat="47.98861" lon="6.94514">
        <ele>1104</ele>
        <time>2023-05-07T12:51:06Z</time>
      </trkpt>
      <trkpt lat="47.98855" lon="6.94516">
        <ele>1101</ele>
        <time>2023-05-07T12:51:20Z</time>
      </trkpt>
      <trkpt lat="47.98852" lon="6.94513">
        <ele>1101</ele>
        <time>2023-05-07T12:51:24Z</time>
      </trkpt>
      <trkpt lat="47.98844" lon="6.94514">
        <ele>1100</ele>
        <time>2023-05-07T12:51:33Z</time>
      </trkpt>
      <trkpt lat="47.98822" lon="6.94519">
        <ele>1100</ele>
        <time>2023-05-07T12:52:48Z</time>
      </trkpt>
      <trkpt lat="47.98817" lon="6.94521">
        <ele>1100</ele>
        <time>2023-05-07T12:52:52Z</time>
      </trkpt>
      <trkpt lat="47.98808" lon="6.94522">
        <ele>1100</ele>
        <time>2023-05-07T12:53:00Z</time>
      </trkpt>
      <trkpt lat="47.9879" lon="6.94532">
        <ele>1100</ele>
        <time>2023-05-07T12:53:17Z</time>
      </trkpt>
      <trkpt lat="47.98779" lon="6.94535">
        <ele>1102</ele>
        <time>2023-05-07T12:53:32Z</time>
      </trkpt>
      <trkpt lat="47.9877" lon="6.94534">
        <ele>1103</ele>
        <time>2023-05-07T12:53:41Z</time>
      </trkpt>
      <trkpt lat="47.98766" lon="6.9453">
        <ele>1103</ele>
        <time>2023-05-07T12:53:45Z</time>
      </trkpt>
      <trkpt lat="47.98761" lon="6.94529">
        <ele>1104</ele>
        <time>2023-05-07T12:53:49Z</time>
      </trkpt>
      <trkpt lat="47.98756" lon="6.9453">
        <ele>1104</ele>
        <time>2023-05-07T12:53:54Z</time>
      </trkpt>
      <trkpt lat="47.98742" lon="6.94525">
        <ele>1105</ele>
        <time>2023-05-07T12:54:10Z</time>
      </trkpt>
      <trkpt lat="47.98736" lon="6.94525">
        <ele>1106</ele>
        <time>2023-05-07T12:54:18Z</time>
      </trkpt>
      <trkpt lat="47.98726" lon="6.94518">
        <ele>1106</ele>
        <time>2023-05-07T12:54:30Z</time>
      </trkpt>
      <trkpt lat="47.98721" lon="6.94513">
        <ele>1106</ele>
        <time>2023-05-07T12:54:38Z</time>
      </trkpt>
      <trkpt lat="47.98706" lon="6.94495">
        <ele>1105</ele>
        <time>2023-05-07T12:54:59Z</time>
      </trkpt>
      <trkpt lat="47.98697" lon="6.94483">
        <ele>1104</ele>
        <time>2023-05-07T12:55:10Z</time>
      </trkpt>
      <trkpt lat="47.98681" lon="6.94468">
        <ele>1103</ele>
        <time>2023-05-07T12:55:27Z</time>
      </trkpt>
      <trkpt lat="47.98671" lon="6.94463">
        <ele>1103</ele>
        <time>2023-05-07T12:55:40Z</time>
      </trkpt>
      <trkpt lat="47.9865" lon="6.94449">
        <ele>1101</ele>
        <time>2023-05-07T12:56:04Z</time>
      </trkpt>
      <trkpt lat="47.98646" lon="6.94444">
        <ele>1101</ele>
        <time>2023-05-07T12:56:09Z</time>
      </trkpt>
      <trkpt lat="47.98639" lon="6.94426">
        <ele>1099</ele>
        <time>2023-05-07T12:56:26Z</time>
      </trkpt>
      <trkpt lat="47.98635" lon="6.9442">
        <ele>1099</ele>
        <time>2023-05-07T12:56:33Z</time>
      </trkpt>
      <trkpt lat="47.98616" lon="6.94404">
        <ele>1097</ele>
        <time>2023-05-07T12:56:57Z</time>
      </trkpt>
      <trkpt lat="47.9861" lon="6.94394">
        <ele>1096</ele>
        <time>2023-05-07T12:57:08Z</time>
      </trkpt>
      <trkpt lat="47.98594" lon="6.94381">
        <ele>1095</ele>
        <time>2023-05-07T12:57:24Z</time>
      </trkpt>
      <trkpt lat="47.98588" lon="6.94364">
        <ele>1094</ele>
        <time>2023-05-07T12:57:35Z</time>
      </trkpt>
      <trkpt lat="47.98574" lon="6.94336">
        <ele>1093</ele>
        <time>2023-05-07T12:57:58Z</time>
      </trkpt>
      <trkpt lat="47.98565" lon="6.94325">
        <ele>1094</ele>
        <time>2023-05-07T12:58:10Z</time>
      </trkpt>
      <trkpt lat="47.98554" lon="6.9431">
        <ele>1093</ele>
        <time>2023-05-07T12:58:24Z</time>
      </trkpt>
      <trkpt lat="47.98549" lon="6.94306">
        <ele>1093</ele>
        <time>2023-05-07T12:58:29Z</time>
      </trkpt>
      <trkpt lat="47.98543" lon="6.94303">
        <ele>1094</ele>
        <time>2023-05-07T12:58:35Z</time>
      </trkpt>
      <trkpt lat="47.98539" lon="6.94299">
        <ele>1094</ele>
        <time>2023-05-07T12:58:41Z</time>
      </trkpt>
      <trkpt lat="47.98529" lon="6.94293">
        <ele>1093</ele>
        <time>2023-05-07T12:58:51Z</time>
      </trkpt>
      <trkpt lat="47.9852" lon="6.94284">
        <ele>1093</ele>
        <time>2023-05-07T12:59:01Z</time>
      </trkpt>
      <trkpt lat="47.98512" lon="6.94274">
        <ele>1094</ele>
        <time>2023-05-07T12:59:14Z</time>
      </trkpt>
      <trkpt lat="47.98501" lon="6.94252">
        <ele>1094</ele>
        <time>2023-05-07T12:59:34Z</time>
      </trkpt>
      <trkpt lat="47.98498" lon="6.94244">
        <ele>1094</ele>
        <time>2023-05-07T12:59:41Z</time>
      </trkpt>
      <trkpt lat="47.98481" lon="6.94208">
        <ele>1094</ele>
        <time>2023-05-07T13:00:08Z</time>
      </trkpt>
      <trkpt lat="47.98475" lon="6.94199">
        <ele>1094</ele>
        <time>2023-05-07T13:00:18Z</time>
      </trkpt>
      <trkpt lat="47.98467" lon="6.94194">
        <ele>1093</ele>
        <time>2023-05-07T13:00:26Z</time>
      </trkpt>
      <trkpt lat="47.98458" lon="6.94192">
        <ele>1093</ele>
        <time>2023-05-07T13:00:33Z</time>
      </trkpt>
      <trkpt lat="47.98451" lon="6.94191">
        <ele>1093</ele>
        <time>2023-05-07T13:00:40Z</time>
      </trkpt>
      <trkpt lat="47.98413" lon="6.9417">
        <ele>1094</ele>
        <time>2023-05-07T13:01:18Z</time>
      </trkpt>
      <trkpt lat="47.98408" lon="6.9417">
        <ele>1095</ele>
        <time>2023-05-07T13:01:23Z</time>
      </trkpt>
      <trkpt lat="47.98393" lon="6.94163">
        <ele>1095</ele>
        <time>2023-05-07T13:01:38Z</time>
      </trkpt>
      <trkpt lat="47.98384" lon="6.94161">
        <ele>1095</ele>
        <time>2023-05-07T13:01:47Z</time>
      </trkpt>
      <trkpt lat="47.9837" lon="6.94155">
        <ele>1094</ele>
        <time>2023-05-07T13:01:59Z</time>
      </trkpt>
      <trkpt lat="47.98366" lon="6.94151">
        <ele>1094</ele>
        <time>2023-05-07T13:02:04Z</time>
      </trkpt>
      <trkpt lat="47.98362" lon="6.94149">
        <ele>1094</ele>
        <time>2023-05-07T13:02:09Z</time>
      </trkpt>
      <trkpt lat="47.98357" lon="6.94149">
        <ele>1094</ele>
        <time>2023-05-07T13:02:14Z</time>
      </trkpt>
      <trkpt lat="47.98352" lon="6.94147">
        <ele>1094</ele>
        <time>2023-05-07T13:02:21Z</time>
      </trkpt>
      <trkpt lat="47.98335" lon="6.94146">
        <ele>1092</ele>
        <time>2023-05-07T13:02:37Z</time>
      </trkpt>
      <trkpt lat="47.98329" lon="6.94142">
        <ele>1092</ele>
        <time>2023-05-07T13:02:45Z</time>
      </trkpt>
      <trkpt lat="47.9832" lon="6.94141">
        <ele>1091</ele>
        <time>2023-05-07T13:02:54Z</time>
      </trkpt>
      <trkpt lat="47.98315" lon="6.94142">
        <ele>1091</ele>
        <time>2023-05-07T13:02:58Z</time>
      </trkpt>
      <trkpt lat="47.98292" lon="6.94134">
        <ele>1090</ele>
        <time>2023-05-07T13:03:21Z</time>
      </trkpt>
      <trkpt lat="47.98287" lon="6.94134">
        <ele>1090</ele>
        <time>2023-05-07T13:03:26Z</time>
      </trkpt>
      <trkpt lat="47.98277" lon="6.94133">
        <ele>1090</ele>
        <time>2023-05-07T13:03:37Z</time>
      </trkpt>
      <trkpt lat="47.98264" lon="6.94132">
        <ele>1090</ele>
        <time>2023-05-07T13:03:49Z</time>
      </trkpt>
      <trkpt lat="47.98229" lon="6.94116">
        <ele>1088</ele>
        <time>2023-05-07T13:04:21Z</time>
      </trkpt>
      <trkpt lat="47.98219" lon="6.94106">
        <ele>1087</ele>
        <time>2023-05-07T13:04:33Z</time>
      </trkpt>
      <trkpt lat="47.98197" lon="6.94081">
        <ele>1084</ele>
        <time>2023-05-07T13:05:16Z</time>
      </trkpt>
      <trkpt lat="47.9819" lon="6.94066">
        <ele>1083</ele>
        <time>2023-05-07T13:05:45Z</time>
      </trkpt>
      <trkpt lat="47.98185" lon="6.94066">
        <ele>1081</ele>
        <time>2023-05-07T13:05:59Z</time>
      </trkpt>
      <trkpt lat="47.98182" lon="6.94061">
        <ele>1081</ele>
        <time>2023-05-07T13:06:05Z</time>
      </trkpt>
      <trkpt lat="47.98174" lon="6.94052">
        <ele>1079</ele>
        <time>2023-05-07T13:06:16Z</time>
      </trkpt>
      <trkpt lat="47.98168" lon="6.94049">
        <ele>1078</ele>
        <time>2023-05-07T13:06:23Z</time>
      </trkpt>
      <trkpt lat="47.98164" lon="6.94043">
        <ele>1077</ele>
        <time>2023-05-07T13:06:30Z</time>
      </trkpt>
      <trkpt lat="47.98155" lon="6.94035">
        <ele>1076</ele>
        <time>2023-05-07T13:06:39Z</time>
      </trkpt>
      <trkpt lat="47.98151" lon="6.94033">
        <ele>1075</ele>
        <time>2023-05-07T13:06:43Z</time>
      </trkpt>
      <trkpt lat="47.98146" lon="6.94032">
        <ele>1075</ele>
        <time>2023-05-07T13:06:47Z</time>
      </trkpt>
      <trkpt lat="47.98142" lon="6.94027">
        <ele>1074</ele>
        <time>2023-05-07T13:06:51Z</time>
      </trkpt>
      <trkpt lat="47.98131" lon="6.94023">
        <ele>1072</ele>
        <time>2023-05-07T13:07:01Z</time>
      </trkpt>
      <trkpt lat="47.98116" lon="6.94011">
        <ele>1069</ele>
        <time>2023-05-07T13:07:19Z</time>
      </trkpt>
      <trkpt lat="47.98082" lon="6.94004">
        <ele>1065</ele>
        <time>2023-05-07T13:07:54Z</time>
      </trkpt>
      <trkpt lat="47.98077" lon="6.94005">
        <ele>1064</ele>
        <time>2023-05-07T13:07:59Z</time>
      </trkpt>
      <trkpt lat="47.98066" lon="6.9401">
        <ele>1063</ele>
        <time>2023-05-07T13:08:10Z</time>
      </trkpt>
      <trkpt lat="47.98063" lon="6.94014">
        <ele>1062</ele>
        <time>2023-05-07T13:08:14Z</time>
      </trkpt>
      <trkpt lat="47.98048" lon="6.94031">
        <ele>1063</ele>
        <time>2023-05-07T13:08:30Z</time>
      </trkpt>
      <trkpt lat="47.98046" lon="6.94037">
        <ele>1063</ele>
        <time>2023-05-07T13:08:34Z</time>
      </trkpt>
      <trkpt lat="47.9804" lon="6.94045">
        <ele>1064</ele>
        <time>2023-05-07T13:08:44Z</time>
      </trkpt>
      <trkpt lat="47.98028" lon="6.94056">
        <ele>1065</ele>
        <time>2023-05-07T13:08:57Z</time>
      </trkpt>
      <trkpt lat="47.98024" lon="6.94057">
        <ele>1065</ele>
        <time>2023-05-07T13:09:01Z</time>
      </trkpt>
      <trkpt lat="47.98019" lon="6.94059">
        <ele>1065</ele>
        <time>2023-05-07T13:09:05Z</time>
      </trkpt>
      <trkpt lat="47.98009" lon="6.94059">
        <ele>1064</ele>
        <time>2023-05-07T13:09:15Z</time>
      </trkpt>
      <trkpt lat="47.98" lon="6.94061">
        <ele>1063</ele>
        <time>2023-05-07T13:09:23Z</time>
      </trkpt>
      <trkpt lat="47.97995" lon="6.94058">
        <ele>1063</ele>
        <time>2023-05-07T13:09:28Z</time>
      </trkpt>
      <trkpt lat="47.97992" lon="6.94055">
        <ele>1063</ele>
        <time>2023-05-07T13:09:31Z</time>
      </trkpt>
      <trkpt lat="47.97987" lon="6.94047">
        <ele>1062</ele>
        <time>2023-05-07T13:09:39Z</time>
      </trkpt>
      <trkpt lat="47.97976" lon="6.94017">
        <ele>1059</ele>
        <time>2023-05-07T13:10:04Z</time>
      </trkpt>
      <trkpt lat="47.97974" lon="6.94006">
        <ele>1059</ele>
        <time>2023-05-07T13:10:12Z</time>
      </trkpt>
      <trkpt lat="47.9797" lon="6.93999">
        <ele>1059</ele>
        <time>2023-05-07T13:10:21Z</time>
      </trkpt>
      <trkpt lat="47.97968" lon="6.93993">
        <ele>1060</ele>
        <time>2023-05-07T13:10:26Z</time>
      </trkpt>
      <trkpt lat="47.97963" lon="6.93948">
        <ele>1059</ele>
        <time>2023-05-07T13:10:56Z</time>
      </trkpt>
      <trkpt lat="47.97963" lon="6.93941">
        <ele>1058</ele>
        <time>2023-05-07T13:11:01Z</time>
      </trkpt>
      <trkpt lat="47.97958" lon="6.9392">
        <ele>1058</ele>
        <time>2023-05-07T13:11:13Z</time>
      </trkpt>
      <trkpt lat="47.97957" lon="6.93914">
        <ele>1057</ele>
        <time>2023-05-07T13:11:17Z</time>
      </trkpt>
      <trkpt lat="47.97954" lon="6.93908">
        <ele>1057</ele>
        <time>2023-05-07T13:11:21Z</time>
      </trkpt>
      <trkpt lat="47.97949" lon="6.93882">
        <ele>1057</ele>
        <time>2023-05-07T13:11:37Z</time>
      </trkpt>
      <trkpt lat="47.97949" lon="6.93876">
        <ele>1057</ele>
        <time>2023-05-07T13:11:41Z</time>
      </trkpt>
      <trkpt lat="47.97949" lon="6.93868">
        <ele>1056</ele>
        <time>2023-05-07T13:11:45Z</time>
      </trkpt>
      <trkpt lat="47.97951" lon="6.93861">
        <ele>1056</ele>
        <time>2023-05-07T13:11:49Z</time>
      </trkpt>
      <trkpt lat="47.97951" lon="6.93844">
        <ele>1054</ele>
        <time>2023-05-07T13:11:59Z</time>
      </trkpt>
      <trkpt lat="47.97946" lon="6.93812">
        <ele>1051</ele>
        <time>2023-05-07T13:12:18Z</time>
      </trkpt>
      <trkpt lat="47.97949" lon="6.93804">
        <ele>1051</ele>
        <time>2023-05-07T13:12:25Z</time>
      </trkpt>
      <trkpt lat="47.9795" lon="6.93795">
        <ele>1050</ele>
        <time>2023-05-07T13:12:31Z</time>
      </trkpt>
      <trkpt lat="47.97948" lon="6.93763">
        <ele>1048</ele>
        <time>2023-05-07T13:12:54Z</time>
      </trkpt>
      <trkpt lat="47.97958" lon="6.93712">
        <ele>1044</ele>
        <time>2023-05-07T13:13:27Z</time>
      </trkpt>
      <trkpt lat="47.97962" lon="6.93699">
        <ele>1042</ele>
        <time>2023-05-07T13:13:37Z</time>
      </trkpt>
      <trkpt lat="47.97965" lon="6.93677">
        <ele>1041</ele>
        <time>2023-05-07T13:14:11Z</time>
      </trkpt>
      <trkpt lat="47.97963" lon="6.93649">
        <ele>1041</ele>
        <time>2023-05-07T13:14:28Z</time>
      </trkpt>
      <trkpt lat="47.97951" lon="6.93613">
        <ele>1040</ele>
        <time>2023-05-07T13:14:53Z</time>
      </trkpt>
      <trkpt lat="47.97946" lon="6.93607">
        <ele>1040</ele>
        <time>2023-05-07T13:14:58Z</time>
      </trkpt>
      <trkpt lat="47.97935" lon="6.93568">
        <ele>1037</ele>
        <time>2023-05-07T13:15:30Z</time>
      </trkpt>
      <trkpt lat="47.97931" lon="6.93549">
        <ele>1035</ele>
        <time>2023-05-07T13:15:42Z</time>
      </trkpt>
      <trkpt lat="47.97929" lon="6.9352">
        <ele>1033</ele>
        <time>2023-05-07T13:16:00Z</time>
      </trkpt>
      <trkpt lat="47.97927" lon="6.93508">
        <ele>1033</ele>
        <time>2023-05-07T13:16:09Z</time>
      </trkpt>
      <trkpt lat="47.97921" lon="6.93489">
        <ele>1031</ele>
        <time>2023-05-07T13:16:26Z</time>
      </trkpt>
      <trkpt lat="47.9792" lon="6.93483">
        <ele>1030</ele>
        <time>2023-05-07T13:16:31Z</time>
      </trkpt>
      <trkpt lat="47.9791" lon="6.93462">
        <ele>1027</ele>
        <time>2023-05-07T13:16:48Z</time>
      </trkpt>
      <trkpt lat="47.97907" lon="6.93454">
        <ele>1026</ele>
        <time>2023-05-07T13:16:57Z</time>
      </trkpt>
      <trkpt lat="47.97903" lon="6.93446">
        <ele>1025</ele>
        <time>2023-05-07T13:17:04Z</time>
      </trkpt>
      <trkpt lat="47.97897" lon="6.93432">
        <ele>1023</ele>
        <time>2023-05-07T13:17:17Z</time>
      </trkpt>
      <trkpt lat="47.97893" lon="6.93425">
        <ele>1022</ele>
        <time>2023-05-07T13:17:23Z</time>
      </trkpt>
      <trkpt lat="47.97889" lon="6.93423">
        <ele>1021</ele>
        <time>2023-05-07T13:17:27Z</time>
      </trkpt>
      <trkpt lat="47.97873" lon="6.93411">
        <ele>1019</ele>
        <time>2023-05-07T13:17:46Z</time>
      </trkpt>
      <trkpt lat="47.97867" lon="6.93409">
        <ele>1019</ele>
        <time>2023-05-07T13:17:56Z</time>
      </trkpt>
      <trkpt lat="47.97862" lon="6.93408">
        <ele>1019</ele>
        <time>2023-05-07T13:18:00Z</time>
      </trkpt>
      <trkpt lat="47.97852" lon="6.93406">
        <ele>1019</ele>
        <time>2023-05-07T13:18:10Z</time>
      </trkpt>
      <trkpt lat="47.97819" lon="6.9341">
        <ele>1018</ele>
        <time>2023-05-07T13:18:40Z</time>
      </trkpt>
      <trkpt lat="47.97801" lon="6.93413">
        <ele>1018</ele>
        <time>2023-05-07T13:18:56Z</time>
      </trkpt>
      <trkpt lat="47.97776" lon="6.93419">
        <ele>1017</ele>
        <time>2023-05-07T13:19:23Z</time>
      </trkpt>
      <trkpt lat="47.97755" lon="6.93434">
        <ele>1017</ele>
        <time>2023-05-07T13:19:49Z</time>
      </trkpt>
      <trkpt lat="47.97727" lon="6.93464">
        <ele>1016</ele>
        <time>2023-05-07T13:20:20Z</time>
      </trkpt>
      <trkpt lat="47.97719" lon="6.93471">
        <ele>1016</ele>
        <time>2023-05-07T13:20:28Z</time>
      </trkpt>
      <trkpt lat="47.97708" lon="6.93483">
        <ele>1016</ele>
        <time>2023-05-07T13:20:41Z</time>
      </trkpt>
      <trkpt lat="47.97703" lon="6.93487">
        <ele>1016</ele>
        <time>2023-05-07T13:20:45Z</time>
      </trkpt>
      <trkpt lat="47.97691" lon="6.93498">
        <ele>1016</ele>
        <time>2023-05-07T13:20:57Z</time>
      </trkpt>
      <trkpt lat="47.97667" lon="6.93511">
        <ele>1016</ele>
        <time>2023-05-07T13:21:20Z</time>
      </trkpt>
      <trkpt lat="47.97657" lon="6.93512">
        <ele>1016</ele>
        <time>2023-05-07T13:21:28Z</time>
      </trkpt>
      <trkpt lat="47.97653" lon="6.93514">
        <ele>1016</ele>
        <time>2023-05-07T13:21:32Z</time>
      </trkpt>
      <trkpt lat="47.97649" lon="6.93518">
        <ele>1016</ele>
        <time>2023-05-07T13:21:36Z</time>
      </trkpt>
      <trkpt lat="47.97619" lon="6.93534">
        <ele>1017</ele>
        <time>2023-05-07T13:22:09Z</time>
      </trkpt>
      <trkpt lat="47.97592" lon="6.93559">
        <ele>1018</ele>
        <time>2023-05-07T13:22:36Z</time>
      </trkpt>
      <trkpt lat="47.97562" lon="6.93566">
        <ele>1019</ele>
        <time>2023-05-07T13:23:02Z</time>
      </trkpt>
      <trkpt lat="47.97558" lon="6.93562">
        <ele>1020</ele>
        <time>2023-05-07T13:23:06Z</time>
      </trkpt>
      <trkpt lat="47.97554" lon="6.93556">
        <ele>1020</ele>
        <time>2023-05-07T13:23:10Z</time>
      </trkpt>
      <trkpt lat="47.97548" lon="6.93544">
        <ele>1020</ele>
        <time>2023-05-07T13:23:18Z</time>
      </trkpt>
      <trkpt lat="47.97536" lon="6.93495">
        <ele>1021</ele>
        <time>2023-05-07T13:23:50Z</time>
      </trkpt>
      <trkpt lat="47.9753" lon="6.93485">
        <ele>1021</ele>
        <time>2023-05-07T13:23:59Z</time>
      </trkpt>
      <trkpt lat="47.9751" lon="6.93465">
        <ele>1020</ele>
        <time>2023-05-07T13:24:21Z</time>
      </trkpt>
      <trkpt lat="47.97487" lon="6.93429">
        <ele>1020</ele>
        <time>2023-05-07T13:24:48Z</time>
      </trkpt>
      <trkpt lat="47.97478" lon="6.93422">
        <ele>1020</ele>
        <time>2023-05-07T13:24:56Z</time>
      </trkpt>
      <trkpt lat="47.9747" lon="6.93406">
        <ele>1020</ele>
        <time>2023-05-07T13:25:08Z</time>
      </trkpt>
      <trkpt lat="47.9746" lon="6.93374">
        <ele>1020</ele>
        <time>2023-05-07T13:25:29Z</time>
      </trkpt>
      <trkpt lat="47.97439" lon="6.93329">
        <ele>1021</ele>
        <time>2023-05-07T13:26:03Z</time>
      </trkpt>
      <trkpt lat="47.97429" lon="6.93315">
        <ele>1021</ele>
        <time>2023-05-07T13:26:15Z</time>
      </trkpt>
      <trkpt lat="47.97417" lon="6.93304">
        <ele>1021</ele>
        <time>2023-05-07T13:26:28Z</time>
      </trkpt>
      <trkpt lat="47.97408" lon="6.93301">
        <ele>1021</ele>
        <time>2023-05-07T13:26:36Z</time>
      </trkpt>
      <trkpt lat="47.97399" lon="6.93298">
        <ele>1022</ele>
        <time>2023-05-07T13:26:44Z</time>
      </trkpt>
      <trkpt lat="47.97386" lon="6.93289">
        <ele>1022</ele>
        <time>2023-05-07T13:26:55Z</time>
      </trkpt>
      <trkpt lat="47.9738" lon="6.93279">
        <ele>1022</ele>
        <time>2023-05-07T13:27:03Z</time>
      </trkpt>
      <trkpt lat="47.97364" lon="6.93242">
        <ele>1022</ele>
        <time>2023-05-07T13:27:28Z</time>
      </trkpt>
      <trkpt lat="47.97351" lon="6.93221">
        <ele>1022</ele>
        <time>2023-05-07T13:27:45Z</time>
      </trkpt>
      <trkpt lat="47.97345" lon="6.93215">
        <ele>1022</ele>
        <time>2023-05-07T13:27:51Z</time>
      </trkpt>
      <trkpt lat="47.97335" lon="6.93201">
        <ele>1021</ele>
        <time>2023-05-07T13:28:03Z</time>
      </trkpt>
      <trkpt lat="47.97329" lon="6.93198">
        <ele>1021</ele>
        <time>2023-05-07T13:28:09Z</time>
      </trkpt>
      <trkpt lat="47.97325" lon="6.932">
        <ele>1021</ele>
        <time>2023-05-07T13:28:13Z</time>
      </trkpt>
      <trkpt lat="47.97322" lon="6.93203">
        <ele>1021</ele>
        <time>2023-05-07T13:28:16Z</time>
      </trkpt>
      <trkpt lat="47.973" lon="6.9324">
        <ele>1020</ele>
        <time>2023-05-07T13:28:46Z</time>
      </trkpt>
      <trkpt lat="47.97293" lon="6.93243">
        <ele>1019</ele>
        <time>2023-05-07T13:28:53Z</time>
      </trkpt>
      <trkpt lat="47.97289" lon="6.9324">
        <ele>1018</ele>
        <time>2023-05-07T13:28:58Z</time>
      </trkpt>
      <trkpt lat="47.97285" lon="6.93242">
        <ele>1017</ele>
        <time>2023-05-07T13:29:06Z</time>
      </trkpt>
      <trkpt lat="47.97271" lon="6.93232">
        <ele>1016</ele>
        <time>2023-05-07T13:29:21Z</time>
      </trkpt>
      <trkpt lat="47.97266" lon="6.93234">
        <ele>1016</ele>
        <time>2023-05-07T13:29:25Z</time>
      </trkpt>
      <trkpt lat="47.97256" lon="6.93229">
        <ele>1016</ele>
        <time>2023-05-07T13:29:33Z</time>
      </trkpt>
      <trkpt lat="47.97251" lon="6.93229">
        <ele>1016</ele>
        <time>2023-05-07T13:29:37Z</time>
      </trkpt>
      <trkpt lat="47.97247" lon="6.93231">
        <ele>1015</ele>
        <time>2023-05-07T13:29:41Z</time>
      </trkpt>
      <trkpt lat="47.97239" lon="6.93239">
        <ele>1014</ele>
        <time>2023-05-07T13:29:49Z</time>
      </trkpt>
      <trkpt lat="47.97235" lon="6.93244">
        <ele>1014</ele>
        <time>2023-05-07T13:29:55Z</time>
      </trkpt>
      <trkpt lat="47.9723" lon="6.93247">
        <ele>1014</ele>
        <time>2023-05-07T13:30:00Z</time>
      </trkpt>
      <trkpt lat="47.97225" lon="6.93246">
        <ele>1014</ele>
        <time>2023-05-07T13:30:05Z</time>
      </trkpt>
      <trkpt lat="47.97217" lon="6.93246">
        <ele>1013</ele>
        <time>2023-05-07T13:30:12Z</time>
      </trkpt>
      <trkpt lat="47.97213" lon="6.93248">
        <ele>1013</ele>
        <time>2023-05-07T13:30:17Z</time>
      </trkpt>
      <trkpt lat="47.97209" lon="6.93247">
        <ele>1013</ele>
        <time>2023-05-07T13:30:22Z</time>
      </trkpt>
      <trkpt lat="47.97203" lon="6.93246">
        <ele>1014</ele>
        <time>2023-05-07T13:30:28Z</time>
      </trkpt>
      <trkpt lat="47.97198" lon="6.93246">
        <ele>1014</ele>
        <time>2023-05-07T13:30:32Z</time>
      </trkpt>
      <trkpt lat="47.97194" lon="6.93243">
        <ele>1014</ele>
        <time>2023-05-07T13:30:36Z</time>
      </trkpt>
      <trkpt lat="47.97183" lon="6.93239">
        <ele>1016</ele>
        <time>2023-05-07T13:30:49Z</time>
      </trkpt>
      <trkpt lat="47.97178" lon="6.93242">
        <ele>1016</ele>
        <time>2023-05-07T13:30:53Z</time>
      </trkpt>
      <trkpt lat="47.97175" lon="6.93246">
        <ele>1017</ele>
        <time>2023-05-07T13:30:57Z</time>
      </trkpt>
      <trkpt lat="47.9717" lon="6.93249">
        <ele>1018</ele>
        <time>2023-05-07T13:31:04Z</time>
      </trkpt>
      <trkpt lat="47.97166" lon="6.93255">
        <ele>1019</ele>
        <time>2023-05-07T13:31:10Z</time>
      </trkpt>
      <trkpt lat="47.97164" lon="6.93265">
        <ele>1020</ele>
        <time>2023-05-07T13:31:20Z</time>
      </trkpt>
      <trkpt lat="47.97162" lon="6.93273">
        <ele>1020</ele>
        <time>2023-05-07T13:31:25Z</time>
      </trkpt>
      <trkpt lat="47.97163" lon="6.93301">
        <ele>1020</ele>
        <time>2023-05-07T13:31:42Z</time>
      </trkpt>
      <trkpt lat="47.97161" lon="6.93313">
        <ele>1020</ele>
        <time>2023-05-07T13:31:50Z</time>
      </trkpt>
      <trkpt lat="47.97163" lon="6.93346">
        <ele>1022</ele>
        <time>2023-05-07T13:32:13Z</time>
      </trkpt>
      <trkpt lat="47.97161" lon="6.93353">
        <ele>1023</ele>
        <time>2023-05-07T13:32:19Z</time>
      </trkpt>
      <trkpt lat="47.9716" lon="6.9336">
        <ele>1023</ele>
        <time>2023-05-07T13:32:24Z</time>
      </trkpt>
      <trkpt lat="47.97158" lon="6.9337">
        <ele>1024</ele>
        <time>2023-05-07T13:32:32Z</time>
      </trkpt>
      <trkpt lat="47.97156" lon="6.93376">
        <ele>1024</ele>
        <time>2023-05-07T13:32:36Z</time>
      </trkpt>
      <trkpt lat="47.97151" lon="6.93377">
        <ele>1024</ele>
        <time>2023-05-07T13:32:41Z</time>
      </trkpt>
      <trkpt lat="47.9715" lon="6.93369">
        <ele>1024</ele>
        <time>2023-05-07T13:32:48Z</time>
      </trkpt>
      <trkpt lat="47.97149" lon="6.93361">
        <ele>1026</ele>
        <time>2023-05-07T13:32:57Z</time>
      </trkpt>
      <trkpt lat="47.97143" lon="6.93354">
        <ele>1026</ele>
        <time>2023-05-07T13:33:07Z</time>
      </trkpt>
      <trkpt lat="47.97141" lon="6.93324">
        <ele>1028</ele>
        <time>2023-05-07T13:33:32Z</time>
      </trkpt>
      <trkpt lat="47.97142" lon="6.93317">
        <ele>1029</ele>
        <time>2023-05-07T13:33:36Z</time>
      </trkpt>
      <trkpt lat="47.97137" lon="6.93293">
        <ele>1030</ele>
        <time>2023-05-07T13:33:53Z</time>
      </trkpt>
      <trkpt lat="47.97134" lon="6.93288">
        <ele>1031</ele>
        <time>2023-05-07T13:33:58Z</time>
      </trkpt>
      <trkpt lat="47.97134" lon="6.9328">
        <ele>1032</ele>
        <time>2023-05-07T13:34:03Z</time>
      </trkpt>
      <trkpt lat="47.97134" lon="6.93271">
        <ele>1033</ele>
        <time>2023-05-07T13:34:11Z</time>
      </trkpt>
      <trkpt lat="47.9713" lon="6.93266">
        <ele>1033</ele>
        <time>2023-05-07T13:34:15Z</time>
      </trkpt>
      <trkpt lat="47.9713" lon="6.93259">
        <ele>1033</ele>
        <time>2023-05-07T13:34:18Z</time>
      </trkpt>
      <trkpt lat="47.97129" lon="6.93253">
        <ele>1034</ele>
        <time>2023-05-07T13:34:24Z</time>
      </trkpt>
      <trkpt lat="47.97129" lon="6.93246">
        <ele>1034</ele>
        <time>2023-05-07T13:34:29Z</time>
      </trkpt>
      <trkpt lat="47.97119" lon="6.93211">
        <ele>1038</ele>
        <time>2023-05-07T13:34:58Z</time>
      </trkpt>
      <trkpt lat="47.97115" lon="6.93205">
        <ele>1039</ele>
        <time>2023-05-07T13:35:03Z</time>
      </trkpt>
      <trkpt lat="47.97112" lon="6.93195">
        <ele>1041</ele>
        <time>2023-05-07T13:35:18Z</time>
      </trkpt>
      <trkpt lat="47.97106" lon="6.93194">
        <ele>1042</ele>
        <time>2023-05-07T13:35:22Z</time>
      </trkpt>
      <trkpt lat="47.97103" lon="6.93185">
        <ele>1044</ele>
        <time>2023-05-07T13:35:31Z</time>
      </trkpt>
      <trkpt lat="47.97101" lon="6.93177">
        <ele>1044</ele>
        <time>2023-05-07T13:35:37Z</time>
      </trkpt>
      <trkpt lat="47.97097" lon="6.93175">
        <ele>1046</ele>
        <time>2023-05-07T13:36:15Z</time>
      </trkpt>
      <trkpt lat="47.97094" lon="6.9317">
        <ele>1046</ele>
        <time>2023-05-07T13:36:27Z</time>
      </trkpt>
      <trkpt lat="47.97092" lon="6.93164">
        <ele>1049</ele>
        <time>2023-05-07T13:36:39Z</time>
      </trkpt>
      <trkpt lat="47.97088" lon="6.93161">
        <ele>1051</ele>
        <time>2023-05-07T13:36:51Z</time>
      </trkpt>
      <trkpt lat="47.97082" lon="6.9316">
        <ele>1052</ele>
        <time>2023-05-07T13:36:57Z</time>
      </trkpt>
      <trkpt lat="47.97079" lon="6.93163">
        <ele>1053</ele>
        <time>2023-05-07T13:37:06Z</time>
      </trkpt>
      <trkpt lat="47.97075" lon="6.93167">
        <ele>1053</ele>
        <time>2023-05-07T13:37:13Z</time>
      </trkpt>
      <trkpt lat="47.9707" lon="6.93165">
        <ele>1053</ele>
        <time>2023-05-07T13:37:17Z</time>
      </trkpt>
      <trkpt lat="47.97066" lon="6.93161">
        <ele>1053</ele>
        <time>2023-05-07T13:37:20Z</time>
      </trkpt>
      <trkpt lat="47.97052" lon="6.93161">
        <ele>1054</ele>
        <time>2023-05-07T13:37:40Z</time>
      </trkpt>
      <trkpt lat="47.97032" lon="6.93169">
        <ele>1057</ele>
        <time>2023-05-07T13:38:01Z</time>
      </trkpt>
      <trkpt lat="47.97027" lon="6.93169">
        <ele>1057</ele>
        <time>2023-05-07T13:38:06Z</time>
      </trkpt>
      <trkpt lat="47.97018" lon="6.93167">
        <ele>1057</ele>
        <time>2023-05-07T13:38:15Z</time>
      </trkpt>
      <trkpt lat="47.97005" lon="6.93165">
        <ele>1058</ele>
        <time>2023-05-07T13:38:29Z</time>
      </trkpt>
      <trkpt lat="47.96995" lon="6.93163">
        <ele>1060</ele>
        <time>2023-05-07T13:38:41Z</time>
      </trkpt>
      <trkpt lat="47.96987" lon="6.93167">
        <ele>1062</ele>
        <time>2023-05-07T13:38:51Z</time>
      </trkpt>
      <trkpt lat="47.96976" lon="6.93176">
        <ele>1063</ele>
        <time>2023-05-07T13:39:04Z</time>
      </trkpt>
      <trkpt lat="47.96971" lon="6.93176">
        <ele>1063</ele>
        <time>2023-05-07T13:39:08Z</time>
      </trkpt>
      <trkpt lat="47.96967" lon="6.9317">
        <ele>1063</ele>
        <time>2023-05-07T13:39:13Z</time>
      </trkpt>
      <trkpt lat="47.96964" lon="6.93163">
        <ele>1063</ele>
        <time>2023-05-07T13:39:18Z</time>
      </trkpt>
      <trkpt lat="47.9696" lon="6.93158">
        <ele>1063</ele>
        <time>2023-05-07T13:39:22Z</time>
      </trkpt>
      <trkpt lat="47.96951" lon="6.93137">
        <ele>1064</ele>
        <time>2023-05-07T13:39:38Z</time>
      </trkpt>
      <trkpt lat="47.96948" lon="6.93129">
        <ele>1065</ele>
        <time>2023-05-07T13:39:46Z</time>
      </trkpt>
      <trkpt lat="47.96947" lon="6.93121">
        <ele>1065</ele>
        <time>2023-05-07T13:39:50Z</time>
      </trkpt>
      <trkpt lat="47.96942" lon="6.93107">
        <ele>1065</ele>
        <time>2023-05-07T13:39:56Z</time>
      </trkpt>
      <trkpt lat="47.96937" lon="6.9309">
        <ele>1065</ele>
        <time>2023-05-07T13:40:08Z</time>
      </trkpt>
      <trkpt lat="47.96928" lon="6.93072">
        <ele>1065</ele>
        <time>2023-05-07T13:40:20Z</time>
      </trkpt>
      <trkpt lat="47.96926" lon="6.93066">
        <ele>1065</ele>
        <time>2023-05-07T13:40:24Z</time>
      </trkpt>
      <trkpt lat="47.96921" lon="6.93064">
        <ele>1066</ele>
        <time>2023-05-07T13:40:29Z</time>
      </trkpt>
      <trkpt lat="47.96917" lon="6.93057">
        <ele>1067</ele>
        <time>2023-05-07T13:40:41Z</time>
      </trkpt>
      <trkpt lat="47.96918" lon="6.9305">
        <ele>1067</ele>
        <time>2023-05-07T13:40:44Z</time>
      </trkpt>
      <trkpt lat="47.96914" lon="6.93046">
        <ele>1067</ele>
        <time>2023-05-07T13:40:48Z</time>
      </trkpt>
      <trkpt lat="47.9691" lon="6.93048">
        <ele>1068</ele>
        <time>2023-05-07T13:40:55Z</time>
      </trkpt>
      <trkpt lat="47.96905" lon="6.93047">
        <ele>1069</ele>
        <time>2023-05-07T13:41:01Z</time>
      </trkpt>
      <trkpt lat="47.969" lon="6.93042">
        <ele>1069</ele>
        <time>2023-05-07T13:41:10Z</time>
      </trkpt>
      <trkpt lat="47.96896" lon="6.93036">
        <ele>1069</ele>
        <time>2023-05-07T13:41:14Z</time>
      </trkpt>
      <trkpt lat="47.96891" lon="6.93034">
        <ele>1070</ele>
        <time>2023-05-07T13:41:18Z</time>
      </trkpt>
      <trkpt lat="47.96878" lon="6.93018">
        <ele>1070</ele>
        <time>2023-05-07T13:41:34Z</time>
      </trkpt>
      <trkpt lat="47.96871" lon="6.93015">
        <ele>1070</ele>
        <time>2023-05-07T13:41:42Z</time>
      </trkpt>
      <trkpt lat="47.96869" lon="6.93023">
        <ele>1070</ele>
        <time>2023-05-07T13:41:49Z</time>
      </trkpt>
      <trkpt lat="47.96867" lon="6.93033">
        <ele>1073</ele>
        <time>2023-05-07T13:42:08Z</time>
      </trkpt>
      <trkpt lat="47.96864" lon="6.93039">
        <ele>1073</ele>
        <time>2023-05-07T13:42:16Z</time>
      </trkpt>
      <trkpt lat="47.96861" lon="6.93045">
        <ele>1074</ele>
        <time>2023-05-07T13:42:21Z</time>
      </trkpt>
      <trkpt lat="47.96859" lon="6.93052">
        <ele>1074</ele>
        <time>2023-05-07T13:42:25Z</time>
      </trkpt>
      <trkpt lat="47.9685" lon="6.93061">
        <ele>1074</ele>
        <time>2023-05-07T13:42:33Z</time>
      </trkpt>
      <trkpt lat="47.96846" lon="6.93061">
        <ele>1074</ele>
        <time>2023-05-07T13:42:38Z</time>
      </trkpt>
      <trkpt lat="47.96841" lon="6.93064">
        <ele>1074</ele>
        <time>2023-05-07T13:42:43Z</time>
      </trkpt>
      <trkpt lat="47.96831" lon="6.93068">
        <ele>1075</ele>
        <time>2023-05-07T13:42:51Z</time>
      </trkpt>
      <trkpt lat="47.96821" lon="6.93075">
        <ele>1077</ele>
        <time>2023-05-07T13:43:04Z</time>
      </trkpt>
      <trkpt lat="47.96815" lon="6.93071">
        <ele>1078</ele>
        <time>2023-05-07T13:43:09Z</time>
      </trkpt>
      <trkpt lat="47.96803" lon="6.93082">
        <ele>1081</ele>
        <time>2023-05-07T13:43:27Z</time>
      </trkpt>
      <trkpt lat="47.96798" lon="6.93081">
        <ele>1082</ele>
        <time>2023-05-07T13:43:35Z</time>
      </trkpt>
      <trkpt lat="47.9679" lon="6.93092">
        <ele>1084</ele>
        <time>2023-05-07T13:43:48Z</time>
      </trkpt>
      <trkpt lat="47.96785" lon="6.93067">
        <ele>1086</ele>
        <time>2023-05-07T13:43:58Z</time>
      </trkpt>
      <trkpt lat="47.96788" lon="6.9306">
        <ele>1087</ele>
        <time>2023-05-07T13:44:01Z</time>
      </trkpt>
      <trkpt lat="47.96792" lon="6.93038">
        <ele>1087</ele>
        <time>2023-05-07T13:44:12Z</time>
      </trkpt>
      <trkpt lat="47.96792" lon="6.93029">
        <ele>1088</ele>
        <time>2023-05-07T13:44:20Z</time>
      </trkpt>
      <trkpt lat="47.96789" lon="6.93035">
        <ele>1091</ele>
        <time>2023-05-07T13:44:38Z</time>
      </trkpt>
      <trkpt lat="47.96781" lon="6.93039">
        <ele>1092</ele>
        <time>2023-05-07T13:44:46Z</time>
      </trkpt>
      <trkpt lat="47.9678" lon="6.93045">
        <ele>1093</ele>
        <time>2023-05-07T13:44:51Z</time>
      </trkpt>
      <trkpt lat="47.96776" lon="6.93049">
        <ele>1093</ele>
        <time>2023-05-07T13:44:57Z</time>
      </trkpt>
      <trkpt lat="47.9677" lon="6.93043">
        <ele>1095</ele>
        <time>2023-05-07T13:45:03Z</time>
      </trkpt>
      <trkpt lat="47.96769" lon="6.93031">
        <ele>1096</ele>
        <time>2023-05-07T13:45:09Z</time>
      </trkpt>
      <trkpt lat="47.96772" lon="6.93026">
        <ele>1096</ele>
        <time>2023-05-07T13:45:12Z</time>
      </trkpt>
      <trkpt lat="47.96771" lon="6.92998">
        <ele>1099</ele>
        <time>2023-05-07T13:45:33Z</time>
      </trkpt>
      <trkpt lat="47.96767" lon="6.92995">
        <ele>1100</ele>
        <time>2023-05-07T13:45:41Z</time>
      </trkpt>
      <trkpt lat="47.96766" lon="6.92988">
        <ele>1100</ele>
        <time>2023-05-07T13:45:44Z</time>
      </trkpt>
      <trkpt lat="47.96761" lon="6.92989">
        <ele>1101</ele>
        <time>2023-05-07T13:45:54Z</time>
      </trkpt>
      <trkpt lat="47.96756" lon="6.9299">
        <ele>1102</ele>
        <time>2023-05-07T13:45:58Z</time>
      </trkpt>
      <trkpt lat="47.96754" lon="6.93">
        <ele>1103</ele>
        <time>2023-05-07T13:46:11Z</time>
      </trkpt>
      <trkpt lat="47.9675" lon="6.93008">
        <ele>1104</ele>
        <time>2023-05-07T13:46:18Z</time>
      </trkpt>
      <trkpt lat="47.96747" lon="6.93019">
        <ele>1105</ele>
        <time>2023-05-07T13:46:28Z</time>
      </trkpt>
      <trkpt lat="47.96745" lon="6.93026">
        <ele>1105</ele>
        <time>2023-05-07T13:46:33Z</time>
      </trkpt>
      <trkpt lat="47.96741" lon="6.93031">
        <ele>1105</ele>
        <time>2023-05-07T13:46:38Z</time>
      </trkpt>
      <trkpt lat="47.96741" lon="6.93041">
        <ele>1106</ele>
        <time>2023-05-07T13:46:45Z</time>
      </trkpt>
      <trkpt lat="47.96734" lon="6.93039">
        <ele>1106</ele>
        <time>2023-05-07T13:46:51Z</time>
      </trkpt>
      <trkpt lat="47.96731" lon="6.93025">
        <ele>1107</ele>
        <time>2023-05-07T13:46:59Z</time>
      </trkpt>
      <trkpt lat="47.96723" lon="6.93013">
        <ele>1109</ele>
        <time>2023-05-07T13:47:08Z</time>
      </trkpt>
      <trkpt lat="47.96723" lon="6.93006">
        <ele>1109</ele>
        <time>2023-05-07T13:47:12Z</time>
      </trkpt>
      <trkpt lat="47.9672" lon="6.92999">
        <ele>1109</ele>
        <time>2023-05-07T13:47:16Z</time>
      </trkpt>
      <trkpt lat="47.9672" lon="6.9298">
        <ele>1113</ele>
        <time>2023-05-07T13:47:41Z</time>
      </trkpt>
      <trkpt lat="47.96717" lon="6.92972">
        <ele>1114</ele>
        <time>2023-05-07T13:47:52Z</time>
      </trkpt>
      <trkpt lat="47.96712" lon="6.92969">
        <ele>1115</ele>
        <time>2023-05-07T13:47:59Z</time>
      </trkpt>
      <trkpt lat="47.96704" lon="6.92957">
        <ele>1118</ele>
        <time>2023-05-07T13:48:21Z</time>
      </trkpt>
      <trkpt lat="47.96698" lon="6.92961">
        <ele>1120</ele>
        <time>2023-05-07T13:48:36Z</time>
      </trkpt>
      <trkpt lat="47.96692" lon="6.92954">
        <ele>1122</ele>
        <time>2023-05-07T13:48:48Z</time>
      </trkpt>
      <trkpt lat="47.96687" lon="6.92952">
        <ele>1123</ele>
        <time>2023-05-07T13:48:54Z</time>
      </trkpt>
      <trkpt lat="47.96686" lon="6.92946">
        <ele>1123</ele>
        <time>2023-05-07T13:48:58Z</time>
      </trkpt>
      <trkpt lat="47.96676" lon="6.92941">
        <ele>1127</ele>
        <time>2023-05-07T13:49:24Z</time>
      </trkpt>
      <trkpt lat="47.96667" lon="6.92926">
        <ele>1130</ele>
        <time>2023-05-07T13:49:43Z</time>
      </trkpt>
      <trkpt lat="47.96664" lon="6.92919">
        <ele>1130</ele>
        <time>2023-05-07T13:49:47Z</time>
      </trkpt>
      <trkpt lat="47.9666" lon="6.92923">
        <ele>1131</ele>
        <time>2023-05-07T13:50:00Z</time>
      </trkpt>
      <trkpt lat="47.96657" lon="6.92918">
        <ele>1132</ele>
        <time>2023-05-07T13:50:05Z</time>
      </trkpt>
      <trkpt lat="47.96654" lon="6.9291">
        <ele>1133</ele>
        <time>2023-05-07T13:50:17Z</time>
      </trkpt>
      <trkpt lat="47.96651" lon="6.92903">
        <ele>1134</ele>
        <time>2023-05-07T13:50:22Z</time>
      </trkpt>
      <trkpt lat="47.96646" lon="6.929">
        <ele>1134</ele>
        <time>2023-05-07T13:50:26Z</time>
      </trkpt>
      <trkpt lat="47.96643" lon="6.92894">
        <ele>1134</ele>
        <time>2023-05-07T13:50:33Z</time>
      </trkpt>
      <trkpt lat="47.96636" lon="6.92893">
        <ele>1132</ele>
        <time>2023-05-07T13:50:42Z</time>
      </trkpt>
      <trkpt lat="47.96634" lon="6.92889">
        <ele>1132</ele>
        <time>2023-05-07T13:50:46Z</time>
      </trkpt>
      <trkpt lat="47.96627" lon="6.92893">
        <ele>1132</ele>
        <time>2023-05-07T13:50:56Z</time>
      </trkpt>
      <trkpt lat="47.96621" lon="6.92892">
        <ele>1130</ele>
        <time>2023-05-07T13:51:08Z</time>
      </trkpt>
      <trkpt lat="47.96611" lon="6.92883">
        <ele>1125</ele>
        <time>2023-05-07T13:51:38Z</time>
      </trkpt>
      <trkpt lat="47.96606" lon="6.92884">
        <ele>1124</ele>
        <time>2023-05-07T13:51:45Z</time>
      </trkpt>
      <trkpt lat="47.96604" lon="6.92876">
        <ele>1123</ele>
        <time>2023-05-07T13:51:49Z</time>
      </trkpt>
      <trkpt lat="47.96597" lon="6.92875">
        <ele>1122</ele>
        <time>2023-05-07T13:52:03Z</time>
      </trkpt>
      <trkpt lat="47.96586" lon="6.92876">
        <ele>1120</ele>
        <time>2023-05-07T13:52:17Z</time>
      </trkpt>
      <trkpt lat="47.9658" lon="6.92866">
        <ele>1118</ele>
        <time>2023-05-07T13:52:29Z</time>
      </trkpt>
      <trkpt lat="47.96577" lon="6.92858">
        <ele>1117</ele>
        <time>2023-05-07T13:52:37Z</time>
      </trkpt>
      <trkpt lat="47.96573" lon="6.92855">
        <ele>1117</ele>
        <time>2023-05-07T13:52:42Z</time>
      </trkpt>
      <trkpt lat="47.96567" lon="6.92855">
        <ele>1117</ele>
        <time>2023-05-07T13:52:45Z</time>
      </trkpt>
      <trkpt lat="47.96557" lon="6.92846">
        <ele>1117</ele>
        <time>2023-05-07T13:52:57Z</time>
      </trkpt>
      <trkpt lat="47.96548" lon="6.92847">
        <ele>1117</ele>
        <time>2023-05-07T13:53:05Z</time>
      </trkpt>
      <trkpt lat="47.96543" lon="6.92845">
        <ele>1118</ele>
        <time>2023-05-07T13:53:13Z</time>
      </trkpt>
      <trkpt lat="47.96531" lon="6.92837">
        <ele>1118</ele>
        <time>2023-05-07T13:53:21Z</time>
      </trkpt>
      <trkpt lat="47.96521" lon="6.92838">
        <ele>1119</ele>
        <time>2023-05-07T13:53:33Z</time>
      </trkpt>
      <trkpt lat="47.96517" lon="6.9284">
        <ele>1119</ele>
        <time>2023-05-07T13:53:38Z</time>
      </trkpt>
      <trkpt lat="47.96513" lon="6.92844">
        <ele>1119</ele>
        <time>2023-05-07T13:53:41Z</time>
      </trkpt>
      <trkpt lat="47.96509" lon="6.92847">
        <ele>1119</ele>
        <time>2023-05-07T13:53:49Z</time>
      </trkpt>
      <trkpt lat="47.96505" lon="6.92848">
        <ele>1119</ele>
        <time>2023-05-07T13:53:54Z</time>
      </trkpt>
      <trkpt lat="47.96494" lon="6.92855">
        <ele>1120</ele>
        <time>2023-05-07T13:54:02Z</time>
      </trkpt>
      <trkpt lat="47.96489" lon="6.92856">
        <ele>1120</ele>
        <time>2023-05-07T13:54:06Z</time>
      </trkpt>
      <trkpt lat="47.9648" lon="6.92854">
        <ele>1120</ele>
        <time>2023-05-07T13:54:13Z</time>
      </trkpt>
      <trkpt lat="47.96475" lon="6.92855">
        <ele>1120</ele>
        <time>2023-05-07T13:54:16Z</time>
      </trkpt>
      <trkpt lat="47.96469" lon="6.92852">
        <ele>1121</ele>
        <time>2023-05-07T13:54:22Z</time>
      </trkpt>
      <trkpt lat="47.9645" lon="6.92853">
        <ele>1121</ele>
        <time>2023-05-07T13:54:36Z</time>
      </trkpt>
      <trkpt lat="47.96446" lon="6.92858">
        <ele>1122</ele>
        <time>2023-05-07T13:54:41Z</time>
      </trkpt>
      <trkpt lat="47.96436" lon="6.92852">
        <ele>1123</ele>
        <time>2023-05-07T13:54:50Z</time>
      </trkpt>
      <trkpt lat="47.9643" lon="6.92848">
        <ele>1123</ele>
        <time>2023-05-07T13:54:56Z</time>
      </trkpt>
      <trkpt lat="47.96411" lon="6.92848">
        <ele>1125</ele>
        <time>2023-05-07T13:55:16Z</time>
      </trkpt>
      <trkpt lat="47.96404" lon="6.92846">
        <ele>1126</ele>
        <time>2023-05-07T13:55:25Z</time>
      </trkpt>
      <trkpt lat="47.96388" lon="6.92846">
        <ele>1128</ele>
        <time>2023-05-07T13:55:41Z</time>
      </trkpt>
      <trkpt lat="47.96384" lon="6.92844">
        <ele>1129</ele>
        <time>2023-05-07T13:55:50Z</time>
      </trkpt>
      <trkpt lat="47.9637" lon="6.92843">
        <ele>1133</ele>
        <time>2023-05-07T13:56:15Z</time>
      </trkpt>
      <trkpt lat="47.96365" lon="6.92838">
        <ele>1134</ele>
        <time>2023-05-07T13:56:20Z</time>
      </trkpt>
      <trkpt lat="47.9635" lon="6.92827">
        <ele>1136</ele>
        <time>2023-05-07T13:56:37Z</time>
      </trkpt>
      <trkpt lat="47.96338" lon="6.92825">
        <ele>1138</ele>
        <time>2023-05-07T13:56:55Z</time>
      </trkpt>
      <trkpt lat="47.96333" lon="6.92821">
        <ele>1139</ele>
        <time>2023-05-07T13:57:01Z</time>
      </trkpt>
      <trkpt lat="47.96329" lon="6.92819">
        <ele>1139</ele>
        <time>2023-05-07T13:57:04Z</time>
      </trkpt>
      <trkpt lat="47.96323" lon="6.92818">
        <ele>1140</ele>
        <time>2023-05-07T13:57:11Z</time>
      </trkpt>
      <trkpt lat="47.96316" lon="6.92818">
        <ele>1140</ele>
        <time>2023-05-07T13:57:20Z</time>
      </trkpt>
      <trkpt lat="47.96307" lon="6.92826">
        <ele>1140</ele>
        <time>2023-05-07T13:57:31Z</time>
      </trkpt>
      <trkpt lat="47.96292" lon="6.92824">
        <ele>1141</ele>
        <time>2023-05-07T13:57:46Z</time>
      </trkpt>
      <trkpt lat="47.96281" lon="6.92827">
        <ele>1143</ele>
        <time>2023-05-07T13:57:59Z</time>
      </trkpt>
      <trkpt lat="47.96272" lon="6.92834">
        <ele>1144</ele>
        <time>2023-05-07T13:58:11Z</time>
      </trkpt>
      <trkpt lat="47.96263" lon="6.92833">
        <ele>1147</ele>
        <time>2023-05-07T13:58:23Z</time>
      </trkpt>
      <trkpt lat="47.96258" lon="6.92836">
        <ele>1148</ele>
        <time>2023-05-07T13:58:29Z</time>
      </trkpt>
      <trkpt lat="47.96255" lon="6.92832">
        <ele>1149</ele>
        <time>2023-05-07T13:58:34Z</time>
      </trkpt>
      <trkpt lat="47.96237" lon="6.92833">
        <ele>1155</ele>
        <time>2023-05-07T13:59:06Z</time>
      </trkpt>
      <trkpt lat="47.96229" lon="6.92821">
        <ele>1157</ele>
        <time>2023-05-07T13:59:24Z</time>
      </trkpt>
      <trkpt lat="47.96224" lon="6.92817">
        <ele>1159</ele>
        <time>2023-05-07T13:59:35Z</time>
      </trkpt>
      <trkpt lat="47.96219" lon="6.92819">
        <ele>1160</ele>
        <time>2023-05-07T13:59:39Z</time>
      </trkpt>
      <trkpt lat="47.96217" lon="6.92825">
        <ele>1160</ele>
        <time>2023-05-07T13:59:44Z</time>
      </trkpt>
      <trkpt lat="47.96209" lon="6.92821">
        <ele>1161</ele>
        <time>2023-05-07T13:59:54Z</time>
      </trkpt>
      <trkpt lat="47.96204" lon="6.92824">
        <ele>1162</ele>
        <time>2023-05-07T14:00:03Z</time>
      </trkpt>
      <trkpt lat="47.96202" lon="6.9283">
        <ele>1162</ele>
        <time>2023-05-07T14:00:08Z</time>
      </trkpt>
      <trkpt lat="47.96197" lon="6.92831">
        <ele>1163</ele>
        <time>2023-05-07T14:00:14Z</time>
      </trkpt>
      <trkpt lat="47.96183" lon="6.92827">
        <ele>1165</ele>
        <time>2023-05-07T14:00:30Z</time>
      </trkpt>
      <trkpt lat="47.96174" lon="6.92816">
        <ele>1167</ele>
        <time>2023-05-07T14:00:44Z</time>
      </trkpt>
      <trkpt lat="47.96173" lon="6.92809">
        <ele>1167</ele>
        <time>2023-05-07T14:00:50Z</time>
      </trkpt>
      <trkpt lat="47.96165" lon="6.92799">
        <ele>1168</ele>
        <time>2023-05-07T14:00:59Z</time>
      </trkpt>
      <trkpt lat="47.96165" lon="6.92792">
        <ele>1168</ele>
        <time>2023-05-07T14:01:02Z</time>
      </trkpt>
      <trkpt lat="47.96151" lon="6.92762">
        <ele>1167</ele>
        <time>2023-05-07T14:01:25Z</time>
      </trkpt>
      <trkpt lat="47.96149" lon="6.92755">
        <ele>1168</ele>
        <time>2023-05-07T14:01:30Z</time>
      </trkpt>
      <trkpt lat="47.96143" lon="6.92748">
        <ele>1168</ele>
        <time>2023-05-07T14:01:35Z</time>
      </trkpt>
      <trkpt lat="47.96136" lon="6.92736">
        <ele>1169</ele>
        <time>2023-05-07T14:01:45Z</time>
      </trkpt>
      <trkpt lat="47.96132" lon="6.92732">
        <ele>1170</ele>
        <time>2023-05-07T14:01:51Z</time>
      </trkpt>
      <trkpt lat="47.96129" lon="6.9272">
        <ele>1170</ele>
        <time>2023-05-07T14:02:00Z</time>
      </trkpt>
      <trkpt lat="47.96122" lon="6.92712">
        <ele>1170</ele>
        <time>2023-05-07T14:02:09Z</time>
      </trkpt>
      <trkpt lat="47.96117" lon="6.92704">
        <ele>1171</ele>
        <time>2023-05-07T14:02:14Z</time>
      </trkpt>
      <trkpt lat="47.96115" lon="6.92689">
        <ele>1172</ele>
        <time>2023-05-07T14:02:25Z</time>
      </trkpt>
      <trkpt lat="47.96108" lon="6.92681">
        <ele>1174</ele>
        <time>2023-05-07T14:02:36Z</time>
      </trkpt>
      <trkpt lat="47.96102" lon="6.92671">
        <ele>1175</ele>
        <time>2023-05-07T14:02:45Z</time>
      </trkpt>
      <trkpt lat="47.96098" lon="6.92668">
        <ele>1176</ele>
        <time>2023-05-07T14:02:49Z</time>
      </trkpt>
      <trkpt lat="47.96098" lon="6.9266">
        <ele>1176</ele>
        <time>2023-05-07T14:02:55Z</time>
      </trkpt>
      <trkpt lat="47.9609" lon="6.92651">
        <ele>1177</ele>
        <time>2023-05-07T14:03:04Z</time>
      </trkpt>
      <trkpt lat="47.96088" lon="6.92644">
        <ele>1178</ele>
        <time>2023-05-07T14:03:08Z</time>
      </trkpt>
      <trkpt lat="47.96084" lon="6.92639">
        <ele>1178</ele>
        <time>2023-05-07T14:03:14Z</time>
      </trkpt>
      <trkpt lat="47.96081" lon="6.92634">
        <ele>1179</ele>
        <time>2023-05-07T14:03:19Z</time>
      </trkpt>
      <trkpt lat="47.9608" lon="6.92628">
        <ele>1179</ele>
        <time>2023-05-07T14:03:22Z</time>
      </trkpt>
      <trkpt lat="47.96081" lon="6.92618">
        <ele>1181</ele>
        <time>2023-05-07T14:03:30Z</time>
      </trkpt>
      <trkpt lat="47.96077" lon="6.92614">
        <ele>1182</ele>
        <time>2023-05-07T14:03:37Z</time>
      </trkpt>
      <trkpt lat="47.96074" lon="6.92607">
        <ele>1183</ele>
        <time>2023-05-07T14:03:43Z</time>
      </trkpt>
      <trkpt lat="47.96068" lon="6.92606">
        <ele>1183</ele>
        <time>2023-05-07T14:03:51Z</time>
      </trkpt>
      <trkpt lat="47.96061" lon="6.92602">
        <ele>1184</ele>
        <time>2023-05-07T14:03:59Z</time>
      </trkpt>
      <trkpt lat="47.96061" lon="6.92594">
        <ele>1184</ele>
        <time>2023-05-07T14:04:02Z</time>
      </trkpt>
      <trkpt lat="47.96062" lon="6.92588">
        <ele>1185</ele>
        <time>2023-05-07T14:04:06Z</time>
      </trkpt>
      <trkpt lat="47.96057" lon="6.92584">
        <ele>1185</ele>
        <time>2023-05-07T14:04:12Z</time>
      </trkpt>
      <trkpt lat="47.96055" lon="6.92578">
        <ele>1187</ele>
        <time>2023-05-07T14:04:20Z</time>
      </trkpt>
      <trkpt lat="47.96049" lon="6.92577">
        <ele>1189</ele>
        <time>2023-05-07T14:04:32Z</time>
      </trkpt>
      <trkpt lat="47.96045" lon="6.92581">
        <ele>1192</ele>
        <time>2023-05-07T14:04:49Z</time>
      </trkpt>
      <trkpt lat="47.9604" lon="6.92579">
        <ele>1193</ele>
        <time>2023-05-07T14:04:53Z</time>
      </trkpt>
      <trkpt lat="47.96035" lon="6.92574">
        <ele>1195</ele>
        <time>2023-05-07T14:05:02Z</time>
      </trkpt>
      <trkpt lat="47.96031" lon="6.92573">
        <ele>1196</ele>
        <time>2023-05-07T14:05:08Z</time>
      </trkpt>
      <trkpt lat="47.96007" lon="6.92556">
        <ele>1199</ele>
        <time>2023-05-07T14:05:33Z</time>
      </trkpt>
      <trkpt lat="47.96" lon="6.92553">
        <ele>1200</ele>
        <time>2023-05-07T14:05:42Z</time>
      </trkpt>
      <trkpt lat="47.95995" lon="6.92555">
        <ele>1200</ele>
        <time>2023-05-07T14:05:46Z</time>
      </trkpt>
      <trkpt lat="47.9597" lon="6.92556">
        <ele>1202</ele>
        <time>2023-05-07T14:06:11Z</time>
      </trkpt>
      <trkpt lat="47.95956" lon="6.92553">
        <ele>1204</ele>
        <time>2023-05-07T14:06:25Z</time>
      </trkpt>
      <trkpt lat="47.95953" lon="6.92549">
        <ele>1204</ele>
        <time>2023-05-07T14:06:29Z</time>
      </trkpt>
      <trkpt lat="47.9595" lon="6.92543">
        <ele>1204</ele>
        <time>2023-05-07T14:06:34Z</time>
      </trkpt>
      <trkpt lat="47.95947" lon="6.92536">
        <ele>1204</ele>
        <time>2023-05-07T14:06:59Z</time>
      </trkpt>
      <trkpt lat="47.95933" lon="6.92575">
        <ele>1206</ele>
        <time>2023-05-07T14:11:52Z</time>
      </trkpt>
      <trkpt lat="47.95907" lon="6.92599">
        <ele>1205</ele>
        <time>2023-05-07T14:12:29Z</time>
      </trkpt>
      <trkpt lat="47.95902" lon="6.92603">
        <ele>1205</ele>
        <time>2023-05-07T14:12:35Z</time>
      </trkpt>
      <trkpt lat="47.95893" lon="6.92611">
        <ele>1205</ele>
        <time>2023-05-07T14:12:45Z</time>
      </trkpt>
      <trkpt lat="47.95862" lon="6.9263">
        <ele>1202</ele>
        <time>2023-05-07T14:13:17Z</time>
      </trkpt>
      <trkpt lat="47.95826" lon="6.92642">
        <ele>1199</ele>
        <time>2023-05-07T14:13:50Z</time>
      </trkpt>
      <trkpt lat="47.95821" lon="6.92642">
        <ele>1198</ele>
        <time>2023-05-07T14:13:54Z</time>
      </trkpt>
      <trkpt lat="47.95807" lon="6.92648">
        <ele>1197</ele>
        <time>2023-05-07T14:14:07Z</time>
      </trkpt>
      <trkpt lat="47.95789" lon="6.92652">
        <ele>1195</ele>
        <time>2023-05-07T14:14:24Z</time>
      </trkpt>
      <trkpt lat="47.9578" lon="6.92646">
        <ele>1194</ele>
        <time>2023-05-07T14:14:37Z</time>
      </trkpt>
      <trkpt lat="47.95778" lon="6.92643">
        <ele>1194</ele>
        <time>2023-05-07T14:14:54Z</time>
      </trkpt>
      <trkpt lat="47.95762" lon="6.92628">
        <ele>1193</ele>
        <time>2023-05-07T14:15:10Z</time>
      </trkpt>
      <trkpt lat="47.9575" lon="6.92617">
        <ele>1191</ele>
        <time>2023-05-07T14:15:21Z</time>
      </trkpt>
      <trkpt lat="47.95744" lon="6.92606">
        <ele>1190</ele>
        <time>2023-05-07T14:15:32Z</time>
      </trkpt>
      <trkpt lat="47.9574" lon="6.92603">
        <ele>1189</ele>
        <time>2023-05-07T14:15:36Z</time>
      </trkpt>
      <trkpt lat="47.95729" lon="6.92589">
        <ele>1187</ele>
        <time>2023-05-07T14:15:49Z</time>
      </trkpt>
      <trkpt lat="47.95725" lon="6.92587">
        <ele>1186</ele>
        <time>2023-05-07T14:15:58Z</time>
      </trkpt>
      <trkpt lat="47.95722" lon="6.92581">
        <ele>1185</ele>
        <time>2023-05-07T14:16:02Z</time>
      </trkpt>
      <trkpt lat="47.95718" lon="6.92578">
        <ele>1185</ele>
        <time>2023-05-07T14:16:06Z</time>
      </trkpt>
      <trkpt lat="47.95713" lon="6.92578">
        <ele>1184</ele>
        <time>2023-05-07T14:16:10Z</time>
      </trkpt>
      <trkpt lat="47.95709" lon="6.92576">
        <ele>1184</ele>
        <time>2023-05-07T14:16:14Z</time>
      </trkpt>
      <trkpt lat="47.95702" lon="6.92568">
        <ele>1182</ele>
        <time>2023-05-07T14:16:23Z</time>
      </trkpt>
      <trkpt lat="47.95699" lon="6.92562">
        <ele>1181</ele>
        <time>2023-05-07T14:16:28Z</time>
      </trkpt>
      <trkpt lat="47.95695" lon="6.9256">
        <ele>1180</ele>
        <time>2023-05-07T14:16:32Z</time>
      </trkpt>
      <trkpt lat="47.95688" lon="6.92558">
        <ele>1178</ele>
        <time>2023-05-07T14:16:41Z</time>
      </trkpt>
      <trkpt lat="47.9568" lon="6.92559">
        <ele>1176</ele>
        <time>2023-05-07T14:16:51Z</time>
      </trkpt>
      <trkpt lat="47.95675" lon="6.92555">
        <ele>1174</ele>
        <time>2023-05-07T14:16:57Z</time>
      </trkpt>
      <trkpt lat="47.9566" lon="6.92534">
        <ele>1170</ele>
        <time>2023-05-07T14:17:16Z</time>
      </trkpt>
      <trkpt lat="47.9565" lon="6.92529">
        <ele>1169</ele>
        <time>2023-05-07T14:17:25Z</time>
      </trkpt>
      <trkpt lat="47.95634" lon="6.92527">
        <ele>1166</ele>
        <time>2023-05-07T14:17:43Z</time>
      </trkpt>
      <trkpt lat="47.9563" lon="6.92524">
        <ele>1165</ele>
        <time>2023-05-07T14:17:48Z</time>
      </trkpt>
      <trkpt lat="47.9562" lon="6.92512">
        <ele>1163</ele>
        <time>2023-05-07T14:18:04Z</time>
      </trkpt>
      <trkpt lat="47.95616" lon="6.92511">
        <ele>1162</ele>
        <time>2023-05-07T14:18:09Z</time>
      </trkpt>
      <trkpt lat="47.95611" lon="6.92511">
        <ele>1161</ele>
        <time>2023-05-07T14:18:14Z</time>
      </trkpt>
      <trkpt lat="47.956" lon="6.92501">
        <ele>1159</ele>
        <time>2023-05-07T14:18:26Z</time>
      </trkpt>
      <trkpt lat="47.95586" lon="6.92483">
        <ele>1157</ele>
        <time>2023-05-07T14:18:43Z</time>
      </trkpt>
      <trkpt lat="47.95583" lon="6.92476">
        <ele>1157</ele>
        <time>2023-05-07T14:18:47Z</time>
      </trkpt>
      <trkpt lat="47.95581" lon="6.92462">
        <ele>1156</ele>
        <time>2023-05-07T14:18:56Z</time>
      </trkpt>
      <trkpt lat="47.95577" lon="6.92454">
        <ele>1155</ele>
        <time>2023-05-07T14:19:03Z</time>
      </trkpt>
      <trkpt lat="47.95559" lon="6.92437">
        <ele>1152</ele>
        <time>2023-05-07T14:19:27Z</time>
      </trkpt>
      <trkpt lat="47.9555" lon="6.92431">
        <ele>1151</ele>
        <time>2023-05-07T14:19:36Z</time>
      </trkpt>
      <trkpt lat="47.95545" lon="6.9243">
        <ele>1150</ele>
        <time>2023-05-07T14:19:41Z</time>
      </trkpt>
      <trkpt lat="47.95536" lon="6.92421">
        <ele>1148</ele>
        <time>2023-05-07T14:19:54Z</time>
      </trkpt>
      <trkpt lat="47.95524" lon="6.92414">
        <ele>1146</ele>
        <time>2023-05-07T14:20:09Z</time>
      </trkpt>
      <trkpt lat="47.9552" lon="6.92415">
        <ele>1146</ele>
        <time>2023-05-07T14:20:13Z</time>
      </trkpt>
      <trkpt lat="47.95515" lon="6.92412">
        <ele>1145</ele>
        <time>2023-05-07T14:20:18Z</time>
      </trkpt>
      <trkpt lat="47.95507" lon="6.92405">
        <ele>1144</ele>
        <time>2023-05-07T14:20:28Z</time>
      </trkpt>
      <trkpt lat="47.95477" lon="6.92391">
        <ele>1139</ele>
        <time>2023-05-07T14:21:01Z</time>
      </trkpt>
      <trkpt lat="47.95464" lon="6.92386">
        <ele>1138</ele>
        <time>2023-05-07T14:21:13Z</time>
      </trkpt>
      <trkpt lat="47.95459" lon="6.92386">
        <ele>1138</ele>
        <time>2023-05-07T14:21:17Z</time>
      </trkpt>
      <trkpt lat="47.95454" lon="6.92386">
        <ele>1138</ele>
        <time>2023-05-07T14:21:21Z</time>
      </trkpt>
      <trkpt lat="47.95441" lon="6.9238">
        <ele>1138</ele>
        <time>2023-05-07T14:21:32Z</time>
      </trkpt>
      <trkpt lat="47.95436" lon="6.92377">
        <ele>1138</ele>
        <time>2023-05-07T14:21:36Z</time>
      </trkpt>
      <trkpt lat="47.95422" lon="6.92377">
        <ele>1140</ele>
        <time>2023-05-07T14:21:52Z</time>
      </trkpt>
      <trkpt lat="47.95402" lon="6.92367">
        <ele>1142</ele>
        <time>2023-05-07T14:22:14Z</time>
      </trkpt>
      <trkpt lat="47.95391" lon="6.92365">
        <ele>1144</ele>
        <time>2023-05-07T14:22:26Z</time>
      </trkpt>
      <trkpt lat="47.95384" lon="6.92363">
        <ele>1144</ele>
        <time>2023-05-07T14:22:33Z</time>
      </trkpt>
      <trkpt lat="47.9538" lon="6.92364">
        <ele>1145</ele>
        <time>2023-05-07T14:22:37Z</time>
      </trkpt>
      <trkpt lat="47.95352" lon="6.92359">
        <ele>1148</ele>
        <time>2023-05-07T14:23:06Z</time>
      </trkpt>
      <trkpt lat="47.95333" lon="6.92364">
        <ele>1148</ele>
        <time>2023-05-07T14:23:23Z</time>
      </trkpt>
      <trkpt lat="47.95323" lon="6.92359">
        <ele>1148</ele>
        <time>2023-05-07T14:23:33Z</time>
      </trkpt>
      <trkpt lat="47.95318" lon="6.9236">
        <ele>1149</ele>
        <time>2023-05-07T14:23:37Z</time>
      </trkpt>
      <trkpt lat="47.95313" lon="6.92357">
        <ele>1150</ele>
        <time>2023-05-07T14:23:45Z</time>
      </trkpt>
      <trkpt lat="47.95309" lon="6.92356">
        <ele>1150</ele>
        <time>2023-05-07T14:23:51Z</time>
      </trkpt>
      <trkpt lat="47.95304" lon="6.92353">
        <ele>1151</ele>
        <time>2023-05-07T14:23:56Z</time>
      </trkpt>
      <trkpt lat="47.95299" lon="6.92354">
        <ele>1151</ele>
        <time>2023-05-07T14:23:59Z</time>
      </trkpt>
      <trkpt lat="47.95287" lon="6.92348">
        <ele>1152</ele>
        <time>2023-05-07T14:24:10Z</time>
      </trkpt>
      <trkpt lat="47.9528" lon="6.92348">
        <ele>1152</ele>
        <time>2023-05-07T14:24:17Z</time>
      </trkpt>
      <trkpt lat="47.95276" lon="6.92346">
        <ele>1152</ele>
        <time>2023-05-07T14:24:21Z</time>
      </trkpt>
      <trkpt lat="47.95265" lon="6.92351">
        <ele>1151</ele>
        <time>2023-05-07T14:24:32Z</time>
      </trkpt>
      <trkpt lat="47.95261" lon="6.92355">
        <ele>1151</ele>
        <time>2023-05-07T14:24:36Z</time>
      </trkpt>
      <trkpt lat="47.95231" lon="6.92368">
        <ele>1146</ele>
        <time>2023-05-07T14:25:10Z</time>
      </trkpt>
      <trkpt lat="47.9522" lon="6.92376">
        <ele>1146</ele>
        <time>2023-05-07T14:25:23Z</time>
      </trkpt>
      <trkpt lat="47.95214" lon="6.92384">
        <ele>1146</ele>
        <time>2023-05-07T14:25:31Z</time>
      </trkpt>
      <trkpt lat="47.95207" lon="6.92397">
        <ele>1147</ele>
        <time>2023-05-07T14:25:39Z</time>
      </trkpt>
      <trkpt lat="47.95194" lon="6.92409">
        <ele>1148</ele>
        <time>2023-05-07T14:25:54Z</time>
      </trkpt>
      <trkpt lat="47.95185" lon="6.92425">
        <ele>1149</ele>
        <time>2023-05-07T14:26:06Z</time>
      </trkpt>
      <trkpt lat="47.95182" lon="6.92428">
        <ele>1149</ele>
        <time>2023-05-07T14:26:16Z</time>
      </trkpt>
      <trkpt lat="47.95173" lon="6.92435">
        <ele>1149</ele>
        <time>2023-05-07T14:26:26Z</time>
      </trkpt>
      <trkpt lat="47.95166" lon="6.92446">
        <ele>1150</ele>
        <time>2023-05-07T14:26:35Z</time>
      </trkpt>
      <trkpt lat="47.95163" lon="6.92462">
        <ele>1151</ele>
        <time>2023-05-07T14:26:46Z</time>
      </trkpt>
      <trkpt lat="47.9516" lon="6.92484">
        <ele>1150</ele>
        <time>2023-05-07T14:26:59Z</time>
      </trkpt>
      <trkpt lat="47.95157" lon="6.92496">
        <ele>1149</ele>
        <time>2023-05-07T14:27:07Z</time>
      </trkpt>
      <trkpt lat="47.95154" lon="6.92503">
        <ele>1149</ele>
        <time>2023-05-07T14:27:12Z</time>
      </trkpt>
      <trkpt lat="47.95153" lon="6.92511">
        <ele>1149</ele>
        <time>2023-05-07T14:27:17Z</time>
      </trkpt>
      <trkpt lat="47.9515" lon="6.92517">
        <ele>1150</ele>
        <time>2023-05-07T14:27:25Z</time>
      </trkpt>
      <trkpt lat="47.95146" lon="6.92516">
        <ele>1151</ele>
        <time>2023-05-07T14:27:31Z</time>
      </trkpt>
      <trkpt lat="47.95141" lon="6.92518">
        <ele>1151</ele>
        <time>2023-05-07T14:27:36Z</time>
      </trkpt>
      <trkpt lat="47.95136" lon="6.92524">
        <ele>1148</ele>
        <time>2023-05-07T14:27:48Z</time>
      </trkpt>
      <trkpt lat="47.95123" lon="6.92529">
        <ele>1147</ele>
        <time>2023-05-07T14:28:00Z</time>
      </trkpt>
      <trkpt lat="47.95113" lon="6.92531">
        <ele>1147</ele>
        <time>2023-05-07T14:28:09Z</time>
      </trkpt>
      <trkpt lat="47.95107" lon="6.92532">
        <ele>1146</ele>
        <time>2023-05-07T14:28:14Z</time>
      </trkpt>
      <trkpt lat="47.95099" lon="6.92539">
        <ele>1146</ele>
        <time>2023-05-07T14:28:23Z</time>
      </trkpt>
      <trkpt lat="47.95085" lon="6.92543">
        <ele>1145</ele>
        <time>2023-05-07T14:28:35Z</time>
      </trkpt>
      <trkpt lat="47.95076" lon="6.92537">
        <ele>1145</ele>
        <time>2023-05-07T14:28:44Z</time>
      </trkpt>
      <trkpt lat="47.95064" lon="6.9254">
        <ele>1144</ele>
        <time>2023-05-07T14:28:54Z</time>
      </trkpt>
      <trkpt lat="47.95048" lon="6.92551">
        <ele>1143</ele>
        <time>2023-05-07T14:29:12Z</time>
      </trkpt>
      <trkpt lat="47.9504" lon="6.92559">
        <ele>1142</ele>
        <time>2023-05-07T14:29:20Z</time>
      </trkpt>
      <trkpt lat="47.95025" lon="6.92564">
        <ele>1139</ele>
        <time>2023-05-07T14:29:34Z</time>
      </trkpt>
      <trkpt lat="47.9502" lon="6.92564">
        <ele>1138</ele>
        <time>2023-05-07T14:29:38Z</time>
      </trkpt>
      <trkpt lat="47.95016" lon="6.92567">
        <ele>1137</ele>
        <time>2023-05-07T14:29:42Z</time>
      </trkpt>
      <trkpt lat="47.95011" lon="6.92566">
        <ele>1137</ele>
        <time>2023-05-07T14:29:46Z</time>
      </trkpt>
      <trkpt lat="47.95001" lon="6.92564">
        <ele>1136</ele>
        <time>2023-05-07T14:29:54Z</time>
      </trkpt>
      <trkpt lat="47.94997" lon="6.92561">
        <ele>1136</ele>
        <time>2023-05-07T14:29:58Z</time>
      </trkpt>
      <trkpt lat="47.94994" lon="6.92556">
        <ele>1135</ele>
        <time>2023-05-07T14:30:02Z</time>
      </trkpt>
      <trkpt lat="47.94992" lon="6.92549">
        <ele>1134</ele>
        <time>2023-05-07T14:30:06Z</time>
      </trkpt>
      <trkpt lat="47.94992" lon="6.92535">
        <ele>1133</ele>
        <time>2023-05-07T14:30:14Z</time>
      </trkpt>
      <trkpt lat="47.94986" lon="6.92498">
        <ele>1130</ele>
        <time>2023-05-07T14:30:38Z</time>
      </trkpt>
      <trkpt lat="47.94988" lon="6.9249">
        <ele>1130</ele>
        <time>2023-05-07T14:30:42Z</time>
      </trkpt>
      <trkpt lat="47.94983" lon="6.92463">
        <ele>1129</ele>
        <time>2023-05-07T14:30:58Z</time>
      </trkpt>
      <trkpt lat="47.94979" lon="6.92451">
        <ele>1128</ele>
        <time>2023-05-07T14:31:08Z</time>
      </trkpt>
      <trkpt lat="47.94978" lon="6.92438">
        <ele>1127</ele>
        <time>2023-05-07T14:31:16Z</time>
      </trkpt>
      <trkpt lat="47.94979" lon="6.92423">
        <ele>1126</ele>
        <time>2023-05-07T14:31:26Z</time>
      </trkpt>
      <trkpt lat="47.9499" lon="6.92383">
        <ele>1123</ele>
        <time>2023-05-07T14:31:53Z</time>
      </trkpt>
      <trkpt lat="47.94989" lon="6.92376">
        <ele>1122</ele>
        <time>2023-05-07T14:31:57Z</time>
      </trkpt>
      <trkpt lat="47.94993" lon="6.92365">
        <ele>1121</ele>
        <time>2023-05-07T14:32:05Z</time>
      </trkpt>
      <trkpt lat="47.94994" lon="6.92358">
        <ele>1121</ele>
        <time>2023-05-07T14:32:08Z</time>
      </trkpt>
      <trkpt lat="47.95003" lon="6.9233">
        <ele>1118</ele>
        <time>2023-05-07T14:32:28Z</time>
      </trkpt>
      <trkpt lat="47.94995" lon="6.92338">
        <ele>1117</ele>
        <time>2023-05-07T14:32:44Z</time>
      </trkpt>
      <trkpt lat="47.9499" lon="6.92341">
        <ele>1116</ele>
        <time>2023-05-07T14:32:49Z</time>
      </trkpt>
      <trkpt lat="47.94985" lon="6.92346">
        <ele>1116</ele>
        <time>2023-05-07T14:32:54Z</time>
      </trkpt>
      <trkpt lat="47.94982" lon="6.9235">
        <ele>1115</ele>
        <time>2023-05-07T14:32:58Z</time>
      </trkpt>
      <trkpt lat="47.94974" lon="6.9236">
        <ele>1114</ele>
        <time>2023-05-07T14:33:11Z</time>
      </trkpt>
      <trkpt lat="47.94959" lon="6.92391">
        <ele>1111</ele>
        <time>2023-05-07T14:33:37Z</time>
      </trkpt>
      <trkpt lat="47.94953" lon="6.92383">
        <ele>1109</ele>
        <time>2023-05-07T14:33:49Z</time>
      </trkpt>
      <trkpt lat="47.94952" lon="6.92377">
        <ele>1108</ele>
        <time>2023-05-07T14:33:53Z</time>
      </trkpt>
      <trkpt lat="47.94952" lon="6.92363">
        <ele>1107</ele>
        <time>2023-05-07T14:34:01Z</time>
      </trkpt>
      <trkpt lat="47.94951" lon="6.92355">
        <ele>1106</ele>
        <time>2023-05-07T14:34:04Z</time>
      </trkpt>
      <trkpt lat="47.94957" lon="6.92302">
        <ele>1102</ele>
        <time>2023-05-07T14:34:38Z</time>
      </trkpt>
      <trkpt lat="47.94965" lon="6.92275">
        <ele>1100</ele>
        <time>2023-05-07T14:34:56Z</time>
      </trkpt>
      <trkpt lat="47.94966" lon="6.92268">
        <ele>1100</ele>
        <time>2023-05-07T14:35:01Z</time>
      </trkpt>
      <trkpt lat="47.94966" lon="6.92261">
        <ele>1099</ele>
        <time>2023-05-07T14:35:06Z</time>
      </trkpt>
      <trkpt lat="47.94961" lon="6.92256">
        <ele>1099</ele>
        <time>2023-05-07T14:35:13Z</time>
      </trkpt>
      <trkpt lat="47.94958" lon="6.92251">
        <ele>1099</ele>
        <time>2023-05-07T14:35:21Z</time>
      </trkpt>
      <trkpt lat="47.94953" lon="6.92246">
        <ele>1098</ele>
        <time>2023-05-07T14:35:27Z</time>
      </trkpt>
      <trkpt lat="47.94948" lon="6.92245">
        <ele>1098</ele>
        <time>2023-05-07T14:35:30Z</time>
      </trkpt>
      <trkpt lat="47.94944" lon="6.92245">
        <ele>1098</ele>
        <time>2023-05-07T14:35:34Z</time>
      </trkpt>
      <trkpt lat="47.94937" lon="6.92242">
        <ele>1099</ele>
        <time>2023-05-07T14:35:43Z</time>
      </trkpt>
      <trkpt lat="47.94932" lon="6.92247">
        <ele>1100</ele>
        <time>2023-05-07T14:35:50Z</time>
      </trkpt>
      <trkpt lat="47.94927" lon="6.92261">
        <ele>1103</ele>
        <time>2023-05-07T14:36:03Z</time>
      </trkpt>
      <trkpt lat="47.94927" lon="6.92279">
        <ele>1104</ele>
        <time>2023-05-07T14:36:14Z</time>
      </trkpt>
      <trkpt lat="47.94922" lon="6.92285">
        <ele>1105</ele>
        <time>2023-05-07T14:36:22Z</time>
      </trkpt>
      <trkpt lat="47.9492" lon="6.92292">
        <ele>1106</ele>
        <time>2023-05-07T14:36:26Z</time>
      </trkpt>
      <trkpt lat="47.94919" lon="6.923">
        <ele>1106</ele>
        <time>2023-05-07T14:36:30Z</time>
      </trkpt>
      <trkpt lat="47.94917" lon="6.92306">
        <ele>1107</ele>
        <time>2023-05-07T14:36:34Z</time>
      </trkpt>
      <trkpt lat="47.94916" lon="6.92312">
        <ele>1108</ele>
        <time>2023-05-07T14:36:49Z</time>
      </trkpt>
      <trkpt lat="47.94914" lon="6.92317">
        <ele>1108</ele>
        <time>2023-05-07T14:36:54Z</time>
      </trkpt>
      <trkpt lat="47.9491" lon="6.92323">
        <ele>1109</ele>
        <time>2023-05-07T14:36:59Z</time>
      </trkpt>
      <trkpt lat="47.94905" lon="6.92334">
        <ele>1109</ele>
        <time>2023-05-07T14:37:07Z</time>
      </trkpt>
      <trkpt lat="47.94901" lon="6.92337">
        <ele>1110</ele>
        <time>2023-05-07T14:37:12Z</time>
      </trkpt>
      <trkpt lat="47.94896" lon="6.92336">
        <ele>1112</ele>
        <time>2023-05-07T14:37:20Z</time>
      </trkpt>
      <trkpt lat="47.94894" lon="6.9233">
        <ele>1112</ele>
        <time>2023-05-07T14:37:25Z</time>
      </trkpt>
      <trkpt lat="47.94894" lon="6.92323">
        <ele>1113</ele>
        <time>2023-05-07T14:37:29Z</time>
      </trkpt>
      <trkpt lat="47.94899" lon="6.92293">
        <ele>1115</ele>
        <time>2023-05-07T14:37:51Z</time>
      </trkpt>
      <trkpt lat="47.94898" lon="6.92286">
        <ele>1116</ele>
        <time>2023-05-07T14:37:57Z</time>
      </trkpt>
      <trkpt lat="47.94898" lon="6.92279">
        <ele>1116</ele>
        <time>2023-05-07T14:38:03Z</time>
      </trkpt>
      <trkpt lat="47.94899" lon="6.92272">
        <ele>1118</ele>
        <time>2023-05-07T14:38:08Z</time>
      </trkpt>
      <trkpt lat="47.94896" lon="6.92258">
        <ele>1119</ele>
        <time>2023-05-07T14:38:17Z</time>
      </trkpt>
      <trkpt lat="47.94897" lon="6.92245">
        <ele>1120</ele>
        <time>2023-05-07T14:38:23Z</time>
      </trkpt>
      <trkpt lat="47.94895" lon="6.92236">
        <ele>1121</ele>
        <time>2023-05-07T14:38:32Z</time>
      </trkpt>
      <trkpt lat="47.9489" lon="6.92235">
        <ele>1122</ele>
        <time>2023-05-07T14:38:35Z</time>
      </trkpt>
      <trkpt lat="47.94887" lon="6.9224">
        <ele>1123</ele>
        <time>2023-05-07T14:38:39Z</time>
      </trkpt>
      <trkpt lat="47.94887" lon="6.92249">
        <ele>1124</ele>
        <time>2023-05-07T14:38:45Z</time>
      </trkpt>
      <trkpt lat="47.94883" lon="6.92264">
        <ele>1124</ele>
        <time>2023-05-07T14:38:55Z</time>
      </trkpt>
      <trkpt lat="47.94878" lon="6.92269">
        <ele>1125</ele>
        <time>2023-05-07T14:39:03Z</time>
      </trkpt>
      <trkpt lat="47.94874" lon="6.92276">
        <ele>1126</ele>
        <time>2023-05-07T14:39:07Z</time>
      </trkpt>
      <trkpt lat="47.94868" lon="6.92278">
        <ele>1126</ele>
        <time>2023-05-07T14:39:13Z</time>
      </trkpt>
      <trkpt lat="47.94859" lon="6.92286">
        <ele>1127</ele>
        <time>2023-05-07T14:39:23Z</time>
      </trkpt>
      <trkpt lat="47.94855" lon="6.9229">
        <ele>1128</ele>
        <time>2023-05-07T14:39:33Z</time>
      </trkpt>
      <trkpt lat="47.94848" lon="6.92292">
        <ele>1129</ele>
        <time>2023-05-07T14:39:44Z</time>
      </trkpt>
      <trkpt lat="47.9484" lon="6.92288">
        <ele>1130</ele>
        <time>2023-05-07T14:39:52Z</time>
      </trkpt>
      <trkpt lat="47.94834" lon="6.92287">
        <ele>1131</ele>
        <time>2023-05-07T14:39:57Z</time>
      </trkpt>
      <trkpt lat="47.94827" lon="6.92276">
        <ele>1132</ele>
        <time>2023-05-07T14:40:07Z</time>
      </trkpt>
      <trkpt lat="47.94825" lon="6.92269">
        <ele>1132</ele>
        <time>2023-05-07T14:40:10Z</time>
      </trkpt>
      <trkpt lat="47.94816" lon="6.92264">
        <ele>1133</ele>
        <time>2023-05-07T14:40:19Z</time>
      </trkpt>
      <trkpt lat="47.94813" lon="6.92259">
        <ele>1133</ele>
        <time>2023-05-07T14:40:23Z</time>
      </trkpt>
      <trkpt lat="47.94808" lon="6.9225">
        <ele>1133</ele>
        <time>2023-05-07T14:40:29Z</time>
      </trkpt>
      <trkpt lat="47.94801" lon="6.92243">
        <ele>1134</ele>
        <time>2023-05-07T14:40:37Z</time>
      </trkpt>
      <trkpt lat="47.94799" lon="6.92237">
        <ele>1134</ele>
        <time>2023-05-07T14:40:40Z</time>
      </trkpt>
      <trkpt lat="47.94793" lon="6.92231">
        <ele>1135</ele>
        <time>2023-05-07T14:40:48Z</time>
      </trkpt>
      <trkpt lat="47.94792" lon="6.92225">
        <ele>1136</ele>
        <time>2023-05-07T14:40:52Z</time>
      </trkpt>
      <trkpt lat="47.9479" lon="6.92218">
        <ele>1136</ele>
        <time>2023-05-07T14:40:59Z</time>
      </trkpt>
      <trkpt lat="47.94786" lon="6.92215">
        <ele>1136</ele>
        <time>2023-05-07T14:41:04Z</time>
      </trkpt>
      <trkpt lat="47.94768" lon="6.92189">
        <ele>1137</ele>
        <time>2023-05-07T14:41:23Z</time>
      </trkpt>
      <trkpt lat="47.94766" lon="6.92169">
        <ele>1137</ele>
        <time>2023-05-07T14:41:36Z</time>
      </trkpt>
      <trkpt lat="47.94756" lon="6.92141">
        <ele>1137</ele>
        <time>2023-05-07T14:41:51Z</time>
      </trkpt>
      <trkpt lat="47.94752" lon="6.92138">
        <ele>1138</ele>
        <time>2023-05-07T14:41:55Z</time>
      </trkpt>
      <trkpt lat="47.94749" lon="6.92132">
        <ele>1138</ele>
        <time>2023-05-07T14:41:59Z</time>
      </trkpt>
      <trkpt lat="47.9474" lon="6.92108">
        <ele>1140</ele>
        <time>2023-05-07T14:42:20Z</time>
      </trkpt>
      <trkpt lat="47.94736" lon="6.92104">
        <ele>1141</ele>
        <time>2023-05-07T14:42:27Z</time>
      </trkpt>
      <trkpt lat="47.9473" lon="6.92105">
        <ele>1142</ele>
        <time>2023-05-07T14:42:34Z</time>
      </trkpt>
      <trkpt lat="47.94721" lon="6.92101">
        <ele>1142</ele>
        <time>2023-05-07T14:42:43Z</time>
      </trkpt>
      <trkpt lat="47.94708" lon="6.92103">
        <ele>1144</ele>
        <time>2023-05-07T14:42:58Z</time>
      </trkpt>
      <trkpt lat="47.94703" lon="6.92102">
        <ele>1144</ele>
        <time>2023-05-07T14:43:03Z</time>
      </trkpt>
      <trkpt lat="47.94699" lon="6.92095">
        <ele>1145</ele>
        <time>2023-05-07T14:43:08Z</time>
      </trkpt>
      <trkpt lat="47.94697" lon="6.92087">
        <ele>1145</ele>
        <time>2023-05-07T14:43:13Z</time>
      </trkpt>
      <trkpt lat="47.94693" lon="6.92083">
        <ele>1145</ele>
        <time>2023-05-07T14:43:17Z</time>
      </trkpt>
      <trkpt lat="47.94683" lon="6.92073">
        <ele>1145</ele>
        <time>2023-05-07T14:43:28Z</time>
      </trkpt>
      <trkpt lat="47.94679" lon="6.9207">
        <ele>1145</ele>
        <time>2023-05-07T14:43:32Z</time>
      </trkpt>
      <trkpt lat="47.94675" lon="6.92069">
        <ele>1145</ele>
        <time>2023-05-07T14:43:36Z</time>
      </trkpt>
      <trkpt lat="47.94669" lon="6.92065">
        <ele>1146</ele>
        <time>2023-05-07T14:43:44Z</time>
      </trkpt>
      <trkpt lat="47.94659" lon="6.92063">
        <ele>1146</ele>
        <time>2023-05-07T14:43:52Z</time>
      </trkpt>
      <trkpt lat="47.94653" lon="6.92062">
        <ele>1147</ele>
        <time>2023-05-07T14:43:58Z</time>
      </trkpt>
      <trkpt lat="47.94648" lon="6.92063">
        <ele>1147</ele>
        <time>2023-05-07T14:44:02Z</time>
      </trkpt>
      <trkpt lat="47.94644" lon="6.92059">
        <ele>1147</ele>
        <time>2023-05-07T14:44:07Z</time>
      </trkpt>
      <trkpt lat="47.94625" lon="6.92054">
        <ele>1149</ele>
        <time>2023-05-07T14:44:25Z</time>
      </trkpt>
      <trkpt lat="47.9462" lon="6.92057">
        <ele>1149</ele>
        <time>2023-05-07T14:44:29Z</time>
      </trkpt>
      <trkpt lat="47.94611" lon="6.92054">
        <ele>1150</ele>
        <time>2023-05-07T14:44:37Z</time>
      </trkpt>
      <trkpt lat="47.94602" lon="6.92048">
        <ele>1150</ele>
        <time>2023-05-07T14:44:46Z</time>
      </trkpt>
      <trkpt lat="47.94595" lon="6.92048">
        <ele>1150</ele>
        <time>2023-05-07T14:44:53Z</time>
      </trkpt>
      <trkpt lat="47.94586" lon="6.92049">
        <ele>1151</ele>
        <time>2023-05-07T14:45:01Z</time>
      </trkpt>
      <trkpt lat="47.94581" lon="6.92047">
        <ele>1151</ele>
        <time>2023-05-07T14:45:05Z</time>
      </trkpt>
      <trkpt lat="47.94576" lon="6.92044">
        <ele>1151</ele>
        <time>2023-05-07T14:45:13Z</time>
      </trkpt>
      <trkpt lat="47.94576" lon="6.92031">
        <ele>1150</ele>
        <time>2023-05-07T14:45:56Z</time>
      </trkpt>
      <trkpt lat="47.94574" lon="6.92034">
        <ele>1150</ele>
        <time>2023-05-07T14:46:41Z</time>
      </trkpt>
      <trkpt lat="47.94573" lon="6.92031">
        <ele>1149</ele>
        <time>2023-05-07T14:47:14Z</time>
      </trkpt>
      <trkpt lat="47.94576" lon="6.92016">
        <ele>1149</ele>
        <time>2023-05-07T14:47:25Z</time>
      </trkpt>
      <trkpt lat="47.94581" lon="6.92007">
        <ele>1149</ele>
        <time>2023-05-07T14:48:03Z</time>
      </trkpt>
      <trkpt lat="47.94576" lon="6.92007">
        <ele>1149</ele>
        <time>2023-05-07T14:48:07Z</time>
      </trkpt>
      <trkpt lat="47.94571" lon="6.92009">
        <ele>1148</ele>
        <time>2023-05-07T14:48:10Z</time>
      </trkpt>
      <trkpt lat="47.94567" lon="6.92007">
        <ele>1147</ele>
        <time>2023-05-07T14:48:13Z</time>
      </trkpt>
      <trkpt lat="47.94565" lon="6.92">
        <ele>1146</ele>
        <time>2023-05-07T14:48:17Z</time>
      </trkpt>
      <trkpt lat="47.9456" lon="6.91993">
        <ele>1145</ele>
        <time>2023-05-07T14:48:23Z</time>
      </trkpt>
      <trkpt lat="47.94554" lon="6.91994">
        <ele>1144</ele>
        <time>2023-05-07T14:48:30Z</time>
      </trkpt>
      <trkpt lat="47.94551" lon="6.92004">
        <ele>1145</ele>
        <time>2023-05-07T14:48:38Z</time>
      </trkpt>
      <trkpt lat="47.94547" lon="6.92009">
        <ele>1145</ele>
        <time>2023-05-07T14:48:41Z</time>
      </trkpt>
      <trkpt lat="47.94542" lon="6.92009">
        <ele>1145</ele>
        <time>2023-05-07T14:48:45Z</time>
      </trkpt>
      <trkpt lat="47.94533" lon="6.92007">
        <ele>1145</ele>
        <time>2023-05-07T14:48:53Z</time>
      </trkpt>
      <trkpt lat="47.94528" lon="6.92004">
        <ele>1145</ele>
        <time>2023-05-07T14:48:58Z</time>
      </trkpt>
      <trkpt lat="47.94524" lon="6.92004">
        <ele>1145</ele>
        <time>2023-05-07T14:49:02Z</time>
      </trkpt>
      <trkpt lat="47.94508" lon="6.92001">
        <ele>1144</ele>
        <time>2023-05-07T14:49:17Z</time>
      </trkpt>
      <trkpt lat="47.94498" lon="6.91996">
        <ele>1145</ele>
        <time>2023-05-07T14:49:27Z</time>
      </trkpt>
      <trkpt lat="47.94494" lon="6.91993">
        <ele>1145</ele>
        <time>2023-05-07T14:49:31Z</time>
      </trkpt>
      <trkpt lat="47.94486" lon="6.91982">
        <ele>1143</ele>
        <time>2023-05-07T14:49:42Z</time>
      </trkpt>
      <trkpt lat="47.94477" lon="6.91975">
        <ele>1142</ele>
        <time>2023-05-07T14:49:51Z</time>
      </trkpt>
      <trkpt lat="47.94474" lon="6.91971">
        <ele>1142</ele>
        <time>2023-05-07T14:49:55Z</time>
      </trkpt>
      <trkpt lat="47.9447" lon="6.91968">
        <ele>1142</ele>
        <time>2023-05-07T14:50:00Z</time>
      </trkpt>
      <trkpt lat="47.94466" lon="6.91962">
        <ele>1142</ele>
        <time>2023-05-07T14:50:05Z</time>
      </trkpt>
      <trkpt lat="47.94447" lon="6.91953">
        <ele>1142</ele>
        <time>2023-05-07T14:50:22Z</time>
      </trkpt>
      <trkpt lat="47.94439" lon="6.9195">
        <ele>1142</ele>
        <time>2023-05-07T14:50:30Z</time>
      </trkpt>
      <trkpt lat="47.94435" lon="6.91948">
        <ele>1142</ele>
        <time>2023-05-07T14:50:34Z</time>
      </trkpt>
      <trkpt lat="47.9443" lon="6.91949">
        <ele>1141</ele>
        <time>2023-05-07T14:50:39Z</time>
      </trkpt>
      <trkpt lat="47.94422" lon="6.91955">
        <ele>1140</ele>
        <time>2023-05-07T14:50:48Z</time>
      </trkpt>
      <trkpt lat="47.94419" lon="6.91961">
        <ele>1139</ele>
        <time>2023-05-07T14:50:53Z</time>
      </trkpt>
      <trkpt lat="47.94421" lon="6.91967">
        <ele>1139</ele>
        <time>2023-05-07T14:50:56Z</time>
      </trkpt>
      <trkpt lat="47.9442" lon="6.91988">
        <ele>1137</ele>
        <time>2023-05-07T14:51:11Z</time>
      </trkpt>
      <trkpt lat="47.94418" lon="6.91994">
        <ele>1136</ele>
        <time>2023-05-07T14:51:16Z</time>
      </trkpt>
      <trkpt lat="47.94414" lon="6.91995">
        <ele>1136</ele>
        <time>2023-05-07T14:51:28Z</time>
      </trkpt>
      <trkpt lat="47.94407" lon="6.91989">
        <ele>1133</ele>
        <time>2023-05-07T14:51:40Z</time>
      </trkpt>
      <trkpt lat="47.94398" lon="6.91989">
        <ele>1131</ele>
        <time>2023-05-07T14:51:48Z</time>
      </trkpt>
      <trkpt lat="47.944" lon="6.91998">
        <ele>1130</ele>
        <time>2023-05-07T14:52:01Z</time>
      </trkpt>
      <trkpt lat="47.94402" lon="6.92005">
        <ele>1128</ele>
        <time>2023-05-07T14:52:12Z</time>
      </trkpt>
      <trkpt lat="47.94397" lon="6.92005">
        <ele>1127</ele>
        <time>2023-05-07T14:52:16Z</time>
      </trkpt>
      <trkpt lat="47.94393" lon="6.92004">
        <ele>1127</ele>
        <time>2023-05-07T14:52:20Z</time>
      </trkpt>
      <trkpt lat="47.94387" lon="6.92005">
        <ele>1125</ele>
        <time>2023-05-07T14:52:28Z</time>
      </trkpt>
      <trkpt lat="47.94389" lon="6.92011">
        <ele>1124</ele>
        <time>2023-05-07T14:52:34Z</time>
      </trkpt>
      <trkpt lat="47.94401" lon="6.92013">
        <ele>1121</ele>
        <time>2023-05-07T14:52:52Z</time>
      </trkpt>
      <trkpt lat="47.94395" lon="6.92018">
        <ele>1119</ele>
        <time>2023-05-07T14:53:02Z</time>
      </trkpt>
      <trkpt lat="47.94389" lon="6.92022">
        <ele>1118</ele>
        <time>2023-05-07T14:53:10Z</time>
      </trkpt>
      <trkpt lat="47.94398" lon="6.92023">
        <ele>1115</ele>
        <time>2023-05-07T14:53:21Z</time>
      </trkpt>
      <trkpt lat="47.94393" lon="6.92029">
        <ele>1113</ele>
        <time>2023-05-07T14:53:34Z</time>
      </trkpt>
      <trkpt lat="47.9439" lon="6.92033">
        <ele>1112</ele>
        <time>2023-05-07T14:53:38Z</time>
      </trkpt>
      <trkpt lat="47.94377" lon="6.92036">
        <ele>1110</ele>
        <time>2023-05-07T14:53:51Z</time>
      </trkpt>
      <trkpt lat="47.94371" lon="6.92039">
        <ele>1107</ele>
        <time>2023-05-07T14:54:06Z</time>
      </trkpt>
      <trkpt lat="47.94377" lon="6.92049">
        <ele>1105</ele>
        <time>2023-05-07T14:54:20Z</time>
      </trkpt>
      <trkpt lat="47.9438" lon="6.92056">
        <ele>1103</ele>
        <time>2023-05-07T14:54:29Z</time>
      </trkpt>
      <trkpt lat="47.94375" lon="6.92057">
        <ele>1103</ele>
        <time>2023-05-07T14:54:33Z</time>
      </trkpt>
      <trkpt lat="47.94366" lon="6.92063">
        <ele>1102</ele>
        <time>2023-05-07T14:54:41Z</time>
      </trkpt>
      <trkpt lat="47.94361" lon="6.9206">
        <ele>1102</ele>
        <time>2023-05-07T14:54:45Z</time>
      </trkpt>
      <trkpt lat="47.94349" lon="6.92049">
        <ele>1100</ele>
        <time>2023-05-07T14:54:57Z</time>
      </trkpt>
      <trkpt lat="47.94342" lon="6.92037">
        <ele>1098</ele>
        <time>2023-05-07T14:55:07Z</time>
      </trkpt>
      <trkpt lat="47.94338" lon="6.9204">
        <ele>1098</ele>
        <time>2023-05-07T14:55:11Z</time>
      </trkpt>
      <trkpt lat="47.94338" lon="6.92058">
        <ele>1096</ele>
        <time>2023-05-07T14:55:21Z</time>
      </trkpt>
      <trkpt lat="47.9434" lon="6.92083">
        <ele>1093</ele>
        <time>2023-05-07T14:55:39Z</time>
      </trkpt>
      <trkpt lat="47.94337" lon="6.92087">
        <ele>1093</ele>
        <time>2023-05-07T14:55:44Z</time>
      </trkpt>
      <trkpt lat="47.94336" lon="6.92096">
        <ele>1091</ele>
        <time>2023-05-07T14:55:50Z</time>
      </trkpt>
      <trkpt lat="47.94333" lon="6.92109">
        <ele>1090</ele>
        <time>2023-05-07T14:55:58Z</time>
      </trkpt>
      <trkpt lat="47.94329" lon="6.92113">
        <ele>1090</ele>
        <time>2023-05-07T14:56:02Z</time>
      </trkpt>
      <trkpt lat="47.94325" lon="6.92112">
        <ele>1089</ele>
        <time>2023-05-07T14:56:06Z</time>
      </trkpt>
      <trkpt lat="47.94316" lon="6.92116">
        <ele>1088</ele>
        <time>2023-05-07T14:56:15Z</time>
      </trkpt>
      <trkpt lat="47.94298" lon="6.92128">
        <ele>1085</ele>
        <time>2023-05-07T14:56:35Z</time>
      </trkpt>
      <trkpt lat="47.94297" lon="6.92134">
        <ele>1083</ele>
        <time>2023-05-07T14:56:40Z</time>
      </trkpt>
      <trkpt lat="47.94297" lon="6.92142">
        <ele>1083</ele>
        <time>2023-05-07T14:56:45Z</time>
      </trkpt>
      <trkpt lat="47.94299" lon="6.92147">
        <ele>1082</ele>
        <time>2023-05-07T14:56:50Z</time>
      </trkpt>
      <trkpt lat="47.94291" lon="6.92152">
        <ele>1080</ele>
        <time>2023-05-07T14:57:03Z</time>
      </trkpt>
      <trkpt lat="47.94278" lon="6.92149">
        <ele>1078</ele>
        <time>2023-05-07T14:57:15Z</time>
      </trkpt>
      <trkpt lat="47.94265" lon="6.92151">
        <ele>1076</ele>
        <time>2023-05-07T14:57:26Z</time>
      </trkpt>
      <trkpt lat="47.94253" lon="6.92155">
        <ele>1075</ele>
        <time>2023-05-07T14:57:36Z</time>
      </trkpt>
      <trkpt lat="47.94245" lon="6.92163">
        <ele>1075</ele>
        <time>2023-05-07T14:57:44Z</time>
      </trkpt>
      <trkpt lat="47.94241" lon="6.92165">
        <ele>1075</ele>
        <time>2023-05-07T14:57:48Z</time>
      </trkpt>
      <trkpt lat="47.94236" lon="6.92168">
        <ele>1075</ele>
        <time>2023-05-07T14:57:54Z</time>
      </trkpt>
      <trkpt lat="47.94231" lon="6.92169">
        <ele>1076</ele>
        <time>2023-05-07T14:57:58Z</time>
      </trkpt>
      <trkpt lat="47.94226" lon="6.92168">
        <ele>1075</ele>
        <time>2023-05-07T14:58:02Z</time>
      </trkpt>
      <trkpt lat="47.94215" lon="6.92165">
        <ele>1073</ele>
        <time>2023-05-07T14:58:11Z</time>
      </trkpt>
      <trkpt lat="47.94212" lon="6.92162">
        <ele>1073</ele>
        <time>2023-05-07T14:58:15Z</time>
      </trkpt>
      <trkpt lat="47.94197" lon="6.9216">
        <ele>1071</ele>
        <time>2023-05-07T14:58:29Z</time>
      </trkpt>
      <trkpt lat="47.94193" lon="6.92163">
        <ele>1070</ele>
        <time>2023-05-07T14:58:33Z</time>
      </trkpt>
      <trkpt lat="47.9419" lon="6.92169">
        <ele>1070</ele>
        <time>2023-05-07T14:58:37Z</time>
      </trkpt>
      <trkpt lat="47.94178" lon="6.92179">
        <ele>1070</ele>
        <time>2023-05-07T14:58:48Z</time>
      </trkpt>
      <trkpt lat="47.94174" lon="6.92175">
        <ele>1069</ele>
        <time>2023-05-07T14:58:51Z</time>
      </trkpt>
      <trkpt lat="47.94172" lon="6.9217">
        <ele>1069</ele>
        <time>2023-05-07T14:58:54Z</time>
      </trkpt>
      <trkpt lat="47.94168" lon="6.92161">
        <ele>1069</ele>
        <time>2023-05-07T14:59:00Z</time>
      </trkpt>
      <trkpt lat="47.94165" lon="6.92156">
        <ele>1069</ele>
        <time>2023-05-07T14:59:04Z</time>
      </trkpt>
      <trkpt lat="47.94154" lon="6.92131">
        <ele>1069</ele>
        <time>2023-05-07T14:59:20Z</time>
      </trkpt>
      <trkpt lat="47.94145" lon="6.9212">
        <ele>1068</ele>
        <time>2023-05-07T14:59:28Z</time>
      </trkpt>
      <trkpt lat="47.94119" lon="6.92087">
        <ele>1068</ele>
        <time>2023-05-07T14:59:55Z</time>
      </trkpt>
      <trkpt lat="47.94099" lon="6.92064">
        <ele>1068</ele>
        <time>2023-05-07T15:00:26Z</time>
      </trkpt>
      <trkpt lat="47.94095" lon="6.92062">
        <ele>1068</ele>
        <time>2023-05-07T15:00:31Z</time>
      </trkpt>
      <trkpt lat="47.94085" lon="6.92057">
        <ele>1067</ele>
        <time>2023-05-07T15:00:40Z</time>
      </trkpt>
      <trkpt lat="47.94081" lon="6.92055">
        <ele>1067</ele>
        <time>2023-05-07T15:00:44Z</time>
      </trkpt>
      <trkpt lat="47.94066" lon="6.92056">
        <ele>1066</ele>
        <time>2023-05-07T15:00:57Z</time>
      </trkpt>
      <trkpt lat="47.94061" lon="6.92057">
        <ele>1065</ele>
        <time>2023-05-07T15:01:01Z</time>
      </trkpt>
      <trkpt lat="47.94052" lon="6.92055">
        <ele>1064</ele>
        <time>2023-05-07T15:01:10Z</time>
      </trkpt>
      <trkpt lat="47.94048" lon="6.92053">
        <ele>1064</ele>
        <time>2023-05-07T15:01:14Z</time>
      </trkpt>
      <trkpt lat="47.94043" lon="6.92049">
        <ele>1063</ele>
        <time>2023-05-07T15:01:20Z</time>
      </trkpt>
      <trkpt lat="47.94039" lon="6.92047">
        <ele>1063</ele>
        <time>2023-05-07T15:01:24Z</time>
      </trkpt>
      <trkpt lat="47.9403" lon="6.9205">
        <ele>1061</ele>
        <time>2023-05-07T15:01:31Z</time>
      </trkpt>
      <trkpt lat="47.94021" lon="6.92046">
        <ele>1060</ele>
        <time>2023-05-07T15:01:38Z</time>
      </trkpt>
      <trkpt lat="47.94016" lon="6.92043">
        <ele>1059</ele>
        <time>2023-05-07T15:01:42Z</time>
      </trkpt>
      <trkpt lat="47.93997" lon="6.92042">
        <ele>1059</ele>
        <time>2023-05-07T15:01:58Z</time>
      </trkpt>
      <trkpt lat="47.93971" lon="6.92054">
        <ele>1058</ele>
        <time>2023-05-07T15:02:31Z</time>
      </trkpt>
      <trkpt lat="47.93947" lon="6.9207">
        <ele>1058</ele>
        <time>2023-05-07T15:02:52Z</time>
      </trkpt>
      <trkpt lat="47.93938" lon="6.92074">
        <ele>1057</ele>
        <time>2023-05-07T15:03:00Z</time>
      </trkpt>
      <trkpt lat="47.93921" lon="6.9209">
        <ele>1056</ele>
        <time>2023-05-07T15:03:16Z</time>
      </trkpt>
      <trkpt lat="47.93914" lon="6.921">
        <ele>1055</ele>
        <time>2023-05-07T15:03:25Z</time>
      </trkpt>
      <trkpt lat="47.9391" lon="6.92103">
        <ele>1054</ele>
        <time>2023-05-07T15:03:29Z</time>
      </trkpt>
      <trkpt lat="47.93907" lon="6.92108">
        <ele>1054</ele>
        <time>2023-05-07T15:03:33Z</time>
      </trkpt>
      <trkpt lat="47.93903" lon="6.92112">
        <ele>1054</ele>
        <time>2023-05-07T15:03:37Z</time>
      </trkpt>
      <trkpt lat="47.93899" lon="6.92119">
        <ele>1053</ele>
        <time>2023-05-07T15:03:45Z</time>
      </trkpt>
      <trkpt lat="47.93896" lon="6.92123">
        <ele>1053</ele>
        <time>2023-05-07T15:03:50Z</time>
      </trkpt>
      <trkpt lat="47.93892" lon="6.92132">
        <ele>1053</ele>
        <time>2023-05-07T15:03:58Z</time>
      </trkpt>
      <trkpt lat="47.93894" lon="6.92142">
        <ele>1053</ele>
        <time>2023-05-07T15:04:06Z</time>
      </trkpt>
      <trkpt lat="47.93893" lon="6.92149">
        <ele>1053</ele>
        <time>2023-05-07T15:04:32Z</time>
      </trkpt>
      <trkpt lat="47.93889" lon="6.92153">
        <ele>1053</ele>
        <time>2023-05-07T15:05:08Z</time>
      </trkpt>
      <trkpt lat="47.93886" lon="6.92166">
        <ele>1052</ele>
        <time>2023-05-07T15:05:19Z</time>
      </trkpt>
      <trkpt lat="47.93882" lon="6.92187">
        <ele>1052</ele>
        <time>2023-05-07T15:05:33Z</time>
      </trkpt>
      <trkpt lat="47.93882" lon="6.92194">
        <ele>1052</ele>
        <time>2023-05-07T15:05:37Z</time>
      </trkpt>
      <trkpt lat="47.93877" lon="6.92208">
        <ele>1052</ele>
        <time>2023-05-07T15:05:45Z</time>
      </trkpt>
      <trkpt lat="47.93874" lon="6.92212">
        <ele>1051</ele>
        <time>2023-05-07T15:05:49Z</time>
      </trkpt>
      <trkpt lat="47.93868" lon="6.92212">
        <ele>1052</ele>
        <time>2023-05-07T15:05:57Z</time>
      </trkpt>
      <trkpt lat="47.93848" lon="6.92209">
        <ele>1052</ele>
        <time>2023-05-07T15:06:18Z</time>
      </trkpt>
      <trkpt lat="47.93843" lon="6.9221">
        <ele>1052</ele>
        <time>2023-05-07T15:06:22Z</time>
      </trkpt>
      <trkpt lat="47.93827" lon="6.92207">
        <ele>1053</ele>
        <time>2023-05-07T15:06:38Z</time>
      </trkpt>
      <trkpt lat="47.93822" lon="6.92205">
        <ele>1054</ele>
        <time>2023-05-07T15:06:45Z</time>
      </trkpt>
      <trkpt lat="47.93817" lon="6.92206">
        <ele>1054</ele>
        <time>2023-05-07T15:06:51Z</time>
      </trkpt>
      <trkpt lat="47.93806" lon="6.9221">
        <ele>1055</ele>
        <time>2023-05-07T15:07:01Z</time>
      </trkpt>
      <trkpt lat="47.93796" lon="6.9221">
        <ele>1058</ele>
        <time>2023-05-07T15:07:15Z</time>
      </trkpt>
      <trkpt lat="47.93792" lon="6.92214">
        <ele>1058</ele>
        <time>2023-05-07T15:07:18Z</time>
      </trkpt>
      <trkpt lat="47.93787" lon="6.92227">
        <ele>1060</ele>
        <time>2023-05-07T15:07:30Z</time>
      </trkpt>
      <trkpt lat="47.93787" lon="6.92233">
        <ele>1061</ele>
        <time>2023-05-07T15:07:36Z</time>
      </trkpt>
      <trkpt lat="47.93779" lon="6.92269">
        <ele>1064</ele>
        <time>2023-05-07T15:08:00Z</time>
      </trkpt>
      <trkpt lat="47.93769" lon="6.92239">
        <ele>1068</ele>
        <time>2023-05-07T15:08:30Z</time>
      </trkpt>
      <trkpt lat="47.9377" lon="6.92225">
        <ele>1069</ele>
        <time>2023-05-07T15:08:39Z</time>
      </trkpt>
      <trkpt lat="47.93765" lon="6.92215">
        <ele>1070</ele>
        <time>2023-05-07T15:08:47Z</time>
      </trkpt>
      <trkpt lat="47.93762" lon="6.92221">
        <ele>1072</ele>
        <time>2023-05-07T15:09:06Z</time>
      </trkpt>
      <trkpt lat="47.93761" lon="6.92241">
        <ele>1074</ele>
        <time>2023-05-07T15:09:23Z</time>
      </trkpt>
      <trkpt lat="47.93755" lon="6.92252">
        <ele>1075</ele>
        <time>2023-05-07T15:09:33Z</time>
      </trkpt>
      <trkpt lat="47.93753" lon="6.92259">
        <ele>1075</ele>
        <time>2023-05-07T15:09:38Z</time>
      </trkpt>
      <trkpt lat="47.9375" lon="6.92263">
        <ele>1075</ele>
        <time>2023-05-07T15:09:43Z</time>
      </trkpt>
      <trkpt lat="47.93746" lon="6.92269">
        <ele>1076</ele>
        <time>2023-05-07T15:09:47Z</time>
      </trkpt>
      <trkpt lat="47.93742" lon="6.92273">
        <ele>1079</ele>
        <time>2023-05-07T15:09:51Z</time>
      </trkpt>
      <trkpt lat="47.93741" lon="6.92266">
        <ele>1079</ele>
        <time>2023-05-07T15:10:03Z</time>
      </trkpt>
      <trkpt lat="47.93742" lon="6.92257">
        <ele>1078</ele>
        <time>2023-05-07T15:10:10Z</time>
      </trkpt>
      <trkpt lat="47.9374" lon="6.92248">
        <ele>1079</ele>
        <time>2023-05-07T15:10:19Z</time>
      </trkpt>
      <trkpt lat="47.93739" lon="6.92241">
        <ele>1079</ele>
        <time>2023-05-07T15:10:24Z</time>
      </trkpt>
      <trkpt lat="47.93733" lon="6.92226">
        <ele>1081</ele>
        <time>2023-05-07T15:10:38Z</time>
      </trkpt>
      <trkpt lat="47.93729" lon="6.9223">
        <ele>1082</ele>
        <time>2023-05-07T15:10:46Z</time>
      </trkpt>
      <trkpt lat="47.93716" lon="6.92234">
        <ele>1086</ele>
        <time>2023-05-07T15:11:04Z</time>
      </trkpt>
      <trkpt lat="47.93714" lon="6.92244">
        <ele>1088</ele>
        <time>2023-05-07T15:11:13Z</time>
      </trkpt>
      <trkpt lat="47.9371" lon="6.92267">
        <ele>1091</ele>
        <time>2023-05-07T15:11:30Z</time>
      </trkpt>
      <trkpt lat="47.93711" lon="6.92276">
        <ele>1092</ele>
        <time>2023-05-07T15:11:37Z</time>
      </trkpt>
      <trkpt lat="47.93714" lon="6.92281">
        <ele>1092</ele>
        <time>2023-05-07T15:11:41Z</time>
      </trkpt>
      <trkpt lat="47.93714" lon="6.92289">
        <ele>1093</ele>
        <time>2023-05-07T15:11:46Z</time>
      </trkpt>
      <trkpt lat="47.93717" lon="6.92302">
        <ele>1094</ele>
        <time>2023-05-07T15:11:55Z</time>
      </trkpt>
      <trkpt lat="47.93717" lon="6.92312">
        <ele>1095</ele>
        <time>2023-05-07T15:12:01Z</time>
      </trkpt>
      <trkpt lat="47.93713" lon="6.92317">
        <ele>1096</ele>
        <time>2023-05-07T15:12:06Z</time>
      </trkpt>
      <trkpt lat="47.93709" lon="6.92309">
        <ele>1098</ele>
        <time>2023-05-07T15:12:15Z</time>
      </trkpt>
      <trkpt lat="47.93706" lon="6.92303">
        <ele>1098</ele>
        <time>2023-05-07T15:12:20Z</time>
      </trkpt>
      <trkpt lat="47.937" lon="6.92293">
        <ele>1099</ele>
        <time>2023-05-07T15:12:29Z</time>
      </trkpt>
      <trkpt lat="47.9369" lon="6.92285">
        <ele>1101</ele>
        <time>2023-05-07T15:12:42Z</time>
      </trkpt>
      <trkpt lat="47.93685" lon="6.92284">
        <ele>1102</ele>
        <time>2023-05-07T15:12:47Z</time>
      </trkpt>
      <trkpt lat="47.93682" lon="6.92289">
        <ele>1103</ele>
        <time>2023-05-07T15:12:55Z</time>
      </trkpt>
      <trkpt lat="47.93683" lon="6.92296">
        <ele>1104</ele>
        <time>2023-05-07T15:13:01Z</time>
      </trkpt>
      <trkpt lat="47.93686" lon="6.92302">
        <ele>1105</ele>
        <time>2023-05-07T15:13:08Z</time>
      </trkpt>
      <trkpt lat="47.93687" lon="6.92314">
        <ele>1107</ele>
        <time>2023-05-07T15:13:17Z</time>
      </trkpt>
      <trkpt lat="47.93691" lon="6.92331">
        <ele>1108</ele>
        <time>2023-05-07T15:13:29Z</time>
      </trkpt>
      <trkpt lat="47.9369" lon="6.92337">
        <ele>1109</ele>
        <time>2023-05-07T15:13:34Z</time>
      </trkpt>
      <trkpt lat="47.93697" lon="6.92368">
        <ele>1111</ele>
        <time>2023-05-07T15:13:55Z</time>
      </trkpt>
      <trkpt lat="47.93691" lon="6.92367">
        <ele>1111</ele>
        <time>2023-05-07T15:13:59Z</time>
      </trkpt>
      <trkpt lat="47.93689" lon="6.92361">
        <ele>1112</ele>
        <time>2023-05-07T15:14:04Z</time>
      </trkpt>
      <trkpt lat="47.93681" lon="6.92355">
        <ele>1113</ele>
        <time>2023-05-07T15:14:12Z</time>
      </trkpt>
      <trkpt lat="47.93669" lon="6.9235">
        <ele>1116</ele>
        <time>2023-05-07T15:14:27Z</time>
      </trkpt>
      <trkpt lat="47.93658" lon="6.92339">
        <ele>1118</ele>
        <time>2023-05-07T15:14:41Z</time>
      </trkpt>
      <trkpt lat="47.9366" lon="6.92351">
        <ele>1120</ele>
        <time>2023-05-07T15:14:56Z</time>
      </trkpt>
      <trkpt lat="47.93671" lon="6.92377">
        <ele>1122</ele>
        <time>2023-05-07T15:15:17Z</time>
      </trkpt>
      <trkpt lat="47.9367" lon="6.92384">
        <ele>1123</ele>
        <time>2023-05-07T15:15:22Z</time>
      </trkpt>
      <trkpt lat="47.93661" lon="6.92385">
        <ele>1125</ele>
        <time>2023-05-07T15:15:31Z</time>
      </trkpt>
      <trkpt lat="47.93657" lon="6.92387">
        <ele>1125</ele>
        <time>2023-05-07T15:15:35Z</time>
      </trkpt>
      <trkpt lat="47.93644" lon="6.92418">
        <ele>1129</ele>
        <time>2023-05-07T15:15:58Z</time>
      </trkpt>
      <trkpt lat="47.93643" lon="6.92423">
        <ele>1131</ele>
        <time>2023-05-07T15:16:04Z</time>
      </trkpt>
      <trkpt lat="47.93639" lon="6.92428">
        <ele>1132</ele>
        <time>2023-05-07T15:16:10Z</time>
      </trkpt>
      <trkpt lat="47.93637" lon="6.92441">
        <ele>1135</ele>
        <time>2023-05-07T15:16:21Z</time>
      </trkpt>
      <trkpt lat="47.93628" lon="6.92461">
        <ele>1139</ele>
        <time>2023-05-07T15:16:44Z</time>
      </trkpt>
      <trkpt lat="47.93615" lon="6.92472">
        <ele>1141</ele>
        <time>2023-05-07T15:16:57Z</time>
      </trkpt>
      <trkpt lat="47.93587" lon="6.92475">
        <ele>1143</ele>
        <time>2023-05-07T15:17:22Z</time>
      </trkpt>
      <trkpt lat="47.93561" lon="6.92492">
        <ele>1144</ele>
        <time>2023-05-07T15:17:46Z</time>
      </trkpt>
      <trkpt lat="47.93525" lon="6.92492">
        <ele>1146</ele>
        <time>2023-05-07T15:18:17Z</time>
      </trkpt>
      <trkpt lat="47.93511" lon="6.92495">
        <ele>1147</ele>
        <time>2023-05-07T15:18:29Z</time>
      </trkpt>
      <trkpt lat="47.93498" lon="6.925">
        <ele>1147</ele>
        <time>2023-05-07T15:18:41Z</time>
      </trkpt>
      <trkpt lat="47.93466" lon="6.92503">
        <ele>1149</ele>
        <time>2023-05-07T15:19:10Z</time>
      </trkpt>
      <trkpt lat="47.93442" lon="6.92508">
        <ele>1148</ele>
        <time>2023-05-07T15:19:33Z</time>
      </trkpt>
      <trkpt lat="47.93409" lon="6.92505">
        <ele>1145</ele>
        <time>2023-05-07T15:20:03Z</time>
      </trkpt>
      <trkpt lat="47.93384" lon="6.92485">
        <ele>1142</ele>
        <time>2023-05-07T15:20:29Z</time>
      </trkpt>
      <trkpt lat="47.93377" lon="6.92476">
        <ele>1141</ele>
        <time>2023-05-07T15:20:38Z</time>
      </trkpt>
      <trkpt lat="47.93358" lon="6.9246">
        <ele>1139</ele>
        <time>2023-05-07T15:20:58Z</time>
      </trkpt>
      <trkpt lat="47.93354" lon="6.92456">
        <ele>1139</ele>
        <time>2023-05-07T15:21:02Z</time>
      </trkpt>
      <trkpt lat="47.93351" lon="6.92451">
        <ele>1139</ele>
        <time>2023-05-07T15:21:06Z</time>
      </trkpt>
      <trkpt lat="47.93342" lon="6.92446">
        <ele>1140</ele>
        <time>2023-05-07T15:21:14Z</time>
      </trkpt>
      <trkpt lat="47.93338" lon="6.92445">
        <ele>1140</ele>
        <time>2023-05-07T15:21:18Z</time>
      </trkpt>
      <trkpt lat="47.93326" lon="6.92437">
        <ele>1141</ele>
        <time>2023-05-07T15:21:31Z</time>
      </trkpt>
      <trkpt lat="47.93321" lon="6.92439">
        <ele>1141</ele>
        <time>2023-05-07T15:21:35Z</time>
      </trkpt>
      <trkpt lat="47.93318" lon="6.92433">
        <ele>1141</ele>
        <time>2023-05-07T15:21:40Z</time>
      </trkpt>
      <trkpt lat="47.93289" lon="6.92412">
        <ele>1145</ele>
        <time>2023-05-07T15:22:12Z</time>
      </trkpt>
      <trkpt lat="47.93276" lon="6.92404">
        <ele>1147</ele>
        <time>2023-05-07T15:22:26Z</time>
      </trkpt>
      <trkpt lat="47.93267" lon="6.92401">
        <ele>1148</ele>
        <time>2023-05-07T15:22:34Z</time>
      </trkpt>
      <trkpt lat="47.93261" lon="6.92396">
        <ele>1148</ele>
        <time>2023-05-07T15:22:41Z</time>
      </trkpt>
      <trkpt lat="47.93256" lon="6.92398">
        <ele>1149</ele>
        <time>2023-05-07T15:22:46Z</time>
      </trkpt>
      <trkpt lat="47.93246" lon="6.92399">
        <ele>1148</ele>
        <time>2023-05-07T15:22:54Z</time>
      </trkpt>
      <trkpt lat="47.93227" lon="6.92409">
        <ele>1148</ele>
        <time>2023-05-07T15:23:10Z</time>
      </trkpt>
      <trkpt lat="47.9319" lon="6.92431">
        <ele>1149</ele>
        <time>2023-05-07T15:23:43Z</time>
      </trkpt>
      <trkpt lat="47.93173" lon="6.92442">
        <ele>1150</ele>
        <time>2023-05-07T15:23:59Z</time>
      </trkpt>
      <trkpt lat="47.93168" lon="6.92443">
        <ele>1150</ele>
        <time>2023-05-07T15:24:03Z</time>
      </trkpt>
      <trkpt lat="47.93164" lon="6.92446">
        <ele>1150</ele>
        <time>2023-05-07T15:24:07Z</time>
      </trkpt>
      <trkpt lat="47.93151" lon="6.92455">
        <ele>1150</ele>
        <time>2023-05-07T15:24:19Z</time>
      </trkpt>
      <trkpt lat="47.93126" lon="6.92492">
        <ele>1152</ele>
        <time>2023-05-07T15:24:51Z</time>
      </trkpt>
      <trkpt lat="47.93108" lon="6.9253">
        <ele>1157</ele>
        <time>2023-05-07T15:25:24Z</time>
      </trkpt>
      <trkpt lat="47.93103" lon="6.92545">
        <ele>1159</ele>
        <time>2023-05-07T15:25:37Z</time>
      </trkpt>
      <trkpt lat="47.93099" lon="6.9255">
        <ele>1160</ele>
        <time>2023-05-07T15:25:43Z</time>
      </trkpt>
      <trkpt lat="47.93092" lon="6.92572">
        <ele>1165</ele>
        <time>2023-05-07T15:26:04Z</time>
      </trkpt>
      <trkpt lat="47.93089" lon="6.92577">
        <ele>1166</ele>
        <time>2023-05-07T15:26:09Z</time>
      </trkpt>
      <trkpt lat="47.93087" lon="6.92583">
        <ele>1167</ele>
        <time>2023-05-07T15:26:14Z</time>
      </trkpt>
      <trkpt lat="47.93084" lon="6.92587">
        <ele>1167</ele>
        <time>2023-05-07T15:26:19Z</time>
      </trkpt>
      <trkpt lat="47.93077" lon="6.92592">
        <ele>1167</ele>
        <time>2023-05-07T15:26:36Z</time>
      </trkpt>
      <trkpt lat="47.93072" lon="6.92592">
        <ele>1167</ele>
        <time>2023-05-07T15:26:40Z</time>
      </trkpt>
      <trkpt lat="47.93045" lon="6.92581">
        <ele>1165</ele>
        <time>2023-05-07T15:27:03Z</time>
      </trkpt>
      <trkpt lat="47.93028" lon="6.92569">
        <ele>1163</ele>
        <time>2023-05-07T15:27:20Z</time>
      </trkpt>
      <trkpt lat="47.93019" lon="6.92566">
        <ele>1161</ele>
        <time>2023-05-07T15:27:28Z</time>
      </trkpt>
      <trkpt lat="47.93009" lon="6.92559">
        <ele>1159</ele>
        <time>2023-05-07T15:27:39Z</time>
      </trkpt>
      <trkpt lat="47.93004" lon="6.92557">
        <ele>1158</ele>
        <time>2023-05-07T15:27:45Z</time>
      </trkpt>
      <trkpt lat="47.92982" lon="6.92544">
        <ele>1153</ele>
        <time>2023-05-07T15:28:09Z</time>
      </trkpt>
      <trkpt lat="47.92977" lon="6.92545">
        <ele>1152</ele>
        <time>2023-05-07T15:28:13Z</time>
      </trkpt>
      <trkpt lat="47.92972" lon="6.92543">
        <ele>1151</ele>
        <time>2023-05-07T15:28:18Z</time>
      </trkpt>
      <trkpt lat="47.92964" lon="6.92539">
        <ele>1149</ele>
        <time>2023-05-07T15:28:26Z</time>
      </trkpt>
      <trkpt lat="47.92959" lon="6.92538">
        <ele>1149</ele>
        <time>2023-05-07T15:28:31Z</time>
      </trkpt>
      <trkpt lat="47.92955" lon="6.9254">
        <ele>1148</ele>
        <time>2023-05-07T15:28:35Z</time>
      </trkpt>
      <trkpt lat="47.92948" lon="6.92534">
        <ele>1146</ele>
        <time>2023-05-07T15:28:43Z</time>
      </trkpt>
      <trkpt lat="47.92948" lon="6.92527">
        <ele>1145</ele>
        <time>2023-05-07T15:28:47Z</time>
      </trkpt>
      <trkpt lat="47.92945" lon="6.92522">
        <ele>1145</ele>
        <time>2023-05-07T15:28:50Z</time>
      </trkpt>
      <trkpt lat="47.92941" lon="6.92518">
        <ele>1144</ele>
        <time>2023-05-07T15:28:54Z</time>
      </trkpt>
      <trkpt lat="47.92937" lon="6.92516">
        <ele>1143</ele>
        <time>2023-05-07T15:28:58Z</time>
      </trkpt>
      <trkpt lat="47.92926" lon="6.92507">
        <ele>1140</ele>
        <time>2023-05-07T15:29:09Z</time>
      </trkpt>
      <trkpt lat="47.929" lon="6.92491">
        <ele>1136</ele>
        <time>2023-05-07T15:29:36Z</time>
      </trkpt>
      <trkpt lat="47.92887" lon="6.92479">
        <ele>1133</ele>
        <time>2023-05-07T15:29:50Z</time>
      </trkpt>
      <trkpt lat="47.92875" lon="6.92474">
        <ele>1130</ele>
        <time>2023-05-07T15:30:05Z</time>
      </trkpt>
      <trkpt lat="47.92859" lon="6.92469">
        <ele>1125</ele>
        <time>2023-05-07T15:31:40Z</time>
      </trkpt>
      <trkpt lat="47.92851" lon="6.92465">
        <ele>1123</ele>
        <time>2023-05-07T15:31:48Z</time>
      </trkpt>
      <trkpt lat="47.92814" lon="6.92449">
        <ele>1116</ele>
        <time>2023-05-07T15:32:23Z</time>
      </trkpt>
      <trkpt lat="47.92781" lon="6.92434">
        <ele>1111</ele>
        <time>2023-05-07T15:32:55Z</time>
      </trkpt>
      <trkpt lat="47.92776" lon="6.9243">
        <ele>1109</ele>
        <time>2023-05-07T15:32:59Z</time>
      </trkpt>
      <trkpt lat="47.92765" lon="6.92417">
        <ele>1108</ele>
        <time>2023-05-07T15:33:10Z</time>
      </trkpt>
      <trkpt lat="47.92763" lon="6.92411">
        <ele>1107</ele>
        <time>2023-05-07T15:33:14Z</time>
      </trkpt>
      <trkpt lat="47.9274" lon="6.92394">
        <ele>1102</ele>
        <time>2023-05-07T15:33:48Z</time>
      </trkpt>
      <trkpt lat="47.9274" lon="6.92387">
        <ele>1101</ele>
        <time>2023-05-07T15:33:53Z</time>
      </trkpt>
      <trkpt lat="47.92735" lon="6.92377">
        <ele>1098</ele>
        <time>2023-05-07T15:34:02Z</time>
      </trkpt>
      <trkpt lat="47.92705" lon="6.92347">
        <ele>1091</ele>
        <time>2023-05-07T15:34:35Z</time>
      </trkpt>
      <trkpt lat="47.92693" lon="6.92336">
        <ele>1088</ele>
        <time>2023-05-07T15:34:51Z</time>
      </trkpt>
      <trkpt lat="47.92689" lon="6.92327">
        <ele>1086</ele>
        <time>2023-05-07T15:35:03Z</time>
      </trkpt>
      <trkpt lat="47.92676" lon="6.92334">
        <ele>1081</ele>
        <time>2023-05-07T15:35:21Z</time>
      </trkpt>
      <trkpt lat="47.92671" lon="6.92334">
        <ele>1080</ele>
        <time>2023-05-07T15:35:27Z</time>
      </trkpt>
      <trkpt lat="47.92667" lon="6.92329">
        <ele>1078</ele>
        <time>2023-05-07T15:35:39Z</time>
      </trkpt>
      <trkpt lat="47.92661" lon="6.92319">
        <ele>1075</ele>
        <time>2023-05-07T15:35:49Z</time>
      </trkpt>
      <trkpt lat="47.92662" lon="6.92311">
        <ele>1075</ele>
        <time>2023-05-07T15:35:53Z</time>
      </trkpt>
      <trkpt lat="47.92664" lon="6.92303">
        <ele>1074</ele>
        <time>2023-05-07T15:35:57Z</time>
      </trkpt>
      <trkpt lat="47.92666" lon="6.92288">
        <ele>1074</ele>
        <time>2023-05-07T15:36:05Z</time>
      </trkpt>
      <trkpt lat="47.92668" lon="6.92282">
        <ele>1074</ele>
        <time>2023-05-07T15:36:11Z</time>
      </trkpt>
      <trkpt lat="47.92663" lon="6.92277">
        <ele>1070</ele>
        <time>2023-05-07T15:36:24Z</time>
      </trkpt>
      <trkpt lat="47.92657" lon="6.92276">
        <ele>1068</ele>
        <time>2023-05-07T15:36:37Z</time>
      </trkpt>
      <trkpt lat="47.92653" lon="6.92279">
        <ele>1067</ele>
        <time>2023-05-07T15:36:41Z</time>
      </trkpt>
      <trkpt lat="47.92649" lon="6.92272">
        <ele>1066</ele>
        <time>2023-05-07T15:36:48Z</time>
      </trkpt>
      <trkpt lat="47.92647" lon="6.92266">
        <ele>1064</ele>
        <time>2023-05-07T15:36:52Z</time>
      </trkpt>
      <trkpt lat="47.92645" lon="6.92259">
        <ele>1064</ele>
        <time>2023-05-07T15:36:56Z</time>
      </trkpt>
      <trkpt lat="47.92634" lon="6.92249">
        <ele>1060</ele>
        <time>2023-05-07T15:37:09Z</time>
      </trkpt>
      <trkpt lat="47.92631" lon="6.92244">
        <ele>1059</ele>
        <time>2023-05-07T15:37:13Z</time>
      </trkpt>
      <trkpt lat="47.92626" lon="6.92242">
        <ele>1058</ele>
        <time>2023-05-07T15:37:17Z</time>
      </trkpt>
      <trkpt lat="47.9262" lon="6.92241">
        <ele>1056</ele>
        <time>2023-05-07T15:37:23Z</time>
      </trkpt>
      <trkpt lat="47.9261" lon="6.92236">
        <ele>1054</ele>
        <time>2023-05-07T15:37:33Z</time>
      </trkpt>
      <trkpt lat="47.92596" lon="6.9224">
        <ele>1053</ele>
        <time>2023-05-07T15:37:46Z</time>
      </trkpt>
      <trkpt lat="47.92585" lon="6.92239">
        <ele>1052</ele>
        <time>2023-05-07T15:37:57Z</time>
      </trkpt>
      <trkpt lat="47.9258" lon="6.92237">
        <ele>1052</ele>
        <time>2023-05-07T15:38:02Z</time>
      </trkpt>
      <trkpt lat="47.92577" lon="6.92234">
        <ele>1051</ele>
        <time>2023-05-07T15:38:06Z</time>
      </trkpt>
      <trkpt lat="47.92572" lon="6.92215">
        <ele>1049</ele>
        <time>2023-05-07T15:38:21Z</time>
      </trkpt>
      <trkpt lat="47.92573" lon="6.92208">
        <ele>1048</ele>
        <time>2023-05-07T15:38:26Z</time>
      </trkpt>
      <trkpt lat="47.92576" lon="6.92201">
        <ele>1048</ele>
        <time>2023-05-07T15:38:30Z</time>
      </trkpt>
      <trkpt lat="47.92576" lon="6.92187">
        <ele>1046</ele>
        <time>2023-05-07T15:38:37Z</time>
      </trkpt>
      <trkpt lat="47.92578" lon="6.92182">
        <ele>1045</ele>
        <time>2023-05-07T15:38:41Z</time>
      </trkpt>
      <trkpt lat="47.92597" lon="6.92157">
        <ele>1042</ele>
        <time>2023-05-07T15:39:03Z</time>
      </trkpt>
      <trkpt lat="47.92603" lon="6.92154">
        <ele>1041</ele>
        <time>2023-05-07T15:39:09Z</time>
      </trkpt>
      <trkpt lat="47.92607" lon="6.92151">
        <ele>1040</ele>
        <time>2023-05-07T15:39:13Z</time>
      </trkpt>
      <trkpt lat="47.92631" lon="6.92143">
        <ele>1038</ele>
        <time>2023-05-07T15:39:34Z</time>
      </trkpt>
      <trkpt lat="47.92648" lon="6.92139">
        <ele>1036</ele>
        <time>2023-05-07T15:39:48Z</time>
      </trkpt>
      <trkpt lat="47.92652" lon="6.92136">
        <ele>1035</ele>
        <time>2023-05-07T15:39:53Z</time>
      </trkpt>
      <trkpt lat="47.92669" lon="6.92129">
        <ele>1033</ele>
        <time>2023-05-07T15:40:07Z</time>
      </trkpt>
      <trkpt lat="47.92663" lon="6.92129">
        <ele>1031</ele>
        <time>2023-05-07T15:40:19Z</time>
      </trkpt>
      <trkpt lat="47.92658" lon="6.9213">
        <ele>1030</ele>
        <time>2023-05-07T15:40:24Z</time>
      </trkpt>
      <trkpt lat="47.92644" lon="6.92131">
        <ele>1028</ele>
        <time>2023-05-07T15:40:35Z</time>
      </trkpt>
      <trkpt lat="47.9264" lon="6.92127">
        <ele>1028</ele>
        <time>2023-05-07T15:40:40Z</time>
      </trkpt>
      <trkpt lat="47.92627" lon="6.92107">
        <ele>1025</ele>
        <time>2023-05-07T15:41:00Z</time>
      </trkpt>
      <trkpt lat="47.92618" lon="6.921">
        <ele>1023</ele>
        <time>2023-05-07T15:41:08Z</time>
      </trkpt>
      <trkpt lat="47.92608" lon="6.92097">
        <ele>1022</ele>
        <time>2023-05-07T15:41:16Z</time>
      </trkpt>
      <trkpt lat="47.92603" lon="6.92093">
        <ele>1022</ele>
        <time>2023-05-07T15:41:21Z</time>
      </trkpt>
      <trkpt lat="47.92582" lon="6.92081">
        <ele>1018</ele>
        <time>2023-05-07T15:41:41Z</time>
      </trkpt>
      <trkpt lat="47.92576" lon="6.92081">
        <ele>1017</ele>
        <time>2023-05-07T15:41:46Z</time>
      </trkpt>
      <trkpt lat="47.92556" lon="6.92074">
        <ele>1015</ele>
        <time>2023-05-07T15:42:06Z</time>
      </trkpt>
      <trkpt lat="47.92553" lon="6.9207">
        <ele>1015</ele>
        <time>2023-05-07T15:42:09Z</time>
      </trkpt>
      <trkpt lat="47.9255" lon="6.92063">
        <ele>1014</ele>
        <time>2023-05-07T15:42:12Z</time>
      </trkpt>
      <trkpt lat="47.92555" lon="6.92062">
        <ele>1014</ele>
        <time>2023-05-07T15:42:15Z</time>
      </trkpt>
      <trkpt lat="47.92567" lon="6.9206">
        <ele>1012</ele>
        <time>2023-05-07T15:42:25Z</time>
      </trkpt>
      <trkpt lat="47.92571" lon="6.92057">
        <ele>1011</ele>
        <time>2023-05-07T15:42:30Z</time>
      </trkpt>
      <trkpt lat="47.92576" lon="6.92057">
        <ele>1011</ele>
        <time>2023-05-07T15:42:34Z</time>
      </trkpt>
      <trkpt lat="47.92598" lon="6.92047">
        <ele>1009</ele>
        <time>2023-05-07T15:42:54Z</time>
      </trkpt>
      <trkpt lat="47.92595" lon="6.92045">
        <ele>1005</ele>
        <time>2023-05-07T15:43:16Z</time>
      </trkpt>
      <trkpt lat="47.92592" lon="6.92043">
        <ele>1004</ele>
        <time>2023-05-07T15:43:20Z</time>
      </trkpt>
      <trkpt lat="47.92587" lon="6.92043">
        <ele>1003</ele>
        <time>2023-05-07T15:43:24Z</time>
      </trkpt>
      <trkpt lat="47.92582" lon="6.92039">
        <ele>1003</ele>
        <time>2023-05-07T15:43:28Z</time>
      </trkpt>
      <trkpt lat="47.92571" lon="6.92028">
        <ele>1001</ele>
        <time>2023-05-07T15:43:39Z</time>
      </trkpt>
      <trkpt lat="47.92567" lon="6.92027">
        <ele>1000</ele>
        <time>2023-05-07T15:43:42Z</time>
      </trkpt>
      <trkpt lat="47.92564" lon="6.92022">
        <ele>999</ele>
        <time>2023-05-07T15:43:46Z</time>
      </trkpt>
      <trkpt lat="47.92554" lon="6.92017">
        <ele>998</ele>
        <time>2023-05-07T15:43:54Z</time>
      </trkpt>
      <trkpt lat="47.92548" lon="6.92017">
        <ele>997</ele>
        <time>2023-05-07T15:44:01Z</time>
      </trkpt>
      <trkpt lat="47.92531" lon="6.92009">
        <ele>995</ele>
        <time>2023-05-07T15:44:16Z</time>
      </trkpt>
      <trkpt lat="47.92526" lon="6.92005">
        <ele>994</ele>
        <time>2023-05-07T15:44:22Z</time>
      </trkpt>
      <trkpt lat="47.92511" lon="6.91999">
        <ele>992</ele>
        <time>2023-05-07T15:44:36Z</time>
      </trkpt>
      <trkpt lat="47.92503" lon="6.92001">
        <ele>992</ele>
        <time>2023-05-07T15:44:42Z</time>
      </trkpt>
      <trkpt lat="47.92494" lon="6.91994">
        <ele>990</ele>
        <time>2023-05-07T15:44:51Z</time>
      </trkpt>
      <trkpt lat="47.92487" lon="6.91983">
        <ele>989</ele>
        <time>2023-05-07T15:45:00Z</time>
      </trkpt>
      <trkpt lat="47.92485" lon="6.91976">
        <ele>989</ele>
        <time>2023-05-07T15:45:03Z</time>
      </trkpt>
      <trkpt lat="47.92478" lon="6.91967">
        <ele>986</ele>
        <time>2023-05-07T15:45:13Z</time>
      </trkpt>
      <trkpt lat="47.92473" lon="6.91964">
        <ele>986</ele>
        <time>2023-05-07T15:45:17Z</time>
      </trkpt>
      <trkpt lat="47.92468" lon="6.91962">
        <ele>985</ele>
        <time>2023-05-07T15:45:21Z</time>
      </trkpt>
      <trkpt lat="47.92471" lon="6.91954">
        <ele>984</ele>
        <time>2023-05-07T15:45:26Z</time>
      </trkpt>
      <trkpt lat="47.92474" lon="6.9195">
        <ele>984</ele>
        <time>2023-05-07T15:45:30Z</time>
      </trkpt>
      <trkpt lat="47.92489" lon="6.91949">
        <ele>982</ele>
        <time>2023-05-07T15:45:40Z</time>
      </trkpt>
      <trkpt lat="47.92498" lon="6.91953">
        <ele>981</ele>
        <time>2023-05-07T15:45:48Z</time>
      </trkpt>
      <trkpt lat="47.92512" lon="6.91946">
        <ele>979</ele>
        <time>2023-05-07T15:46:01Z</time>
      </trkpt>
      <trkpt lat="47.92516" lon="6.91943">
        <ele>979</ele>
        <time>2023-05-07T15:46:05Z</time>
      </trkpt>
      <trkpt lat="47.92526" lon="6.91941">
        <ele>977</ele>
        <time>2023-05-07T15:46:13Z</time>
      </trkpt>
      <trkpt lat="47.92536" lon="6.91938">
        <ele>976</ele>
        <time>2023-05-07T15:46:22Z</time>
      </trkpt>
      <trkpt lat="47.92546" lon="6.9194">
        <ele>975</ele>
        <time>2023-05-07T15:46:31Z</time>
      </trkpt>
      <trkpt lat="47.92543" lon="6.91933">
        <ele>973</ele>
        <time>2023-05-07T15:46:41Z</time>
      </trkpt>
      <trkpt lat="47.92522" lon="6.91925">
        <ele>969</ele>
        <time>2023-05-07T15:47:01Z</time>
      </trkpt>
      <trkpt lat="47.92515" lon="6.91918">
        <ele>968</ele>
        <time>2023-05-07T15:47:09Z</time>
      </trkpt>
      <trkpt lat="47.92511" lon="6.91915">
        <ele>967</ele>
        <time>2023-05-07T15:47:14Z</time>
      </trkpt>
      <trkpt lat="47.92509" lon="6.91909">
        <ele>966</ele>
        <time>2023-05-07T15:47:20Z</time>
      </trkpt>
      <trkpt lat="47.92508" lon="6.91902">
        <ele>965</ele>
        <time>2023-05-07T15:47:24Z</time>
      </trkpt>
      <trkpt lat="47.92507" lon="6.91889">
        <ele>963</ele>
        <time>2023-05-07T15:47:34Z</time>
      </trkpt>
      <trkpt lat="47.92492" lon="6.91877">
        <ele>960</ele>
        <time>2023-05-07T15:47:52Z</time>
      </trkpt>
      <trkpt lat="47.9249" lon="6.9187">
        <ele>958</ele>
        <time>2023-05-07T15:47:56Z</time>
      </trkpt>
      <trkpt lat="47.92474" lon="6.91853">
        <ele>956</ele>
        <time>2023-05-07T15:48:12Z</time>
      </trkpt>
      <trkpt lat="47.92471" lon="6.91848">
        <ele>955</ele>
        <time>2023-05-07T15:48:15Z</time>
      </trkpt>
      <trkpt lat="47.92467" lon="6.91843">
        <ele>953</ele>
        <time>2023-05-07T15:48:23Z</time>
      </trkpt>
      <trkpt lat="47.92463" lon="6.91836">
        <ele>952</ele>
        <time>2023-05-07T15:48:28Z</time>
      </trkpt>
      <trkpt lat="47.9246" lon="6.91832">
        <ele>951</ele>
        <time>2023-05-07T15:48:31Z</time>
      </trkpt>
      <trkpt lat="47.92456" lon="6.9183">
        <ele>951</ele>
        <time>2023-05-07T15:48:34Z</time>
      </trkpt>
      <trkpt lat="47.92447" lon="6.91829">
        <ele>951</ele>
        <time>2023-05-07T15:48:40Z</time>
      </trkpt>
      <trkpt lat="47.92439" lon="6.91824">
        <ele>949</ele>
        <time>2023-05-07T15:48:49Z</time>
      </trkpt>
      <trkpt lat="47.92427" lon="6.91815">
        <ele>947</ele>
        <time>2023-05-07T15:49:03Z</time>
      </trkpt>
      <trkpt lat="47.92422" lon="6.91813">
        <ele>946</ele>
        <time>2023-05-07T15:49:08Z</time>
      </trkpt>
      <trkpt lat="47.92394" lon="6.91786">
        <ele>940</ele>
        <time>2023-05-07T15:49:39Z</time>
      </trkpt>
      <trkpt lat="47.92371" lon="6.9175">
        <ele>934</ele>
        <time>2023-05-07T15:50:12Z</time>
      </trkpt>
      <trkpt lat="47.92367" lon="6.91749">
        <ele>933</ele>
        <time>2023-05-07T15:50:15Z</time>
      </trkpt>
      <trkpt lat="47.92352" lon="6.91757">
        <ele>930</ele>
        <time>2023-05-07T15:50:31Z</time>
      </trkpt>
      <trkpt lat="47.92354" lon="6.91747">
        <ele>929</ele>
        <time>2023-05-07T15:50:38Z</time>
      </trkpt>
      <trkpt lat="47.92357" lon="6.91743">
        <ele>928</ele>
        <time>2023-05-07T15:50:42Z</time>
      </trkpt>
      <trkpt lat="47.92365" lon="6.91737">
        <ele>927</ele>
        <time>2023-05-07T15:50:49Z</time>
      </trkpt>
      <trkpt lat="47.92369" lon="6.91731">
        <ele>926</ele>
        <time>2023-05-07T15:50:54Z</time>
      </trkpt>
      <trkpt lat="47.92371" lon="6.91726">
        <ele>925</ele>
        <time>2023-05-07T15:50:58Z</time>
      </trkpt>
      <trkpt lat="47.92374" lon="6.91721">
        <ele>924</ele>
        <time>2023-05-07T15:51:03Z</time>
      </trkpt>
      <trkpt lat="47.92384" lon="6.91719">
        <ele>923</ele>
        <time>2023-05-07T15:51:12Z</time>
      </trkpt>
      <trkpt lat="47.92395" lon="6.9172">
        <ele>920</ele>
        <time>2023-05-07T15:51:41Z</time>
      </trkpt>
      <trkpt lat="47.92403" lon="6.91716">
        <ele>918</ele>
        <time>2023-05-07T15:51:52Z</time>
      </trkpt>
      <trkpt lat="47.92409" lon="6.91716">
        <ele>917</ele>
        <time>2023-05-07T15:52:00Z</time>
      </trkpt>
      <trkpt lat="47.92407" lon="6.9171">
        <ele>916</ele>
        <time>2023-05-07T15:52:06Z</time>
      </trkpt>
      <trkpt lat="47.92393" lon="6.91698">
        <ele>912</ele>
        <time>2023-05-07T15:52:26Z</time>
      </trkpt>
      <trkpt lat="47.92389" lon="6.91695">
        <ele>911</ele>
        <time>2023-05-07T15:52:32Z</time>
      </trkpt>
      <trkpt lat="47.92385" lon="6.91693">
        <ele>910</ele>
        <time>2023-05-07T15:52:37Z</time>
      </trkpt>
      <trkpt lat="47.92378" lon="6.91681">
        <ele>907</ele>
        <time>2023-05-07T15:52:50Z</time>
      </trkpt>
      <trkpt lat="47.92373" lon="6.91681">
        <ele>907</ele>
        <time>2023-05-07T15:52:55Z</time>
      </trkpt>
      <trkpt lat="47.92368" lon="6.91683">
        <ele>906</ele>
        <time>2023-05-07T15:53:01Z</time>
      </trkpt>
      <trkpt lat="47.92364" lon="6.91686">
        <ele>905</ele>
        <time>2023-05-07T15:53:05Z</time>
      </trkpt>
      <trkpt lat="47.92351" lon="6.9169">
        <ele>903</ele>
        <time>2023-05-07T15:53:19Z</time>
      </trkpt>
      <trkpt lat="47.92318" lon="6.91702">
        <ele>898</ele>
        <time>2023-05-07T15:53:50Z</time>
      </trkpt>
      <trkpt lat="47.92297" lon="6.9172">
        <ele>896</ele>
        <time>2023-05-07T15:54:09Z</time>
      </trkpt>
      <trkpt lat="47.9229" lon="6.91729">
        <ele>894</ele>
        <time>2023-05-07T15:54:18Z</time>
      </trkpt>
      <trkpt lat="47.9228" lon="6.91735">
        <ele>892</ele>
        <time>2023-05-07T15:54:27Z</time>
      </trkpt>
      <trkpt lat="47.92277" lon="6.9174">
        <ele>892</ele>
        <time>2023-05-07T15:54:30Z</time>
      </trkpt>
      <trkpt lat="47.92273" lon="6.91743">
        <ele>891</ele>
        <time>2023-05-07T15:54:35Z</time>
      </trkpt>
      <trkpt lat="47.92268" lon="6.91741">
        <ele>891</ele>
        <time>2023-05-07T15:54:38Z</time>
      </trkpt>
      <trkpt lat="47.92264" lon="6.91738">
        <ele>891</ele>
        <time>2023-05-07T15:54:48Z</time>
      </trkpt>
      <trkpt lat="47.92261" lon="6.91731">
        <ele>891</ele>
        <time>2023-05-07T15:54:54Z</time>
      </trkpt>
      <trkpt lat="47.92261" lon="6.91725">
        <ele>891</ele>
        <time>2023-05-07T15:54:57Z</time>
      </trkpt>
      <trkpt lat="47.92262" lon="6.91717">
        <ele>891</ele>
        <time>2023-05-07T15:55:01Z</time>
      </trkpt>
      <trkpt lat="47.92265" lon="6.9171">
        <ele>890</ele>
        <time>2023-05-07T15:55:06Z</time>
      </trkpt>
      <trkpt lat="47.92271" lon="6.91688">
        <ele>890</ele>
        <time>2023-05-07T15:55:17Z</time>
      </trkpt>
      <trkpt lat="47.92274" lon="6.91683">
        <ele>890</ele>
        <time>2023-05-07T15:55:21Z</time>
      </trkpt>
      <trkpt lat="47.92281" lon="6.91674">
        <ele>890</ele>
        <time>2023-05-07T15:55:29Z</time>
      </trkpt>
      <trkpt lat="47.92287" lon="6.91661">
        <ele>889</ele>
        <time>2023-05-07T15:55:37Z</time>
      </trkpt>
      <trkpt lat="47.92298" lon="6.91648">
        <ele>888</ele>
        <time>2023-05-07T15:55:49Z</time>
      </trkpt>
      <trkpt lat="47.92302" lon="6.91645">
        <ele>888</ele>
        <time>2023-05-07T15:55:53Z</time>
      </trkpt>
      <trkpt lat="47.92304" lon="6.91639">
        <ele>888</ele>
        <time>2023-05-07T15:55:57Z</time>
      </trkpt>
      <trkpt lat="47.92307" lon="6.91634">
        <ele>887</ele>
        <time>2023-05-07T15:56:01Z</time>
      </trkpt>
      <trkpt lat="47.92308" lon="6.91631">
        <ele>886</ele>
        <time>2023-05-07T15:56:37Z</time>
      </trkpt>
      <trkpt lat="47.92335" lon="6.91633">
        <ele>884</ele>
        <time>2023-05-07T16:04:07Z</time>
      </trkpt>
      <trkpt lat="47.92337" lon="6.9163">
        <ele>883</ele>
        <time>2023-05-07T16:04:08Z</time>
      </trkpt>
      <trkpt lat="47.92348" lon="6.91628">
        <ele>883</ele>
        <time>2023-05-07T16:04:20Z</time>
      </trkpt>
      <trkpt lat="47.92351" lon="6.91624">
        <ele>882</ele>
        <time>2023-05-07T16:04:24Z</time>
      </trkpt>
      <trkpt lat="47.92353" lon="6.91617">
        <ele>882</ele>
        <time>2023-05-07T16:04:28Z</time>
      </trkpt>
      <trkpt lat="47.92362" lon="6.91601">
        <ele>881</ele>
        <time>2023-05-07T16:04:40Z</time>
      </trkpt>
      <trkpt lat="47.92366" lon="6.91598">
        <ele>881</ele>
        <time>2023-05-07T16:04:44Z</time>
      </trkpt>
      <trkpt lat="47.92369" lon="6.91603">
        <ele>882</ele>
        <time>2023-05-07T16:05:00Z</time>
      </trkpt>
      <trkpt lat="47.92362" lon="6.91608">
        <ele>882</ele>
        <time>2023-05-07T16:05:19Z</time>
      </trkpt>
      <trkpt lat="47.92356" lon="6.91608">
        <ele>882</ele>
        <time>2023-05-07T16:05:24Z</time>
      </trkpt>
      <trkpt lat="47.92352" lon="6.91607">
        <ele>882</ele>
        <time>2023-05-07T16:05:27Z</time>
      </trkpt>
      <trkpt lat="47.92348" lon="6.91612">
        <ele>882</ele>
        <time>2023-05-07T16:05:31Z</time>
      </trkpt>
      <trkpt lat="47.92323" lon="6.91645">
        <ele>884</ele>
        <time>2023-05-07T16:06:01Z</time>
      </trkpt>
      <trkpt lat="47.9231" lon="6.91658">
        <ele>886</ele>
        <time>2023-05-07T16:06:18Z</time>
      </trkpt>
      <trkpt lat="47.92309" lon="6.91649">
        <ele>886</ele>
        <time>2023-05-07T16:06:25Z</time>
      </trkpt>
      <trkpt lat="47.92312" lon="6.91638">
        <ele>884</ele>
        <time>2023-05-07T16:06:31Z</time>
      </trkpt>
      <trkpt lat="47.92317" lon="6.91635">
        <ele>884</ele>
        <time>2023-05-07T16:06:38Z</time>
      </trkpt>
      <trkpt lat="47.92311" lon="6.91632">
        <ele>883</ele>
        <time>2023-05-07T16:06:43Z</time>
      </trkpt>
      <trkpt lat="47.92306" lon="6.91633">
        <ele>883</ele>
        <time>2023-05-07T16:06:45Z</time>
      </trkpt>
      <trkpt lat="47.92307" lon="6.9164">
        <ele>883</ele>
        <time>2023-05-07T16:07:01Z</time>
      </trkpt>
      <trkpt lat="47.92303" lon="6.91646">
        <ele>884</ele>
        <time>2023-05-07T16:15:54Z</time>
      </trkpt>
      <trkpt lat="47.92302" lon="6.91649">
        <ele>884</ele>
        <time>2023-05-07T16:15:55Z</time>
      </trkpt>
      <trkpt lat="47.92304" lon="6.91657">
        <ele>884</ele>
        <time>2023-05-07T16:16:01Z</time>
      </trkpt>
      <trkpt lat="47.92303" lon="6.91665">
        <ele>885</ele>
        <time>2023-05-07T16:16:13Z</time>
      </trkpt>
      <trkpt lat="47.923" lon="6.9167">
        <ele>885</ele>
        <time>2023-05-07T16:16:18Z</time>
      </trkpt>
      <trkpt lat="47.92298" lon="6.91676">
        <ele>885</ele>
        <time>2023-05-07T16:16:22Z</time>
      </trkpt>
      <trkpt lat="47.92287" lon="6.91695">
        <ele>886</ele>
        <time>2023-05-07T16:16:39Z</time>
      </trkpt>
      <trkpt lat="47.92285" lon="6.91701">
        <ele>887</ele>
        <time>2023-05-07T16:16:44Z</time>
      </trkpt>
      <trkpt lat="47.92279" lon="6.91712">
        <ele>887</ele>
        <time>2023-05-07T16:16:54Z</time>
      </trkpt>
      <trkpt lat="47.92278" lon="6.91718">
        <ele>887</ele>
        <time>2023-05-07T16:16:58Z</time>
      </trkpt>
      <trkpt lat="47.92271" lon="6.91735">
        <ele>888</ele>
        <time>2023-05-07T16:17:10Z</time>
      </trkpt>
      <trkpt lat="47.92266" lon="6.91739">
        <ele>888</ele>
        <time>2023-05-07T16:17:14Z</time>
      </trkpt>
      <trkpt lat="47.92261" lon="6.9174">
        <ele>888</ele>
        <time>2023-05-07T16:17:17Z</time>
      </trkpt>
      <trkpt lat="47.92257" lon="6.91743">
        <ele>888</ele>
        <time>2023-05-07T16:17:21Z</time>
      </trkpt>
      <trkpt lat="47.92237" lon="6.91744">
        <ele>888</ele>
        <time>2023-05-07T16:17:36Z</time>
      </trkpt>
      <trkpt lat="47.92228" lon="6.9175">
        <ele>888</ele>
        <time>2023-05-07T16:17:44Z</time>
      </trkpt>
      <trkpt lat="47.92219" lon="6.91763">
        <ele>889</ele>
        <time>2023-05-07T16:17:59Z</time>
      </trkpt>
      <trkpt lat="47.92217" lon="6.91773">
        <ele>890</ele>
        <time>2023-05-07T16:18:11Z</time>
      </trkpt>
      <trkpt lat="47.9221" lon="6.91786">
        <ele>891</ele>
        <time>2023-05-07T16:18:35Z</time>
      </trkpt>
      <trkpt lat="47.92207" lon="6.91791">
        <ele>892</ele>
        <time>2023-05-07T16:18:39Z</time>
      </trkpt>
      <trkpt lat="47.92193" lon="6.91799">
        <ele>893</ele>
        <time>2023-05-07T16:18:51Z</time>
      </trkpt>
      <trkpt lat="47.92188" lon="6.91799">
        <ele>893</ele>
        <time>2023-05-07T16:18:55Z</time>
      </trkpt>
      <trkpt lat="47.92183" lon="6.91795">
        <ele>893</ele>
        <time>2023-05-07T16:18:59Z</time>
      </trkpt>
      <trkpt lat="47.92178" lon="6.91795">
        <ele>894</ele>
        <time>2023-05-07T16:19:03Z</time>
      </trkpt>
      <trkpt lat="47.92173" lon="6.91794">
        <ele>893</ele>
        <time>2023-05-07T16:19:06Z</time>
      </trkpt>
      <trkpt lat="47.92167" lon="6.91793">
        <ele>894</ele>
        <time>2023-05-07T16:19:12Z</time>
      </trkpt>
      <trkpt lat="47.92156" lon="6.91801">
        <ele>894</ele>
        <time>2023-05-07T16:19:22Z</time>
      </trkpt>
      <trkpt lat="47.9215" lon="6.9181">
        <ele>895</ele>
        <time>2023-05-07T16:19:28Z</time>
      </trkpt>
      <trkpt lat="47.92145" lon="6.91812">
        <ele>895</ele>
        <time>2023-05-07T16:19:31Z</time>
      </trkpt>
      <trkpt lat="47.92141" lon="6.91817">
        <ele>895</ele>
        <time>2023-05-07T16:19:34Z</time>
      </trkpt>
      <trkpt lat="47.92131" lon="6.9182">
        <ele>895</ele>
        <time>2023-05-07T16:19:41Z</time>
      </trkpt>
      <trkpt lat="47.92126" lon="6.91818">
        <ele>895</ele>
        <time>2023-05-07T16:19:44Z</time>
      </trkpt>
      <trkpt lat="47.92115" lon="6.91821">
        <ele>896</ele>
        <time>2023-05-07T16:19:50Z</time>
      </trkpt>
      <trkpt lat="47.92107" lon="6.91816">
        <ele>896</ele>
        <time>2023-05-07T16:19:58Z</time>
      </trkpt>
      <trkpt lat="47.92103" lon="6.9181">
        <ele>896</ele>
        <time>2023-05-07T16:20:03Z</time>
      </trkpt>
      <trkpt lat="47.92096" lon="6.91808">
        <ele>896</ele>
        <time>2023-05-07T16:20:12Z</time>
      </trkpt>
      <trkpt lat="47.9209" lon="6.91809">
        <ele>896</ele>
        <time>2023-05-07T16:20:21Z</time>
      </trkpt>
      <trkpt lat="47.9208" lon="6.91819">
        <ele>896</ele>
        <time>2023-05-07T16:20:29Z</time>
      </trkpt>
      <trkpt lat="47.92073" lon="6.91836">
        <ele>896</ele>
        <time>2023-05-07T16:20:41Z</time>
      </trkpt>
      <trkpt lat="47.92057" lon="6.91849">
        <ele>896</ele>
        <time>2023-05-07T16:21:00Z</time>
      </trkpt>
      <trkpt lat="47.92046" lon="6.91861">
        <ele>896</ele>
        <time>2023-05-07T16:21:11Z</time>
      </trkpt>
      <trkpt lat="47.92041" lon="6.91864">
        <ele>896</ele>
        <time>2023-05-07T16:21:15Z</time>
      </trkpt>
      <trkpt lat="47.92026" lon="6.91879">
        <ele>896</ele>
        <time>2023-05-07T16:21:29Z</time>
      </trkpt>
      <trkpt lat="47.9202" lon="6.91893">
        <ele>896</ele>
        <time>2023-05-07T16:21:40Z</time>
      </trkpt>
      <trkpt lat="47.9201" lon="6.91905">
        <ele>897</ele>
        <time>2023-05-07T16:21:48Z</time>
      </trkpt>
      <trkpt lat="47.92005" lon="6.91907">
        <ele>897</ele>
        <time>2023-05-07T16:21:52Z</time>
      </trkpt>
      <trkpt lat="47.91999" lon="6.91916">
        <ele>897</ele>
        <time>2023-05-07T16:21:58Z</time>
      </trkpt>
      <trkpt lat="47.91991" lon="6.91919">
        <ele>897</ele>
        <time>2023-05-07T16:22:05Z</time>
      </trkpt>
      <trkpt lat="47.91987" lon="6.91923">
        <ele>897</ele>
        <time>2023-05-07T16:22:09Z</time>
      </trkpt>
      <trkpt lat="47.91985" lon="6.9193">
        <ele>898</ele>
        <time>2023-05-07T16:22:16Z</time>
      </trkpt>
      <trkpt lat="47.91979" lon="6.91932">
        <ele>900</ele>
        <time>2023-05-07T16:22:35Z</time>
      </trkpt>
      <trkpt lat="47.91972" lon="6.91939">
        <ele>902</ele>
        <time>2023-05-07T16:22:47Z</time>
      </trkpt>
      <trkpt lat="47.91973" lon="6.91946">
        <ele>903</ele>
        <time>2023-05-07T16:22:54Z</time>
      </trkpt>
      <trkpt lat="47.9197" lon="6.91955">
        <ele>906</ele>
        <time>2023-05-07T16:23:07Z</time>
      </trkpt>
      <trkpt lat="47.91962" lon="6.91966">
        <ele>908</ele>
        <time>2023-05-07T16:23:17Z</time>
      </trkpt>
      <trkpt lat="47.91956" lon="6.9197">
        <ele>909</ele>
        <time>2023-05-07T16:23:24Z</time>
      </trkpt>
      <trkpt lat="47.91945" lon="6.91972">
        <ele>911</ele>
        <time>2023-05-07T16:23:35Z</time>
      </trkpt>
      <trkpt lat="47.91941" lon="6.91972">
        <ele>911</ele>
        <time>2023-05-07T16:23:38Z</time>
      </trkpt>
      <trkpt lat="47.91926" lon="6.91967">
        <ele>912</ele>
        <time>2023-05-07T16:23:51Z</time>
      </trkpt>
      <trkpt lat="47.91913" lon="6.91978">
        <ele>911</ele>
        <time>2023-05-07T16:24:01Z</time>
      </trkpt>
      <trkpt lat="47.91905" lon="6.91982">
        <ele>912</ele>
        <time>2023-05-07T16:24:15Z</time>
      </trkpt>
      <trkpt lat="47.91901" lon="6.91974">
        <ele>914</ele>
        <time>2023-05-07T16:24:24Z</time>
      </trkpt>
      <trkpt lat="47.91895" lon="6.91974">
        <ele>915</ele>
        <time>2023-05-07T16:24:29Z</time>
      </trkpt>
      <trkpt lat="47.9189" lon="6.91978">
        <ele>915</ele>
        <time>2023-05-07T16:24:33Z</time>
      </trkpt>
      <trkpt lat="47.91887" lon="6.91981">
        <ele>916</ele>
        <time>2023-05-07T16:24:36Z</time>
      </trkpt>
      <trkpt lat="47.91877" lon="6.91984">
        <ele>916</ele>
        <time>2023-05-07T16:24:44Z</time>
      </trkpt>
      <trkpt lat="47.91862" lon="6.91984">
        <ele>920</ele>
        <time>2023-05-07T16:25:03Z</time>
      </trkpt>
      <trkpt lat="47.91858" lon="6.91988">
        <ele>920</ele>
        <time>2023-05-07T16:25:05Z</time>
      </trkpt>
      <trkpt lat="47.91858" lon="6.92001">
        <ele>920</ele>
        <time>2023-05-07T16:25:10Z</time>
      </trkpt>
      <trkpt lat="47.91865" lon="6.92004">
        <ele>922</ele>
        <time>2023-05-07T16:25:23Z</time>
      </trkpt>
      <trkpt lat="47.91868" lon="6.92009">
        <ele>923</ele>
        <time>2023-05-07T16:25:27Z</time>
      </trkpt>
      <trkpt lat="47.91868" lon="6.92017">
        <ele>923</ele>
        <time>2023-05-07T16:25:30Z</time>
      </trkpt>
      <trkpt lat="47.9187" lon="6.92027">
        <ele>926</ele>
        <time>2023-05-07T16:25:42Z</time>
      </trkpt>
      <trkpt lat="47.91863" lon="6.92041">
        <ele>929</ele>
        <time>2023-05-07T16:26:00Z</time>
      </trkpt>
      <trkpt lat="47.91856" lon="6.92053">
        <ele>931</ele>
        <time>2023-05-07T16:26:14Z</time>
      </trkpt>
      <trkpt lat="47.91863" lon="6.9206">
        <ele>932</ele>
        <time>2023-05-07T16:27:02Z</time>
      </trkpt>
      <trkpt lat="47.91862" lon="6.92062">
        <ele>932</ele>
        <time>2023-05-07T16:27:54Z</time>
      </trkpt>
      <trkpt lat="47.91861" lon="6.92073">
        <ele>933</ele>
        <time>2023-05-07T16:28:13Z</time>
      </trkpt>
      <trkpt lat="47.91867" lon="6.92089">
        <ele>938</ele>
        <time>2023-05-07T16:28:38Z</time>
      </trkpt>
      <trkpt lat="47.91866" lon="6.921">
        <ele>940</ele>
        <time>2023-05-07T16:28:50Z</time>
      </trkpt>
      <trkpt lat="47.91872" lon="6.92119">
        <ele>943</ele>
        <time>2023-05-07T16:29:05Z</time>
      </trkpt>
      <trkpt lat="47.91869" lon="6.92132">
        <ele>946</ele>
        <time>2023-05-07T16:29:24Z</time>
      </trkpt>
      <trkpt lat="47.91864" lon="6.92138">
        <ele>947</ele>
        <time>2023-05-07T16:29:30Z</time>
      </trkpt>
      <trkpt lat="47.91853" lon="6.92152">
        <ele>951</ele>
        <time>2023-05-07T16:29:45Z</time>
      </trkpt>
      <trkpt lat="47.91844" lon="6.92159">
        <ele>952</ele>
        <time>2023-05-07T16:29:51Z</time>
      </trkpt>
      <trkpt lat="47.91839" lon="6.92166">
        <ele>953</ele>
        <time>2023-05-07T16:30:00Z</time>
      </trkpt>
      <trkpt lat="47.91837" lon="6.92173">
        <ele>954</ele>
        <time>2023-05-07T16:30:04Z</time>
      </trkpt>
      <trkpt lat="47.91832" lon="6.92176">
        <ele>955</ele>
        <time>2023-05-07T16:30:10Z</time>
      </trkpt>
      <trkpt lat="47.9183" lon="6.92183">
        <ele>956</ele>
        <time>2023-05-07T16:30:15Z</time>
      </trkpt>
      <trkpt lat="47.91829" lon="6.92189">
        <ele>957</ele>
        <time>2023-05-07T16:30:22Z</time>
      </trkpt>
      <trkpt lat="47.91831" lon="6.92196">
        <ele>958</ele>
        <time>2023-05-07T16:30:28Z</time>
      </trkpt>
      <trkpt lat="47.91829" lon="6.92207">
        <ele>961</ele>
        <time>2023-05-07T16:30:41Z</time>
      </trkpt>
      <trkpt lat="47.91825" lon="6.92211">
        <ele>962</ele>
        <time>2023-05-07T16:30:48Z</time>
      </trkpt>
      <trkpt lat="47.91816" lon="6.92252">
        <ele>968</ele>
        <time>2023-05-07T16:31:22Z</time>
      </trkpt>
      <trkpt lat="47.91814" lon="6.92258">
        <ele>969</ele>
        <time>2023-05-07T16:31:25Z</time>
      </trkpt>
      <trkpt lat="47.91813" lon="6.92265">
        <ele>969</ele>
        <time>2023-05-07T16:31:29Z</time>
      </trkpt>
      <trkpt lat="47.9181" lon="6.9227">
        <ele>970</ele>
        <time>2023-05-07T16:31:33Z</time>
      </trkpt>
      <trkpt lat="47.9181" lon="6.92279">
        <ele>971</ele>
        <time>2023-05-07T16:31:40Z</time>
      </trkpt>
      <trkpt lat="47.91803" lon="6.923">
        <ele>971</ele>
        <time>2023-05-07T16:31:51Z</time>
      </trkpt>
      <trkpt lat="47.918" lon="6.92306">
        <ele>972</ele>
        <time>2023-05-07T16:31:54Z</time>
      </trkpt>
      <trkpt lat="47.91796" lon="6.92309">
        <ele>972</ele>
        <time>2023-05-07T16:31:57Z</time>
      </trkpt>
      <trkpt lat="47.91787" lon="6.92314">
        <ele>973</ele>
        <time>2023-05-07T16:32:03Z</time>
      </trkpt>
      <trkpt lat="47.91782" lon="6.92313">
        <ele>973</ele>
        <time>2023-05-07T16:32:07Z</time>
      </trkpt>
      <trkpt lat="47.91777" lon="6.9231">
        <ele>974</ele>
        <time>2023-05-07T16:32:11Z</time>
      </trkpt>
      <trkpt lat="47.91771" lon="6.923">
        <ele>976</ele>
        <time>2023-05-07T16:32:20Z</time>
      </trkpt>
      <trkpt lat="47.91759" lon="6.92297">
        <ele>978</ele>
        <time>2023-05-07T16:32:32Z</time>
      </trkpt>
      <trkpt lat="47.91755" lon="6.92297">
        <ele>979</ele>
        <time>2023-05-07T16:32:36Z</time>
      </trkpt>
      <trkpt lat="47.91748" lon="6.92302">
        <ele>980</ele>
        <time>2023-05-07T16:32:43Z</time>
      </trkpt>
      <trkpt lat="47.91743" lon="6.92302">
        <ele>980</ele>
        <time>2023-05-07T16:32:47Z</time>
      </trkpt>
      <trkpt lat="47.91739" lon="6.92305">
        <ele>981</ele>
        <time>2023-05-07T16:32:51Z</time>
      </trkpt>
      <trkpt lat="47.91729" lon="6.92322">
        <ele>984</ele>
        <time>2023-05-07T16:33:07Z</time>
      </trkpt>
      <trkpt lat="47.91729" lon="6.92332">
        <ele>985</ele>
        <time>2023-05-07T16:33:14Z</time>
      </trkpt>
      <trkpt lat="47.91731" lon="6.9234">
        <ele>986</ele>
        <time>2023-05-07T16:33:19Z</time>
      </trkpt>
      <trkpt lat="47.91734" lon="6.92346">
        <ele>988</ele>
        <time>2023-05-07T16:33:28Z</time>
      </trkpt>
      <trkpt lat="47.91739" lon="6.92346">
        <ele>989</ele>
        <time>2023-05-07T16:33:33Z</time>
      </trkpt>
      <trkpt lat="47.91744" lon="6.92348">
        <ele>989</ele>
        <time>2023-05-07T16:33:36Z</time>
      </trkpt>
      <trkpt lat="47.91752" lon="6.92355">
        <ele>991</ele>
        <time>2023-05-07T16:33:45Z</time>
      </trkpt>
      <trkpt lat="47.91757" lon="6.92362">
        <ele>992</ele>
        <time>2023-05-07T16:33:50Z</time>
      </trkpt>
      <trkpt lat="47.91762" lon="6.92377">
        <ele>993</ele>
        <time>2023-05-07T16:34:01Z</time>
      </trkpt>
      <trkpt lat="47.91765" lon="6.92382">
        <ele>994</ele>
        <time>2023-05-07T16:34:05Z</time>
      </trkpt>
      <trkpt lat="47.91773" lon="6.92389">
        <ele>995</ele>
        <time>2023-05-07T16:34:13Z</time>
      </trkpt>
      <trkpt lat="47.91773" lon="6.92396">
        <ele>996</ele>
        <time>2023-05-07T16:34:17Z</time>
      </trkpt>
      <trkpt lat="47.91772" lon="6.92402">
        <ele>996</ele>
        <time>2023-05-07T16:34:21Z</time>
      </trkpt>
      <trkpt lat="47.91774" lon="6.9241">
        <ele>996</ele>
        <time>2023-05-07T16:34:25Z</time>
      </trkpt>
      <trkpt lat="47.91774" lon="6.92417">
        <ele>997</ele>
        <time>2023-05-07T16:34:29Z</time>
      </trkpt>
      <trkpt lat="47.91776" lon="6.92424">
        <ele>997</ele>
        <time>2023-05-07T16:34:34Z</time>
      </trkpt>
      <trkpt lat="47.91778" lon="6.92431">
        <ele>998</ele>
        <time>2023-05-07T16:34:40Z</time>
      </trkpt>
      <trkpt lat="47.91783" lon="6.92436">
        <ele>999</ele>
        <time>2023-05-07T16:34:47Z</time>
      </trkpt>
      <trkpt lat="47.91789" lon="6.9245">
        <ele>1001</ele>
        <time>2023-05-07T16:35:00Z</time>
      </trkpt>
      <trkpt lat="47.91794" lon="6.92474">
        <ele>1005</ele>
        <time>2023-05-07T16:35:19Z</time>
      </trkpt>
      <trkpt lat="47.91798" lon="6.92482">
        <ele>1007</ele>
        <time>2023-05-07T16:35:27Z</time>
      </trkpt>
      <trkpt lat="47.91799" lon="6.92488">
        <ele>1008</ele>
        <time>2023-05-07T16:35:34Z</time>
      </trkpt>
      <trkpt lat="47.91802" lon="6.92494">
        <ele>1010</ele>
        <time>2023-05-07T16:35:40Z</time>
      </trkpt>
      <trkpt lat="47.91807" lon="6.92514">
        <ele>1015</ele>
        <time>2023-05-07T16:36:00Z</time>
      </trkpt>
      <trkpt lat="47.91811" lon="6.92526">
        <ele>1017</ele>
        <time>2023-05-07T16:36:11Z</time>
      </trkpt>
      <trkpt lat="47.91813" lon="6.92534">
        <ele>1019</ele>
        <time>2023-05-07T16:36:20Z</time>
      </trkpt>
      <trkpt lat="47.91815" lon="6.92539">
        <ele>1020</ele>
        <time>2023-05-07T16:36:26Z</time>
      </trkpt>
      <trkpt lat="47.91816" lon="6.92546">
        <ele>1021</ele>
        <time>2023-05-07T16:36:32Z</time>
      </trkpt>
      <trkpt lat="47.91806" lon="6.92544">
        <ele>1023</ele>
        <time>2023-05-07T16:36:40Z</time>
      </trkpt>
      <trkpt lat="47.91801" lon="6.92545">
        <ele>1025</ele>
        <time>2023-05-07T16:36:45Z</time>
      </trkpt>
      <trkpt lat="47.91787" lon="6.92537">
        <ele>1027</ele>
        <time>2023-05-07T16:37:06Z</time>
      </trkpt>
      <trkpt lat="47.91778" lon="6.92536">
        <ele>1029</ele>
        <time>2023-05-07T16:37:17Z</time>
      </trkpt>
      <trkpt lat="47.91767" lon="6.92531">
        <ele>1031</ele>
        <time>2023-05-07T16:37:33Z</time>
      </trkpt>
      <trkpt lat="47.91784" lon="6.92563">
        <ele>1039</ele>
        <time>2023-05-07T16:38:10Z</time>
      </trkpt>
      <trkpt lat="47.9178" lon="6.9257">
        <ele>1041</ele>
        <time>2023-05-07T16:38:22Z</time>
      </trkpt>
      <trkpt lat="47.91766" lon="6.92573">
        <ele>1045</ele>
        <time>2023-05-07T16:38:40Z</time>
      </trkpt>
      <trkpt lat="47.91761" lon="6.92579">
        <ele>1047</ele>
        <time>2023-05-07T16:38:52Z</time>
      </trkpt>
      <trkpt lat="47.91766" lon="6.92581">
        <ele>1048</ele>
        <time>2023-05-07T16:38:57Z</time>
      </trkpt>
      <trkpt lat="47.91769" lon="6.92586">
        <ele>1048</ele>
        <time>2023-05-07T16:39:01Z</time>
      </trkpt>
      <trkpt lat="47.91771" lon="6.92596">
        <ele>1049</ele>
        <time>2023-05-07T16:39:09Z</time>
      </trkpt>
      <trkpt lat="47.91761" lon="6.92596">
        <ele>1052</ele>
        <time>2023-05-07T16:39:22Z</time>
      </trkpt>
      <trkpt lat="47.91757" lon="6.926">
        <ele>1053</ele>
        <time>2023-05-07T16:39:28Z</time>
      </trkpt>
      <trkpt lat="47.91759" lon="6.92606">
        <ele>1054</ele>
        <time>2023-05-07T16:39:34Z</time>
      </trkpt>
      <trkpt lat="47.91759" lon="6.92613">
        <ele>1055</ele>
        <time>2023-05-07T16:39:39Z</time>
      </trkpt>
      <trkpt lat="47.9175" lon="6.92618">
        <ele>1056</ele>
        <time>2023-05-07T16:39:47Z</time>
      </trkpt>
      <trkpt lat="47.91745" lon="6.92624">
        <ele>1057</ele>
        <time>2023-05-07T16:39:54Z</time>
      </trkpt>
      <trkpt lat="47.91742" lon="6.92629">
        <ele>1057</ele>
        <time>2023-05-07T16:39:58Z</time>
      </trkpt>
      <trkpt lat="47.91734" lon="6.92636">
        <ele>1058</ele>
        <time>2023-05-07T16:40:06Z</time>
      </trkpt>
      <trkpt lat="47.91729" lon="6.92643">
        <ele>1059</ele>
        <time>2023-05-07T16:40:15Z</time>
      </trkpt>
      <trkpt lat="47.91702" lon="6.92664">
        <ele>1065</ele>
        <time>2023-05-07T16:40:48Z</time>
      </trkpt>
      <trkpt lat="47.9169" lon="6.92674">
        <ele>1068</ele>
        <time>2023-05-07T16:41:02Z</time>
      </trkpt>
      <trkpt lat="47.91665" lon="6.92677">
        <ele>1072</ele>
        <time>2023-05-07T16:41:31Z</time>
      </trkpt>
      <trkpt lat="47.91657" lon="6.92674">
        <ele>1073</ele>
        <time>2023-05-07T16:41:39Z</time>
      </trkpt>
      <trkpt lat="47.91653" lon="6.92676">
        <ele>1074</ele>
        <time>2023-05-07T16:41:44Z</time>
      </trkpt>
      <trkpt lat="47.91648" lon="6.92677">
        <ele>1075</ele>
        <time>2023-05-07T16:41:49Z</time>
      </trkpt>
      <trkpt lat="47.91639" lon="6.92693">
        <ele>1078</ele>
        <time>2023-05-07T16:42:09Z</time>
      </trkpt>
      <trkpt lat="47.91609" lon="6.92707">
        <ele>1085</ele>
        <time>2023-05-07T16:42:41Z</time>
      </trkpt>
      <trkpt lat="47.91597" lon="6.92714">
        <ele>1088</ele>
        <time>2023-05-07T16:43:01Z</time>
      </trkpt>
      <trkpt lat="47.9159" lon="6.92713">
        <ele>1090</ele>
        <time>2023-05-07T16:43:08Z</time>
      </trkpt>
      <trkpt lat="47.91585" lon="6.92715">
        <ele>1091</ele>
        <time>2023-05-07T16:43:13Z</time>
      </trkpt>
      <trkpt lat="47.91581" lon="6.92711">
        <ele>1092</ele>
        <time>2023-05-07T16:43:18Z</time>
      </trkpt>
      <trkpt lat="47.91575" lon="6.92713">
        <ele>1094</ele>
        <time>2023-05-07T16:43:26Z</time>
      </trkpt>
      <trkpt lat="47.91571" lon="6.92712">
        <ele>1096</ele>
        <time>2023-05-07T16:43:31Z</time>
      </trkpt>
      <trkpt lat="47.9156" lon="6.92718">
        <ele>1098</ele>
        <time>2023-05-07T16:43:43Z</time>
      </trkpt>
      <trkpt lat="47.91555" lon="6.92719">
        <ele>1099</ele>
        <time>2023-05-07T16:43:48Z</time>
      </trkpt>
      <trkpt lat="47.91551" lon="6.92724">
        <ele>1101</ele>
        <time>2023-05-07T16:43:56Z</time>
      </trkpt>
      <trkpt lat="47.91547" lon="6.92726">
        <ele>1102</ele>
        <time>2023-05-07T16:44:00Z</time>
      </trkpt>
      <trkpt lat="47.9153" lon="6.92726">
        <ele>1105</ele>
        <time>2023-05-07T16:44:18Z</time>
      </trkpt>
      <trkpt lat="47.91496" lon="6.9272">
        <ele>1109</ele>
        <time>2023-05-07T16:44:50Z</time>
      </trkpt>
      <trkpt lat="47.91473" lon="6.92719">
        <ele>1111</ele>
        <time>2023-05-07T16:45:11Z</time>
      </trkpt>
      <trkpt lat="47.91466" lon="6.92716">
        <ele>1112</ele>
        <time>2023-05-07T16:45:17Z</time>
      </trkpt>
      <trkpt lat="47.91451" lon="6.92718">
        <ele>1113</ele>
        <time>2023-05-07T16:45:31Z</time>
      </trkpt>
      <trkpt lat="47.91436" lon="6.92712">
        <ele>1115</ele>
        <time>2023-05-07T16:45:45Z</time>
      </trkpt>
      <trkpt lat="47.91426" lon="6.92714">
        <ele>1116</ele>
        <time>2023-05-07T16:45:54Z</time>
      </trkpt>
      <trkpt lat="47.91412" lon="6.92712">
        <ele>1118</ele>
        <time>2023-05-07T16:46:06Z</time>
      </trkpt>
      <trkpt lat="47.91405" lon="6.92712">
        <ele>1119</ele>
        <time>2023-05-07T16:46:15Z</time>
      </trkpt>
      <trkpt lat="47.91402" lon="6.92707">
        <ele>1120</ele>
        <time>2023-05-07T16:46:19Z</time>
      </trkpt>
      <trkpt lat="47.91397" lon="6.92705">
        <ele>1120</ele>
        <time>2023-05-07T16:46:23Z</time>
      </trkpt>
      <trkpt lat="47.91391" lon="6.92703">
        <ele>1121</ele>
        <time>2023-05-07T16:46:30Z</time>
      </trkpt>
      <trkpt lat="47.91386" lon="6.92704">
        <ele>1123</ele>
        <time>2023-05-07T16:46:37Z</time>
      </trkpt>
      <trkpt lat="47.91382" lon="6.92708">
        <ele>1123</ele>
        <time>2023-05-07T16:46:42Z</time>
      </trkpt>
      <trkpt lat="47.91378" lon="6.92709">
        <ele>1124</ele>
        <time>2023-05-07T16:46:47Z</time>
      </trkpt>
      <trkpt lat="47.91366" lon="6.92705">
        <ele>1127</ele>
        <time>2023-05-07T16:46:58Z</time>
      </trkpt>
      <trkpt lat="47.91359" lon="6.92714">
        <ele>1129</ele>
        <time>2023-05-07T16:47:09Z</time>
      </trkpt>
      <trkpt lat="47.91354" lon="6.92713">
        <ele>1130</ele>
        <time>2023-05-07T16:47:15Z</time>
      </trkpt>
      <trkpt lat="47.91346" lon="6.9271">
        <ele>1134</ele>
        <time>2023-05-07T16:47:28Z</time>
      </trkpt>
      <trkpt lat="47.91343" lon="6.92716">
        <ele>1136</ele>
        <time>2023-05-07T16:47:40Z</time>
      </trkpt>
      <trkpt lat="47.91337" lon="6.92717">
        <ele>1139</ele>
        <time>2023-05-07T16:47:51Z</time>
      </trkpt>
      <trkpt lat="47.91337" lon="6.9271">
        <ele>1140</ele>
        <time>2023-05-07T16:47:56Z</time>
      </trkpt>
      <trkpt lat="47.91335" lon="6.92703">
        <ele>1141</ele>
        <time>2023-05-07T16:48:01Z</time>
      </trkpt>
      <trkpt lat="47.91331" lon="6.92709">
        <ele>1144</ele>
        <time>2023-05-07T16:48:15Z</time>
      </trkpt>
      <trkpt lat="47.91316" lon="6.92727">
        <ele>1147</ele>
        <time>2023-05-07T16:48:33Z</time>
      </trkpt>
      <trkpt lat="47.91315" lon="6.92715">
        <ele>1149</ele>
        <time>2023-05-07T16:48:47Z</time>
      </trkpt>
      <trkpt lat="47.91312" lon="6.92709">
        <ele>1150</ele>
        <time>2023-05-07T16:48:52Z</time>
      </trkpt>
      <trkpt lat="47.91308" lon="6.9271">
        <ele>1151</ele>
        <time>2023-05-07T16:48:58Z</time>
      </trkpt>
      <trkpt lat="47.91301" lon="6.92718">
        <ele>1153</ele>
        <time>2023-05-07T16:49:09Z</time>
      </trkpt>
      <trkpt lat="47.91298" lon="6.92724">
        <ele>1154</ele>
        <time>2023-05-07T16:49:17Z</time>
      </trkpt>
      <trkpt lat="47.91294" lon="6.92719">
        <ele>1155</ele>
        <time>2023-05-07T16:49:22Z</time>
      </trkpt>
      <trkpt lat="47.91283" lon="6.92716">
        <ele>1158</ele>
        <time>2023-05-07T16:49:38Z</time>
      </trkpt>
      <trkpt lat="47.9128" lon="6.92727">
        <ele>1161</ele>
        <time>2023-05-07T16:49:50Z</time>
      </trkpt>
      <trkpt lat="47.91276" lon="6.9273">
        <ele>1162</ele>
        <time>2023-05-07T16:49:55Z</time>
      </trkpt>
      <trkpt lat="47.91268" lon="6.9272">
        <ele>1165</ele>
        <time>2023-05-07T16:50:08Z</time>
      </trkpt>
      <trkpt lat="47.91264" lon="6.92717">
        <ele>1166</ele>
        <time>2023-05-07T16:50:14Z</time>
      </trkpt>
      <trkpt lat="47.91259" lon="6.92719">
        <ele>1167</ele>
        <time>2023-05-07T16:50:20Z</time>
      </trkpt>
      <trkpt lat="47.91258" lon="6.92726">
        <ele>1168</ele>
        <time>2023-05-07T16:50:27Z</time>
      </trkpt>
      <trkpt lat="47.91248" lon="6.92736">
        <ele>1171</ele>
        <time>2023-05-07T16:50:42Z</time>
      </trkpt>
      <trkpt lat="47.91239" lon="6.92739">
        <ele>1173</ele>
        <time>2023-05-07T16:50:51Z</time>
      </trkpt>
      <trkpt lat="47.91226" lon="6.92737">
        <ele>1176</ele>
        <time>2023-05-07T16:51:07Z</time>
      </trkpt>
      <trkpt lat="47.91222" lon="6.9274">
        <ele>1176</ele>
        <time>2023-05-07T16:51:12Z</time>
      </trkpt>
      <trkpt lat="47.91219" lon="6.92746">
        <ele>1177</ele>
        <time>2023-05-07T16:51:16Z</time>
      </trkpt>
      <trkpt lat="47.91209" lon="6.92752">
        <ele>1178</ele>
        <time>2023-05-07T16:51:26Z</time>
      </trkpt>
      <trkpt lat="47.91205" lon="6.92756">
        <ele>1179</ele>
        <time>2023-05-07T16:51:32Z</time>
      </trkpt>
      <trkpt lat="47.91194" lon="6.92764">
        <ele>1181</ele>
        <time>2023-05-07T16:51:47Z</time>
      </trkpt>
      <trkpt lat="47.91184" lon="6.92766">
        <ele>1183</ele>
        <time>2023-05-07T16:51:58Z</time>
      </trkpt>
      <trkpt lat="47.9117" lon="6.92775">
        <ele>1185</ele>
        <time>2023-05-07T16:52:13Z</time>
      </trkpt>
      <trkpt lat="47.9114" lon="6.92801">
        <ele>1191</ele>
        <time>2023-05-07T16:52:49Z</time>
      </trkpt>
      <trkpt lat="47.91133" lon="6.92809">
        <ele>1193</ele>
        <time>2023-05-07T16:52:58Z</time>
      </trkpt>
      <trkpt lat="47.91113" lon="6.92826">
        <ele>1197</ele>
        <time>2023-05-07T16:53:23Z</time>
      </trkpt>
      <trkpt lat="47.91108" lon="6.92827">
        <ele>1198</ele>
        <time>2023-05-07T16:53:29Z</time>
      </trkpt>
      <trkpt lat="47.91105" lon="6.92832">
        <ele>1200</ele>
        <time>2023-05-07T16:53:37Z</time>
      </trkpt>
      <trkpt lat="47.91104" lon="6.9284">
        <ele>1201</ele>
        <time>2023-05-07T16:53:43Z</time>
      </trkpt>
      <trkpt lat="47.91104" lon="6.92847">
        <ele>1203</ele>
        <time>2023-05-07T16:53:55Z</time>
      </trkpt>
      <trkpt lat="47.91095" lon="6.92839">
        <ele>1206</ele>
        <time>2023-05-07T16:54:09Z</time>
      </trkpt>
      <trkpt lat="47.91094" lon="6.92847">
        <ele>1206</ele>
        <time>2023-05-07T16:54:14Z</time>
      </trkpt>
      <trkpt lat="47.91087" lon="6.92869">
        <ele>1210</ele>
        <time>2023-05-07T16:54:33Z</time>
      </trkpt>
      <trkpt lat="47.91077" lon="6.92876">
        <ele>1212</ele>
        <time>2023-05-07T16:54:49Z</time>
      </trkpt>
      <trkpt lat="47.91072" lon="6.92877">
        <ele>1214</ele>
        <time>2023-05-07T16:54:55Z</time>
      </trkpt>
      <trkpt lat="47.91067" lon="6.92876">
        <ele>1214</ele>
        <time>2023-05-07T16:55:02Z</time>
      </trkpt>
      <trkpt lat="47.91049" lon="6.92876">
        <ele>1218</ele>
        <time>2023-05-07T16:55:21Z</time>
      </trkpt>
      <trkpt lat="47.91039" lon="6.92882">
        <ele>1219</ele>
        <time>2023-05-07T16:55:30Z</time>
      </trkpt>
      <trkpt lat="47.91029" lon="6.92884">
        <ele>1220</ele>
        <time>2023-05-07T16:55:39Z</time>
      </trkpt>
      <trkpt lat="47.91025" lon="6.92887">
        <ele>1221</ele>
        <time>2023-05-07T16:55:43Z</time>
      </trkpt>
      <trkpt lat="47.91001" lon="6.92886">
        <ele>1223</ele>
        <time>2023-05-07T16:56:12Z</time>
      </trkpt>
      <trkpt lat="47.90995" lon="6.92888">
        <ele>1223</ele>
        <time>2023-05-07T16:56:20Z</time>
      </trkpt>
      <trkpt lat="47.90989" lon="6.9289">
        <ele>1222</ele>
        <time>2023-05-07T16:56:33Z</time>
      </trkpt>
      <trkpt lat="47.90987" lon="6.92898">
        <ele>1221</ele>
        <time>2023-05-07T16:56:58Z</time>
      </trkpt>
      <trkpt lat="47.9099" lon="6.92903">
        <ele>1221</ele>
        <time>2023-05-07T16:57:04Z</time>
      </trkpt>
      <trkpt lat="47.90996" lon="6.92899">
        <ele>1221</ele>
        <time>2023-05-07T16:57:09Z</time>
      </trkpt>
      <trkpt lat="47.90997" lon="6.92893">
        <ele>1221</ele>
        <time>2023-05-07T16:57:13Z</time>
      </trkpt>
      <trkpt lat="47.90992" lon="6.92893">
        <ele>1222</ele>
        <time>2023-05-07T16:57:19Z</time>
      </trkpt>
      <trkpt lat="47.90988" lon="6.92895">
        <ele>1221</ele>
        <time>2023-05-07T16:57:24Z</time>
      </trkpt>
      <trkpt lat="47.90986" lon="6.92887">
        <ele>1221</ele>
        <time>2023-05-07T16:57:48Z</time>
      </trkpt>
      <trkpt lat="47.90986" lon="6.92876">
        <ele>1221</ele>
        <time>2023-05-07T16:57:56Z</time>
      </trkpt>
      <trkpt lat="47.90993" lon="6.92871">
        <ele>1221</ele>
        <time>2023-05-07T16:58:23Z</time>
      </trkpt>
      <trkpt lat="47.90995" lon="6.92865">
        <ele>1221</ele>
        <time>2023-05-07T16:58:41Z</time>
      </trkpt>
      <trkpt lat="47.90991" lon="6.92868">
        <ele>1221</ele>
        <time>2023-05-07T16:59:07Z</time>
      </trkpt>
    </trkseg>
  </trk>
  <trk>
    <name><![CDATA[8 mai 2023 à 06:49:41]]></name>
    <extensions>
      <line xmlns="http://www.topografix.com/GPX/gpx_style/0/2">
        <color>008800</color>
        <width>4</width>
      </line>
    </extensions>
    <trkseg>
      <trkpt lat="47.90987" lon="6.92874">
        <ele>1248</ele>
        <time>2023-05-08T04:49:42Z</time>
      </trkpt>
      <trkpt lat="47.90987" lon="6.92874">
        <ele>1248</ele>
        <time>2023-05-08T04:49:43Z</time>
      </trkpt>
      <trkpt lat="47.90983" lon="6.92872">
        <ele>1247</ele>
        <time>2023-05-08T04:49:54Z</time>
      </trkpt>
      <trkpt lat="47.90979" lon="6.92866">
        <ele>1247</ele>
        <time>2023-05-08T04:50:00Z</time>
      </trkpt>
      <trkpt lat="47.90975" lon="6.92862">
        <ele>1246</ele>
        <time>2023-05-08T04:50:05Z</time>
      </trkpt>
      <trkpt lat="47.90974" lon="6.92856">
        <ele>1245</ele>
        <time>2023-05-08T04:50:10Z</time>
      </trkpt>
      <trkpt lat="47.90969" lon="6.92849">
        <ele>1244</ele>
        <time>2023-05-08T04:50:16Z</time>
      </trkpt>
      <trkpt lat="47.90959" lon="6.9285">
        <ele>1243</ele>
        <time>2023-05-08T04:50:24Z</time>
      </trkpt>
      <trkpt lat="47.9095" lon="6.92843">
        <ele>1239</ele>
        <time>2023-05-08T04:50:37Z</time>
      </trkpt>
      <trkpt lat="47.9094" lon="6.92838">
        <ele>1236</ele>
        <time>2023-05-08T04:50:54Z</time>
      </trkpt>
      <trkpt lat="47.90935" lon="6.92838">
        <ele>1235</ele>
        <time>2023-05-08T04:51:00Z</time>
      </trkpt>
      <trkpt lat="47.9093" lon="6.92834">
        <ele>1233</ele>
        <time>2023-05-08T04:51:08Z</time>
      </trkpt>
      <trkpt lat="47.90922" lon="6.92823">
        <ele>1232</ele>
        <time>2023-05-08T04:51:19Z</time>
      </trkpt>
      <trkpt lat="47.90921" lon="6.92817">
        <ele>1232</ele>
        <time>2023-05-08T04:51:24Z</time>
      </trkpt>
      <trkpt lat="47.90918" lon="6.92812">
        <ele>1231</ele>
        <time>2023-05-08T04:51:28Z</time>
      </trkpt>
      <trkpt lat="47.90916" lon="6.92799">
        <ele>1230</ele>
        <time>2023-05-08T04:51:38Z</time>
      </trkpt>
      <trkpt lat="47.9091" lon="6.92783">
        <ele>1228</ele>
        <time>2023-05-08T04:51:50Z</time>
      </trkpt>
      <trkpt lat="47.90909" lon="6.92776">
        <ele>1228</ele>
        <time>2023-05-08T04:51:55Z</time>
      </trkpt>
      <trkpt lat="47.90903" lon="6.92765">
        <ele>1226</ele>
        <time>2023-05-08T04:52:04Z</time>
      </trkpt>
      <trkpt lat="47.90897" lon="6.92762">
        <ele>1225</ele>
        <time>2023-05-08T04:52:11Z</time>
      </trkpt>
      <trkpt lat="47.90889" lon="6.9275">
        <ele>1223</ele>
        <time>2023-05-08T04:52:23Z</time>
      </trkpt>
      <trkpt lat="47.90882" lon="6.92747">
        <ele>1221</ele>
        <time>2023-05-08T04:52:29Z</time>
      </trkpt>
      <trkpt lat="47.90877" lon="6.92746">
        <ele>1219</ele>
        <time>2023-05-08T04:52:36Z</time>
      </trkpt>
      <trkpt lat="47.90861" lon="6.9273">
        <ele>1214</ele>
        <time>2023-05-08T04:52:59Z</time>
      </trkpt>
      <trkpt lat="47.90856" lon="6.92728">
        <ele>1212</ele>
        <time>2023-05-08T04:53:07Z</time>
      </trkpt>
      <trkpt lat="47.90851" lon="6.92728">
        <ele>1211</ele>
        <time>2023-05-08T04:53:12Z</time>
      </trkpt>
      <trkpt lat="47.90847" lon="6.92723">
        <ele>1210</ele>
        <time>2023-05-08T04:53:18Z</time>
      </trkpt>
      <trkpt lat="47.90841" lon="6.92719">
        <ele>1209</ele>
        <time>2023-05-08T04:53:25Z</time>
      </trkpt>
      <trkpt lat="47.90826" lon="6.92708">
        <ele>1205</ele>
        <time>2023-05-08T04:53:41Z</time>
      </trkpt>
      <trkpt lat="47.90822" lon="6.92707">
        <ele>1204</ele>
        <time>2023-05-08T04:53:45Z</time>
      </trkpt>
      <trkpt lat="47.90814" lon="6.92703">
        <ele>1203</ele>
        <time>2023-05-08T04:53:53Z</time>
      </trkpt>
      <trkpt lat="47.90793" lon="6.92701">
        <ele>1200</ele>
        <time>2023-05-08T04:54:10Z</time>
      </trkpt>
      <trkpt lat="47.90787" lon="6.92693">
        <ele>1200</ele>
        <time>2023-05-08T04:54:18Z</time>
      </trkpt>
      <trkpt lat="47.90776" lon="6.92691">
        <ele>1199</ele>
        <time>2023-05-08T04:54:27Z</time>
      </trkpt>
      <trkpt lat="47.90762" lon="6.92684">
        <ele>1197</ele>
        <time>2023-05-08T04:54:38Z</time>
      </trkpt>
      <trkpt lat="47.90758" lon="6.92683">
        <ele>1197</ele>
        <time>2023-05-08T04:54:42Z</time>
      </trkpt>
      <trkpt lat="47.90751" lon="6.92677">
        <ele>1197</ele>
        <time>2023-05-08T04:54:51Z</time>
      </trkpt>
      <trkpt lat="47.90744" lon="6.92676">
        <ele>1197</ele>
        <time>2023-05-08T04:54:58Z</time>
      </trkpt>
      <trkpt lat="47.90735" lon="6.92672">
        <ele>1197</ele>
        <time>2023-05-08T04:55:07Z</time>
      </trkpt>
      <trkpt lat="47.90731" lon="6.92668">
        <ele>1198</ele>
        <time>2023-05-08T04:55:11Z</time>
      </trkpt>
      <trkpt lat="47.90729" lon="6.92662">
        <ele>1198</ele>
        <time>2023-05-08T04:55:15Z</time>
      </trkpt>
      <trkpt lat="47.90724" lon="6.92656">
        <ele>1199</ele>
        <time>2023-05-08T04:55:21Z</time>
      </trkpt>
      <trkpt lat="47.90719" lon="6.92652">
        <ele>1199</ele>
        <time>2023-05-08T04:55:26Z</time>
      </trkpt>
      <trkpt lat="47.90712" lon="6.92651">
        <ele>1200</ele>
        <time>2023-05-08T04:55:37Z</time>
      </trkpt>
      <trkpt lat="47.90708" lon="6.92647">
        <ele>1200</ele>
        <time>2023-05-08T04:55:41Z</time>
      </trkpt>
      <trkpt lat="47.90705" lon="6.92641">
        <ele>1200</ele>
        <time>2023-05-08T04:55:47Z</time>
      </trkpt>
      <trkpt lat="47.907" lon="6.9264">
        <ele>1200</ele>
        <time>2023-05-08T04:55:51Z</time>
      </trkpt>
      <trkpt lat="47.90693" lon="6.92632">
        <ele>1201</ele>
        <time>2023-05-08T04:56:01Z</time>
      </trkpt>
      <trkpt lat="47.90689" lon="6.9263">
        <ele>1201</ele>
        <time>2023-05-08T04:56:04Z</time>
      </trkpt>
      <trkpt lat="47.90685" lon="6.92627">
        <ele>1202</ele>
        <time>2023-05-08T04:56:09Z</time>
      </trkpt>
      <trkpt lat="47.9068" lon="6.92625">
        <ele>1202</ele>
        <time>2023-05-08T04:56:13Z</time>
      </trkpt>
      <trkpt lat="47.90676" lon="6.92621">
        <ele>1201</ele>
        <time>2023-05-08T04:56:17Z</time>
      </trkpt>
      <trkpt lat="47.90643" lon="6.92597">
        <ele>1205</ele>
        <time>2023-05-08T04:56:49Z</time>
      </trkpt>
      <trkpt lat="47.90612" lon="6.92578">
        <ele>1207</ele>
        <time>2023-05-08T04:57:18Z</time>
      </trkpt>
      <trkpt lat="47.90607" lon="6.92579">
        <ele>1207</ele>
        <time>2023-05-08T04:57:22Z</time>
      </trkpt>
      <trkpt lat="47.9061" lon="6.92572">
        <ele>1207</ele>
        <time>2023-05-08T04:57:42Z</time>
      </trkpt>
      <trkpt lat="47.90608" lon="6.92559">
        <ele>1204</ele>
        <time>2023-05-08T04:57:55Z</time>
      </trkpt>
      <trkpt lat="47.90598" lon="6.92537">
        <ele>1198</ele>
        <time>2023-05-08T04:58:16Z</time>
      </trkpt>
      <trkpt lat="47.90598" lon="6.92528">
        <ele>1196</ele>
        <time>2023-05-08T04:58:26Z</time>
      </trkpt>
      <trkpt lat="47.9059" lon="6.92501">
        <ele>1189</ele>
        <time>2023-05-08T04:58:48Z</time>
      </trkpt>
      <trkpt lat="47.90581" lon="6.92482">
        <ele>1184</ele>
        <time>2023-05-08T04:59:04Z</time>
      </trkpt>
      <trkpt lat="47.90583" lon="6.92474">
        <ele>1183</ele>
        <time>2023-05-08T04:59:08Z</time>
      </trkpt>
      <trkpt lat="47.90579" lon="6.92466">
        <ele>1181</ele>
        <time>2023-05-08T04:59:17Z</time>
      </trkpt>
      <trkpt lat="47.9058" lon="6.92449">
        <ele>1179</ele>
        <time>2023-05-08T04:59:28Z</time>
      </trkpt>
      <trkpt lat="47.9058" lon="6.92443">
        <ele>1178</ele>
        <time>2023-05-08T04:59:31Z</time>
      </trkpt>
      <trkpt lat="47.90577" lon="6.9243">
        <ele>1176</ele>
        <time>2023-05-08T04:59:39Z</time>
      </trkpt>
      <trkpt lat="47.90576" lon="6.92423">
        <ele>1175</ele>
        <time>2023-05-08T04:59:44Z</time>
      </trkpt>
      <trkpt lat="47.90571" lon="6.92413">
        <ele>1172</ele>
        <time>2023-05-08T04:59:53Z</time>
      </trkpt>
      <trkpt lat="47.90572" lon="6.92402">
        <ele>1171</ele>
        <time>2023-05-08T05:00:01Z</time>
      </trkpt>
      <trkpt lat="47.90565" lon="6.92381">
        <ele>1167</ele>
        <time>2023-05-08T05:00:18Z</time>
      </trkpt>
      <trkpt lat="47.90567" lon="6.92374">
        <ele>1166</ele>
        <time>2023-05-08T05:00:23Z</time>
      </trkpt>
      <trkpt lat="47.90563" lon="6.9237">
        <ele>1165</ele>
        <time>2023-05-08T05:00:28Z</time>
      </trkpt>
      <trkpt lat="47.90558" lon="6.92356">
        <ele>1162</ele>
        <time>2023-05-08T05:00:39Z</time>
      </trkpt>
      <trkpt lat="47.90554" lon="6.92345">
        <ele>1162</ele>
        <time>2023-05-08T05:00:45Z</time>
      </trkpt>
      <trkpt lat="47.90545" lon="6.92337">
        <ele>1164</ele>
        <time>2023-05-08T05:00:57Z</time>
      </trkpt>
      <trkpt lat="47.90542" lon="6.92331">
        <ele>1165</ele>
        <time>2023-05-08T05:01:00Z</time>
      </trkpt>
      <trkpt lat="47.90536" lon="6.92326">
        <ele>1165</ele>
        <time>2023-05-08T05:01:06Z</time>
      </trkpt>
      <trkpt lat="47.90533" lon="6.92319">
        <ele>1166</ele>
        <time>2023-05-08T05:01:14Z</time>
      </trkpt>
      <trkpt lat="47.9053" lon="6.92313">
        <ele>1167</ele>
        <time>2023-05-08T05:01:19Z</time>
      </trkpt>
      <trkpt lat="47.90527" lon="6.92306">
        <ele>1168</ele>
        <time>2023-05-08T05:01:27Z</time>
      </trkpt>
      <trkpt lat="47.90525" lon="6.92301">
        <ele>1169</ele>
        <time>2023-05-08T05:01:31Z</time>
      </trkpt>
      <trkpt lat="47.90522" lon="6.92296">
        <ele>1169</ele>
        <time>2023-05-08T05:01:34Z</time>
      </trkpt>
      <trkpt lat="47.90517" lon="6.92282">
        <ele>1169</ele>
        <time>2023-05-08T05:01:45Z</time>
      </trkpt>
      <trkpt lat="47.90515" lon="6.92273">
        <ele>1169</ele>
        <time>2023-05-08T05:01:50Z</time>
      </trkpt>
      <trkpt lat="47.90511" lon="6.9226">
        <ele>1170</ele>
        <time>2023-05-08T05:01:57Z</time>
      </trkpt>
      <trkpt lat="47.90506" lon="6.92254">
        <ele>1170</ele>
        <time>2023-05-08T05:02:05Z</time>
      </trkpt>
      <trkpt lat="47.90504" lon="6.92248">
        <ele>1171</ele>
        <time>2023-05-08T05:02:10Z</time>
      </trkpt>
      <trkpt lat="47.90503" lon="6.92241">
        <ele>1171</ele>
        <time>2023-05-08T05:02:30Z</time>
      </trkpt>
      <trkpt lat="47.90498" lon="6.92235">
        <ele>1172</ele>
        <time>2023-05-08T05:02:37Z</time>
      </trkpt>
      <trkpt lat="47.90494" lon="6.92231">
        <ele>1172</ele>
        <time>2023-05-08T05:02:42Z</time>
      </trkpt>
      <trkpt lat="47.9049" lon="6.92224">
        <ele>1173</ele>
        <time>2023-05-08T05:02:50Z</time>
      </trkpt>
      <trkpt lat="47.90483" lon="6.92213">
        <ele>1174</ele>
        <time>2023-05-08T05:03:00Z</time>
      </trkpt>
      <trkpt lat="47.9048" lon="6.92205">
        <ele>1176</ele>
        <time>2023-05-08T05:03:07Z</time>
      </trkpt>
      <trkpt lat="47.90478" lon="6.92199">
        <ele>1176</ele>
        <time>2023-05-08T05:03:11Z</time>
      </trkpt>
      <trkpt lat="47.90474" lon="6.92193">
        <ele>1176</ele>
        <time>2023-05-08T05:03:15Z</time>
      </trkpt>
      <trkpt lat="47.90465" lon="6.92186">
        <ele>1177</ele>
        <time>2023-05-08T05:03:22Z</time>
      </trkpt>
      <trkpt lat="47.9045" lon="6.92156">
        <ele>1180</ele>
        <time>2023-05-08T05:03:48Z</time>
      </trkpt>
      <trkpt lat="47.90449" lon="6.92144">
        <ele>1181</ele>
        <time>2023-05-08T05:03:57Z</time>
      </trkpt>
      <trkpt lat="47.90448" lon="6.92136">
        <ele>1181</ele>
        <time>2023-05-08T05:04:04Z</time>
      </trkpt>
      <trkpt lat="47.90447" lon="6.92122">
        <ele>1178</ele>
        <time>2023-05-08T05:04:16Z</time>
      </trkpt>
      <trkpt lat="47.90442" lon="6.9211">
        <ele>1176</ele>
        <time>2023-05-08T05:04:25Z</time>
      </trkpt>
      <trkpt lat="47.90442" lon="6.92103">
        <ele>1175</ele>
        <time>2023-05-08T05:04:29Z</time>
      </trkpt>
      <trkpt lat="47.90441" lon="6.92086">
        <ele>1173</ele>
        <time>2023-05-08T05:04:46Z</time>
      </trkpt>
      <trkpt lat="47.90438" lon="6.92081">
        <ele>1173</ele>
        <time>2023-05-08T05:04:51Z</time>
      </trkpt>
      <trkpt lat="47.90435" lon="6.92073">
        <ele>1173</ele>
        <time>2023-05-08T05:04:57Z</time>
      </trkpt>
      <trkpt lat="47.90432" lon="6.92056">
        <ele>1173</ele>
        <time>2023-05-08T05:05:07Z</time>
      </trkpt>
      <trkpt lat="47.90428" lon="6.92051">
        <ele>1173</ele>
        <time>2023-05-08T05:05:11Z</time>
      </trkpt>
      <trkpt lat="47.90422" lon="6.92039">
        <ele>1174</ele>
        <time>2023-05-08T05:05:19Z</time>
      </trkpt>
      <trkpt lat="47.9042" lon="6.92025">
        <ele>1176</ele>
        <time>2023-05-08T05:05:28Z</time>
      </trkpt>
      <trkpt lat="47.90414" lon="6.92015">
        <ele>1177</ele>
        <time>2023-05-08T05:05:36Z</time>
      </trkpt>
      <trkpt lat="47.90399" lon="6.91981">
        <ele>1182</ele>
        <time>2023-05-08T05:06:08Z</time>
      </trkpt>
      <trkpt lat="47.90388" lon="6.91965">
        <ele>1183</ele>
        <time>2023-05-08T05:06:24Z</time>
      </trkpt>
      <trkpt lat="47.90384" lon="6.91961">
        <ele>1183</ele>
        <time>2023-05-08T05:06:27Z</time>
      </trkpt>
      <trkpt lat="47.90381" lon="6.91956">
        <ele>1183</ele>
        <time>2023-05-08T05:06:31Z</time>
      </trkpt>
      <trkpt lat="47.9038" lon="6.91949">
        <ele>1183</ele>
        <time>2023-05-08T05:06:35Z</time>
      </trkpt>
      <trkpt lat="47.90374" lon="6.91935">
        <ele>1183</ele>
        <time>2023-05-08T05:06:43Z</time>
      </trkpt>
      <trkpt lat="47.90374" lon="6.91928">
        <ele>1184</ele>
        <time>2023-05-08T05:06:47Z</time>
      </trkpt>
      <trkpt lat="47.9037" lon="6.9191">
        <ele>1186</ele>
        <time>2023-05-08T05:07:00Z</time>
      </trkpt>
      <trkpt lat="47.90364" lon="6.919">
        <ele>1186</ele>
        <time>2023-05-08T05:07:07Z</time>
      </trkpt>
      <trkpt lat="47.90348" lon="6.91864">
        <ele>1188</ele>
        <time>2023-05-08T05:07:34Z</time>
      </trkpt>
      <trkpt lat="47.90347" lon="6.91858">
        <ele>1188</ele>
        <time>2023-05-08T05:07:38Z</time>
      </trkpt>
      <trkpt lat="47.90345" lon="6.91851">
        <ele>1189</ele>
        <time>2023-05-08T05:07:43Z</time>
      </trkpt>
      <trkpt lat="47.90341" lon="6.91846">
        <ele>1189</ele>
        <time>2023-05-08T05:07:47Z</time>
      </trkpt>
      <trkpt lat="47.90325" lon="6.91807">
        <ele>1193</ele>
        <time>2023-05-08T05:08:18Z</time>
      </trkpt>
      <trkpt lat="47.9031" lon="6.91773">
        <ele>1197</ele>
        <time>2023-05-08T05:08:50Z</time>
      </trkpt>
      <trkpt lat="47.90307" lon="6.91767">
        <ele>1197</ele>
        <time>2023-05-08T05:08:55Z</time>
      </trkpt>
      <trkpt lat="47.9028" lon="6.91744">
        <ele>1200</ele>
        <time>2023-05-08T05:09:25Z</time>
      </trkpt>
      <trkpt lat="47.90265" lon="6.9173">
        <ele>1203</ele>
        <time>2023-05-08T05:09:42Z</time>
      </trkpt>
      <trkpt lat="47.90239" lon="6.91708">
        <ele>1206</ele>
        <time>2023-05-08T05:10:16Z</time>
      </trkpt>
      <trkpt lat="47.90226" lon="6.91693">
        <ele>1210</ele>
        <time>2023-05-08T05:10:38Z</time>
      </trkpt>
      <trkpt lat="47.90224" lon="6.91687">
        <ele>1211</ele>
        <time>2023-05-08T05:10:44Z</time>
      </trkpt>
      <trkpt lat="47.90216" lon="6.9168">
        <ele>1213</ele>
        <time>2023-05-08T05:10:55Z</time>
      </trkpt>
      <trkpt lat="47.90213" lon="6.91674">
        <ele>1212</ele>
        <time>2023-05-08T05:11:03Z</time>
      </trkpt>
      <trkpt lat="47.9021" lon="6.91671">
        <ele>1212</ele>
        <time>2023-05-08T05:11:51Z</time>
      </trkpt>
      <trkpt lat="47.90173" lon="6.91684">
        <ele>1207</ele>
        <time>2023-05-08T05:12:25Z</time>
      </trkpt>
      <trkpt lat="47.90141" lon="6.91696">
        <ele>1199</ele>
        <time>2023-05-08T05:12:59Z</time>
      </trkpt>
      <trkpt lat="47.90137" lon="6.91699">
        <ele>1198</ele>
        <time>2023-05-08T05:13:03Z</time>
      </trkpt>
      <trkpt lat="47.90108" lon="6.91733">
        <ele>1196</ele>
        <time>2023-05-08T05:13:34Z</time>
      </trkpt>
      <trkpt lat="47.90093" lon="6.91749">
        <ele>1196</ele>
        <time>2023-05-08T05:13:51Z</time>
      </trkpt>
      <trkpt lat="47.90079" lon="6.91756">
        <ele>1195</ele>
        <time>2023-05-08T05:14:04Z</time>
      </trkpt>
      <trkpt lat="47.90065" lon="6.91757">
        <ele>1194</ele>
        <time>2023-05-08T05:14:17Z</time>
      </trkpt>
      <trkpt lat="47.90042" lon="6.91757">
        <ele>1191</ele>
        <time>2023-05-08T05:14:37Z</time>
      </trkpt>
      <trkpt lat="47.90038" lon="6.91758">
        <ele>1191</ele>
        <time>2023-05-08T05:14:42Z</time>
      </trkpt>
      <trkpt lat="47.90003" lon="6.91758">
        <ele>1187</ele>
        <time>2023-05-08T05:15:16Z</time>
      </trkpt>
      <trkpt lat="47.89989" lon="6.9176">
        <ele>1185</ele>
        <time>2023-05-08T05:15:29Z</time>
      </trkpt>
      <trkpt lat="47.89974" lon="6.9176">
        <ele>1184</ele>
        <time>2023-05-08T05:15:42Z</time>
      </trkpt>
      <trkpt lat="47.89966" lon="6.91756">
        <ele>1183</ele>
        <time>2023-05-08T05:15:58Z</time>
      </trkpt>
      <trkpt lat="47.89961" lon="6.91753">
        <ele>1183</ele>
        <time>2023-05-08T05:16:02Z</time>
      </trkpt>
      <trkpt lat="47.89956" lon="6.91751">
        <ele>1183</ele>
        <time>2023-05-08T05:16:06Z</time>
      </trkpt>
      <trkpt lat="47.89926" lon="6.91721">
        <ele>1179</ele>
        <time>2023-05-08T05:16:39Z</time>
      </trkpt>
      <trkpt lat="47.89918" lon="6.91715">
        <ele>1178</ele>
        <time>2023-05-08T05:16:48Z</time>
      </trkpt>
      <trkpt lat="47.89911" lon="6.91703">
        <ele>1176</ele>
        <time>2023-05-08T05:17:00Z</time>
      </trkpt>
      <trkpt lat="47.89881" lon="6.91685">
        <ele>1173</ele>
        <time>2023-05-08T05:18:42Z</time>
      </trkpt>
      <trkpt lat="47.89879" lon="6.91683">
        <ele>1173</ele>
        <time>2023-05-08T05:18:43Z</time>
      </trkpt>
      <trkpt lat="47.89871" lon="6.9168">
        <ele>1173</ele>
        <time>2023-05-08T05:18:52Z</time>
      </trkpt>
      <trkpt lat="47.89868" lon="6.9167">
        <ele>1171</ele>
        <time>2023-05-08T05:18:59Z</time>
      </trkpt>
      <trkpt lat="47.8986" lon="6.9166">
        <ele>1169</ele>
        <time>2023-05-08T05:19:07Z</time>
      </trkpt>
      <trkpt lat="47.89855" lon="6.91657">
        <ele>1168</ele>
        <time>2023-05-08T05:19:11Z</time>
      </trkpt>
      <trkpt lat="47.8985" lon="6.91654">
        <ele>1168</ele>
        <time>2023-05-08T05:19:15Z</time>
      </trkpt>
      <trkpt lat="47.89845" lon="6.91654">
        <ele>1168</ele>
        <time>2023-05-08T05:19:20Z</time>
      </trkpt>
      <trkpt lat="47.89842" lon="6.91647">
        <ele>1169</ele>
        <time>2023-05-08T05:19:34Z</time>
      </trkpt>
      <trkpt lat="47.89823" lon="6.9163">
        <ele>1164</ele>
        <time>2023-05-08T05:19:57Z</time>
      </trkpt>
      <trkpt lat="47.89816" lon="6.91612">
        <ele>1160</ele>
        <time>2023-05-08T05:20:13Z</time>
      </trkpt>
      <trkpt lat="47.89814" lon="6.91605">
        <ele>1159</ele>
        <time>2023-05-08T05:20:18Z</time>
      </trkpt>
      <trkpt lat="47.8981" lon="6.91599">
        <ele>1156</ele>
        <time>2023-05-08T05:20:27Z</time>
      </trkpt>
      <trkpt lat="47.89806" lon="6.91596">
        <ele>1156</ele>
        <time>2023-05-08T05:20:30Z</time>
      </trkpt>
      <trkpt lat="47.89804" lon="6.91587">
        <ele>1155</ele>
        <time>2023-05-08T05:20:35Z</time>
      </trkpt>
      <trkpt lat="47.89793" lon="6.91567">
        <ele>1151</ele>
        <time>2023-05-08T05:20:50Z</time>
      </trkpt>
      <trkpt lat="47.89787" lon="6.91561">
        <ele>1150</ele>
        <time>2023-05-08T05:20:58Z</time>
      </trkpt>
      <trkpt lat="47.89785" lon="6.91554">
        <ele>1149</ele>
        <time>2023-05-08T05:21:02Z</time>
      </trkpt>
      <trkpt lat="47.89783" lon="6.91549">
        <ele>1148</ele>
        <time>2023-05-08T05:21:05Z</time>
      </trkpt>
      <trkpt lat="47.89781" lon="6.91543">
        <ele>1146</ele>
        <time>2023-05-08T05:21:10Z</time>
      </trkpt>
      <trkpt lat="47.89777" lon="6.91533">
        <ele>1144</ele>
        <time>2023-05-08T05:21:19Z</time>
      </trkpt>
      <trkpt lat="47.89774" lon="6.91524">
        <ele>1142</ele>
        <time>2023-05-08T05:21:26Z</time>
      </trkpt>
      <trkpt lat="47.89767" lon="6.91503">
        <ele>1138</ele>
        <time>2023-05-08T05:21:40Z</time>
      </trkpt>
      <trkpt lat="47.89763" lon="6.91498">
        <ele>1138</ele>
        <time>2023-05-08T05:21:44Z</time>
      </trkpt>
      <trkpt lat="47.89759" lon="6.91493">
        <ele>1137</ele>
        <time>2023-05-08T05:21:49Z</time>
      </trkpt>
      <trkpt lat="47.8976" lon="6.91486">
        <ele>1136</ele>
        <time>2023-05-08T05:21:52Z</time>
      </trkpt>
      <trkpt lat="47.89758" lon="6.91477">
        <ele>1135</ele>
        <time>2023-05-08T05:21:57Z</time>
      </trkpt>
      <trkpt lat="47.89758" lon="6.91471">
        <ele>1134</ele>
        <time>2023-05-08T05:22:01Z</time>
      </trkpt>
      <trkpt lat="47.89754" lon="6.91462">
        <ele>1133</ele>
        <time>2023-05-08T05:22:07Z</time>
      </trkpt>
      <trkpt lat="47.89753" lon="6.91455">
        <ele>1132</ele>
        <time>2023-05-08T05:22:11Z</time>
      </trkpt>
      <trkpt lat="47.8975" lon="6.91448">
        <ele>1130</ele>
        <time>2023-05-08T05:22:16Z</time>
      </trkpt>
      <trkpt lat="47.89745" lon="6.91406">
        <ele>1123</ele>
        <time>2023-05-08T05:22:41Z</time>
      </trkpt>
      <trkpt lat="47.89747" lon="6.914">
        <ele>1122</ele>
        <time>2023-05-08T05:22:45Z</time>
      </trkpt>
      <trkpt lat="47.89745" lon="6.91386">
        <ele>1120</ele>
        <time>2023-05-08T05:22:54Z</time>
      </trkpt>
      <trkpt lat="47.89745" lon="6.91379">
        <ele>1119</ele>
        <time>2023-05-08T05:22:59Z</time>
      </trkpt>
      <trkpt lat="47.89743" lon="6.91362">
        <ele>1117</ele>
        <time>2023-05-08T05:23:11Z</time>
      </trkpt>
      <trkpt lat="47.89744" lon="6.91329">
        <ele>1111</ele>
        <time>2023-05-08T05:23:34Z</time>
      </trkpt>
      <trkpt lat="47.8974" lon="6.91303">
        <ele>1107</ele>
        <time>2023-05-08T05:23:50Z</time>
      </trkpt>
      <trkpt lat="47.8974" lon="6.91292">
        <ele>1105</ele>
        <time>2023-05-08T05:23:58Z</time>
      </trkpt>
      <trkpt lat="47.89739" lon="6.91286">
        <ele>1104</ele>
        <time>2023-05-08T05:24:01Z</time>
      </trkpt>
      <trkpt lat="47.89739" lon="6.9127">
        <ele>1101</ele>
        <time>2023-05-08T05:24:09Z</time>
      </trkpt>
      <trkpt lat="47.89736" lon="6.91264">
        <ele>1100</ele>
        <time>2023-05-08T05:24:13Z</time>
      </trkpt>
      <trkpt lat="47.89738" lon="6.91257">
        <ele>1099</ele>
        <time>2023-05-08T05:24:17Z</time>
      </trkpt>
      <trkpt lat="47.89737" lon="6.91249">
        <ele>1098</ele>
        <time>2023-05-08T05:24:23Z</time>
      </trkpt>
      <trkpt lat="47.89736" lon="6.91234">
        <ele>1094</ele>
        <time>2023-05-08T05:24:34Z</time>
      </trkpt>
      <trkpt lat="47.89733" lon="6.91229">
        <ele>1094</ele>
        <time>2023-05-08T05:24:39Z</time>
      </trkpt>
      <trkpt lat="47.89732" lon="6.91221">
        <ele>1092</ele>
        <time>2023-05-08T05:24:43Z</time>
      </trkpt>
      <trkpt lat="47.89733" lon="6.91205">
        <ele>1090</ele>
        <time>2023-05-08T05:24:51Z</time>
      </trkpt>
      <trkpt lat="47.89732" lon="6.91196">
        <ele>1089</ele>
        <time>2023-05-08T05:24:55Z</time>
      </trkpt>
      <trkpt lat="47.89736" lon="6.9119">
        <ele>1088</ele>
        <time>2023-05-08T05:24:59Z</time>
      </trkpt>
      <trkpt lat="47.89736" lon="6.91182">
        <ele>1087</ele>
        <time>2023-05-08T05:25:03Z</time>
      </trkpt>
      <trkpt lat="47.89738" lon="6.91177">
        <ele>1086</ele>
        <time>2023-05-08T05:25:07Z</time>
      </trkpt>
      <trkpt lat="47.89749" lon="6.91161">
        <ele>1083</ele>
        <time>2023-05-08T05:25:18Z</time>
      </trkpt>
      <trkpt lat="47.89753" lon="6.91144">
        <ele>1081</ele>
        <time>2023-05-08T05:25:29Z</time>
      </trkpt>
      <trkpt lat="47.89759" lon="6.91136">
        <ele>1078</ele>
        <time>2023-05-08T05:25:37Z</time>
      </trkpt>
      <trkpt lat="47.89759" lon="6.91126">
        <ele>1076</ele>
        <time>2023-05-08T05:25:43Z</time>
      </trkpt>
      <trkpt lat="47.89762" lon="6.91108">
        <ele>1072</ele>
        <time>2023-05-08T05:25:56Z</time>
      </trkpt>
      <trkpt lat="47.89762" lon="6.911">
        <ele>1071</ele>
        <time>2023-05-08T05:26:01Z</time>
      </trkpt>
      <trkpt lat="47.89764" lon="6.91094">
        <ele>1070</ele>
        <time>2023-05-08T05:26:04Z</time>
      </trkpt>
      <trkpt lat="47.8977" lon="6.91088">
        <ele>1070</ele>
        <time>2023-05-08T05:26:07Z</time>
      </trkpt>
      <trkpt lat="47.8977" lon="6.9108">
        <ele>1069</ele>
        <time>2023-05-08T05:26:10Z</time>
      </trkpt>
      <trkpt lat="47.89772" lon="6.91075">
        <ele>1068</ele>
        <time>2023-05-08T05:26:14Z</time>
      </trkpt>
      <trkpt lat="47.89771" lon="6.91068">
        <ele>1066</ele>
        <time>2023-05-08T05:26:19Z</time>
      </trkpt>
      <trkpt lat="47.89775" lon="6.91065">
        <ele>1065</ele>
        <time>2023-05-08T05:26:26Z</time>
      </trkpt>
      <trkpt lat="47.89778" lon="6.91064">
        <ele>1064</ele>
        <time>2023-05-08T05:26:43Z</time>
      </trkpt>
      <trkpt lat="47.89785" lon="6.91032">
        <ele>1059</ele>
        <time>2023-05-08T05:27:03Z</time>
      </trkpt>
      <trkpt lat="47.89786" lon="6.91018">
        <ele>1056</ele>
        <time>2023-05-08T05:27:12Z</time>
      </trkpt>
      <trkpt lat="47.89789" lon="6.91004">
        <ele>1053</ele>
        <time>2023-05-08T05:27:22Z</time>
      </trkpt>
      <trkpt lat="47.8979" lon="6.90997">
        <ele>1052</ele>
        <time>2023-05-08T05:27:25Z</time>
      </trkpt>
      <trkpt lat="47.89794" lon="6.90986">
        <ele>1050</ele>
        <time>2023-05-08T05:27:32Z</time>
      </trkpt>
      <trkpt lat="47.89793" lon="6.90979">
        <ele>1049</ele>
        <time>2023-05-08T05:27:36Z</time>
      </trkpt>
      <trkpt lat="47.8979" lon="6.90965">
        <ele>1047</ele>
        <time>2023-05-08T05:27:44Z</time>
      </trkpt>
      <trkpt lat="47.89788" lon="6.90942">
        <ele>1042</ele>
        <time>2023-05-08T05:27:59Z</time>
      </trkpt>
      <trkpt lat="47.89794" lon="6.90941">
        <ele>1041</ele>
        <time>2023-05-08T05:28:06Z</time>
      </trkpt>
      <trkpt lat="47.89798" lon="6.90936">
        <ele>1041</ele>
        <time>2023-05-08T05:28:13Z</time>
      </trkpt>
      <trkpt lat="47.89795" lon="6.90927">
        <ele>1040</ele>
        <time>2023-05-08T05:28:30Z</time>
      </trkpt>
      <trkpt lat="47.89792" lon="6.90917">
        <ele>1038</ele>
        <time>2023-05-08T05:28:38Z</time>
      </trkpt>
      <trkpt lat="47.89784" lon="6.90887">
        <ele>1033</ele>
        <time>2023-05-08T05:28:57Z</time>
      </trkpt>
      <trkpt lat="47.89785" lon="6.9087">
        <ele>1030</ele>
        <time>2023-05-08T05:29:07Z</time>
      </trkpt>
      <trkpt lat="47.89783" lon="6.90862">
        <ele>1029</ele>
        <time>2023-05-08T05:29:11Z</time>
      </trkpt>
      <trkpt lat="47.8978" lon="6.90857">
        <ele>1028</ele>
        <time>2023-05-08T05:29:14Z</time>
      </trkpt>
      <trkpt lat="47.8978" lon="6.90847">
        <ele>1026</ele>
        <time>2023-05-08T05:29:22Z</time>
      </trkpt>
      <trkpt lat="47.89779" lon="6.90841">
        <ele>1025</ele>
        <time>2023-05-08T05:29:26Z</time>
      </trkpt>
      <trkpt lat="47.89775" lon="6.90834">
        <ele>1023</ele>
        <time>2023-05-08T05:29:32Z</time>
      </trkpt>
      <trkpt lat="47.89773" lon="6.90826">
        <ele>1023</ele>
        <time>2023-05-08T05:29:36Z</time>
      </trkpt>
      <trkpt lat="47.8977" lon="6.90821">
        <ele>1022</ele>
        <time>2023-05-08T05:29:40Z</time>
      </trkpt>
      <trkpt lat="47.89769" lon="6.90815">
        <ele>1021</ele>
        <time>2023-05-08T05:29:44Z</time>
      </trkpt>
      <trkpt lat="47.89766" lon="6.90809">
        <ele>1020</ele>
        <time>2023-05-08T05:29:48Z</time>
      </trkpt>
      <trkpt lat="47.89764" lon="6.90792">
        <ele>1015</ele>
        <time>2023-05-08T05:30:03Z</time>
      </trkpt>
      <trkpt lat="47.89761" lon="6.90788">
        <ele>1014</ele>
        <time>2023-05-08T05:30:07Z</time>
      </trkpt>
      <trkpt lat="47.89758" lon="6.90781">
        <ele>1014</ele>
        <time>2023-05-08T05:30:12Z</time>
      </trkpt>
      <trkpt lat="47.89753" lon="6.90756">
        <ele>1010</ele>
        <time>2023-05-08T05:30:29Z</time>
      </trkpt>
      <trkpt lat="47.89754" lon="6.90749">
        <ele>1009</ele>
        <time>2023-05-08T05:30:33Z</time>
      </trkpt>
      <trkpt lat="47.89753" lon="6.90742">
        <ele>1008</ele>
        <time>2023-05-08T05:30:37Z</time>
      </trkpt>
      <trkpt lat="47.89747" lon="6.9073">
        <ele>1006</ele>
        <time>2023-05-08T05:30:46Z</time>
      </trkpt>
      <trkpt lat="47.89741" lon="6.90711">
        <ele>1003</ele>
        <time>2023-05-08T05:30:58Z</time>
      </trkpt>
      <trkpt lat="47.89741" lon="6.90704">
        <ele>1002</ele>
        <time>2023-05-08T05:31:02Z</time>
      </trkpt>
      <trkpt lat="47.89733" lon="6.90679">
        <ele>999</ele>
        <time>2023-05-08T05:31:17Z</time>
      </trkpt>
      <trkpt lat="47.89732" lon="6.90671">
        <ele>998</ele>
        <time>2023-05-08T05:31:22Z</time>
      </trkpt>
      <trkpt lat="47.89727" lon="6.90658">
        <ele>996</ele>
        <time>2023-05-08T05:31:32Z</time>
      </trkpt>
      <trkpt lat="47.89717" lon="6.90593">
        <ele>986</ele>
        <time>2023-05-08T05:32:08Z</time>
      </trkpt>
      <trkpt lat="47.89716" lon="6.90556">
        <ele>981</ele>
        <time>2023-05-08T05:32:28Z</time>
      </trkpt>
      <trkpt lat="47.89714" lon="6.90543">
        <ele>978</ele>
        <time>2023-05-08T05:32:36Z</time>
      </trkpt>
      <trkpt lat="47.89713" lon="6.90534">
        <ele>979</ele>
        <time>2023-05-08T05:32:43Z</time>
      </trkpt>
      <trkpt lat="47.89712" lon="6.90511">
        <ele>975</ele>
        <time>2023-05-08T05:32:56Z</time>
      </trkpt>
      <trkpt lat="47.89713" lon="6.90505">
        <ele>973</ele>
        <time>2023-05-08T05:33:00Z</time>
      </trkpt>
      <trkpt lat="47.89713" lon="6.90478">
        <ele>969</ele>
        <time>2023-05-08T05:33:18Z</time>
      </trkpt>
      <trkpt lat="47.89714" lon="6.9047">
        <ele>967</ele>
        <time>2023-05-08T05:33:24Z</time>
      </trkpt>
      <trkpt lat="47.89711" lon="6.90456">
        <ele>966</ele>
        <time>2023-05-08T05:33:31Z</time>
      </trkpt>
      <trkpt lat="47.89712" lon="6.90449">
        <ele>964</ele>
        <time>2023-05-08T05:33:37Z</time>
      </trkpt>
      <trkpt lat="47.89705" lon="6.90446">
        <ele>964</ele>
        <time>2023-05-08T05:33:50Z</time>
      </trkpt>
      <trkpt lat="47.89708" lon="6.9044">
        <ele>964</ele>
        <time>2023-05-08T05:33:56Z</time>
      </trkpt>
      <trkpt lat="47.89712" lon="6.90435">
        <ele>963</ele>
        <time>2023-05-08T05:34:01Z</time>
      </trkpt>
      <trkpt lat="47.89708" lon="6.90421">
        <ele>960</ele>
        <time>2023-05-08T05:34:13Z</time>
      </trkpt>
      <trkpt lat="47.89706" lon="6.90406">
        <ele>958</ele>
        <time>2023-05-08T05:34:22Z</time>
      </trkpt>
      <trkpt lat="47.89704" lon="6.90401">
        <ele>957</ele>
        <time>2023-05-08T05:34:26Z</time>
      </trkpt>
      <trkpt lat="47.89701" lon="6.90388">
        <ele>956</ele>
        <time>2023-05-08T05:34:32Z</time>
      </trkpt>
      <trkpt lat="47.89701" lon="6.90382">
        <ele>955</ele>
        <time>2023-05-08T05:34:36Z</time>
      </trkpt>
      <trkpt lat="47.89697" lon="6.90374">
        <ele>954</ele>
        <time>2023-05-08T05:34:41Z</time>
      </trkpt>
      <trkpt lat="47.89689" lon="6.90351">
        <ele>950</ele>
        <time>2023-05-08T05:34:58Z</time>
      </trkpt>
      <trkpt lat="47.89687" lon="6.90343">
        <ele>948</ele>
        <time>2023-05-08T05:35:05Z</time>
      </trkpt>
      <trkpt lat="47.8968" lon="6.90328">
        <ele>945</ele>
        <time>2023-05-08T05:35:16Z</time>
      </trkpt>
      <trkpt lat="47.89673" lon="6.9032">
        <ele>944</ele>
        <time>2023-05-08T05:35:24Z</time>
      </trkpt>
      <trkpt lat="47.8967" lon="6.90315">
        <ele>942</ele>
        <time>2023-05-08T05:35:28Z</time>
      </trkpt>
      <trkpt lat="47.89662" lon="6.90307">
        <ele>941</ele>
        <time>2023-05-08T05:35:36Z</time>
      </trkpt>
      <trkpt lat="47.89654" lon="6.90301">
        <ele>938</ele>
        <time>2023-05-08T05:35:45Z</time>
      </trkpt>
      <trkpt lat="47.89639" lon="6.90283">
        <ele>934</ele>
        <time>2023-05-08T05:36:03Z</time>
      </trkpt>
      <trkpt lat="47.89628" lon="6.90275">
        <ele>930</ele>
        <time>2023-05-08T05:36:15Z</time>
      </trkpt>
      <trkpt lat="47.89616" lon="6.90259">
        <ele>926</ele>
        <time>2023-05-08T05:36:29Z</time>
      </trkpt>
      <trkpt lat="47.89611" lon="6.9026">
        <ele>925</ele>
        <time>2023-05-08T05:36:33Z</time>
      </trkpt>
      <trkpt lat="47.89604" lon="6.90253">
        <ele>924</ele>
        <time>2023-05-08T05:36:42Z</time>
      </trkpt>
      <trkpt lat="47.89601" lon="6.90247">
        <ele>923</ele>
        <time>2023-05-08T05:36:46Z</time>
      </trkpt>
      <trkpt lat="47.89597" lon="6.90244">
        <ele>922</ele>
        <time>2023-05-08T05:36:49Z</time>
      </trkpt>
      <trkpt lat="47.89584" lon="6.90237">
        <ele>920</ele>
        <time>2023-05-08T05:37:01Z</time>
      </trkpt>
      <trkpt lat="47.89576" lon="6.90228">
        <ele>916</ele>
        <time>2023-05-08T05:37:14Z</time>
      </trkpt>
      <trkpt lat="47.89571" lon="6.90229">
        <ele>915</ele>
        <time>2023-05-08T05:37:19Z</time>
      </trkpt>
      <trkpt lat="47.89542" lon="6.90201">
        <ele>908</ele>
        <time>2023-05-08T05:37:52Z</time>
      </trkpt>
      <trkpt lat="47.89535" lon="6.90192">
        <ele>906</ele>
        <time>2023-05-08T05:38:00Z</time>
      </trkpt>
      <trkpt lat="47.89533" lon="6.90186">
        <ele>905</ele>
        <time>2023-05-08T05:38:05Z</time>
      </trkpt>
      <trkpt lat="47.89531" lon="6.90176">
        <ele>904</ele>
        <time>2023-05-08T05:38:13Z</time>
      </trkpt>
      <trkpt lat="47.89531" lon="6.90162">
        <ele>902</ele>
        <time>2023-05-08T05:38:21Z</time>
      </trkpt>
      <trkpt lat="47.89526" lon="6.90156">
        <ele>901</ele>
        <time>2023-05-08T05:38:26Z</time>
      </trkpt>
      <trkpt lat="47.89523" lon="6.90156">
        <ele>899</ele>
        <time>2023-05-08T05:39:35Z</time>
      </trkpt>
      <trkpt lat="47.89517" lon="6.90161">
        <ele>898</ele>
        <time>2023-05-08T05:39:42Z</time>
      </trkpt>
      <trkpt lat="47.89516" lon="6.9015">
        <ele>898</ele>
        <time>2023-05-08T05:39:48Z</time>
      </trkpt>
      <trkpt lat="47.89518" lon="6.90129">
        <ele>896</ele>
        <time>2023-05-08T05:39:58Z</time>
      </trkpt>
      <trkpt lat="47.89517" lon="6.90115">
        <ele>894</ele>
        <time>2023-05-08T05:40:06Z</time>
      </trkpt>
      <trkpt lat="47.89519" lon="6.90109">
        <ele>894</ele>
        <time>2023-05-08T05:40:09Z</time>
      </trkpt>
      <trkpt lat="47.89519" lon="6.90101">
        <ele>893</ele>
        <time>2023-05-08T05:40:12Z</time>
      </trkpt>
      <trkpt lat="47.89522" lon="6.90094">
        <ele>892</ele>
        <time>2023-05-08T05:40:16Z</time>
      </trkpt>
      <trkpt lat="47.89521" lon="6.90078">
        <ele>889</ele>
        <time>2023-05-08T05:40:29Z</time>
      </trkpt>
      <trkpt lat="47.8952" lon="6.90071">
        <ele>888</ele>
        <time>2023-05-08T05:40:34Z</time>
      </trkpt>
      <trkpt lat="47.89521" lon="6.90062">
        <ele>888</ele>
        <time>2023-05-08T05:40:38Z</time>
      </trkpt>
      <trkpt lat="47.89512" lon="6.90032">
        <ele>882</ele>
        <time>2023-05-08T05:41:00Z</time>
      </trkpt>
      <trkpt lat="47.89496" lon="6.89993">
        <ele>875</ele>
        <time>2023-05-08T05:41:26Z</time>
      </trkpt>
      <trkpt lat="47.89492" lon="6.89989">
        <ele>874</ele>
        <time>2023-05-08T05:41:31Z</time>
      </trkpt>
      <trkpt lat="47.89482" lon="6.89975">
        <ele>872</ele>
        <time>2023-05-08T05:41:42Z</time>
      </trkpt>
      <trkpt lat="47.89471" lon="6.89952">
        <ele>867</ele>
        <time>2023-05-08T05:42:01Z</time>
      </trkpt>
      <trkpt lat="47.89456" lon="6.89933">
        <ele>863</ele>
        <time>2023-05-08T05:42:19Z</time>
      </trkpt>
      <trkpt lat="47.89454" lon="6.89928">
        <ele>862</ele>
        <time>2023-05-08T05:42:23Z</time>
      </trkpt>
      <trkpt lat="47.89445" lon="6.89919">
        <ele>860</ele>
        <time>2023-05-08T05:42:30Z</time>
      </trkpt>
      <trkpt lat="47.89439" lon="6.89901">
        <ele>857</ele>
        <time>2023-05-08T05:42:42Z</time>
      </trkpt>
      <trkpt lat="47.89432" lon="6.89889">
        <ele>854</ele>
        <time>2023-05-08T05:42:52Z</time>
      </trkpt>
      <trkpt lat="47.8943" lon="6.89881">
        <ele>853</ele>
        <time>2023-05-08T05:42:58Z</time>
      </trkpt>
      <trkpt lat="47.89426" lon="6.89873">
        <ele>852</ele>
        <time>2023-05-08T05:43:04Z</time>
      </trkpt>
      <trkpt lat="47.89422" lon="6.89869">
        <ele>851</ele>
        <time>2023-05-08T05:43:08Z</time>
      </trkpt>
      <trkpt lat="47.89419" lon="6.89864">
        <ele>850</ele>
        <time>2023-05-08T05:43:12Z</time>
      </trkpt>
      <trkpt lat="47.89416" lon="6.89859">
        <ele>848</ele>
        <time>2023-05-08T05:43:17Z</time>
      </trkpt>
      <trkpt lat="47.89407" lon="6.89851">
        <ele>845</ele>
        <time>2023-05-08T05:43:26Z</time>
      </trkpt>
      <trkpt lat="47.89394" lon="6.89847">
        <ele>843</ele>
        <time>2023-05-08T05:43:38Z</time>
      </trkpt>
      <trkpt lat="47.8938" lon="6.89846">
        <ele>840</ele>
        <time>2023-05-08T05:43:51Z</time>
      </trkpt>
      <trkpt lat="47.89362" lon="6.89858">
        <ele>835</ele>
        <time>2023-05-08T05:44:11Z</time>
      </trkpt>
      <trkpt lat="47.89347" lon="6.89856">
        <ele>832</ele>
        <time>2023-05-08T05:44:22Z</time>
      </trkpt>
      <trkpt lat="47.8934" lon="6.89857">
        <ele>831</ele>
        <time>2023-05-08T05:44:29Z</time>
      </trkpt>
      <trkpt lat="47.89335" lon="6.8986">
        <ele>830</ele>
        <time>2023-05-08T05:44:33Z</time>
      </trkpt>
      <trkpt lat="47.89316" lon="6.89878">
        <ele>826</ele>
        <time>2023-05-08T05:44:53Z</time>
      </trkpt>
      <trkpt lat="47.89303" lon="6.89887">
        <ele>822</ele>
        <time>2023-05-08T05:45:02Z</time>
      </trkpt>
      <trkpt lat="47.89298" lon="6.89894">
        <ele>821</ele>
        <time>2023-05-08T05:45:09Z</time>
      </trkpt>
      <trkpt lat="47.89294" lon="6.89897">
        <ele>821</ele>
        <time>2023-05-08T05:45:13Z</time>
      </trkpt>
      <trkpt lat="47.89288" lon="6.899">
        <ele>819</ele>
        <time>2023-05-08T05:45:24Z</time>
      </trkpt>
      <trkpt lat="47.89283" lon="6.89903">
        <ele>818</ele>
        <time>2023-05-08T05:45:28Z</time>
      </trkpt>
      <trkpt lat="47.8928" lon="6.8991">
        <ele>817</ele>
        <time>2023-05-08T05:45:35Z</time>
      </trkpt>
      <trkpt lat="47.89267" lon="6.89904">
        <ele>813</ele>
        <time>2023-05-08T05:45:49Z</time>
      </trkpt>
      <trkpt lat="47.89261" lon="6.89906">
        <ele>813</ele>
        <time>2023-05-08T05:45:53Z</time>
      </trkpt>
      <trkpt lat="47.89257" lon="6.89909">
        <ele>813</ele>
        <time>2023-05-08T05:45:57Z</time>
      </trkpt>
      <trkpt lat="47.89247" lon="6.89909">
        <ele>812</ele>
        <time>2023-05-08T05:46:03Z</time>
      </trkpt>
      <trkpt lat="47.89211" lon="6.89896">
        <ele>809</ele>
        <time>2023-05-08T05:46:32Z</time>
      </trkpt>
      <trkpt lat="47.89195" lon="6.89882">
        <ele>807</ele>
        <time>2023-05-08T05:46:48Z</time>
      </trkpt>
      <trkpt lat="47.89185" lon="6.89878">
        <ele>806</ele>
        <time>2023-05-08T05:46:56Z</time>
      </trkpt>
      <trkpt lat="47.8918" lon="6.89877">
        <ele>806</ele>
        <time>2023-05-08T05:46:59Z</time>
      </trkpt>
      <trkpt lat="47.89163" lon="6.89868">
        <ele>804</ele>
        <time>2023-05-08T05:47:12Z</time>
      </trkpt>
      <trkpt lat="47.89155" lon="6.89858">
        <ele>803</ele>
        <time>2023-05-08T05:47:19Z</time>
      </trkpt>
      <trkpt lat="47.89121" lon="6.89832">
        <ele>799</ele>
        <time>2023-05-08T05:47:50Z</time>
      </trkpt>
      <trkpt lat="47.89114" lon="6.89821">
        <ele>798</ele>
        <time>2023-05-08T05:47:59Z</time>
      </trkpt>
      <trkpt lat="47.89111" lon="6.89815">
        <ele>798</ele>
        <time>2023-05-08T05:48:03Z</time>
      </trkpt>
      <trkpt lat="47.89105" lon="6.89786">
        <ele>796</ele>
        <time>2023-05-08T05:48:19Z</time>
      </trkpt>
      <trkpt lat="47.8911" lon="6.89767">
        <ele>795</ele>
        <time>2023-05-08T05:48:31Z</time>
      </trkpt>
      <trkpt lat="47.89105" lon="6.89758">
        <ele>795</ele>
        <time>2023-05-08T05:48:40Z</time>
      </trkpt>
      <trkpt lat="47.89101" lon="6.89757">
        <ele>795</ele>
        <time>2023-05-08T05:48:44Z</time>
      </trkpt>
      <trkpt lat="47.89096" lon="6.89757">
        <ele>795</ele>
        <time>2023-05-08T05:48:48Z</time>
      </trkpt>
      <trkpt lat="47.89085" lon="6.89756">
        <ele>792</ele>
        <time>2023-05-08T05:48:59Z</time>
      </trkpt>
      <trkpt lat="47.8908" lon="6.89758">
        <ele>792</ele>
        <time>2023-05-08T05:49:03Z</time>
      </trkpt>
      <trkpt lat="47.89071" lon="6.89757">
        <ele>790</ele>
        <time>2023-05-08T05:49:11Z</time>
      </trkpt>
      <trkpt lat="47.89061" lon="6.89752">
        <ele>788</ele>
        <time>2023-05-08T05:49:19Z</time>
      </trkpt>
      <trkpt lat="47.89058" lon="6.89745">
        <ele>787</ele>
        <time>2023-05-08T05:49:23Z</time>
      </trkpt>
      <trkpt lat="47.89055" lon="6.89741">
        <ele>786</ele>
        <time>2023-05-08T05:49:27Z</time>
      </trkpt>
      <trkpt lat="47.8905" lon="6.8974">
        <ele>784</ele>
        <time>2023-05-08T05:49:32Z</time>
      </trkpt>
      <trkpt lat="47.89041" lon="6.89732">
        <ele>782</ele>
        <time>2023-05-08T05:49:41Z</time>
      </trkpt>
      <trkpt lat="47.89036" lon="6.89723">
        <ele>780</ele>
        <time>2023-05-08T05:49:49Z</time>
      </trkpt>
      <trkpt lat="47.8903" lon="6.89726">
        <ele>779</ele>
        <time>2023-05-08T05:49:53Z</time>
      </trkpt>
      <trkpt lat="47.8903" lon="6.89736">
        <ele>777</ele>
        <time>2023-05-08T05:50:00Z</time>
      </trkpt>
      <trkpt lat="47.89032" lon="6.89743">
        <ele>776</ele>
        <time>2023-05-08T05:50:06Z</time>
      </trkpt>
      <trkpt lat="47.89029" lon="6.89763">
        <ele>771</ele>
        <time>2023-05-08T05:50:23Z</time>
      </trkpt>
      <trkpt lat="47.89028" lon="6.89776">
        <ele>769</ele>
        <time>2023-05-08T05:50:33Z</time>
      </trkpt>
      <trkpt lat="47.8903" lon="6.89801">
        <ele>764</ele>
        <time>2023-05-08T05:50:55Z</time>
      </trkpt>
      <trkpt lat="47.89025" lon="6.89799">
        <ele>763</ele>
        <time>2023-05-08T05:51:00Z</time>
      </trkpt>
      <trkpt lat="47.8902" lon="6.89794">
        <ele>762</ele>
        <time>2023-05-08T05:51:04Z</time>
      </trkpt>
      <trkpt lat="47.89016" lon="6.89792">
        <ele>761</ele>
        <time>2023-05-08T05:51:07Z</time>
      </trkpt>
      <trkpt lat="47.89009" lon="6.89784">
        <ele>759</ele>
        <time>2023-05-08T05:51:13Z</time>
      </trkpt>
      <trkpt lat="47.89005" lon="6.89781">
        <ele>757</ele>
        <time>2023-05-08T05:51:17Z</time>
      </trkpt>
      <trkpt lat="47.89" lon="6.89767">
        <ele>755</ele>
        <time>2023-05-08T05:51:30Z</time>
      </trkpt>
      <trkpt lat="47.88999" lon="6.89757">
        <ele>754</ele>
        <time>2023-05-08T05:51:36Z</time>
      </trkpt>
      <trkpt lat="47.89002" lon="6.89752">
        <ele>753</ele>
        <time>2023-05-08T05:51:40Z</time>
      </trkpt>
      <trkpt lat="47.88988" lon="6.89734">
        <ele>750</ele>
        <time>2023-05-08T05:52:00Z</time>
      </trkpt>
      <trkpt lat="47.88983" lon="6.89722">
        <ele>749</ele>
        <time>2023-05-08T05:52:07Z</time>
      </trkpt>
      <trkpt lat="47.88974" lon="6.89702">
        <ele>747</ele>
        <time>2023-05-08T05:52:21Z</time>
      </trkpt>
      <trkpt lat="47.88974" lon="6.89695">
        <ele>746</ele>
        <time>2023-05-08T05:52:26Z</time>
      </trkpt>
      <trkpt lat="47.88977" lon="6.89666">
        <ele>749</ele>
        <time>2023-05-08T05:52:45Z</time>
      </trkpt>
      <trkpt lat="47.88982" lon="6.89644">
        <ele>749</ele>
        <time>2023-05-08T05:53:01Z</time>
      </trkpt>
      <trkpt lat="47.8898" lon="6.89638">
        <ele>748</ele>
        <time>2023-05-08T05:53:05Z</time>
      </trkpt>
      <trkpt lat="47.88977" lon="6.89614">
        <ele>745</ele>
        <time>2023-05-08T05:53:18Z</time>
      </trkpt>
      <trkpt lat="47.88974" lon="6.89623">
        <ele>743</ele>
        <time>2023-05-08T05:53:26Z</time>
      </trkpt>
      <trkpt lat="47.88972" lon="6.89628">
        <ele>742</ele>
        <time>2023-05-08T05:53:31Z</time>
      </trkpt>
      <trkpt lat="47.8897" lon="6.89634">
        <ele>740</ele>
        <time>2023-05-08T05:53:35Z</time>
      </trkpt>
      <trkpt lat="47.88968" lon="6.89641">
        <ele>740</ele>
        <time>2023-05-08T05:53:39Z</time>
      </trkpt>
      <trkpt lat="47.88966" lon="6.89656">
        <ele>738</ele>
        <time>2023-05-08T05:53:48Z</time>
      </trkpt>
      <trkpt lat="47.88961" lon="6.89665">
        <ele>736</ele>
        <time>2023-05-08T05:53:57Z</time>
      </trkpt>
      <trkpt lat="47.88956" lon="6.8966">
        <ele>734</ele>
        <time>2023-05-08T05:54:03Z</time>
      </trkpt>
      <trkpt lat="47.8895" lon="6.89649">
        <ele>732</ele>
        <time>2023-05-08T05:54:10Z</time>
      </trkpt>
      <trkpt lat="47.88949" lon="6.8964">
        <ele>731</ele>
        <time>2023-05-08T05:54:17Z</time>
      </trkpt>
      <trkpt lat="47.88944" lon="6.89635">
        <ele>729</ele>
        <time>2023-05-08T05:54:23Z</time>
      </trkpt>
      <trkpt lat="47.88938" lon="6.89632">
        <ele>729</ele>
        <time>2023-05-08T05:54:27Z</time>
      </trkpt>
      <trkpt lat="47.88938" lon="6.89633">
        <ele>729</ele>
        <time>2023-05-08T05:54:40Z</time>
      </trkpt>
      <trkpt lat="47.88941" lon="6.8964">
        <ele>730</ele>
        <time>2023-05-08T05:54:45Z</time>
      </trkpt>
      <trkpt lat="47.88942" lon="6.89637">
        <ele>733</ele>
        <time>2023-05-08T05:55:02Z</time>
      </trkpt>
      <trkpt lat="47.88938" lon="6.89631">
        <ele>734</ele>
        <time>2023-05-08T05:55:07Z</time>
      </trkpt>
      <trkpt lat="47.88931" lon="6.89622">
        <ele>735</ele>
        <time>2023-05-08T05:55:16Z</time>
      </trkpt>
      <trkpt lat="47.88931" lon="6.89626">
        <ele>739</ele>
        <time>2023-05-08T05:55:39Z</time>
      </trkpt>
      <trkpt lat="47.88932" lon="6.89634">
        <ele>740</ele>
        <time>2023-05-08T05:55:47Z</time>
      </trkpt>
      <trkpt lat="47.88931" lon="6.89642">
        <ele>741</ele>
        <time>2023-05-08T05:55:53Z</time>
      </trkpt>
      <trkpt lat="47.88934" lon="6.89648">
        <ele>742</ele>
        <time>2023-05-08T05:55:57Z</time>
      </trkpt>
      <trkpt lat="47.88936" lon="6.89661">
        <ele>743</ele>
        <time>2023-05-08T05:56:06Z</time>
      </trkpt>
      <trkpt lat="47.88937" lon="6.8967">
        <ele>744</ele>
        <time>2023-05-08T05:56:13Z</time>
      </trkpt>
      <trkpt lat="47.88937" lon="6.89681">
        <ele>745</ele>
        <time>2023-05-08T05:56:20Z</time>
      </trkpt>
      <trkpt lat="47.88935" lon="6.89689">
        <ele>745</ele>
        <time>2023-05-08T05:56:26Z</time>
      </trkpt>
      <trkpt lat="47.88935" lon="6.89698">
        <ele>746</ele>
        <time>2023-05-08T05:56:31Z</time>
      </trkpt>
      <trkpt lat="47.88934" lon="6.89708">
        <ele>746</ele>
        <time>2023-05-08T05:56:38Z</time>
      </trkpt>
      <trkpt lat="47.88934" lon="6.89718">
        <ele>746</ele>
        <time>2023-05-08T05:56:45Z</time>
      </trkpt>
      <trkpt lat="47.88934" lon="6.89726">
        <ele>746</ele>
        <time>2023-05-08T05:56:49Z</time>
      </trkpt>
      <trkpt lat="47.88932" lon="6.89734">
        <ele>746</ele>
        <time>2023-05-08T05:56:55Z</time>
      </trkpt>
      <trkpt lat="47.88934" lon="6.89741">
        <ele>746</ele>
        <time>2023-05-08T05:56:59Z</time>
      </trkpt>
      <trkpt lat="47.88933" lon="6.89749">
        <ele>746</ele>
        <time>2023-05-08T05:57:03Z</time>
      </trkpt>
      <trkpt lat="47.88933" lon="6.89757">
        <ele>746</ele>
        <time>2023-05-08T05:57:07Z</time>
      </trkpt>
      <trkpt lat="47.88931" lon="6.89763">
        <ele>745</ele>
        <time>2023-05-08T05:57:11Z</time>
      </trkpt>
      <trkpt lat="47.8893" lon="6.89776">
        <ele>746</ele>
        <time>2023-05-08T05:57:19Z</time>
      </trkpt>
      <trkpt lat="47.88929" lon="6.89783">
        <ele>746</ele>
        <time>2023-05-08T05:57:23Z</time>
      </trkpt>
      <trkpt lat="47.8893" lon="6.89789">
        <ele>746</ele>
        <time>2023-05-08T05:57:27Z</time>
      </trkpt>
      <trkpt lat="47.88929" lon="6.89797">
        <ele>747</ele>
        <time>2023-05-08T05:57:32Z</time>
      </trkpt>
      <trkpt lat="47.88929" lon="6.89804">
        <ele>747</ele>
        <time>2023-05-08T05:57:36Z</time>
      </trkpt>
      <trkpt lat="47.88927" lon="6.89811">
        <ele>747</ele>
        <time>2023-05-08T05:57:40Z</time>
      </trkpt>
      <trkpt lat="47.88925" lon="6.89818">
        <ele>748</ele>
        <time>2023-05-08T05:57:44Z</time>
      </trkpt>
      <trkpt lat="47.88924" lon="6.89824">
        <ele>747</ele>
        <time>2023-05-08T05:57:48Z</time>
      </trkpt>
      <trkpt lat="47.88925" lon="6.89833">
        <ele>747</ele>
        <time>2023-05-08T05:57:51Z</time>
      </trkpt>
      <trkpt lat="47.88923" lon="6.89842">
        <ele>747</ele>
        <time>2023-05-08T05:57:58Z</time>
      </trkpt>
      <trkpt lat="47.88922" lon="6.89848">
        <ele>748</ele>
        <time>2023-05-08T05:58:02Z</time>
      </trkpt>
      <trkpt lat="47.88919" lon="6.89862">
        <ele>748</ele>
        <time>2023-05-08T05:58:11Z</time>
      </trkpt>
      <trkpt lat="47.88915" lon="6.89875">
        <ele>749</ele>
        <time>2023-05-08T05:58:20Z</time>
      </trkpt>
      <trkpt lat="47.88913" lon="6.89888">
        <ele>750</ele>
        <time>2023-05-08T05:58:28Z</time>
      </trkpt>
      <trkpt lat="47.88895" lon="6.89934">
        <ele>751</ele>
        <time>2023-05-08T05:58:59Z</time>
      </trkpt>
      <trkpt lat="47.88892" lon="6.89938">
        <ele>752</ele>
        <time>2023-05-08T05:59:02Z</time>
      </trkpt>
      <trkpt lat="47.88883" lon="6.89964">
        <ele>754</ele>
        <time>2023-05-08T05:59:20Z</time>
      </trkpt>
      <trkpt lat="47.88881" lon="6.89969">
        <ele>754</ele>
        <time>2023-05-08T05:59:24Z</time>
      </trkpt>
      <trkpt lat="47.88878" lon="6.89983">
        <ele>754</ele>
        <time>2023-05-08T05:59:33Z</time>
      </trkpt>
      <trkpt lat="47.88876" lon="6.89989">
        <ele>754</ele>
        <time>2023-05-08T05:59:38Z</time>
      </trkpt>
      <trkpt lat="47.88876" lon="6.89999">
        <ele>754</ele>
        <time>2023-05-08T05:59:42Z</time>
      </trkpt>
      <trkpt lat="47.88874" lon="6.90006">
        <ele>754</ele>
        <time>2023-05-08T05:59:45Z</time>
      </trkpt>
      <trkpt lat="47.88871" lon="6.90014">
        <ele>753</ele>
        <time>2023-05-08T05:59:51Z</time>
      </trkpt>
      <trkpt lat="47.88868" lon="6.90023">
        <ele>755</ele>
        <time>2023-05-08T06:00:01Z</time>
      </trkpt>
      <trkpt lat="47.88865" lon="6.90028">
        <ele>755</ele>
        <time>2023-05-08T06:00:05Z</time>
      </trkpt>
      <trkpt lat="47.88857" lon="6.90048">
        <ele>753</ele>
        <time>2023-05-08T06:00:18Z</time>
      </trkpt>
      <trkpt lat="47.88852" lon="6.90069">
        <ele>753</ele>
        <time>2023-05-08T06:00:32Z</time>
      </trkpt>
      <trkpt lat="47.88852" lon="6.90084">
        <ele>752</ele>
        <time>2023-05-08T06:00:42Z</time>
      </trkpt>
      <trkpt lat="47.88854" lon="6.9009">
        <ele>752</ele>
        <time>2023-05-08T06:00:46Z</time>
      </trkpt>
      <trkpt lat="47.88852" lon="6.90097">
        <ele>752</ele>
        <time>2023-05-08T06:00:50Z</time>
      </trkpt>
      <trkpt lat="47.8885" lon="6.90104">
        <ele>752</ele>
        <time>2023-05-08T06:00:55Z</time>
      </trkpt>
      <trkpt lat="47.88844" lon="6.90114">
        <ele>752</ele>
        <time>2023-05-08T06:01:02Z</time>
      </trkpt>
      <trkpt lat="47.88842" lon="6.9012">
        <ele>752</ele>
        <time>2023-05-08T06:01:05Z</time>
      </trkpt>
      <trkpt lat="47.88838" lon="6.90124">
        <ele>752</ele>
        <time>2023-05-08T06:01:08Z</time>
      </trkpt>
      <trkpt lat="47.88835" lon="6.90131">
        <ele>752</ele>
        <time>2023-05-08T06:01:12Z</time>
      </trkpt>
      <trkpt lat="47.88826" lon="6.90138">
        <ele>753</ele>
        <time>2023-05-08T06:01:21Z</time>
      </trkpt>
      <trkpt lat="47.88823" lon="6.90145">
        <ele>753</ele>
        <time>2023-05-08T06:01:25Z</time>
      </trkpt>
      <trkpt lat="47.88821" lon="6.90151">
        <ele>752</ele>
        <time>2023-05-08T06:01:29Z</time>
      </trkpt>
      <trkpt lat="47.88818" lon="6.90156">
        <ele>752</ele>
        <time>2023-05-08T06:01:33Z</time>
      </trkpt>
      <trkpt lat="47.88814" lon="6.9016">
        <ele>752</ele>
        <time>2023-05-08T06:01:37Z</time>
      </trkpt>
      <trkpt lat="47.8881" lon="6.90166">
        <ele>753</ele>
        <time>2023-05-08T06:01:41Z</time>
      </trkpt>
      <trkpt lat="47.88808" lon="6.90178">
        <ele>753</ele>
        <time>2023-05-08T06:01:47Z</time>
      </trkpt>
      <trkpt lat="47.88784" lon="6.90222">
        <ele>755</ele>
        <time>2023-05-08T06:02:17Z</time>
      </trkpt>
      <trkpt lat="47.8878" lon="6.90226">
        <ele>755</ele>
        <time>2023-05-08T06:02:22Z</time>
      </trkpt>
      <trkpt lat="47.88774" lon="6.90227">
        <ele>758</ele>
        <time>2023-05-08T06:02:35Z</time>
      </trkpt>
      <trkpt lat="47.88764" lon="6.90246">
        <ele>761</ele>
        <time>2023-05-08T06:02:54Z</time>
      </trkpt>
      <trkpt lat="47.88763" lon="6.90254">
        <ele>762</ele>
        <time>2023-05-08T06:03:02Z</time>
      </trkpt>
      <trkpt lat="47.88763" lon="6.9026">
        <ele>762</ele>
        <time>2023-05-08T06:03:07Z</time>
      </trkpt>
      <trkpt lat="47.88761" lon="6.90269">
        <ele>764</ele>
        <time>2023-05-08T06:03:13Z</time>
      </trkpt>
      <trkpt lat="47.8876" lon="6.90276">
        <ele>765</ele>
        <time>2023-05-08T06:03:18Z</time>
      </trkpt>
      <trkpt lat="47.88758" lon="6.90282">
        <ele>766</ele>
        <time>2023-05-08T06:03:23Z</time>
      </trkpt>
      <trkpt lat="47.88753" lon="6.90288">
        <ele>767</ele>
        <time>2023-05-08T06:03:31Z</time>
      </trkpt>
      <trkpt lat="47.8875" lon="6.90295">
        <ele>768</ele>
        <time>2023-05-08T06:03:37Z</time>
      </trkpt>
      <trkpt lat="47.88741" lon="6.90352">
        <ele>768</ele>
        <time>2023-05-08T06:04:09Z</time>
      </trkpt>
      <trkpt lat="47.88737" lon="6.90373">
        <ele>768</ele>
        <time>2023-05-08T06:04:21Z</time>
      </trkpt>
      <trkpt lat="47.88734" lon="6.90379">
        <ele>768</ele>
        <time>2023-05-08T06:04:25Z</time>
      </trkpt>
      <trkpt lat="47.88733" lon="6.90386">
        <ele>768</ele>
        <time>2023-05-08T06:04:29Z</time>
      </trkpt>
      <trkpt lat="47.88733" lon="6.90394">
        <ele>768</ele>
        <time>2023-05-08T06:04:33Z</time>
      </trkpt>
      <trkpt lat="47.88729" lon="6.90429">
        <ele>767</ele>
        <time>2023-05-08T06:04:52Z</time>
      </trkpt>
      <trkpt lat="47.88729" lon="6.90443">
        <ele>767</ele>
        <time>2023-05-08T06:05:00Z</time>
      </trkpt>
      <trkpt lat="47.88726" lon="6.90458">
        <ele>767</ele>
        <time>2023-05-08T06:05:08Z</time>
      </trkpt>
      <trkpt lat="47.88727" lon="6.90465">
        <ele>767</ele>
        <time>2023-05-08T06:05:12Z</time>
      </trkpt>
      <trkpt lat="47.88725" lon="6.90495">
        <ele>767</ele>
        <time>2023-05-08T06:05:28Z</time>
      </trkpt>
      <trkpt lat="47.88726" lon="6.90516">
        <ele>767</ele>
        <time>2023-05-08T06:05:40Z</time>
      </trkpt>
      <trkpt lat="47.88724" lon="6.90523">
        <ele>767</ele>
        <time>2023-05-08T06:05:44Z</time>
      </trkpt>
      <trkpt lat="47.88724" lon="6.90532">
        <ele>767</ele>
        <time>2023-05-08T06:05:48Z</time>
      </trkpt>
      <trkpt lat="47.88722" lon="6.90538">
        <ele>767</ele>
        <time>2023-05-08T06:05:52Z</time>
      </trkpt>
      <trkpt lat="47.88721" lon="6.90561">
        <ele>767</ele>
        <time>2023-05-08T06:06:04Z</time>
      </trkpt>
      <trkpt lat="47.88718" lon="6.90576">
        <ele>767</ele>
        <time>2023-05-08T06:06:12Z</time>
      </trkpt>
      <trkpt lat="47.88718" lon="6.90583">
        <ele>767</ele>
        <time>2023-05-08T06:06:16Z</time>
      </trkpt>
      <trkpt lat="47.88714" lon="6.90605">
        <ele>767</ele>
        <time>2023-05-08T06:06:28Z</time>
      </trkpt>
      <trkpt lat="47.88714" lon="6.90613">
        <ele>767</ele>
        <time>2023-05-08T06:06:32Z</time>
      </trkpt>
      <trkpt lat="47.88712" lon="6.90619">
        <ele>767</ele>
        <time>2023-05-08T06:06:36Z</time>
      </trkpt>
      <trkpt lat="47.88708" lon="6.90667">
        <ele>768</ele>
        <time>2023-05-08T06:07:03Z</time>
      </trkpt>
      <trkpt lat="47.88705" lon="6.90681">
        <ele>768</ele>
        <time>2023-05-08T06:07:12Z</time>
      </trkpt>
      <trkpt lat="47.88705" lon="6.90688">
        <ele>768</ele>
        <time>2023-05-08T06:07:16Z</time>
      </trkpt>
      <trkpt lat="47.88702" lon="6.90715">
        <ele>769</ele>
        <time>2023-05-08T06:07:32Z</time>
      </trkpt>
      <trkpt lat="47.88701" lon="6.90722">
        <ele>769</ele>
        <time>2023-05-08T06:07:36Z</time>
      </trkpt>
      <trkpt lat="47.88701" lon="6.90729">
        <ele>770</ele>
        <time>2023-05-08T06:07:41Z</time>
      </trkpt>
      <trkpt lat="47.88701" lon="6.90737">
        <ele>770</ele>
        <time>2023-05-08T06:07:46Z</time>
      </trkpt>
      <trkpt lat="47.887" lon="6.90745">
        <ele>770</ele>
        <time>2023-05-08T06:07:51Z</time>
      </trkpt>
      <trkpt lat="47.88695" lon="6.90758">
        <ele>770</ele>
        <time>2023-05-08T06:07:59Z</time>
      </trkpt>
      <trkpt lat="47.88694" lon="6.90766">
        <ele>771</ele>
        <time>2023-05-08T06:08:03Z</time>
      </trkpt>
      <trkpt lat="47.88679" lon="6.9081">
        <ele>772</ele>
        <time>2023-05-08T06:08:30Z</time>
      </trkpt>
      <trkpt lat="47.88678" lon="6.90817">
        <ele>773</ele>
        <time>2023-05-08T06:08:34Z</time>
      </trkpt>
      <trkpt lat="47.88676" lon="6.90823">
        <ele>773</ele>
        <time>2023-05-08T06:08:38Z</time>
      </trkpt>
      <trkpt lat="47.88672" lon="6.90835">
        <ele>774</ele>
        <time>2023-05-08T06:08:46Z</time>
      </trkpt>
      <trkpt lat="47.8867" lon="6.90842">
        <ele>774</ele>
        <time>2023-05-08T06:08:50Z</time>
      </trkpt>
      <trkpt lat="47.88665" lon="6.90854">
        <ele>775</ele>
        <time>2023-05-08T06:08:59Z</time>
      </trkpt>
      <trkpt lat="47.88662" lon="6.90874">
        <ele>776</ele>
        <time>2023-05-08T06:09:12Z</time>
      </trkpt>
      <trkpt lat="47.88651" lon="6.90901">
        <ele>777</ele>
        <time>2023-05-08T06:09:31Z</time>
      </trkpt>
      <trkpt lat="47.88647" lon="6.90904">
        <ele>777</ele>
        <time>2023-05-08T06:09:35Z</time>
      </trkpt>
      <trkpt lat="47.88644" lon="6.90909">
        <ele>777</ele>
        <time>2023-05-08T06:09:39Z</time>
      </trkpt>
      <trkpt lat="47.88643" lon="6.90915">
        <ele>778</ele>
        <time>2023-05-08T06:09:42Z</time>
      </trkpt>
      <trkpt lat="47.88638" lon="6.90918">
        <ele>778</ele>
        <time>2023-05-08T06:09:46Z</time>
      </trkpt>
      <trkpt lat="47.88632" lon="6.90928">
        <ele>778</ele>
        <time>2023-05-08T06:09:53Z</time>
      </trkpt>
      <trkpt lat="47.88629" lon="6.90932">
        <ele>778</ele>
        <time>2023-05-08T06:09:57Z</time>
      </trkpt>
      <trkpt lat="47.88626" lon="6.90937">
        <ele>779</ele>
        <time>2023-05-08T06:10:01Z</time>
      </trkpt>
      <trkpt lat="47.88622" lon="6.90942">
        <ele>779</ele>
        <time>2023-05-08T06:10:06Z</time>
      </trkpt>
      <trkpt lat="47.8862" lon="6.90949">
        <ele>779</ele>
        <time>2023-05-08T06:10:10Z</time>
      </trkpt>
      <trkpt lat="47.88604" lon="6.90982">
        <ele>781</ele>
        <time>2023-05-08T06:10:33Z</time>
      </trkpt>
      <trkpt lat="47.88599" lon="6.90996">
        <ele>782</ele>
        <time>2023-05-08T06:10:45Z</time>
      </trkpt>
      <trkpt lat="47.88597" lon="6.91005">
        <ele>783</ele>
        <time>2023-05-08T06:10:53Z</time>
      </trkpt>
      <trkpt lat="47.88592" lon="6.91018">
        <ele>783</ele>
        <time>2023-05-08T06:11:01Z</time>
      </trkpt>
      <trkpt lat="47.88589" lon="6.91023">
        <ele>784</ele>
        <time>2023-05-08T06:11:04Z</time>
      </trkpt>
      <trkpt lat="47.8859" lon="6.91031">
        <ele>784</ele>
        <time>2023-05-08T06:11:08Z</time>
      </trkpt>
      <trkpt lat="47.88585" lon="6.91044">
        <ele>785</ele>
        <time>2023-05-08T06:11:16Z</time>
      </trkpt>
      <trkpt lat="47.88578" lon="6.91065">
        <ele>786</ele>
        <time>2023-05-08T06:11:31Z</time>
      </trkpt>
      <trkpt lat="47.88573" lon="6.91076">
        <ele>786</ele>
        <time>2023-05-08T06:11:39Z</time>
      </trkpt>
      <trkpt lat="47.8857" lon="6.91081">
        <ele>786</ele>
        <time>2023-05-08T06:11:43Z</time>
      </trkpt>
      <trkpt lat="47.88562" lon="6.91112">
        <ele>788</ele>
        <time>2023-05-08T06:12:04Z</time>
      </trkpt>
      <trkpt lat="47.88562" lon="6.91118">
        <ele>788</ele>
        <time>2023-05-08T06:12:08Z</time>
      </trkpt>
      <trkpt lat="47.88564" lon="6.91125">
        <ele>788</ele>
        <time>2023-05-08T06:12:12Z</time>
      </trkpt>
      <trkpt lat="47.88564" lon="6.91166">
        <ele>789</ele>
        <time>2023-05-08T06:12:38Z</time>
      </trkpt>
      <trkpt lat="47.88566" lon="6.91179">
        <ele>789</ele>
        <time>2023-05-08T06:12:46Z</time>
      </trkpt>
      <trkpt lat="47.88565" lon="6.91194">
        <ele>788</ele>
        <time>2023-05-08T06:12:55Z</time>
      </trkpt>
      <trkpt lat="47.88562" lon="6.912">
        <ele>788</ele>
        <time>2023-05-08T06:12:59Z</time>
      </trkpt>
      <trkpt lat="47.8856" lon="6.91208">
        <ele>788</ele>
        <time>2023-05-08T06:13:03Z</time>
      </trkpt>
      <trkpt lat="47.88565" lon="6.91222">
        <ele>787</ele>
        <time>2023-05-08T06:13:12Z</time>
      </trkpt>
      <trkpt lat="47.88562" lon="6.91228">
        <ele>787</ele>
        <time>2023-05-08T06:13:16Z</time>
      </trkpt>
      <trkpt lat="47.88562" lon="6.91235">
        <ele>787</ele>
        <time>2023-05-08T06:13:20Z</time>
      </trkpt>
      <trkpt lat="47.8856" lon="6.91241">
        <ele>787</ele>
        <time>2023-05-08T06:13:24Z</time>
      </trkpt>
      <trkpt lat="47.88563" lon="6.91254">
        <ele>786</ele>
        <time>2023-05-08T06:13:34Z</time>
      </trkpt>
      <trkpt lat="47.88565" lon="6.91262">
        <ele>785</ele>
        <time>2023-05-08T06:13:39Z</time>
      </trkpt>
      <trkpt lat="47.88565" lon="6.91269">
        <ele>784</ele>
        <time>2023-05-08T06:13:43Z</time>
      </trkpt>
      <trkpt lat="47.88562" lon="6.91282">
        <ele>785</ele>
        <time>2023-05-08T06:13:52Z</time>
      </trkpt>
      <trkpt lat="47.88563" lon="6.9129">
        <ele>785</ele>
        <time>2023-05-08T06:13:57Z</time>
      </trkpt>
      <trkpt lat="47.88563" lon="6.91297">
        <ele>786</ele>
        <time>2023-05-08T06:14:01Z</time>
      </trkpt>
      <trkpt lat="47.88564" lon="6.91305">
        <ele>786</ele>
        <time>2023-05-08T06:14:06Z</time>
      </trkpt>
      <trkpt lat="47.88563" lon="6.91313">
        <ele>786</ele>
        <time>2023-05-08T06:14:12Z</time>
      </trkpt>
      <trkpt lat="47.88559" lon="6.9132">
        <ele>788</ele>
        <time>2023-05-08T06:14:21Z</time>
      </trkpt>
      <trkpt lat="47.88556" lon="6.91335">
        <ele>791</ele>
        <time>2023-05-08T06:14:35Z</time>
      </trkpt>
      <trkpt lat="47.88554" lon="6.91345">
        <ele>792</ele>
        <time>2023-05-08T06:14:42Z</time>
      </trkpt>
      <trkpt lat="47.8854" lon="6.91373">
        <ele>789</ele>
        <time>2023-05-08T06:15:04Z</time>
      </trkpt>
      <trkpt lat="47.88539" lon="6.91379">
        <ele>789</ele>
        <time>2023-05-08T06:15:08Z</time>
      </trkpt>
      <trkpt lat="47.8854" lon="6.91388">
        <ele>788</ele>
        <time>2023-05-08T06:15:14Z</time>
      </trkpt>
      <trkpt lat="47.88539" lon="6.91402">
        <ele>787</ele>
        <time>2023-05-08T06:15:23Z</time>
      </trkpt>
      <trkpt lat="47.88537" lon="6.91409">
        <ele>787</ele>
        <time>2023-05-08T06:15:28Z</time>
      </trkpt>
      <trkpt lat="47.88528" lon="6.91411">
        <ele>785</ele>
        <time>2023-05-08T06:15:37Z</time>
      </trkpt>
      <trkpt lat="47.88523" lon="6.91409">
        <ele>784</ele>
        <time>2023-05-08T06:15:41Z</time>
      </trkpt>
      <trkpt lat="47.88518" lon="6.91406">
        <ele>784</ele>
        <time>2023-05-08T06:15:45Z</time>
      </trkpt>
      <trkpt lat="47.88513" lon="6.91408">
        <ele>784</ele>
        <time>2023-05-08T06:15:52Z</time>
      </trkpt>
      <trkpt lat="47.88508" lon="6.91409">
        <ele>783</ele>
        <time>2023-05-08T06:15:58Z</time>
      </trkpt>
      <trkpt lat="47.88504" lon="6.91407">
        <ele>782</ele>
        <time>2023-05-08T06:16:03Z</time>
      </trkpt>
      <trkpt lat="47.88494" lon="6.91403">
        <ele>783</ele>
        <time>2023-05-08T06:16:14Z</time>
      </trkpt>
      <trkpt lat="47.88488" lon="6.91406">
        <ele>782</ele>
        <time>2023-05-08T06:16:18Z</time>
      </trkpt>
      <trkpt lat="47.88484" lon="6.91406">
        <ele>781</ele>
        <time>2023-05-08T06:16:21Z</time>
      </trkpt>
      <trkpt lat="47.8848" lon="6.91408">
        <ele>781</ele>
        <time>2023-05-08T06:16:26Z</time>
      </trkpt>
      <trkpt lat="47.88474" lon="6.91412">
        <ele>782</ele>
        <time>2023-05-08T06:16:33Z</time>
      </trkpt>
      <trkpt lat="47.88469" lon="6.91412">
        <ele>780</ele>
        <time>2023-05-08T06:16:41Z</time>
      </trkpt>
      <trkpt lat="47.88462" lon="6.91409">
        <ele>782</ele>
        <time>2023-05-08T06:16:52Z</time>
      </trkpt>
      <trkpt lat="47.88453" lon="6.91412">
        <ele>783</ele>
        <time>2023-05-08T06:17:04Z</time>
      </trkpt>
      <trkpt lat="47.88457" lon="6.91399">
        <ele>787</ele>
        <time>2023-05-08T06:17:24Z</time>
      </trkpt>
      <trkpt lat="47.88461" lon="6.91395">
        <ele>788</ele>
        <time>2023-05-08T06:17:32Z</time>
      </trkpt>
      <trkpt lat="47.88459" lon="6.91391">
        <ele>790</ele>
        <time>2023-05-08T06:17:53Z</time>
      </trkpt>
      <trkpt lat="47.88454" lon="6.91391">
        <ele>791</ele>
        <time>2023-05-08T06:18:00Z</time>
      </trkpt>
      <trkpt lat="47.8845" lon="6.91395">
        <ele>792</ele>
        <time>2023-05-08T06:18:04Z</time>
      </trkpt>
      <trkpt lat="47.88446" lon="6.91404">
        <ele>794</ele>
        <time>2023-05-08T06:18:14Z</time>
      </trkpt>
      <trkpt lat="47.88443" lon="6.91409">
        <ele>795</ele>
        <time>2023-05-08T06:18:18Z</time>
      </trkpt>
      <trkpt lat="47.88438" lon="6.91408">
        <ele>797</ele>
        <time>2023-05-08T06:18:26Z</time>
      </trkpt>
      <trkpt lat="47.88434" lon="6.91402">
        <ele>797</ele>
        <time>2023-05-08T06:18:31Z</time>
      </trkpt>
      <trkpt lat="47.88429" lon="6.91407">
        <ele>799</ele>
        <time>2023-05-08T06:18:51Z</time>
      </trkpt>
      <trkpt lat="47.88425" lon="6.91417">
        <ele>801</ele>
        <time>2023-05-08T06:19:07Z</time>
      </trkpt>
      <trkpt lat="47.88421" lon="6.91415">
        <ele>802</ele>
        <time>2023-05-08T06:19:15Z</time>
      </trkpt>
      <trkpt lat="47.88416" lon="6.91416">
        <ele>803</ele>
        <time>2023-05-08T06:19:21Z</time>
      </trkpt>
      <trkpt lat="47.88411" lon="6.91412">
        <ele>803</ele>
        <time>2023-05-08T06:19:26Z</time>
      </trkpt>
      <trkpt lat="47.88407" lon="6.91408">
        <ele>804</ele>
        <time>2023-05-08T06:19:31Z</time>
      </trkpt>
      <trkpt lat="47.88399" lon="6.91402">
        <ele>805</ele>
        <time>2023-05-08T06:19:40Z</time>
      </trkpt>
      <trkpt lat="47.88394" lon="6.91402">
        <ele>806</ele>
        <time>2023-05-08T06:19:44Z</time>
      </trkpt>
      <trkpt lat="47.8839" lon="6.91392">
        <ele>806</ele>
        <time>2023-05-08T06:19:52Z</time>
      </trkpt>
      <trkpt lat="47.88386" lon="6.91386">
        <ele>807</ele>
        <time>2023-05-08T06:19:58Z</time>
      </trkpt>
      <trkpt lat="47.8838" lon="6.91383">
        <ele>807</ele>
        <time>2023-05-08T06:20:03Z</time>
      </trkpt>
      <trkpt lat="47.88376" lon="6.91383">
        <ele>806</ele>
        <time>2023-05-08T06:20:07Z</time>
      </trkpt>
      <trkpt lat="47.88373" lon="6.91391">
        <ele>806</ele>
        <time>2023-05-08T06:20:14Z</time>
      </trkpt>
      <trkpt lat="47.88366" lon="6.91402">
        <ele>805</ele>
        <time>2023-05-08T06:20:21Z</time>
      </trkpt>
      <trkpt lat="47.8836" lon="6.91414">
        <ele>804</ele>
        <time>2023-05-08T06:20:29Z</time>
      </trkpt>
      <trkpt lat="47.88351" lon="6.91427">
        <ele>804</ele>
        <time>2023-05-08T06:20:42Z</time>
      </trkpt>
      <trkpt lat="47.88342" lon="6.91433">
        <ele>804</ele>
        <time>2023-05-08T06:20:50Z</time>
      </trkpt>
      <trkpt lat="47.88339" lon="6.9144">
        <ele>804</ele>
        <time>2023-05-08T06:20:55Z</time>
      </trkpt>
      <trkpt lat="47.88336" lon="6.91443">
        <ele>804</ele>
        <time>2023-05-08T06:20:59Z</time>
      </trkpt>
      <trkpt lat="47.88331" lon="6.91446">
        <ele>805</ele>
        <time>2023-05-08T06:21:03Z</time>
      </trkpt>
      <trkpt lat="47.88317" lon="6.91464">
        <ele>805</ele>
        <time>2023-05-08T06:21:21Z</time>
      </trkpt>
      <trkpt lat="47.88311" lon="6.91469">
        <ele>806</ele>
        <time>2023-05-08T06:21:29Z</time>
      </trkpt>
      <trkpt lat="47.88308" lon="6.91474">
        <ele>806</ele>
        <time>2023-05-08T06:21:34Z</time>
      </trkpt>
      <trkpt lat="47.883" lon="6.91478">
        <ele>806</ele>
        <time>2023-05-08T06:21:42Z</time>
      </trkpt>
      <trkpt lat="47.88296" lon="6.91479">
        <ele>806</ele>
        <time>2023-05-08T06:21:46Z</time>
      </trkpt>
      <trkpt lat="47.88291" lon="6.91478">
        <ele>806</ele>
        <time>2023-05-08T06:21:50Z</time>
      </trkpt>
      <trkpt lat="47.88282" lon="6.91478">
        <ele>806</ele>
        <time>2023-05-08T06:21:58Z</time>
      </trkpt>
      <trkpt lat="47.88276" lon="6.91484">
        <ele>807</ele>
        <time>2023-05-08T06:22:05Z</time>
      </trkpt>
      <trkpt lat="47.88272" lon="6.91489">
        <ele>807</ele>
        <time>2023-05-08T06:22:09Z</time>
      </trkpt>
      <trkpt lat="47.88267" lon="6.91501">
        <ele>808</ele>
        <time>2023-05-08T06:22:17Z</time>
      </trkpt>
      <trkpt lat="47.88252" lon="6.91518">
        <ele>808</ele>
        <time>2023-05-08T06:22:34Z</time>
      </trkpt>
      <trkpt lat="47.88245" lon="6.91521">
        <ele>808</ele>
        <time>2023-05-08T06:22:43Z</time>
      </trkpt>
      <trkpt lat="47.88242" lon="6.91526">
        <ele>808</ele>
        <time>2023-05-08T06:22:47Z</time>
      </trkpt>
      <trkpt lat="47.88235" lon="6.91527">
        <ele>809</ele>
        <time>2023-05-08T06:22:53Z</time>
      </trkpt>
      <trkpt lat="47.8823" lon="6.91527">
        <ele>809</ele>
        <time>2023-05-08T06:22:57Z</time>
      </trkpt>
      <trkpt lat="47.88226" lon="6.91525">
        <ele>809</ele>
        <time>2023-05-08T06:23:00Z</time>
      </trkpt>
      <trkpt lat="47.88217" lon="6.91523">
        <ele>809</ele>
        <time>2023-05-08T06:23:08Z</time>
      </trkpt>
      <trkpt lat="47.88208" lon="6.91529">
        <ele>810</ele>
        <time>2023-05-08T06:23:16Z</time>
      </trkpt>
      <trkpt lat="47.88194" lon="6.91544">
        <ele>811</ele>
        <time>2023-05-08T06:23:34Z</time>
      </trkpt>
      <trkpt lat="47.88164" lon="6.91568">
        <ele>812</ele>
        <time>2023-05-08T06:24:06Z</time>
      </trkpt>
      <trkpt lat="47.88152" lon="6.91579">
        <ele>813</ele>
        <time>2023-05-08T06:24:16Z</time>
      </trkpt>
      <trkpt lat="47.8815" lon="6.91594">
        <ele>814</ele>
        <time>2023-05-08T06:24:26Z</time>
      </trkpt>
      <trkpt lat="47.88145" lon="6.91604">
        <ele>814</ele>
        <time>2023-05-08T06:24:35Z</time>
      </trkpt>
      <trkpt lat="47.88143" lon="6.91615">
        <ele>815</ele>
        <time>2023-05-08T06:24:44Z</time>
      </trkpt>
      <trkpt lat="47.88127" lon="6.91651">
        <ele>816</ele>
        <time>2023-05-08T06:25:09Z</time>
      </trkpt>
      <trkpt lat="47.88124" lon="6.91655">
        <ele>816</ele>
        <time>2023-05-08T06:25:13Z</time>
      </trkpt>
      <trkpt lat="47.8811" lon="6.91684">
        <ele>817</ele>
        <time>2023-05-08T06:25:33Z</time>
      </trkpt>
      <trkpt lat="47.88103" lon="6.91694">
        <ele>817</ele>
        <time>2023-05-08T06:25:42Z</time>
      </trkpt>
      <trkpt lat="47.88099" lon="6.91699">
        <ele>818</ele>
        <time>2023-05-08T06:25:46Z</time>
      </trkpt>
      <trkpt lat="47.88091" lon="6.91704">
        <ele>817</ele>
        <time>2023-05-08T06:25:54Z</time>
      </trkpt>
      <trkpt lat="47.88086" lon="6.91708">
        <ele>818</ele>
        <time>2023-05-08T06:25:59Z</time>
      </trkpt>
      <trkpt lat="47.88082" lon="6.91709">
        <ele>818</ele>
        <time>2023-05-08T06:26:04Z</time>
      </trkpt>
      <trkpt lat="47.88078" lon="6.91714">
        <ele>818</ele>
        <time>2023-05-08T06:26:09Z</time>
      </trkpt>
      <trkpt lat="47.88073" lon="6.91717">
        <ele>818</ele>
        <time>2023-05-08T06:26:14Z</time>
      </trkpt>
      <trkpt lat="47.88063" lon="6.91716">
        <ele>818</ele>
        <time>2023-05-08T06:26:22Z</time>
      </trkpt>
      <trkpt lat="47.88058" lon="6.91714">
        <ele>818</ele>
        <time>2023-05-08T06:26:26Z</time>
      </trkpt>
      <trkpt lat="47.88051" lon="6.91708">
        <ele>818</ele>
        <time>2023-05-08T06:26:34Z</time>
      </trkpt>
      <trkpt lat="47.88033" lon="6.91699">
        <ele>817</ele>
        <time>2023-05-08T06:26:51Z</time>
      </trkpt>
      <trkpt lat="47.88029" lon="6.91694">
        <ele>817</ele>
        <time>2023-05-08T06:26:56Z</time>
      </trkpt>
      <trkpt lat="47.8802" lon="6.91687">
        <ele>816</ele>
        <time>2023-05-08T06:27:05Z</time>
      </trkpt>
      <trkpt lat="47.88016" lon="6.91681">
        <ele>815</ele>
        <time>2023-05-08T06:27:10Z</time>
      </trkpt>
      <trkpt lat="47.88012" lon="6.91678">
        <ele>815</ele>
        <time>2023-05-08T06:27:14Z</time>
      </trkpt>
      <trkpt lat="47.88009" lon="6.91673">
        <ele>814</ele>
        <time>2023-05-08T06:27:18Z</time>
      </trkpt>
      <trkpt lat="47.88005" lon="6.91668">
        <ele>814</ele>
        <time>2023-05-08T06:27:23Z</time>
      </trkpt>
      <trkpt lat="47.87975" lon="6.91636">
        <ele>810</ele>
        <time>2023-05-08T06:27:56Z</time>
      </trkpt>
      <trkpt lat="47.87969" lon="6.91625">
        <ele>808</ele>
        <time>2023-05-08T06:28:04Z</time>
      </trkpt>
      <trkpt lat="47.87948" lon="6.91609">
        <ele>806</ele>
        <time>2023-05-08T06:28:24Z</time>
      </trkpt>
      <trkpt lat="47.87945" lon="6.91604">
        <ele>805</ele>
        <time>2023-05-08T06:28:28Z</time>
      </trkpt>
      <trkpt lat="47.87944" lon="6.91598">
        <ele>805</ele>
        <time>2023-05-08T06:28:32Z</time>
      </trkpt>
      <trkpt lat="47.87939" lon="6.91569">
        <ele>807</ele>
        <time>2023-05-08T06:28:49Z</time>
      </trkpt>
      <trkpt lat="47.87938" lon="6.91516">
        <ele>810</ele>
        <time>2023-05-08T06:29:20Z</time>
      </trkpt>
      <trkpt lat="47.87938" lon="6.91478">
        <ele>814</ele>
        <time>2023-05-08T06:29:45Z</time>
      </trkpt>
      <trkpt lat="47.87937" lon="6.91472">
        <ele>814</ele>
        <time>2023-05-08T06:29:49Z</time>
      </trkpt>
      <trkpt lat="47.87931" lon="6.91428">
        <ele>818</ele>
        <time>2023-05-08T06:30:18Z</time>
      </trkpt>
      <trkpt lat="47.87934" lon="6.91413">
        <ele>819</ele>
        <time>2023-05-08T06:30:28Z</time>
      </trkpt>
      <trkpt lat="47.87932" lon="6.91365">
        <ele>823</ele>
        <time>2023-05-08T06:31:00Z</time>
      </trkpt>
      <trkpt lat="47.87932" lon="6.91344">
        <ele>825</ele>
        <time>2023-05-08T06:31:15Z</time>
      </trkpt>
      <trkpt lat="47.87931" lon="6.91334">
        <ele>826</ele>
        <time>2023-05-08T06:31:22Z</time>
      </trkpt>
      <trkpt lat="47.87931" lon="6.91314">
        <ele>828</ele>
        <time>2023-05-08T06:31:35Z</time>
      </trkpt>
      <trkpt lat="47.8793" lon="6.91307">
        <ele>829</ele>
        <time>2023-05-08T06:31:40Z</time>
      </trkpt>
      <trkpt lat="47.87932" lon="6.91282">
        <ele>831</ele>
        <time>2023-05-08T06:31:56Z</time>
      </trkpt>
      <trkpt lat="47.87931" lon="6.91275">
        <ele>831</ele>
        <time>2023-05-08T06:32:00Z</time>
      </trkpt>
      <trkpt lat="47.8793" lon="6.9126">
        <ele>832</ele>
        <time>2023-05-08T06:32:09Z</time>
      </trkpt>
      <trkpt lat="47.87931" lon="6.91254">
        <ele>832</ele>
        <time>2023-05-08T06:32:14Z</time>
      </trkpt>
      <trkpt lat="47.87928" lon="6.91247">
        <ele>833</ele>
        <time>2023-05-08T06:32:18Z</time>
      </trkpt>
      <trkpt lat="47.87928" lon="6.9124">
        <ele>833</ele>
        <time>2023-05-08T06:32:23Z</time>
      </trkpt>
      <trkpt lat="47.87929" lon="6.91232">
        <ele>833</ele>
        <time>2023-05-08T06:32:28Z</time>
      </trkpt>
      <trkpt lat="47.87927" lon="6.91216">
        <ele>834</ele>
        <time>2023-05-08T06:32:38Z</time>
      </trkpt>
      <trkpt lat="47.87928" lon="6.91209">
        <ele>835</ele>
        <time>2023-05-08T06:32:42Z</time>
      </trkpt>
      <trkpt lat="47.87926" lon="6.91204">
        <ele>835</ele>
        <time>2023-05-08T06:32:47Z</time>
      </trkpt>
      <trkpt lat="47.87925" lon="6.91196">
        <ele>835</ele>
        <time>2023-05-08T06:32:52Z</time>
      </trkpt>
      <trkpt lat="47.87925" lon="6.9119">
        <ele>836</ele>
        <time>2023-05-08T06:32:56Z</time>
      </trkpt>
      <trkpt lat="47.87924" lon="6.91182">
        <ele>836</ele>
        <time>2023-05-08T06:33:00Z</time>
      </trkpt>
      <trkpt lat="47.87923" lon="6.91176">
        <ele>837</ele>
        <time>2023-05-08T06:33:04Z</time>
      </trkpt>
      <trkpt lat="47.8792" lon="6.91163">
        <ele>837</ele>
        <time>2023-05-08T06:33:12Z</time>
      </trkpt>
      <trkpt lat="47.8792" lon="6.91156">
        <ele>837</ele>
        <time>2023-05-08T06:33:16Z</time>
      </trkpt>
      <trkpt lat="47.87913" lon="6.911">
        <ele>840</ele>
        <time>2023-05-08T06:33:49Z</time>
      </trkpt>
      <trkpt lat="47.87912" lon="6.91089">
        <ele>840</ele>
        <time>2023-05-08T06:33:57Z</time>
      </trkpt>
      <trkpt lat="47.879" lon="6.91058">
        <ele>841</ele>
        <time>2023-05-08T06:34:19Z</time>
      </trkpt>
      <trkpt lat="47.87898" lon="6.91038">
        <ele>842</ele>
        <time>2023-05-08T06:34:32Z</time>
      </trkpt>
      <trkpt lat="47.87896" lon="6.91031">
        <ele>842</ele>
        <time>2023-05-08T06:34:37Z</time>
      </trkpt>
      <trkpt lat="47.87893" lon="6.91025">
        <ele>843</ele>
        <time>2023-05-08T06:34:42Z</time>
      </trkpt>
      <trkpt lat="47.87888" lon="6.91021">
        <ele>843</ele>
        <time>2023-05-08T06:34:48Z</time>
      </trkpt>
      <trkpt lat="47.87874" lon="6.91016">
        <ele>843</ele>
        <time>2023-05-08T06:34:59Z</time>
      </trkpt>
      <trkpt lat="47.87851" lon="6.91016">
        <ele>843</ele>
        <time>2023-05-08T06:35:18Z</time>
      </trkpt>
      <trkpt lat="47.87832" lon="6.91025">
        <ele>843</ele>
        <time>2023-05-08T06:35:36Z</time>
      </trkpt>
      <trkpt lat="47.87825" lon="6.91032">
        <ele>843</ele>
        <time>2023-05-08T06:35:44Z</time>
      </trkpt>
      <trkpt lat="47.87802" lon="6.91072">
        <ele>844</ele>
        <time>2023-05-08T06:36:17Z</time>
      </trkpt>
      <trkpt lat="47.87792" lon="6.91087">
        <ele>844</ele>
        <time>2023-05-08T06:36:31Z</time>
      </trkpt>
      <trkpt lat="47.87778" lon="6.91124">
        <ele>845</ele>
        <time>2023-05-08T06:36:58Z</time>
      </trkpt>
      <trkpt lat="47.87769" lon="6.91138">
        <ele>846</ele>
        <time>2023-05-08T06:37:10Z</time>
      </trkpt>
      <trkpt lat="47.87766" lon="6.91144">
        <ele>846</ele>
        <time>2023-05-08T06:37:14Z</time>
      </trkpt>
      <trkpt lat="47.87756" lon="6.91158">
        <ele>847</ele>
        <time>2023-05-08T06:37:26Z</time>
      </trkpt>
      <trkpt lat="47.87753" lon="6.91164">
        <ele>847</ele>
        <time>2023-05-08T06:37:31Z</time>
      </trkpt>
      <trkpt lat="47.87735" lon="6.91189">
        <ele>848</ele>
        <time>2023-05-08T06:37:50Z</time>
      </trkpt>
      <trkpt lat="47.87731" lon="6.91201">
        <ele>848</ele>
        <time>2023-05-08T06:37:58Z</time>
      </trkpt>
      <trkpt lat="47.87729" lon="6.91209">
        <ele>849</ele>
        <time>2023-05-08T06:38:02Z</time>
      </trkpt>
      <trkpt lat="47.87729" lon="6.91236">
        <ele>849</ele>
        <time>2023-05-08T06:38:18Z</time>
      </trkpt>
      <trkpt lat="47.87727" lon="6.91243">
        <ele>849</ele>
        <time>2023-05-08T06:38:22Z</time>
      </trkpt>
      <trkpt lat="47.87722" lon="6.91296">
        <ele>849</ele>
        <time>2023-05-08T06:38:55Z</time>
      </trkpt>
      <trkpt lat="47.87718" lon="6.91318">
        <ele>849</ele>
        <time>2023-05-08T06:39:08Z</time>
      </trkpt>
      <trkpt lat="47.87718" lon="6.91325">
        <ele>850</ele>
        <time>2023-05-08T06:39:12Z</time>
      </trkpt>
      <trkpt lat="47.87713" lon="6.91374">
        <ele>852</ele>
        <time>2023-05-08T06:39:43Z</time>
      </trkpt>
      <trkpt lat="47.87711" lon="6.91381">
        <ele>852</ele>
        <time>2023-05-08T06:39:48Z</time>
      </trkpt>
      <trkpt lat="47.87713" lon="6.91395">
        <ele>853</ele>
        <time>2023-05-08T06:39:57Z</time>
      </trkpt>
      <trkpt lat="47.87712" lon="6.91402">
        <ele>853</ele>
        <time>2023-05-08T06:40:01Z</time>
      </trkpt>
      <trkpt lat="47.87708" lon="6.91414">
        <ele>854</ele>
        <time>2023-05-08T06:40:10Z</time>
      </trkpt>
      <trkpt lat="47.87696" lon="6.91432">
        <ele>856</ele>
        <time>2023-05-08T06:40:28Z</time>
      </trkpt>
      <trkpt lat="47.87689" lon="6.91437">
        <ele>857</ele>
        <time>2023-05-08T06:40:36Z</time>
      </trkpt>
      <trkpt lat="47.87685" lon="6.91438">
        <ele>857</ele>
        <time>2023-05-08T06:40:50Z</time>
      </trkpt>
      <trkpt lat="47.8768" lon="6.91439">
        <ele>858</ele>
        <time>2023-05-08T06:41:08Z</time>
      </trkpt>
      <trkpt lat="47.8768" lon="6.91451">
        <ele>858</ele>
        <time>2023-05-08T06:41:18Z</time>
      </trkpt>
      <trkpt lat="47.87673" lon="6.91458">
        <ele>859</ele>
        <time>2023-05-08T06:41:28Z</time>
      </trkpt>
      <trkpt lat="47.87666" lon="6.91469">
        <ele>860</ele>
        <time>2023-05-08T06:41:40Z</time>
      </trkpt>
      <trkpt lat="47.8766" lon="6.91477">
        <ele>862</ele>
        <time>2023-05-08T06:41:51Z</time>
      </trkpt>
      <trkpt lat="47.87654" lon="6.91481">
        <ele>863</ele>
        <time>2023-05-08T06:41:58Z</time>
      </trkpt>
      <trkpt lat="47.87647" lon="6.91492">
        <ele>864</ele>
        <time>2023-05-08T06:42:10Z</time>
      </trkpt>
      <trkpt lat="47.87629" lon="6.91527">
        <ele>869</ele>
        <time>2023-05-08T06:42:50Z</time>
      </trkpt>
      <trkpt lat="47.87614" lon="6.9156">
        <ele>872</ele>
        <time>2023-05-08T06:43:22Z</time>
      </trkpt>
      <trkpt lat="47.8761" lon="6.91573">
        <ele>873</ele>
        <time>2023-05-08T06:43:32Z</time>
      </trkpt>
      <trkpt lat="47.87606" lon="6.91597">
        <ele>876</ele>
        <time>2023-05-08T06:43:52Z</time>
      </trkpt>
      <trkpt lat="47.87607" lon="6.91605">
        <ele>877</ele>
        <time>2023-05-08T06:43:59Z</time>
      </trkpt>
      <trkpt lat="47.87606" lon="6.91611">
        <ele>878</ele>
        <time>2023-05-08T06:44:05Z</time>
      </trkpt>
      <trkpt lat="47.87607" lon="6.91625">
        <ele>880</ele>
        <time>2023-05-08T06:44:17Z</time>
      </trkpt>
      <trkpt lat="47.87606" lon="6.91633">
        <ele>881</ele>
        <time>2023-05-08T06:44:23Z</time>
      </trkpt>
      <trkpt lat="47.87608" lon="6.91642">
        <ele>881</ele>
        <time>2023-05-08T06:44:30Z</time>
      </trkpt>
      <trkpt lat="47.87607" lon="6.91662">
        <ele>883</ele>
        <time>2023-05-08T06:44:45Z</time>
      </trkpt>
      <trkpt lat="47.87605" lon="6.91668">
        <ele>883</ele>
        <time>2023-05-08T06:44:50Z</time>
      </trkpt>
      <trkpt lat="47.8761" lon="6.91666">
        <ele>884</ele>
        <time>2023-05-08T06:45:50Z</time>
      </trkpt>
      <trkpt lat="47.87615" lon="6.91671">
        <ele>884</ele>
        <time>2023-05-08T06:45:57Z</time>
      </trkpt>
      <trkpt lat="47.87622" lon="6.91665">
        <ele>884</ele>
        <time>2023-05-08T06:46:01Z</time>
      </trkpt>
      <trkpt lat="47.87626" lon="6.91665">
        <ele>884</ele>
        <time>2023-05-08T06:46:08Z</time>
      </trkpt>
      <trkpt lat="47.87624" lon="6.91674">
        <ele>884</ele>
        <time>2023-05-08T06:46:13Z</time>
      </trkpt>
      <trkpt lat="47.87632" lon="6.91668">
        <ele>884</ele>
        <time>2023-05-08T06:46:23Z</time>
      </trkpt>
      <trkpt lat="47.87637" lon="6.91673">
        <ele>884</ele>
        <time>2023-05-08T06:46:25Z</time>
      </trkpt>
      <trkpt lat="47.87631" lon="6.91677">
        <ele>884</ele>
        <time>2023-05-08T06:46:28Z</time>
      </trkpt>
      <trkpt lat="47.87619" lon="6.9168">
        <ele>884</ele>
        <time>2023-05-08T06:46:32Z</time>
      </trkpt>
      <trkpt lat="47.87613" lon="6.91678">
        <ele>884</ele>
        <time>2023-05-08T06:46:37Z</time>
      </trkpt>
      <trkpt lat="47.87608" lon="6.91676">
        <ele>883</ele>
        <time>2023-05-08T06:46:39Z</time>
      </trkpt>
      <trkpt lat="47.87605" lon="6.91679">
        <ele>883</ele>
        <time>2023-05-08T06:46:42Z</time>
      </trkpt>
      <trkpt lat="47.87601" lon="6.91716">
        <ele>882</ele>
        <time>2023-05-08T06:50:43Z</time>
      </trkpt>
      <trkpt lat="47.87598" lon="6.91747">
        <ele>882</ele>
        <time>2023-05-08T06:51:05Z</time>
      </trkpt>
      <trkpt lat="47.876" lon="6.91763">
        <ele>881</ele>
        <time>2023-05-08T06:51:18Z</time>
      </trkpt>
      <trkpt lat="47.876" lon="6.91771">
        <ele>881</ele>
        <time>2023-05-08T06:51:23Z</time>
      </trkpt>
      <trkpt lat="47.87601" lon="6.91778">
        <ele>881</ele>
        <time>2023-05-08T06:51:28Z</time>
      </trkpt>
      <trkpt lat="47.87599" lon="6.91792">
        <ele>881</ele>
        <time>2023-05-08T06:51:37Z</time>
      </trkpt>
      <trkpt lat="47.87602" lon="6.91806">
        <ele>880</ele>
        <time>2023-05-08T06:51:47Z</time>
      </trkpt>
      <trkpt lat="47.87604" lon="6.91812">
        <ele>880</ele>
        <time>2023-05-08T06:51:51Z</time>
      </trkpt>
      <trkpt lat="47.87612" lon="6.91859">
        <ele>878</ele>
        <time>2023-05-08T06:52:23Z</time>
      </trkpt>
      <trkpt lat="47.87611" lon="6.91867">
        <ele>878</ele>
        <time>2023-05-08T06:52:27Z</time>
      </trkpt>
      <trkpt lat="47.87612" lon="6.91873">
        <ele>878</ele>
        <time>2023-05-08T06:52:31Z</time>
      </trkpt>
      <trkpt lat="47.8761" lon="6.91888">
        <ele>877</ele>
        <time>2023-05-08T06:52:41Z</time>
      </trkpt>
      <trkpt lat="47.87612" lon="6.9192">
        <ele>876</ele>
        <time>2023-05-08T06:53:02Z</time>
      </trkpt>
      <trkpt lat="47.87617" lon="6.91947">
        <ele>875</ele>
        <time>2023-05-08T06:53:20Z</time>
      </trkpt>
      <trkpt lat="47.87629" lon="6.91986">
        <ele>873</ele>
        <time>2023-05-08T06:53:51Z</time>
      </trkpt>
      <trkpt lat="47.87638" lon="6.92019">
        <ele>872</ele>
        <time>2023-05-08T06:54:16Z</time>
      </trkpt>
      <trkpt lat="47.8764" lon="6.92066">
        <ele>870</ele>
        <time>2023-05-08T06:54:47Z</time>
      </trkpt>
      <trkpt lat="47.87642" lon="6.92073">
        <ele>870</ele>
        <time>2023-05-08T06:54:51Z</time>
      </trkpt>
      <trkpt lat="47.87647" lon="6.92095">
        <ele>869</ele>
        <time>2023-05-08T06:55:06Z</time>
      </trkpt>
      <trkpt lat="47.87664" lon="6.9214">
        <ele>867</ele>
        <time>2023-05-08T06:55:40Z</time>
      </trkpt>
      <trkpt lat="47.87673" lon="6.92158">
        <ele>866</ele>
        <time>2023-05-08T06:55:53Z</time>
      </trkpt>
      <trkpt lat="47.87676" lon="6.92165">
        <ele>866</ele>
        <time>2023-05-08T06:55:58Z</time>
      </trkpt>
      <trkpt lat="47.87681" lon="6.92176">
        <ele>865</ele>
        <time>2023-05-08T06:56:06Z</time>
      </trkpt>
      <trkpt lat="47.87693" lon="6.9221">
        <ele>865</ele>
        <time>2023-05-08T06:56:30Z</time>
      </trkpt>
      <trkpt lat="47.87705" lon="6.92254">
        <ele>868</ele>
        <time>2023-05-08T06:57:02Z</time>
      </trkpt>
      <trkpt lat="47.8771" lon="6.92274">
        <ele>870</ele>
        <time>2023-05-08T06:57:17Z</time>
      </trkpt>
      <trkpt lat="47.8771" lon="6.92282">
        <ele>871</ele>
        <time>2023-05-08T06:57:24Z</time>
      </trkpt>
      <trkpt lat="47.87713" lon="6.92293">
        <ele>872</ele>
        <time>2023-05-08T06:57:32Z</time>
      </trkpt>
      <trkpt lat="47.87714" lon="6.92299">
        <ele>873</ele>
        <time>2023-05-08T06:57:38Z</time>
      </trkpt>
      <trkpt lat="47.8772" lon="6.92348">
        <ele>877</ele>
        <time>2023-05-08T06:58:14Z</time>
      </trkpt>
      <trkpt lat="47.87721" lon="6.92391">
        <ele>881</ele>
        <time>2023-05-08T06:58:44Z</time>
      </trkpt>
      <trkpt lat="47.87726" lon="6.92442">
        <ele>886</ele>
        <time>2023-05-08T06:59:19Z</time>
      </trkpt>
      <trkpt lat="47.87728" lon="6.92448">
        <ele>886</ele>
        <time>2023-05-08T06:59:24Z</time>
      </trkpt>
      <trkpt lat="47.87728" lon="6.92463">
        <ele>887</ele>
        <time>2023-05-08T06:59:34Z</time>
      </trkpt>
      <trkpt lat="47.8773" lon="6.9247">
        <ele>888</ele>
        <time>2023-05-08T06:59:40Z</time>
      </trkpt>
      <trkpt lat="47.87728" lon="6.92504">
        <ele>891</ele>
        <time>2023-05-08T07:00:04Z</time>
      </trkpt>
      <trkpt lat="47.87721" lon="6.92539">
        <ele>894</ele>
        <time>2023-05-08T07:00:29Z</time>
      </trkpt>
      <trkpt lat="47.87718" lon="6.92545">
        <ele>895</ele>
        <time>2023-05-08T07:00:34Z</time>
      </trkpt>
      <trkpt lat="47.87708" lon="6.92554">
        <ele>896</ele>
        <time>2023-05-08T07:00:44Z</time>
      </trkpt>
      <trkpt lat="47.87703" lon="6.92554">
        <ele>897</ele>
        <time>2023-05-08T07:00:49Z</time>
      </trkpt>
      <trkpt lat="47.87695" lon="6.92547">
        <ele>898</ele>
        <time>2023-05-08T07:00:58Z</time>
      </trkpt>
      <trkpt lat="47.87679" lon="6.92515">
        <ele>902</ele>
        <time>2023-05-08T07:01:26Z</time>
      </trkpt>
      <trkpt lat="47.87676" lon="6.92509">
        <ele>902</ele>
        <time>2023-05-08T07:01:31Z</time>
      </trkpt>
      <trkpt lat="47.87664" lon="6.92489">
        <ele>904</ele>
        <time>2023-05-08T07:01:51Z</time>
      </trkpt>
      <trkpt lat="47.87641" lon="6.92469">
        <ele>907</ele>
        <time>2023-05-08T07:02:20Z</time>
      </trkpt>
      <trkpt lat="47.87636" lon="6.92461">
        <ele>908</ele>
        <time>2023-05-08T07:02:29Z</time>
      </trkpt>
      <trkpt lat="47.87609" lon="6.92431">
        <ele>912</ele>
        <time>2023-05-08T07:03:02Z</time>
      </trkpt>
      <trkpt lat="47.87604" lon="6.92427">
        <ele>913</ele>
        <time>2023-05-08T07:03:07Z</time>
      </trkpt>
      <trkpt lat="47.87601" lon="6.92423">
        <ele>913</ele>
        <time>2023-05-08T07:03:11Z</time>
      </trkpt>
      <trkpt lat="47.87593" lon="6.92417">
        <ele>914</ele>
        <time>2023-05-08T07:03:20Z</time>
      </trkpt>
      <trkpt lat="47.87572" lon="6.9241">
        <ele>917</ele>
        <time>2023-05-08T07:03:42Z</time>
      </trkpt>
      <trkpt lat="47.87567" lon="6.92409">
        <ele>918</ele>
        <time>2023-05-08T07:03:47Z</time>
      </trkpt>
      <trkpt lat="47.87549" lon="6.92401">
        <ele>919</ele>
        <time>2023-05-08T07:04:06Z</time>
      </trkpt>
      <trkpt lat="47.87517" lon="6.92376">
        <ele>922</ele>
        <time>2023-05-08T07:04:40Z</time>
      </trkpt>
      <trkpt lat="47.87488" lon="6.9235">
        <ele>923</ele>
        <time>2023-05-08T07:05:11Z</time>
      </trkpt>
      <trkpt lat="47.87457" lon="6.92324">
        <ele>923</ele>
        <time>2023-05-08T07:05:44Z</time>
      </trkpt>
      <trkpt lat="47.87424" lon="6.92298">
        <ele>924</ele>
        <time>2023-05-08T07:06:18Z</time>
      </trkpt>
      <trkpt lat="47.87396" lon="6.92265">
        <ele>924</ele>
        <time>2023-05-08T07:06:50Z</time>
      </trkpt>
      <trkpt lat="47.87374" lon="6.92232">
        <ele>924</ele>
        <time>2023-05-08T07:07:18Z</time>
      </trkpt>
      <trkpt lat="47.87353" lon="6.9219">
        <ele>925</ele>
        <time>2023-05-08T07:07:49Z</time>
      </trkpt>
      <trkpt lat="47.87326" lon="6.92155">
        <ele>925</ele>
        <time>2023-05-08T07:08:20Z</time>
      </trkpt>
      <trkpt lat="47.87306" lon="6.92125">
        <ele>926</ele>
        <time>2023-05-08T07:08:45Z</time>
      </trkpt>
      <trkpt lat="47.87301" lon="6.92122">
        <ele>926</ele>
        <time>2023-05-08T07:08:50Z</time>
      </trkpt>
      <trkpt lat="47.87298" lon="6.92117">
        <ele>926</ele>
        <time>2023-05-08T07:08:54Z</time>
      </trkpt>
      <trkpt lat="47.87294" lon="6.92113">
        <ele>926</ele>
        <time>2023-05-08T07:08:58Z</time>
      </trkpt>
      <trkpt lat="47.87291" lon="6.92108">
        <ele>926</ele>
        <time>2023-05-08T07:09:03Z</time>
      </trkpt>
      <trkpt lat="47.87287" lon="6.92105">
        <ele>927</ele>
        <time>2023-05-08T07:09:06Z</time>
      </trkpt>
      <trkpt lat="47.87284" lon="6.92098">
        <ele>927</ele>
        <time>2023-05-08T07:09:10Z</time>
      </trkpt>
      <trkpt lat="47.8728" lon="6.92095">
        <ele>927</ele>
        <time>2023-05-08T07:09:14Z</time>
      </trkpt>
      <trkpt lat="47.87276" lon="6.92091">
        <ele>927</ele>
        <time>2023-05-08T07:09:18Z</time>
      </trkpt>
      <trkpt lat="47.8727" lon="6.92081">
        <ele>927</ele>
        <time>2023-05-08T07:09:26Z</time>
      </trkpt>
      <trkpt lat="47.87262" lon="6.92073">
        <ele>928</ele>
        <time>2023-05-08T07:09:34Z</time>
      </trkpt>
      <trkpt lat="47.87245" lon="6.92063">
        <ele>928</ele>
        <time>2023-05-08T07:09:50Z</time>
      </trkpt>
      <trkpt lat="47.87241" lon="6.92058">
        <ele>927</ele>
        <time>2023-05-08T07:09:54Z</time>
      </trkpt>
      <trkpt lat="47.87237" lon="6.92055">
        <ele>928</ele>
        <time>2023-05-08T07:09:58Z</time>
      </trkpt>
      <trkpt lat="47.87198" lon="6.92038">
        <ele>929</ele>
        <time>2023-05-08T07:10:32Z</time>
      </trkpt>
      <trkpt lat="47.87184" lon="6.92023">
        <ele>930</ele>
        <time>2023-05-08T07:10:48Z</time>
      </trkpt>
      <trkpt lat="47.8718" lon="6.92021">
        <ele>930</ele>
        <time>2023-05-08T07:10:52Z</time>
      </trkpt>
      <trkpt lat="47.8717" lon="6.92017">
        <ele>931</ele>
        <time>2023-05-08T07:11:01Z</time>
      </trkpt>
      <trkpt lat="47.87139" lon="6.92034">
        <ele>934</ele>
        <time>2023-05-08T07:11:31Z</time>
      </trkpt>
      <trkpt lat="47.87111" lon="6.92057">
        <ele>937</ele>
        <time>2023-05-08T07:12:02Z</time>
      </trkpt>
      <trkpt lat="47.87091" lon="6.92077">
        <ele>939</ele>
        <time>2023-05-08T07:12:28Z</time>
      </trkpt>
      <trkpt lat="47.87085" lon="6.92084">
        <ele>940</ele>
        <time>2023-05-08T07:12:36Z</time>
      </trkpt>
      <trkpt lat="47.87081" lon="6.92088">
        <ele>940</ele>
        <time>2023-05-08T07:12:41Z</time>
      </trkpt>
      <trkpt lat="47.87059" lon="6.92124">
        <ele>943</ele>
        <time>2023-05-08T07:13:15Z</time>
      </trkpt>
      <trkpt lat="47.8704" lon="6.92161">
        <ele>945</ele>
        <time>2023-05-08T07:13:46Z</time>
      </trkpt>
      <trkpt lat="47.87023" lon="6.92202">
        <ele>948</ele>
        <time>2023-05-08T07:14:18Z</time>
      </trkpt>
      <trkpt lat="47.87011" lon="6.92232">
        <ele>949</ele>
        <time>2023-05-08T07:14:40Z</time>
      </trkpt>
      <trkpt lat="47.8701" lon="6.92239">
        <ele>950</ele>
        <time>2023-05-08T07:14:44Z</time>
      </trkpt>
      <trkpt lat="47.87006" lon="6.92253">
        <ele>950</ele>
        <time>2023-05-08T07:14:53Z</time>
      </trkpt>
      <trkpt lat="47.87003" lon="6.92257">
        <ele>950</ele>
        <time>2023-05-08T07:14:58Z</time>
      </trkpt>
      <trkpt lat="47.87" lon="6.92262">
        <ele>951</ele>
        <time>2023-05-08T07:15:21Z</time>
      </trkpt>
      <trkpt lat="47.87002" lon="6.92268">
        <ele>950</ele>
        <time>2023-05-08T07:15:25Z</time>
      </trkpt>
      <trkpt lat="47.87003" lon="6.92275">
        <ele>950</ele>
        <time>2023-05-08T07:15:30Z</time>
      </trkpt>
      <trkpt lat="47.87001" lon="6.92296">
        <ele>949</ele>
        <time>2023-05-08T07:15:42Z</time>
      </trkpt>
      <trkpt lat="47.87001" lon="6.92303">
        <ele>949</ele>
        <time>2023-05-08T07:15:46Z</time>
      </trkpt>
      <trkpt lat="47.86998" lon="6.9231">
        <ele>949</ele>
        <time>2023-05-08T07:15:51Z</time>
      </trkpt>
      <trkpt lat="47.86999" lon="6.92317">
        <ele>949</ele>
        <time>2023-05-08T07:15:55Z</time>
      </trkpt>
      <trkpt lat="47.86994" lon="6.92351">
        <ele>955</ele>
        <time>2023-05-08T07:16:28Z</time>
      </trkpt>
      <trkpt lat="47.86992" lon="6.9237">
        <ele>957</ele>
        <time>2023-05-08T07:16:45Z</time>
      </trkpt>
      <trkpt lat="47.8699" lon="6.92376">
        <ele>958</ele>
        <time>2023-05-08T07:16:50Z</time>
      </trkpt>
      <trkpt lat="47.86991" lon="6.92383">
        <ele>958</ele>
        <time>2023-05-08T07:16:56Z</time>
      </trkpt>
      <trkpt lat="47.86989" lon="6.92389">
        <ele>958</ele>
        <time>2023-05-08T07:17:08Z</time>
      </trkpt>
      <trkpt lat="47.86983" lon="6.92388">
        <ele>958</ele>
        <time>2023-05-08T07:17:20Z</time>
      </trkpt>
      <trkpt lat="47.86982" lon="6.92383">
        <ele>957</ele>
        <time>2023-05-08T07:18:15Z</time>
      </trkpt>
      <trkpt lat="47.86986" lon="6.9238">
        <ele>958</ele>
        <time>2023-05-08T07:18:20Z</time>
      </trkpt>
      <trkpt lat="47.86989" lon="6.92375">
        <ele>958</ele>
        <time>2023-05-08T07:18:25Z</time>
      </trkpt>
      <trkpt lat="47.86991" lon="6.92366">
        <ele>957</ele>
        <time>2023-05-08T07:18:34Z</time>
      </trkpt>
      <trkpt lat="47.86994" lon="6.92328">
        <ele>951</ele>
        <time>2023-05-08T07:19:01Z</time>
      </trkpt>
      <trkpt lat="47.86995" lon="6.92315">
        <ele>949</ele>
        <time>2023-05-08T07:19:09Z</time>
      </trkpt>
      <trkpt lat="47.86994" lon="6.92309">
        <ele>948</ele>
        <time>2023-05-08T07:19:13Z</time>
      </trkpt>
      <trkpt lat="47.86994" lon="6.92302">
        <ele>947</ele>
        <time>2023-05-08T07:19:16Z</time>
      </trkpt>
      <trkpt lat="47.86997" lon="6.92276">
        <ele>947</ele>
        <time>2023-05-08T07:19:30Z</time>
      </trkpt>
      <trkpt lat="47.86998" lon="6.92262">
        <ele>948</ele>
        <time>2023-05-08T07:19:38Z</time>
      </trkpt>
      <trkpt lat="47.86996" lon="6.92251">
        <ele>948</ele>
        <time>2023-05-08T07:19:46Z</time>
      </trkpt>
      <trkpt lat="47.8699" lon="6.92245">
        <ele>950</ele>
        <time>2023-05-08T07:20:02Z</time>
      </trkpt>
      <trkpt lat="47.86986" lon="6.92241">
        <ele>951</ele>
        <time>2023-05-08T07:20:06Z</time>
      </trkpt>
      <trkpt lat="47.86985" lon="6.92234">
        <ele>951</ele>
        <time>2023-05-08T07:20:13Z</time>
      </trkpt>
      <trkpt lat="47.86989" lon="6.92232">
        <ele>952</ele>
        <time>2023-05-08T07:20:19Z</time>
      </trkpt>
      <trkpt lat="47.86993" lon="6.92227">
        <ele>953</ele>
        <time>2023-05-08T07:20:24Z</time>
      </trkpt>
      <trkpt lat="47.8699" lon="6.92224">
        <ele>955</ele>
        <time>2023-05-08T07:20:40Z</time>
      </trkpt>
      <trkpt lat="47.8698" lon="6.92224">
        <ele>955</ele>
        <time>2023-05-08T07:20:50Z</time>
      </trkpt>
      <trkpt lat="47.86984" lon="6.92219">
        <ele>957</ele>
        <time>2023-05-08T07:21:02Z</time>
      </trkpt>
      <trkpt lat="47.86979" lon="6.9221">
        <ele>959</ele>
        <time>2023-05-08T07:21:16Z</time>
      </trkpt>
      <trkpt lat="47.86975" lon="6.92203">
        <ele>961</ele>
        <time>2023-05-08T07:21:24Z</time>
      </trkpt>
      <trkpt lat="47.8697" lon="6.92177">
        <ele>963</ele>
        <time>2023-05-08T07:21:40Z</time>
      </trkpt>
      <trkpt lat="47.86967" lon="6.92165">
        <ele>964</ele>
        <time>2023-05-08T07:21:49Z</time>
      </trkpt>
      <trkpt lat="47.86967" lon="6.92156">
        <ele>964</ele>
        <time>2023-05-08T07:21:53Z</time>
      </trkpt>
      <trkpt lat="47.86966" lon="6.9215">
        <ele>964</ele>
        <time>2023-05-08T07:21:57Z</time>
      </trkpt>
      <trkpt lat="47.86965" lon="6.9213">
        <ele>966</ele>
        <time>2023-05-08T07:22:09Z</time>
      </trkpt>
      <trkpt lat="47.86962" lon="6.92121">
        <ele>966</ele>
        <time>2023-05-08T07:22:16Z</time>
      </trkpt>
      <trkpt lat="47.8696" lon="6.92109">
        <ele>968</ele>
        <time>2023-05-08T07:22:24Z</time>
      </trkpt>
      <trkpt lat="47.86958" lon="6.92095">
        <ele>969</ele>
        <time>2023-05-08T07:22:35Z</time>
      </trkpt>
      <trkpt lat="47.86958" lon="6.92088">
        <ele>970</ele>
        <time>2023-05-08T07:22:39Z</time>
      </trkpt>
      <trkpt lat="47.8695" lon="6.92045">
        <ele>975</ele>
        <time>2023-05-08T07:23:15Z</time>
      </trkpt>
      <trkpt lat="47.86949" lon="6.92038">
        <ele>975</ele>
        <time>2023-05-08T07:23:20Z</time>
      </trkpt>
      <trkpt lat="47.86957" lon="6.92045">
        <ele>978</ele>
        <time>2023-05-08T07:23:33Z</time>
      </trkpt>
      <trkpt lat="47.86961" lon="6.9205">
        <ele>978</ele>
        <time>2023-05-08T07:23:36Z</time>
      </trkpt>
      <trkpt lat="47.86964" lon="6.92047">
        <ele>981</ele>
        <time>2023-05-08T07:23:52Z</time>
      </trkpt>
      <trkpt lat="47.86962" lon="6.92037">
        <ele>983</ele>
        <time>2023-05-08T07:24:00Z</time>
      </trkpt>
      <trkpt lat="47.8696" lon="6.91996">
        <ele>987</ele>
        <time>2023-05-08T07:24:29Z</time>
      </trkpt>
      <trkpt lat="47.86958" lon="6.9199">
        <ele>987</ele>
        <time>2023-05-08T07:24:33Z</time>
      </trkpt>
      <trkpt lat="47.86956" lon="6.91952">
        <ele>990</ele>
        <time>2023-05-08T07:24:58Z</time>
      </trkpt>
      <trkpt lat="47.8696" lon="6.91929">
        <ele>992</ele>
        <time>2023-05-08T07:25:13Z</time>
      </trkpt>
      <trkpt lat="47.86959" lon="6.91923">
        <ele>993</ele>
        <time>2023-05-08T07:25:18Z</time>
      </trkpt>
      <trkpt lat="47.86959" lon="6.91915">
        <ele>993</ele>
        <time>2023-05-08T07:25:22Z</time>
      </trkpt>
      <trkpt lat="47.86961" lon="6.91903">
        <ele>994</ele>
        <time>2023-05-08T07:25:32Z</time>
      </trkpt>
      <trkpt lat="47.86959" lon="6.91897">
        <ele>996</ele>
        <time>2023-05-08T07:25:39Z</time>
      </trkpt>
      <trkpt lat="47.86959" lon="6.91888">
        <ele>997</ele>
        <time>2023-05-08T07:25:46Z</time>
      </trkpt>
      <trkpt lat="47.86961" lon="6.91881">
        <ele>997</ele>
        <time>2023-05-08T07:25:50Z</time>
      </trkpt>
      <trkpt lat="47.86956" lon="6.91845">
        <ele>999</ele>
        <time>2023-05-08T07:26:17Z</time>
      </trkpt>
      <trkpt lat="47.8696" lon="6.9184">
        <ele>999</ele>
        <time>2023-05-08T07:26:20Z</time>
      </trkpt>
      <trkpt lat="47.86962" lon="6.9183">
        <ele>1000</ele>
        <time>2023-05-08T07:26:27Z</time>
      </trkpt>
      <trkpt lat="47.86966" lon="6.91807">
        <ele>1001</ele>
        <time>2023-05-08T07:26:41Z</time>
      </trkpt>
      <trkpt lat="47.86966" lon="6.91789">
        <ele>1003</ele>
        <time>2023-05-08T07:26:53Z</time>
      </trkpt>
      <trkpt lat="47.86966" lon="6.91782">
        <ele>1003</ele>
        <time>2023-05-08T07:26:56Z</time>
      </trkpt>
      <trkpt lat="47.86965" lon="6.91774">
        <ele>1003</ele>
        <time>2023-05-08T07:27:03Z</time>
      </trkpt>
      <trkpt lat="47.86964" lon="6.91766">
        <ele>1003</ele>
        <time>2023-05-08T07:27:07Z</time>
      </trkpt>
      <trkpt lat="47.86959" lon="6.91751">
        <ele>1005</ele>
        <time>2023-05-08T07:27:20Z</time>
      </trkpt>
      <trkpt lat="47.86959" lon="6.91743">
        <ele>1004</ele>
        <time>2023-05-08T07:27:25Z</time>
      </trkpt>
      <trkpt lat="47.86954" lon="6.91696">
        <ele>1009</ele>
        <time>2023-05-08T07:27:59Z</time>
      </trkpt>
      <trkpt lat="47.86953" lon="6.91686">
        <ele>1010</ele>
        <time>2023-05-08T07:28:06Z</time>
      </trkpt>
      <trkpt lat="47.86949" lon="6.9168">
        <ele>1010</ele>
        <time>2023-05-08T07:28:12Z</time>
      </trkpt>
      <trkpt lat="47.86951" lon="6.91678">
        <ele>1010</ele>
        <time>2023-05-08T07:29:19Z</time>
      </trkpt>
      <trkpt lat="47.86958" lon="6.91674">
        <ele>1010</ele>
        <time>2023-05-08T07:29:30Z</time>
      </trkpt>
      <trkpt lat="47.86962" lon="6.9167">
        <ele>1010</ele>
        <time>2023-05-08T07:29:34Z</time>
      </trkpt>
      <trkpt lat="47.86965" lon="6.91657">
        <ele>1010</ele>
        <time>2023-05-08T07:29:43Z</time>
      </trkpt>
      <trkpt lat="47.86966" lon="6.9164">
        <ele>1009</ele>
        <time>2023-05-08T07:29:53Z</time>
      </trkpt>
      <trkpt lat="47.86964" lon="6.91632">
        <ele>1009</ele>
        <time>2023-05-08T07:29:56Z</time>
      </trkpt>
      <trkpt lat="47.86962" lon="6.9162">
        <ele>1010</ele>
        <time>2023-05-08T07:30:03Z</time>
      </trkpt>
      <trkpt lat="47.86962" lon="6.91612">
        <ele>1010</ele>
        <time>2023-05-08T07:30:07Z</time>
      </trkpt>
      <trkpt lat="47.86963" lon="6.91605">
        <ele>1010</ele>
        <time>2023-05-08T07:30:10Z</time>
      </trkpt>
      <trkpt lat="47.86962" lon="6.91589">
        <ele>1011</ele>
        <time>2023-05-08T07:30:20Z</time>
      </trkpt>
      <trkpt lat="47.86965" lon="6.91584">
        <ele>1011</ele>
        <time>2023-05-08T07:30:24Z</time>
      </trkpt>
      <trkpt lat="47.86967" lon="6.91567">
        <ele>1011</ele>
        <time>2023-05-08T07:30:35Z</time>
      </trkpt>
      <trkpt lat="47.86968" lon="6.91548">
        <ele>1012</ele>
        <time>2023-05-08T07:30:47Z</time>
      </trkpt>
      <trkpt lat="47.86971" lon="6.91533">
        <ele>1013</ele>
        <time>2023-05-08T07:30:57Z</time>
      </trkpt>
      <trkpt lat="47.86971" lon="6.91526">
        <ele>1014</ele>
        <time>2023-05-08T07:31:01Z</time>
      </trkpt>
      <trkpt lat="47.86973" lon="6.91496">
        <ele>1013</ele>
        <time>2023-05-08T07:31:15Z</time>
      </trkpt>
      <trkpt lat="47.86974" lon="6.9149">
        <ele>1013</ele>
        <time>2023-05-08T07:31:20Z</time>
      </trkpt>
      <trkpt lat="47.86972" lon="6.91479">
        <ele>1014</ele>
        <time>2023-05-08T07:31:31Z</time>
      </trkpt>
      <trkpt lat="47.86971" lon="6.91471">
        <ele>1015</ele>
        <time>2023-05-08T07:31:37Z</time>
      </trkpt>
      <trkpt lat="47.86971" lon="6.91465">
        <ele>1015</ele>
        <time>2023-05-08T07:31:41Z</time>
      </trkpt>
      <trkpt lat="47.86968" lon="6.9146">
        <ele>1018</ele>
        <time>2023-05-08T07:31:55Z</time>
      </trkpt>
      <trkpt lat="47.86962" lon="6.91456">
        <ele>1019</ele>
        <time>2023-05-08T07:32:07Z</time>
      </trkpt>
      <trkpt lat="47.86959" lon="6.91453">
        <ele>1019</ele>
        <time>2023-05-08T07:32:11Z</time>
      </trkpt>
      <trkpt lat="47.8695" lon="6.91444">
        <ele>1022</ele>
        <time>2023-05-08T07:32:24Z</time>
      </trkpt>
      <trkpt lat="47.86946" lon="6.91429">
        <ele>1024</ele>
        <time>2023-05-08T07:32:38Z</time>
      </trkpt>
      <trkpt lat="47.86941" lon="6.91425">
        <ele>1025</ele>
        <time>2023-05-08T07:32:42Z</time>
      </trkpt>
      <trkpt lat="47.86937" lon="6.91424">
        <ele>1025</ele>
        <time>2023-05-08T07:32:46Z</time>
      </trkpt>
      <trkpt lat="47.86917" lon="6.91409">
        <ele>1026</ele>
        <time>2023-05-08T07:33:05Z</time>
      </trkpt>
      <trkpt lat="47.86914" lon="6.91404">
        <ele>1027</ele>
        <time>2023-05-08T07:33:10Z</time>
      </trkpt>
      <trkpt lat="47.86912" lon="6.91397">
        <ele>1027</ele>
        <time>2023-05-08T07:33:14Z</time>
      </trkpt>
      <trkpt lat="47.86905" lon="6.91391">
        <ele>1028</ele>
        <time>2023-05-08T07:33:23Z</time>
      </trkpt>
      <trkpt lat="47.86902" lon="6.91387">
        <ele>1028</ele>
        <time>2023-05-08T07:33:27Z</time>
      </trkpt>
      <trkpt lat="47.86897" lon="6.91378">
        <ele>1030</ele>
        <time>2023-05-08T07:33:37Z</time>
      </trkpt>
      <trkpt lat="47.86889" lon="6.91376">
        <ele>1030</ele>
        <time>2023-05-08T07:33:46Z</time>
      </trkpt>
      <trkpt lat="47.86885" lon="6.91369">
        <ele>1031</ele>
        <time>2023-05-08T07:33:52Z</time>
      </trkpt>
      <trkpt lat="47.86881" lon="6.91366">
        <ele>1031</ele>
        <time>2023-05-08T07:33:56Z</time>
      </trkpt>
      <trkpt lat="47.86878" lon="6.91361">
        <ele>1032</ele>
        <time>2023-05-08T07:34:00Z</time>
      </trkpt>
      <trkpt lat="47.86876" lon="6.91356">
        <ele>1032</ele>
        <time>2023-05-08T07:34:04Z</time>
      </trkpt>
      <trkpt lat="47.86873" lon="6.9135">
        <ele>1032</ele>
        <time>2023-05-08T07:34:08Z</time>
      </trkpt>
      <trkpt lat="47.86869" lon="6.9134">
        <ele>1033</ele>
        <time>2023-05-08T07:34:15Z</time>
      </trkpt>
      <trkpt lat="47.86869" lon="6.91324">
        <ele>1034</ele>
        <time>2023-05-08T07:34:25Z</time>
      </trkpt>
      <trkpt lat="47.86865" lon="6.91319">
        <ele>1034</ele>
        <time>2023-05-08T07:34:29Z</time>
      </trkpt>
      <trkpt lat="47.86864" lon="6.91313">
        <ele>1035</ele>
        <time>2023-05-08T07:34:33Z</time>
      </trkpt>
      <trkpt lat="47.8686" lon="6.91309">
        <ele>1035</ele>
        <time>2023-05-08T07:34:36Z</time>
      </trkpt>
      <trkpt lat="47.86855" lon="6.91307">
        <ele>1035</ele>
        <time>2023-05-08T07:34:40Z</time>
      </trkpt>
      <trkpt lat="47.86853" lon="6.913">
        <ele>1036</ele>
        <time>2023-05-08T07:34:45Z</time>
      </trkpt>
      <trkpt lat="47.86848" lon="6.91295">
        <ele>1037</ele>
        <time>2023-05-08T07:34:52Z</time>
      </trkpt>
      <trkpt lat="47.86847" lon="6.91287">
        <ele>1038</ele>
        <time>2023-05-08T07:34:58Z</time>
      </trkpt>
      <trkpt lat="47.86844" lon="6.91281">
        <ele>1038</ele>
        <time>2023-05-08T07:35:03Z</time>
      </trkpt>
      <trkpt lat="47.86842" lon="6.91274">
        <ele>1038</ele>
        <time>2023-05-08T07:35:07Z</time>
      </trkpt>
      <trkpt lat="47.86845" lon="6.91268">
        <ele>1038</ele>
        <time>2023-05-08T07:35:11Z</time>
      </trkpt>
      <trkpt lat="47.86844" lon="6.91259">
        <ele>1038</ele>
        <time>2023-05-08T07:35:15Z</time>
      </trkpt>
      <trkpt lat="47.86844" lon="6.91245">
        <ele>1037</ele>
        <time>2023-05-08T07:35:24Z</time>
      </trkpt>
      <trkpt lat="47.86845" lon="6.91236">
        <ele>1038</ele>
        <time>2023-05-08T07:35:31Z</time>
      </trkpt>
      <trkpt lat="47.86846" lon="6.91225">
        <ele>1038</ele>
        <time>2023-05-08T07:35:40Z</time>
      </trkpt>
      <trkpt lat="47.86844" lon="6.91217">
        <ele>1039</ele>
        <time>2023-05-08T07:35:45Z</time>
      </trkpt>
      <trkpt lat="47.86844" lon="6.91196">
        <ele>1038</ele>
        <time>2023-05-08T07:35:57Z</time>
      </trkpt>
      <trkpt lat="47.86843" lon="6.91189">
        <ele>1039</ele>
        <time>2023-05-08T07:36:01Z</time>
      </trkpt>
      <trkpt lat="47.86843" lon="6.91182">
        <ele>1039</ele>
        <time>2023-05-08T07:36:05Z</time>
      </trkpt>
      <trkpt lat="47.86841" lon="6.91176">
        <ele>1039</ele>
        <time>2023-05-08T07:36:09Z</time>
      </trkpt>
      <trkpt lat="47.8684" lon="6.91168">
        <ele>1039</ele>
        <time>2023-05-08T07:36:14Z</time>
      </trkpt>
      <trkpt lat="47.86834" lon="6.91159">
        <ele>1040</ele>
        <time>2023-05-08T07:36:20Z</time>
      </trkpt>
      <trkpt lat="47.86831" lon="6.91155">
        <ele>1040</ele>
        <time>2023-05-08T07:36:24Z</time>
      </trkpt>
      <trkpt lat="47.8683" lon="6.91149">
        <ele>1040</ele>
        <time>2023-05-08T07:36:28Z</time>
      </trkpt>
      <trkpt lat="47.86827" lon="6.91136">
        <ele>1040</ele>
        <time>2023-05-08T07:36:36Z</time>
      </trkpt>
      <trkpt lat="47.86825" lon="6.91129">
        <ele>1042</ele>
        <time>2023-05-08T07:36:44Z</time>
      </trkpt>
      <trkpt lat="47.86824" lon="6.91122">
        <ele>1041</ele>
        <time>2023-05-08T07:36:49Z</time>
      </trkpt>
      <trkpt lat="47.86823" lon="6.91114">
        <ele>1041</ele>
        <time>2023-05-08T07:36:53Z</time>
      </trkpt>
      <trkpt lat="47.86821" lon="6.91108">
        <ele>1040</ele>
        <time>2023-05-08T07:36:58Z</time>
      </trkpt>
      <trkpt lat="47.86818" lon="6.91101">
        <ele>1042</ele>
        <time>2023-05-08T07:37:05Z</time>
      </trkpt>
      <trkpt lat="47.86809" lon="6.91085">
        <ele>1042</ele>
        <time>2023-05-08T07:37:16Z</time>
      </trkpt>
      <trkpt lat="47.86807" lon="6.91079">
        <ele>1042</ele>
        <time>2023-05-08T07:37:19Z</time>
      </trkpt>
      <trkpt lat="47.86804" lon="6.91074">
        <ele>1044</ele>
        <time>2023-05-08T07:37:28Z</time>
      </trkpt>
      <trkpt lat="47.86802" lon="6.91067">
        <ele>1044</ele>
        <time>2023-05-08T07:37:31Z</time>
      </trkpt>
      <trkpt lat="47.86798" lon="6.91064">
        <ele>1043</ele>
        <time>2023-05-08T07:37:35Z</time>
      </trkpt>
      <trkpt lat="47.86795" lon="6.91057">
        <ele>1043</ele>
        <time>2023-05-08T07:37:39Z</time>
      </trkpt>
      <trkpt lat="47.86789" lon="6.91048">
        <ele>1044</ele>
        <time>2023-05-08T07:37:47Z</time>
      </trkpt>
      <trkpt lat="47.86785" lon="6.91044">
        <ele>1044</ele>
        <time>2023-05-08T07:37:52Z</time>
      </trkpt>
      <trkpt lat="47.8678" lon="6.91044">
        <ele>1044</ele>
        <time>2023-05-08T07:37:57Z</time>
      </trkpt>
      <trkpt lat="47.86775" lon="6.91041">
        <ele>1045</ele>
        <time>2023-05-08T07:38:03Z</time>
      </trkpt>
      <trkpt lat="47.86767" lon="6.91037">
        <ele>1044</ele>
        <time>2023-05-08T07:38:12Z</time>
      </trkpt>
      <trkpt lat="47.86758" lon="6.91033">
        <ele>1045</ele>
        <time>2023-05-08T07:38:21Z</time>
      </trkpt>
      <trkpt lat="47.86753" lon="6.91029">
        <ele>1045</ele>
        <time>2023-05-08T07:38:26Z</time>
      </trkpt>
      <trkpt lat="47.86748" lon="6.91026">
        <ele>1046</ele>
        <time>2023-05-08T07:38:31Z</time>
      </trkpt>
      <trkpt lat="47.86744" lon="6.91022">
        <ele>1046</ele>
        <time>2023-05-08T07:38:35Z</time>
      </trkpt>
      <trkpt lat="47.86736" lon="6.91013">
        <ele>1045</ele>
        <time>2023-05-08T07:38:43Z</time>
      </trkpt>
      <trkpt lat="47.86729" lon="6.90999">
        <ele>1046</ele>
        <time>2023-05-08T07:38:53Z</time>
      </trkpt>
      <trkpt lat="47.86725" lon="6.90995">
        <ele>1045</ele>
        <time>2023-05-08T07:38:57Z</time>
      </trkpt>
      <trkpt lat="47.86719" lon="6.90983">
        <ele>1046</ele>
        <time>2023-05-08T07:39:06Z</time>
      </trkpt>
      <trkpt lat="47.86718" lon="6.90976">
        <ele>1047</ele>
        <time>2023-05-08T07:39:10Z</time>
      </trkpt>
      <trkpt lat="47.86716" lon="6.90969">
        <ele>1046</ele>
        <time>2023-05-08T07:39:14Z</time>
      </trkpt>
      <trkpt lat="47.86718" lon="6.90954">
        <ele>1046</ele>
        <time>2023-05-08T07:39:22Z</time>
      </trkpt>
      <trkpt lat="47.86717" lon="6.90945">
        <ele>1046</ele>
        <time>2023-05-08T07:39:24Z</time>
      </trkpt>
      <trkpt lat="47.86715" lon="6.90939">
        <ele>1046</ele>
        <time>2023-05-08T07:39:26Z</time>
      </trkpt>
      <trkpt lat="47.86712" lon="6.90933">
        <ele>1046</ele>
        <time>2023-05-08T07:39:30Z</time>
      </trkpt>
      <trkpt lat="47.86714" lon="6.90924">
        <ele>1046</ele>
        <time>2023-05-08T07:39:37Z</time>
      </trkpt>
      <trkpt lat="47.86711" lon="6.90915">
        <ele>1048</ele>
        <time>2023-05-08T07:39:47Z</time>
      </trkpt>
      <trkpt lat="47.86707" lon="6.9091">
        <ele>1048</ele>
        <time>2023-05-08T07:39:53Z</time>
      </trkpt>
      <trkpt lat="47.86702" lon="6.90907">
        <ele>1048</ele>
        <time>2023-05-08T07:39:57Z</time>
      </trkpt>
      <trkpt lat="47.86698" lon="6.90906">
        <ele>1047</ele>
        <time>2023-05-08T07:40:01Z</time>
      </trkpt>
      <trkpt lat="47.86693" lon="6.90907">
        <ele>1047</ele>
        <time>2023-05-08T07:40:03Z</time>
      </trkpt>
      <trkpt lat="47.86689" lon="6.90898">
        <ele>1047</ele>
        <time>2023-05-08T07:40:12Z</time>
      </trkpt>
      <trkpt lat="47.86686" lon="6.90894">
        <ele>1047</ele>
        <time>2023-05-08T07:40:16Z</time>
      </trkpt>
      <trkpt lat="47.86679" lon="6.90892">
        <ele>1047</ele>
        <time>2023-05-08T07:40:23Z</time>
      </trkpt>
      <trkpt lat="47.86671" lon="6.90899">
        <ele>1046</ele>
        <time>2023-05-08T07:40:30Z</time>
      </trkpt>
      <trkpt lat="47.86658" lon="6.90902">
        <ele>1047</ele>
        <time>2023-05-08T07:40:42Z</time>
      </trkpt>
      <trkpt lat="47.86654" lon="6.90904">
        <ele>1047</ele>
        <time>2023-05-08T07:40:47Z</time>
      </trkpt>
      <trkpt lat="47.86641" lon="6.90911">
        <ele>1046</ele>
        <time>2023-05-08T07:40:58Z</time>
      </trkpt>
      <trkpt lat="47.86632" lon="6.90916">
        <ele>1047</ele>
        <time>2023-05-08T07:41:07Z</time>
      </trkpt>
      <trkpt lat="47.86627" lon="6.90916">
        <ele>1047</ele>
        <time>2023-05-08T07:41:11Z</time>
      </trkpt>
      <trkpt lat="47.86617" lon="6.90915">
        <ele>1046</ele>
        <time>2023-05-08T07:41:19Z</time>
      </trkpt>
      <trkpt lat="47.86612" lon="6.90912">
        <ele>1046</ele>
        <time>2023-05-08T07:41:23Z</time>
      </trkpt>
      <trkpt lat="47.86608" lon="6.90912">
        <ele>1047</ele>
        <time>2023-05-08T07:41:27Z</time>
      </trkpt>
      <trkpt lat="47.86604" lon="6.90913">
        <ele>1047</ele>
        <time>2023-05-08T07:41:31Z</time>
      </trkpt>
      <trkpt lat="47.86599" lon="6.90916">
        <ele>1047</ele>
        <time>2023-05-08T07:41:35Z</time>
      </trkpt>
      <trkpt lat="47.86592" lon="6.90917">
        <ele>1048</ele>
        <time>2023-05-08T07:41:44Z</time>
      </trkpt>
      <trkpt lat="47.86588" lon="6.90922">
        <ele>1048</ele>
        <time>2023-05-08T07:41:48Z</time>
      </trkpt>
      <trkpt lat="47.86579" lon="6.90926">
        <ele>1046</ele>
        <time>2023-05-08T07:42:00Z</time>
      </trkpt>
      <trkpt lat="47.8657" lon="6.90937">
        <ele>1047</ele>
        <time>2023-05-08T07:42:12Z</time>
      </trkpt>
      <trkpt lat="47.86565" lon="6.9094">
        <ele>1046</ele>
        <time>2023-05-08T07:42:16Z</time>
      </trkpt>
      <trkpt lat="47.8656" lon="6.90942">
        <ele>1046</ele>
        <time>2023-05-08T07:42:20Z</time>
      </trkpt>
      <trkpt lat="47.86555" lon="6.90943">
        <ele>1046</ele>
        <time>2023-05-08T07:42:25Z</time>
      </trkpt>
      <trkpt lat="47.8655" lon="6.9094">
        <ele>1046</ele>
        <time>2023-05-08T07:42:31Z</time>
      </trkpt>
      <trkpt lat="47.86545" lon="6.90938">
        <ele>1046</ele>
        <time>2023-05-08T07:42:44Z</time>
      </trkpt>
      <trkpt lat="47.86539" lon="6.90944">
        <ele>1045</ele>
        <time>2023-05-08T07:43:43Z</time>
      </trkpt>
      <trkpt lat="47.86535" lon="6.9094">
        <ele>1044</ele>
        <time>2023-05-08T07:44:33Z</time>
      </trkpt>
      <trkpt lat="47.86527" lon="6.90939">
        <ele>1040</ele>
        <time>2023-05-08T07:44:41Z</time>
      </trkpt>
      <trkpt lat="47.86523" lon="6.90935">
        <ele>1040</ele>
        <time>2023-05-08T07:44:44Z</time>
      </trkpt>
      <trkpt lat="47.86514" lon="6.9092">
        <ele>1039</ele>
        <time>2023-05-08T07:44:54Z</time>
      </trkpt>
      <trkpt lat="47.8651" lon="6.90912">
        <ele>1040</ele>
        <time>2023-05-08T07:44:59Z</time>
      </trkpt>
      <trkpt lat="47.86507" lon="6.90907">
        <ele>1040</ele>
        <time>2023-05-08T07:45:03Z</time>
      </trkpt>
      <trkpt lat="47.86503" lon="6.90903">
        <ele>1040</ele>
        <time>2023-05-08T07:45:07Z</time>
      </trkpt>
      <trkpt lat="47.86498" lon="6.909">
        <ele>1039</ele>
        <time>2023-05-08T07:45:11Z</time>
      </trkpt>
      <trkpt lat="47.86477" lon="6.90878">
        <ele>1039</ele>
        <time>2023-05-08T07:45:31Z</time>
      </trkpt>
      <trkpt lat="47.86473" lon="6.90874">
        <ele>1040</ele>
        <time>2023-05-08T07:45:35Z</time>
      </trkpt>
      <trkpt lat="47.86468" lon="6.90873">
        <ele>1039</ele>
        <time>2023-05-08T07:45:39Z</time>
      </trkpt>
      <trkpt lat="47.86463" lon="6.90873">
        <ele>1039</ele>
        <time>2023-05-08T07:45:43Z</time>
      </trkpt>
      <trkpt lat="47.86454" lon="6.90878">
        <ele>1040</ele>
        <time>2023-05-08T07:45:52Z</time>
      </trkpt>
      <trkpt lat="47.8645" lon="6.90884">
        <ele>1040</ele>
        <time>2023-05-08T07:45:56Z</time>
      </trkpt>
      <trkpt lat="47.86447" lon="6.90888">
        <ele>1040</ele>
        <time>2023-05-08T07:46:00Z</time>
      </trkpt>
      <trkpt lat="47.86427" lon="6.90906">
        <ele>1040</ele>
        <time>2023-05-08T07:46:20Z</time>
      </trkpt>
      <trkpt lat="47.86414" lon="6.90927">
        <ele>1040</ele>
        <time>2023-05-08T07:46:36Z</time>
      </trkpt>
      <trkpt lat="47.86383" lon="6.9096">
        <ele>1042</ele>
        <time>2023-05-08T07:47:07Z</time>
      </trkpt>
      <trkpt lat="47.86367" lon="6.90975">
        <ele>1043</ele>
        <time>2023-05-08T07:47:23Z</time>
      </trkpt>
      <trkpt lat="47.86353" lon="6.90984">
        <ele>1044</ele>
        <time>2023-05-08T07:47:36Z</time>
      </trkpt>
      <trkpt lat="47.86353" lon="6.9099">
        <ele>1045</ele>
        <time>2023-05-08T07:47:42Z</time>
      </trkpt>
      <trkpt lat="47.86355" lon="6.90999">
        <ele>1045</ele>
        <time>2023-05-08T07:47:49Z</time>
      </trkpt>
      <trkpt lat="47.86355" lon="6.91006">
        <ele>1046</ele>
        <time>2023-05-08T07:47:54Z</time>
      </trkpt>
      <trkpt lat="47.86345" lon="6.91029">
        <ele>1047</ele>
        <time>2023-05-08T07:48:14Z</time>
      </trkpt>
      <trkpt lat="47.86323" lon="6.91054">
        <ele>1049</ele>
        <time>2023-05-08T07:48:39Z</time>
      </trkpt>
      <trkpt lat="47.86288" lon="6.91059">
        <ele>1053</ele>
        <time>2023-05-08T07:49:09Z</time>
      </trkpt>
      <trkpt lat="47.8627" lon="6.91058">
        <ele>1056</ele>
        <time>2023-05-08T07:49:29Z</time>
      </trkpt>
      <trkpt lat="47.86251" lon="6.91047">
        <ele>1058</ele>
        <time>2023-05-08T07:49:50Z</time>
      </trkpt>
      <trkpt lat="47.86235" lon="6.91034">
        <ele>1061</ele>
        <time>2023-05-08T07:50:11Z</time>
      </trkpt>
      <trkpt lat="47.86231" lon="6.91033">
        <ele>1061</ele>
        <time>2023-05-08T07:50:16Z</time>
      </trkpt>
      <trkpt lat="47.86223" lon="6.9103">
        <ele>1062</ele>
        <time>2023-05-08T07:50:24Z</time>
      </trkpt>
      <trkpt lat="47.86218" lon="6.91029">
        <ele>1063</ele>
        <time>2023-05-08T07:50:28Z</time>
      </trkpt>
      <trkpt lat="47.8621" lon="6.9102">
        <ele>1066</ele>
        <time>2023-05-08T07:50:39Z</time>
      </trkpt>
      <trkpt lat="47.862" lon="6.9102">
        <ele>1067</ele>
        <time>2023-05-08T07:50:49Z</time>
      </trkpt>
      <trkpt lat="47.86194" lon="6.91018">
        <ele>1069</ele>
        <time>2023-05-08T07:50:58Z</time>
      </trkpt>
      <trkpt lat="47.86184" lon="6.91003">
        <ele>1072</ele>
        <time>2023-05-08T07:51:16Z</time>
      </trkpt>
      <trkpt lat="47.86179" lon="6.91001">
        <ele>1074</ele>
        <time>2023-05-08T07:51:22Z</time>
      </trkpt>
      <trkpt lat="47.86164" lon="6.91004">
        <ele>1077</ele>
        <time>2023-05-08T07:51:40Z</time>
      </trkpt>
      <trkpt lat="47.86151" lon="6.91001">
        <ele>1080</ele>
        <time>2023-05-08T07:51:56Z</time>
      </trkpt>
      <trkpt lat="47.86145" lon="6.91003">
        <ele>1081</ele>
        <time>2023-05-08T07:52:04Z</time>
      </trkpt>
      <trkpt lat="47.86115" lon="6.90994">
        <ele>1086</ele>
        <time>2023-05-08T07:52:40Z</time>
      </trkpt>
      <trkpt lat="47.86105" lon="6.90988">
        <ele>1087</ele>
        <time>2023-05-08T07:52:49Z</time>
      </trkpt>
      <trkpt lat="47.86101" lon="6.90987">
        <ele>1088</ele>
        <time>2023-05-08T07:52:53Z</time>
      </trkpt>
      <trkpt lat="47.86066" lon="6.90986">
        <ele>1092</ele>
        <time>2023-05-08T07:53:27Z</time>
      </trkpt>
      <trkpt lat="47.86055" lon="6.90992">
        <ele>1094</ele>
        <time>2023-05-08T07:53:39Z</time>
      </trkpt>
      <trkpt lat="47.86024" lon="6.90987">
        <ele>1097</ele>
        <time>2023-05-08T07:54:08Z</time>
      </trkpt>
      <trkpt lat="47.8602" lon="6.90984">
        <ele>1098</ele>
        <time>2023-05-08T07:54:13Z</time>
      </trkpt>
      <trkpt lat="47.86009" lon="6.90985">
        <ele>1101</ele>
        <time>2023-05-08T07:54:30Z</time>
      </trkpt>
      <trkpt lat="47.85984" lon="6.90977">
        <ele>1106</ele>
        <time>2023-05-08T07:55:06Z</time>
      </trkpt>
      <trkpt lat="47.85976" lon="6.90975">
        <ele>1108</ele>
        <time>2023-05-08T07:55:17Z</time>
      </trkpt>
      <trkpt lat="47.8597" lon="6.90976">
        <ele>1110</ele>
        <time>2023-05-08T07:55:29Z</time>
      </trkpt>
      <trkpt lat="47.85959" lon="6.90965">
        <ele>1112</ele>
        <time>2023-05-08T07:55:44Z</time>
      </trkpt>
      <trkpt lat="47.85955" lon="6.90962">
        <ele>1113</ele>
        <time>2023-05-08T07:55:52Z</time>
      </trkpt>
      <trkpt lat="47.85951" lon="6.90958">
        <ele>1114</ele>
        <time>2023-05-08T07:55:57Z</time>
      </trkpt>
      <trkpt lat="47.85932" lon="6.9095">
        <ele>1117</ele>
        <time>2023-05-08T07:56:20Z</time>
      </trkpt>
      <trkpt lat="47.85919" lon="6.9096">
        <ele>1119</ele>
        <time>2023-05-08T07:56:39Z</time>
      </trkpt>
      <trkpt lat="47.85913" lon="6.90968">
        <ele>1120</ele>
        <time>2023-05-08T07:56:47Z</time>
      </trkpt>
      <trkpt lat="47.85902" lon="6.9098">
        <ele>1120</ele>
        <time>2023-05-08T07:57:01Z</time>
      </trkpt>
      <trkpt lat="47.85878" lon="6.91007">
        <ele>1119</ele>
        <time>2023-05-08T07:57:29Z</time>
      </trkpt>
      <trkpt lat="47.85873" lon="6.9101">
        <ele>1119</ele>
        <time>2023-05-08T07:57:34Z</time>
      </trkpt>
      <trkpt lat="47.85869" lon="6.91013">
        <ele>1118</ele>
        <time>2023-05-08T07:57:38Z</time>
      </trkpt>
      <trkpt lat="47.85864" lon="6.91017">
        <ele>1118</ele>
        <time>2023-05-08T07:57:42Z</time>
      </trkpt>
      <trkpt lat="47.85838" lon="6.91047">
        <ele>1119</ele>
        <time>2023-05-08T07:58:14Z</time>
      </trkpt>
      <trkpt lat="47.85826" lon="6.91064">
        <ele>1119</ele>
        <time>2023-05-08T07:58:31Z</time>
      </trkpt>
      <trkpt lat="47.85807" lon="6.911">
        <ele>1120</ele>
        <time>2023-05-08T07:59:00Z</time>
      </trkpt>
      <trkpt lat="47.85804" lon="6.91107">
        <ele>1120</ele>
        <time>2023-05-08T07:59:06Z</time>
      </trkpt>
      <trkpt lat="47.85789" lon="6.91134">
        <ele>1119</ele>
        <time>2023-05-08T07:59:27Z</time>
      </trkpt>
      <trkpt lat="47.85785" lon="6.91139">
        <ele>1120</ele>
        <time>2023-05-08T07:59:31Z</time>
      </trkpt>
      <trkpt lat="47.85783" lon="6.91149">
        <ele>1120</ele>
        <time>2023-05-08T07:59:37Z</time>
      </trkpt>
      <trkpt lat="47.8578" lon="6.91154">
        <ele>1119</ele>
        <time>2023-05-08T07:59:41Z</time>
      </trkpt>
      <trkpt lat="47.85777" lon="6.9116">
        <ele>1119</ele>
        <time>2023-05-08T07:59:45Z</time>
      </trkpt>
      <trkpt lat="47.85774" lon="6.91165">
        <ele>1119</ele>
        <time>2023-05-08T07:59:49Z</time>
      </trkpt>
      <trkpt lat="47.85766" lon="6.91177">
        <ele>1119</ele>
        <time>2023-05-08T08:00:01Z</time>
      </trkpt>
      <trkpt lat="47.85757" lon="6.91194">
        <ele>1118</ele>
        <time>2023-05-08T08:00:14Z</time>
      </trkpt>
      <trkpt lat="47.85754" lon="6.91199">
        <ele>1118</ele>
        <time>2023-05-08T08:00:19Z</time>
      </trkpt>
      <trkpt lat="47.85743" lon="6.91226">
        <ele>1116</ele>
        <time>2023-05-08T08:00:43Z</time>
      </trkpt>
      <trkpt lat="47.85736" lon="6.91255">
        <ele>1113</ele>
        <time>2023-05-08T08:01:07Z</time>
      </trkpt>
      <trkpt lat="47.85733" lon="6.91262">
        <ele>1113</ele>
        <time>2023-05-08T08:01:12Z</time>
      </trkpt>
      <trkpt lat="47.85727" lon="6.91287">
        <ele>1111</ele>
        <time>2023-05-08T08:01:31Z</time>
      </trkpt>
      <trkpt lat="47.85721" lon="6.91304">
        <ele>1109</ele>
        <time>2023-05-08T08:01:45Z</time>
      </trkpt>
      <trkpt lat="47.85712" lon="6.91333">
        <ele>1106</ele>
        <time>2023-05-08T08:02:12Z</time>
      </trkpt>
      <trkpt lat="47.85697" lon="6.91369">
        <ele>1103</ele>
        <time>2023-05-08T08:02:44Z</time>
      </trkpt>
      <trkpt lat="47.85684" lon="6.91396">
        <ele>1101</ele>
        <time>2023-05-08T08:03:09Z</time>
      </trkpt>
      <trkpt lat="47.85675" lon="6.91408">
        <ele>1100</ele>
        <time>2023-05-08T08:03:23Z</time>
      </trkpt>
      <trkpt lat="47.8566" lon="6.91435">
        <ele>1098</ele>
        <time>2023-05-08T08:03:49Z</time>
      </trkpt>
      <trkpt lat="47.85652" lon="6.91452">
        <ele>1097</ele>
        <time>2023-05-08T08:04:03Z</time>
      </trkpt>
      <trkpt lat="47.85645" lon="6.91465">
        <ele>1096</ele>
        <time>2023-05-08T08:04:15Z</time>
      </trkpt>
      <trkpt lat="47.85643" lon="6.91472">
        <ele>1095</ele>
        <time>2023-05-08T08:04:23Z</time>
      </trkpt>
      <trkpt lat="47.85636" lon="6.91486">
        <ele>1095</ele>
        <time>2023-05-08T08:04:33Z</time>
      </trkpt>
      <trkpt lat="47.85635" lon="6.91491">
        <ele>1095</ele>
        <time>2023-05-08T08:04:37Z</time>
      </trkpt>
      <trkpt lat="47.85632" lon="6.91497">
        <ele>1094</ele>
        <time>2023-05-08T08:04:41Z</time>
      </trkpt>
      <trkpt lat="47.85615" lon="6.91547">
        <ele>1094</ele>
        <time>2023-05-08T08:05:15Z</time>
      </trkpt>
      <trkpt lat="47.85607" lon="6.91588">
        <ele>1093</ele>
        <time>2023-05-08T08:05:41Z</time>
      </trkpt>
      <trkpt lat="47.85603" lon="6.91603">
        <ele>1093</ele>
        <time>2023-05-08T08:05:50Z</time>
      </trkpt>
      <trkpt lat="47.85599" lon="6.9163">
        <ele>1092</ele>
        <time>2023-05-08T08:06:08Z</time>
      </trkpt>
      <trkpt lat="47.85597" lon="6.91643">
        <ele>1092</ele>
        <time>2023-05-08T08:06:16Z</time>
      </trkpt>
      <trkpt lat="47.85594" lon="6.91667">
        <ele>1091</ele>
        <time>2023-05-08T08:06:33Z</time>
      </trkpt>
      <trkpt lat="47.85592" lon="6.91676">
        <ele>1091</ele>
        <time>2023-05-08T08:06:40Z</time>
      </trkpt>
      <trkpt lat="47.85588" lon="6.9169">
        <ele>1091</ele>
        <time>2023-05-08T08:06:50Z</time>
      </trkpt>
      <trkpt lat="47.85578" lon="6.91717">
        <ele>1089</ele>
        <time>2023-05-08T08:07:12Z</time>
      </trkpt>
      <trkpt lat="47.85575" lon="6.91722">
        <ele>1089</ele>
        <time>2023-05-08T08:07:17Z</time>
      </trkpt>
      <trkpt lat="47.85562" lon="6.91729">
        <ele>1089</ele>
        <time>2023-05-08T08:07:29Z</time>
      </trkpt>
      <trkpt lat="47.85557" lon="6.9173">
        <ele>1089</ele>
        <time>2023-05-08T08:07:34Z</time>
      </trkpt>
      <trkpt lat="47.85551" lon="6.91733">
        <ele>1089</ele>
        <time>2023-05-08T08:07:40Z</time>
      </trkpt>
      <trkpt lat="47.85546" lon="6.91734">
        <ele>1089</ele>
        <time>2023-05-08T08:07:44Z</time>
      </trkpt>
      <trkpt lat="47.85541" lon="6.91734">
        <ele>1089</ele>
        <time>2023-05-08T08:07:48Z</time>
      </trkpt>
      <trkpt lat="47.85536" lon="6.91734">
        <ele>1089</ele>
        <time>2023-05-08T08:07:51Z</time>
      </trkpt>
      <trkpt lat="47.85532" lon="6.91737">
        <ele>1089</ele>
        <time>2023-05-08T08:07:55Z</time>
      </trkpt>
      <trkpt lat="47.85523" lon="6.91741">
        <ele>1090</ele>
        <time>2023-05-08T08:08:04Z</time>
      </trkpt>
      <trkpt lat="47.8549" lon="6.91762">
        <ele>1094</ele>
        <time>2023-05-08T08:08:41Z</time>
      </trkpt>
      <trkpt lat="47.85486" lon="6.91764">
        <ele>1094</ele>
        <time>2023-05-08T08:08:45Z</time>
      </trkpt>
      <trkpt lat="47.8547" lon="6.91778">
        <ele>1095</ele>
        <time>2023-05-08T08:09:02Z</time>
      </trkpt>
      <trkpt lat="47.85466" lon="6.91779">
        <ele>1095</ele>
        <time>2023-05-08T08:09:06Z</time>
      </trkpt>
      <trkpt lat="47.85461" lon="6.91777">
        <ele>1095</ele>
        <time>2023-05-08T08:09:10Z</time>
      </trkpt>
      <trkpt lat="47.85458" lon="6.91783">
        <ele>1095</ele>
        <time>2023-05-08T08:09:17Z</time>
      </trkpt>
      <trkpt lat="47.85456" lon="6.91789">
        <ele>1096</ele>
        <time>2023-05-08T08:09:22Z</time>
      </trkpt>
      <trkpt lat="47.8545" lon="6.91777">
        <ele>1097</ele>
        <time>2023-05-08T08:09:32Z</time>
      </trkpt>
      <trkpt lat="47.85442" lon="6.9176">
        <ele>1098</ele>
        <time>2023-05-08T08:09:45Z</time>
      </trkpt>
      <trkpt lat="47.85418" lon="6.91711">
        <ele>1099</ele>
        <time>2023-05-08T08:10:15Z</time>
      </trkpt>
      <trkpt lat="47.85413" lon="6.91701">
        <ele>1099</ele>
        <time>2023-05-08T08:10:21Z</time>
      </trkpt>
      <trkpt lat="47.85411" lon="6.91694">
        <ele>1099</ele>
        <time>2023-05-08T08:10:25Z</time>
      </trkpt>
      <trkpt lat="47.85409" lon="6.91687">
        <ele>1098</ele>
        <time>2023-05-08T08:10:29Z</time>
      </trkpt>
      <trkpt lat="47.85405" lon="6.91681">
        <ele>1098</ele>
        <time>2023-05-08T08:10:33Z</time>
      </trkpt>
      <trkpt lat="47.85401" lon="6.91678">
        <ele>1098</ele>
        <time>2023-05-08T08:10:37Z</time>
      </trkpt>
      <trkpt lat="47.85397" lon="6.91677">
        <ele>1098</ele>
        <time>2023-05-08T08:10:41Z</time>
      </trkpt>
      <trkpt lat="47.85381" lon="6.9167">
        <ele>1101</ele>
        <time>2023-05-08T08:10:56Z</time>
      </trkpt>
      <trkpt lat="47.8536" lon="6.91665">
        <ele>1105</ele>
        <time>2023-05-08T08:11:23Z</time>
      </trkpt>
      <trkpt lat="47.85333" lon="6.91654">
        <ele>1111</ele>
        <time>2023-05-08T08:11:58Z</time>
      </trkpt>
      <trkpt lat="47.85309" lon="6.91643">
        <ele>1116</ele>
        <time>2023-05-08T08:12:28Z</time>
      </trkpt>
      <trkpt lat="47.85281" lon="6.9163">
        <ele>1122</ele>
        <time>2023-05-08T08:13:06Z</time>
      </trkpt>
      <trkpt lat="47.85251" lon="6.9162">
        <ele>1128</ele>
        <time>2023-05-08T08:13:47Z</time>
      </trkpt>
      <trkpt lat="47.85225" lon="6.91614">
        <ele>1133</ele>
        <time>2023-05-08T08:14:20Z</time>
      </trkpt>
      <trkpt lat="47.85196" lon="6.91611">
        <ele>1137</ele>
        <time>2023-05-08T08:14:52Z</time>
      </trkpt>
      <trkpt lat="47.85191" lon="6.91611">
        <ele>1138</ele>
        <time>2023-05-08T08:14:58Z</time>
      </trkpt>
      <trkpt lat="47.85171" lon="6.91608">
        <ele>1142</ele>
        <time>2023-05-08T08:15:23Z</time>
      </trkpt>
      <trkpt lat="47.85141" lon="6.91615">
        <ele>1146</ele>
        <time>2023-05-08T08:15:56Z</time>
      </trkpt>
      <trkpt lat="47.85128" lon="6.91618">
        <ele>1148</ele>
        <time>2023-05-08T08:16:12Z</time>
      </trkpt>
      <trkpt lat="47.8512" lon="6.91627">
        <ele>1150</ele>
        <time>2023-05-08T08:16:25Z</time>
      </trkpt>
      <trkpt lat="47.85095" lon="6.91634">
        <ele>1156</ele>
        <time>2023-05-08T08:16:56Z</time>
      </trkpt>
      <trkpt lat="47.85068" lon="6.91644">
        <ele>1160</ele>
        <time>2023-05-08T08:17:29Z</time>
      </trkpt>
      <trkpt lat="47.85037" lon="6.91655">
        <ele>1164</ele>
        <time>2023-05-08T08:18:03Z</time>
      </trkpt>
      <trkpt lat="47.85012" lon="6.91672">
        <ele>1168</ele>
        <time>2023-05-08T08:18:34Z</time>
      </trkpt>
      <trkpt lat="47.84986" lon="6.91693">
        <ele>1175</ele>
        <time>2023-05-08T08:19:11Z</time>
      </trkpt>
      <trkpt lat="47.84981" lon="6.91698">
        <ele>1176</ele>
        <time>2023-05-08T08:19:18Z</time>
      </trkpt>
      <trkpt lat="47.84955" lon="6.91714">
        <ele>1181</ele>
        <time>2023-05-08T08:19:51Z</time>
      </trkpt>
      <trkpt lat="47.84936" lon="6.91721">
        <ele>1183</ele>
        <time>2023-05-08T08:20:13Z</time>
      </trkpt>
      <trkpt lat="47.84932" lon="6.91721">
        <ele>1184</ele>
        <time>2023-05-08T08:20:18Z</time>
      </trkpt>
      <trkpt lat="47.8492" lon="6.91725">
        <ele>1185</ele>
        <time>2023-05-08T08:20:31Z</time>
      </trkpt>
      <trkpt lat="47.84916" lon="6.91727">
        <ele>1185</ele>
        <time>2023-05-08T08:20:34Z</time>
      </trkpt>
      <trkpt lat="47.84884" lon="6.91746">
        <ele>1189</ele>
        <time>2023-05-08T08:21:09Z</time>
      </trkpt>
      <trkpt lat="47.84864" lon="6.91772">
        <ele>1192</ele>
        <time>2023-05-08T08:21:38Z</time>
      </trkpt>
      <trkpt lat="47.84858" lon="6.9178">
        <ele>1193</ele>
        <time>2023-05-08T08:21:47Z</time>
      </trkpt>
      <trkpt lat="47.84849" lon="6.91783">
        <ele>1193</ele>
        <time>2023-05-08T08:21:56Z</time>
      </trkpt>
      <trkpt lat="47.84844" lon="6.91782">
        <ele>1193</ele>
        <time>2023-05-08T08:22:00Z</time>
      </trkpt>
      <trkpt lat="47.84839" lon="6.91784">
        <ele>1193</ele>
        <time>2023-05-08T08:22:05Z</time>
      </trkpt>
      <trkpt lat="47.84839" lon="6.91777">
        <ele>1192</ele>
        <time>2023-05-08T08:22:22Z</time>
      </trkpt>
      <trkpt lat="47.84835" lon="6.91773">
        <ele>1192</ele>
        <time>2023-05-08T08:22:25Z</time>
      </trkpt>
      <trkpt lat="47.84829" lon="6.9177">
        <ele>1193</ele>
        <time>2023-05-08T08:22:31Z</time>
      </trkpt>
      <trkpt lat="47.84826" lon="6.91766">
        <ele>1193</ele>
        <time>2023-05-08T08:22:34Z</time>
      </trkpt>
      <trkpt lat="47.84804" lon="6.9176">
        <ele>1196</ele>
        <time>2023-05-08T08:22:57Z</time>
      </trkpt>
      <trkpt lat="47.84799" lon="6.9176">
        <ele>1197</ele>
        <time>2023-05-08T08:23:03Z</time>
      </trkpt>
      <trkpt lat="47.84793" lon="6.91755">
        <ele>1199</ele>
        <time>2023-05-08T08:23:10Z</time>
      </trkpt>
      <trkpt lat="47.84789" lon="6.9175">
        <ele>1199</ele>
        <time>2023-05-08T08:23:14Z</time>
      </trkpt>
      <trkpt lat="47.84786" lon="6.91743">
        <ele>1199</ele>
        <time>2023-05-08T08:23:19Z</time>
      </trkpt>
      <trkpt lat="47.84775" lon="6.91727">
        <ele>1200</ele>
        <time>2023-05-08T08:23:33Z</time>
      </trkpt>
      <trkpt lat="47.84762" lon="6.91721">
        <ele>1201</ele>
        <time>2023-05-08T08:23:47Z</time>
      </trkpt>
      <trkpt lat="47.84728" lon="6.91711">
        <ele>1204</ele>
        <time>2023-05-08T08:24:23Z</time>
      </trkpt>
      <trkpt lat="47.84721" lon="6.91707">
        <ele>1204</ele>
        <time>2023-05-08T08:24:30Z</time>
      </trkpt>
      <trkpt lat="47.84716" lon="6.91708">
        <ele>1203</ele>
        <time>2023-05-08T08:24:35Z</time>
      </trkpt>
      <trkpt lat="47.8471" lon="6.91706">
        <ele>1205</ele>
        <time>2023-05-08T08:24:39Z</time>
      </trkpt>
      <trkpt lat="47.8469" lon="6.91702">
        <ele>1204</ele>
        <time>2023-05-08T08:24:54Z</time>
      </trkpt>
      <trkpt lat="47.84675" lon="6.91708">
        <ele>1202</ele>
        <time>2023-05-08T08:25:08Z</time>
      </trkpt>
      <trkpt lat="47.84656" lon="6.91707">
        <ele>1201</ele>
        <time>2023-05-08T08:25:25Z</time>
      </trkpt>
      <trkpt lat="47.84652" lon="6.91707">
        <ele>1200</ele>
        <time>2023-05-08T08:25:29Z</time>
      </trkpt>
      <trkpt lat="47.84613" lon="6.91703">
        <ele>1196</ele>
        <time>2023-05-08T08:26:02Z</time>
      </trkpt>
      <trkpt lat="47.84609" lon="6.91702">
        <ele>1195</ele>
        <time>2023-05-08T08:26:05Z</time>
      </trkpt>
      <trkpt lat="47.84605" lon="6.91698">
        <ele>1194</ele>
        <time>2023-05-08T08:26:10Z</time>
      </trkpt>
      <trkpt lat="47.84582" lon="6.91695">
        <ele>1190</ele>
        <time>2023-05-08T08:26:31Z</time>
      </trkpt>
      <trkpt lat="47.84573" lon="6.91698">
        <ele>1189</ele>
        <time>2023-05-08T08:26:39Z</time>
      </trkpt>
      <trkpt lat="47.84563" lon="6.91696">
        <ele>1187</ele>
        <time>2023-05-08T08:26:47Z</time>
      </trkpt>
      <trkpt lat="47.84558" lon="6.91696">
        <ele>1186</ele>
        <time>2023-05-08T08:26:52Z</time>
      </trkpt>
      <trkpt lat="47.84554" lon="6.91695">
        <ele>1186</ele>
        <time>2023-05-08T08:26:54Z</time>
      </trkpt>
      <trkpt lat="47.84547" lon="6.9169">
        <ele>1185</ele>
        <time>2023-05-08T08:27:01Z</time>
      </trkpt>
      <trkpt lat="47.8454" lon="6.91689">
        <ele>1184</ele>
        <time>2023-05-08T08:27:08Z</time>
      </trkpt>
      <trkpt lat="47.84536" lon="6.91688">
        <ele>1183</ele>
        <time>2023-05-08T08:27:12Z</time>
      </trkpt>
      <trkpt lat="47.8452" lon="6.91686">
        <ele>1179</ele>
        <time>2023-05-08T08:27:29Z</time>
      </trkpt>
      <trkpt lat="47.84515" lon="6.91683">
        <ele>1179</ele>
        <time>2023-05-08T08:27:33Z</time>
      </trkpt>
      <trkpt lat="47.84506" lon="6.91682">
        <ele>1177</ele>
        <time>2023-05-08T08:27:42Z</time>
      </trkpt>
      <trkpt lat="47.84498" lon="6.91683">
        <ele>1174</ele>
        <time>2023-05-08T08:27:52Z</time>
      </trkpt>
      <trkpt lat="47.84494" lon="6.9168">
        <ele>1174</ele>
        <time>2023-05-08T08:27:56Z</time>
      </trkpt>
      <trkpt lat="47.84484" lon="6.9168">
        <ele>1171</ele>
        <time>2023-05-08T08:28:05Z</time>
      </trkpt>
      <trkpt lat="47.84453" lon="6.91687">
        <ele>1163</ele>
        <time>2023-05-08T08:28:36Z</time>
      </trkpt>
      <trkpt lat="47.84441" lon="6.91691">
        <ele>1159</ele>
        <time>2023-05-08T08:28:49Z</time>
      </trkpt>
      <trkpt lat="47.84435" lon="6.91689">
        <ele>1157</ele>
        <time>2023-05-08T08:28:55Z</time>
      </trkpt>
      <trkpt lat="47.8443" lon="6.9169">
        <ele>1156</ele>
        <time>2023-05-08T08:28:59Z</time>
      </trkpt>
      <trkpt lat="47.84426" lon="6.91688">
        <ele>1155</ele>
        <time>2023-05-08T08:29:03Z</time>
      </trkpt>
      <trkpt lat="47.84419" lon="6.91686">
        <ele>1154</ele>
        <time>2023-05-08T08:29:11Z</time>
      </trkpt>
      <trkpt lat="47.84415" lon="6.91682">
        <ele>1152</ele>
        <time>2023-05-08T08:29:16Z</time>
      </trkpt>
      <trkpt lat="47.84409" lon="6.91682">
        <ele>1150</ele>
        <time>2023-05-08T08:29:24Z</time>
      </trkpt>
      <trkpt lat="47.84404" lon="6.91681">
        <ele>1149</ele>
        <time>2023-05-08T08:29:29Z</time>
      </trkpt>
      <trkpt lat="47.84391" lon="6.91682">
        <ele>1145</ele>
        <time>2023-05-08T08:30:07Z</time>
      </trkpt>
      <trkpt lat="47.84388" lon="6.91676">
        <ele>1144</ele>
        <time>2023-05-08T08:30:15Z</time>
      </trkpt>
      <trkpt lat="47.84382" lon="6.91677">
        <ele>1142</ele>
        <time>2023-05-08T08:30:20Z</time>
      </trkpt>
      <trkpt lat="47.84379" lon="6.91673">
        <ele>1142</ele>
        <time>2023-05-08T08:30:24Z</time>
      </trkpt>
      <trkpt lat="47.84372" lon="6.91673">
        <ele>1140</ele>
        <time>2023-05-08T08:30:31Z</time>
      </trkpt>
      <trkpt lat="47.84357" lon="6.91666">
        <ele>1135</ele>
        <time>2023-05-08T08:30:52Z</time>
      </trkpt>
      <trkpt lat="47.84344" lon="6.91666">
        <ele>1132</ele>
        <time>2023-05-08T08:31:12Z</time>
      </trkpt>
      <trkpt lat="47.8434" lon="6.91665">
        <ele>1131</ele>
        <time>2023-05-08T08:31:16Z</time>
      </trkpt>
      <trkpt lat="47.84332" lon="6.91657">
        <ele>1129</ele>
        <time>2023-05-08T08:31:24Z</time>
      </trkpt>
      <trkpt lat="47.8433" lon="6.91652">
        <ele>1128</ele>
        <time>2023-05-08T08:31:28Z</time>
      </trkpt>
      <trkpt lat="47.84323" lon="6.9165">
        <ele>1128</ele>
        <time>2023-05-08T08:31:43Z</time>
      </trkpt>
      <trkpt lat="47.84318" lon="6.9165">
        <ele>1126</ele>
        <time>2023-05-08T08:31:48Z</time>
      </trkpt>
      <trkpt lat="47.84309" lon="6.91642">
        <ele>1124</ele>
        <time>2023-05-08T08:32:00Z</time>
      </trkpt>
      <trkpt lat="47.84306" lon="6.91637">
        <ele>1123</ele>
        <time>2023-05-08T08:32:05Z</time>
      </trkpt>
      <trkpt lat="47.84302" lon="6.91634">
        <ele>1122</ele>
        <time>2023-05-08T08:32:09Z</time>
      </trkpt>
      <trkpt lat="47.84298" lon="6.91631">
        <ele>1122</ele>
        <time>2023-05-08T08:32:13Z</time>
      </trkpt>
      <trkpt lat="47.84291" lon="6.91638">
        <ele>1119</ele>
        <time>2023-05-08T08:32:21Z</time>
      </trkpt>
      <trkpt lat="47.84287" lon="6.91633">
        <ele>1119</ele>
        <time>2023-05-08T08:32:25Z</time>
      </trkpt>
      <trkpt lat="47.84283" lon="6.91624">
        <ele>1117</ele>
        <time>2023-05-08T08:32:35Z</time>
      </trkpt>
      <trkpt lat="47.8428" lon="6.91619">
        <ele>1117</ele>
        <time>2023-05-08T08:32:39Z</time>
      </trkpt>
      <trkpt lat="47.84277" lon="6.91613">
        <ele>1117</ele>
        <time>2023-05-08T08:32:43Z</time>
      </trkpt>
      <trkpt lat="47.84269" lon="6.91596">
        <ele>1116</ele>
        <time>2023-05-08T08:32:55Z</time>
      </trkpt>
      <trkpt lat="47.84266" lon="6.91589">
        <ele>1116</ele>
        <time>2023-05-08T08:32:59Z</time>
      </trkpt>
      <trkpt lat="47.84258" lon="6.91564">
        <ele>1115</ele>
        <time>2023-05-08T08:33:14Z</time>
      </trkpt>
      <trkpt lat="47.84255" lon="6.91549">
        <ele>1116</ele>
        <time>2023-05-08T08:33:25Z</time>
      </trkpt>
      <trkpt lat="47.84256" lon="6.91541">
        <ele>1116</ele>
        <time>2023-05-08T08:33:38Z</time>
      </trkpt>
      <trkpt lat="47.84261" lon="6.91543">
        <ele>1116</ele>
        <time>2023-05-08T08:34:20Z</time>
      </trkpt>
      <trkpt lat="47.84265" lon="6.91549">
        <ele>1115</ele>
        <time>2023-05-08T09:39:56Z</time>
      </trkpt>
      <trkpt lat="47.84265" lon="6.9155">
        <ele>1115</ele>
        <time>2023-05-08T09:39:57Z</time>
      </trkpt>
      <trkpt lat="47.84263" lon="6.91559">
        <ele>1115</ele>
        <time>2023-05-08T09:40:05Z</time>
      </trkpt>
      <trkpt lat="47.84264" lon="6.91565">
        <ele>1115</ele>
        <time>2023-05-08T09:40:09Z</time>
      </trkpt>
      <trkpt lat="47.84266" lon="6.91573">
        <ele>1115</ele>
        <time>2023-05-08T09:40:16Z</time>
      </trkpt>
      <trkpt lat="47.8427" lon="6.91581">
        <ele>1116</ele>
        <time>2023-05-08T09:40:27Z</time>
      </trkpt>
      <trkpt lat="47.84272" lon="6.91587">
        <ele>1116</ele>
        <time>2023-05-08T09:40:32Z</time>
      </trkpt>
      <trkpt lat="47.84289" lon="6.91622">
        <ele>1116</ele>
        <time>2023-05-08T09:41:04Z</time>
      </trkpt>
      <trkpt lat="47.84295" lon="6.91632">
        <ele>1118</ele>
        <time>2023-05-08T09:42:07Z</time>
      </trkpt>
      <trkpt lat="47.84301" lon="6.91628">
        <ele>1120</ele>
        <time>2023-05-08T09:42:25Z</time>
      </trkpt>
      <trkpt lat="47.84309" lon="6.91633">
        <ele>1122</ele>
        <time>2023-05-08T09:42:36Z</time>
      </trkpt>
      <trkpt lat="47.84313" lon="6.91638">
        <ele>1123</ele>
        <time>2023-05-08T09:42:41Z</time>
      </trkpt>
      <trkpt lat="47.84324" lon="6.91647">
        <ele>1125</ele>
        <time>2023-05-08T09:42:56Z</time>
      </trkpt>
      <trkpt lat="47.84331" lon="6.91647">
        <ele>1127</ele>
        <time>2023-05-08T09:43:08Z</time>
      </trkpt>
      <trkpt lat="47.84335" lon="6.91649">
        <ele>1128</ele>
        <time>2023-05-08T09:43:14Z</time>
      </trkpt>
      <trkpt lat="47.84343" lon="6.91659">
        <ele>1129</ele>
        <time>2023-05-08T09:43:24Z</time>
      </trkpt>
      <trkpt lat="47.84348" lon="6.91668">
        <ele>1130</ele>
        <time>2023-05-08T09:43:34Z</time>
      </trkpt>
      <trkpt lat="47.84353" lon="6.91681">
        <ele>1130</ele>
        <time>2023-05-08T09:43:43Z</time>
      </trkpt>
      <trkpt lat="47.84356" lon="6.91685">
        <ele>1130</ele>
        <time>2023-05-08T09:43:47Z</time>
      </trkpt>
      <trkpt lat="47.84368" lon="6.91707">
        <ele>1132</ele>
        <time>2023-05-08T09:44:08Z</time>
      </trkpt>
      <trkpt lat="47.84388" lon="6.91736">
        <ele>1134</ele>
        <time>2023-05-08T09:44:37Z</time>
      </trkpt>
      <trkpt lat="47.84404" lon="6.91764">
        <ele>1135</ele>
        <time>2023-05-08T09:45:00Z</time>
      </trkpt>
      <trkpt lat="47.84421" lon="6.91787">
        <ele>1137</ele>
        <time>2023-05-08T09:45:19Z</time>
      </trkpt>
      <trkpt lat="47.84423" lon="6.91793">
        <ele>1137</ele>
        <time>2023-05-08T09:45:24Z</time>
      </trkpt>
      <trkpt lat="47.84435" lon="6.91807">
        <ele>1138</ele>
        <time>2023-05-08T09:45:36Z</time>
      </trkpt>
      <trkpt lat="47.84453" lon="6.91842">
        <ele>1140</ele>
        <time>2023-05-08T09:46:05Z</time>
      </trkpt>
      <trkpt lat="47.84452" lon="6.91854">
        <ele>1140</ele>
        <time>2023-05-08T09:46:14Z</time>
      </trkpt>
      <trkpt lat="47.84453" lon="6.91861">
        <ele>1140</ele>
        <time>2023-05-08T09:46:18Z</time>
      </trkpt>
      <trkpt lat="47.84454" lon="6.91867">
        <ele>1140</ele>
        <time>2023-05-08T09:46:22Z</time>
      </trkpt>
      <trkpt lat="47.84456" lon="6.91891">
        <ele>1139</ele>
        <time>2023-05-08T09:46:39Z</time>
      </trkpt>
      <trkpt lat="47.84457" lon="6.91897">
        <ele>1138</ele>
        <time>2023-05-08T09:46:43Z</time>
      </trkpt>
      <trkpt lat="47.84468" lon="6.91896">
        <ele>1136</ele>
        <time>2023-05-08T09:47:01Z</time>
      </trkpt>
      <trkpt lat="47.84473" lon="6.91892">
        <ele>1135</ele>
        <time>2023-05-08T09:47:06Z</time>
      </trkpt>
      <trkpt lat="47.84476" lon="6.91888">
        <ele>1135</ele>
        <time>2023-05-08T09:47:10Z</time>
      </trkpt>
      <trkpt lat="47.84481" lon="6.91885">
        <ele>1135</ele>
        <time>2023-05-08T09:47:14Z</time>
      </trkpt>
      <trkpt lat="47.84485" lon="6.91881">
        <ele>1134</ele>
        <time>2023-05-08T09:47:19Z</time>
      </trkpt>
      <trkpt lat="47.84487" lon="6.91876">
        <ele>1133</ele>
        <time>2023-05-08T09:47:24Z</time>
      </trkpt>
      <trkpt lat="47.84492" lon="6.91872">
        <ele>1132</ele>
        <time>2023-05-08T09:47:30Z</time>
      </trkpt>
      <trkpt lat="47.84496" lon="6.9187">
        <ele>1132</ele>
        <time>2023-05-08T09:47:35Z</time>
      </trkpt>
      <trkpt lat="47.84514" lon="6.91862">
        <ele>1128</ele>
        <time>2023-05-08T09:47:55Z</time>
      </trkpt>
      <trkpt lat="47.84516" lon="6.91854">
        <ele>1127</ele>
        <time>2023-05-08T09:48:01Z</time>
      </trkpt>
      <trkpt lat="47.84527" lon="6.91839">
        <ele>1125</ele>
        <time>2023-05-08T09:48:14Z</time>
      </trkpt>
      <trkpt lat="47.84531" lon="6.91836">
        <ele>1125</ele>
        <time>2023-05-08T09:48:19Z</time>
      </trkpt>
      <trkpt lat="47.8454" lon="6.91831">
        <ele>1123</ele>
        <time>2023-05-08T09:48:26Z</time>
      </trkpt>
      <trkpt lat="47.84544" lon="6.91828">
        <ele>1123</ele>
        <time>2023-05-08T09:48:29Z</time>
      </trkpt>
      <trkpt lat="47.84554" lon="6.91824">
        <ele>1124</ele>
        <time>2023-05-08T09:48:37Z</time>
      </trkpt>
      <trkpt lat="47.84558" lon="6.91824">
        <ele>1124</ele>
        <time>2023-05-08T09:48:40Z</time>
      </trkpt>
      <trkpt lat="47.84566" lon="6.91819">
        <ele>1124</ele>
        <time>2023-05-08T09:48:48Z</time>
      </trkpt>
      <trkpt lat="47.84593" lon="6.91814">
        <ele>1126</ele>
        <time>2023-05-08T09:49:10Z</time>
      </trkpt>
      <trkpt lat="47.84611" lon="6.9182">
        <ele>1128</ele>
        <time>2023-05-08T09:49:25Z</time>
      </trkpt>
      <trkpt lat="47.84614" lon="6.91819">
        <ele>1128</ele>
        <time>2023-05-08T09:49:28Z</time>
      </trkpt>
      <trkpt lat="47.84621" lon="6.91819">
        <ele>1128</ele>
        <time>2023-05-08T09:49:33Z</time>
      </trkpt>
      <trkpt lat="47.84629" lon="6.91826">
        <ele>1128</ele>
        <time>2023-05-08T09:49:39Z</time>
      </trkpt>
      <trkpt lat="47.84634" lon="6.9184">
        <ele>1129</ele>
        <time>2023-05-08T09:49:47Z</time>
      </trkpt>
      <trkpt lat="47.84642" lon="6.91838">
        <ele>1130</ele>
        <time>2023-05-08T09:50:00Z</time>
      </trkpt>
      <trkpt lat="47.84653" lon="6.91843">
        <ele>1131</ele>
        <time>2023-05-08T09:50:07Z</time>
      </trkpt>
      <trkpt lat="47.84658" lon="6.91848">
        <ele>1132</ele>
        <time>2023-05-08T09:50:12Z</time>
      </trkpt>
      <trkpt lat="47.84658" lon="6.91855">
        <ele>1132</ele>
        <time>2023-05-08T09:50:15Z</time>
      </trkpt>
      <trkpt lat="47.84667" lon="6.91856">
        <ele>1132</ele>
        <time>2023-05-08T09:50:26Z</time>
      </trkpt>
      <trkpt lat="47.84673" lon="6.91854">
        <ele>1131</ele>
        <time>2023-05-08T09:50:32Z</time>
      </trkpt>
      <trkpt lat="47.84679" lon="6.91855">
        <ele>1129</ele>
        <time>2023-05-08T09:50:40Z</time>
      </trkpt>
      <trkpt lat="47.84685" lon="6.91855">
        <ele>1130</ele>
        <time>2023-05-08T09:50:46Z</time>
      </trkpt>
      <trkpt lat="47.8469" lon="6.91854">
        <ele>1130</ele>
        <time>2023-05-08T09:50:50Z</time>
      </trkpt>
      <trkpt lat="47.84695" lon="6.91857">
        <ele>1129</ele>
        <time>2023-05-08T09:50:54Z</time>
      </trkpt>
      <trkpt lat="47.84699" lon="6.91861">
        <ele>1129</ele>
        <time>2023-05-08T09:50:58Z</time>
      </trkpt>
      <trkpt lat="47.84708" lon="6.91867">
        <ele>1128</ele>
        <time>2023-05-08T09:51:07Z</time>
      </trkpt>
      <trkpt lat="47.8471" lon="6.91873">
        <ele>1128</ele>
        <time>2023-05-08T09:51:10Z</time>
      </trkpt>
      <trkpt lat="47.84707" lon="6.91896">
        <ele>1126</ele>
        <time>2023-05-08T09:51:21Z</time>
      </trkpt>
      <trkpt lat="47.84707" lon="6.91902">
        <ele>1126</ele>
        <time>2023-05-08T09:51:24Z</time>
      </trkpt>
      <trkpt lat="47.84711" lon="6.91905">
        <ele>1126</ele>
        <time>2023-05-08T09:51:28Z</time>
      </trkpt>
      <trkpt lat="47.8472" lon="6.91907">
        <ele>1125</ele>
        <time>2023-05-08T09:51:35Z</time>
      </trkpt>
      <trkpt lat="47.84725" lon="6.91913">
        <ele>1125</ele>
        <time>2023-05-08T09:51:41Z</time>
      </trkpt>
      <trkpt lat="47.8473" lon="6.91916">
        <ele>1124</ele>
        <time>2023-05-08T09:51:48Z</time>
      </trkpt>
      <trkpt lat="47.84736" lon="6.91919">
        <ele>1124</ele>
        <time>2023-05-08T09:51:52Z</time>
      </trkpt>
      <trkpt lat="47.84739" lon="6.91923">
        <ele>1124</ele>
        <time>2023-05-08T09:51:57Z</time>
      </trkpt>
      <trkpt lat="47.84744" lon="6.91921">
        <ele>1124</ele>
        <time>2023-05-08T09:52:01Z</time>
      </trkpt>
      <trkpt lat="47.84749" lon="6.91919">
        <ele>1124</ele>
        <time>2023-05-08T09:52:04Z</time>
      </trkpt>
      <trkpt lat="47.84756" lon="6.91919">
        <ele>1124</ele>
        <time>2023-05-08T09:52:11Z</time>
      </trkpt>
      <trkpt lat="47.84758" lon="6.91925">
        <ele>1123</ele>
        <time>2023-05-08T09:52:14Z</time>
      </trkpt>
      <trkpt lat="47.8476" lon="6.9193">
        <ele>1123</ele>
        <time>2023-05-08T09:52:18Z</time>
      </trkpt>
      <trkpt lat="47.84761" lon="6.91937">
        <ele>1122</ele>
        <time>2023-05-08T09:52:22Z</time>
      </trkpt>
      <trkpt lat="47.84759" lon="6.91951">
        <ele>1121</ele>
        <time>2023-05-08T09:52:31Z</time>
      </trkpt>
      <trkpt lat="47.84759" lon="6.91957">
        <ele>1120</ele>
        <time>2023-05-08T09:52:35Z</time>
      </trkpt>
      <trkpt lat="47.84766" lon="6.91966">
        <ele>1119</ele>
        <time>2023-05-08T09:52:43Z</time>
      </trkpt>
      <trkpt lat="47.84771" lon="6.91984">
        <ele>1118</ele>
        <time>2023-05-08T09:52:54Z</time>
      </trkpt>
      <trkpt lat="47.84778" lon="6.91997">
        <ele>1117</ele>
        <time>2023-05-08T09:53:09Z</time>
      </trkpt>
      <trkpt lat="47.84776" lon="6.91997">
        <ele>1117</ele>
        <time>2023-05-08T09:53:45Z</time>
      </trkpt>
      <trkpt lat="47.84776" lon="6.92004">
        <ele>1117</ele>
        <time>2023-05-08T09:53:51Z</time>
      </trkpt>
      <trkpt lat="47.84781" lon="6.91999">
        <ele>1117</ele>
        <time>2023-05-08T09:54:13Z</time>
      </trkpt>
      <trkpt lat="47.84786" lon="6.91997">
        <ele>1117</ele>
        <time>2023-05-08T09:54:17Z</time>
      </trkpt>
      <trkpt lat="47.8479" lon="6.91997">
        <ele>1116</ele>
        <time>2023-05-08T09:54:21Z</time>
      </trkpt>
      <trkpt lat="47.84796" lon="6.91993">
        <ele>1115</ele>
        <time>2023-05-08T09:54:47Z</time>
      </trkpt>
      <trkpt lat="47.84808" lon="6.91998">
        <ele>1112</ele>
        <time>2023-05-08T09:55:01Z</time>
      </trkpt>
      <trkpt lat="47.84825" lon="6.92014">
        <ele>1108</ele>
        <time>2023-05-08T09:55:19Z</time>
      </trkpt>
      <trkpt lat="47.84828" lon="6.9202">
        <ele>1107</ele>
        <time>2023-05-08T09:55:24Z</time>
      </trkpt>
      <trkpt lat="47.8483" lon="6.92032">
        <ele>1106</ele>
        <time>2023-05-08T09:55:31Z</time>
      </trkpt>
      <trkpt lat="47.84838" lon="6.92042">
        <ele>1103</ele>
        <time>2023-05-08T09:55:39Z</time>
      </trkpt>
      <trkpt lat="47.8484" lon="6.92048">
        <ele>1104</ele>
        <time>2023-05-08T09:55:46Z</time>
      </trkpt>
      <trkpt lat="47.84844" lon="6.92049">
        <ele>1104</ele>
        <time>2023-05-08T09:55:52Z</time>
      </trkpt>
      <trkpt lat="47.84853" lon="6.92054">
        <ele>1105</ele>
        <time>2023-05-08T09:56:04Z</time>
      </trkpt>
      <trkpt lat="47.84868" lon="6.92071">
        <ele>1103</ele>
        <time>2023-05-08T09:56:19Z</time>
      </trkpt>
      <trkpt lat="47.84871" lon="6.92077">
        <ele>1102</ele>
        <time>2023-05-08T09:56:24Z</time>
      </trkpt>
      <trkpt lat="47.84872" lon="6.92083">
        <ele>1102</ele>
        <time>2023-05-08T09:56:28Z</time>
      </trkpt>
      <trkpt lat="47.84876" lon="6.92088">
        <ele>1102</ele>
        <time>2023-05-08T09:56:33Z</time>
      </trkpt>
      <trkpt lat="47.84879" lon="6.92096">
        <ele>1103</ele>
        <time>2023-05-08T09:56:40Z</time>
      </trkpt>
      <trkpt lat="47.84879" lon="6.92102">
        <ele>1102</ele>
        <time>2023-05-08T09:56:46Z</time>
      </trkpt>
      <trkpt lat="47.84882" lon="6.92107">
        <ele>1101</ele>
        <time>2023-05-08T09:57:11Z</time>
      </trkpt>
      <trkpt lat="47.84884" lon="6.92114">
        <ele>1102</ele>
        <time>2023-05-08T09:57:16Z</time>
      </trkpt>
      <trkpt lat="47.84885" lon="6.92121">
        <ele>1101</ele>
        <time>2023-05-08T09:57:20Z</time>
      </trkpt>
      <trkpt lat="47.84891" lon="6.9214">
        <ele>1100</ele>
        <time>2023-05-08T09:57:32Z</time>
      </trkpt>
      <trkpt lat="47.84893" lon="6.92151">
        <ele>1099</ele>
        <time>2023-05-08T09:57:40Z</time>
      </trkpt>
      <trkpt lat="47.84895" lon="6.92156">
        <ele>1098</ele>
        <time>2023-05-08T09:57:44Z</time>
      </trkpt>
      <trkpt lat="47.84897" lon="6.92164">
        <ele>1098</ele>
        <time>2023-05-08T09:57:49Z</time>
      </trkpt>
      <trkpt lat="47.84896" lon="6.92177">
        <ele>1097</ele>
        <time>2023-05-08T09:57:57Z</time>
      </trkpt>
      <trkpt lat="47.84895" lon="6.92186">
        <ele>1097</ele>
        <time>2023-05-08T09:58:03Z</time>
      </trkpt>
      <trkpt lat="47.84897" lon="6.92199">
        <ele>1096</ele>
        <time>2023-05-08T09:58:10Z</time>
      </trkpt>
      <trkpt lat="47.84898" lon="6.92211">
        <ele>1094</ele>
        <time>2023-05-08T09:58:18Z</time>
      </trkpt>
      <trkpt lat="47.84899" lon="6.92218">
        <ele>1093</ele>
        <time>2023-05-08T09:58:23Z</time>
      </trkpt>
      <trkpt lat="47.84899" lon="6.92231">
        <ele>1092</ele>
        <time>2023-05-08T09:58:32Z</time>
      </trkpt>
      <trkpt lat="47.849" lon="6.92237">
        <ele>1091</ele>
        <time>2023-05-08T09:58:36Z</time>
      </trkpt>
      <trkpt lat="47.849" lon="6.92246">
        <ele>1091</ele>
        <time>2023-05-08T09:58:46Z</time>
      </trkpt>
      <trkpt lat="47.84893" lon="6.92255">
        <ele>1089</ele>
        <time>2023-05-08T09:59:13Z</time>
      </trkpt>
      <trkpt lat="47.84892" lon="6.92264">
        <ele>1086</ele>
        <time>2023-05-08T09:59:25Z</time>
      </trkpt>
      <trkpt lat="47.84895" lon="6.92269">
        <ele>1086</ele>
        <time>2023-05-08T09:59:30Z</time>
      </trkpt>
      <trkpt lat="47.84893" lon="6.92279">
        <ele>1086</ele>
        <time>2023-05-08T09:59:38Z</time>
      </trkpt>
      <trkpt lat="47.84891" lon="6.92287">
        <ele>1085</ele>
        <time>2023-05-08T09:59:43Z</time>
      </trkpt>
      <trkpt lat="47.84891" lon="6.92293">
        <ele>1084</ele>
        <time>2023-05-08T09:59:46Z</time>
      </trkpt>
      <trkpt lat="47.84895" lon="6.92315">
        <ele>1083</ele>
        <time>2023-05-08T09:59:57Z</time>
      </trkpt>
      <trkpt lat="47.84894" lon="6.92328">
        <ele>1082</ele>
        <time>2023-05-08T10:00:05Z</time>
      </trkpt>
      <trkpt lat="47.84892" lon="6.92343">
        <ele>1081</ele>
        <time>2023-05-08T10:00:18Z</time>
      </trkpt>
      <trkpt lat="47.84891" lon="6.9235">
        <ele>1080</ele>
        <time>2023-05-08T10:00:21Z</time>
      </trkpt>
      <trkpt lat="47.84887" lon="6.92361">
        <ele>1079</ele>
        <time>2023-05-08T10:00:29Z</time>
      </trkpt>
      <trkpt lat="47.84884" lon="6.92367">
        <ele>1078</ele>
        <time>2023-05-08T10:00:33Z</time>
      </trkpt>
      <trkpt lat="47.84882" lon="6.92373">
        <ele>1078</ele>
        <time>2023-05-08T10:00:36Z</time>
      </trkpt>
      <trkpt lat="47.84881" lon="6.92379">
        <ele>1078</ele>
        <time>2023-05-08T10:00:40Z</time>
      </trkpt>
      <trkpt lat="47.8487" lon="6.92413">
        <ele>1076</ele>
        <time>2023-05-08T10:01:03Z</time>
      </trkpt>
      <trkpt lat="47.84869" lon="6.9242">
        <ele>1075</ele>
        <time>2023-05-08T10:01:06Z</time>
      </trkpt>
      <trkpt lat="47.84866" lon="6.92436">
        <ele>1074</ele>
        <time>2023-05-08T10:01:14Z</time>
      </trkpt>
      <trkpt lat="47.84868" lon="6.92443">
        <ele>1074</ele>
        <time>2023-05-08T10:01:19Z</time>
      </trkpt>
      <trkpt lat="47.84869" lon="6.92457">
        <ele>1073</ele>
        <time>2023-05-08T10:01:30Z</time>
      </trkpt>
      <trkpt lat="47.84869" lon="6.92465">
        <ele>1073</ele>
        <time>2023-05-08T10:01:35Z</time>
      </trkpt>
      <trkpt lat="47.84866" lon="6.92473">
        <ele>1073</ele>
        <time>2023-05-08T10:01:46Z</time>
      </trkpt>
      <trkpt lat="47.84867" lon="6.9248">
        <ele>1073</ele>
        <time>2023-05-08T10:01:51Z</time>
      </trkpt>
      <trkpt lat="47.84867" lon="6.9249">
        <ele>1074</ele>
        <time>2023-05-08T10:02:01Z</time>
      </trkpt>
      <trkpt lat="47.84866" lon="6.92497">
        <ele>1075</ele>
        <time>2023-05-08T10:02:12Z</time>
      </trkpt>
      <trkpt lat="47.84867" lon="6.92506">
        <ele>1078</ele>
        <time>2023-05-08T10:02:24Z</time>
      </trkpt>
      <trkpt lat="47.84869" lon="6.92512">
        <ele>1079</ele>
        <time>2023-05-08T10:02:31Z</time>
      </trkpt>
      <trkpt lat="47.84861" lon="6.92515">
        <ele>1081</ele>
        <time>2023-05-08T10:02:43Z</time>
      </trkpt>
      <trkpt lat="47.84855" lon="6.92513">
        <ele>1083</ele>
        <time>2023-05-08T10:02:51Z</time>
      </trkpt>
      <trkpt lat="47.84845" lon="6.92513">
        <ele>1085</ele>
        <time>2023-05-08T10:03:05Z</time>
      </trkpt>
      <trkpt lat="47.8484" lon="6.92514">
        <ele>1087</ele>
        <time>2023-05-08T10:03:17Z</time>
      </trkpt>
      <trkpt lat="47.84835" lon="6.92515">
        <ele>1088</ele>
        <time>2023-05-08T10:03:22Z</time>
      </trkpt>
      <trkpt lat="47.84824" lon="6.92524">
        <ele>1090</ele>
        <time>2023-05-08T10:03:37Z</time>
      </trkpt>
      <trkpt lat="47.84828" lon="6.92525">
        <ele>1092</ele>
        <time>2023-05-08T10:03:46Z</time>
      </trkpt>
      <trkpt lat="47.8484" lon="6.92533">
        <ele>1094</ele>
        <time>2023-05-08T10:04:01Z</time>
      </trkpt>
      <trkpt lat="47.84849" lon="6.92544">
        <ele>1096</ele>
        <time>2023-05-08T10:04:13Z</time>
      </trkpt>
      <trkpt lat="47.84862" lon="6.92584">
        <ele>1101</ele>
        <time>2023-05-08T10:04:42Z</time>
      </trkpt>
      <trkpt lat="47.84863" lon="6.92591">
        <ele>1101</ele>
        <time>2023-05-08T10:04:47Z</time>
      </trkpt>
      <trkpt lat="47.84861" lon="6.92619">
        <ele>1102</ele>
        <time>2023-05-08T10:05:04Z</time>
      </trkpt>
      <trkpt lat="47.84862" lon="6.92626">
        <ele>1102</ele>
        <time>2023-05-08T10:05:09Z</time>
      </trkpt>
      <trkpt lat="47.84861" lon="6.92633">
        <ele>1102</ele>
        <time>2023-05-08T10:05:13Z</time>
      </trkpt>
      <trkpt lat="47.8486" lon="6.92639">
        <ele>1102</ele>
        <time>2023-05-08T10:05:17Z</time>
      </trkpt>
      <trkpt lat="47.84859" lon="6.92649">
        <ele>1103</ele>
        <time>2023-05-08T10:05:23Z</time>
      </trkpt>
      <trkpt lat="47.84859" lon="6.92656">
        <ele>1103</ele>
        <time>2023-05-08T10:05:27Z</time>
      </trkpt>
      <trkpt lat="47.84855" lon="6.92665">
        <ele>1104</ele>
        <time>2023-05-08T10:05:35Z</time>
      </trkpt>
      <trkpt lat="47.84855" lon="6.92672">
        <ele>1105</ele>
        <time>2023-05-08T10:05:39Z</time>
      </trkpt>
      <trkpt lat="47.84852" lon="6.92686">
        <ele>1107</ele>
        <time>2023-05-08T10:05:49Z</time>
      </trkpt>
      <trkpt lat="47.84852" lon="6.92692">
        <ele>1108</ele>
        <time>2023-05-08T10:05:54Z</time>
      </trkpt>
      <trkpt lat="47.84852" lon="6.92699">
        <ele>1108</ele>
        <time>2023-05-08T10:05:59Z</time>
      </trkpt>
      <trkpt lat="47.84853" lon="6.92709">
        <ele>1108</ele>
        <time>2023-05-08T10:06:07Z</time>
      </trkpt>
      <trkpt lat="47.84851" lon="6.92715">
        <ele>1109</ele>
        <time>2023-05-08T10:06:13Z</time>
      </trkpt>
      <trkpt lat="47.84853" lon="6.92728">
        <ele>1110</ele>
        <time>2023-05-08T10:06:26Z</time>
      </trkpt>
      <trkpt lat="47.84855" lon="6.92734">
        <ele>1111</ele>
        <time>2023-05-08T10:06:30Z</time>
      </trkpt>
      <trkpt lat="47.84855" lon="6.92743">
        <ele>1111</ele>
        <time>2023-05-08T10:06:36Z</time>
      </trkpt>
      <trkpt lat="47.84859" lon="6.92756">
        <ele>1112</ele>
        <time>2023-05-08T10:06:45Z</time>
      </trkpt>
      <trkpt lat="47.84858" lon="6.9277">
        <ele>1113</ele>
        <time>2023-05-08T10:06:54Z</time>
      </trkpt>
      <trkpt lat="47.8486" lon="6.92779">
        <ele>1114</ele>
        <time>2023-05-08T10:07:00Z</time>
      </trkpt>
      <trkpt lat="47.84859" lon="6.92795">
        <ele>1116</ele>
        <time>2023-05-08T10:07:13Z</time>
      </trkpt>
      <trkpt lat="47.84863" lon="6.92835">
        <ele>1122</ele>
        <time>2023-05-08T10:07:45Z</time>
      </trkpt>
      <trkpt lat="47.84867" lon="6.92855">
        <ele>1124</ele>
        <time>2023-05-08T10:07:57Z</time>
      </trkpt>
      <trkpt lat="47.84865" lon="6.92868">
        <ele>1125</ele>
        <time>2023-05-08T10:08:05Z</time>
      </trkpt>
      <trkpt lat="47.8486" lon="6.92885">
        <ele>1126</ele>
        <time>2023-05-08T10:08:17Z</time>
      </trkpt>
      <trkpt lat="47.84859" lon="6.92899">
        <ele>1128</ele>
        <time>2023-05-08T10:08:27Z</time>
      </trkpt>
      <trkpt lat="47.84854" lon="6.92914">
        <ele>1130</ele>
        <time>2023-05-08T10:08:40Z</time>
      </trkpt>
      <trkpt lat="47.84852" lon="6.92935">
        <ele>1134</ele>
        <time>2023-05-08T10:08:59Z</time>
      </trkpt>
      <trkpt lat="47.84848" lon="6.92947">
        <ele>1136</ele>
        <time>2023-05-08T10:09:10Z</time>
      </trkpt>
      <trkpt lat="47.84844" lon="6.92961">
        <ele>1139</ele>
        <time>2023-05-08T10:09:28Z</time>
      </trkpt>
      <trkpt lat="47.84844" lon="6.92973">
        <ele>1142</ele>
        <time>2023-05-08T10:09:40Z</time>
      </trkpt>
      <trkpt lat="47.84843" lon="6.92979">
        <ele>1143</ele>
        <time>2023-05-08T10:09:46Z</time>
      </trkpt>
      <trkpt lat="47.84838" lon="6.93001">
        <ele>1147</ele>
        <time>2023-05-08T10:10:10Z</time>
      </trkpt>
      <trkpt lat="47.84837" lon="6.93008">
        <ele>1148</ele>
        <time>2023-05-08T10:10:15Z</time>
      </trkpt>
      <trkpt lat="47.84834" lon="6.93016">
        <ele>1149</ele>
        <time>2023-05-08T10:10:22Z</time>
      </trkpt>
      <trkpt lat="47.84834" lon="6.93025">
        <ele>1151</ele>
        <time>2023-05-08T10:10:29Z</time>
      </trkpt>
      <trkpt lat="47.84835" lon="6.93032">
        <ele>1151</ele>
        <time>2023-05-08T10:10:33Z</time>
      </trkpt>
      <trkpt lat="47.84835" lon="6.93039">
        <ele>1151</ele>
        <time>2023-05-08T10:10:38Z</time>
      </trkpt>
      <trkpt lat="47.84835" lon="6.93048">
        <ele>1153</ele>
        <time>2023-05-08T10:10:45Z</time>
      </trkpt>
      <trkpt lat="47.84834" lon="6.93055">
        <ele>1153</ele>
        <time>2023-05-08T10:10:49Z</time>
      </trkpt>
      <trkpt lat="47.84835" lon="6.93075">
        <ele>1155</ele>
        <time>2023-05-08T10:11:04Z</time>
      </trkpt>
      <trkpt lat="47.84843" lon="6.9309">
        <ele>1158</ele>
        <time>2023-05-08T10:11:21Z</time>
      </trkpt>
      <trkpt lat="47.84846" lon="6.93095">
        <ele>1158</ele>
        <time>2023-05-08T10:11:27Z</time>
      </trkpt>
      <trkpt lat="47.84851" lon="6.93101">
        <ele>1159</ele>
        <time>2023-05-08T10:11:35Z</time>
      </trkpt>
      <trkpt lat="47.84854" lon="6.93108">
        <ele>1160</ele>
        <time>2023-05-08T10:11:41Z</time>
      </trkpt>
      <trkpt lat="47.84858" lon="6.93114">
        <ele>1161</ele>
        <time>2023-05-08T10:11:49Z</time>
      </trkpt>
      <trkpt lat="47.84862" lon="6.9313">
        <ele>1163</ele>
        <time>2023-05-08T10:12:02Z</time>
      </trkpt>
      <trkpt lat="47.84872" lon="6.93145">
        <ele>1166</ele>
        <time>2023-05-08T10:12:17Z</time>
      </trkpt>
      <trkpt lat="47.84884" lon="6.93182">
        <ele>1172</ele>
        <time>2023-05-08T10:12:47Z</time>
      </trkpt>
      <trkpt lat="47.84889" lon="6.93198">
        <ele>1174</ele>
        <time>2023-05-08T10:12:59Z</time>
      </trkpt>
      <trkpt lat="47.84895" lon="6.93231">
        <ele>1177</ele>
        <time>2023-05-08T10:13:21Z</time>
      </trkpt>
      <trkpt lat="47.84899" lon="6.93243">
        <ele>1178</ele>
        <time>2023-05-08T10:13:28Z</time>
      </trkpt>
      <trkpt lat="47.84903" lon="6.93264">
        <ele>1180</ele>
        <time>2023-05-08T10:13:44Z</time>
      </trkpt>
      <trkpt lat="47.84903" lon="6.93272">
        <ele>1181</ele>
        <time>2023-05-08T10:13:49Z</time>
      </trkpt>
      <trkpt lat="47.84916" lon="6.93328">
        <ele>1184</ele>
        <time>2023-05-08T10:14:23Z</time>
      </trkpt>
      <trkpt lat="47.84917" lon="6.93337">
        <ele>1185</ele>
        <time>2023-05-08T10:14:29Z</time>
      </trkpt>
      <trkpt lat="47.84919" lon="6.93344">
        <ele>1185</ele>
        <time>2023-05-08T10:14:32Z</time>
      </trkpt>
      <trkpt lat="47.84921" lon="6.93361">
        <ele>1186</ele>
        <time>2023-05-08T10:14:43Z</time>
      </trkpt>
      <trkpt lat="47.84922" lon="6.93367">
        <ele>1187</ele>
        <time>2023-05-08T10:14:46Z</time>
      </trkpt>
      <trkpt lat="47.84925" lon="6.93376">
        <ele>1187</ele>
        <time>2023-05-08T10:14:52Z</time>
      </trkpt>
      <trkpt lat="47.84925" lon="6.9339">
        <ele>1188</ele>
        <time>2023-05-08T10:15:01Z</time>
      </trkpt>
      <trkpt lat="47.84926" lon="6.93399">
        <ele>1188</ele>
        <time>2023-05-08T10:15:05Z</time>
      </trkpt>
      <trkpt lat="47.84928" lon="6.93405">
        <ele>1187</ele>
        <time>2023-05-08T10:15:10Z</time>
      </trkpt>
      <trkpt lat="47.84929" lon="6.93413">
        <ele>1187</ele>
        <time>2023-05-08T10:15:14Z</time>
      </trkpt>
      <trkpt lat="47.8493" lon="6.93419">
        <ele>1187</ele>
        <time>2023-05-08T10:15:17Z</time>
      </trkpt>
      <trkpt lat="47.8493" lon="6.9343">
        <ele>1186</ele>
        <time>2023-05-08T10:15:23Z</time>
      </trkpt>
      <trkpt lat="47.84937" lon="6.93451">
        <ele>1185</ele>
        <time>2023-05-08T10:15:38Z</time>
      </trkpt>
      <trkpt lat="47.84938" lon="6.93459">
        <ele>1185</ele>
        <time>2023-05-08T10:15:42Z</time>
      </trkpt>
      <trkpt lat="47.84943" lon="6.93471">
        <ele>1184</ele>
        <time>2023-05-08T10:15:50Z</time>
      </trkpt>
      <trkpt lat="47.84946" lon="6.93477">
        <ele>1183</ele>
        <time>2023-05-08T10:15:54Z</time>
      </trkpt>
      <trkpt lat="47.84948" lon="6.93484">
        <ele>1183</ele>
        <time>2023-05-08T10:15:59Z</time>
      </trkpt>
      <trkpt lat="47.8495" lon="6.93489">
        <ele>1183</ele>
        <time>2023-05-08T10:16:03Z</time>
      </trkpt>
      <trkpt lat="47.84954" lon="6.93494">
        <ele>1183</ele>
        <time>2023-05-08T10:16:07Z</time>
      </trkpt>
      <trkpt lat="47.84956" lon="6.935">
        <ele>1183</ele>
        <time>2023-05-08T10:16:11Z</time>
      </trkpt>
      <trkpt lat="47.84965" lon="6.93512">
        <ele>1185</ele>
        <time>2023-05-08T10:16:24Z</time>
      </trkpt>
      <trkpt lat="47.8497" lon="6.93524">
        <ele>1187</ele>
        <time>2023-05-08T10:16:34Z</time>
      </trkpt>
      <trkpt lat="47.84973" lon="6.9353">
        <ele>1187</ele>
        <time>2023-05-08T10:16:37Z</time>
      </trkpt>
      <trkpt lat="47.84974" lon="6.93537">
        <ele>1188</ele>
        <time>2023-05-08T10:16:41Z</time>
      </trkpt>
      <trkpt lat="47.84975" lon="6.93543">
        <ele>1188</ele>
        <time>2023-05-08T10:16:45Z</time>
      </trkpt>
      <trkpt lat="47.84979" lon="6.93547">
        <ele>1187</ele>
        <time>2023-05-08T10:16:50Z</time>
      </trkpt>
      <trkpt lat="47.84979" lon="6.93557">
        <ele>1187</ele>
        <time>2023-05-08T10:16:56Z</time>
      </trkpt>
      <trkpt lat="47.84982" lon="6.93564">
        <ele>1186</ele>
        <time>2023-05-08T10:17:00Z</time>
      </trkpt>
      <trkpt lat="47.84986" lon="6.93575">
        <ele>1184</ele>
        <time>2023-05-08T10:17:06Z</time>
      </trkpt>
      <trkpt lat="47.84993" lon="6.93584">
        <ele>1184</ele>
        <time>2023-05-08T10:17:13Z</time>
      </trkpt>
      <trkpt lat="47.85002" lon="6.93602">
        <ele>1184</ele>
        <time>2023-05-08T10:17:24Z</time>
      </trkpt>
      <trkpt lat="47.85007" lon="6.93608">
        <ele>1184</ele>
        <time>2023-05-08T10:17:30Z</time>
      </trkpt>
      <trkpt lat="47.8501" lon="6.93614">
        <ele>1184</ele>
        <time>2023-05-08T10:17:34Z</time>
      </trkpt>
      <trkpt lat="47.8501" lon="6.9362">
        <ele>1184</ele>
        <time>2023-05-08T10:17:37Z</time>
      </trkpt>
      <trkpt lat="47.85016" lon="6.93634">
        <ele>1185</ele>
        <time>2023-05-08T10:17:51Z</time>
      </trkpt>
      <trkpt lat="47.85029" lon="6.93662">
        <ele>1183</ele>
        <time>2023-05-08T10:18:09Z</time>
      </trkpt>
      <trkpt lat="47.85035" lon="6.93672">
        <ele>1183</ele>
        <time>2023-05-08T10:18:17Z</time>
      </trkpt>
      <trkpt lat="47.85042" lon="6.93681">
        <ele>1183</ele>
        <time>2023-05-08T10:18:25Z</time>
      </trkpt>
      <trkpt lat="47.85046" lon="6.93686">
        <ele>1183</ele>
        <time>2023-05-08T10:18:30Z</time>
      </trkpt>
      <trkpt lat="47.85049" lon="6.93692">
        <ele>1184</ele>
        <time>2023-05-08T10:18:35Z</time>
      </trkpt>
      <trkpt lat="47.85052" lon="6.93696">
        <ele>1185</ele>
        <time>2023-05-08T10:18:39Z</time>
      </trkpt>
      <trkpt lat="47.85053" lon="6.93703">
        <ele>1185</ele>
        <time>2023-05-08T10:18:42Z</time>
      </trkpt>
      <trkpt lat="47.85059" lon="6.93714">
        <ele>1185</ele>
        <time>2023-05-08T10:18:50Z</time>
      </trkpt>
      <trkpt lat="47.85062" lon="6.9372">
        <ele>1185</ele>
        <time>2023-05-08T10:18:54Z</time>
      </trkpt>
      <trkpt lat="47.85072" lon="6.93735">
        <ele>1186</ele>
        <time>2023-05-08T10:19:06Z</time>
      </trkpt>
      <trkpt lat="47.85091" lon="6.93778">
        <ele>1186</ele>
        <time>2023-05-08T10:19:37Z</time>
      </trkpt>
      <trkpt lat="47.85096" lon="6.93796">
        <ele>1187</ele>
        <time>2023-05-08T10:19:50Z</time>
      </trkpt>
      <trkpt lat="47.85097" lon="6.93803">
        <ele>1187</ele>
        <time>2023-05-08T10:19:54Z</time>
      </trkpt>
      <trkpt lat="47.85103" lon="6.93813">
        <ele>1186</ele>
        <time>2023-05-08T10:20:02Z</time>
      </trkpt>
      <trkpt lat="47.85107" lon="6.93818">
        <ele>1186</ele>
        <time>2023-05-08T10:20:06Z</time>
      </trkpt>
      <trkpt lat="47.8511" lon="6.93823">
        <ele>1186</ele>
        <time>2023-05-08T10:20:10Z</time>
      </trkpt>
      <trkpt lat="47.85123" lon="6.93838">
        <ele>1184</ele>
        <time>2023-05-08T10:20:24Z</time>
      </trkpt>
      <trkpt lat="47.85144" lon="6.93875">
        <ele>1181</ele>
        <time>2023-05-08T10:20:51Z</time>
      </trkpt>
      <trkpt lat="47.85146" lon="6.93882">
        <ele>1181</ele>
        <time>2023-05-08T10:20:55Z</time>
      </trkpt>
      <trkpt lat="47.85151" lon="6.93894">
        <ele>1181</ele>
        <time>2023-05-08T10:21:03Z</time>
      </trkpt>
      <trkpt lat="47.85154" lon="6.93899">
        <ele>1181</ele>
        <time>2023-05-08T10:21:06Z</time>
      </trkpt>
      <trkpt lat="47.85156" lon="6.93906">
        <ele>1181</ele>
        <time>2023-05-08T10:21:10Z</time>
      </trkpt>
      <trkpt lat="47.85159" lon="6.93911">
        <ele>1181</ele>
        <time>2023-05-08T10:21:14Z</time>
      </trkpt>
      <trkpt lat="47.85165" lon="6.93923">
        <ele>1180</ele>
        <time>2023-05-08T10:21:22Z</time>
      </trkpt>
      <trkpt lat="47.85167" lon="6.93937">
        <ele>1180</ele>
        <time>2023-05-08T10:21:31Z</time>
      </trkpt>
      <trkpt lat="47.85172" lon="6.9395">
        <ele>1179</ele>
        <time>2023-05-08T10:21:39Z</time>
      </trkpt>
      <trkpt lat="47.85173" lon="6.93966">
        <ele>1179</ele>
        <time>2023-05-08T10:21:48Z</time>
      </trkpt>
      <trkpt lat="47.85179" lon="6.93999">
        <ele>1176</ele>
        <time>2023-05-08T10:22:09Z</time>
      </trkpt>
      <trkpt lat="47.85179" lon="6.94007">
        <ele>1175</ele>
        <time>2023-05-08T10:22:13Z</time>
      </trkpt>
      <trkpt lat="47.85173" lon="6.94032">
        <ele>1174</ele>
        <time>2023-05-08T10:22:28Z</time>
      </trkpt>
      <trkpt lat="47.85161" lon="6.94053">
        <ele>1171</ele>
        <time>2023-05-08T10:22:44Z</time>
      </trkpt>
      <trkpt lat="47.85157" lon="6.94054">
        <ele>1170</ele>
        <time>2023-05-08T10:22:48Z</time>
      </trkpt>
      <trkpt lat="47.85138" lon="6.94078">
        <ele>1165</ele>
        <time>2023-05-08T10:23:07Z</time>
      </trkpt>
      <trkpt lat="47.85134" lon="6.9408">
        <ele>1164</ele>
        <time>2023-05-08T10:23:15Z</time>
      </trkpt>
      <trkpt lat="47.8513" lon="6.94083">
        <ele>1163</ele>
        <time>2023-05-08T10:23:19Z</time>
      </trkpt>
      <trkpt lat="47.85119" lon="6.94105">
        <ele>1160</ele>
        <time>2023-05-08T10:23:35Z</time>
      </trkpt>
      <trkpt lat="47.85114" lon="6.9411">
        <ele>1159</ele>
        <time>2023-05-08T10:23:39Z</time>
      </trkpt>
      <trkpt lat="47.85111" lon="6.94115">
        <ele>1160</ele>
        <time>2023-05-08T10:23:42Z</time>
      </trkpt>
      <trkpt lat="47.85102" lon="6.9413">
        <ele>1157</ele>
        <time>2023-05-08T10:23:55Z</time>
      </trkpt>
      <trkpt lat="47.85098" lon="6.94147">
        <ele>1155</ele>
        <time>2023-05-08T10:24:07Z</time>
      </trkpt>
      <trkpt lat="47.85093" lon="6.94159">
        <ele>1154</ele>
        <time>2023-05-08T10:24:14Z</time>
      </trkpt>
      <trkpt lat="47.8509" lon="6.94166">
        <ele>1153</ele>
        <time>2023-05-08T10:24:18Z</time>
      </trkpt>
      <trkpt lat="47.85084" lon="6.94176">
        <ele>1152</ele>
        <time>2023-05-08T10:24:27Z</time>
      </trkpt>
      <trkpt lat="47.85081" lon="6.9418">
        <ele>1151</ele>
        <time>2023-05-08T10:24:31Z</time>
      </trkpt>
      <trkpt lat="47.85069" lon="6.94188">
        <ele>1148</ele>
        <time>2023-05-08T10:24:42Z</time>
      </trkpt>
      <trkpt lat="47.85036" lon="6.94201">
        <ele>1139</ele>
        <time>2023-05-08T10:25:15Z</time>
      </trkpt>
      <trkpt lat="47.8502" lon="6.94209">
        <ele>1134</ele>
        <time>2023-05-08T10:25:32Z</time>
      </trkpt>
      <trkpt lat="47.85012" lon="6.94209">
        <ele>1133</ele>
        <time>2023-05-08T10:25:39Z</time>
      </trkpt>
      <trkpt lat="47.85008" lon="6.94214">
        <ele>1132</ele>
        <time>2023-05-08T10:25:45Z</time>
      </trkpt>
      <trkpt lat="47.85002" lon="6.94218">
        <ele>1129</ele>
        <time>2023-05-08T10:25:53Z</time>
      </trkpt>
      <trkpt lat="47.84997" lon="6.94219">
        <ele>1128</ele>
        <time>2023-05-08T10:25:57Z</time>
      </trkpt>
      <trkpt lat="47.84992" lon="6.94223">
        <ele>1127</ele>
        <time>2023-05-08T10:26:03Z</time>
      </trkpt>
      <trkpt lat="47.84987" lon="6.94227">
        <ele>1127</ele>
        <time>2023-05-08T10:26:08Z</time>
      </trkpt>
      <trkpt lat="47.84983" lon="6.94229">
        <ele>1127</ele>
        <time>2023-05-08T10:26:12Z</time>
      </trkpt>
      <trkpt lat="47.84979" lon="6.94232">
        <ele>1127</ele>
        <time>2023-05-08T10:26:16Z</time>
      </trkpt>
      <trkpt lat="47.84974" lon="6.94232">
        <ele>1127</ele>
        <time>2023-05-08T10:26:21Z</time>
      </trkpt>
      <trkpt lat="47.8497" lon="6.94235">
        <ele>1127</ele>
        <time>2023-05-08T10:26:25Z</time>
      </trkpt>
      <trkpt lat="47.84965" lon="6.94239">
        <ele>1126</ele>
        <time>2023-05-08T10:26:30Z</time>
      </trkpt>
      <trkpt lat="47.84961" lon="6.94242">
        <ele>1126</ele>
        <time>2023-05-08T10:26:33Z</time>
      </trkpt>
      <trkpt lat="47.84957" lon="6.94246">
        <ele>1126</ele>
        <time>2023-05-08T10:26:37Z</time>
      </trkpt>
      <trkpt lat="47.84953" lon="6.94248">
        <ele>1126</ele>
        <time>2023-05-08T10:26:41Z</time>
      </trkpt>
      <trkpt lat="47.84947" lon="6.94255">
        <ele>1127</ele>
        <time>2023-05-08T10:26:47Z</time>
      </trkpt>
      <trkpt lat="47.84921" lon="6.94293">
        <ele>1124</ele>
        <time>2023-05-08T10:27:17Z</time>
      </trkpt>
      <trkpt lat="47.84915" lon="6.9431">
        <ele>1123</ele>
        <time>2023-05-08T10:27:30Z</time>
      </trkpt>
      <trkpt lat="47.84909" lon="6.94317">
        <ele>1122</ele>
        <time>2023-05-08T10:27:35Z</time>
      </trkpt>
      <trkpt lat="47.84904" lon="6.9432">
        <ele>1122</ele>
        <time>2023-05-08T10:27:38Z</time>
      </trkpt>
      <trkpt lat="47.84901" lon="6.94325">
        <ele>1122</ele>
        <time>2023-05-08T10:27:42Z</time>
      </trkpt>
      <trkpt lat="47.84882" lon="6.94371">
        <ele>1119</ele>
        <time>2023-05-08T10:28:16Z</time>
      </trkpt>
      <trkpt lat="47.8488" lon="6.94383">
        <ele>1118</ele>
        <time>2023-05-08T10:28:24Z</time>
      </trkpt>
      <trkpt lat="47.84871" lon="6.94407">
        <ele>1115</ele>
        <time>2023-05-08T10:28:40Z</time>
      </trkpt>
      <trkpt lat="47.84865" lon="6.94425">
        <ele>1115</ele>
        <time>2023-05-08T10:28:52Z</time>
      </trkpt>
      <trkpt lat="47.84866" lon="6.94432">
        <ele>1115</ele>
        <time>2023-05-08T10:28:56Z</time>
      </trkpt>
      <trkpt lat="47.84863" lon="6.94439">
        <ele>1114</ele>
        <time>2023-05-08T10:29:00Z</time>
      </trkpt>
      <trkpt lat="47.8486" lon="6.94445">
        <ele>1114</ele>
        <time>2023-05-08T10:29:05Z</time>
      </trkpt>
      <trkpt lat="47.84858" lon="6.94451">
        <ele>1114</ele>
        <time>2023-05-08T10:29:08Z</time>
      </trkpt>
      <trkpt lat="47.84854" lon="6.94456">
        <ele>1113</ele>
        <time>2023-05-08T10:29:12Z</time>
      </trkpt>
      <trkpt lat="47.84849" lon="6.94456">
        <ele>1112</ele>
        <time>2023-05-08T10:29:18Z</time>
      </trkpt>
      <trkpt lat="47.84842" lon="6.94459">
        <ele>1113</ele>
        <time>2023-05-08T10:29:25Z</time>
      </trkpt>
      <trkpt lat="47.84837" lon="6.94466">
        <ele>1112</ele>
        <time>2023-05-08T10:29:32Z</time>
      </trkpt>
      <trkpt lat="47.84829" lon="6.9448">
        <ele>1111</ele>
        <time>2023-05-08T10:29:41Z</time>
      </trkpt>
      <trkpt lat="47.84827" lon="6.94488">
        <ele>1110</ele>
        <time>2023-05-08T10:29:48Z</time>
      </trkpt>
      <trkpt lat="47.84823" lon="6.94496">
        <ele>1109</ele>
        <time>2023-05-08T10:29:56Z</time>
      </trkpt>
      <trkpt lat="47.84802" lon="6.94538">
        <ele>1102</ele>
        <time>2023-05-08T10:30:30Z</time>
      </trkpt>
      <trkpt lat="47.84799" lon="6.94542">
        <ele>1101</ele>
        <time>2023-05-08T10:30:33Z</time>
      </trkpt>
      <trkpt lat="47.84796" lon="6.94547">
        <ele>1101</ele>
        <time>2023-05-08T10:30:37Z</time>
      </trkpt>
      <trkpt lat="47.84792" lon="6.94551">
        <ele>1101</ele>
        <time>2023-05-08T10:30:41Z</time>
      </trkpt>
      <trkpt lat="47.84783" lon="6.94586">
        <ele>1095</ele>
        <time>2023-05-08T10:31:09Z</time>
      </trkpt>
      <trkpt lat="47.84779" lon="6.94592">
        <ele>1094</ele>
        <time>2023-05-08T10:31:14Z</time>
      </trkpt>
      <trkpt lat="47.84772" lon="6.94601">
        <ele>1091</ele>
        <time>2023-05-08T10:31:22Z</time>
      </trkpt>
      <trkpt lat="47.84777" lon="6.94601">
        <ele>1090</ele>
        <time>2023-05-08T10:31:29Z</time>
      </trkpt>
      <trkpt lat="47.8478" lon="6.94607">
        <ele>1088</ele>
        <time>2023-05-08T10:31:37Z</time>
      </trkpt>
      <trkpt lat="47.84779" lon="6.94615">
        <ele>1086</ele>
        <time>2023-05-08T10:31:42Z</time>
      </trkpt>
      <trkpt lat="47.84782" lon="6.94618">
        <ele>1080</ele>
        <time>2023-05-08T10:32:05Z</time>
      </trkpt>
      <trkpt lat="47.84786" lon="6.94613">
        <ele>1079</ele>
        <time>2023-05-08T10:32:10Z</time>
      </trkpt>
      <trkpt lat="47.84789" lon="6.94623">
        <ele>1076</ele>
        <time>2023-05-08T10:32:23Z</time>
      </trkpt>
      <trkpt lat="47.84788" lon="6.9463">
        <ele>1075</ele>
        <time>2023-05-08T10:32:28Z</time>
      </trkpt>
      <trkpt lat="47.8479" lon="6.94646">
        <ele>1071</ele>
        <time>2023-05-08T10:32:40Z</time>
      </trkpt>
      <trkpt lat="47.84793" lon="6.94647">
        <ele>1068</ele>
        <time>2023-05-08T10:32:52Z</time>
      </trkpt>
      <trkpt lat="47.84794" lon="6.94657">
        <ele>1065</ele>
        <time>2023-05-08T10:33:04Z</time>
      </trkpt>
      <trkpt lat="47.84789" lon="6.9467">
        <ele>1064</ele>
        <time>2023-05-08T10:33:11Z</time>
      </trkpt>
      <trkpt lat="47.84788" lon="6.94684">
        <ele>1063</ele>
        <time>2023-05-08T10:33:17Z</time>
      </trkpt>
      <trkpt lat="47.84787" lon="6.94707">
        <ele>1060</ele>
        <time>2023-05-08T10:33:34Z</time>
      </trkpt>
      <trkpt lat="47.84784" lon="6.94716">
        <ele>1061</ele>
        <time>2023-05-08T10:33:41Z</time>
      </trkpt>
      <trkpt lat="47.84783" lon="6.94722">
        <ele>1061</ele>
        <time>2023-05-08T10:33:45Z</time>
      </trkpt>
      <trkpt lat="47.84784" lon="6.94731">
        <ele>1061</ele>
        <time>2023-05-08T10:33:52Z</time>
      </trkpt>
      <trkpt lat="47.84783" lon="6.94738">
        <ele>1060</ele>
        <time>2023-05-08T10:33:56Z</time>
      </trkpt>
      <trkpt lat="47.84783" lon="6.94745">
        <ele>1060</ele>
        <time>2023-05-08T10:34:00Z</time>
      </trkpt>
      <trkpt lat="47.84779" lon="6.94764">
        <ele>1059</ele>
        <time>2023-05-08T10:34:12Z</time>
      </trkpt>
      <trkpt lat="47.84776" lon="6.94771">
        <ele>1059</ele>
        <time>2023-05-08T10:34:16Z</time>
      </trkpt>
      <trkpt lat="47.84772" lon="6.94777">
        <ele>1059</ele>
        <time>2023-05-08T10:34:20Z</time>
      </trkpt>
      <trkpt lat="47.8477" lon="6.94784">
        <ele>1059</ele>
        <time>2023-05-08T10:34:25Z</time>
      </trkpt>
      <trkpt lat="47.84767" lon="6.94791">
        <ele>1058</ele>
        <time>2023-05-08T10:34:31Z</time>
      </trkpt>
      <trkpt lat="47.84763" lon="6.94793">
        <ele>1057</ele>
        <time>2023-05-08T10:34:35Z</time>
      </trkpt>
      <trkpt lat="47.84759" lon="6.94797">
        <ele>1057</ele>
        <time>2023-05-08T10:34:39Z</time>
      </trkpt>
      <trkpt lat="47.84755" lon="6.94805">
        <ele>1056</ele>
        <time>2023-05-08T10:34:44Z</time>
      </trkpt>
      <trkpt lat="47.84754" lon="6.94812">
        <ele>1056</ele>
        <time>2023-05-08T10:34:48Z</time>
      </trkpt>
      <trkpt lat="47.8475" lon="6.94817">
        <ele>1056</ele>
        <time>2023-05-08T10:34:51Z</time>
      </trkpt>
      <trkpt lat="47.84746" lon="6.9483">
        <ele>1055</ele>
        <time>2023-05-08T10:34:59Z</time>
      </trkpt>
      <trkpt lat="47.84744" lon="6.94836">
        <ele>1055</ele>
        <time>2023-05-08T10:35:02Z</time>
      </trkpt>
      <trkpt lat="47.84743" lon="6.94844">
        <ele>1056</ele>
        <time>2023-05-08T10:35:09Z</time>
      </trkpt>
      <trkpt lat="47.84743" lon="6.94851">
        <ele>1056</ele>
        <time>2023-05-08T10:35:13Z</time>
      </trkpt>
      <trkpt lat="47.84744" lon="6.94861">
        <ele>1055</ele>
        <time>2023-05-08T10:35:21Z</time>
      </trkpt>
      <trkpt lat="47.84747" lon="6.94866">
        <ele>1055</ele>
        <time>2023-05-08T10:35:25Z</time>
      </trkpt>
      <trkpt lat="47.84749" lon="6.94872">
        <ele>1054</ele>
        <time>2023-05-08T10:35:29Z</time>
      </trkpt>
      <trkpt lat="47.84748" lon="6.9488">
        <ele>1054</ele>
        <time>2023-05-08T10:35:34Z</time>
      </trkpt>
      <trkpt lat="47.8475" lon="6.94887">
        <ele>1055</ele>
        <time>2023-05-08T10:35:39Z</time>
      </trkpt>
      <trkpt lat="47.84751" lon="6.94894">
        <ele>1054</ele>
        <time>2023-05-08T10:35:43Z</time>
      </trkpt>
      <trkpt lat="47.8475" lon="6.94901">
        <ele>1053</ele>
        <time>2023-05-08T10:35:47Z</time>
      </trkpt>
      <trkpt lat="47.84747" lon="6.94907">
        <ele>1055</ele>
        <time>2023-05-08T10:35:55Z</time>
      </trkpt>
      <trkpt lat="47.84748" lon="6.94913">
        <ele>1055</ele>
        <time>2023-05-08T10:36:00Z</time>
      </trkpt>
      <trkpt lat="47.84751" lon="6.94925">
        <ele>1054</ele>
        <time>2023-05-08T10:36:08Z</time>
      </trkpt>
      <trkpt lat="47.84752" lon="6.94938">
        <ele>1055</ele>
        <time>2023-05-08T10:36:17Z</time>
      </trkpt>
      <trkpt lat="47.84754" lon="6.94952">
        <ele>1054</ele>
        <time>2023-05-08T10:36:24Z</time>
      </trkpt>
      <trkpt lat="47.84755" lon="6.94959">
        <ele>1054</ele>
        <time>2023-05-08T10:36:28Z</time>
      </trkpt>
      <trkpt lat="47.84754" lon="6.94979">
        <ele>1056</ele>
        <time>2023-05-08T10:36:42Z</time>
      </trkpt>
      <trkpt lat="47.84756" lon="6.94987">
        <ele>1056</ele>
        <time>2023-05-08T10:36:47Z</time>
      </trkpt>
      <trkpt lat="47.84758" lon="6.95001">
        <ele>1056</ele>
        <time>2023-05-08T10:36:55Z</time>
      </trkpt>
      <trkpt lat="47.84758" lon="6.95015">
        <ele>1055</ele>
        <time>2023-05-08T10:37:04Z</time>
      </trkpt>
      <trkpt lat="47.84756" lon="6.95022">
        <ele>1056</ele>
        <time>2023-05-08T10:37:08Z</time>
      </trkpt>
      <trkpt lat="47.84755" lon="6.95028">
        <ele>1055</ele>
        <time>2023-05-08T10:37:12Z</time>
      </trkpt>
      <trkpt lat="47.84754" lon="6.95036">
        <ele>1055</ele>
        <time>2023-05-08T10:37:16Z</time>
      </trkpt>
      <trkpt lat="47.84749" lon="6.95048">
        <ele>1055</ele>
        <time>2023-05-08T10:37:23Z</time>
      </trkpt>
      <trkpt lat="47.84749" lon="6.95055">
        <ele>1054</ele>
        <time>2023-05-08T10:37:27Z</time>
      </trkpt>
      <trkpt lat="47.84747" lon="6.95062">
        <ele>1054</ele>
        <time>2023-05-08T10:37:30Z</time>
      </trkpt>
      <trkpt lat="47.84744" lon="6.95067">
        <ele>1054</ele>
        <time>2023-05-08T10:37:34Z</time>
      </trkpt>
      <trkpt lat="47.84743" lon="6.95075">
        <ele>1054</ele>
        <time>2023-05-08T10:37:38Z</time>
      </trkpt>
      <trkpt lat="47.8474" lon="6.9508">
        <ele>1054</ele>
        <time>2023-05-08T10:37:42Z</time>
      </trkpt>
      <trkpt lat="47.84738" lon="6.95085">
        <ele>1054</ele>
        <time>2023-05-08T10:37:47Z</time>
      </trkpt>
      <trkpt lat="47.84735" lon="6.95094">
        <ele>1054</ele>
        <time>2023-05-08T10:37:55Z</time>
      </trkpt>
      <trkpt lat="47.84723" lon="6.9511">
        <ele>1053</ele>
        <time>2023-05-08T10:38:08Z</time>
      </trkpt>
      <trkpt lat="47.84721" lon="6.95119">
        <ele>1052</ele>
        <time>2023-05-08T10:38:15Z</time>
      </trkpt>
      <trkpt lat="47.84718" lon="6.95124">
        <ele>1051</ele>
        <time>2023-05-08T10:38:19Z</time>
      </trkpt>
      <trkpt lat="47.84715" lon="6.9513">
        <ele>1051</ele>
        <time>2023-05-08T10:38:23Z</time>
      </trkpt>
      <trkpt lat="47.84714" lon="6.95136">
        <ele>1051</ele>
        <time>2023-05-08T10:38:27Z</time>
      </trkpt>
      <trkpt lat="47.8471" lon="6.95142">
        <ele>1051</ele>
        <time>2023-05-08T10:38:31Z</time>
      </trkpt>
      <trkpt lat="47.84708" lon="6.95148">
        <ele>1052</ele>
        <time>2023-05-08T10:38:35Z</time>
      </trkpt>
      <trkpt lat="47.84705" lon="6.95153">
        <ele>1052</ele>
        <time>2023-05-08T10:38:40Z</time>
      </trkpt>
      <trkpt lat="47.84702" lon="6.95166">
        <ele>1053</ele>
        <time>2023-05-08T10:38:51Z</time>
      </trkpt>
      <trkpt lat="47.84699" lon="6.9517">
        <ele>1053</ele>
        <time>2023-05-08T10:38:55Z</time>
      </trkpt>
      <trkpt lat="47.84698" lon="6.95184">
        <ele>1053</ele>
        <time>2023-05-08T10:39:04Z</time>
      </trkpt>
      <trkpt lat="47.84701" lon="6.95191">
        <ele>1053</ele>
        <time>2023-05-08T10:39:09Z</time>
      </trkpt>
      <trkpt lat="47.84703" lon="6.95197">
        <ele>1053</ele>
        <time>2023-05-08T10:39:13Z</time>
      </trkpt>
      <trkpt lat="47.84702" lon="6.95204">
        <ele>1054</ele>
        <time>2023-05-08T10:39:18Z</time>
      </trkpt>
      <trkpt lat="47.84701" lon="6.95211">
        <ele>1055</ele>
        <time>2023-05-08T10:39:23Z</time>
      </trkpt>
      <trkpt lat="47.847" lon="6.95218">
        <ele>1055</ele>
        <time>2023-05-08T10:39:27Z</time>
      </trkpt>
      <trkpt lat="47.84699" lon="6.95234">
        <ele>1054</ele>
        <time>2023-05-08T10:39:36Z</time>
      </trkpt>
      <trkpt lat="47.84699" lon="6.9525">
        <ele>1055</ele>
        <time>2023-05-08T10:39:45Z</time>
      </trkpt>
      <trkpt lat="47.84696" lon="6.95259">
        <ele>1055</ele>
        <time>2023-05-08T10:39:52Z</time>
      </trkpt>
      <trkpt lat="47.84695" lon="6.95275">
        <ele>1056</ele>
        <time>2023-05-08T10:40:00Z</time>
      </trkpt>
      <trkpt lat="47.84693" lon="6.95282">
        <ele>1056</ele>
        <time>2023-05-08T10:40:04Z</time>
      </trkpt>
      <trkpt lat="47.84693" lon="6.9529">
        <ele>1056</ele>
        <time>2023-05-08T10:40:09Z</time>
      </trkpt>
      <trkpt lat="47.84692" lon="6.95296">
        <ele>1056</ele>
        <time>2023-05-08T10:40:12Z</time>
      </trkpt>
      <trkpt lat="47.84693" lon="6.95303">
        <ele>1056</ele>
        <time>2023-05-08T10:40:17Z</time>
      </trkpt>
      <trkpt lat="47.84693" lon="6.9531">
        <ele>1055</ele>
        <time>2023-05-08T10:40:22Z</time>
      </trkpt>
      <trkpt lat="47.8469" lon="6.95319">
        <ele>1057</ele>
        <time>2023-05-08T10:40:30Z</time>
      </trkpt>
      <trkpt lat="47.84688" lon="6.95325">
        <ele>1057</ele>
        <time>2023-05-08T10:40:34Z</time>
      </trkpt>
      <trkpt lat="47.84684" lon="6.9533">
        <ele>1057</ele>
        <time>2023-05-08T10:40:39Z</time>
      </trkpt>
      <trkpt lat="47.84683" lon="6.95337">
        <ele>1057</ele>
        <time>2023-05-08T10:40:43Z</time>
      </trkpt>
      <trkpt lat="47.84683" lon="6.95343">
        <ele>1057</ele>
        <time>2023-05-08T10:40:47Z</time>
      </trkpt>
      <trkpt lat="47.8468" lon="6.95357">
        <ele>1055</ele>
        <time>2023-05-08T10:40:58Z</time>
      </trkpt>
      <trkpt lat="47.84674" lon="6.95373">
        <ele>1056</ele>
        <time>2023-05-08T10:41:09Z</time>
      </trkpt>
      <trkpt lat="47.84673" lon="6.95381">
        <ele>1056</ele>
        <time>2023-05-08T10:41:13Z</time>
      </trkpt>
      <trkpt lat="47.84673" lon="6.95409">
        <ele>1059</ele>
        <time>2023-05-08T10:41:31Z</time>
      </trkpt>
      <trkpt lat="47.84669" lon="6.95438">
        <ele>1061</ele>
        <time>2023-05-08T10:41:49Z</time>
      </trkpt>
      <trkpt lat="47.84667" lon="6.95444">
        <ele>1062</ele>
        <time>2023-05-08T10:41:53Z</time>
      </trkpt>
      <trkpt lat="47.84674" lon="6.95477">
        <ele>1066</ele>
        <time>2023-05-08T10:42:18Z</time>
      </trkpt>
      <trkpt lat="47.84675" lon="6.95484">
        <ele>1066</ele>
        <time>2023-05-08T10:42:23Z</time>
      </trkpt>
      <trkpt lat="47.84675" lon="6.95506">
        <ele>1069</ele>
        <time>2023-05-08T10:42:40Z</time>
      </trkpt>
      <trkpt lat="47.84676" lon="6.95526">
        <ele>1071</ele>
        <time>2023-05-08T10:42:56Z</time>
      </trkpt>
      <trkpt lat="47.84676" lon="6.95539">
        <ele>1072</ele>
        <time>2023-05-08T10:43:08Z</time>
      </trkpt>
      <trkpt lat="47.84674" lon="6.95548">
        <ele>1072</ele>
        <time>2023-05-08T10:43:13Z</time>
      </trkpt>
      <trkpt lat="47.84674" lon="6.95562">
        <ele>1072</ele>
        <time>2023-05-08T10:43:21Z</time>
      </trkpt>
      <trkpt lat="47.84673" lon="6.95574">
        <ele>1073</ele>
        <time>2023-05-08T10:43:29Z</time>
      </trkpt>
      <trkpt lat="47.84675" lon="6.9558">
        <ele>1073</ele>
        <time>2023-05-08T10:43:33Z</time>
      </trkpt>
      <trkpt lat="47.84673" lon="6.95605">
        <ele>1074</ele>
        <time>2023-05-08T10:43:48Z</time>
      </trkpt>
      <trkpt lat="47.84675" lon="6.95611">
        <ele>1074</ele>
        <time>2023-05-08T10:43:52Z</time>
      </trkpt>
      <trkpt lat="47.84682" lon="6.95631">
        <ele>1073</ele>
        <time>2023-05-08T10:44:05Z</time>
      </trkpt>
      <trkpt lat="47.84685" lon="6.95648">
        <ele>1073</ele>
        <time>2023-05-08T10:44:16Z</time>
      </trkpt>
      <trkpt lat="47.84687" lon="6.95653">
        <ele>1073</ele>
        <time>2023-05-08T10:44:21Z</time>
      </trkpt>
      <trkpt lat="47.84691" lon="6.95667">
        <ele>1071</ele>
        <time>2023-05-08T10:44:30Z</time>
      </trkpt>
      <trkpt lat="47.84694" lon="6.95674">
        <ele>1071</ele>
        <time>2023-05-08T10:44:35Z</time>
      </trkpt>
      <trkpt lat="47.84695" lon="6.9568">
        <ele>1071</ele>
        <time>2023-05-08T10:44:39Z</time>
      </trkpt>
      <trkpt lat="47.84699" lon="6.95684">
        <ele>1070</ele>
        <time>2023-05-08T10:44:47Z</time>
      </trkpt>
      <trkpt lat="47.847" lon="6.95696">
        <ele>1070</ele>
        <time>2023-05-08T10:44:58Z</time>
      </trkpt>
      <trkpt lat="47.847" lon="6.95704">
        <ele>1070</ele>
        <time>2023-05-08T10:45:13Z</time>
      </trkpt>
      <trkpt lat="47.847" lon="6.95712">
        <ele>1070</ele>
        <time>2023-05-08T10:45:17Z</time>
      </trkpt>
      <trkpt lat="47.84702" lon="6.9572">
        <ele>1071</ele>
        <time>2023-05-08T10:45:22Z</time>
      </trkpt>
      <trkpt lat="47.84714" lon="6.95754">
        <ele>1067</ele>
        <time>2023-05-08T10:45:42Z</time>
      </trkpt>
      <trkpt lat="47.84723" lon="6.95771">
        <ele>1068</ele>
        <time>2023-05-08T10:45:54Z</time>
      </trkpt>
      <trkpt lat="47.84724" lon="6.95782">
        <ele>1069</ele>
        <time>2023-05-08T10:46:02Z</time>
      </trkpt>
      <trkpt lat="47.84728" lon="6.95787">
        <ele>1069</ele>
        <time>2023-05-08T10:46:07Z</time>
      </trkpt>
      <trkpt lat="47.84732" lon="6.95792">
        <ele>1069</ele>
        <time>2023-05-08T10:46:11Z</time>
      </trkpt>
      <trkpt lat="47.84741" lon="6.95812">
        <ele>1068</ele>
        <time>2023-05-08T10:46:26Z</time>
      </trkpt>
      <trkpt lat="47.84745" lon="6.95818">
        <ele>1067</ele>
        <time>2023-05-08T10:46:33Z</time>
      </trkpt>
      <trkpt lat="47.84745" lon="6.95824">
        <ele>1066</ele>
        <time>2023-05-08T10:46:36Z</time>
      </trkpt>
      <trkpt lat="47.84746" lon="6.95832">
        <ele>1066</ele>
        <time>2023-05-08T10:46:43Z</time>
      </trkpt>
      <trkpt lat="47.8475" lon="6.95846">
        <ele>1065</ele>
        <time>2023-05-08T10:46:51Z</time>
      </trkpt>
      <trkpt lat="47.84751" lon="6.95852">
        <ele>1065</ele>
        <time>2023-05-08T10:46:55Z</time>
      </trkpt>
      <trkpt lat="47.84754" lon="6.95863">
        <ele>1065</ele>
        <time>2023-05-08T10:47:03Z</time>
      </trkpt>
      <trkpt lat="47.84754" lon="6.95871">
        <ele>1065</ele>
        <time>2023-05-08T10:47:09Z</time>
      </trkpt>
      <trkpt lat="47.84756" lon="6.95877">
        <ele>1065</ele>
        <time>2023-05-08T10:47:20Z</time>
      </trkpt>
      <trkpt lat="47.84753" lon="6.95885">
        <ele>1065</ele>
        <time>2023-05-08T10:47:31Z</time>
      </trkpt>
      <trkpt lat="47.84751" lon="6.95891">
        <ele>1064</ele>
        <time>2023-05-08T10:47:36Z</time>
      </trkpt>
      <trkpt lat="47.84747" lon="6.95897">
        <ele>1063</ele>
        <time>2023-05-08T10:47:45Z</time>
      </trkpt>
      <trkpt lat="47.84742" lon="6.95898">
        <ele>1060</ele>
        <time>2023-05-08T10:48:09Z</time>
      </trkpt>
      <trkpt lat="47.84737" lon="6.959">
        <ele>1060</ele>
        <time>2023-05-08T10:48:13Z</time>
      </trkpt>
      <trkpt lat="47.84733" lon="6.95903">
        <ele>1061</ele>
        <time>2023-05-08T10:48:18Z</time>
      </trkpt>
      <trkpt lat="47.84727" lon="6.95905">
        <ele>1060</ele>
        <time>2023-05-08T10:48:23Z</time>
      </trkpt>
      <trkpt lat="47.84711" lon="6.95917">
        <ele>1057</ele>
        <time>2023-05-08T10:48:43Z</time>
      </trkpt>
      <trkpt lat="47.84706" lon="6.95916">
        <ele>1057</ele>
        <time>2023-05-08T10:48:47Z</time>
      </trkpt>
      <trkpt lat="47.84702" lon="6.95918">
        <ele>1057</ele>
        <time>2023-05-08T10:48:50Z</time>
      </trkpt>
      <trkpt lat="47.84694" lon="6.9592">
        <ele>1059</ele>
        <time>2023-05-08T10:49:00Z</time>
      </trkpt>
      <trkpt lat="47.8469" lon="6.95919">
        <ele>1059</ele>
        <time>2023-05-08T10:49:04Z</time>
      </trkpt>
      <trkpt lat="47.84685" lon="6.95922">
        <ele>1059</ele>
        <time>2023-05-08T10:49:07Z</time>
      </trkpt>
      <trkpt lat="47.84681" lon="6.95923">
        <ele>1059</ele>
        <time>2023-05-08T10:49:11Z</time>
      </trkpt>
      <trkpt lat="47.84671" lon="6.95928">
        <ele>1059</ele>
        <time>2023-05-08T10:49:19Z</time>
      </trkpt>
      <trkpt lat="47.84668" lon="6.95932">
        <ele>1060</ele>
        <time>2023-05-08T10:49:24Z</time>
      </trkpt>
      <trkpt lat="47.84663" lon="6.95935">
        <ele>1059</ele>
        <time>2023-05-08T10:49:28Z</time>
      </trkpt>
      <trkpt lat="47.84658" lon="6.95939">
        <ele>1059</ele>
        <time>2023-05-08T10:49:32Z</time>
      </trkpt>
      <trkpt lat="47.84647" lon="6.95947">
        <ele>1060</ele>
        <time>2023-05-08T10:49:45Z</time>
      </trkpt>
      <trkpt lat="47.84646" lon="6.95955">
        <ele>1059</ele>
        <time>2023-05-08T10:49:50Z</time>
      </trkpt>
      <trkpt lat="47.84643" lon="6.9596">
        <ele>1058</ele>
        <time>2023-05-08T10:49:54Z</time>
      </trkpt>
      <trkpt lat="47.8464" lon="6.95965">
        <ele>1058</ele>
        <time>2023-05-08T10:49:57Z</time>
      </trkpt>
      <trkpt lat="47.84636" lon="6.9597">
        <ele>1058</ele>
        <time>2023-05-08T10:50:00Z</time>
      </trkpt>
      <trkpt lat="47.84632" lon="6.95976">
        <ele>1059</ele>
        <time>2023-05-08T10:50:06Z</time>
      </trkpt>
      <trkpt lat="47.84629" lon="6.95984">
        <ele>1058</ele>
        <time>2023-05-08T10:50:12Z</time>
      </trkpt>
      <trkpt lat="47.84625" lon="6.95988">
        <ele>1058</ele>
        <time>2023-05-08T10:50:16Z</time>
      </trkpt>
      <trkpt lat="47.84622" lon="6.95993">
        <ele>1058</ele>
        <time>2023-05-08T10:50:20Z</time>
      </trkpt>
      <trkpt lat="47.84619" lon="6.96">
        <ele>1057</ele>
        <time>2023-05-08T10:50:30Z</time>
      </trkpt>
      <trkpt lat="47.84614" lon="6.96014">
        <ele>1056</ele>
        <time>2023-05-08T10:50:40Z</time>
      </trkpt>
      <trkpt lat="47.8461" lon="6.9602">
        <ele>1055</ele>
        <time>2023-05-08T10:50:44Z</time>
      </trkpt>
      <trkpt lat="47.84609" lon="6.96026">
        <ele>1054</ele>
        <time>2023-05-08T10:50:48Z</time>
      </trkpt>
      <trkpt lat="47.84597" lon="6.96048">
        <ele>1053</ele>
        <time>2023-05-08T10:51:03Z</time>
      </trkpt>
      <trkpt lat="47.8458" lon="6.96059">
        <ele>1052</ele>
        <time>2023-05-08T10:51:19Z</time>
      </trkpt>
      <trkpt lat="47.84575" lon="6.96061">
        <ele>1051</ele>
        <time>2023-05-08T10:51:23Z</time>
      </trkpt>
      <trkpt lat="47.84539" lon="6.96083">
        <ele>1047</ele>
        <time>2023-05-08T10:51:55Z</time>
      </trkpt>
      <trkpt lat="47.84535" lon="6.96086">
        <ele>1046</ele>
        <time>2023-05-08T10:51:59Z</time>
      </trkpt>
      <trkpt lat="47.84527" lon="6.96086">
        <ele>1044</ele>
        <time>2023-05-08T10:52:08Z</time>
      </trkpt>
      <trkpt lat="47.84517" lon="6.96093">
        <ele>1043</ele>
        <time>2023-05-08T10:52:15Z</time>
      </trkpt>
      <trkpt lat="47.84514" lon="6.96099">
        <ele>1042</ele>
        <time>2023-05-08T10:52:19Z</time>
      </trkpt>
      <trkpt lat="47.84504" lon="6.96104">
        <ele>1041</ele>
        <time>2023-05-08T10:52:27Z</time>
      </trkpt>
      <trkpt lat="47.84488" lon="6.96119">
        <ele>1039</ele>
        <time>2023-05-08T10:52:43Z</time>
      </trkpt>
      <trkpt lat="47.84469" lon="6.96161">
        <ele>1035</ele>
        <time>2023-05-08T10:53:14Z</time>
      </trkpt>
      <trkpt lat="47.84452" lon="6.962">
        <ele>1031</ele>
        <time>2023-05-08T10:53:44Z</time>
      </trkpt>
      <trkpt lat="47.84433" lon="6.96246">
        <ele>1025</ele>
        <time>2023-05-08T10:54:16Z</time>
      </trkpt>
      <trkpt lat="47.84424" lon="6.96268">
        <ele>1023</ele>
        <time>2023-05-08T10:54:33Z</time>
      </trkpt>
      <trkpt lat="47.84416" lon="6.9628">
        <ele>1022</ele>
        <time>2023-05-08T10:54:43Z</time>
      </trkpt>
      <trkpt lat="47.84413" lon="6.9629">
        <ele>1022</ele>
        <time>2023-05-08T10:54:50Z</time>
      </trkpt>
      <trkpt lat="47.84397" lon="6.96327">
        <ele>1018</ele>
        <time>2023-05-08T10:55:22Z</time>
      </trkpt>
      <trkpt lat="47.84388" lon="6.96369">
        <ele>1015</ele>
        <time>2023-05-08T10:55:54Z</time>
      </trkpt>
      <trkpt lat="47.84385" lon="6.96375">
        <ele>1014</ele>
        <time>2023-05-08T10:55:59Z</time>
      </trkpt>
      <trkpt lat="47.84384" lon="6.9639">
        <ele>1013</ele>
        <time>2023-05-08T10:56:10Z</time>
      </trkpt>
      <trkpt lat="47.84384" lon="6.96396">
        <ele>1012</ele>
        <time>2023-05-08T10:56:16Z</time>
      </trkpt>
      <trkpt lat="47.84382" lon="6.96402">
        <ele>1012</ele>
        <time>2023-05-08T10:56:21Z</time>
      </trkpt>
      <trkpt lat="47.84376" lon="6.9644">
        <ele>1009</ele>
        <time>2023-05-08T10:56:47Z</time>
      </trkpt>
      <trkpt lat="47.84373" lon="6.9645">
        <ele>1008</ele>
        <time>2023-05-08T10:56:55Z</time>
      </trkpt>
      <trkpt lat="47.84373" lon="6.96458">
        <ele>1008</ele>
        <time>2023-05-08T10:57:02Z</time>
      </trkpt>
      <trkpt lat="47.84363" lon="6.96491">
        <ele>1005</ele>
        <time>2023-05-08T10:57:25Z</time>
      </trkpt>
      <trkpt lat="47.84363" lon="6.965">
        <ele>1004</ele>
        <time>2023-05-08T10:57:31Z</time>
      </trkpt>
      <trkpt lat="47.84358" lon="6.96506">
        <ele>1003</ele>
        <time>2023-05-08T10:57:39Z</time>
      </trkpt>
      <trkpt lat="47.84355" lon="6.96512">
        <ele>1002</ele>
        <time>2023-05-08T10:57:45Z</time>
      </trkpt>
      <trkpt lat="47.84344" lon="6.96521">
        <ele>1000</ele>
        <time>2023-05-08T10:57:57Z</time>
      </trkpt>
      <trkpt lat="47.84341" lon="6.96526">
        <ele>999</ele>
        <time>2023-05-08T10:58:02Z</time>
      </trkpt>
      <trkpt lat="47.84326" lon="6.96537">
        <ele>996</ele>
        <time>2023-05-08T10:58:19Z</time>
      </trkpt>
      <trkpt lat="47.84318" lon="6.96544">
        <ele>995</ele>
        <time>2023-05-08T10:58:26Z</time>
      </trkpt>
      <trkpt lat="47.84301" lon="6.96554">
        <ele>994</ele>
        <time>2023-05-08T10:58:40Z</time>
      </trkpt>
      <trkpt lat="47.84296" lon="6.96558">
        <ele>994</ele>
        <time>2023-05-08T10:58:46Z</time>
      </trkpt>
      <trkpt lat="47.84275" lon="6.9657">
        <ele>992</ele>
        <time>2023-05-08T10:59:06Z</time>
      </trkpt>
      <trkpt lat="47.84263" lon="6.96577">
        <ele>991</ele>
        <time>2023-05-08T10:59:21Z</time>
      </trkpt>
      <trkpt lat="47.84254" lon="6.96583">
        <ele>990</ele>
        <time>2023-05-08T10:59:29Z</time>
      </trkpt>
      <trkpt lat="47.8425" lon="6.96587">
        <ele>990</ele>
        <time>2023-05-08T10:59:32Z</time>
      </trkpt>
      <trkpt lat="47.84243" lon="6.96596">
        <ele>991</ele>
        <time>2023-05-08T10:59:40Z</time>
      </trkpt>
      <trkpt lat="47.84238" lon="6.96599">
        <ele>991</ele>
        <time>2023-05-08T10:59:45Z</time>
      </trkpt>
      <trkpt lat="47.84233" lon="6.96602">
        <ele>992</ele>
        <time>2023-05-08T10:59:53Z</time>
      </trkpt>
      <trkpt lat="47.84228" lon="6.96605">
        <ele>992</ele>
        <time>2023-05-08T11:00:01Z</time>
      </trkpt>
      <trkpt lat="47.84221" lon="6.96609">
        <ele>993</ele>
        <time>2023-05-08T11:00:09Z</time>
      </trkpt>
      <trkpt lat="47.84209" lon="6.96619">
        <ele>995</ele>
        <time>2023-05-08T11:00:28Z</time>
      </trkpt>
      <trkpt lat="47.84206" lon="6.96626">
        <ele>996</ele>
        <time>2023-05-08T11:00:33Z</time>
      </trkpt>
      <trkpt lat="47.842" lon="6.96637">
        <ele>997</ele>
        <time>2023-05-08T11:00:45Z</time>
      </trkpt>
      <trkpt lat="47.84189" lon="6.96644">
        <ele>999</ele>
        <time>2023-05-08T11:00:59Z</time>
      </trkpt>
      <trkpt lat="47.84186" lon="6.96662">
        <ele>1002</ele>
        <time>2023-05-08T11:01:18Z</time>
      </trkpt>
      <trkpt lat="47.84179" lon="6.96694">
        <ele>1003</ele>
        <time>2023-05-08T11:01:41Z</time>
      </trkpt>
      <trkpt lat="47.84177" lon="6.96707">
        <ele>1002</ele>
        <time>2023-05-08T11:01:49Z</time>
      </trkpt>
      <trkpt lat="47.84174" lon="6.96713">
        <ele>1002</ele>
        <time>2023-05-08T11:01:54Z</time>
      </trkpt>
      <trkpt lat="47.84172" lon="6.96719">
        <ele>1002</ele>
        <time>2023-05-08T11:01:58Z</time>
      </trkpt>
      <trkpt lat="47.84169" lon="6.96727">
        <ele>1002</ele>
        <time>2023-05-08T11:02:04Z</time>
      </trkpt>
      <trkpt lat="47.84153" lon="6.96786">
        <ele>998</ele>
        <time>2023-05-08T11:02:37Z</time>
      </trkpt>
      <trkpt lat="47.84151" lon="6.96793">
        <ele>998</ele>
        <time>2023-05-08T11:02:41Z</time>
      </trkpt>
      <trkpt lat="47.84144" lon="6.96814">
        <ele>997</ele>
        <time>2023-05-08T11:02:54Z</time>
      </trkpt>
      <trkpt lat="47.84139" lon="6.96843">
        <ele>996</ele>
        <time>2023-05-08T11:03:12Z</time>
      </trkpt>
      <trkpt lat="47.84139" lon="6.9687">
        <ele>994</ele>
        <time>2023-05-08T11:03:28Z</time>
      </trkpt>
      <trkpt lat="47.84128" lon="6.96916">
        <ele>990</ele>
        <time>2023-05-08T11:03:58Z</time>
      </trkpt>
      <trkpt lat="47.84125" lon="6.96961">
        <ele>988</ele>
        <time>2023-05-08T11:04:23Z</time>
      </trkpt>
      <trkpt lat="47.84122" lon="6.96974">
        <ele>987</ele>
        <time>2023-05-08T11:04:30Z</time>
      </trkpt>
      <trkpt lat="47.84119" lon="6.96996">
        <ele>985</ele>
        <time>2023-05-08T11:04:44Z</time>
      </trkpt>
      <trkpt lat="47.84119" lon="6.97007">
        <ele>984</ele>
        <time>2023-05-08T11:04:52Z</time>
      </trkpt>
      <trkpt lat="47.84118" lon="6.97013">
        <ele>983</ele>
        <time>2023-05-08T11:04:57Z</time>
      </trkpt>
      <trkpt lat="47.8412" lon="6.97027">
        <ele>982</ele>
        <time>2023-05-08T11:05:05Z</time>
      </trkpt>
      <trkpt lat="47.84119" lon="6.97085">
        <ele>978</ele>
        <time>2023-05-08T11:05:37Z</time>
      </trkpt>
      <trkpt lat="47.84115" lon="6.97127">
        <ele>977</ele>
        <time>2023-05-08T11:06:03Z</time>
      </trkpt>
      <trkpt lat="47.84112" lon="6.97148">
        <ele>976</ele>
        <time>2023-05-08T11:06:15Z</time>
      </trkpt>
      <trkpt lat="47.84114" lon="6.97192">
        <ele>974</ele>
        <time>2023-05-08T11:06:39Z</time>
      </trkpt>
      <trkpt lat="47.84113" lon="6.97213">
        <ele>973</ele>
        <time>2023-05-08T11:06:51Z</time>
      </trkpt>
      <trkpt lat="47.84115" lon="6.97255">
        <ele>972</ele>
        <time>2023-05-08T11:07:15Z</time>
      </trkpt>
      <trkpt lat="47.84116" lon="6.9727">
        <ele>972</ele>
        <time>2023-05-08T11:07:23Z</time>
      </trkpt>
      <trkpt lat="47.8412" lon="6.97297">
        <ele>971</ele>
        <time>2023-05-08T11:07:39Z</time>
      </trkpt>
      <trkpt lat="47.84121" lon="6.97326">
        <ele>969</ele>
        <time>2023-05-08T11:07:56Z</time>
      </trkpt>
      <trkpt lat="47.8413" lon="6.97367">
        <ele>966</ele>
        <time>2023-05-08T11:08:23Z</time>
      </trkpt>
      <trkpt lat="47.84143" lon="6.97409">
        <ele>965</ele>
        <time>2023-05-08T11:08:46Z</time>
      </trkpt>
      <trkpt lat="47.84151" lon="6.97427">
        <ele>963</ele>
        <time>2023-05-08T11:08:57Z</time>
      </trkpt>
      <trkpt lat="47.84154" lon="6.97441">
        <ele>963</ele>
        <time>2023-05-08T11:09:05Z</time>
      </trkpt>
      <trkpt lat="47.84163" lon="6.97458">
        <ele>962</ele>
        <time>2023-05-08T11:09:15Z</time>
      </trkpt>
      <trkpt lat="47.84172" lon="6.97492">
        <ele>959</ele>
        <time>2023-05-08T11:09:34Z</time>
      </trkpt>
      <trkpt lat="47.84173" lon="6.97506">
        <ele>959</ele>
        <time>2023-05-08T11:09:42Z</time>
      </trkpt>
      <trkpt lat="47.84175" lon="6.97514">
        <ele>958</ele>
        <time>2023-05-08T11:09:46Z</time>
      </trkpt>
      <trkpt lat="47.8418" lon="6.97525">
        <ele>958</ele>
        <time>2023-05-08T11:09:53Z</time>
      </trkpt>
      <trkpt lat="47.8419" lon="6.97552">
        <ele>958</ele>
        <time>2023-05-08T11:10:09Z</time>
      </trkpt>
      <trkpt lat="47.84191" lon="6.97559">
        <ele>958</ele>
        <time>2023-05-08T11:10:13Z</time>
      </trkpt>
      <trkpt lat="47.84198" lon="6.97577">
        <ele>957</ele>
        <time>2023-05-08T11:10:25Z</time>
      </trkpt>
      <trkpt lat="47.842" lon="6.97591">
        <ele>957</ele>
        <time>2023-05-08T11:10:33Z</time>
      </trkpt>
      <trkpt lat="47.84203" lon="6.97596">
        <ele>956</ele>
        <time>2023-05-08T11:10:37Z</time>
      </trkpt>
      <trkpt lat="47.84204" lon="6.97618">
        <ele>955</ele>
        <time>2023-05-08T11:10:49Z</time>
      </trkpt>
      <trkpt lat="47.842" lon="6.9766">
        <ele>954</ele>
        <time>2023-05-08T11:11:11Z</time>
      </trkpt>
      <trkpt lat="47.84204" lon="6.97674">
        <ele>952</ele>
        <time>2023-05-08T11:11:18Z</time>
      </trkpt>
      <trkpt lat="47.84204" lon="6.97681">
        <ele>951</ele>
        <time>2023-05-08T11:11:21Z</time>
      </trkpt>
      <trkpt lat="47.84203" lon="6.97688">
        <ele>950</ele>
        <time>2023-05-08T11:11:25Z</time>
      </trkpt>
      <trkpt lat="47.84196" lon="6.97699">
        <ele>950</ele>
        <time>2023-05-08T11:11:31Z</time>
      </trkpt>
      <trkpt lat="47.84188" lon="6.97725">
        <ele>950</ele>
        <time>2023-05-08T11:11:47Z</time>
      </trkpt>
      <trkpt lat="47.84184" lon="6.97741">
        <ele>949</ele>
        <time>2023-05-08T11:11:58Z</time>
      </trkpt>
      <trkpt lat="47.84185" lon="6.97769">
        <ele>948</ele>
        <time>2023-05-08T11:12:14Z</time>
      </trkpt>
      <trkpt lat="47.8419" lon="6.97779">
        <ele>948</ele>
        <time>2023-05-08T11:12:23Z</time>
      </trkpt>
      <trkpt lat="47.84192" lon="6.9781">
        <ele>947</ele>
        <time>2023-05-08T11:12:40Z</time>
      </trkpt>
      <trkpt lat="47.84189" lon="6.97813">
        <ele>948</ele>
        <time>2023-05-08T11:12:48Z</time>
      </trkpt>
      <trkpt lat="47.84185" lon="6.97822">
        <ele>949</ele>
        <time>2023-05-08T11:13:05Z</time>
      </trkpt>
      <trkpt lat="47.84183" lon="6.97837">
        <ele>949</ele>
        <time>2023-05-08T11:13:17Z</time>
      </trkpt>
      <trkpt lat="47.84174" lon="6.97889">
        <ele>953</ele>
        <time>2023-05-08T11:13:55Z</time>
      </trkpt>
      <trkpt lat="47.84171" lon="6.97901">
        <ele>955</ele>
        <time>2023-05-08T11:14:03Z</time>
      </trkpt>
      <trkpt lat="47.84168" lon="6.9791">
        <ele>956</ele>
        <time>2023-05-08T11:14:11Z</time>
      </trkpt>
      <trkpt lat="47.84167" lon="6.97927">
        <ele>958</ele>
        <time>2023-05-08T11:14:28Z</time>
      </trkpt>
      <trkpt lat="47.84163" lon="6.97935">
        <ele>959</ele>
        <time>2023-05-08T11:14:34Z</time>
      </trkpt>
      <trkpt lat="47.84152" lon="6.97969">
        <ele>964</ele>
        <time>2023-05-08T11:15:08Z</time>
      </trkpt>
      <trkpt lat="47.8414" lon="6.97987">
        <ele>966</ele>
        <time>2023-05-08T11:15:22Z</time>
      </trkpt>
      <trkpt lat="47.84138" lon="6.97993">
        <ele>966</ele>
        <time>2023-05-08T11:15:27Z</time>
      </trkpt>
      <trkpt lat="47.84131" lon="6.98003">
        <ele>968</ele>
        <time>2023-05-08T11:15:37Z</time>
      </trkpt>
      <trkpt lat="47.84117" lon="6.98029">
        <ele>969</ele>
        <time>2023-05-08T11:15:58Z</time>
      </trkpt>
      <trkpt lat="47.8411" lon="6.9804">
        <ele>970</ele>
        <time>2023-05-08T11:16:07Z</time>
      </trkpt>
      <trkpt lat="47.84098" lon="6.98069">
        <ele>973</ele>
        <time>2023-05-08T11:16:31Z</time>
      </trkpt>
      <trkpt lat="47.84096" lon="6.98082">
        <ele>974</ele>
        <time>2023-05-08T11:16:41Z</time>
      </trkpt>
      <trkpt lat="47.84093" lon="6.98088">
        <ele>975</ele>
        <time>2023-05-08T11:16:46Z</time>
      </trkpt>
      <trkpt lat="47.84091" lon="6.98095">
        <ele>975</ele>
        <time>2023-05-08T11:16:50Z</time>
      </trkpt>
      <trkpt lat="47.84091" lon="6.98103">
        <ele>976</ele>
        <time>2023-05-08T11:16:55Z</time>
      </trkpt>
      <trkpt lat="47.8409" lon="6.98112">
        <ele>977</ele>
        <time>2023-05-08T11:17:02Z</time>
      </trkpt>
      <trkpt lat="47.8409" lon="6.98126">
        <ele>978</ele>
        <time>2023-05-08T11:17:10Z</time>
      </trkpt>
      <trkpt lat="47.84095" lon="6.98155">
        <ele>979</ele>
        <time>2023-05-08T11:17:29Z</time>
      </trkpt>
      <trkpt lat="47.84105" lon="6.98178">
        <ele>981</ele>
        <time>2023-05-08T11:17:45Z</time>
      </trkpt>
      <trkpt lat="47.84106" lon="6.98187">
        <ele>982</ele>
        <time>2023-05-08T11:17:50Z</time>
      </trkpt>
      <trkpt lat="47.84109" lon="6.98202">
        <ele>982</ele>
        <time>2023-05-08T11:17:59Z</time>
      </trkpt>
      <trkpt lat="47.84109" lon="6.98209">
        <ele>981</ele>
        <time>2023-05-08T11:18:03Z</time>
      </trkpt>
      <trkpt lat="47.84113" lon="6.98222">
        <ele>981</ele>
        <time>2023-05-08T11:18:09Z</time>
      </trkpt>
      <trkpt lat="47.84114" lon="6.98229">
        <ele>981</ele>
        <time>2023-05-08T11:18:13Z</time>
      </trkpt>
      <trkpt lat="47.84114" lon="6.98235">
        <ele>981</ele>
        <time>2023-05-08T11:18:16Z</time>
      </trkpt>
      <trkpt lat="47.84114" lon="6.98242">
        <ele>980</ele>
        <time>2023-05-08T11:18:20Z</time>
      </trkpt>
      <trkpt lat="47.84114" lon="6.98249">
        <ele>980</ele>
        <time>2023-05-08T11:18:24Z</time>
      </trkpt>
      <trkpt lat="47.84113" lon="6.98256">
        <ele>980</ele>
        <time>2023-05-08T11:18:28Z</time>
      </trkpt>
      <trkpt lat="47.84112" lon="6.9827">
        <ele>979</ele>
        <time>2023-05-08T11:18:37Z</time>
      </trkpt>
      <trkpt lat="47.8411" lon="6.9831">
        <ele>980</ele>
        <time>2023-05-08T11:19:01Z</time>
      </trkpt>
      <trkpt lat="47.84109" lon="6.98318">
        <ele>979</ele>
        <time>2023-05-08T11:19:05Z</time>
      </trkpt>
      <trkpt lat="47.84111" lon="6.98331">
        <ele>979</ele>
        <time>2023-05-08T11:19:13Z</time>
      </trkpt>
      <trkpt lat="47.84113" lon="6.98338">
        <ele>980</ele>
        <time>2023-05-08T11:19:18Z</time>
      </trkpt>
      <trkpt lat="47.84112" lon="6.98345">
        <ele>981</ele>
        <time>2023-05-08T11:19:22Z</time>
      </trkpt>
      <trkpt lat="47.84116" lon="6.98386">
        <ele>982</ele>
        <time>2023-05-08T11:19:45Z</time>
      </trkpt>
      <trkpt lat="47.84119" lon="6.98392">
        <ele>982</ele>
        <time>2023-05-08T11:19:50Z</time>
      </trkpt>
      <trkpt lat="47.84121" lon="6.98401">
        <ele>982</ele>
        <time>2023-05-08T11:19:57Z</time>
      </trkpt>
      <trkpt lat="47.84147" lon="6.98432">
        <ele>978</ele>
        <time>2023-05-08T11:20:25Z</time>
      </trkpt>
      <trkpt lat="47.84152" lon="6.98444">
        <ele>977</ele>
        <time>2023-05-08T11:20:33Z</time>
      </trkpt>
      <trkpt lat="47.84156" lon="6.98457">
        <ele>976</ele>
        <time>2023-05-08T11:20:41Z</time>
      </trkpt>
      <trkpt lat="47.84158" lon="6.98479">
        <ele>974</ele>
        <time>2023-05-08T11:20:54Z</time>
      </trkpt>
      <trkpt lat="47.84161" lon="6.98538">
        <ele>976</ele>
        <time>2023-05-08T11:21:27Z</time>
      </trkpt>
      <trkpt lat="47.84161" lon="6.98551">
        <ele>977</ele>
        <time>2023-05-08T11:21:35Z</time>
      </trkpt>
      <trkpt lat="47.84157" lon="6.9857">
        <ele>977</ele>
        <time>2023-05-08T11:21:46Z</time>
      </trkpt>
      <trkpt lat="47.84148" lon="6.98586">
        <ele>979</ele>
        <time>2023-05-08T11:21:58Z</time>
      </trkpt>
      <trkpt lat="47.84143" lon="6.9859">
        <ele>979</ele>
        <time>2023-05-08T11:22:02Z</time>
      </trkpt>
      <trkpt lat="47.84136" lon="6.98599">
        <ele>979</ele>
        <time>2023-05-08T11:22:10Z</time>
      </trkpt>
      <trkpt lat="47.84113" lon="6.98638">
        <ele>980</ele>
        <time>2023-05-08T11:22:38Z</time>
      </trkpt>
      <trkpt lat="47.84103" lon="6.98664">
        <ele>978</ele>
        <time>2023-05-08T11:22:56Z</time>
      </trkpt>
      <trkpt lat="47.84094" lon="6.9872">
        <ele>979</ele>
        <time>2023-05-08T11:23:28Z</time>
      </trkpt>
      <trkpt lat="47.84089" lon="6.9878">
        <ele>980</ele>
        <time>2023-05-08T11:23:59Z</time>
      </trkpt>
      <trkpt lat="47.84087" lon="6.98795">
        <ele>981</ele>
        <time>2023-05-08T11:24:07Z</time>
      </trkpt>
      <trkpt lat="47.84082" lon="6.98809">
        <ele>982</ele>
        <time>2023-05-08T11:24:17Z</time>
      </trkpt>
      <trkpt lat="47.84077" lon="6.9882">
        <ele>983</ele>
        <time>2023-05-08T11:24:25Z</time>
      </trkpt>
      <trkpt lat="47.84071" lon="6.98832">
        <ele>983</ele>
        <time>2023-05-08T11:24:33Z</time>
      </trkpt>
      <trkpt lat="47.84067" lon="6.98836">
        <ele>983</ele>
        <time>2023-05-08T11:24:37Z</time>
      </trkpt>
      <trkpt lat="47.84059" lon="6.98842">
        <ele>983</ele>
        <time>2023-05-08T11:24:44Z</time>
      </trkpt>
      <trkpt lat="47.84055" lon="6.98846">
        <ele>984</ele>
        <time>2023-05-08T11:24:48Z</time>
      </trkpt>
      <trkpt lat="47.84051" lon="6.98849">
        <ele>984</ele>
        <time>2023-05-08T11:24:52Z</time>
      </trkpt>
      <trkpt lat="47.84031" lon="6.98873">
        <ele>986</ele>
        <time>2023-05-08T11:25:18Z</time>
      </trkpt>
      <trkpt lat="47.84032" lon="6.9888">
        <ele>985</ele>
        <time>2023-05-08T11:26:22Z</time>
      </trkpt>
      <trkpt lat="47.84034" lon="6.98893">
        <ele>985</ele>
        <time>2023-05-08T11:26:30Z</time>
      </trkpt>
      <trkpt lat="47.84034" lon="6.989">
        <ele>985</ele>
        <time>2023-05-08T11:26:34Z</time>
      </trkpt>
      <trkpt lat="47.84032" lon="6.98909">
        <ele>985</ele>
        <time>2023-05-08T11:26:38Z</time>
      </trkpt>
      <trkpt lat="47.84029" lon="6.98912">
        <ele>985</ele>
        <time>2023-05-08T11:26:43Z</time>
      </trkpt>
      <trkpt lat="47.84026" lon="6.98919">
        <ele>985</ele>
        <time>2023-05-08T11:26:47Z</time>
      </trkpt>
      <trkpt lat="47.83995" lon="6.98938">
        <ele>985</ele>
        <time>2023-05-08T11:30:14Z</time>
      </trkpt>
      <trkpt lat="47.83972" lon="6.98948">
        <ele>987</ele>
        <time>2023-05-08T11:30:44Z</time>
      </trkpt>
      <trkpt lat="47.8394" lon="6.98944">
        <ele>989</ele>
        <time>2023-05-08T11:31:17Z</time>
      </trkpt>
      <trkpt lat="47.83905" lon="6.9894">
        <ele>991</ele>
        <time>2023-05-08T11:31:51Z</time>
      </trkpt>
      <trkpt lat="47.8389" lon="6.98943">
        <ele>992</ele>
        <time>2023-05-08T11:32:06Z</time>
      </trkpt>
      <trkpt lat="47.83872" lon="6.98956">
        <ele>994</ele>
        <time>2023-05-08T11:32:25Z</time>
      </trkpt>
      <trkpt lat="47.83847" lon="6.98977">
        <ele>997</ele>
        <time>2023-05-08T11:32:53Z</time>
      </trkpt>
      <trkpt lat="47.83833" lon="6.98981">
        <ele>998</ele>
        <time>2023-05-08T11:33:07Z</time>
      </trkpt>
      <trkpt lat="47.83829" lon="6.98981">
        <ele>998</ele>
        <time>2023-05-08T11:33:12Z</time>
      </trkpt>
      <trkpt lat="47.83802" lon="6.98967">
        <ele>1000</ele>
        <time>2023-05-08T11:33:43Z</time>
      </trkpt>
      <trkpt lat="47.8377" lon="6.98946">
        <ele>1002</ele>
        <time>2023-05-08T11:34:17Z</time>
      </trkpt>
      <trkpt lat="47.83743" lon="6.98942">
        <ele>1004</ele>
        <time>2023-05-08T11:34:43Z</time>
      </trkpt>
      <trkpt lat="47.83737" lon="6.98943">
        <ele>1005</ele>
        <time>2023-05-08T11:34:48Z</time>
      </trkpt>
      <trkpt lat="47.83713" lon="6.98956">
        <ele>1008</ele>
        <time>2023-05-08T11:35:19Z</time>
      </trkpt>
      <trkpt lat="47.83683" lon="6.9897">
        <ele>1010</ele>
        <time>2023-05-08T11:35:50Z</time>
      </trkpt>
      <trkpt lat="47.83678" lon="6.98973">
        <ele>1010</ele>
        <time>2023-05-08T11:35:55Z</time>
      </trkpt>
      <trkpt lat="47.83674" lon="6.98976">
        <ele>1011</ele>
        <time>2023-05-08T11:36:00Z</time>
      </trkpt>
      <trkpt lat="47.8367" lon="6.9898">
        <ele>1011</ele>
        <time>2023-05-08T11:36:15Z</time>
      </trkpt>
      <trkpt lat="47.83661" lon="6.98985">
        <ele>1012</ele>
        <time>2023-05-08T11:36:26Z</time>
      </trkpt>
      <trkpt lat="47.83657" lon="6.98989">
        <ele>1012</ele>
        <time>2023-05-08T11:36:29Z</time>
      </trkpt>
      <trkpt lat="47.83648" lon="6.99009">
        <ele>1013</ele>
        <time>2023-05-08T11:36:45Z</time>
      </trkpt>
      <trkpt lat="47.83647" lon="6.99015">
        <ele>1013</ele>
        <time>2023-05-08T11:36:48Z</time>
      </trkpt>
      <trkpt lat="47.83632" lon="6.99058">
        <ele>1016</ele>
        <time>2023-05-08T11:37:20Z</time>
      </trkpt>
      <trkpt lat="47.8363" lon="6.99065">
        <ele>1017</ele>
        <time>2023-05-08T11:37:25Z</time>
      </trkpt>
      <trkpt lat="47.83613" lon="6.99085">
        <ele>1019</ele>
        <time>2023-05-08T11:37:47Z</time>
      </trkpt>
      <trkpt lat="47.83584" lon="6.99113">
        <ele>1021</ele>
        <time>2023-05-08T11:38:22Z</time>
      </trkpt>
      <trkpt lat="47.83579" lon="6.99115">
        <ele>1022</ele>
        <time>2023-05-08T11:38:27Z</time>
      </trkpt>
      <trkpt lat="47.83548" lon="6.99146">
        <ele>1024</ele>
        <time>2023-05-08T11:39:03Z</time>
      </trkpt>
      <trkpt lat="47.83544" lon="6.99153">
        <ele>1025</ele>
        <time>2023-05-08T11:39:10Z</time>
      </trkpt>
      <trkpt lat="47.83538" lon="6.99169">
        <ele>1026</ele>
        <time>2023-05-08T11:39:21Z</time>
      </trkpt>
      <trkpt lat="47.83538" lon="6.99177">
        <ele>1026</ele>
        <time>2023-05-08T11:39:26Z</time>
      </trkpt>
      <trkpt lat="47.83529" lon="6.99222">
        <ele>1029</ele>
        <time>2023-05-08T11:39:57Z</time>
      </trkpt>
      <trkpt lat="47.83522" lon="6.99236">
        <ele>1030</ele>
        <time>2023-05-08T11:40:09Z</time>
      </trkpt>
      <trkpt lat="47.83503" lon="6.99243">
        <ele>1031</ele>
        <time>2023-05-08T11:40:26Z</time>
      </trkpt>
      <trkpt lat="47.83494" lon="6.99241">
        <ele>1032</ele>
        <time>2023-05-08T11:40:34Z</time>
      </trkpt>
      <trkpt lat="47.83485" lon="6.99246">
        <ele>1032</ele>
        <time>2023-05-08T11:40:43Z</time>
      </trkpt>
      <trkpt lat="47.83481" lon="6.99251">
        <ele>1032</ele>
        <time>2023-05-08T11:40:47Z</time>
      </trkpt>
      <trkpt lat="47.83476" lon="6.99265">
        <ele>1032</ele>
        <time>2023-05-08T11:41:00Z</time>
      </trkpt>
      <trkpt lat="47.83479" lon="6.99287">
        <ele>1033</ele>
        <time>2023-05-08T11:41:13Z</time>
      </trkpt>
      <trkpt lat="47.83478" lon="6.99333">
        <ele>1035</ele>
        <time>2023-05-08T11:41:43Z</time>
      </trkpt>
      <trkpt lat="47.83475" lon="6.99354">
        <ele>1036</ele>
        <time>2023-05-08T11:41:55Z</time>
      </trkpt>
      <trkpt lat="47.83475" lon="6.9936">
        <ele>1037</ele>
        <time>2023-05-08T11:41:59Z</time>
      </trkpt>
      <trkpt lat="47.83474" lon="6.99375">
        <ele>1038</ele>
        <time>2023-05-08T11:42:09Z</time>
      </trkpt>
      <trkpt lat="47.83472" lon="6.9939">
        <ele>1039</ele>
        <time>2023-05-08T11:42:18Z</time>
      </trkpt>
      <trkpt lat="47.83459" lon="6.99414">
        <ele>1041</ele>
        <time>2023-05-08T11:42:40Z</time>
      </trkpt>
      <trkpt lat="47.83428" lon="6.99424">
        <ele>1042</ele>
        <time>2023-05-08T11:43:10Z</time>
      </trkpt>
      <trkpt lat="47.8342" lon="6.99427">
        <ele>1043</ele>
        <time>2023-05-08T11:43:19Z</time>
      </trkpt>
      <trkpt lat="47.83415" lon="6.99427">
        <ele>1044</ele>
        <time>2023-05-08T11:43:29Z</time>
      </trkpt>
      <trkpt lat="47.83409" lon="6.99425">
        <ele>1044</ele>
        <time>2023-05-08T11:43:34Z</time>
      </trkpt>
      <trkpt lat="47.83392" lon="6.9943">
        <ele>1046</ele>
        <time>2023-05-08T11:43:52Z</time>
      </trkpt>
      <trkpt lat="47.83386" lon="6.99431">
        <ele>1046</ele>
        <time>2023-05-08T11:43:59Z</time>
      </trkpt>
      <trkpt lat="47.83382" lon="6.99435">
        <ele>1046</ele>
        <time>2023-05-08T11:44:04Z</time>
      </trkpt>
      <trkpt lat="47.83378" lon="6.99442">
        <ele>1047</ele>
        <time>2023-05-08T11:44:09Z</time>
      </trkpt>
      <trkpt lat="47.83376" lon="6.99448">
        <ele>1047</ele>
        <time>2023-05-08T11:44:12Z</time>
      </trkpt>
      <trkpt lat="47.83359" lon="6.9946">
        <ele>1049</ele>
        <time>2023-05-08T11:44:29Z</time>
      </trkpt>
      <trkpt lat="47.83355" lon="6.99466">
        <ele>1049</ele>
        <time>2023-05-08T11:44:35Z</time>
      </trkpt>
      <trkpt lat="47.83342" lon="6.99471">
        <ele>1050</ele>
        <time>2023-05-08T11:44:50Z</time>
      </trkpt>
      <trkpt lat="47.83335" lon="6.99484">
        <ele>1051</ele>
        <time>2023-05-08T11:45:01Z</time>
      </trkpt>
      <trkpt lat="47.83327" lon="6.99491">
        <ele>1052</ele>
        <time>2023-05-08T11:45:11Z</time>
      </trkpt>
      <trkpt lat="47.83314" lon="6.99497">
        <ele>1052</ele>
        <time>2023-05-08T11:45:22Z</time>
      </trkpt>
      <trkpt lat="47.83308" lon="6.99498">
        <ele>1053</ele>
        <time>2023-05-08T11:45:29Z</time>
      </trkpt>
      <trkpt lat="47.83302" lon="6.99501">
        <ele>1053</ele>
        <time>2023-05-08T11:45:39Z</time>
      </trkpt>
      <trkpt lat="47.83294" lon="6.99505">
        <ele>1054</ele>
        <time>2023-05-08T11:45:49Z</time>
      </trkpt>
      <trkpt lat="47.8329" lon="6.99512">
        <ele>1055</ele>
        <time>2023-05-08T11:45:57Z</time>
      </trkpt>
      <trkpt lat="47.83286" lon="6.99516">
        <ele>1055</ele>
        <time>2023-05-08T11:46:01Z</time>
      </trkpt>
      <trkpt lat="47.83274" lon="6.99519">
        <ele>1055</ele>
        <time>2023-05-08T11:46:11Z</time>
      </trkpt>
      <trkpt lat="47.8327" lon="6.99521">
        <ele>1055</ele>
        <time>2023-05-08T11:46:15Z</time>
      </trkpt>
      <trkpt lat="47.8325" lon="6.99538">
        <ele>1056</ele>
        <time>2023-05-08T11:46:35Z</time>
      </trkpt>
      <trkpt lat="47.83247" lon="6.99542">
        <ele>1057</ele>
        <time>2023-05-08T11:46:40Z</time>
      </trkpt>
      <trkpt lat="47.83239" lon="6.9955">
        <ele>1057</ele>
        <time>2023-05-08T11:46:48Z</time>
      </trkpt>
      <trkpt lat="47.83229" lon="6.99568">
        <ele>1058</ele>
        <time>2023-05-08T11:47:03Z</time>
      </trkpt>
      <trkpt lat="47.83224" lon="6.99582">
        <ele>1059</ele>
        <time>2023-05-08T11:47:13Z</time>
      </trkpt>
      <trkpt lat="47.8322" lon="6.99595">
        <ele>1060</ele>
        <time>2023-05-08T11:47:23Z</time>
      </trkpt>
      <trkpt lat="47.83216" lon="6.996">
        <ele>1061</ele>
        <time>2023-05-08T11:47:28Z</time>
      </trkpt>
      <trkpt lat="47.83214" lon="6.99605">
        <ele>1061</ele>
        <time>2023-05-08T11:47:32Z</time>
      </trkpt>
      <trkpt lat="47.83206" lon="6.99613">
        <ele>1061</ele>
        <time>2023-05-08T11:47:41Z</time>
      </trkpt>
      <trkpt lat="47.83182" lon="6.99657">
        <ele>1062</ele>
        <time>2023-05-08T11:48:15Z</time>
      </trkpt>
      <trkpt lat="47.83179" lon="6.99662">
        <ele>1062</ele>
        <time>2023-05-08T11:48:19Z</time>
      </trkpt>
      <trkpt lat="47.83169" lon="6.99698">
        <ele>1066</ele>
        <time>2023-05-08T11:48:50Z</time>
      </trkpt>
      <trkpt lat="47.83169" lon="6.99705">
        <ele>1067</ele>
        <time>2023-05-08T11:48:56Z</time>
      </trkpt>
      <trkpt lat="47.83171" lon="6.99713">
        <ele>1068</ele>
        <time>2023-05-08T11:49:02Z</time>
      </trkpt>
      <trkpt lat="47.8318" lon="6.99728">
        <ele>1070</ele>
        <time>2023-05-08T11:49:15Z</time>
      </trkpt>
      <trkpt lat="47.8318" lon="6.99736">
        <ele>1071</ele>
        <time>2023-05-08T11:49:23Z</time>
      </trkpt>
      <trkpt lat="47.83184" lon="6.99742">
        <ele>1072</ele>
        <time>2023-05-08T11:49:27Z</time>
      </trkpt>
      <trkpt lat="47.83189" lon="6.9976">
        <ele>1074</ele>
        <time>2023-05-08T11:49:42Z</time>
      </trkpt>
      <trkpt lat="47.83188" lon="6.99767">
        <ele>1074</ele>
        <time>2023-05-08T11:49:47Z</time>
      </trkpt>
      <trkpt lat="47.83189" lon="6.99776">
        <ele>1076</ele>
        <time>2023-05-08T11:49:55Z</time>
      </trkpt>
      <trkpt lat="47.83189" lon="6.99785">
        <ele>1078</ele>
        <time>2023-05-08T11:50:07Z</time>
      </trkpt>
      <trkpt lat="47.83189" lon="6.99795">
        <ele>1081</ele>
        <time>2023-05-08T11:50:29Z</time>
      </trkpt>
      <trkpt lat="47.83189" lon="6.99805">
        <ele>1083</ele>
        <time>2023-05-08T11:50:41Z</time>
      </trkpt>
      <trkpt lat="47.83185" lon="6.99815">
        <ele>1085</ele>
        <time>2023-05-08T11:50:52Z</time>
      </trkpt>
      <trkpt lat="47.83176" lon="6.99836">
        <ele>1089</ele>
        <time>2023-05-08T11:51:17Z</time>
      </trkpt>
      <trkpt lat="47.83171" lon="6.9984">
        <ele>1090</ele>
        <time>2023-05-08T11:51:20Z</time>
      </trkpt>
      <trkpt lat="47.83164" lon="6.99847">
        <ele>1091</ele>
        <time>2023-05-08T11:51:29Z</time>
      </trkpt>
      <trkpt lat="47.83149" lon="6.99878">
        <ele>1095</ele>
        <time>2023-05-08T11:52:03Z</time>
      </trkpt>
      <trkpt lat="47.83148" lon="6.99885">
        <ele>1096</ele>
        <time>2023-05-08T11:52:08Z</time>
      </trkpt>
      <trkpt lat="47.83143" lon="6.99893">
        <ele>1097</ele>
        <time>2023-05-08T11:52:13Z</time>
      </trkpt>
      <trkpt lat="47.83138" lon="6.99898">
        <ele>1098</ele>
        <time>2023-05-08T11:52:22Z</time>
      </trkpt>
      <trkpt lat="47.83123" lon="6.99926">
        <ele>1102</ele>
        <time>2023-05-08T11:52:48Z</time>
      </trkpt>
      <trkpt lat="47.83121" lon="6.99932">
        <ele>1102</ele>
        <time>2023-05-08T11:52:52Z</time>
      </trkpt>
      <trkpt lat="47.8311" lon="6.99956">
        <ele>1105</ele>
        <time>2023-05-08T11:53:13Z</time>
      </trkpt>
      <trkpt lat="47.83104" lon="6.99985">
        <ele>1111</ele>
        <time>2023-05-08T11:53:47Z</time>
      </trkpt>
      <trkpt lat="47.83105" lon="6.99997">
        <ele>1113</ele>
        <time>2023-05-08T11:53:58Z</time>
      </trkpt>
      <trkpt lat="47.83103" lon="7.00004">
        <ele>1114</ele>
        <time>2023-05-08T11:54:05Z</time>
      </trkpt>
      <trkpt lat="47.83101" lon="7.00009">
        <ele>1117</ele>
        <time>2023-05-08T11:54:24Z</time>
      </trkpt>
      <trkpt lat="47.83096" lon="7.00019">
        <ele>1119</ele>
        <time>2023-05-08T11:54:34Z</time>
      </trkpt>
      <trkpt lat="47.83099" lon="7.00025">
        <ele>1121</ele>
        <time>2023-05-08T11:54:47Z</time>
      </trkpt>
      <trkpt lat="47.83096" lon="7.00034">
        <ele>1123</ele>
        <time>2023-05-08T11:55:06Z</time>
      </trkpt>
      <trkpt lat="47.83096" lon="7.00044">
        <ele>1125</ele>
        <time>2023-05-08T11:55:18Z</time>
      </trkpt>
      <trkpt lat="47.83099" lon="7.00051">
        <ele>1127</ele>
        <time>2023-05-08T11:55:31Z</time>
      </trkpt>
      <trkpt lat="47.83103" lon="7.0006">
        <ele>1128</ele>
        <time>2023-05-08T11:55:41Z</time>
      </trkpt>
      <trkpt lat="47.83101" lon="7.00077">
        <ele>1129</ele>
        <time>2023-05-08T11:55:54Z</time>
      </trkpt>
      <trkpt lat="47.831" lon="7.00094">
        <ele>1131</ele>
        <time>2023-05-08T11:56:13Z</time>
      </trkpt>
      <trkpt lat="47.83098" lon="7.0011">
        <ele>1132</ele>
        <time>2023-05-08T11:56:27Z</time>
      </trkpt>
      <trkpt lat="47.83092" lon="7.00115">
        <ele>1133</ele>
        <time>2023-05-08T11:56:34Z</time>
      </trkpt>
      <trkpt lat="47.83093" lon="7.00133">
        <ele>1134</ele>
        <time>2023-05-08T11:56:43Z</time>
      </trkpt>
      <trkpt lat="47.83086" lon="7.00146">
        <ele>1136</ele>
        <time>2023-05-08T11:56:55Z</time>
      </trkpt>
      <trkpt lat="47.83083" lon="7.00171">
        <ele>1140</ele>
        <time>2023-05-08T11:57:21Z</time>
      </trkpt>
      <trkpt lat="47.83074" lon="7.00181">
        <ele>1141</ele>
        <time>2023-05-08T11:57:28Z</time>
      </trkpt>
      <trkpt lat="47.83072" lon="7.00193">
        <ele>1143</ele>
        <time>2023-05-08T11:57:37Z</time>
      </trkpt>
      <trkpt lat="47.83064" lon="7.00202">
        <ele>1144</ele>
        <time>2023-05-08T11:57:46Z</time>
      </trkpt>
      <trkpt lat="47.8306" lon="7.00192">
        <ele>1146</ele>
        <time>2023-05-08T11:57:52Z</time>
      </trkpt>
      <trkpt lat="47.8306" lon="7.00173">
        <ele>1146</ele>
        <time>2023-05-08T11:58:00Z</time>
      </trkpt>
      <trkpt lat="47.83056" lon="7.00155">
        <ele>1149</ele>
        <time>2023-05-08T11:58:18Z</time>
      </trkpt>
      <trkpt lat="47.83051" lon="7.00146">
        <ele>1151</ele>
        <time>2023-05-08T11:58:31Z</time>
      </trkpt>
      <trkpt lat="47.83051" lon="7.00127">
        <ele>1154</ele>
        <time>2023-05-08T11:58:46Z</time>
      </trkpt>
      <trkpt lat="47.83049" lon="7.00126">
        <ele>1157</ele>
        <time>2023-05-08T11:59:15Z</time>
      </trkpt>
      <trkpt lat="47.83046" lon="7.00136">
        <ele>1159</ele>
        <time>2023-05-08T11:59:28Z</time>
      </trkpt>
      <trkpt lat="47.83041" lon="7.00138">
        <ele>1160</ele>
        <time>2023-05-08T11:59:32Z</time>
      </trkpt>
      <trkpt lat="47.83036" lon="7.00135">
        <ele>1160</ele>
        <time>2023-05-08T11:59:35Z</time>
      </trkpt>
      <trkpt lat="47.83037" lon="7.00119">
        <ele>1165</ele>
        <time>2023-05-08T11:59:55Z</time>
      </trkpt>
      <trkpt lat="47.83028" lon="7.00163">
        <ele>1161</ele>
        <time>2023-05-08T12:13:13Z</time>
      </trkpt>
      <trkpt lat="47.8301" lon="7.00203">
        <ele>1164</ele>
        <time>2023-05-08T12:13:44Z</time>
      </trkpt>
      <trkpt lat="47.83006" lon="7.00208">
        <ele>1164</ele>
        <time>2023-05-08T12:13:49Z</time>
      </trkpt>
      <trkpt lat="47.82998" lon="7.00224">
        <ele>1164</ele>
        <time>2023-05-08T12:14:01Z</time>
      </trkpt>
      <trkpt lat="47.82985" lon="7.00246">
        <ele>1163</ele>
        <time>2023-05-08T12:14:17Z</time>
      </trkpt>
      <trkpt lat="47.82975" lon="7.00268">
        <ele>1163</ele>
        <time>2023-05-08T12:14:33Z</time>
      </trkpt>
      <trkpt lat="47.82966" lon="7.00291">
        <ele>1164</ele>
        <time>2023-05-08T12:14:51Z</time>
      </trkpt>
      <trkpt lat="47.82952" lon="7.00313">
        <ele>1165</ele>
        <time>2023-05-08T12:15:12Z</time>
      </trkpt>
      <trkpt lat="47.82938" lon="7.00353">
        <ele>1167</ele>
        <time>2023-05-08T12:15:45Z</time>
      </trkpt>
      <trkpt lat="47.82935" lon="7.00359">
        <ele>1168</ele>
        <time>2023-05-08T12:15:50Z</time>
      </trkpt>
      <trkpt lat="47.82922" lon="7.00397">
        <ele>1172</ele>
        <time>2023-05-08T12:16:25Z</time>
      </trkpt>
      <trkpt lat="47.82908" lon="7.00437">
        <ele>1175</ele>
        <time>2023-05-08T12:17:00Z</time>
      </trkpt>
      <trkpt lat="47.82904" lon="7.00444">
        <ele>1177</ele>
        <time>2023-05-08T12:17:12Z</time>
      </trkpt>
      <trkpt lat="47.82899" lon="7.0045">
        <ele>1180</ele>
        <time>2023-05-08T12:17:25Z</time>
      </trkpt>
      <trkpt lat="47.82895" lon="7.0045">
        <ele>1182</ele>
        <time>2023-05-08T12:17:37Z</time>
      </trkpt>
      <trkpt lat="47.82891" lon="7.00459">
        <ele>1182</ele>
        <time>2023-05-08T12:18:24Z</time>
      </trkpt>
      <trkpt lat="47.82883" lon="7.00469">
        <ele>1180</ele>
        <time>2023-05-08T12:18:33Z</time>
      </trkpt>
      <trkpt lat="47.82865" lon="7.00483">
        <ele>1179</ele>
        <time>2023-05-08T12:18:49Z</time>
      </trkpt>
      <trkpt lat="47.82858" lon="7.00492">
        <ele>1178</ele>
        <time>2023-05-08T12:18:57Z</time>
      </trkpt>
      <trkpt lat="47.82826" lon="7.00523">
        <ele>1174</ele>
        <time>2023-05-08T12:19:28Z</time>
      </trkpt>
      <trkpt lat="47.82823" lon="7.00526">
        <ele>1174</ele>
        <time>2023-05-08T12:19:33Z</time>
      </trkpt>
      <trkpt lat="47.82818" lon="7.00528">
        <ele>1174</ele>
        <time>2023-05-08T12:19:41Z</time>
      </trkpt>
      <trkpt lat="47.82785" lon="7.00557">
        <ele>1171</ele>
        <time>2023-05-08T12:20:13Z</time>
      </trkpt>
      <trkpt lat="47.82766" lon="7.00576">
        <ele>1171</ele>
        <time>2023-05-08T12:20:33Z</time>
      </trkpt>
      <trkpt lat="47.82762" lon="7.0058">
        <ele>1171</ele>
        <time>2023-05-08T12:20:37Z</time>
      </trkpt>
      <trkpt lat="47.82758" lon="7.00583">
        <ele>1171</ele>
        <time>2023-05-08T12:20:41Z</time>
      </trkpt>
      <trkpt lat="47.82754" lon="7.00586">
        <ele>1171</ele>
        <time>2023-05-08T12:20:45Z</time>
      </trkpt>
      <trkpt lat="47.82745" lon="7.00595">
        <ele>1171</ele>
        <time>2023-05-08T12:20:54Z</time>
      </trkpt>
      <trkpt lat="47.82741" lon="7.00598">
        <ele>1171</ele>
        <time>2023-05-08T12:20:58Z</time>
      </trkpt>
      <trkpt lat="47.82737" lon="7.00601">
        <ele>1171</ele>
        <time>2023-05-08T12:21:02Z</time>
      </trkpt>
      <trkpt lat="47.82707" lon="7.0062">
        <ele>1168</ele>
        <time>2023-05-08T12:21:31Z</time>
      </trkpt>
      <trkpt lat="47.8268" lon="7.00631">
        <ele>1166</ele>
        <time>2023-05-08T12:21:58Z</time>
      </trkpt>
      <trkpt lat="47.82656" lon="7.00658">
        <ele>1163</ele>
        <time>2023-05-08T12:22:29Z</time>
      </trkpt>
      <trkpt lat="47.8263" lon="7.00695">
        <ele>1160</ele>
        <time>2023-05-08T12:22:59Z</time>
      </trkpt>
      <trkpt lat="47.82622" lon="7.00703">
        <ele>1158</ele>
        <time>2023-05-08T12:23:07Z</time>
      </trkpt>
      <trkpt lat="47.82618" lon="7.00705">
        <ele>1158</ele>
        <time>2023-05-08T12:23:11Z</time>
      </trkpt>
      <trkpt lat="47.82614" lon="7.00708">
        <ele>1158</ele>
        <time>2023-05-08T12:23:15Z</time>
      </trkpt>
      <trkpt lat="47.82611" lon="7.00714">
        <ele>1157</ele>
        <time>2023-05-08T12:23:19Z</time>
      </trkpt>
      <trkpt lat="47.82603" lon="7.00722">
        <ele>1156</ele>
        <time>2023-05-08T12:23:27Z</time>
      </trkpt>
      <trkpt lat="47.826" lon="7.00726">
        <ele>1156</ele>
        <time>2023-05-08T12:23:31Z</time>
      </trkpt>
      <trkpt lat="47.82592" lon="7.00735">
        <ele>1155</ele>
        <time>2023-05-08T12:23:39Z</time>
      </trkpt>
      <trkpt lat="47.82574" lon="7.00756">
        <ele>1153</ele>
        <time>2023-05-08T12:24:01Z</time>
      </trkpt>
      <trkpt lat="47.82569" lon="7.00768">
        <ele>1153</ele>
        <time>2023-05-08T12:24:09Z</time>
      </trkpt>
      <trkpt lat="47.82566" lon="7.00774">
        <ele>1153</ele>
        <time>2023-05-08T12:24:13Z</time>
      </trkpt>
      <trkpt lat="47.82556" lon="7.00791">
        <ele>1152</ele>
        <time>2023-05-08T12:24:27Z</time>
      </trkpt>
      <trkpt lat="47.82553" lon="7.00796">
        <ele>1152</ele>
        <time>2023-05-08T12:24:31Z</time>
      </trkpt>
      <trkpt lat="47.82531" lon="7.00823">
        <ele>1151</ele>
        <time>2023-05-08T12:24:55Z</time>
      </trkpt>
      <trkpt lat="47.82497" lon="7.00856">
        <ele>1149</ele>
        <time>2023-05-08T12:25:31Z</time>
      </trkpt>
      <trkpt lat="47.82494" lon="7.0086">
        <ele>1148</ele>
        <time>2023-05-08T12:25:35Z</time>
      </trkpt>
      <trkpt lat="47.82467" lon="7.00898">
        <ele>1146</ele>
        <time>2023-05-08T12:26:09Z</time>
      </trkpt>
      <trkpt lat="47.82464" lon="7.00903">
        <ele>1146</ele>
        <time>2023-05-08T12:26:13Z</time>
      </trkpt>
      <trkpt lat="47.82438" lon="7.00944">
        <ele>1143</ele>
        <time>2023-05-08T12:26:45Z</time>
      </trkpt>
      <trkpt lat="47.82409" lon="7.00982">
        <ele>1140</ele>
        <time>2023-05-08T12:27:17Z</time>
      </trkpt>
      <trkpt lat="47.82406" lon="7.00987">
        <ele>1140</ele>
        <time>2023-05-08T12:27:21Z</time>
      </trkpt>
      <trkpt lat="47.8239" lon="7.01028">
        <ele>1137</ele>
        <time>2023-05-08T12:27:49Z</time>
      </trkpt>
      <trkpt lat="47.82377" lon="7.01054">
        <ele>1137</ele>
        <time>2023-05-08T12:28:10Z</time>
      </trkpt>
      <trkpt lat="47.82373" lon="7.01067">
        <ele>1137</ele>
        <time>2023-05-08T12:28:20Z</time>
      </trkpt>
      <trkpt lat="47.82366" lon="7.0108">
        <ele>1136</ele>
        <time>2023-05-08T12:28:31Z</time>
      </trkpt>
      <trkpt lat="47.82362" lon="7.01094">
        <ele>1135</ele>
        <time>2023-05-08T12:28:39Z</time>
      </trkpt>
      <trkpt lat="47.82359" lon="7.01107">
        <ele>1135</ele>
        <time>2023-05-08T12:28:47Z</time>
      </trkpt>
      <trkpt lat="47.82356" lon="7.01115">
        <ele>1135</ele>
        <time>2023-05-08T12:28:54Z</time>
      </trkpt>
      <trkpt lat="47.82355" lon="7.01122">
        <ele>1135</ele>
        <time>2023-05-08T12:28:58Z</time>
      </trkpt>
      <trkpt lat="47.82353" lon="7.01129">
        <ele>1135</ele>
        <time>2023-05-08T12:29:02Z</time>
      </trkpt>
      <trkpt lat="47.82348" lon="7.01143">
        <ele>1135</ele>
        <time>2023-05-08T12:29:09Z</time>
      </trkpt>
      <trkpt lat="47.82343" lon="7.01156">
        <ele>1134</ele>
        <time>2023-05-08T12:29:17Z</time>
      </trkpt>
      <trkpt lat="47.82327" lon="7.0119">
        <ele>1134</ele>
        <time>2023-05-08T12:29:41Z</time>
      </trkpt>
      <trkpt lat="47.82324" lon="7.01195">
        <ele>1134</ele>
        <time>2023-05-08T12:29:45Z</time>
      </trkpt>
      <trkpt lat="47.82319" lon="7.01207">
        <ele>1135</ele>
        <time>2023-05-08T12:29:55Z</time>
      </trkpt>
      <trkpt lat="47.82317" lon="7.01214">
        <ele>1135</ele>
        <time>2023-05-08T12:29:59Z</time>
      </trkpt>
      <trkpt lat="47.82318" lon="7.01226">
        <ele>1135</ele>
        <time>2023-05-08T12:30:08Z</time>
      </trkpt>
      <trkpt lat="47.82308" lon="7.01257">
        <ele>1134</ele>
        <time>2023-05-08T12:30:29Z</time>
      </trkpt>
      <trkpt lat="47.82306" lon="7.01265">
        <ele>1133</ele>
        <time>2023-05-08T12:30:34Z</time>
      </trkpt>
      <trkpt lat="47.82298" lon="7.01302">
        <ele>1132</ele>
        <time>2023-05-08T12:31:04Z</time>
      </trkpt>
      <trkpt lat="47.82289" lon="7.01342">
        <ele>1127</ele>
        <time>2023-05-08T12:32:00Z</time>
      </trkpt>
      <trkpt lat="47.82288" lon="7.01349">
        <ele>1127</ele>
        <time>2023-05-08T12:32:04Z</time>
      </trkpt>
      <trkpt lat="47.82286" lon="7.01366">
        <ele>1125</ele>
        <time>2023-05-08T12:32:17Z</time>
      </trkpt>
      <trkpt lat="47.8228" lon="7.01385">
        <ele>1123</ele>
        <time>2023-05-08T12:32:29Z</time>
      </trkpt>
      <trkpt lat="47.8227" lon="7.01398">
        <ele>1122</ele>
        <time>2023-05-08T12:32:42Z</time>
      </trkpt>
      <trkpt lat="47.82266" lon="7.01403">
        <ele>1121</ele>
        <time>2023-05-08T12:34:23Z</time>
      </trkpt>
      <trkpt lat="47.82251" lon="7.01446">
        <ele>1117</ele>
        <time>2023-05-08T12:34:56Z</time>
      </trkpt>
      <trkpt lat="47.82249" lon="7.0145">
        <ele>1117</ele>
        <time>2023-05-08T12:34:59Z</time>
      </trkpt>
      <trkpt lat="47.82246" lon="7.01465">
        <ele>1116</ele>
        <time>2023-05-08T12:35:07Z</time>
      </trkpt>
      <trkpt lat="47.82242" lon="7.01466">
        <ele>1115</ele>
        <time>2023-05-08T12:35:15Z</time>
      </trkpt>
      <trkpt lat="47.82236" lon="7.01466">
        <ele>1115</ele>
        <time>2023-05-08T12:35:50Z</time>
      </trkpt>
      <trkpt lat="47.82234" lon="7.01473">
        <ele>1115</ele>
        <time>2023-05-08T12:35:56Z</time>
      </trkpt>
      <trkpt lat="47.82234" lon="7.01502">
        <ele>1113</ele>
        <time>2023-05-08T12:36:13Z</time>
      </trkpt>
      <trkpt lat="47.82235" lon="7.0151">
        <ele>1112</ele>
        <time>2023-05-08T12:36:19Z</time>
      </trkpt>
      <trkpt lat="47.82233" lon="7.01532">
        <ele>1110</ele>
        <time>2023-05-08T12:36:32Z</time>
      </trkpt>
      <trkpt lat="47.82234" lon="7.01589">
        <ele>1109</ele>
        <time>2023-05-08T12:37:04Z</time>
      </trkpt>
      <trkpt lat="47.82234" lon="7.01646">
        <ele>1108</ele>
        <time>2023-05-08T12:37:38Z</time>
      </trkpt>
      <trkpt lat="47.82235" lon="7.01652">
        <ele>1108</ele>
        <time>2023-05-08T12:37:42Z</time>
      </trkpt>
      <trkpt lat="47.82234" lon="7.01668">
        <ele>1108</ele>
        <time>2023-05-08T12:37:52Z</time>
      </trkpt>
      <trkpt lat="47.82236" lon="7.01725">
        <ele>1109</ele>
        <time>2023-05-08T12:38:27Z</time>
      </trkpt>
      <trkpt lat="47.82235" lon="7.01732">
        <ele>1109</ele>
        <time>2023-05-08T12:38:31Z</time>
      </trkpt>
      <trkpt lat="47.82247" lon="7.01787">
        <ele>1109</ele>
        <time>2023-05-08T12:39:06Z</time>
      </trkpt>
      <trkpt lat="47.82254" lon="7.01842">
        <ele>1107</ele>
        <time>2023-05-08T12:39:39Z</time>
      </trkpt>
      <trkpt lat="47.8226" lon="7.01892">
        <ele>1106</ele>
        <time>2023-05-08T12:40:13Z</time>
      </trkpt>
      <trkpt lat="47.82267" lon="7.0194">
        <ele>1104</ele>
        <time>2023-05-08T12:40:46Z</time>
      </trkpt>
      <trkpt lat="47.82271" lon="7.01968">
        <ele>1104</ele>
        <time>2023-05-08T12:41:05Z</time>
      </trkpt>
      <trkpt lat="47.8227" lon="7.01975">
        <ele>1104</ele>
        <time>2023-05-08T12:41:09Z</time>
      </trkpt>
      <trkpt lat="47.82262" lon="7.01993">
        <ele>1103</ele>
        <time>2023-05-08T12:41:21Z</time>
      </trkpt>
      <trkpt lat="47.82255" lon="7.02">
        <ele>1103</ele>
        <time>2023-05-08T12:41:29Z</time>
      </trkpt>
      <trkpt lat="47.82252" lon="7.02006">
        <ele>1102</ele>
        <time>2023-05-08T12:41:34Z</time>
      </trkpt>
      <trkpt lat="47.82248" lon="7.02019">
        <ele>1101</ele>
        <time>2023-05-08T12:41:41Z</time>
      </trkpt>
      <trkpt lat="47.82236" lon="7.02029">
        <ele>1100</ele>
        <time>2023-05-08T12:41:52Z</time>
      </trkpt>
      <trkpt lat="47.82233" lon="7.02034">
        <ele>1099</ele>
        <time>2023-05-08T12:41:56Z</time>
      </trkpt>
      <trkpt lat="47.82229" lon="7.02038">
        <ele>1098</ele>
        <time>2023-05-08T12:42:01Z</time>
      </trkpt>
      <trkpt lat="47.82212" lon="7.02078">
        <ele>1094</ele>
        <time>2023-05-08T12:42:32Z</time>
      </trkpt>
      <trkpt lat="47.82193" lon="7.02123">
        <ele>1091</ele>
        <time>2023-05-08T12:43:05Z</time>
      </trkpt>
      <trkpt lat="47.82189" lon="7.02131">
        <ele>1090</ele>
        <time>2023-05-08T12:43:11Z</time>
      </trkpt>
      <trkpt lat="47.82188" lon="7.02137">
        <ele>1090</ele>
        <time>2023-05-08T12:43:15Z</time>
      </trkpt>
      <trkpt lat="47.82175" lon="7.02167">
        <ele>1088</ele>
        <time>2023-05-08T12:43:39Z</time>
      </trkpt>
      <trkpt lat="47.82165" lon="7.022">
        <ele>1085</ele>
        <time>2023-05-08T12:44:01Z</time>
      </trkpt>
      <trkpt lat="47.82143" lon="7.02246">
        <ele>1082</ele>
        <time>2023-05-08T12:44:33Z</time>
      </trkpt>
      <trkpt lat="47.82118" lon="7.02286">
        <ele>1081</ele>
        <time>2023-05-08T12:45:05Z</time>
      </trkpt>
      <trkpt lat="47.82094" lon="7.0233">
        <ele>1079</ele>
        <time>2023-05-08T12:45:36Z</time>
      </trkpt>
      <trkpt lat="47.82069" lon="7.02363">
        <ele>1078</ele>
        <time>2023-05-08T12:46:07Z</time>
      </trkpt>
      <trkpt lat="47.8206" lon="7.02374">
        <ele>1078</ele>
        <time>2023-05-08T12:46:18Z</time>
      </trkpt>
      <trkpt lat="47.82054" lon="7.02386">
        <ele>1077</ele>
        <time>2023-05-08T12:46:28Z</time>
      </trkpt>
      <trkpt lat="47.82027" lon="7.02416">
        <ele>1074</ele>
        <time>2023-05-08T12:47:01Z</time>
      </trkpt>
      <trkpt lat="47.82023" lon="7.02418">
        <ele>1074</ele>
        <time>2023-05-08T12:47:05Z</time>
      </trkpt>
      <trkpt lat="47.82019" lon="7.02421">
        <ele>1074</ele>
        <time>2023-05-08T12:47:12Z</time>
      </trkpt>
      <trkpt lat="47.82015" lon="7.02425">
        <ele>1074</ele>
        <time>2023-05-08T12:47:16Z</time>
      </trkpt>
      <trkpt lat="47.82007" lon="7.0243">
        <ele>1073</ele>
        <time>2023-05-08T12:47:25Z</time>
      </trkpt>
      <trkpt lat="47.81977" lon="7.02445">
        <ele>1071</ele>
        <time>2023-05-08T12:47:56Z</time>
      </trkpt>
      <trkpt lat="47.81957" lon="7.02461">
        <ele>1069</ele>
        <time>2023-05-08T12:48:15Z</time>
      </trkpt>
      <trkpt lat="47.81953" lon="7.02462">
        <ele>1068</ele>
        <time>2023-05-08T12:48:19Z</time>
      </trkpt>
      <trkpt lat="47.81919" lon="7.02485">
        <ele>1066</ele>
        <time>2023-05-08T12:48:51Z</time>
      </trkpt>
      <trkpt lat="47.8191" lon="7.02493">
        <ele>1065</ele>
        <time>2023-05-08T12:49:03Z</time>
      </trkpt>
      <trkpt lat="47.81906" lon="7.02494">
        <ele>1065</ele>
        <time>2023-05-08T12:49:14Z</time>
      </trkpt>
      <trkpt lat="47.81903" lon="7.02487">
        <ele>1065</ele>
        <time>2023-05-08T12:49:18Z</time>
      </trkpt>
      <trkpt lat="47.81899" lon="7.02484">
        <ele>1064</ele>
        <time>2023-05-08T12:49:25Z</time>
      </trkpt>
      <trkpt lat="47.81877" lon="7.02482">
        <ele>1061</ele>
        <time>2023-05-08T12:49:47Z</time>
      </trkpt>
      <trkpt lat="47.81873" lon="7.02483">
        <ele>1060</ele>
        <time>2023-05-08T12:49:49Z</time>
      </trkpt>
      <trkpt lat="47.81862" lon="7.02479">
        <ele>1059</ele>
        <time>2023-05-08T12:49:57Z</time>
      </trkpt>
      <trkpt lat="47.81855" lon="7.02479">
        <ele>1058</ele>
        <time>2023-05-08T12:50:04Z</time>
      </trkpt>
      <trkpt lat="47.81849" lon="7.02476">
        <ele>1058</ele>
        <time>2023-05-08T12:50:09Z</time>
      </trkpt>
      <trkpt lat="47.81845" lon="7.02473">
        <ele>1057</ele>
        <time>2023-05-08T12:50:13Z</time>
      </trkpt>
      <trkpt lat="47.81836" lon="7.02464">
        <ele>1055</ele>
        <time>2023-05-08T12:50:22Z</time>
      </trkpt>
      <trkpt lat="47.81832" lon="7.02466">
        <ele>1055</ele>
        <time>2023-05-08T12:50:26Z</time>
      </trkpt>
      <trkpt lat="47.81826" lon="7.02465">
        <ele>1054</ele>
        <time>2023-05-08T12:50:31Z</time>
      </trkpt>
      <trkpt lat="47.81817" lon="7.02455">
        <ele>1052</ele>
        <time>2023-05-08T12:50:44Z</time>
      </trkpt>
      <trkpt lat="47.81813" lon="7.02453">
        <ele>1051</ele>
        <time>2023-05-08T12:50:49Z</time>
      </trkpt>
      <trkpt lat="47.81801" lon="7.02454">
        <ele>1050</ele>
        <time>2023-05-08T12:50:56Z</time>
      </trkpt>
      <trkpt lat="47.81797" lon="7.02452">
        <ele>1049</ele>
        <time>2023-05-08T12:51:02Z</time>
      </trkpt>
      <trkpt lat="47.81792" lon="7.02458">
        <ele>1049</ele>
        <time>2023-05-08T12:51:07Z</time>
      </trkpt>
      <trkpt lat="47.81786" lon="7.02453">
        <ele>1048</ele>
        <time>2023-05-08T12:51:13Z</time>
      </trkpt>
      <trkpt lat="47.81781" lon="7.02452">
        <ele>1047</ele>
        <time>2023-05-08T12:51:17Z</time>
      </trkpt>
      <trkpt lat="47.81775" lon="7.02456">
        <ele>1046</ele>
        <time>2023-05-08T12:51:25Z</time>
      </trkpt>
      <trkpt lat="47.81771" lon="7.02453">
        <ele>1045</ele>
        <time>2023-05-08T12:51:29Z</time>
      </trkpt>
      <trkpt lat="47.81766" lon="7.02455">
        <ele>1044</ele>
        <time>2023-05-08T12:51:35Z</time>
      </trkpt>
      <trkpt lat="47.81759" lon="7.02455">
        <ele>1043</ele>
        <time>2023-05-08T12:51:42Z</time>
      </trkpt>
      <trkpt lat="47.81756" lon="7.02462">
        <ele>1042</ele>
        <time>2023-05-08T12:51:49Z</time>
      </trkpt>
      <trkpt lat="47.81749" lon="7.02462">
        <ele>1041</ele>
        <time>2023-05-08T12:51:56Z</time>
      </trkpt>
      <trkpt lat="47.81745" lon="7.02463">
        <ele>1041</ele>
        <time>2023-05-08T12:51:58Z</time>
      </trkpt>
      <trkpt lat="47.81729" lon="7.02468">
        <ele>1038</ele>
        <time>2023-05-08T12:52:14Z</time>
      </trkpt>
      <trkpt lat="47.81724" lon="7.02467">
        <ele>1037</ele>
        <time>2023-05-08T12:52:17Z</time>
      </trkpt>
      <trkpt lat="47.8172" lon="7.02463">
        <ele>1036</ele>
        <time>2023-05-08T12:52:20Z</time>
      </trkpt>
      <trkpt lat="47.81709" lon="7.0247">
        <ele>1034</ele>
        <time>2023-05-08T12:52:32Z</time>
      </trkpt>
      <trkpt lat="47.81706" lon="7.02474">
        <ele>1034</ele>
        <time>2023-05-08T12:52:36Z</time>
      </trkpt>
      <trkpt lat="47.81701" lon="7.02472">
        <ele>1033</ele>
        <time>2023-05-08T12:52:40Z</time>
      </trkpt>
      <trkpt lat="47.81693" lon="7.02473">
        <ele>1031</ele>
        <time>2023-05-08T12:52:49Z</time>
      </trkpt>
      <trkpt lat="47.81688" lon="7.02474">
        <ele>1031</ele>
        <time>2023-05-08T12:52:54Z</time>
      </trkpt>
      <trkpt lat="47.81679" lon="7.02469">
        <ele>1029</ele>
        <time>2023-05-08T12:53:03Z</time>
      </trkpt>
      <trkpt lat="47.81674" lon="7.02472">
        <ele>1028</ele>
        <time>2023-05-08T12:53:11Z</time>
      </trkpt>
      <trkpt lat="47.8167" lon="7.02471">
        <ele>1027</ele>
        <time>2023-05-08T12:53:14Z</time>
      </trkpt>
      <trkpt lat="47.81665" lon="7.02476">
        <ele>1026</ele>
        <time>2023-05-08T12:53:20Z</time>
      </trkpt>
      <trkpt lat="47.81653" lon="7.02479">
        <ele>1024</ele>
        <time>2023-05-08T12:53:34Z</time>
      </trkpt>
      <trkpt lat="47.8165" lon="7.02477">
        <ele>1023</ele>
        <time>2023-05-08T12:53:37Z</time>
      </trkpt>
      <trkpt lat="47.81645" lon="7.02476">
        <ele>1022</ele>
        <time>2023-05-08T12:53:41Z</time>
      </trkpt>
      <trkpt lat="47.81632" lon="7.02481">
        <ele>1020</ele>
        <time>2023-05-08T12:53:57Z</time>
      </trkpt>
      <trkpt lat="47.81628" lon="7.02487">
        <ele>1019</ele>
        <time>2023-05-08T12:54:01Z</time>
      </trkpt>
      <trkpt lat="47.81618" lon="7.02492">
        <ele>1016</ele>
        <time>2023-05-08T12:54:13Z</time>
      </trkpt>
      <trkpt lat="47.81612" lon="7.02504">
        <ele>1015</ele>
        <time>2023-05-08T12:54:21Z</time>
      </trkpt>
      <trkpt lat="47.81604" lon="7.02515">
        <ele>1014</ele>
        <time>2023-05-08T12:54:35Z</time>
      </trkpt>
      <trkpt lat="47.81597" lon="7.02514">
        <ele>1013</ele>
        <time>2023-05-08T12:54:40Z</time>
      </trkpt>
      <trkpt lat="47.81594" lon="7.0252">
        <ele>1013</ele>
        <time>2023-05-08T12:54:44Z</time>
      </trkpt>
      <trkpt lat="47.81589" lon="7.02524">
        <ele>1012</ele>
        <time>2023-05-08T12:54:48Z</time>
      </trkpt>
      <trkpt lat="47.81581" lon="7.02531">
        <ele>1011</ele>
        <time>2023-05-08T12:55:01Z</time>
      </trkpt>
      <trkpt lat="47.81577" lon="7.02532">
        <ele>1010</ele>
        <time>2023-05-08T12:55:05Z</time>
      </trkpt>
      <trkpt lat="47.81573" lon="7.02535">
        <ele>1010</ele>
        <time>2023-05-08T12:55:09Z</time>
      </trkpt>
      <trkpt lat="47.81568" lon="7.02543">
        <ele>1008</ele>
        <time>2023-05-08T12:55:18Z</time>
      </trkpt>
      <trkpt lat="47.81564" lon="7.02549">
        <ele>1008</ele>
        <time>2023-05-08T12:55:25Z</time>
      </trkpt>
      <trkpt lat="47.81554" lon="7.02564">
        <ele>1005</ele>
        <time>2023-05-08T12:55:38Z</time>
      </trkpt>
      <trkpt lat="47.81548" lon="7.02569">
        <ele>1003</ele>
        <time>2023-05-08T12:55:48Z</time>
      </trkpt>
      <trkpt lat="47.81525" lon="7.0259">
        <ele>998</ele>
        <time>2023-05-08T12:56:13Z</time>
      </trkpt>
      <trkpt lat="47.8152" lon="7.02602">
        <ele>996</ele>
        <time>2023-05-08T12:56:22Z</time>
      </trkpt>
      <trkpt lat="47.81509" lon="7.02616">
        <ele>993</ele>
        <time>2023-05-08T12:56:40Z</time>
      </trkpt>
      <trkpt lat="47.81503" lon="7.02633">
        <ele>990</ele>
        <time>2023-05-08T12:56:53Z</time>
      </trkpt>
      <trkpt lat="47.81501" lon="7.02643">
        <ele>989</ele>
        <time>2023-05-08T12:57:01Z</time>
      </trkpt>
      <trkpt lat="47.81504" lon="7.0265">
        <ele>988</ele>
        <time>2023-05-08T12:57:05Z</time>
      </trkpt>
      <trkpt lat="47.815" lon="7.02655">
        <ele>987</ele>
        <time>2023-05-08T12:57:09Z</time>
      </trkpt>
      <trkpt lat="47.81497" lon="7.02659">
        <ele>986</ele>
        <time>2023-05-08T12:57:12Z</time>
      </trkpt>
      <trkpt lat="47.81493" lon="7.02666">
        <ele>985</ele>
        <time>2023-05-08T12:57:28Z</time>
      </trkpt>
      <trkpt lat="47.81494" lon="7.02669">
        <ele>985</ele>
        <time>2023-05-08T12:58:02Z</time>
      </trkpt>
      <trkpt lat="47.81496" lon="7.02659">
        <ele>985</ele>
        <time>2023-05-08T12:58:18Z</time>
      </trkpt>
      <trkpt lat="47.81501" lon="7.02674">
        <ele>984</ele>
        <time>2023-05-08T12:58:38Z</time>
      </trkpt>
      <trkpt lat="47.81502" lon="7.02687">
        <ele>981</ele>
        <time>2023-05-08T12:58:52Z</time>
      </trkpt>
      <trkpt lat="47.81512" lon="7.02715">
        <ele>978</ele>
        <time>2023-05-08T12:59:10Z</time>
      </trkpt>
      <trkpt lat="47.81517" lon="7.02722">
        <ele>977</ele>
        <time>2023-05-08T12:59:17Z</time>
      </trkpt>
      <trkpt lat="47.81519" lon="7.0273">
        <ele>976</ele>
        <time>2023-05-08T12:59:21Z</time>
      </trkpt>
      <trkpt lat="47.81524" lon="7.02732">
        <ele>976</ele>
        <time>2023-05-08T12:59:25Z</time>
      </trkpt>
      <trkpt lat="47.8153" lon="7.02749">
        <ele>974</ele>
        <time>2023-05-08T12:59:39Z</time>
      </trkpt>
      <trkpt lat="47.81533" lon="7.02755">
        <ele>973</ele>
        <time>2023-05-08T12:59:43Z</time>
      </trkpt>
      <trkpt lat="47.81536" lon="7.02766">
        <ele>971</ele>
        <time>2023-05-08T12:59:52Z</time>
      </trkpt>
      <trkpt lat="47.81543" lon="7.02777">
        <ele>970</ele>
        <time>2023-05-08T13:00:00Z</time>
      </trkpt>
      <trkpt lat="47.81548" lon="7.02787">
        <ele>969</ele>
        <time>2023-05-08T13:00:08Z</time>
      </trkpt>
      <trkpt lat="47.81552" lon="7.02791">
        <ele>968</ele>
        <time>2023-05-08T13:00:13Z</time>
      </trkpt>
      <trkpt lat="47.81557" lon="7.02793">
        <ele>968</ele>
        <time>2023-05-08T13:00:18Z</time>
      </trkpt>
      <trkpt lat="47.81559" lon="7.02807">
        <ele>967</ele>
        <time>2023-05-08T13:00:28Z</time>
      </trkpt>
      <trkpt lat="47.81562" lon="7.02813">
        <ele>967</ele>
        <time>2023-05-08T13:00:31Z</time>
      </trkpt>
      <trkpt lat="47.81569" lon="7.02817">
        <ele>966</ele>
        <time>2023-05-08T13:00:38Z</time>
      </trkpt>
      <trkpt lat="47.81574" lon="7.02823">
        <ele>965</ele>
        <time>2023-05-08T13:00:42Z</time>
      </trkpt>
      <trkpt lat="47.81571" lon="7.0283">
        <ele>964</ele>
        <time>2023-05-08T13:00:46Z</time>
      </trkpt>
      <trkpt lat="47.81578" lon="7.02829">
        <ele>964</ele>
        <time>2023-05-08T13:00:51Z</time>
      </trkpt>
      <trkpt lat="47.81583" lon="7.02833">
        <ele>963</ele>
        <time>2023-05-08T13:00:57Z</time>
      </trkpt>
      <trkpt lat="47.81594" lon="7.02839">
        <ele>960</ele>
        <time>2023-05-08T13:01:07Z</time>
      </trkpt>
      <trkpt lat="47.81598" lon="7.02844">
        <ele>960</ele>
        <time>2023-05-08T13:01:11Z</time>
      </trkpt>
      <trkpt lat="47.81601" lon="7.02858">
        <ele>957</ele>
        <time>2023-05-08T13:01:25Z</time>
      </trkpt>
      <trkpt lat="47.81606" lon="7.02863">
        <ele>957</ele>
        <time>2023-05-08T13:01:28Z</time>
      </trkpt>
      <trkpt lat="47.81608" lon="7.02869">
        <ele>956</ele>
        <time>2023-05-08T13:01:33Z</time>
      </trkpt>
      <trkpt lat="47.81614" lon="7.02879">
        <ele>956</ele>
        <time>2023-05-08T13:01:40Z</time>
      </trkpt>
      <trkpt lat="47.81616" lon="7.02886">
        <ele>955</ele>
        <time>2023-05-08T13:01:44Z</time>
      </trkpt>
      <trkpt lat="47.8162" lon="7.0289">
        <ele>954</ele>
        <time>2023-05-08T13:01:46Z</time>
      </trkpt>
      <trkpt lat="47.81625" lon="7.02889">
        <ele>953</ele>
        <time>2023-05-08T13:01:54Z</time>
      </trkpt>
      <trkpt lat="47.81631" lon="7.02888">
        <ele>953</ele>
        <time>2023-05-08T13:01:59Z</time>
      </trkpt>
      <trkpt lat="47.8164" lon="7.02893">
        <ele>952</ele>
        <time>2023-05-08T13:02:03Z</time>
      </trkpt>
      <trkpt lat="47.81645" lon="7.02892">
        <ele>952</ele>
        <time>2023-05-08T13:02:05Z</time>
      </trkpt>
      <trkpt lat="47.8165" lon="7.02887">
        <ele>952</ele>
        <time>2023-05-08T13:02:07Z</time>
      </trkpt>
      <trkpt lat="47.81651" lon="7.02898">
        <ele>951</ele>
        <time>2023-05-08T13:02:09Z</time>
      </trkpt>
      <trkpt lat="47.81646" lon="7.02903">
        <ele>950</ele>
        <time>2023-05-08T13:02:12Z</time>
      </trkpt>
      <trkpt lat="47.81648" lon="7.02914">
        <ele>950</ele>
        <time>2023-05-08T13:02:14Z</time>
      </trkpt>
      <trkpt lat="47.81644" lon="7.02933">
        <ele>949</ele>
        <time>2023-05-08T13:02:30Z</time>
      </trkpt>
      <trkpt lat="47.81642" lon="7.02939">
        <ele>948</ele>
        <time>2023-05-08T13:02:33Z</time>
      </trkpt>
      <trkpt lat="47.81634" lon="7.02951">
        <ele>948</ele>
        <time>2023-05-08T13:02:40Z</time>
      </trkpt>
      <trkpt lat="47.81628" lon="7.02962">
        <ele>945</ele>
        <time>2023-05-08T13:03:05Z</time>
      </trkpt>
      <trkpt lat="47.81622" lon="7.02982">
        <ele>943</ele>
        <time>2023-05-08T13:03:15Z</time>
      </trkpt>
      <trkpt lat="47.81627" lon="7.02987">
        <ele>943</ele>
        <time>2023-05-08T13:03:19Z</time>
      </trkpt>
      <trkpt lat="47.81623" lon="7.03">
        <ele>943</ele>
        <time>2023-05-08T13:03:23Z</time>
      </trkpt>
      <trkpt lat="47.8162" lon="7.03011">
        <ele>941</ele>
        <time>2023-05-08T13:03:34Z</time>
      </trkpt>
      <trkpt lat="47.81617" lon="7.03018">
        <ele>940</ele>
        <time>2023-05-08T13:03:39Z</time>
      </trkpt>
      <trkpt lat="47.81616" lon="7.03026">
        <ele>940</ele>
        <time>2023-05-08T13:03:41Z</time>
      </trkpt>
      <trkpt lat="47.81609" lon="7.03041">
        <ele>937</ele>
        <time>2023-05-08T13:03:53Z</time>
      </trkpt>
      <trkpt lat="47.81603" lon="7.03052">
        <ele>935</ele>
        <time>2023-05-08T13:04:04Z</time>
      </trkpt>
      <trkpt lat="47.81603" lon="7.0306">
        <ele>934</ele>
        <time>2023-05-08T13:04:08Z</time>
      </trkpt>
      <trkpt lat="47.81599" lon="7.03065">
        <ele>932</ele>
        <time>2023-05-08T13:04:11Z</time>
      </trkpt>
      <trkpt lat="47.81599" lon="7.03078">
        <ele>929</ele>
        <time>2023-05-08T13:04:22Z</time>
      </trkpt>
      <trkpt lat="47.81598" lon="7.03087">
        <ele>929</ele>
        <time>2023-05-08T13:04:29Z</time>
      </trkpt>
      <trkpt lat="47.81594" lon="7.03093">
        <ele>928</ele>
        <time>2023-05-08T13:04:31Z</time>
      </trkpt>
      <trkpt lat="47.81591" lon="7.03096">
        <ele>928</ele>
        <time>2023-05-08T13:04:35Z</time>
      </trkpt>
      <trkpt lat="47.81591" lon="7.03104">
        <ele>927</ele>
        <time>2023-05-08T13:04:38Z</time>
      </trkpt>
      <trkpt lat="47.81584" lon="7.03114">
        <ele>926</ele>
        <time>2023-05-08T13:04:44Z</time>
      </trkpt>
      <trkpt lat="47.81583" lon="7.03121">
        <ele>924</ele>
        <time>2023-05-08T13:04:52Z</time>
      </trkpt>
      <trkpt lat="47.81577" lon="7.03128">
        <ele>923</ele>
        <time>2023-05-08T13:04:56Z</time>
      </trkpt>
      <trkpt lat="47.81576" lon="7.03135">
        <ele>923</ele>
        <time>2023-05-08T13:05:00Z</time>
      </trkpt>
      <trkpt lat="47.81569" lon="7.03144">
        <ele>921</ele>
        <time>2023-05-08T13:05:08Z</time>
      </trkpt>
      <trkpt lat="47.81563" lon="7.0316">
        <ele>919</ele>
        <time>2023-05-08T13:05:18Z</time>
      </trkpt>
      <trkpt lat="47.81559" lon="7.03163">
        <ele>919</ele>
        <time>2023-05-08T13:05:23Z</time>
      </trkpt>
      <trkpt lat="47.81556" lon="7.03169">
        <ele>918</ele>
        <time>2023-05-08T13:05:27Z</time>
      </trkpt>
      <trkpt lat="47.81548" lon="7.03173">
        <ele>917</ele>
        <time>2023-05-08T13:05:32Z</time>
      </trkpt>
      <trkpt lat="47.81544" lon="7.03177">
        <ele>917</ele>
        <time>2023-05-08T13:05:35Z</time>
      </trkpt>
      <trkpt lat="47.81525" lon="7.03198">
        <ele>914</ele>
        <time>2023-05-08T13:05:58Z</time>
      </trkpt>
      <trkpt lat="47.81517" lon="7.03207">
        <ele>914</ele>
        <time>2023-05-08T13:06:06Z</time>
      </trkpt>
      <trkpt lat="47.81514" lon="7.03211">
        <ele>914</ele>
        <time>2023-05-08T13:06:10Z</time>
      </trkpt>
      <trkpt lat="47.81505" lon="7.0322">
        <ele>913</ele>
        <time>2023-05-08T13:06:20Z</time>
      </trkpt>
      <trkpt lat="47.81497" lon="7.03226">
        <ele>912</ele>
        <time>2023-05-08T13:06:28Z</time>
      </trkpt>
      <trkpt lat="47.81492" lon="7.03227">
        <ele>911</ele>
        <time>2023-05-08T13:06:32Z</time>
      </trkpt>
      <trkpt lat="47.81472" lon="7.03227">
        <ele>908</ele>
        <time>2023-05-08T13:06:49Z</time>
      </trkpt>
      <trkpt lat="47.81463" lon="7.03229">
        <ele>906</ele>
        <time>2023-05-08T13:06:58Z</time>
      </trkpt>
      <trkpt lat="47.81445" lon="7.03237">
        <ele>904</ele>
        <time>2023-05-08T13:07:14Z</time>
      </trkpt>
      <trkpt lat="47.81436" lon="7.03237">
        <ele>903</ele>
        <time>2023-05-08T13:07:22Z</time>
      </trkpt>
      <trkpt lat="47.81432" lon="7.03239">
        <ele>902</ele>
        <time>2023-05-08T13:07:26Z</time>
      </trkpt>
      <trkpt lat="47.81418" lon="7.03237">
        <ele>901</ele>
        <time>2023-05-08T13:07:38Z</time>
      </trkpt>
      <trkpt lat="47.81411" lon="7.03235">
        <ele>900</ele>
        <time>2023-05-08T13:07:44Z</time>
      </trkpt>
      <trkpt lat="47.81406" lon="7.03236">
        <ele>900</ele>
        <time>2023-05-08T13:07:47Z</time>
      </trkpt>
      <trkpt lat="47.81402" lon="7.03239">
        <ele>899</ele>
        <time>2023-05-08T13:07:52Z</time>
      </trkpt>
      <trkpt lat="47.81392" lon="7.03237">
        <ele>898</ele>
        <time>2023-05-08T13:08:02Z</time>
      </trkpt>
      <trkpt lat="47.81382" lon="7.03233">
        <ele>896</ele>
        <time>2023-05-08T13:08:11Z</time>
      </trkpt>
      <trkpt lat="47.81366" lon="7.03235">
        <ele>894</ele>
        <time>2023-05-08T13:08:25Z</time>
      </trkpt>
      <trkpt lat="47.81362" lon="7.03238">
        <ele>893</ele>
        <time>2023-05-08T13:08:29Z</time>
      </trkpt>
      <trkpt lat="47.81348" lon="7.0324">
        <ele>892</ele>
        <time>2023-05-08T13:08:40Z</time>
      </trkpt>
      <trkpt lat="47.81337" lon="7.03239">
        <ele>890</ele>
        <time>2023-05-08T13:08:50Z</time>
      </trkpt>
      <trkpt lat="47.81316" lon="7.03244">
        <ele>888</ele>
        <time>2023-05-08T13:09:09Z</time>
      </trkpt>
      <trkpt lat="47.81297" lon="7.03243">
        <ele>886</ele>
        <time>2023-05-08T13:09:25Z</time>
      </trkpt>
      <trkpt lat="47.81286" lon="7.03238">
        <ele>885</ele>
        <time>2023-05-08T13:09:36Z</time>
      </trkpt>
      <trkpt lat="47.81282" lon="7.03236">
        <ele>884</ele>
        <time>2023-05-08T13:09:39Z</time>
      </trkpt>
      <trkpt lat="47.81277" lon="7.03234">
        <ele>883</ele>
        <time>2023-05-08T13:09:44Z</time>
      </trkpt>
      <trkpt lat="47.81243" lon="7.03238">
        <ele>879</ele>
        <time>2023-05-08T13:10:15Z</time>
      </trkpt>
      <trkpt lat="47.8124" lon="7.03241">
        <ele>879</ele>
        <time>2023-05-08T13:10:19Z</time>
      </trkpt>
      <trkpt lat="47.81229" lon="7.03243">
        <ele>878</ele>
        <time>2023-05-08T13:10:28Z</time>
      </trkpt>
      <trkpt lat="47.81216" lon="7.03251">
        <ele>877</ele>
        <time>2023-05-08T13:10:39Z</time>
      </trkpt>
      <trkpt lat="47.81212" lon="7.03251">
        <ele>876</ele>
        <time>2023-05-08T13:10:43Z</time>
      </trkpt>
      <trkpt lat="47.81193" lon="7.03256">
        <ele>874</ele>
        <time>2023-05-08T13:11:00Z</time>
      </trkpt>
      <trkpt lat="47.81188" lon="7.0326">
        <ele>874</ele>
        <time>2023-05-08T13:11:04Z</time>
      </trkpt>
      <trkpt lat="47.81186" lon="7.03265">
        <ele>874</ele>
        <time>2023-05-08T13:11:09Z</time>
      </trkpt>
      <trkpt lat="47.81184" lon="7.03272">
        <ele>874</ele>
        <time>2023-05-08T13:11:13Z</time>
      </trkpt>
      <trkpt lat="47.8118" lon="7.03293">
        <ele>872</ele>
        <time>2023-05-08T13:11:25Z</time>
      </trkpt>
      <trkpt lat="47.81169" lon="7.03323">
        <ele>869</ele>
        <time>2023-05-08T13:11:43Z</time>
      </trkpt>
      <trkpt lat="47.81166" lon="7.03338">
        <ele>867</ele>
        <time>2023-05-08T13:11:52Z</time>
      </trkpt>
      <trkpt lat="47.81167" lon="7.03345">
        <ele>866</ele>
        <time>2023-05-08T13:11:56Z</time>
      </trkpt>
      <trkpt lat="47.8117" lon="7.03359">
        <ele>865</ele>
        <time>2023-05-08T13:12:06Z</time>
      </trkpt>
      <trkpt lat="47.81174" lon="7.03388">
        <ele>862</ele>
        <time>2023-05-08T13:12:26Z</time>
      </trkpt>
      <trkpt lat="47.81174" lon="7.03396">
        <ele>861</ele>
        <time>2023-05-08T13:12:30Z</time>
      </trkpt>
      <trkpt lat="47.81175" lon="7.03402">
        <ele>860</ele>
        <time>2023-05-08T13:12:34Z</time>
      </trkpt>
      <trkpt lat="47.81173" lon="7.03411">
        <ele>860</ele>
        <time>2023-05-08T13:12:38Z</time>
      </trkpt>
      <trkpt lat="47.8117" lon="7.03417">
        <ele>860</ele>
        <time>2023-05-08T13:12:41Z</time>
      </trkpt>
      <trkpt lat="47.81169" lon="7.03424">
        <ele>859</ele>
        <time>2023-05-08T13:12:45Z</time>
      </trkpt>
      <trkpt lat="47.81169" lon="7.03433">
        <ele>859</ele>
        <time>2023-05-08T13:12:49Z</time>
      </trkpt>
      <trkpt lat="47.81164" lon="7.0346">
        <ele>859</ele>
        <time>2023-05-08T13:13:05Z</time>
      </trkpt>
      <trkpt lat="47.81165" lon="7.03476">
        <ele>859</ele>
        <time>2023-05-08T13:13:14Z</time>
      </trkpt>
      <trkpt lat="47.81163" lon="7.03483">
        <ele>858</ele>
        <time>2023-05-08T13:13:18Z</time>
      </trkpt>
      <trkpt lat="47.81156" lon="7.035">
        <ele>857</ele>
        <time>2023-05-08T13:13:28Z</time>
      </trkpt>
      <trkpt lat="47.81153" lon="7.03511">
        <ele>856</ele>
        <time>2023-05-08T13:13:35Z</time>
      </trkpt>
      <trkpt lat="47.81142" lon="7.03527">
        <ele>855</ele>
        <time>2023-05-08T13:13:45Z</time>
      </trkpt>
      <trkpt lat="47.81141" lon="7.03553">
        <ele>852</ele>
        <time>2023-05-08T13:14:03Z</time>
      </trkpt>
      <trkpt lat="47.81142" lon="7.03572">
        <ele>850</ele>
        <time>2023-05-08T13:14:17Z</time>
      </trkpt>
      <trkpt lat="47.81138" lon="7.03576">
        <ele>849</ele>
        <time>2023-05-08T13:14:21Z</time>
      </trkpt>
      <trkpt lat="47.81134" lon="7.03585">
        <ele>849</ele>
        <time>2023-05-08T13:14:23Z</time>
      </trkpt>
      <trkpt lat="47.8113" lon="7.0359">
        <ele>849</ele>
        <time>2023-05-08T13:14:27Z</time>
      </trkpt>
      <trkpt lat="47.81126" lon="7.03594">
        <ele>848</ele>
        <time>2023-05-08T13:14:30Z</time>
      </trkpt>
      <trkpt lat="47.81122" lon="7.03597">
        <ele>848</ele>
        <time>2023-05-08T13:14:33Z</time>
      </trkpt>
      <trkpt lat="47.81113" lon="7.03601">
        <ele>847</ele>
        <time>2023-05-08T13:14:40Z</time>
      </trkpt>
      <trkpt lat="47.81108" lon="7.03601">
        <ele>846</ele>
        <time>2023-05-08T13:14:44Z</time>
      </trkpt>
      <trkpt lat="47.81104" lon="7.03605">
        <ele>846</ele>
        <time>2023-05-08T13:14:48Z</time>
      </trkpt>
      <trkpt lat="47.81101" lon="7.03611">
        <ele>845</ele>
        <time>2023-05-08T13:14:52Z</time>
      </trkpt>
      <trkpt lat="47.81095" lon="7.03615">
        <ele>844</ele>
        <time>2023-05-08T13:14:58Z</time>
      </trkpt>
      <trkpt lat="47.81092" lon="7.03621">
        <ele>843</ele>
        <time>2023-05-08T13:15:02Z</time>
      </trkpt>
      <trkpt lat="47.81088" lon="7.03624">
        <ele>843</ele>
        <time>2023-05-08T13:15:05Z</time>
      </trkpt>
      <trkpt lat="47.81085" lon="7.03634">
        <ele>842</ele>
        <time>2023-05-08T13:15:11Z</time>
      </trkpt>
      <trkpt lat="47.81081" lon="7.03639">
        <ele>841</ele>
        <time>2023-05-08T13:15:16Z</time>
      </trkpt>
      <trkpt lat="47.8107" lon="7.03673">
        <ele>837</ele>
        <time>2023-05-08T13:15:38Z</time>
      </trkpt>
      <trkpt lat="47.81068" lon="7.03686">
        <ele>835</ele>
        <time>2023-05-08T13:15:47Z</time>
      </trkpt>
      <trkpt lat="47.81063" lon="7.03703">
        <ele>834</ele>
        <time>2023-05-08T13:15:57Z</time>
      </trkpt>
      <trkpt lat="47.81058" lon="7.0371">
        <ele>833</ele>
        <time>2023-05-08T13:16:01Z</time>
      </trkpt>
      <trkpt lat="47.81056" lon="7.03719">
        <ele>833</ele>
        <time>2023-05-08T13:16:07Z</time>
      </trkpt>
      <trkpt lat="47.81051" lon="7.03731">
        <ele>832</ele>
        <time>2023-05-08T13:16:15Z</time>
      </trkpt>
      <trkpt lat="47.81049" lon="7.03738">
        <ele>831</ele>
        <time>2023-05-08T13:16:19Z</time>
      </trkpt>
      <trkpt lat="47.8104" lon="7.03755">
        <ele>830</ele>
        <time>2023-05-08T13:16:30Z</time>
      </trkpt>
      <trkpt lat="47.81035" lon="7.03764">
        <ele>829</ele>
        <time>2023-05-08T13:16:39Z</time>
      </trkpt>
      <trkpt lat="47.81023" lon="7.03773">
        <ele>826</ele>
        <time>2023-05-08T13:16:52Z</time>
      </trkpt>
      <trkpt lat="47.81018" lon="7.03775">
        <ele>824</ele>
        <time>2023-05-08T13:16:57Z</time>
      </trkpt>
      <trkpt lat="47.81011" lon="7.03776">
        <ele>824</ele>
        <time>2023-05-08T13:17:04Z</time>
      </trkpt>
      <trkpt lat="47.81001" lon="7.03774">
        <ele>823</ele>
        <time>2023-05-08T13:17:11Z</time>
      </trkpt>
      <trkpt lat="47.80987" lon="7.03767">
        <ele>821</ele>
        <time>2023-05-08T13:17:23Z</time>
      </trkpt>
      <trkpt lat="47.80955" lon="7.03777">
        <ele>816</ele>
        <time>2023-05-08T13:17:53Z</time>
      </trkpt>
      <trkpt lat="47.80948" lon="7.03775">
        <ele>815</ele>
        <time>2023-05-08T13:18:01Z</time>
      </trkpt>
      <trkpt lat="47.80943" lon="7.03778">
        <ele>815</ele>
        <time>2023-05-08T13:18:05Z</time>
      </trkpt>
      <trkpt lat="47.80938" lon="7.03776">
        <ele>814</ele>
        <time>2023-05-08T13:18:10Z</time>
      </trkpt>
      <trkpt lat="47.80929" lon="7.03782">
        <ele>812</ele>
        <time>2023-05-08T13:18:19Z</time>
      </trkpt>
      <trkpt lat="47.80923" lon="7.03789">
        <ele>810</ele>
        <time>2023-05-08T13:18:25Z</time>
      </trkpt>
      <trkpt lat="47.80918" lon="7.03791">
        <ele>810</ele>
        <time>2023-05-08T13:18:29Z</time>
      </trkpt>
      <trkpt lat="47.80914" lon="7.03795">
        <ele>810</ele>
        <time>2023-05-08T13:18:34Z</time>
      </trkpt>
      <trkpt lat="47.809" lon="7.03803">
        <ele>809</ele>
        <time>2023-05-08T13:18:47Z</time>
      </trkpt>
      <trkpt lat="47.80896" lon="7.03809">
        <ele>809</ele>
        <time>2023-05-08T13:18:50Z</time>
      </trkpt>
      <trkpt lat="47.80895" lon="7.03817">
        <ele>807</ele>
        <time>2023-05-08T13:18:59Z</time>
      </trkpt>
      <trkpt lat="47.8089" lon="7.03822">
        <ele>806</ele>
        <time>2023-05-08T13:19:02Z</time>
      </trkpt>
      <trkpt lat="47.80885" lon="7.03833">
        <ele>804</ele>
        <time>2023-05-08T13:19:09Z</time>
      </trkpt>
      <trkpt lat="47.80884" lon="7.0384">
        <ele>804</ele>
        <time>2023-05-08T13:19:14Z</time>
      </trkpt>
      <trkpt lat="47.80879" lon="7.03856">
        <ele>804</ele>
        <time>2023-05-08T13:19:25Z</time>
      </trkpt>
      <trkpt lat="47.80869" lon="7.03877">
        <ele>801</ele>
        <time>2023-05-08T13:19:40Z</time>
      </trkpt>
      <trkpt lat="47.80864" lon="7.03883">
        <ele>800</ele>
        <time>2023-05-08T13:19:44Z</time>
      </trkpt>
      <trkpt lat="47.80861" lon="7.03889">
        <ele>800</ele>
        <time>2023-05-08T13:19:47Z</time>
      </trkpt>
      <trkpt lat="47.8086" lon="7.03895">
        <ele>799</ele>
        <time>2023-05-08T13:19:51Z</time>
      </trkpt>
      <trkpt lat="47.80856" lon="7.03908">
        <ele>797</ele>
        <time>2023-05-08T13:20:00Z</time>
      </trkpt>
      <trkpt lat="47.80853" lon="7.03933">
        <ele>793</ele>
        <time>2023-05-08T13:20:16Z</time>
      </trkpt>
      <trkpt lat="47.80856" lon="7.0394">
        <ele>793</ele>
        <time>2023-05-08T13:20:20Z</time>
      </trkpt>
      <trkpt lat="47.80856" lon="7.03949">
        <ele>793</ele>
        <time>2023-05-08T13:20:25Z</time>
      </trkpt>
      <trkpt lat="47.80854" lon="7.03963">
        <ele>792</ele>
        <time>2023-05-08T13:20:32Z</time>
      </trkpt>
      <trkpt lat="47.80856" lon="7.03969">
        <ele>791</ele>
        <time>2023-05-08T13:20:36Z</time>
      </trkpt>
      <trkpt lat="47.80858" lon="7.03981">
        <ele>790</ele>
        <time>2023-05-08T13:20:46Z</time>
      </trkpt>
      <trkpt lat="47.80856" lon="7.03991">
        <ele>789</ele>
        <time>2023-05-08T13:20:53Z</time>
      </trkpt>
      <trkpt lat="47.80849" lon="7.04005">
        <ele>788</ele>
        <time>2023-05-08T13:21:03Z</time>
      </trkpt>
      <trkpt lat="47.80848" lon="7.04013">
        <ele>787</ele>
        <time>2023-05-08T13:21:07Z</time>
      </trkpt>
      <trkpt lat="47.80846" lon="7.04018">
        <ele>787</ele>
        <time>2023-05-08T13:21:11Z</time>
      </trkpt>
      <trkpt lat="47.80823" lon="7.04045">
        <ele>783</ele>
        <time>2023-05-08T13:21:35Z</time>
      </trkpt>
      <trkpt lat="47.80804" lon="7.04056">
        <ele>780</ele>
        <time>2023-05-08T13:21:51Z</time>
      </trkpt>
      <trkpt lat="47.80801" lon="7.04061">
        <ele>779</ele>
        <time>2023-05-08T13:21:55Z</time>
      </trkpt>
      <trkpt lat="47.80795" lon="7.04065">
        <ele>778</ele>
        <time>2023-05-08T13:22:02Z</time>
      </trkpt>
      <trkpt lat="47.80789" lon="7.04077">
        <ele>777</ele>
        <time>2023-05-08T13:22:12Z</time>
      </trkpt>
      <trkpt lat="47.80776" lon="7.04089">
        <ele>775</ele>
        <time>2023-05-08T13:22:25Z</time>
      </trkpt>
      <trkpt lat="47.80775" lon="7.04095">
        <ele>775</ele>
        <time>2023-05-08T13:22:28Z</time>
      </trkpt>
      <trkpt lat="47.8077" lon="7.04106">
        <ele>773</ele>
        <time>2023-05-08T13:22:37Z</time>
      </trkpt>
      <trkpt lat="47.80766" lon="7.0411">
        <ele>772</ele>
        <time>2023-05-08T13:22:41Z</time>
      </trkpt>
      <trkpt lat="47.80764" lon="7.04116">
        <ele>772</ele>
        <time>2023-05-08T13:22:44Z</time>
      </trkpt>
      <trkpt lat="47.8076" lon="7.04119">
        <ele>771</ele>
        <time>2023-05-08T13:22:49Z</time>
      </trkpt>
      <trkpt lat="47.80747" lon="7.04151">
        <ele>767</ele>
        <time>2023-05-08T13:23:15Z</time>
      </trkpt>
      <trkpt lat="47.80743" lon="7.04155">
        <ele>767</ele>
        <time>2023-05-08T13:23:18Z</time>
      </trkpt>
      <trkpt lat="47.80739" lon="7.04162">
        <ele>766</ele>
        <time>2023-05-08T13:23:24Z</time>
      </trkpt>
      <trkpt lat="47.80734" lon="7.04167">
        <ele>766</ele>
        <time>2023-05-08T13:23:27Z</time>
      </trkpt>
      <trkpt lat="47.80733" lon="7.04173">
        <ele>765</ele>
        <time>2023-05-08T13:23:31Z</time>
      </trkpt>
      <trkpt lat="47.80729" lon="7.04179">
        <ele>764</ele>
        <time>2023-05-08T13:23:36Z</time>
      </trkpt>
      <trkpt lat="47.80726" lon="7.04185">
        <ele>764</ele>
        <time>2023-05-08T13:23:39Z</time>
      </trkpt>
      <trkpt lat="47.80726" lon="7.04191">
        <ele>763</ele>
        <time>2023-05-08T13:23:43Z</time>
      </trkpt>
      <trkpt lat="47.80722" lon="7.04199">
        <ele>762</ele>
        <time>2023-05-08T13:23:46Z</time>
      </trkpt>
      <trkpt lat="47.80719" lon="7.04202">
        <ele>762</ele>
        <time>2023-05-08T13:23:50Z</time>
      </trkpt>
      <trkpt lat="47.80714" lon="7.04208">
        <ele>761</ele>
        <time>2023-05-08T13:23:54Z</time>
      </trkpt>
      <trkpt lat="47.80712" lon="7.04215">
        <ele>759</ele>
        <time>2023-05-08T13:24:02Z</time>
      </trkpt>
      <trkpt lat="47.80709" lon="7.04221">
        <ele>758</ele>
        <time>2023-05-08T13:24:07Z</time>
      </trkpt>
      <trkpt lat="47.80688" lon="7.04237">
        <ele>754</ele>
        <time>2023-05-08T13:24:25Z</time>
      </trkpt>
      <trkpt lat="47.80684" lon="7.04239">
        <ele>754</ele>
        <time>2023-05-08T13:24:29Z</time>
      </trkpt>
      <trkpt lat="47.80677" lon="7.04244">
        <ele>752</ele>
        <time>2023-05-08T13:24:39Z</time>
      </trkpt>
      <trkpt lat="47.80672" lon="7.04246">
        <ele>751</ele>
        <time>2023-05-08T13:24:44Z</time>
      </trkpt>
      <trkpt lat="47.80668" lon="7.04249">
        <ele>751</ele>
        <time>2023-05-08T13:24:47Z</time>
      </trkpt>
      <trkpt lat="47.80665" lon="7.04254">
        <ele>750</ele>
        <time>2023-05-08T13:24:50Z</time>
      </trkpt>
      <trkpt lat="47.80658" lon="7.04261">
        <ele>749</ele>
        <time>2023-05-08T13:24:57Z</time>
      </trkpt>
      <trkpt lat="47.80654" lon="7.04265">
        <ele>749</ele>
        <time>2023-05-08T13:25:00Z</time>
      </trkpt>
      <trkpt lat="47.80647" lon="7.04263">
        <ele>749</ele>
        <time>2023-05-08T13:25:13Z</time>
      </trkpt>
      <trkpt lat="47.80636" lon="7.04265">
        <ele>749</ele>
        <time>2023-05-08T13:25:21Z</time>
      </trkpt>
      <trkpt lat="47.80631" lon="7.04262">
        <ele>749</ele>
        <time>2023-05-08T13:25:25Z</time>
      </trkpt>
      <trkpt lat="47.80626" lon="7.04262">
        <ele>749</ele>
        <time>2023-05-08T13:25:29Z</time>
      </trkpt>
      <trkpt lat="47.80616" lon="7.04266">
        <ele>750</ele>
        <time>2023-05-08T13:25:38Z</time>
      </trkpt>
      <trkpt lat="47.80612" lon="7.04269">
        <ele>750</ele>
        <time>2023-05-08T13:25:42Z</time>
      </trkpt>
      <trkpt lat="47.80608" lon="7.04273">
        <ele>750</ele>
        <time>2023-05-08T13:25:46Z</time>
      </trkpt>
      <trkpt lat="47.80584" lon="7.04317">
        <ele>754</ele>
        <time>2023-05-08T13:26:20Z</time>
      </trkpt>
      <trkpt lat="47.80577" lon="7.04326">
        <ele>755</ele>
        <time>2023-05-08T13:26:29Z</time>
      </trkpt>
      <trkpt lat="47.80565" lon="7.04338">
        <ele>757</ele>
        <time>2023-05-08T13:26:43Z</time>
      </trkpt>
      <trkpt lat="47.80562" lon="7.04343">
        <ele>757</ele>
        <time>2023-05-08T13:26:47Z</time>
      </trkpt>
      <trkpt lat="47.80559" lon="7.04347">
        <ele>758</ele>
        <time>2023-05-08T13:26:51Z</time>
      </trkpt>
      <trkpt lat="47.80554" lon="7.04351">
        <ele>759</ele>
        <time>2023-05-08T13:26:57Z</time>
      </trkpt>
      <trkpt lat="47.8054" lon="7.04369">
        <ele>761</ele>
        <time>2023-05-08T13:27:13Z</time>
      </trkpt>
      <trkpt lat="47.80525" lon="7.04381">
        <ele>763</ele>
        <time>2023-05-08T13:27:29Z</time>
      </trkpt>
      <trkpt lat="47.80498" lon="7.04416">
        <ele>767</ele>
        <time>2023-05-08T13:28:00Z</time>
      </trkpt>
      <trkpt lat="47.80476" lon="7.04433">
        <ele>770</ele>
        <time>2023-05-08T13:28:24Z</time>
      </trkpt>
      <trkpt lat="47.80467" lon="7.04437">
        <ele>771</ele>
        <time>2023-05-08T13:28:34Z</time>
      </trkpt>
      <trkpt lat="47.8044" lon="7.04461">
        <ele>775</ele>
        <time>2023-05-08T13:29:07Z</time>
      </trkpt>
      <trkpt lat="47.80429" lon="7.04476">
        <ele>776</ele>
        <time>2023-05-08T13:29:20Z</time>
      </trkpt>
      <trkpt lat="47.80426" lon="7.04482">
        <ele>776</ele>
        <time>2023-05-08T13:29:24Z</time>
      </trkpt>
      <trkpt lat="47.80423" lon="7.04496">
        <ele>777</ele>
        <time>2023-05-08T13:29:34Z</time>
      </trkpt>
      <trkpt lat="47.80424" lon="7.0451">
        <ele>778</ele>
        <time>2023-05-08T13:29:42Z</time>
      </trkpt>
      <trkpt lat="47.8043" lon="7.04537">
        <ele>777</ele>
        <time>2023-05-08T13:29:59Z</time>
      </trkpt>
      <trkpt lat="47.80434" lon="7.04539">
        <ele>776</ele>
        <time>2023-05-08T13:30:03Z</time>
      </trkpt>
      <trkpt lat="47.80445" lon="7.04565">
        <ele>775</ele>
        <time>2023-05-08T13:30:19Z</time>
      </trkpt>
      <trkpt lat="47.80449" lon="7.04579">
        <ele>775</ele>
        <time>2023-05-08T13:30:27Z</time>
      </trkpt>
      <trkpt lat="47.80453" lon="7.04596">
        <ele>774</ele>
        <time>2023-05-08T13:30:37Z</time>
      </trkpt>
      <trkpt lat="47.80457" lon="7.046">
        <ele>773</ele>
        <time>2023-05-08T13:30:40Z</time>
      </trkpt>
      <trkpt lat="47.8047" lon="7.04623">
        <ele>772</ele>
        <time>2023-05-08T13:30:58Z</time>
      </trkpt>
      <trkpt lat="47.80477" lon="7.04644">
        <ele>771</ele>
        <time>2023-05-08T13:31:11Z</time>
      </trkpt>
      <trkpt lat="47.8048" lon="7.04649">
        <ele>771</ele>
        <time>2023-05-08T13:31:16Z</time>
      </trkpt>
      <trkpt lat="47.80482" lon="7.04657">
        <ele>771</ele>
        <time>2023-05-08T13:31:20Z</time>
      </trkpt>
      <trkpt lat="47.80488" lon="7.04669">
        <ele>770</ele>
        <time>2023-05-08T13:31:28Z</time>
      </trkpt>
      <trkpt lat="47.8049" lon="7.04676">
        <ele>770</ele>
        <time>2023-05-08T13:31:32Z</time>
      </trkpt>
      <trkpt lat="47.80489" lon="7.04682">
        <ele>770</ele>
        <time>2023-05-08T13:31:36Z</time>
      </trkpt>
      <trkpt lat="47.8049" lon="7.04691">
        <ele>770</ele>
        <time>2023-05-08T13:31:41Z</time>
      </trkpt>
      <trkpt lat="47.80493" lon="7.04706">
        <ele>769</ele>
        <time>2023-05-08T13:31:51Z</time>
      </trkpt>
      <trkpt lat="47.80493" lon="7.04713">
        <ele>768</ele>
        <time>2023-05-08T13:31:55Z</time>
      </trkpt>
      <trkpt lat="47.805" lon="7.04741">
        <ele>767</ele>
        <time>2023-05-08T13:32:11Z</time>
      </trkpt>
      <trkpt lat="47.80504" lon="7.04751">
        <ele>767</ele>
        <time>2023-05-08T13:32:18Z</time>
      </trkpt>
      <trkpt lat="47.80514" lon="7.04805">
        <ele>765</ele>
        <time>2023-05-08T13:32:53Z</time>
      </trkpt>
      <trkpt lat="47.80514" lon="7.04813">
        <ele>765</ele>
        <time>2023-05-08T13:32:58Z</time>
      </trkpt>
      <trkpt lat="47.80514" lon="7.0482">
        <ele>764</ele>
        <time>2023-05-08T13:33:03Z</time>
      </trkpt>
      <trkpt lat="47.80516" lon="7.04826">
        <ele>764</ele>
        <time>2023-05-08T13:33:07Z</time>
      </trkpt>
      <trkpt lat="47.80518" lon="7.04849">
        <ele>763</ele>
        <time>2023-05-08T13:33:21Z</time>
      </trkpt>
      <trkpt lat="47.80522" lon="7.04867">
        <ele>763</ele>
        <time>2023-05-08T13:33:29Z</time>
      </trkpt>
      <trkpt lat="47.80521" lon="7.04876">
        <ele>763</ele>
        <time>2023-05-08T13:33:34Z</time>
      </trkpt>
      <trkpt lat="47.80521" lon="7.04895">
        <ele>762</ele>
        <time>2023-05-08T13:33:40Z</time>
      </trkpt>
      <trkpt lat="47.80517" lon="7.04903">
        <ele>762</ele>
        <time>2023-05-08T13:33:47Z</time>
      </trkpt>
      <trkpt lat="47.80513" lon="7.04923">
        <ele>761</ele>
        <time>2023-05-08T13:33:57Z</time>
      </trkpt>
      <trkpt lat="47.8051" lon="7.0493">
        <ele>760</ele>
        <time>2023-05-08T13:34:01Z</time>
      </trkpt>
      <trkpt lat="47.80504" lon="7.0494">
        <ele>760</ele>
        <time>2023-05-08T13:34:09Z</time>
      </trkpt>
      <trkpt lat="47.805" lon="7.04948">
        <ele>759</ele>
        <time>2023-05-08T13:34:17Z</time>
      </trkpt>
      <trkpt lat="47.80498" lon="7.04958">
        <ele>759</ele>
        <time>2023-05-08T13:34:24Z</time>
      </trkpt>
      <trkpt lat="47.80499" lon="7.04965">
        <ele>759</ele>
        <time>2023-05-08T13:34:27Z</time>
      </trkpt>
      <trkpt lat="47.80491" lon="7.04977">
        <ele>759</ele>
        <time>2023-05-08T13:34:37Z</time>
      </trkpt>
      <trkpt lat="47.80489" lon="7.04982">
        <ele>758</ele>
        <time>2023-05-08T13:34:41Z</time>
      </trkpt>
      <trkpt lat="47.80474" lon="7.04993">
        <ele>758</ele>
        <time>2023-05-08T13:34:56Z</time>
      </trkpt>
      <trkpt lat="47.80471" lon="7.05">
        <ele>757</ele>
        <time>2023-05-08T13:35:00Z</time>
      </trkpt>
      <trkpt lat="47.80466" lon="7.05004">
        <ele>757</ele>
        <time>2023-05-08T13:35:04Z</time>
      </trkpt>
      <trkpt lat="47.80446" lon="7.05006">
        <ele>756</ele>
        <time>2023-05-08T13:35:17Z</time>
      </trkpt>
      <trkpt lat="47.80428" lon="7.04994">
        <ele>755</ele>
        <time>2023-05-08T13:35:35Z</time>
      </trkpt>
      <trkpt lat="47.80423" lon="7.04996">
        <ele>755</ele>
        <time>2023-05-08T13:35:40Z</time>
      </trkpt>
      <trkpt lat="47.80419" lon="7.05007">
        <ele>754</ele>
        <time>2023-05-08T13:35:48Z</time>
      </trkpt>
      <trkpt lat="47.80416" lon="7.05036">
        <ele>752</ele>
        <time>2023-05-08T13:36:04Z</time>
      </trkpt>
      <trkpt lat="47.80415" lon="7.05042">
        <ele>752</ele>
        <time>2023-05-08T13:36:06Z</time>
      </trkpt>
      <trkpt lat="47.80411" lon="7.05047">
        <ele>752</ele>
        <time>2023-05-08T13:36:11Z</time>
      </trkpt>
      <trkpt lat="47.80406" lon="7.05056">
        <ele>752</ele>
        <time>2023-05-08T13:36:19Z</time>
      </trkpt>
      <trkpt lat="47.80398" lon="7.05066">
        <ele>751</ele>
        <time>2023-05-08T13:36:28Z</time>
      </trkpt>
      <trkpt lat="47.80394" lon="7.0507">
        <ele>751</ele>
        <time>2023-05-08T13:36:33Z</time>
      </trkpt>
      <trkpt lat="47.80389" lon="7.05083">
        <ele>751</ele>
        <time>2023-05-08T13:36:41Z</time>
      </trkpt>
      <trkpt lat="47.80384" lon="7.05087">
        <ele>751</ele>
        <time>2023-05-08T13:36:45Z</time>
      </trkpt>
      <trkpt lat="47.80382" lon="7.05094">
        <ele>750</ele>
        <time>2023-05-08T13:36:49Z</time>
      </trkpt>
      <trkpt lat="47.80372" lon="7.05109">
        <ele>750</ele>
        <time>2023-05-08T13:37:01Z</time>
      </trkpt>
      <trkpt lat="47.80366" lon="7.05128">
        <ele>749</ele>
        <time>2023-05-08T13:37:13Z</time>
      </trkpt>
      <trkpt lat="47.80363" lon="7.05133">
        <ele>749</ele>
        <time>2023-05-08T13:37:17Z</time>
      </trkpt>
      <trkpt lat="47.80358" lon="7.05137">
        <ele>749</ele>
        <time>2023-05-08T13:37:22Z</time>
      </trkpt>
      <trkpt lat="47.80347" lon="7.05154">
        <ele>748</ele>
        <time>2023-05-08T13:37:34Z</time>
      </trkpt>
      <trkpt lat="47.80343" lon="7.05163">
        <ele>748</ele>
        <time>2023-05-08T13:37:41Z</time>
      </trkpt>
      <trkpt lat="47.8034" lon="7.05168">
        <ele>748</ele>
        <time>2023-05-08T13:37:45Z</time>
      </trkpt>
      <trkpt lat="47.80335" lon="7.0517">
        <ele>747</ele>
        <time>2023-05-08T13:37:48Z</time>
      </trkpt>
      <trkpt lat="47.80331" lon="7.05175">
        <ele>747</ele>
        <time>2023-05-08T13:37:53Z</time>
      </trkpt>
      <trkpt lat="47.80316" lon="7.05183">
        <ele>747</ele>
        <time>2023-05-08T13:38:05Z</time>
      </trkpt>
      <trkpt lat="47.80308" lon="7.0519">
        <ele>746</ele>
        <time>2023-05-08T13:38:12Z</time>
      </trkpt>
      <trkpt lat="47.80291" lon="7.052">
        <ele>746</ele>
        <time>2023-05-08T13:38:29Z</time>
      </trkpt>
      <trkpt lat="47.80282" lon="7.0521">
        <ele>745</ele>
        <time>2023-05-08T13:38:39Z</time>
      </trkpt>
      <trkpt lat="47.80279" lon="7.05215">
        <ele>745</ele>
        <time>2023-05-08T13:38:43Z</time>
      </trkpt>
      <trkpt lat="47.80275" lon="7.05219">
        <ele>745</ele>
        <time>2023-05-08T13:38:47Z</time>
      </trkpt>
      <trkpt lat="47.80273" lon="7.05226">
        <ele>745</ele>
        <time>2023-05-08T13:38:52Z</time>
      </trkpt>
      <trkpt lat="47.80269" lon="7.0523">
        <ele>745</ele>
        <time>2023-05-08T13:38:56Z</time>
      </trkpt>
      <trkpt lat="47.80264" lon="7.05243">
        <ele>745</ele>
        <time>2023-05-08T13:39:05Z</time>
      </trkpt>
      <trkpt lat="47.80261" lon="7.05247">
        <ele>745</ele>
        <time>2023-05-08T13:39:09Z</time>
      </trkpt>
      <trkpt lat="47.80253" lon="7.05255">
        <ele>745</ele>
        <time>2023-05-08T13:39:19Z</time>
      </trkpt>
      <trkpt lat="47.80251" lon="7.05262">
        <ele>745</ele>
        <time>2023-05-08T13:39:24Z</time>
      </trkpt>
      <trkpt lat="47.80243" lon="7.05274">
        <ele>745</ele>
        <time>2023-05-08T13:39:34Z</time>
      </trkpt>
      <trkpt lat="47.80242" lon="7.05279">
        <ele>745</ele>
        <time>2023-05-08T13:39:37Z</time>
      </trkpt>
      <trkpt lat="47.80228" lon="7.05303">
        <ele>746</ele>
        <time>2023-05-08T13:39:54Z</time>
      </trkpt>
      <trkpt lat="47.80228" lon="7.05311">
        <ele>746</ele>
        <time>2023-05-08T13:39:58Z</time>
      </trkpt>
      <trkpt lat="47.80228" lon="7.05317">
        <ele>747</ele>
        <time>2023-05-08T13:40:03Z</time>
      </trkpt>
      <trkpt lat="47.80232" lon="7.05328">
        <ele>748</ele>
        <time>2023-05-08T13:40:14Z</time>
      </trkpt>
      <trkpt lat="47.80245" lon="7.0535">
        <ele>748</ele>
        <time>2023-05-08T13:40:31Z</time>
      </trkpt>
      <trkpt lat="47.80249" lon="7.05363">
        <ele>748</ele>
        <time>2023-05-08T13:40:40Z</time>
      </trkpt>
      <trkpt lat="47.80252" lon="7.05374">
        <ele>748</ele>
        <time>2023-05-08T13:40:50Z</time>
      </trkpt>
      <trkpt lat="47.80261" lon="7.05385">
        <ele>747</ele>
        <time>2023-05-08T13:41:01Z</time>
      </trkpt>
      <trkpt lat="47.80266" lon="7.0539">
        <ele>746</ele>
        <time>2023-05-08T13:41:07Z</time>
      </trkpt>
      <trkpt lat="47.8027" lon="7.05397">
        <ele>745</ele>
        <time>2023-05-08T13:41:15Z</time>
      </trkpt>
      <trkpt lat="47.80284" lon="7.0541">
        <ele>744</ele>
        <time>2023-05-08T13:41:31Z</time>
      </trkpt>
      <trkpt lat="47.80288" lon="7.05414">
        <ele>744</ele>
        <time>2023-05-08T13:41:34Z</time>
      </trkpt>
      <trkpt lat="47.80288" lon="7.05422">
        <ele>744</ele>
        <time>2023-05-08T13:41:38Z</time>
      </trkpt>
      <trkpt lat="47.80292" lon="7.05426">
        <ele>744</ele>
        <time>2023-05-08T13:41:42Z</time>
      </trkpt>
      <trkpt lat="47.80303" lon="7.05434">
        <ele>744</ele>
        <time>2023-05-08T13:41:50Z</time>
      </trkpt>
      <trkpt lat="47.80305" lon="7.05445">
        <ele>742</ele>
        <time>2023-05-08T13:41:59Z</time>
      </trkpt>
      <trkpt lat="47.80309" lon="7.05455">
        <ele>740</ele>
        <time>2023-05-08T13:42:08Z</time>
      </trkpt>
      <trkpt lat="47.80311" lon="7.05462">
        <ele>738</ele>
        <time>2023-05-08T13:42:17Z</time>
      </trkpt>
      <trkpt lat="47.80351" lon="7.05453">
        <ele>732</ele>
        <time>2023-05-08T13:42:55Z</time>
      </trkpt>
      <trkpt lat="47.80356" lon="7.05455">
        <ele>731</ele>
        <time>2023-05-08T13:42:58Z</time>
      </trkpt>
      <trkpt lat="47.80369" lon="7.05465">
        <ele>729</ele>
        <time>2023-05-08T13:43:15Z</time>
      </trkpt>
      <trkpt lat="47.80381" lon="7.05466">
        <ele>730</ele>
        <time>2023-05-08T13:43:21Z</time>
      </trkpt>
      <trkpt lat="47.80383" lon="7.05472">
        <ele>729</ele>
        <time>2023-05-08T13:43:24Z</time>
      </trkpt>
      <trkpt lat="47.80386" lon="7.05477">
        <ele>728</ele>
        <time>2023-05-08T13:43:29Z</time>
      </trkpt>
      <trkpt lat="47.80391" lon="7.0548">
        <ele>727</ele>
        <time>2023-05-08T13:43:38Z</time>
      </trkpt>
      <trkpt lat="47.80396" lon="7.05481">
        <ele>726</ele>
        <time>2023-05-08T13:43:42Z</time>
      </trkpt>
      <trkpt lat="47.80406" lon="7.05487">
        <ele>725</ele>
        <time>2023-05-08T13:43:48Z</time>
      </trkpt>
      <trkpt lat="47.80413" lon="7.05486">
        <ele>723</ele>
        <time>2023-05-08T13:43:58Z</time>
      </trkpt>
      <trkpt lat="47.80416" lon="7.05479">
        <ele>723</ele>
        <time>2023-05-08T13:44:04Z</time>
      </trkpt>
      <trkpt lat="47.80424" lon="7.0548">
        <ele>722</ele>
        <time>2023-05-08T13:44:11Z</time>
      </trkpt>
      <trkpt lat="47.80429" lon="7.05482">
        <ele>721</ele>
        <time>2023-05-08T13:44:15Z</time>
      </trkpt>
      <trkpt lat="47.80434" lon="7.05481">
        <ele>721</ele>
        <time>2023-05-08T13:44:18Z</time>
      </trkpt>
      <trkpt lat="47.8044" lon="7.05486">
        <ele>720</ele>
        <time>2023-05-08T13:44:21Z</time>
      </trkpt>
      <trkpt lat="47.80442" lon="7.05493">
        <ele>719</ele>
        <time>2023-05-08T13:44:26Z</time>
      </trkpt>
      <trkpt lat="47.80446" lon="7.05508">
        <ele>717</ele>
        <time>2023-05-08T13:44:33Z</time>
      </trkpt>
      <trkpt lat="47.80447" lon="7.05522">
        <ele>714</ele>
        <time>2023-05-08T13:44:42Z</time>
      </trkpt>
      <trkpt lat="47.80454" lon="7.05536">
        <ele>713</ele>
        <time>2023-05-08T13:44:54Z</time>
      </trkpt>
      <trkpt lat="47.80452" lon="7.0555">
        <ele>713</ele>
        <time>2023-05-08T13:45:01Z</time>
      </trkpt>
      <trkpt lat="47.80449" lon="7.05558">
        <ele>713</ele>
        <time>2023-05-08T13:45:05Z</time>
      </trkpt>
      <trkpt lat="47.80449" lon="7.05566">
        <ele>713</ele>
        <time>2023-05-08T13:45:09Z</time>
      </trkpt>
      <trkpt lat="47.80448" lon="7.05572">
        <ele>713</ele>
        <time>2023-05-08T13:45:13Z</time>
      </trkpt>
      <trkpt lat="47.80449" lon="7.0558">
        <ele>713</ele>
        <time>2023-05-08T13:45:16Z</time>
      </trkpt>
      <trkpt lat="47.80447" lon="7.05586">
        <ele>712</ele>
        <time>2023-05-08T13:45:20Z</time>
      </trkpt>
      <trkpt lat="47.80445" lon="7.05596">
        <ele>712</ele>
        <time>2023-05-08T13:45:26Z</time>
      </trkpt>
      <trkpt lat="47.80445" lon="7.05611">
        <ele>712</ele>
        <time>2023-05-08T13:45:34Z</time>
      </trkpt>
      <trkpt lat="47.80443" lon="7.0562">
        <ele>712</ele>
        <time>2023-05-08T13:45:41Z</time>
      </trkpt>
      <trkpt lat="47.80442" lon="7.05627">
        <ele>713</ele>
        <time>2023-05-08T13:45:46Z</time>
      </trkpt>
      <trkpt lat="47.8044" lon="7.05635">
        <ele>714</ele>
        <time>2023-05-08T13:45:51Z</time>
      </trkpt>
      <trkpt lat="47.80438" lon="7.05642">
        <ele>714</ele>
        <time>2023-05-08T13:45:57Z</time>
      </trkpt>
      <trkpt lat="47.80437" lon="7.05648">
        <ele>714</ele>
        <time>2023-05-08T13:46:02Z</time>
      </trkpt>
      <trkpt lat="47.8044" lon="7.05654">
        <ele>713</ele>
        <time>2023-05-08T13:46:08Z</time>
      </trkpt>
      <trkpt lat="47.80435" lon="7.05661">
        <ele>713</ele>
        <time>2023-05-08T13:46:12Z</time>
      </trkpt>
      <trkpt lat="47.80436" lon="7.05668">
        <ele>712</ele>
        <time>2023-05-08T13:46:18Z</time>
      </trkpt>
      <trkpt lat="47.80435" lon="7.05686">
        <ele>711</ele>
        <time>2023-05-08T13:46:29Z</time>
      </trkpt>
      <trkpt lat="47.80437" lon="7.05694">
        <ele>711</ele>
        <time>2023-05-08T13:46:33Z</time>
      </trkpt>
      <trkpt lat="47.80438" lon="7.05701">
        <ele>710</ele>
        <time>2023-05-08T13:46:39Z</time>
      </trkpt>
      <trkpt lat="47.80438" lon="7.05708">
        <ele>710</ele>
        <time>2023-05-08T13:46:42Z</time>
      </trkpt>
      <trkpt lat="47.80439" lon="7.05736">
        <ele>705</ele>
        <time>2023-05-08T13:47:04Z</time>
      </trkpt>
      <trkpt lat="47.80444" lon="7.0574">
        <ele>703</ele>
        <time>2023-05-08T13:47:12Z</time>
      </trkpt>
      <trkpt lat="47.80446" lon="7.05747">
        <ele>702</ele>
        <time>2023-05-08T13:47:17Z</time>
      </trkpt>
      <trkpt lat="47.80449" lon="7.05758">
        <ele>699</ele>
        <time>2023-05-08T13:47:27Z</time>
      </trkpt>
      <trkpt lat="47.80454" lon="7.05768">
        <ele>697</ele>
        <time>2023-05-08T13:47:36Z</time>
      </trkpt>
      <trkpt lat="47.80458" lon="7.05782">
        <ele>695</ele>
        <time>2023-05-08T13:47:43Z</time>
      </trkpt>
      <trkpt lat="47.80467" lon="7.05789">
        <ele>695</ele>
        <time>2023-05-08T13:47:50Z</time>
      </trkpt>
      <trkpt lat="47.80469" lon="7.05796">
        <ele>695</ele>
        <time>2023-05-08T13:47:55Z</time>
      </trkpt>
      <trkpt lat="47.80472" lon="7.05806">
        <ele>695</ele>
        <time>2023-05-08T13:48:01Z</time>
      </trkpt>
      <trkpt lat="47.80473" lon="7.05815">
        <ele>695</ele>
        <time>2023-05-08T13:48:07Z</time>
      </trkpt>
      <trkpt lat="47.80473" lon="7.05836">
        <ele>694</ele>
        <time>2023-05-08T13:48:19Z</time>
      </trkpt>
      <trkpt lat="47.80473" lon="7.05847">
        <ele>694</ele>
        <time>2023-05-08T13:48:24Z</time>
      </trkpt>
      <trkpt lat="47.80477" lon="7.05855">
        <ele>696</ele>
        <time>2023-05-08T13:48:32Z</time>
      </trkpt>
      <trkpt lat="47.80475" lon="7.05862">
        <ele>696</ele>
        <time>2023-05-08T13:48:34Z</time>
      </trkpt>
      <trkpt lat="47.8047" lon="7.05862">
        <ele>696</ele>
        <time>2023-05-08T13:48:36Z</time>
      </trkpt>
      <trkpt lat="47.80461" lon="7.05872">
        <ele>697</ele>
        <time>2023-05-08T13:48:41Z</time>
      </trkpt>
      <trkpt lat="47.80461" lon="7.05881">
        <ele>698</ele>
        <time>2023-05-08T13:48:50Z</time>
      </trkpt>
      <trkpt lat="47.80451" lon="7.05889">
        <ele>701</ele>
        <time>2023-05-08T13:49:02Z</time>
      </trkpt>
      <trkpt lat="47.80442" lon="7.05889">
        <ele>703</ele>
        <time>2023-05-08T13:49:09Z</time>
      </trkpt>
      <trkpt lat="47.80439" lon="7.05892">
        <ele>703</ele>
        <time>2023-05-08T13:49:12Z</time>
      </trkpt>
      <trkpt lat="47.80434" lon="7.05893">
        <ele>703</ele>
        <time>2023-05-08T13:49:16Z</time>
      </trkpt>
      <trkpt lat="47.80426" lon="7.05899">
        <ele>704</ele>
        <time>2023-05-08T13:49:26Z</time>
      </trkpt>
      <trkpt lat="47.80413" lon="7.05911">
        <ele>705</ele>
        <time>2023-05-08T13:49:38Z</time>
      </trkpt>
      <trkpt lat="47.80407" lon="7.05915">
        <ele>705</ele>
        <time>2023-05-08T13:49:45Z</time>
      </trkpt>
      <trkpt lat="47.80403" lon="7.05919">
        <ele>706</ele>
        <time>2023-05-08T13:49:50Z</time>
      </trkpt>
      <trkpt lat="47.80398" lon="7.05919">
        <ele>706</ele>
        <time>2023-05-08T13:49:53Z</time>
      </trkpt>
      <trkpt lat="47.80395" lon="7.05925">
        <ele>706</ele>
        <time>2023-05-08T13:49:57Z</time>
      </trkpt>
      <trkpt lat="47.80392" lon="7.05931">
        <ele>707</ele>
        <time>2023-05-08T13:50:01Z</time>
      </trkpt>
      <trkpt lat="47.80381" lon="7.05952">
        <ele>710</ele>
        <time>2023-05-08T13:50:21Z</time>
      </trkpt>
      <trkpt lat="47.80379" lon="7.05958">
        <ele>710</ele>
        <time>2023-05-08T13:50:25Z</time>
      </trkpt>
      <trkpt lat="47.80375" lon="7.05965">
        <ele>711</ele>
        <time>2023-05-08T13:50:30Z</time>
      </trkpt>
      <trkpt lat="47.8037" lon="7.0597">
        <ele>711</ele>
        <time>2023-05-08T13:50:35Z</time>
      </trkpt>
      <trkpt lat="47.80368" lon="7.05976">
        <ele>712</ele>
        <time>2023-05-08T13:50:38Z</time>
      </trkpt>
      <trkpt lat="47.80369" lon="7.05983">
        <ele>712</ele>
        <time>2023-05-08T13:50:41Z</time>
      </trkpt>
      <trkpt lat="47.80368" lon="7.0599">
        <ele>712</ele>
        <time>2023-05-08T13:50:45Z</time>
      </trkpt>
      <trkpt lat="47.80373" lon="7.06003">
        <ele>713</ele>
        <time>2023-05-08T13:50:52Z</time>
      </trkpt>
      <trkpt lat="47.80374" lon="7.0601">
        <ele>714</ele>
        <time>2023-05-08T13:50:55Z</time>
      </trkpt>
      <trkpt lat="47.80377" lon="7.06016">
        <ele>714</ele>
        <time>2023-05-08T13:50:58Z</time>
      </trkpt>
      <trkpt lat="47.80381" lon="7.06029">
        <ele>714</ele>
        <time>2023-05-08T13:51:06Z</time>
      </trkpt>
      <trkpt lat="47.80381" lon="7.06039">
        <ele>715</ele>
        <time>2023-05-08T13:51:12Z</time>
      </trkpt>
      <trkpt lat="47.80379" lon="7.06046">
        <ele>715</ele>
        <time>2023-05-08T13:51:19Z</time>
      </trkpt>
      <trkpt lat="47.80378" lon="7.06062">
        <ele>715</ele>
        <time>2023-05-08T13:51:25Z</time>
      </trkpt>
      <trkpt lat="47.80374" lon="7.06084">
        <ele>715</ele>
        <time>2023-05-08T13:51:37Z</time>
      </trkpt>
      <trkpt lat="47.80374" lon="7.06091">
        <ele>715</ele>
        <time>2023-05-08T13:51:41Z</time>
      </trkpt>
      <trkpt lat="47.80377" lon="7.061">
        <ele>715</ele>
        <time>2023-05-08T13:51:47Z</time>
      </trkpt>
      <trkpt lat="47.80387" lon="7.06118">
        <ele>713</ele>
        <time>2023-05-08T13:52:03Z</time>
      </trkpt>
      <trkpt lat="47.80387" lon="7.06125">
        <ele>713</ele>
        <time>2023-05-08T13:52:08Z</time>
      </trkpt>
      <trkpt lat="47.80375" lon="7.06153">
        <ele>711</ele>
        <time>2023-05-08T13:52:24Z</time>
      </trkpt>
      <trkpt lat="47.80374" lon="7.06166">
        <ele>711</ele>
        <time>2023-05-08T13:52:30Z</time>
      </trkpt>
      <trkpt lat="47.80378" lon="7.06221">
        <ele>708</ele>
        <time>2023-05-08T13:53:01Z</time>
      </trkpt>
      <trkpt lat="47.8038" lon="7.06258">
        <ele>706</ele>
        <time>2023-05-08T13:53:22Z</time>
      </trkpt>
      <trkpt lat="47.8038" lon="7.06287">
        <ele>706</ele>
        <time>2023-05-08T13:53:39Z</time>
      </trkpt>
      <trkpt lat="47.8038" lon="7.063">
        <ele>706</ele>
        <time>2023-05-08T13:53:47Z</time>
      </trkpt>
      <trkpt lat="47.80379" lon="7.06306">
        <ele>707</ele>
        <time>2023-05-08T13:53:51Z</time>
      </trkpt>
      <trkpt lat="47.8038" lon="7.06314">
        <ele>707</ele>
        <time>2023-05-08T13:53:54Z</time>
      </trkpt>
      <trkpt lat="47.80375" lon="7.06345">
        <ele>706</ele>
        <time>2023-05-08T13:54:15Z</time>
      </trkpt>
      <trkpt lat="47.80372" lon="7.0635">
        <ele>706</ele>
        <time>2023-05-08T13:54:19Z</time>
      </trkpt>
      <trkpt lat="47.80368" lon="7.06363">
        <ele>705</ele>
        <time>2023-05-08T13:54:27Z</time>
      </trkpt>
      <trkpt lat="47.80344" lon="7.06417">
        <ele>704</ele>
        <time>2023-05-08T13:55:03Z</time>
      </trkpt>
      <trkpt lat="47.80342" lon="7.06423">
        <ele>704</ele>
        <time>2023-05-08T13:55:07Z</time>
      </trkpt>
      <trkpt lat="47.80334" lon="7.06438">
        <ele>704</ele>
        <time>2023-05-08T13:55:18Z</time>
      </trkpt>
      <trkpt lat="47.80332" lon="7.0645">
        <ele>705</ele>
        <time>2023-05-08T13:55:26Z</time>
      </trkpt>
      <trkpt lat="47.80325" lon="7.06482">
        <ele>706</ele>
        <time>2023-05-08T13:55:46Z</time>
      </trkpt>
      <trkpt lat="47.8032" lon="7.06501">
        <ele>707</ele>
        <time>2023-05-08T13:55:59Z</time>
      </trkpt>
      <trkpt lat="47.80318" lon="7.065">
        <ele>706</ele>
        <time>2023-05-08T13:56:24Z</time>
      </trkpt>
      <trkpt lat="47.80318" lon="7.06506">
        <ele>706</ele>
        <time>2023-05-08T13:56:28Z</time>
      </trkpt>
      <trkpt lat="47.80316" lon="7.06513">
        <ele>707</ele>
        <time>2023-05-08T13:56:33Z</time>
      </trkpt>
      <trkpt lat="47.80315" lon="7.0652">
        <ele>706</ele>
        <time>2023-05-08T13:56:37Z</time>
      </trkpt>
      <trkpt lat="47.80315" lon="7.06526">
        <ele>706</ele>
        <time>2023-05-08T13:56:41Z</time>
      </trkpt>
      <trkpt lat="47.80313" lon="7.06547">
        <ele>705</ele>
        <time>2023-05-08T13:56:53Z</time>
      </trkpt>
      <trkpt lat="47.80316" lon="7.06582">
        <ele>705</ele>
        <time>2023-05-08T13:57:12Z</time>
      </trkpt>
      <trkpt lat="47.80319" lon="7.0659">
        <ele>706</ele>
        <time>2023-05-08T13:57:18Z</time>
      </trkpt>
      <trkpt lat="47.80328" lon="7.06614">
        <ele>705</ele>
        <time>2023-05-08T13:57:34Z</time>
      </trkpt>
      <trkpt lat="47.80339" lon="7.06629">
        <ele>705</ele>
        <time>2023-05-08T13:57:48Z</time>
      </trkpt>
      <trkpt lat="47.80343" lon="7.06632">
        <ele>705</ele>
        <time>2023-05-08T13:57:52Z</time>
      </trkpt>
      <trkpt lat="47.80345" lon="7.06639">
        <ele>704</ele>
        <time>2023-05-08T13:57:59Z</time>
      </trkpt>
      <trkpt lat="47.80367" lon="7.06675">
        <ele>698</ele>
        <time>2023-05-08T13:58:37Z</time>
      </trkpt>
      <trkpt lat="47.80377" lon="7.06699">
        <ele>695</ele>
        <time>2023-05-08T13:59:01Z</time>
      </trkpt>
      <trkpt lat="47.80376" lon="7.06707">
        <ele>694</ele>
        <time>2023-05-08T13:59:05Z</time>
      </trkpt>
      <trkpt lat="47.80378" lon="7.06748">
        <ele>690</ele>
        <time>2023-05-08T13:59:36Z</time>
      </trkpt>
      <trkpt lat="47.80378" lon="7.06756">
        <ele>689</ele>
        <time>2023-05-08T13:59:41Z</time>
      </trkpt>
      <trkpt lat="47.80374" lon="7.06762">
        <ele>689</ele>
        <time>2023-05-08T13:59:45Z</time>
      </trkpt>
      <trkpt lat="47.8037" lon="7.06768">
        <ele>688</ele>
        <time>2023-05-08T13:59:51Z</time>
      </trkpt>
      <trkpt lat="47.80366" lon="7.06775">
        <ele>687</ele>
        <time>2023-05-08T13:59:58Z</time>
      </trkpt>
      <trkpt lat="47.80359" lon="7.06783">
        <ele>685</ele>
        <time>2023-05-08T14:00:07Z</time>
      </trkpt>
      <trkpt lat="47.80354" lon="7.06787">
        <ele>684</ele>
        <time>2023-05-08T14:00:14Z</time>
      </trkpt>
      <trkpt lat="47.80327" lon="7.06812">
        <ele>680</ele>
        <time>2023-05-08T14:00:47Z</time>
      </trkpt>
      <trkpt lat="47.80316" lon="7.06821">
        <ele>677</ele>
        <time>2023-05-08T14:01:03Z</time>
      </trkpt>
      <trkpt lat="47.80303" lon="7.06835">
        <ele>674</ele>
        <time>2023-05-08T14:01:18Z</time>
      </trkpt>
      <trkpt lat="47.80296" lon="7.06847">
        <ele>673</ele>
        <time>2023-05-08T14:01:29Z</time>
      </trkpt>
      <trkpt lat="47.80277" lon="7.06867">
        <ele>670</ele>
        <time>2023-05-08T14:01:55Z</time>
      </trkpt>
      <trkpt lat="47.80272" lon="7.06873">
        <ele>669</ele>
        <time>2023-05-08T14:02:03Z</time>
      </trkpt>
      <trkpt lat="47.80268" lon="7.06886">
        <ele>667</ele>
        <time>2023-05-08T14:02:11Z</time>
      </trkpt>
      <trkpt lat="47.80267" lon="7.06893">
        <ele>667</ele>
        <time>2023-05-08T14:02:16Z</time>
      </trkpt>
      <trkpt lat="47.80269" lon="7.06904">
        <ele>665</ele>
        <time>2023-05-08T14:02:27Z</time>
      </trkpt>
      <trkpt lat="47.80272" lon="7.0691">
        <ele>664</ele>
        <time>2023-05-08T14:02:33Z</time>
      </trkpt>
      <trkpt lat="47.80274" lon="7.06921">
        <ele>662</ele>
        <time>2023-05-08T14:02:44Z</time>
      </trkpt>
      <trkpt lat="47.80277" lon="7.06928">
        <ele>661</ele>
        <time>2023-05-08T14:02:49Z</time>
      </trkpt>
      <trkpt lat="47.80281" lon="7.06956">
        <ele>657</ele>
        <time>2023-05-08T14:03:06Z</time>
      </trkpt>
      <trkpt lat="47.8028" lon="7.06986">
        <ele>654</ele>
        <time>2023-05-08T14:03:32Z</time>
      </trkpt>
      <trkpt lat="47.80278" lon="7.07">
        <ele>653</ele>
        <time>2023-05-08T14:03:41Z</time>
      </trkpt>
      <trkpt lat="47.80279" lon="7.07006">
        <ele>652</ele>
        <time>2023-05-08T14:03:45Z</time>
      </trkpt>
      <trkpt lat="47.80276" lon="7.07021">
        <ele>651</ele>
        <time>2023-05-08T14:03:54Z</time>
      </trkpt>
      <trkpt lat="47.80265" lon="7.07044">
        <ele>648</ele>
        <time>2023-05-08T14:04:10Z</time>
      </trkpt>
      <trkpt lat="47.80255" lon="7.07057">
        <ele>645</ele>
        <time>2023-05-08T14:04:22Z</time>
      </trkpt>
      <trkpt lat="47.8024" lon="7.07086">
        <ele>642</ele>
        <time>2023-05-08T14:04:44Z</time>
      </trkpt>
      <trkpt lat="47.80239" lon="7.07094">
        <ele>641</ele>
        <time>2023-05-08T14:04:49Z</time>
      </trkpt>
      <trkpt lat="47.80216" lon="7.07127">
        <ele>634</ele>
        <time>2023-05-08T14:05:20Z</time>
      </trkpt>
      <trkpt lat="47.80212" lon="7.07134">
        <ele>633</ele>
        <time>2023-05-08T14:05:26Z</time>
      </trkpt>
      <trkpt lat="47.80202" lon="7.07167">
        <ele>628</ele>
        <time>2023-05-08T14:05:47Z</time>
      </trkpt>
      <trkpt lat="47.80197" lon="7.07173">
        <ele>628</ele>
        <time>2023-05-08T14:05:54Z</time>
      </trkpt>
      <trkpt lat="47.80192" lon="7.07174">
        <ele>627</ele>
        <time>2023-05-08T14:05:58Z</time>
      </trkpt>
      <trkpt lat="47.80188" lon="7.07172">
        <ele>626</ele>
        <time>2023-05-08T14:06:02Z</time>
      </trkpt>
      <trkpt lat="47.80184" lon="7.07169">
        <ele>626</ele>
        <time>2023-05-08T14:06:05Z</time>
      </trkpt>
      <trkpt lat="47.80179" lon="7.07167">
        <ele>626</ele>
        <time>2023-05-08T14:06:09Z</time>
      </trkpt>
      <trkpt lat="47.80175" lon="7.0717">
        <ele>625</ele>
        <time>2023-05-08T14:06:13Z</time>
      </trkpt>
      <trkpt lat="47.80169" lon="7.0717">
        <ele>624</ele>
        <time>2023-05-08T14:06:18Z</time>
      </trkpt>
      <trkpt lat="47.80156" lon="7.07193">
        <ele>620</ele>
        <time>2023-05-08T14:06:39Z</time>
      </trkpt>
      <trkpt lat="47.80152" lon="7.07196">
        <ele>619</ele>
        <time>2023-05-08T14:06:43Z</time>
      </trkpt>
      <trkpt lat="47.80149" lon="7.07202">
        <ele>618</ele>
        <time>2023-05-08T14:06:46Z</time>
      </trkpt>
      <trkpt lat="47.80143" lon="7.07217">
        <ele>616</ele>
        <time>2023-05-08T14:06:55Z</time>
      </trkpt>
      <trkpt lat="47.80145" lon="7.0723">
        <ele>615</ele>
        <time>2023-05-08T14:07:04Z</time>
      </trkpt>
      <trkpt lat="47.80143" lon="7.07236">
        <ele>614</ele>
        <time>2023-05-08T14:07:08Z</time>
      </trkpt>
      <trkpt lat="47.80138" lon="7.07244">
        <ele>615</ele>
        <time>2023-05-08T14:07:16Z</time>
      </trkpt>
      <trkpt lat="47.80127" lon="7.07264">
        <ele>618</ele>
        <time>2023-05-08T14:07:37Z</time>
      </trkpt>
      <trkpt lat="47.8012" lon="7.07289">
        <ele>620</ele>
        <time>2023-05-08T14:07:58Z</time>
      </trkpt>
      <trkpt lat="47.80121" lon="7.07295">
        <ele>621</ele>
        <time>2023-05-08T14:08:06Z</time>
      </trkpt>
      <trkpt lat="47.80114" lon="7.0733">
        <ele>626</ele>
        <time>2023-05-08T14:08:35Z</time>
      </trkpt>
      <trkpt lat="47.80113" lon="7.07338">
        <ele>627</ele>
        <time>2023-05-08T14:08:43Z</time>
      </trkpt>
      <trkpt lat="47.80111" lon="7.07344">
        <ele>628</ele>
        <time>2023-05-08T14:08:48Z</time>
      </trkpt>
      <trkpt lat="47.80104" lon="7.07357">
        <ele>630</ele>
        <time>2023-05-08T14:08:59Z</time>
      </trkpt>
      <trkpt lat="47.80103" lon="7.07363">
        <ele>631</ele>
        <time>2023-05-08T14:09:03Z</time>
      </trkpt>
      <trkpt lat="47.80103" lon="7.0737">
        <ele>632</ele>
        <time>2023-05-08T14:09:08Z</time>
      </trkpt>
      <trkpt lat="47.80094" lon="7.07398">
        <ele>636</ele>
        <time>2023-05-08T14:09:32Z</time>
      </trkpt>
      <trkpt lat="47.80092" lon="7.07418">
        <ele>639</ele>
        <time>2023-05-08T14:09:47Z</time>
      </trkpt>
      <trkpt lat="47.80089" lon="7.07425">
        <ele>640</ele>
        <time>2023-05-08T14:09:53Z</time>
      </trkpt>
      <trkpt lat="47.80081" lon="7.07468">
        <ele>649</ele>
        <time>2023-05-08T14:10:35Z</time>
      </trkpt>
      <trkpt lat="47.80079" lon="7.07507">
        <ele>655</ele>
        <time>2023-05-08T14:11:09Z</time>
      </trkpt>
      <trkpt lat="47.80078" lon="7.07527">
        <ele>657</ele>
        <time>2023-05-08T14:11:25Z</time>
      </trkpt>
      <trkpt lat="47.80075" lon="7.07534">
        <ele>657</ele>
        <time>2023-05-08T14:11:30Z</time>
      </trkpt>
      <trkpt lat="47.80075" lon="7.0755">
        <ele>659</ele>
        <time>2023-05-08T14:11:42Z</time>
      </trkpt>
      <trkpt lat="47.80069" lon="7.07571">
        <ele>663</ele>
        <time>2023-05-08T14:12:00Z</time>
      </trkpt>
      <trkpt lat="47.80069" lon="7.07584">
        <ele>665</ele>
        <time>2023-05-08T14:12:12Z</time>
      </trkpt>
      <trkpt lat="47.80067" lon="7.0759">
        <ele>666</ele>
        <time>2023-05-08T14:12:18Z</time>
      </trkpt>
      <trkpt lat="47.80066" lon="7.07598">
        <ele>667</ele>
        <time>2023-05-08T14:12:24Z</time>
      </trkpt>
      <trkpt lat="47.80067" lon="7.07607">
        <ele>667</ele>
        <time>2023-05-08T14:12:31Z</time>
      </trkpt>
      <trkpt lat="47.80071" lon="7.07612">
        <ele>667</ele>
        <time>2023-05-08T14:12:35Z</time>
      </trkpt>
      <trkpt lat="47.80076" lon="7.07625">
        <ele>667</ele>
        <time>2023-05-08T14:12:44Z</time>
      </trkpt>
      <trkpt lat="47.80076" lon="7.07636">
        <ele>667</ele>
        <time>2023-05-08T14:12:51Z</time>
      </trkpt>
      <trkpt lat="47.80083" lon="7.07655">
        <ele>666</ele>
        <time>2023-05-08T14:13:05Z</time>
      </trkpt>
      <trkpt lat="47.80086" lon="7.07659">
        <ele>666</ele>
        <time>2023-05-08T14:13:09Z</time>
      </trkpt>
      <trkpt lat="47.80108" lon="7.07705">
        <ele>663</ele>
        <time>2023-05-08T14:13:43Z</time>
      </trkpt>
      <trkpt lat="47.80109" lon="7.07712">
        <ele>662</ele>
        <time>2023-05-08T14:13:48Z</time>
      </trkpt>
      <trkpt lat="47.80112" lon="7.07717">
        <ele>662</ele>
        <time>2023-05-08T14:13:52Z</time>
      </trkpt>
      <trkpt lat="47.80116" lon="7.07729">
        <ele>660</ele>
        <time>2023-05-08T14:14:00Z</time>
      </trkpt>
      <trkpt lat="47.80142" lon="7.07771">
        <ele>655</ele>
        <time>2023-05-08T14:14:35Z</time>
      </trkpt>
      <trkpt lat="47.80175" lon="7.0779">
        <ele>648</ele>
        <time>2023-05-08T14:15:11Z</time>
      </trkpt>
      <trkpt lat="47.80188" lon="7.07796">
        <ele>646</ele>
        <time>2023-05-08T14:15:22Z</time>
      </trkpt>
      <trkpt lat="47.80195" lon="7.07799">
        <ele>645</ele>
        <time>2023-05-08T14:15:26Z</time>
      </trkpt>
      <trkpt lat="47.80197" lon="7.07805">
        <ele>645</ele>
        <time>2023-05-08T14:15:30Z</time>
      </trkpt>
      <trkpt lat="47.80205" lon="7.0784">
        <ele>650</ele>
        <time>2023-05-08T14:15:59Z</time>
      </trkpt>
      <trkpt lat="47.80209" lon="7.07846">
        <ele>651</ele>
        <time>2023-05-08T14:16:06Z</time>
      </trkpt>
      <trkpt lat="47.80213" lon="7.07856">
        <ele>653</ele>
        <time>2023-05-08T14:16:17Z</time>
      </trkpt>
      <trkpt lat="47.8022" lon="7.0787">
        <ele>655</ele>
        <time>2023-05-08T14:16:32Z</time>
      </trkpt>
      <trkpt lat="47.80223" lon="7.07881">
        <ele>656</ele>
        <time>2023-05-08T14:16:40Z</time>
      </trkpt>
      <trkpt lat="47.80226" lon="7.07888">
        <ele>656</ele>
        <time>2023-05-08T14:16:45Z</time>
      </trkpt>
      <trkpt lat="47.80227" lon="7.07898">
        <ele>656</ele>
        <time>2023-05-08T14:16:53Z</time>
      </trkpt>
      <trkpt lat="47.80231" lon="7.07905">
        <ele>656</ele>
        <time>2023-05-08T14:16:58Z</time>
      </trkpt>
      <trkpt lat="47.80231" lon="7.07913">
        <ele>655</ele>
        <time>2023-05-08T14:17:04Z</time>
      </trkpt>
      <trkpt lat="47.80238" lon="7.07933">
        <ele>655</ele>
        <time>2023-05-08T14:17:18Z</time>
      </trkpt>
      <trkpt lat="47.80241" lon="7.07947">
        <ele>654</ele>
        <time>2023-05-08T14:17:27Z</time>
      </trkpt>
      <trkpt lat="47.80244" lon="7.07959">
        <ele>653</ele>
        <time>2023-05-08T14:17:35Z</time>
      </trkpt>
      <trkpt lat="47.80248" lon="7.07995">
        <ele>652</ele>
        <time>2023-05-08T14:17:57Z</time>
      </trkpt>
      <trkpt lat="47.80251" lon="7.08008">
        <ele>652</ele>
        <time>2023-05-08T14:18:05Z</time>
      </trkpt>
      <trkpt lat="47.8025" lon="7.08015">
        <ele>651</ele>
        <time>2023-05-08T14:18:09Z</time>
      </trkpt>
      <trkpt lat="47.8025" lon="7.08038">
        <ele>649</ele>
        <time>2023-05-08T14:18:20Z</time>
      </trkpt>
      <trkpt lat="47.80252" lon="7.08046">
        <ele>649</ele>
        <time>2023-05-08T14:18:24Z</time>
      </trkpt>
      <trkpt lat="47.80255" lon="7.08059">
        <ele>649</ele>
        <time>2023-05-08T14:18:32Z</time>
      </trkpt>
      <trkpt lat="47.80255" lon="7.08066">
        <ele>649</ele>
        <time>2023-05-08T14:18:36Z</time>
      </trkpt>
      <trkpt lat="47.80255" lon="7.08074">
        <ele>649</ele>
        <time>2023-05-08T14:18:40Z</time>
      </trkpt>
      <trkpt lat="47.80259" lon="7.08086">
        <ele>649</ele>
        <time>2023-05-08T14:18:48Z</time>
      </trkpt>
      <trkpt lat="47.80262" lon="7.08092">
        <ele>649</ele>
        <time>2023-05-08T14:18:53Z</time>
      </trkpt>
      <trkpt lat="47.80267" lon="7.08097">
        <ele>650</ele>
        <time>2023-05-08T14:18:59Z</time>
      </trkpt>
      <trkpt lat="47.80269" lon="7.08109">
        <ele>652</ele>
        <time>2023-05-08T14:19:09Z</time>
      </trkpt>
      <trkpt lat="47.80275" lon="7.08113">
        <ele>653</ele>
        <time>2023-05-08T14:19:21Z</time>
      </trkpt>
      <trkpt lat="47.80268" lon="7.08121">
        <ele>652</ele>
        <time>2023-05-08T14:19:56Z</time>
      </trkpt>
      <trkpt lat="47.80265" lon="7.08133">
        <ele>652</ele>
        <time>2023-05-08T14:20:05Z</time>
      </trkpt>
      <trkpt lat="47.80254" lon="7.08105">
        <ele>648</ele>
        <time>2023-05-08T14:20:26Z</time>
      </trkpt>
      <trkpt lat="47.80248" lon="7.08094">
        <ele>646</ele>
        <time>2023-05-08T14:20:33Z</time>
      </trkpt>
      <trkpt lat="47.80239" lon="7.08072">
        <ele>643</ele>
        <time>2023-05-08T14:20:50Z</time>
      </trkpt>
      <trkpt lat="47.80234" lon="7.08059">
        <ele>642</ele>
        <time>2023-05-08T14:20:57Z</time>
      </trkpt>
      <trkpt lat="47.80232" lon="7.08053">
        <ele>641</ele>
        <time>2023-05-08T14:21:01Z</time>
      </trkpt>
      <trkpt lat="47.80218" lon="7.0803">
        <ele>637</ele>
        <time>2023-05-08T14:21:20Z</time>
      </trkpt>
      <trkpt lat="47.80216" lon="7.08023">
        <ele>637</ele>
        <time>2023-05-08T14:21:23Z</time>
      </trkpt>
      <trkpt lat="47.80214" lon="7.0801">
        <ele>635</ele>
        <time>2023-05-08T14:21:30Z</time>
      </trkpt>
      <trkpt lat="47.802" lon="7.07989">
        <ele>632</ele>
        <time>2023-05-08T14:21:48Z</time>
      </trkpt>
      <trkpt lat="47.80193" lon="7.07966">
        <ele>629</ele>
        <time>2023-05-08T14:22:02Z</time>
      </trkpt>
      <trkpt lat="47.80191" lon="7.0796">
        <ele>629</ele>
        <time>2023-05-08T14:22:05Z</time>
      </trkpt>
      <trkpt lat="47.80183" lon="7.07947">
        <ele>627</ele>
        <time>2023-05-08T14:22:16Z</time>
      </trkpt>
      <trkpt lat="47.80178" lon="7.07932">
        <ele>625</ele>
        <time>2023-05-08T14:22:25Z</time>
      </trkpt>
      <trkpt lat="47.80176" lon="7.07924">
        <ele>624</ele>
        <time>2023-05-08T14:22:32Z</time>
      </trkpt>
      <trkpt lat="47.80173" lon="7.07919">
        <ele>624</ele>
        <time>2023-05-08T14:22:36Z</time>
      </trkpt>
      <trkpt lat="47.80171" lon="7.07928">
        <ele>622</ele>
        <time>2023-05-08T14:22:43Z</time>
      </trkpt>
      <trkpt lat="47.80173" lon="7.07934">
        <ele>621</ele>
        <time>2023-05-08T14:22:47Z</time>
      </trkpt>
      <trkpt lat="47.80172" lon="7.07945">
        <ele>620</ele>
        <time>2023-05-08T14:22:54Z</time>
      </trkpt>
      <trkpt lat="47.80173" lon="7.07951">
        <ele>620</ele>
        <time>2023-05-08T14:22:57Z</time>
      </trkpt>
      <trkpt lat="47.80171" lon="7.07959">
        <ele>618</ele>
        <time>2023-05-08T14:23:02Z</time>
      </trkpt>
      <trkpt lat="47.80174" lon="7.08012">
        <ele>613</ele>
        <time>2023-05-08T14:23:36Z</time>
      </trkpt>
      <trkpt lat="47.8017" lon="7.08064">
        <ele>607</ele>
        <time>2023-05-08T14:24:07Z</time>
      </trkpt>
      <trkpt lat="47.80165" lon="7.08118">
        <ele>602</ele>
        <time>2023-05-08T14:24:38Z</time>
      </trkpt>
      <trkpt lat="47.80162" lon="7.08145">
        <ele>599</ele>
        <time>2023-05-08T14:24:56Z</time>
      </trkpt>
      <trkpt lat="47.80153" lon="7.08187">
        <ele>594</ele>
        <time>2023-05-08T14:25:25Z</time>
      </trkpt>
      <trkpt lat="47.80133" lon="7.08227">
        <ele>589</ele>
        <time>2023-05-08T14:25:54Z</time>
      </trkpt>
      <trkpt lat="47.80132" lon="7.08233">
        <ele>588</ele>
        <time>2023-05-08T14:25:58Z</time>
      </trkpt>
      <trkpt lat="47.80126" lon="7.08245">
        <ele>587</ele>
        <time>2023-05-08T14:26:08Z</time>
      </trkpt>
      <trkpt lat="47.8013" lon="7.08249">
        <ele>585</ele>
        <time>2023-05-08T14:28:31Z</time>
      </trkpt>
      <trkpt lat="47.80127" lon="7.08272">
        <ele>583</ele>
        <time>2023-05-08T14:28:45Z</time>
      </trkpt>
      <trkpt lat="47.80123" lon="7.08287">
        <ele>581</ele>
        <time>2023-05-08T14:28:54Z</time>
      </trkpt>
      <trkpt lat="47.80122" lon="7.08294">
        <ele>580</ele>
        <time>2023-05-08T14:28:58Z</time>
      </trkpt>
      <trkpt lat="47.80123" lon="7.083">
        <ele>580</ele>
        <time>2023-05-08T14:29:02Z</time>
      </trkpt>
      <trkpt lat="47.8012" lon="7.08308">
        <ele>578</ele>
        <time>2023-05-08T14:29:08Z</time>
      </trkpt>
      <trkpt lat="47.80118" lon="7.08317">
        <ele>577</ele>
        <time>2023-05-08T14:29:15Z</time>
      </trkpt>
      <trkpt lat="47.80115" lon="7.08342">
        <ele>574</ele>
        <time>2023-05-08T14:29:32Z</time>
      </trkpt>
      <trkpt lat="47.80107" lon="7.08366">
        <ele>571</ele>
        <time>2023-05-08T14:29:50Z</time>
      </trkpt>
      <trkpt lat="47.80098" lon="7.08323">
        <ele>567</ele>
        <time>2023-05-08T14:30:20Z</time>
      </trkpt>
      <trkpt lat="47.80093" lon="7.08328">
        <ele>564</ele>
        <time>2023-05-08T14:30:33Z</time>
      </trkpt>
      <trkpt lat="47.80093" lon="7.08335">
        <ele>563</ele>
        <time>2023-05-08T14:30:38Z</time>
      </trkpt>
      <trkpt lat="47.80089" lon="7.08341">
        <ele>562</ele>
        <time>2023-05-08T14:30:43Z</time>
      </trkpt>
      <trkpt lat="47.80088" lon="7.08351">
        <ele>561</ele>
        <time>2023-05-08T14:30:49Z</time>
      </trkpt>
      <trkpt lat="47.80086" lon="7.08368">
        <ele>560</ele>
        <time>2023-05-08T14:30:59Z</time>
      </trkpt>
      <trkpt lat="47.80079" lon="7.08387">
        <ele>558</ele>
        <time>2023-05-08T14:31:12Z</time>
      </trkpt>
      <trkpt lat="47.80077" lon="7.08409">
        <ele>556</ele>
        <time>2023-05-08T14:31:25Z</time>
      </trkpt>
      <trkpt lat="47.80071" lon="7.08446">
        <ele>552</ele>
        <time>2023-05-08T14:31:49Z</time>
      </trkpt>
      <trkpt lat="47.80071" lon="7.08453">
        <ele>551</ele>
        <time>2023-05-08T14:31:53Z</time>
      </trkpt>
      <trkpt lat="47.80069" lon="7.0846">
        <ele>550</ele>
        <time>2023-05-08T14:31:58Z</time>
      </trkpt>
      <trkpt lat="47.80067" lon="7.08466">
        <ele>549</ele>
        <time>2023-05-08T14:32:03Z</time>
      </trkpt>
      <trkpt lat="47.80065" lon="7.08473">
        <ele>548</ele>
        <time>2023-05-08T14:32:08Z</time>
      </trkpt>
      <trkpt lat="47.80065" lon="7.08493">
        <ele>546</ele>
        <time>2023-05-08T14:32:20Z</time>
      </trkpt>
      <trkpt lat="47.80066" lon="7.085">
        <ele>545</ele>
        <time>2023-05-08T14:32:24Z</time>
      </trkpt>
      <trkpt lat="47.80067" lon="7.08517">
        <ele>543</ele>
        <time>2023-05-08T14:32:34Z</time>
      </trkpt>
      <trkpt lat="47.80074" lon="7.08548">
        <ele>540</ele>
        <time>2023-05-08T14:32:53Z</time>
      </trkpt>
      <trkpt lat="47.80075" lon="7.08565">
        <ele>538</ele>
        <time>2023-05-08T14:33:04Z</time>
      </trkpt>
      <trkpt lat="47.80077" lon="7.08571">
        <ele>537</ele>
        <time>2023-05-08T14:33:08Z</time>
      </trkpt>
      <trkpt lat="47.8008" lon="7.08592">
        <ele>535</ele>
        <time>2023-05-08T14:33:22Z</time>
      </trkpt>
      <trkpt lat="47.80082" lon="7.08598">
        <ele>534</ele>
        <time>2023-05-08T14:33:26Z</time>
      </trkpt>
      <trkpt lat="47.80083" lon="7.08619">
        <ele>533</ele>
        <time>2023-05-08T14:33:36Z</time>
      </trkpt>
      <trkpt lat="47.80088" lon="7.08641">
        <ele>530</ele>
        <time>2023-05-08T14:33:51Z</time>
      </trkpt>
      <trkpt lat="47.80091" lon="7.08657">
        <ele>529</ele>
        <time>2023-05-08T14:34:02Z</time>
      </trkpt>
      <trkpt lat="47.80095" lon="7.0867">
        <ele>527</ele>
        <time>2023-05-08T14:34:10Z</time>
      </trkpt>
      <trkpt lat="47.80098" lon="7.08715">
        <ele>523</ele>
        <time>2023-05-08T14:34:37Z</time>
      </trkpt>
      <trkpt lat="47.80101" lon="7.08728">
        <ele>522</ele>
        <time>2023-05-08T14:34:46Z</time>
      </trkpt>
      <trkpt lat="47.80099" lon="7.08735">
        <ele>521</ele>
        <time>2023-05-08T14:34:51Z</time>
      </trkpt>
      <trkpt lat="47.8009" lon="7.08751">
        <ele>518</ele>
        <time>2023-05-08T14:35:04Z</time>
      </trkpt>
      <trkpt lat="47.80088" lon="7.08758">
        <ele>517</ele>
        <time>2023-05-08T14:35:09Z</time>
      </trkpt>
      <trkpt lat="47.80085" lon="7.08762">
        <ele>516</ele>
        <time>2023-05-08T14:35:14Z</time>
      </trkpt>
      <trkpt lat="47.80084" lon="7.08769">
        <ele>515</ele>
        <time>2023-05-08T14:35:19Z</time>
      </trkpt>
      <trkpt lat="47.80064" lon="7.0881">
        <ele>507</ele>
        <time>2023-05-08T14:35:56Z</time>
      </trkpt>
      <trkpt lat="47.80062" lon="7.08816">
        <ele>506</ele>
        <time>2023-05-08T14:36:02Z</time>
      </trkpt>
      <trkpt lat="47.80059" lon="7.08822">
        <ele>505</ele>
        <time>2023-05-08T14:36:07Z</time>
      </trkpt>
      <trkpt lat="47.80055" lon="7.08837">
        <ele>503</ele>
        <time>2023-05-08T14:36:18Z</time>
      </trkpt>
      <trkpt lat="47.80057" lon="7.08846">
        <ele>501</ele>
        <time>2023-05-08T14:36:25Z</time>
      </trkpt>
      <trkpt lat="47.80056" lon="7.08853">
        <ele>500</ele>
        <time>2023-05-08T14:36:31Z</time>
      </trkpt>
      <trkpt lat="47.80056" lon="7.08871">
        <ele>498</ele>
        <time>2023-05-08T14:36:43Z</time>
      </trkpt>
      <trkpt lat="47.80054" lon="7.08878">
        <ele>497</ele>
        <time>2023-05-08T14:36:48Z</time>
      </trkpt>
      <trkpt lat="47.80055" lon="7.08885">
        <ele>496</ele>
        <time>2023-05-08T14:36:52Z</time>
      </trkpt>
      <trkpt lat="47.80056" lon="7.08892">
        <ele>496</ele>
        <time>2023-05-08T14:36:57Z</time>
      </trkpt>
      <trkpt lat="47.80051" lon="7.08898">
        <ele>494</ele>
        <time>2023-05-08T14:37:02Z</time>
      </trkpt>
      <trkpt lat="47.80035" lon="7.08943">
        <ele>489</ele>
        <time>2023-05-08T14:37:35Z</time>
      </trkpt>
      <trkpt lat="47.80028" lon="7.08962">
        <ele>487</ele>
        <time>2023-05-08T14:37:49Z</time>
      </trkpt>
      <trkpt lat="47.80028" lon="7.08969">
        <ele>486</ele>
        <time>2023-05-08T14:37:55Z</time>
      </trkpt>
      <trkpt lat="47.80019" lon="7.09011">
        <ele>479</ele>
        <time>2023-05-08T14:38:26Z</time>
      </trkpt>
      <trkpt lat="47.80018" lon="7.09017">
        <ele>478</ele>
        <time>2023-05-08T14:38:31Z</time>
      </trkpt>
      <trkpt lat="47.80018" lon="7.09026">
        <ele>477</ele>
        <time>2023-05-08T14:38:41Z</time>
      </trkpt>
      <trkpt lat="47.80017" lon="7.09033">
        <ele>476</ele>
        <time>2023-05-08T14:38:45Z</time>
      </trkpt>
      <trkpt lat="47.80014" lon="7.09068">
        <ele>472</ele>
        <time>2023-05-08T14:39:06Z</time>
      </trkpt>
      <trkpt lat="47.80005" lon="7.09105">
        <ele>468</ele>
        <time>2023-05-08T14:39:29Z</time>
      </trkpt>
      <trkpt lat="47.80005" lon="7.09113">
        <ele>467</ele>
        <time>2023-05-08T14:39:34Z</time>
      </trkpt>
      <trkpt lat="47.80003" lon="7.09121">
        <ele>466</ele>
        <time>2023-05-08T14:39:40Z</time>
      </trkpt>
      <trkpt lat="47.8" lon="7.09151">
        <ele>463</ele>
        <time>2023-05-08T14:39:58Z</time>
      </trkpt>
      <trkpt lat="47.79998" lon="7.09158">
        <ele>463</ele>
        <time>2023-05-08T14:40:03Z</time>
      </trkpt>
      <trkpt lat="47.79996" lon="7.09176">
        <ele>461</ele>
        <time>2023-05-08T14:40:17Z</time>
      </trkpt>
      <trkpt lat="47.79997" lon="7.09183">
        <ele>461</ele>
        <time>2023-05-08T14:40:21Z</time>
      </trkpt>
      <trkpt lat="47.79996" lon="7.0919">
        <ele>460</ele>
        <time>2023-05-08T14:40:25Z</time>
      </trkpt>
      <trkpt lat="47.79994" lon="7.09197">
        <ele>460</ele>
        <time>2023-05-08T14:40:30Z</time>
      </trkpt>
      <trkpt lat="47.79981" lon="7.09231">
        <ele>458</ele>
        <time>2023-05-08T14:40:55Z</time>
      </trkpt>
      <trkpt lat="47.79967" lon="7.09261">
        <ele>455</ele>
        <time>2023-05-08T14:41:19Z</time>
      </trkpt>
      <trkpt lat="47.79965" lon="7.09267">
        <ele>454</ele>
        <time>2023-05-08T14:41:23Z</time>
      </trkpt>
      <trkpt lat="47.79967" lon="7.09274">
        <ele>454</ele>
        <time>2023-05-08T14:41:27Z</time>
      </trkpt>
      <trkpt lat="47.79976" lon="7.09288">
        <ele>454</ele>
        <time>2023-05-08T14:41:38Z</time>
      </trkpt>
      <trkpt lat="47.7998" lon="7.09293">
        <ele>454</ele>
        <time>2023-05-08T14:41:43Z</time>
      </trkpt>
      <trkpt lat="47.79985" lon="7.09305">
        <ele>454</ele>
        <time>2023-05-08T14:41:51Z</time>
      </trkpt>
      <trkpt lat="47.79989" lon="7.09325">
        <ele>455</ele>
        <time>2023-05-08T14:42:03Z</time>
      </trkpt>
      <trkpt lat="47.79987" lon="7.09331">
        <ele>455</ele>
        <time>2023-05-08T14:42:07Z</time>
      </trkpt>
      <trkpt lat="47.79984" lon="7.09337">
        <ele>455</ele>
        <time>2023-05-08T14:42:11Z</time>
      </trkpt>
      <trkpt lat="47.79981" lon="7.09351">
        <ele>455</ele>
        <time>2023-05-08T14:42:20Z</time>
      </trkpt>
      <trkpt lat="47.79978" lon="7.09386">
        <ele>454</ele>
        <time>2023-05-08T14:42:40Z</time>
      </trkpt>
      <trkpt lat="47.79975" lon="7.09391">
        <ele>454</ele>
        <time>2023-05-08T14:42:43Z</time>
      </trkpt>
      <trkpt lat="47.79971" lon="7.09395">
        <ele>454</ele>
        <time>2023-05-08T14:42:46Z</time>
      </trkpt>
      <trkpt lat="47.79963" lon="7.09413">
        <ele>453</ele>
        <time>2023-05-08T14:42:57Z</time>
      </trkpt>
      <trkpt lat="47.79958" lon="7.09433">
        <ele>452</ele>
        <time>2023-05-08T14:43:10Z</time>
      </trkpt>
      <trkpt lat="47.79956" lon="7.09438">
        <ele>452</ele>
        <time>2023-05-08T14:43:14Z</time>
      </trkpt>
      <trkpt lat="47.79955" lon="7.09446">
        <ele>452</ele>
        <time>2023-05-08T14:43:18Z</time>
      </trkpt>
      <trkpt lat="47.79949" lon="7.09458">
        <ele>452</ele>
        <time>2023-05-08T14:43:26Z</time>
      </trkpt>
      <trkpt lat="47.79948" lon="7.09465">
        <ele>451</ele>
        <time>2023-05-08T14:43:29Z</time>
      </trkpt>
      <trkpt lat="47.79937" lon="7.09495">
        <ele>449</ele>
        <time>2023-05-08T14:43:49Z</time>
      </trkpt>
      <trkpt lat="47.79937" lon="7.09503">
        <ele>449</ele>
        <time>2023-05-08T14:43:53Z</time>
      </trkpt>
      <trkpt lat="47.79935" lon="7.09509">
        <ele>448</ele>
        <time>2023-05-08T14:43:57Z</time>
      </trkpt>
      <trkpt lat="47.79925" lon="7.09524">
        <ele>447</ele>
        <time>2023-05-08T14:44:10Z</time>
      </trkpt>
      <trkpt lat="47.79919" lon="7.0953">
        <ele>446</ele>
        <time>2023-05-08T14:44:16Z</time>
      </trkpt>
      <trkpt lat="47.79903" lon="7.09583">
        <ele>442</ele>
        <time>2023-05-08T14:44:49Z</time>
      </trkpt>
      <trkpt lat="47.799" lon="7.09604">
        <ele>442</ele>
        <time>2023-05-08T14:45:00Z</time>
      </trkpt>
      <trkpt lat="47.79897" lon="7.09608">
        <ele>441</ele>
        <time>2023-05-08T14:45:04Z</time>
      </trkpt>
      <trkpt lat="47.79888" lon="7.09617">
        <ele>440</ele>
        <time>2023-05-08T14:45:11Z</time>
      </trkpt>
      <trkpt lat="47.79883" lon="7.09619">
        <ele>439</ele>
        <time>2023-05-08T14:45:16Z</time>
      </trkpt>
      <trkpt lat="47.79866" lon="7.09634">
        <ele>436</ele>
        <time>2023-05-08T14:45:31Z</time>
      </trkpt>
      <trkpt lat="47.79851" lon="7.09628">
        <ele>434</ele>
        <time>2023-05-08T14:45:44Z</time>
      </trkpt>
      <trkpt lat="47.79811" lon="7.09629">
        <ele>428</ele>
        <time>2023-05-08T14:46:18Z</time>
      </trkpt>
      <trkpt lat="47.79778" lon="7.09624">
        <ele>424</ele>
        <time>2023-05-08T14:46:46Z</time>
      </trkpt>
      <trkpt lat="47.79769" lon="7.09621">
        <ele>423</ele>
        <time>2023-05-08T14:46:55Z</time>
      </trkpt>
      <trkpt lat="47.79764" lon="7.09623">
        <ele>422</ele>
        <time>2023-05-08T14:47:00Z</time>
      </trkpt>
      <trkpt lat="47.79752" lon="7.09637">
        <ele>420</ele>
        <time>2023-05-08T14:47:13Z</time>
      </trkpt>
      <trkpt lat="47.79735" lon="7.09649">
        <ele>418</ele>
        <time>2023-05-08T14:47:29Z</time>
      </trkpt>
      <trkpt lat="47.79726" lon="7.09651">
        <ele>417</ele>
        <time>2023-05-08T14:47:37Z</time>
      </trkpt>
      <trkpt lat="47.79691" lon="7.09644">
        <ele>413</ele>
        <time>2023-05-08T14:48:07Z</time>
      </trkpt>
      <trkpt lat="47.7966" lon="7.09679">
        <ele>410</ele>
        <time>2023-05-08T14:48:41Z</time>
      </trkpt>
      <trkpt lat="47.79652" lon="7.09688">
        <ele>409</ele>
        <time>2023-05-08T14:48:49Z</time>
      </trkpt>
      <trkpt lat="47.79643" lon="7.09693">
        <ele>408</ele>
        <time>2023-05-08T14:48:58Z</time>
      </trkpt>
      <trkpt lat="47.79635" lon="7.097">
        <ele>408</ele>
        <time>2023-05-08T14:49:05Z</time>
      </trkpt>
      <trkpt lat="47.79626" lon="7.09704">
        <ele>407</ele>
        <time>2023-05-08T14:49:12Z</time>
      </trkpt>
      <trkpt lat="47.79609" lon="7.09717">
        <ele>406</ele>
        <time>2023-05-08T14:49:28Z</time>
      </trkpt>
      <trkpt lat="47.79604" lon="7.09718">
        <ele>406</ele>
        <time>2023-05-08T14:49:32Z</time>
      </trkpt>
      <trkpt lat="47.79582" lon="7.09732">
        <ele>405</ele>
        <time>2023-05-08T14:49:52Z</time>
      </trkpt>
      <trkpt lat="47.79579" lon="7.09737">
        <ele>405</ele>
        <time>2023-05-08T14:49:56Z</time>
      </trkpt>
      <trkpt lat="47.79573" lon="7.09747">
        <ele>405</ele>
        <time>2023-05-08T14:50:05Z</time>
      </trkpt>
      <trkpt lat="47.7957" lon="7.09752">
        <ele>405</ele>
        <time>2023-05-08T14:50:09Z</time>
      </trkpt>
      <trkpt lat="47.79565" lon="7.09752">
        <ele>405</ele>
        <time>2023-05-08T14:50:13Z</time>
      </trkpt>
      <trkpt lat="47.79554" lon="7.09747">
        <ele>402</ele>
        <time>2023-05-08T14:50:23Z</time>
      </trkpt>
      <trkpt lat="47.79549" lon="7.09744">
        <ele>402</ele>
        <time>2023-05-08T14:50:27Z</time>
      </trkpt>
      <trkpt lat="47.79545" lon="7.09744">
        <ele>403</ele>
        <time>2023-05-08T14:50:31Z</time>
      </trkpt>
      <trkpt lat="47.79535" lon="7.09745">
        <ele>402</ele>
        <time>2023-05-08T14:50:38Z</time>
      </trkpt>
      <trkpt lat="47.79502" lon="7.09738">
        <ele>399</ele>
        <time>2023-05-08T14:51:10Z</time>
      </trkpt>
      <trkpt lat="47.79468" lon="7.09723">
        <ele>393</ele>
        <time>2023-05-08T14:51:42Z</time>
      </trkpt>
      <trkpt lat="47.79457" lon="7.09721">
        <ele>392</ele>
        <time>2023-05-08T14:51:52Z</time>
      </trkpt>
      <trkpt lat="47.79444" lon="7.09712">
        <ele>388</ele>
        <time>2023-05-08T14:52:06Z</time>
      </trkpt>
      <trkpt lat="47.79408" lon="7.097">
        <ele>383</ele>
        <time>2023-05-08T14:52:39Z</time>
      </trkpt>
      <trkpt lat="47.79371" lon="7.09689">
        <ele>379</ele>
        <time>2023-05-08T14:53:14Z</time>
      </trkpt>
      <trkpt lat="47.79367" lon="7.09686">
        <ele>378</ele>
        <time>2023-05-08T14:53:19Z</time>
      </trkpt>
      <trkpt lat="47.79362" lon="7.09684">
        <ele>378</ele>
        <time>2023-05-08T14:53:23Z</time>
      </trkpt>
      <trkpt lat="47.79357" lon="7.09681">
        <ele>377</ele>
        <time>2023-05-08T14:53:27Z</time>
      </trkpt>
      <trkpt lat="47.79352" lon="7.09681">
        <ele>377</ele>
        <time>2023-05-08T14:53:31Z</time>
      </trkpt>
      <trkpt lat="47.79347" lon="7.09682">
        <ele>376</ele>
        <time>2023-05-08T14:53:35Z</time>
      </trkpt>
      <trkpt lat="47.79343" lon="7.09688">
        <ele>375</ele>
        <time>2023-05-08T14:53:39Z</time>
      </trkpt>
      <trkpt lat="47.79334" lon="7.09743">
        <ele>374</ele>
        <time>2023-05-08T14:54:11Z</time>
      </trkpt>
      <trkpt lat="47.79324" lon="7.09788">
        <ele>372</ele>
        <time>2023-05-08T14:54:39Z</time>
      </trkpt>
      <trkpt lat="47.79319" lon="7.09788">
        <ele>371</ele>
        <time>2023-05-08T14:54:48Z</time>
      </trkpt>
    </trkseg>
  </trk>
  <trk>
    <name><![CDATA[Sentier_des_Roches]]></name>
    <extensions>
      <line xmlns="http://www.topografix.com/GPX/gpx_style/0/2">
        <color>FFFF00</color>
        <width>4</width>
      </line>
    </extensions>
    <trkseg>
      <trkpt lat="48.00974" lon="6.98273">
        <ele>1304.8</ele>
      </trkpt>
      <trkpt lat="48.0098" lon="6.98273">
        <ele>1304.2</ele>
      </trkpt>
      <trkpt lat="48.0098" lon="6.98277">
        <ele>1304.1</ele>
      </trkpt>
      <trkpt lat="48.00988" lon="6.9828">
        <ele>1303.1</ele>
      </trkpt>
      <trkpt lat="48.00996" lon="6.98281">
        <ele>1302.2</ele>
      </trkpt>
      <trkpt lat="48.01" lon="6.9828">
        <ele>1301.7</ele>
      </trkpt>
      <trkpt lat="48.01006" lon="6.98281">
        <ele>1300.5</ele>
      </trkpt>
      <trkpt lat="48.01021" lon="6.9828">
        <ele>1297.7</ele>
      </trkpt>
      <trkpt lat="48.01026" lon="6.98288">
        <ele>1293.7</ele>
      </trkpt>
      <trkpt lat="48.01038" lon="6.98286">
        <ele>1291.5</ele>
      </trkpt>
      <trkpt lat="48.01045" lon="6.98288">
        <ele>1288.9</ele>
      </trkpt>
      <trkpt lat="48.01057" lon="6.98287">
        <ele>1286.1</ele>
      </trkpt>
      <trkpt lat="48.01066" lon="6.9829">
        <ele>1283.5</ele>
      </trkpt>
      <trkpt lat="48.01083" lon="6.98278">
        <ele>1282</ele>
      </trkpt>
      <trkpt lat="48.01088" lon="6.9828">
        <ele>1280.2</ele>
      </trkpt>
      <trkpt lat="48.01093" lon="6.98292">
        <ele>1277.4</ele>
      </trkpt>
      <trkpt lat="48.01096" lon="6.9831">
        <ele>1273</ele>
      </trkpt>
      <trkpt lat="48.01103" lon="6.98305">
        <ele>1273.3</ele>
      </trkpt>
      <trkpt lat="48.01111" lon="6.98297">
        <ele>1271.4</ele>
      </trkpt>
      <trkpt lat="48.01113" lon="6.98292">
        <ele>1270.7</ele>
      </trkpt>
      <trkpt lat="48.01114" lon="6.98292">
        <ele>1270.2</ele>
      </trkpt>
      <trkpt lat="48.01118" lon="6.98312">
        <ele>1266.5</ele>
      </trkpt>
      <trkpt lat="48.01119" lon="6.98319">
        <ele>1264.7</ele>
      </trkpt>
      <trkpt lat="48.01119" lon="6.9833">
        <ele>1262.3</ele>
      </trkpt>
      <trkpt lat="48.01122" lon="6.9833">
        <ele>1261.6</ele>
      </trkpt>
      <trkpt lat="48.01128" lon="6.98328">
        <ele>1260.8</ele>
      </trkpt>
      <trkpt lat="48.01132" lon="6.98324">
        <ele>1260</ele>
      </trkpt>
      <trkpt lat="48.01137" lon="6.98319">
        <ele>1259.2</ele>
      </trkpt>
      <trkpt lat="48.01141" lon="6.98324">
        <ele>1257.4</ele>
      </trkpt>
      <trkpt lat="48.01145" lon="6.98333">
        <ele>1255.6</ele>
      </trkpt>
      <trkpt lat="48.01148" lon="6.98349">
        <ele>1251.5</ele>
      </trkpt>
      <trkpt lat="48.01148" lon="6.98363">
        <ele>1248.7</ele>
      </trkpt>
      <trkpt lat="48.01151" lon="6.9836">
        <ele>1248.9</ele>
      </trkpt>
      <trkpt lat="48.01157" lon="6.98351">
        <ele>1248.8</ele>
      </trkpt>
      <trkpt lat="48.0117" lon="6.98339">
        <ele>1245.6</ele>
      </trkpt>
      <trkpt lat="48.01171" lon="6.98336">
        <ele>1245.1</ele>
      </trkpt>
      <trkpt lat="48.01173" lon="6.98342">
        <ele>1244.1</ele>
      </trkpt>
      <trkpt lat="48.01174" lon="6.98346">
        <ele>1243.9</ele>
      </trkpt>
      <trkpt lat="48.01176" lon="6.98353">
        <ele>1242.7</ele>
      </trkpt>
      <trkpt lat="48.01179" lon="6.98366">
        <ele>1241.3</ele>
      </trkpt>
      <trkpt lat="48.01193" lon="6.98374">
        <ele>1236.8</ele>
      </trkpt>
      <trkpt lat="48.01201" lon="6.98383">
        <ele>1235.2</ele>
      </trkpt>
      <trkpt lat="48.01209" lon="6.98397">
        <ele>1233.3</ele>
      </trkpt>
      <trkpt lat="48.01227" lon="6.98407">
        <ele>1230</ele>
      </trkpt>
      <trkpt lat="48.01259" lon="6.98443">
        <ele>1225.7</ele>
      </trkpt>
      <trkpt lat="48.01289" lon="6.98466">
        <ele>1224</ele>
      </trkpt>
      <trkpt lat="48.01339" lon="6.9852">
        <ele>1215.1</ele>
      </trkpt>
      <trkpt lat="48.01434" lon="6.98559">
        <ele>1199.7</ele>
      </trkpt>
      <trkpt lat="48.01464" lon="6.98566">
        <ele>1193.9</ele>
      </trkpt>
      <trkpt lat="48.0148" lon="6.9856">
        <ele>1192.4</ele>
      </trkpt>
      <trkpt lat="48.01501" lon="6.98566">
        <ele>1191.7</ele>
      </trkpt>
      <trkpt lat="48.01501" lon="6.98566">
        <ele>1191.7</ele>
      </trkpt>
      <trkpt lat="48.01501" lon="6.98566">
        <ele>1191.7</ele>
      </trkpt>
      <trkpt lat="48.01498" lon="6.9856">
        <ele>1191.5</ele>
      </trkpt>
      <trkpt lat="48.0151" lon="6.98558">
        <ele>1190.9</ele>
      </trkpt>
      <trkpt lat="48.01531" lon="6.98564">
        <ele>1191</ele>
      </trkpt>
      <trkpt lat="48.01575" lon="6.98588">
        <ele>1194.9</ele>
      </trkpt>
      <trkpt lat="48.01599" lon="6.98621">
        <ele>1199.8</ele>
      </trkpt>
      <trkpt lat="48.01607" lon="6.9863">
        <ele>1201.3</ele>
      </trkpt>
      <trkpt lat="48.0161" lon="6.98639">
        <ele>1203</ele>
      </trkpt>
      <trkpt lat="48.01612" lon="6.98649">
        <ele>1204</ele>
      </trkpt>
      <trkpt lat="48.01617" lon="6.9866">
        <ele>1204.8</ele>
      </trkpt>
      <trkpt lat="48.01623" lon="6.98671">
        <ele>1205.3</ele>
      </trkpt>
      <trkpt lat="48.01626" lon="6.98678">
        <ele>1205.6</ele>
      </trkpt>
      <trkpt lat="48.01635" lon="6.98688">
        <ele>1206.3</ele>
      </trkpt>
      <trkpt lat="48.01644" lon="6.98708">
        <ele>1208</ele>
      </trkpt>
      <trkpt lat="48.01653" lon="6.9872">
        <ele>1209.3</ele>
      </trkpt>
      <trkpt lat="48.0166" lon="6.98736">
        <ele>1210.6</ele>
      </trkpt>
      <trkpt lat="48.01676" lon="6.98761">
        <ele>1213.1</ele>
      </trkpt>
      <trkpt lat="48.01686" lon="6.98773">
        <ele>1213.9</ele>
      </trkpt>
      <trkpt lat="48.01695" lon="6.98785">
        <ele>1214.5</ele>
      </trkpt>
      <trkpt lat="48.01711" lon="6.98812">
        <ele>1217</ele>
      </trkpt>
      <trkpt lat="48.01719" lon="6.9882">
        <ele>1217.5</ele>
      </trkpt>
      <trkpt lat="48.01725" lon="6.98828">
        <ele>1218</ele>
      </trkpt>
      <trkpt lat="48.01725" lon="6.98828">
        <ele>1218.1</ele>
      </trkpt>
      <trkpt lat="48.01725" lon="6.98828">
        <ele>1218.1</ele>
      </trkpt>
      <trkpt lat="48.01725" lon="6.98828">
        <ele>1218</ele>
      </trkpt>
      <trkpt lat="48.01731" lon="6.98836">
        <ele>1219.2</ele>
      </trkpt>
      <trkpt lat="48.01777" lon="6.98877">
        <ele>1228.4</ele>
      </trkpt>
      <trkpt lat="48.01802" lon="6.98898">
        <ele>1233</ele>
      </trkpt>
      <trkpt lat="48.01827" lon="6.98926">
        <ele>1238.4</ele>
      </trkpt>
      <trkpt lat="48.01839" lon="6.9894">
        <ele>1240.6</ele>
      </trkpt>
      <trkpt lat="48.01843" lon="6.98959">
        <ele>1241.9</ele>
      </trkpt>
      <trkpt lat="48.01867" lon="6.9904">
        <ele>1247.1</ele>
      </trkpt>
      <trkpt lat="48.01874" lon="6.99071">
        <ele>1247.7</ele>
      </trkpt>
      <trkpt lat="48.01882" lon="6.99099">
        <ele>1248.8</ele>
      </trkpt>
      <trkpt lat="48.01903" lon="6.99204">
        <ele>1250.1</ele>
      </trkpt>
      <trkpt lat="48.0192" lon="6.99229">
        <ele>1247.6</ele>
      </trkpt>
      <trkpt lat="48.01943" lon="6.99248">
        <ele>1244.5</ele>
      </trkpt>
      <trkpt lat="48.01947" lon="6.99253">
        <ele>1245.1</ele>
      </trkpt>
      <trkpt lat="48.0195" lon="6.99261">
        <ele>1246.2</ele>
      </trkpt>
      <trkpt lat="48.01946" lon="6.99277">
        <ele>1245.4</ele>
      </trkpt>
      <trkpt lat="48.01946" lon="6.99287">
        <ele>1244.4</ele>
      </trkpt>
      <trkpt lat="48.01952" lon="6.99314">
        <ele>1244.7</ele>
      </trkpt>
      <trkpt lat="48.0195" lon="6.9932">
        <ele>1243.9</ele>
      </trkpt>
      <trkpt lat="48.01949" lon="6.99345">
        <ele>1244.1</ele>
      </trkpt>
      <trkpt lat="48.01944" lon="6.99364">
        <ele>1243.5</ele>
      </trkpt>
      <trkpt lat="48.01933" lon="6.99427">
        <ele>1247.3</ele>
      </trkpt>
      <trkpt lat="48.01931" lon="6.99452">
        <ele>1250</ele>
      </trkpt>
      <trkpt lat="48.01924" lon="6.99471">
        <ele>1251.3</ele>
      </trkpt>
      <trkpt lat="48.01914" lon="6.99485">
        <ele>1250.7</ele>
      </trkpt>
      <trkpt lat="48.01909" lon="6.99498">
        <ele>1251.8</ele>
      </trkpt>
      <trkpt lat="48.01906" lon="6.99507">
        <ele>1253.2</ele>
      </trkpt>
      <trkpt lat="48.01905" lon="6.99526">
        <ele>1256.8</ele>
      </trkpt>
      <trkpt lat="48.019" lon="6.99546">
        <ele>1257.6</ele>
      </trkpt>
      <trkpt lat="48.01893" lon="6.99556">
        <ele>1256.2</ele>
      </trkpt>
      <trkpt lat="48.01881" lon="6.99582">
        <ele>1257.7</ele>
      </trkpt>
      <trkpt lat="48.0188" lon="6.99587">
        <ele>1258.4</ele>
      </trkpt>
      <trkpt lat="48.01875" lon="6.99594">
        <ele>1257.6</ele>
      </trkpt>
      <trkpt lat="48.01872" lon="6.99603">
        <ele>1258.2</ele>
      </trkpt>
      <trkpt lat="48.01867" lon="6.99606">
        <ele>1256.7</ele>
      </trkpt>
      <trkpt lat="48.01851" lon="6.99633">
        <ele>1254.1</ele>
      </trkpt>
      <trkpt lat="48.01841" lon="6.99658">
        <ele>1253.8</ele>
      </trkpt>
      <trkpt lat="48.01837" lon="6.99675">
        <ele>1255</ele>
      </trkpt>
      <trkpt lat="48.01826" lon="6.99689">
        <ele>1253.1</ele>
      </trkpt>
      <trkpt lat="48.01811" lon="6.99702">
        <ele>1250.8</ele>
      </trkpt>
      <trkpt lat="48.01796" lon="6.99725">
        <ele>1251.3</ele>
      </trkpt>
      <trkpt lat="48.01791" lon="6.99728">
        <ele>1250.2</ele>
      </trkpt>
      <trkpt lat="48.01788" lon="6.99733">
        <ele>1250.4</ele>
      </trkpt>
      <trkpt lat="48.01784" lon="6.99736">
        <ele>1249.6</ele>
      </trkpt>
      <trkpt lat="48.01761" lon="6.99767">
        <ele>1247.9</ele>
      </trkpt>
      <trkpt lat="48.01739" lon="6.99819">
        <ele>1244.7</ele>
      </trkpt>
      <trkpt lat="48.01732" lon="6.9986">
        <ele>1241.8</ele>
      </trkpt>
      <trkpt lat="48.0173" lon="6.99881">
        <ele>1241.5</ele>
      </trkpt>
      <trkpt lat="48.01727" lon="6.99888">
        <ele>1240.8</ele>
      </trkpt>
      <trkpt lat="48.01725" lon="6.99917">
        <ele>1240</ele>
      </trkpt>
      <trkpt lat="48.01727" lon="6.99968">
        <ele>1238.2</ele>
      </trkpt>
      <trkpt lat="48.01724" lon="7.00031">
        <ele>1232.3</ele>
      </trkpt>
      <trkpt lat="48.01729" lon="7.00088">
        <ele>1229.3</ele>
      </trkpt>
      <trkpt lat="48.01734" lon="7.00121">
        <ele>1227.8</ele>
      </trkpt>
      <trkpt lat="48.01744" lon="7.00158">
        <ele>1226.8</ele>
      </trkpt>
      <trkpt lat="48.01755" lon="7.00197">
        <ele>1225.9</ele>
      </trkpt>
      <trkpt lat="48.01762" lon="7.00237">
        <ele>1225.4</ele>
      </trkpt>
      <trkpt lat="48.01769" lon="7.00253">
        <ele>1227.5</ele>
      </trkpt>
      <trkpt lat="48.01804" lon="7.0033">
        <ele>1240</ele>
      </trkpt>
      <trkpt lat="48.0182" lon="7.00423">
        <ele>1246.2</ele>
      </trkpt>
      <trkpt lat="48.01818" lon="7.00449">
        <ele>1246</ele>
      </trkpt>
      <trkpt lat="48.01824" lon="7.005">
        <ele>1249.1</ele>
      </trkpt>
      <trkpt lat="48.01817" lon="7.00544">
        <ele>1251.7</ele>
      </trkpt>
      <trkpt lat="48.01819" lon="7.00671">
        <ele>1268.9</ele>
      </trkpt>
      <trkpt lat="48.01805" lon="7.00729">
        <ele>1267.7</ele>
      </trkpt>
      <trkpt lat="48.01801" lon="7.00808">
        <ele>1265</ele>
      </trkpt>
      <trkpt lat="48.01816" lon="7.0093">
        <ele>1268.7</ele>
      </trkpt>
      <trkpt lat="48.01825" lon="7.00964">
        <ele>1269.3</ele>
      </trkpt>
      <trkpt lat="48.01838" lon="7.00979">
        <ele>1271.6</ele>
      </trkpt>
      <trkpt lat="48.01838" lon="7.00979">
        <ele>1271.6</ele>
      </trkpt>
      <trkpt lat="48.01848" lon="7.0099">
        <ele>1272.9</ele>
      </trkpt>
      <trkpt lat="48.01854" lon="7.00997">
        <ele>1273.5</ele>
      </trkpt>
      <trkpt lat="48.0186" lon="7.01005">
        <ele>1274</ele>
      </trkpt>
      <trkpt lat="48.01904" lon="7.01038">
        <ele>1280</ele>
      </trkpt>
      <trkpt lat="48.01949" lon="7.01041">
        <ele>1283.8</ele>
      </trkpt>
      <trkpt lat="48.0199" lon="7.01033">
        <ele>1285.6</ele>
      </trkpt>
      <trkpt lat="48.02031" lon="7.00952">
        <ele>1293.7</ele>
      </trkpt>
      <trkpt lat="48.02071" lon="7.00867">
        <ele>1300.8</ele>
      </trkpt>
      <trkpt lat="48.02115" lon="7.00795">
        <ele>1305</ele>
      </trkpt>
      <trkpt lat="48.02129" lon="7.00755">
        <ele>1308.4</ele>
      </trkpt>
      <trkpt lat="48.02145" lon="7.00728">
        <ele>1309.2</ele>
      </trkpt>
      <trkpt lat="48.02164" lon="7.00703">
        <ele>1308.6</ele>
      </trkpt>
      <trkpt lat="48.02205" lon="7.00677">
        <ele>1306.2</ele>
      </trkpt>
      <trkpt lat="48.02278" lon="7.00676">
        <ele>1294.7</ele>
      </trkpt>
      <trkpt lat="48.02291" lon="7.0067">
        <ele>1293.8</ele>
      </trkpt>
      <trkpt lat="48.02343" lon="7.00659">
        <ele>1288.3</ele>
      </trkpt>
      <trkpt lat="48.02395" lon="7.00694">
        <ele>1287</ele>
      </trkpt>
      <trkpt lat="48.02448" lon="7.00732">
        <ele>1289.3</ele>
      </trkpt>
      <trkpt lat="48.02514" lon="7.00804">
        <ele>1287.7</ele>
      </trkpt>
      <trkpt lat="48.02542" lon="7.00831">
        <ele>1286.4</ele>
      </trkpt>
      <trkpt lat="48.02542" lon="7.00831">
        <ele>1286.4</ele>
      </trkpt>
      <trkpt lat="48.02572" lon="7.00859">
        <ele>1284.5</ele>
      </trkpt>
      <trkpt lat="48.02584" lon="7.00862">
        <ele>1284.8</ele>
      </trkpt>
      <trkpt lat="48.02654" lon="7.00869">
        <ele>1286.2</ele>
      </trkpt>
      <trkpt lat="48.02699" lon="7.0088">
        <ele>1287.9</ele>
      </trkpt>
      <trkpt lat="48.02746" lon="7.00883">
        <ele>1287.3</ele>
      </trkpt>
      <trkpt lat="48.02777" lon="7.00891">
        <ele>1286.2</ele>
      </trkpt>
      <trkpt lat="48.02837" lon="7.00892">
        <ele>1281.1</ele>
      </trkpt>
      <trkpt lat="48.0286" lon="7.00897">
        <ele>1278.9</ele>
      </trkpt>
      <trkpt lat="48.02863" lon="7.00898">
        <ele>1279</ele>
      </trkpt>
      <trkpt lat="48.02871" lon="7.00903">
        <ele>1279.7</ele>
      </trkpt>
      <trkpt lat="48.02891" lon="7.00937">
        <ele>1281.7</ele>
      </trkpt>
      <trkpt lat="48.02907" lon="7.01022">
        <ele>1287.6</ele>
      </trkpt>
      <trkpt lat="48.02914" lon="7.01045">
        <ele>1289.9</ele>
      </trkpt>
      <trkpt lat="48.02919" lon="7.01061">
        <ele>1291.5</ele>
      </trkpt>
      <trkpt lat="48.02911" lon="7.01105">
        <ele>1286.5</ele>
      </trkpt>
      <trkpt lat="48.02915" lon="7.01127">
        <ele>1285.4</ele>
      </trkpt>
      <trkpt lat="48.02923" lon="7.01142">
        <ele>1284.7</ele>
      </trkpt>
      <trkpt lat="48.02955" lon="7.0115">
        <ele>1286.7</ele>
      </trkpt>
      <trkpt lat="48.02981" lon="7.01165">
        <ele>1288.8</ele>
      </trkpt>
      <trkpt lat="48.02998" lon="7.01179">
        <ele>1288.4</ele>
      </trkpt>
      <trkpt lat="48.03016" lon="7.01187">
        <ele>1291.3</ele>
      </trkpt>
      <trkpt lat="48.03029" lon="7.01195">
        <ele>1294.8</ele>
      </trkpt>
      <trkpt lat="48.03041" lon="7.01214">
        <ele>1291.8</ele>
      </trkpt>
      <trkpt lat="48.03046" lon="7.0123">
        <ele>1290.6</ele>
      </trkpt>
      <trkpt lat="48.03059" lon="7.01245">
        <ele>1295.8</ele>
      </trkpt>
      <trkpt lat="48.03067" lon="7.01264">
        <ele>1290.6</ele>
      </trkpt>
      <trkpt lat="48.03073" lon="7.01265">
        <ele>1293.8</ele>
      </trkpt>
      <trkpt lat="48.0308" lon="7.01281">
        <ele>1295.2</ele>
      </trkpt>
      <trkpt lat="48.03104" lon="7.01327">
        <ele>1294.4</ele>
      </trkpt>
      <trkpt lat="48.03114" lon="7.01334">
        <ele>1297.9</ele>
      </trkpt>
      <trkpt lat="48.03132" lon="7.01354">
        <ele>1295.5</ele>
      </trkpt>
      <trkpt lat="48.03137" lon="7.01354">
        <ele>1296.6</ele>
      </trkpt>
      <trkpt lat="48.0314" lon="7.01352">
        <ele>1297.1</ele>
      </trkpt>
      <trkpt lat="48.03138" lon="7.01354">
        <ele>1296.8</ele>
      </trkpt>
      <trkpt lat="48.03138" lon="7.01354">
        <ele>1296.8</ele>
      </trkpt>
      <trkpt lat="48.0314" lon="7.01352">
        <ele>1297.1</ele>
      </trkpt>
      <trkpt lat="48.03142" lon="7.01348">
        <ele>1297</ele>
      </trkpt>
      <trkpt lat="48.0315" lon="7.01326">
        <ele>1298.9</ele>
      </trkpt>
      <trkpt lat="48.03161" lon="7.01303">
        <ele>1302</ele>
      </trkpt>
      <trkpt lat="48.0317" lon="7.01278">
        <ele>1303.2</ele>
      </trkpt>
      <trkpt lat="48.03193" lon="7.01247">
        <ele>1304.4</ele>
      </trkpt>
      <trkpt lat="48.03198" lon="7.01242">
        <ele>1304.5</ele>
      </trkpt>
      <trkpt lat="48.03211" lon="7.01241">
        <ele>1303.6</ele>
      </trkpt>
      <trkpt lat="48.03223" lon="7.01232">
        <ele>1303.1</ele>
      </trkpt>
      <trkpt lat="48.03248" lon="7.01186">
        <ele>1298</ele>
      </trkpt>
      <trkpt lat="48.03262" lon="7.01148">
        <ele>1295.5</ele>
      </trkpt>
      <trkpt lat="48.03265" lon="7.01133">
        <ele>1296.2</ele>
      </trkpt>
      <trkpt lat="48.03269" lon="7.01119">
        <ele>1296.5</ele>
      </trkpt>
      <trkpt lat="48.03279" lon="7.01101">
        <ele>1296.9</ele>
      </trkpt>
      <trkpt lat="48.03295" lon="7.01075">
        <ele>1296.9</ele>
      </trkpt>
      <trkpt lat="48.03311" lon="7.01055">
        <ele>1298.4</ele>
      </trkpt>
      <trkpt lat="48.03331" lon="7.01037">
        <ele>1296.9</ele>
      </trkpt>
      <trkpt lat="48.03346" lon="7.01031">
        <ele>1296.2</ele>
      </trkpt>
      <trkpt lat="48.03366" lon="7.0103">
        <ele>1293.7</ele>
      </trkpt>
      <trkpt lat="48.03383" lon="7.01033">
        <ele>1291.2</ele>
      </trkpt>
      <trkpt lat="48.03402" lon="7.0104">
        <ele>1287.9</ele>
      </trkpt>
      <trkpt lat="48.03437" lon="7.01067">
        <ele>1280</ele>
      </trkpt>
      <trkpt lat="48.03456" lon="7.01078">
        <ele>1278.3</ele>
      </trkpt>
      <trkpt lat="48.03493" lon="7.01097">
        <ele>1277.8</ele>
      </trkpt>
      <trkpt lat="48.03494" lon="7.01098">
        <ele>1277.8</ele>
      </trkpt>
      <trkpt lat="48.03494" lon="7.01098">
        <ele>1277.8</ele>
      </trkpt>
      <trkpt lat="48.03497" lon="7.011">
        <ele>1277.9</ele>
      </trkpt>
      <trkpt lat="48.03511" lon="7.01116">
        <ele>1279.2</ele>
      </trkpt>
      <trkpt lat="48.03525" lon="7.01144">
        <ele>1281.7</ele>
      </trkpt>
      <trkpt lat="48.03564" lon="7.01134">
        <ele>1286.7</ele>
      </trkpt>
      <trkpt lat="48.03553" lon="7.01181">
        <ele>1290.7</ele>
      </trkpt>
      <trkpt lat="48.03556" lon="7.0124">
        <ele>1294.5</ele>
      </trkpt>
      <trkpt lat="48.03573" lon="7.01259">
        <ele>1296.3</ele>
      </trkpt>
      <trkpt lat="48.03588" lon="7.01268">
        <ele>1300.6</ele>
      </trkpt>
      <trkpt lat="48.03593" lon="7.0126">
        <ele>1302.7</ele>
      </trkpt>
      <trkpt lat="48.03605" lon="7.0125">
        <ele>1305.1</ele>
      </trkpt>
      <trkpt lat="48.03644" lon="7.01242">
        <ele>1309.9</ele>
      </trkpt>
      <trkpt lat="48.03642" lon="7.01263">
        <ele>1311.8</ele>
      </trkpt>
      <trkpt lat="48.03644" lon="7.01277">
        <ele>1313.8</ele>
      </trkpt>
      <trkpt lat="48.03663" lon="7.01281">
        <ele>1317.7</ele>
      </trkpt>
      <trkpt lat="48.0368" lon="7.01288">
        <ele>1320.4</ele>
      </trkpt>
      <trkpt lat="48.03673" lon="7.01327">
        <ele>1325.8</ele>
      </trkpt>
      <trkpt lat="48.03675" lon="7.01343">
        <ele>1327.9</ele>
      </trkpt>
      <trkpt lat="48.03688" lon="7.01342">
        <ele>1330</ele>
      </trkpt>
      <trkpt lat="48.03684" lon="7.01363">
        <ele>1331.5</ele>
      </trkpt>
      <trkpt lat="48.03709" lon="7.01373">
        <ele>1336.8</ele>
      </trkpt>
      <trkpt lat="48.03696" lon="7.01424">
        <ele>1340.7</ele>
      </trkpt>
      <trkpt lat="48.03702" lon="7.01441">
        <ele>1343.1</ele>
      </trkpt>
      <trkpt lat="48.03704" lon="7.01462">
        <ele>1344.9</ele>
      </trkpt>
      <trkpt lat="48.03708" lon="7.01468">
        <ele>1346.2</ele>
      </trkpt>
      <trkpt lat="48.03715" lon="7.01473">
        <ele>1348.1</ele>
      </trkpt>
      <trkpt lat="48.03719" lon="7.0148">
        <ele>1349.4</ele>
      </trkpt>
      <trkpt lat="48.03719" lon="7.01498">
        <ele>1350.3</ele>
      </trkpt>
      <trkpt lat="48.0372" lon="7.01504">
        <ele>1351.6</ele>
      </trkpt>
      <trkpt lat="48.03721" lon="7.01508">
        <ele>1352.5</ele>
      </trkpt>
      <trkpt lat="48.03723" lon="7.01518">
        <ele>1353.8</ele>
      </trkpt>
      <trkpt lat="48.03734" lon="7.01554">
        <ele>1357.5</ele>
      </trkpt>
      <trkpt lat="48.03737" lon="7.01557">
        <ele>1358.3</ele>
      </trkpt>
      <trkpt lat="48.0374" lon="7.01577">
        <ele>1359.6</ele>
      </trkpt>
      <trkpt lat="48.03742" lon="7.01585">
        <ele>1360.2</ele>
      </trkpt>
      <trkpt lat="48.03745" lon="7.01595">
        <ele>1360.9</ele>
      </trkpt>
      <trkpt lat="48.0375" lon="7.01614">
        <ele>1362</ele>
      </trkpt>
      <trkpt lat="48.03757" lon="7.01628">
        <ele>1361.7</ele>
      </trkpt>
      <trkpt lat="48.0376" lon="7.01624">
        <ele>1361.7</ele>
      </trkpt>
      <trkpt lat="48.0376" lon="7.01624">
        <ele>1361.7</ele>
      </trkpt>
      <trkpt lat="48.03757" lon="7.01628">
        <ele>1361.7</ele>
      </trkpt>
      <trkpt lat="48.03757" lon="7.01642">
        <ele>1361.6</ele>
      </trkpt>
      <trkpt lat="48.03748" lon="7.0166">
        <ele>1360.9</ele>
      </trkpt>
      <trkpt lat="48.03739" lon="7.01669">
        <ele>1359.3</ele>
      </trkpt>
      <trkpt lat="48.03727" lon="7.01677">
        <ele>1356.6</ele>
      </trkpt>
      <trkpt lat="48.0373" lon="7.01686">
        <ele>1356.3</ele>
      </trkpt>
      <trkpt lat="48.03737" lon="7.017">
        <ele>1356</ele>
      </trkpt>
      <trkpt lat="48.03747" lon="7.01712">
        <ele>1356.7</ele>
      </trkpt>
      <trkpt lat="48.03733" lon="7.019">
        <ele>1328.2</ele>
      </trkpt>
      <trkpt lat="48.03726" lon="7.02">
        <ele>1318</ele>
      </trkpt>
      <trkpt lat="48.03731" lon="7.02028">
        <ele>1315</ele>
      </trkpt>
      <trkpt lat="48.03704" lon="7.02163">
        <ele>1300</ele>
      </trkpt>
      <trkpt lat="48.03687" lon="7.02217">
        <ele>1293</ele>
      </trkpt>
      <trkpt lat="48.03662" lon="7.0226">
        <ele>1285.7</ele>
      </trkpt>
      <trkpt lat="48.03641" lon="7.02329">
        <ele>1275.4</ele>
      </trkpt>
      <trkpt lat="48.03641" lon="7.0235">
        <ele>1273.1</ele>
      </trkpt>
      <trkpt lat="48.03627" lon="7.02381">
        <ele>1268.1</ele>
      </trkpt>
      <trkpt lat="48.03627" lon="7.02418">
        <ele>1262.3</ele>
      </trkpt>
      <trkpt lat="48.03625" lon="7.02427">
        <ele>1260.6</ele>
      </trkpt>
      <trkpt lat="48.03626" lon="7.0244">
        <ele>1258.4</ele>
      </trkpt>
      <trkpt lat="48.03618" lon="7.02454">
        <ele>1254.7</ele>
      </trkpt>
      <trkpt lat="48.0362" lon="7.02465">
        <ele>1251.7</ele>
      </trkpt>
      <trkpt lat="48.03638" lon="7.02492">
        <ele>1246</ele>
      </trkpt>
      <trkpt lat="48.03657" lon="7.02535">
        <ele>1237.1</ele>
      </trkpt>
      <trkpt lat="48.03647" lon="7.02549">
        <ele>1234.8</ele>
      </trkpt>
      <trkpt lat="48.03641" lon="7.02562">
        <ele>1233.5</ele>
      </trkpt>
      <trkpt lat="48.03635" lon="7.02633">
        <ele>1227.2</ele>
      </trkpt>
      <trkpt lat="48.03656" lon="7.02645">
        <ele>1224.9</ele>
      </trkpt>
      <trkpt lat="48.0368" lon="7.02648">
        <ele>1221.3</ele>
      </trkpt>
      <trkpt lat="48.03736" lon="7.02636">
        <ele>1214.8</ele>
      </trkpt>
      <trkpt lat="48.03749" lon="7.02623">
        <ele>1213.7</ele>
      </trkpt>
      <trkpt lat="48.03763" lon="7.02614">
        <ele>1211.6</ele>
      </trkpt>
      <trkpt lat="48.03777" lon="7.02614">
        <ele>1209</ele>
      </trkpt>
      <trkpt lat="48.03787" lon="7.02608">
        <ele>1207.7</ele>
      </trkpt>
      <trkpt lat="48.03798" lon="7.02588">
        <ele>1207.2</ele>
      </trkpt>
      <trkpt lat="48.03803" lon="7.02568">
        <ele>1206.7</ele>
      </trkpt>
      <trkpt lat="48.03807" lon="7.02533">
        <ele>1206.3</ele>
      </trkpt>
      <trkpt lat="48.03824" lon="7.02492">
        <ele>1202.6</ele>
      </trkpt>
      <trkpt lat="48.03822" lon="7.02471">
        <ele>1203.4</ele>
      </trkpt>
      <trkpt lat="48.03826" lon="7.02459">
        <ele>1204.4</ele>
      </trkpt>
      <trkpt lat="48.03844" lon="7.02434">
        <ele>1205.2</ele>
      </trkpt>
      <trkpt lat="48.03895" lon="7.02401">
        <ele>1202.7</ele>
      </trkpt>
      <trkpt lat="48.03924" lon="7.02371">
        <ele>1200.3</ele>
      </trkpt>
      <trkpt lat="48.03941" lon="7.02369">
        <ele>1197.4</ele>
      </trkpt>
      <trkpt lat="48.03949" lon="7.02369">
        <ele>1197</ele>
      </trkpt>
      <trkpt lat="48.03964" lon="7.02365">
        <ele>1198.1</ele>
      </trkpt>
      <trkpt lat="48.03954" lon="7.02344">
        <ele>1194.5</ele>
      </trkpt>
      <trkpt lat="48.03943" lon="7.02288">
        <ele>1182.5</ele>
      </trkpt>
      <trkpt lat="48.03943" lon="7.02271">
        <ele>1179.3</ele>
      </trkpt>
      <trkpt lat="48.03951" lon="7.02272">
        <ele>1175.3</ele>
      </trkpt>
      <trkpt lat="48.03965" lon="7.02267">
        <ele>1167.3</ele>
      </trkpt>
      <trkpt lat="48.03979" lon="7.02271">
        <ele>1160</ele>
      </trkpt>
      <trkpt lat="48.03988" lon="7.0228">
        <ele>1156.8</ele>
      </trkpt>
      <trkpt lat="48.04003" lon="7.02275">
        <ele>1145.5</ele>
      </trkpt>
      <trkpt lat="48.0401" lon="7.02265">
        <ele>1137.1</ele>
      </trkpt>
      <trkpt lat="48.04005" lon="7.02224">
        <ele>1130.2</ele>
      </trkpt>
      <trkpt lat="48.04023" lon="7.02232">
        <ele>1123.4</ele>
      </trkpt>
      <trkpt lat="48.04034" lon="7.02222">
        <ele>1117.9</ele>
      </trkpt>
      <trkpt lat="48.04038" lon="7.02216">
        <ele>1116.1</ele>
      </trkpt>
      <trkpt lat="48.04042" lon="7.0222">
        <ele>1114.9</ele>
      </trkpt>
      <trkpt lat="48.04047" lon="7.02223">
        <ele>1113.3</ele>
      </trkpt>
      <trkpt lat="48.04051" lon="7.0221">
        <ele>1112.1</ele>
      </trkpt>
      <trkpt lat="48.04073" lon="7.02196">
        <ele>1108.6</ele>
      </trkpt>
      <trkpt lat="48.04075" lon="7.02188">
        <ele>1109.5</ele>
      </trkpt>
      <trkpt lat="48.04075" lon="7.02179">
        <ele>1110.8</ele>
      </trkpt>
      <trkpt lat="48.04069" lon="7.02172">
        <ele>1112.4</ele>
      </trkpt>
      <trkpt lat="48.04067" lon="7.02157">
        <ele>1111.7</ele>
      </trkpt>
      <trkpt lat="48.0406" lon="7.02136">
        <ele>1110.1</ele>
      </trkpt>
      <trkpt lat="48.04052" lon="7.02121">
        <ele>1115</ele>
      </trkpt>
      <trkpt lat="48.04051" lon="7.02082">
        <ele>1124.9</ele>
      </trkpt>
      <trkpt lat="48.04052" lon="7.02121">
        <ele>1115</ele>
      </trkpt>
      <trkpt lat="48.04059" lon="7.02136">
        <ele>1110.2</ele>
      </trkpt>
      <trkpt lat="48.04067" lon="7.02158">
        <ele>1111.9</ele>
      </trkpt>
      <trkpt lat="48.04068" lon="7.0217">
        <ele>1112.7</ele>
      </trkpt>
      <trkpt lat="48.04076" lon="7.02179">
        <ele>1110.8</ele>
      </trkpt>
      <trkpt lat="48.04075" lon="7.02187">
        <ele>1109.7</ele>
      </trkpt>
      <trkpt lat="48.04073" lon="7.02195">
        <ele>1108.8</ele>
      </trkpt>
      <trkpt lat="48.04079" lon="7.0221">
        <ele>1104.8</ele>
      </trkpt>
      <trkpt lat="48.04078" lon="7.02225">
        <ele>1102.2</ele>
      </trkpt>
      <trkpt lat="48.04076" lon="7.02238">
        <ele>1101.4</ele>
      </trkpt>
      <trkpt lat="48.04077" lon="7.02246">
        <ele>1099.4</ele>
      </trkpt>
      <trkpt lat="48.04079" lon="7.02264">
        <ele>1097.9</ele>
      </trkpt>
      <trkpt lat="48.04084" lon="7.02276">
        <ele>1094.9</ele>
      </trkpt>
      <trkpt lat="48.04096" lon="7.02299">
        <ele>1093.9</ele>
      </trkpt>
      <trkpt lat="48.04116" lon="7.02312">
        <ele>1085.1</ele>
      </trkpt>
      <trkpt lat="48.04129" lon="7.02329">
        <ele>1084.7</ele>
      </trkpt>
      <trkpt lat="48.04141" lon="7.02339">
        <ele>1075.4</ele>
      </trkpt>
      <trkpt lat="48.04149" lon="7.02342">
        <ele>1070.9</ele>
      </trkpt>
      <trkpt lat="48.04153" lon="7.02351">
        <ele>1070.1</ele>
      </trkpt>
      <trkpt lat="48.04153" lon="7.0236">
        <ele>1071.1</ele>
      </trkpt>
      <trkpt lat="48.04158" lon="7.0236">
        <ele>1068.6</ele>
      </trkpt>
      <trkpt lat="48.04158" lon="7.02363">
        <ele>1068</ele>
      </trkpt>
      <trkpt lat="48.04156" lon="7.02368">
        <ele>1067.6</ele>
      </trkpt>
      <trkpt lat="48.04158" lon="7.02372">
        <ele>1065.1</ele>
      </trkpt>
      <trkpt lat="48.04169" lon="7.02371">
        <ele>1059.4</ele>
      </trkpt>
      <trkpt lat="48.04177" lon="7.02365">
        <ele>1056.1</ele>
      </trkpt>
      <trkpt lat="48.04181" lon="7.0236">
        <ele>1055</ele>
      </trkpt>
      <trkpt lat="48.04184" lon="7.02352">
        <ele>1053.5</ele>
      </trkpt>
      <trkpt lat="48.04183" lon="7.02335">
        <ele>1054.2</ele>
      </trkpt>
      <trkpt lat="48.04186" lon="7.02329">
        <ele>1051.7</ele>
      </trkpt>
      <trkpt lat="48.04188" lon="7.02329">
        <ele>1051</ele>
      </trkpt>
      <trkpt lat="48.04194" lon="7.02339">
        <ele>1049.4</ele>
      </trkpt>
      <trkpt lat="48.042" lon="7.02354">
        <ele>1045.9</ele>
      </trkpt>
      <trkpt lat="48.04205" lon="7.0235">
        <ele>1044.4</ele>
      </trkpt>
      <trkpt lat="48.0421" lon="7.02338">
        <ele>1043.1</ele>
      </trkpt>
      <trkpt lat="48.04214" lon="7.02344">
        <ele>1041</ele>
      </trkpt>
      <trkpt lat="48.04219" lon="7.02357">
        <ele>1039</ele>
      </trkpt>
      <trkpt lat="48.04221" lon="7.02357">
        <ele>1038.3</ele>
      </trkpt>
      <trkpt lat="48.04227" lon="7.02348">
        <ele>1035.2</ele>
      </trkpt>
      <trkpt lat="48.04233" lon="7.02335">
        <ele>1033.4</ele>
      </trkpt>
      <trkpt lat="48.04238" lon="7.02337">
        <ele>1031.2</ele>
      </trkpt>
      <trkpt lat="48.0424" lon="7.02332">
        <ele>1031.1</ele>
      </trkpt>
      <trkpt lat="48.0424" lon="7.02326">
        <ele>1030.5</ele>
      </trkpt>
      <trkpt lat="48.04236" lon="7.02311">
        <ele>1030.6</ele>
      </trkpt>
      <trkpt lat="48.04242" lon="7.02301">
        <ele>1027.6</ele>
      </trkpt>
      <trkpt lat="48.04244" lon="7.02285">
        <ele>1024.7</ele>
      </trkpt>
      <trkpt lat="48.04239" lon="7.02268">
        <ele>1022.3</ele>
      </trkpt>
      <trkpt lat="48.0424" lon="7.02262">
        <ele>1021.1</ele>
      </trkpt>
      <trkpt lat="48.04243" lon="7.02256">
        <ele>1019.6</ele>
      </trkpt>
      <trkpt lat="48.04245" lon="7.02247">
        <ele>1018.5</ele>
      </trkpt>
      <trkpt lat="48.04251" lon="7.02238">
        <ele>1018.8</ele>
      </trkpt>
      <trkpt lat="48.04254" lon="7.02227">
        <ele>1019.5</ele>
      </trkpt>
      <trkpt lat="48.04261" lon="7.02206">
        <ele>1021.1</ele>
      </trkpt>
      <trkpt lat="48.04265" lon="7.02195">
        <ele>1021.9</ele>
      </trkpt>
      <trkpt lat="48.04276" lon="7.02181">
        <ele>1025.5</ele>
      </trkpt>
      <trkpt lat="48.0429" lon="7.02177">
        <ele>1026.7</ele>
      </trkpt>
      <trkpt lat="48.04296" lon="7.02168">
        <ele>1029</ele>
      </trkpt>
      <trkpt lat="48.04302" lon="7.02164">
        <ele>1029.6</ele>
      </trkpt>
      <trkpt lat="48.04307" lon="7.02163">
        <ele>1029.5</ele>
      </trkpt>
      <trkpt lat="48.0431" lon="7.02153">
        <ele>1030.8</ele>
      </trkpt>
      <trkpt lat="48.04316" lon="7.02146">
        <ele>1031.5</ele>
      </trkpt>
      <trkpt lat="48.04342" lon="7.02135">
        <ele>1030.9</ele>
      </trkpt>
      <trkpt lat="48.04362" lon="7.02134">
        <ele>1029.6</ele>
      </trkpt>
      <trkpt lat="48.04376" lon="7.02132">
        <ele>1028.1</ele>
      </trkpt>
      <trkpt lat="48.04405" lon="7.02118">
        <ele>1026.4</ele>
      </trkpt>
      <trkpt lat="48.0443" lon="7.02112">
        <ele>1026.3</ele>
      </trkpt>
      <trkpt lat="48.04442" lon="7.02108">
        <ele>1026.1</ele>
      </trkpt>
      <trkpt lat="48.04442" lon="7.02108">
        <ele>1026.1</ele>
      </trkpt>
      <trkpt lat="48.04442" lon="7.02108">
        <ele>1026.1</ele>
      </trkpt>
      <trkpt lat="48.04462" lon="7.02098">
        <ele>1026.4</ele>
      </trkpt>
      <trkpt lat="48.04512" lon="7.02062">
        <ele>1027.4</ele>
      </trkpt>
      <trkpt lat="48.04518" lon="7.02055">
        <ele>1026.9</ele>
      </trkpt>
      <trkpt lat="48.04532" lon="7.02031">
        <ele>1027.1</ele>
      </trkpt>
      <trkpt lat="48.04537" lon="7.02027">
        <ele>1028.5</ele>
      </trkpt>
      <trkpt lat="48.04542" lon="7.0203">
        <ele>1028.5</ele>
      </trkpt>
      <trkpt lat="48.04566" lon="7.0207">
        <ele>1016.4</ele>
      </trkpt>
      <trkpt lat="48.04577" lon="7.02083">
        <ele>1013.3</ele>
      </trkpt>
      <trkpt lat="48.04615" lon="7.02094">
        <ele>1010.3</ele>
      </trkpt>
      <trkpt lat="48.04633" lon="7.02101">
        <ele>1007.6</ele>
      </trkpt>
      <trkpt lat="48.04643" lon="7.02108">
        <ele>1006.2</ele>
      </trkpt>
      <trkpt lat="48.04652" lon="7.02116">
        <ele>1005.2</ele>
      </trkpt>
      <trkpt lat="48.04657" lon="7.02125">
        <ele>1004.2</ele>
      </trkpt>
      <trkpt lat="48.0466" lon="7.02133">
        <ele>1002.7</ele>
      </trkpt>
      <trkpt lat="48.04663" lon="7.02154">
        <ele>1000.2</ele>
      </trkpt>
      <trkpt lat="48.0466" lon="7.02183">
        <ele>997.2</ele>
      </trkpt>
      <trkpt lat="48.0466" lon="7.022">
        <ele>995.7</ele>
      </trkpt>
      <trkpt lat="48.04677" lon="7.02246">
        <ele>994.3</ele>
      </trkpt>
      <trkpt lat="48.0468" lon="7.02257">
        <ele>993.4</ele>
      </trkpt>
      <trkpt lat="48.04682" lon="7.02278">
        <ele>990.6</ele>
      </trkpt>
      <trkpt lat="48.04683" lon="7.02326">
        <ele>986.7</ele>
      </trkpt>
      <trkpt lat="48.04676" lon="7.02367">
        <ele>982.5</ele>
      </trkpt>
      <trkpt lat="48.04674" lon="7.02387">
        <ele>981</ele>
      </trkpt>
      <trkpt lat="48.04673" lon="7.02422">
        <ele>979.3</ele>
      </trkpt>
      <trkpt lat="48.04675" lon="7.02439">
        <ele>977.8</ele>
      </trkpt>
      <trkpt lat="48.04681" lon="7.0246">
        <ele>978.4</ele>
      </trkpt>
      <trkpt lat="48.04682" lon="7.02481">
        <ele>977.6</ele>
      </trkpt>
      <trkpt lat="48.04678" lon="7.02509">
        <ele>976.6</ele>
      </trkpt>
      <trkpt lat="48.04674" lon="7.02526">
        <ele>975.5</ele>
      </trkpt>
      <trkpt lat="48.04664" lon="7.02551">
        <ele>972.6</ele>
      </trkpt>
      <trkpt lat="48.04641" lon="7.02582">
        <ele>970</ele>
      </trkpt>
      <trkpt lat="48.04627" lon="7.02595">
        <ele>969.7</ele>
      </trkpt>
      <trkpt lat="48.04617" lon="7.02612">
        <ele>968.8</ele>
      </trkpt>
      <trkpt lat="48.04615" lon="7.02623">
        <ele>968.1</ele>
      </trkpt>
      <trkpt lat="48.04615" lon="7.0263">
        <ele>967.8</ele>
      </trkpt>
      <trkpt lat="48.04619" lon="7.02642">
        <ele>967.3</ele>
      </trkpt>
      <trkpt lat="48.04656" lon="7.02688">
        <ele>962.2</ele>
      </trkpt>
      <trkpt lat="48.04663" lon="7.02699">
        <ele>961.5</ele>
      </trkpt>
      <trkpt lat="48.04667" lon="7.02707">
        <ele>961.1</ele>
      </trkpt>
      <trkpt lat="48.04669" lon="7.02712">
        <ele>961.1</ele>
      </trkpt>
      <trkpt lat="48.04672" lon="7.02723">
        <ele>960.6</ele>
      </trkpt>
      <trkpt lat="48.04673" lon="7.02724">
        <ele>960.5</ele>
      </trkpt>
      <trkpt lat="48.04682" lon="7.02733">
        <ele>961.7</ele>
      </trkpt>
      <trkpt lat="48.0469" lon="7.02744">
        <ele>962.5</ele>
      </trkpt>
      <trkpt lat="48.04697" lon="7.02755">
        <ele>963.3</ele>
      </trkpt>
      <trkpt lat="48.04702" lon="7.02768">
        <ele>963.4</ele>
      </trkpt>
      <trkpt lat="48.04709" lon="7.02782">
        <ele>964.3</ele>
      </trkpt>
      <trkpt lat="48.04718" lon="7.02798">
        <ele>966.1</ele>
      </trkpt>
      <trkpt lat="48.04728" lon="7.02829">
        <ele>967.6</ele>
      </trkpt>
      <trkpt lat="48.04736" lon="7.02839">
        <ele>970</ele>
      </trkpt>
      <trkpt lat="48.04742" lon="7.02845">
        <ele>972.1</ele>
      </trkpt>
      <trkpt lat="48.04745" lon="7.02849">
        <ele>973</ele>
      </trkpt>
      <trkpt lat="48.04749" lon="7.0286">
        <ele>973.8</ele>
      </trkpt>
      <trkpt lat="48.04758" lon="7.02875">
        <ele>975.4</ele>
      </trkpt>
      <trkpt lat="48.04765" lon="7.02881">
        <ele>977.8</ele>
      </trkpt>
      <trkpt lat="48.04766" lon="7.02881">
        <ele>978.4</ele>
      </trkpt>
      <trkpt lat="48.04766" lon="7.02876">
        <ele>979.3</ele>
      </trkpt>
      <trkpt lat="48.04766" lon="7.02876">
        <ele>979.7</ele>
      </trkpt>
      <trkpt lat="48.04779" lon="7.02887">
        <ele>984.1</ele>
      </trkpt>
      <trkpt lat="48.04786" lon="7.029">
        <ele>985.7</ele>
      </trkpt>
      <trkpt lat="48.04794" lon="7.02911">
        <ele>988.1</ele>
      </trkpt>
      <trkpt lat="48.04821" lon="7.02961">
        <ele>992.1</ele>
      </trkpt>
      <trkpt lat="48.04847" lon="7.02997">
        <ele>997.2</ele>
      </trkpt>
      <trkpt lat="48.04858" lon="7.03014">
        <ele>998.7</ele>
      </trkpt>
      <trkpt lat="48.04871" lon="7.03029">
        <ele>1002.4</ele>
      </trkpt>
      <trkpt lat="48.0488" lon="7.03034">
        <ele>1006.4</ele>
      </trkpt>
      <trkpt lat="48.0489" lon="7.03046">
        <ele>1008.9</ele>
      </trkpt>
      <trkpt lat="48.04905" lon="7.03056">
        <ele>1014.1</ele>
      </trkpt>
      <trkpt lat="48.04913" lon="7.03061">
        <ele>1017.4</ele>
      </trkpt>
      <trkpt lat="48.04909" lon="7.03052">
        <ele>1017.9</ele>
      </trkpt>
      <trkpt lat="48.04909" lon="7.03051">
        <ele>1018.3</ele>
      </trkpt>
      <trkpt lat="48.0491" lon="7.0305">
        <ele>1019.1</ele>
      </trkpt>
      <trkpt lat="48.04915" lon="7.03058">
        <ele>1019.1</ele>
      </trkpt>
      <trkpt lat="48.04915" lon="7.03057">
        <ele>1019.6</ele>
      </trkpt>
      <trkpt lat="48.04912" lon="7.0305">
        <ele>1019.9</ele>
      </trkpt>
      <trkpt lat="48.04917" lon="7.03053">
        <ele>1022</ele>
      </trkpt>
      <trkpt lat="48.04936" lon="7.03082">
        <ele>1019.6</ele>
      </trkpt>
      <trkpt lat="48.04946" lon="7.03091">
        <ele>1020.7</ele>
      </trkpt>
      <trkpt lat="48.04952" lon="7.03094">
        <ele>1017.8</ele>
      </trkpt>
      <trkpt lat="48.04962" lon="7.03088">
        <ele>1015</ele>
      </trkpt>
      <trkpt lat="48.04968" lon="7.03086">
        <ele>1013.3</ele>
      </trkpt>
      <trkpt lat="48.04968" lon="7.03085">
        <ele>1013.2</ele>
      </trkpt>
      <trkpt lat="48.04969" lon="7.03086">
        <ele>1012.9</ele>
      </trkpt>
      <trkpt lat="48.04965" lon="7.03104">
        <ele>1011.3</ele>
      </trkpt>
      <trkpt lat="48.04966" lon="7.03105">
        <ele>1010.9</ele>
      </trkpt>
      <trkpt lat="48.04973" lon="7.03095">
        <ele>1009.3</ele>
      </trkpt>
      <trkpt lat="48.04981" lon="7.03089">
        <ele>1005.3</ele>
      </trkpt>
      <trkpt lat="48.05004" lon="7.03061">
        <ele>1000.5</ele>
      </trkpt>
      <trkpt lat="48.05015" lon="7.03052">
        <ele>1000.3</ele>
      </trkpt>
      <trkpt lat="48.05027" lon="7.03051">
        <ele>997.1</ele>
      </trkpt>
      <trkpt lat="48.05051" lon="7.03051">
        <ele>994.1</ele>
      </trkpt>
      <trkpt lat="48.05053" lon="7.03053">
        <ele>992.6</ele>
      </trkpt>
      <trkpt lat="48.05058" lon="7.0306">
        <ele>988.2</ele>
      </trkpt>
      <trkpt lat="48.05069" lon="7.03068">
        <ele>987.3</ele>
      </trkpt>
      <trkpt lat="48.05082" lon="7.03068">
        <ele>990.7</ele>
      </trkpt>
      <trkpt lat="48.05092" lon="7.03072">
        <ele>994.2</ele>
      </trkpt>
      <trkpt lat="48.051" lon="7.0307">
        <ele>999.7</ele>
      </trkpt>
      <trkpt lat="48.05112" lon="7.03073">
        <ele>1005.1</ele>
      </trkpt>
      <trkpt lat="48.05118" lon="7.03078">
        <ele>1005.9</ele>
      </trkpt>
      <trkpt lat="48.05129" lon="7.03095">
        <ele>1001.5</ele>
      </trkpt>
      <trkpt lat="48.05138" lon="7.03104">
        <ele>1002.8</ele>
      </trkpt>
      <trkpt lat="48.05148" lon="7.03107">
        <ele>999.6</ele>
      </trkpt>
      <trkpt lat="48.05154" lon="7.03108">
        <ele>998.1</ele>
      </trkpt>
      <trkpt lat="48.05168" lon="7.03107">
        <ele>997.7</ele>
      </trkpt>
      <trkpt lat="48.05186" lon="7.03103">
        <ele>995.8</ele>
      </trkpt>
      <trkpt lat="48.05197" lon="7.03097">
        <ele>998.2</ele>
      </trkpt>
      <trkpt lat="48.05206" lon="7.03089">
        <ele>1003.1</ele>
      </trkpt>
      <trkpt lat="48.05215" lon="7.03085">
        <ele>1003.6</ele>
      </trkpt>
      <trkpt lat="48.05225" lon="7.03088">
        <ele>999.9</ele>
      </trkpt>
      <trkpt lat="48.05244" lon="7.03068">
        <ele>1007.6</ele>
      </trkpt>
      <trkpt lat="48.0525" lon="7.03057">
        <ele>1012.3</ele>
      </trkpt>
      <trkpt lat="48.05263" lon="7.03062">
        <ele>1020.5</ele>
      </trkpt>
      <trkpt lat="48.05274" lon="7.0307">
        <ele>1023.3</ele>
      </trkpt>
      <trkpt lat="48.05278" lon="7.03084">
        <ele>1016.6</ele>
      </trkpt>
      <trkpt lat="48.05281" lon="7.03097">
        <ele>1009.7</ele>
      </trkpt>
      <trkpt lat="48.05285" lon="7.03099">
        <ele>1011.7</ele>
      </trkpt>
      <trkpt lat="48.05283" lon="7.03093">
        <ele>1013.7</ele>
      </trkpt>
      <trkpt lat="48.05311" lon="7.03113">
        <ele>1023.5</ele>
      </trkpt>
      <trkpt lat="48.0532" lon="7.03119">
        <ele>1025.1</ele>
      </trkpt>
      <trkpt lat="48.0533" lon="7.03123">
        <ele>1028.8</ele>
      </trkpt>
      <trkpt lat="48.05333" lon="7.0312">
        <ele>1032.1</ele>
      </trkpt>
      <trkpt lat="48.05343" lon="7.03127">
        <ele>1029.9</ele>
      </trkpt>
      <trkpt lat="48.05346" lon="7.03131">
        <ele>1029.1</ele>
      </trkpt>
      <trkpt lat="48.05354" lon="7.03137">
        <ele>1029.4</ele>
      </trkpt>
      <trkpt lat="48.05357" lon="7.03138">
        <ele>1029.9</ele>
      </trkpt>
      <trkpt lat="48.05358" lon="7.03137">
        <ele>1030.3</ele>
      </trkpt>
      <trkpt lat="48.05359" lon="7.03134">
        <ele>1030.7</ele>
      </trkpt>
      <trkpt lat="48.05359" lon="7.03126">
        <ele>1031.3</ele>
      </trkpt>
      <trkpt lat="48.05359" lon="7.03114">
        <ele>1032.1</ele>
      </trkpt>
      <trkpt lat="48.0536" lon="7.03102">
        <ele>1031.7</ele>
      </trkpt>
      <trkpt lat="48.05366" lon="7.0312">
        <ele>1025.4</ele>
      </trkpt>
      <trkpt lat="48.05367" lon="7.03081">
        <ele>1026.3</ele>
      </trkpt>
      <trkpt lat="48.05372" lon="7.03074">
        <ele>1025.7</ele>
      </trkpt>
      <trkpt lat="48.05382" lon="7.03079">
        <ele>1015.6</ele>
      </trkpt>
      <trkpt lat="48.05396" lon="7.03081">
        <ele>1005.7</ele>
      </trkpt>
      <trkpt lat="48.05418" lon="7.03075">
        <ele>1003.2</ele>
      </trkpt>
      <trkpt lat="48.05425" lon="7.03069">
        <ele>1002.2</ele>
      </trkpt>
      <trkpt lat="48.05431" lon="7.03062">
        <ele>1001.5</ele>
      </trkpt>
      <trkpt lat="48.05438" lon="7.03046">
        <ele>1000.9</ele>
      </trkpt>
      <trkpt lat="48.05443" lon="7.03017">
        <ele>1006.9</ele>
      </trkpt>
      <trkpt lat="48.05441" lon="7.03">
        <ele>1019.1</ele>
      </trkpt>
      <trkpt lat="48.05443" lon="7.02986">
        <ele>1020.8</ele>
      </trkpt>
      <trkpt lat="48.0545" lon="7.02965">
        <ele>1021.9</ele>
      </trkpt>
      <trkpt lat="48.05459" lon="7.02952">
        <ele>1024.7</ele>
      </trkpt>
      <trkpt lat="48.05469" lon="7.02953">
        <ele>1021.3</ele>
      </trkpt>
      <trkpt lat="48.05487" lon="7.02964">
        <ele>1019.6</ele>
      </trkpt>
      <trkpt lat="48.05498" lon="7.02965">
        <ele>1022.4</ele>
      </trkpt>
      <trkpt lat="48.05502" lon="7.02961">
        <ele>1026.7</ele>
      </trkpt>
      <trkpt lat="48.05503" lon="7.02953">
        <ele>1032.1</ele>
      </trkpt>
      <trkpt lat="48.05502" lon="7.02945">
        <ele>1036.7</ele>
      </trkpt>
      <trkpt lat="48.05493" lon="7.02936">
        <ele>1038.3</ele>
      </trkpt>
      <trkpt lat="48.05484" lon="7.02923">
        <ele>1041.4</ele>
      </trkpt>
      <trkpt lat="48.05476" lon="7.02916">
        <ele>1040.8</ele>
      </trkpt>
      <trkpt lat="48.05465" lon="7.02915">
        <ele>1039.9</ele>
      </trkpt>
      <trkpt lat="48.05453" lon="7.02907">
        <ele>1042.3</ele>
      </trkpt>
      <trkpt lat="48.05447" lon="7.02895">
        <ele>1045.7</ele>
      </trkpt>
      <trkpt lat="48.05441" lon="7.02889">
        <ele>1049</ele>
      </trkpt>
      <trkpt lat="48.05439" lon="7.0289">
        <ele>1050.6</ele>
      </trkpt>
      <trkpt lat="48.05433" lon="7.02907">
        <ele>1050.1</ele>
      </trkpt>
      <trkpt lat="48.05429" lon="7.02909">
        <ele>1052</ele>
      </trkpt>
      <trkpt lat="48.05423" lon="7.02907">
        <ele>1056.5</ele>
      </trkpt>
      <trkpt lat="48.0542" lon="7.02899">
        <ele>1060.5</ele>
      </trkpt>
      <trkpt lat="48.05419" lon="7.02891">
        <ele>1063.1</ele>
      </trkpt>
      <trkpt lat="48.05421" lon="7.02882">
        <ele>1064.6</ele>
      </trkpt>
      <trkpt lat="48.05425" lon="7.02868">
        <ele>1067</ele>
      </trkpt>
      <trkpt lat="48.0543" lon="7.0286">
        <ele>1067.5</ele>
      </trkpt>
      <trkpt lat="48.05437" lon="7.02855">
        <ele>1067.5</ele>
      </trkpt>
      <trkpt lat="48.05445" lon="7.02858">
        <ele>1063.3</ele>
      </trkpt>
      <trkpt lat="48.05468" lon="7.02859">
        <ele>1070.1</ele>
      </trkpt>
      <trkpt lat="48.05478" lon="7.02861">
        <ele>1073.3</ele>
      </trkpt>
      <trkpt lat="48.05489" lon="7.0287">
        <ele>1074.1</ele>
      </trkpt>
      <trkpt lat="48.055" lon="7.02875">
        <ele>1077.8</ele>
      </trkpt>
      <trkpt lat="48.05514" lon="7.02896">
        <ele>1079.6</ele>
      </trkpt>
      <trkpt lat="48.05508" lon="7.02876">
        <ele>1085.5</ele>
      </trkpt>
      <trkpt lat="48.05509" lon="7.02876">
        <ele>1086.3</ele>
      </trkpt>
      <trkpt lat="48.05518" lon="7.02891">
        <ele>1087.6</ele>
      </trkpt>
      <trkpt lat="48.05514" lon="7.02875">
        <ele>1091.6</ele>
      </trkpt>
      <trkpt lat="48.05514" lon="7.02874">
        <ele>1092.7</ele>
      </trkpt>
      <trkpt lat="48.0552" lon="7.02891">
        <ele>1089.6</ele>
      </trkpt>
      <trkpt lat="48.05522" lon="7.02895">
        <ele>1089.8</ele>
      </trkpt>
      <trkpt lat="48.05517" lon="7.02876">
        <ele>1094.7</ele>
      </trkpt>
      <trkpt lat="48.05516" lon="7.02864">
        <ele>1099.7</ele>
      </trkpt>
      <trkpt lat="48.05524" lon="7.02864">
        <ele>1107.2</ele>
      </trkpt>
      <trkpt lat="48.05524" lon="7.0286">
        <ele>1110.3</ele>
      </trkpt>
      <trkpt lat="48.05527" lon="7.02858">
        <ele>1115</ele>
      </trkpt>
      <trkpt lat="48.05541" lon="7.02855">
        <ele>1105.1</ele>
      </trkpt>
      <trkpt lat="48.05544" lon="7.02852">
        <ele>1103.6</ele>
      </trkpt>
      <trkpt lat="48.05547" lon="7.02828">
        <ele>1111.7</ele>
      </trkpt>
      <trkpt lat="48.05552" lon="7.02817">
        <ele>1108.1</ele>
      </trkpt>
      <trkpt lat="48.05556" lon="7.02811">
        <ele>1105.8</ele>
      </trkpt>
      <trkpt lat="48.05565" lon="7.02804">
        <ele>1107.9</ele>
      </trkpt>
      <trkpt lat="48.05576" lon="7.02807">
        <ele>1106</ele>
      </trkpt>
      <trkpt lat="48.05588" lon="7.02803">
        <ele>1105.4</ele>
      </trkpt>
      <trkpt lat="48.056" lon="7.02796">
        <ele>1103.7</ele>
      </trkpt>
      <trkpt lat="48.05619" lon="7.02781">
        <ele>1104.3</ele>
      </trkpt>
      <trkpt lat="48.05631" lon="7.02781">
        <ele>1100.7</ele>
      </trkpt>
      <trkpt lat="48.05643" lon="7.02778">
        <ele>1098.6</ele>
      </trkpt>
      <trkpt lat="48.05653" lon="7.02766">
        <ele>1101.8</ele>
      </trkpt>
      <trkpt lat="48.05677" lon="7.02757">
        <ele>1100.7</ele>
      </trkpt>
      <trkpt lat="48.05688" lon="7.02757">
        <ele>1098.3</ele>
      </trkpt>
      <trkpt lat="48.05691" lon="7.02753">
        <ele>1099.5</ele>
      </trkpt>
      <trkpt lat="48.05696" lon="7.02731">
        <ele>1105.4</ele>
      </trkpt>
      <trkpt lat="48.05703" lon="7.02719">
        <ele>1104.3</ele>
      </trkpt>
      <trkpt lat="48.05708" lon="7.02693">
        <ele>1107.9</ele>
      </trkpt>
      <trkpt lat="48.05717" lon="7.02674">
        <ele>1108.1</ele>
      </trkpt>
      <trkpt lat="48.05741" lon="7.02643">
        <ele>1104</ele>
      </trkpt>
      <trkpt lat="48.05744" lon="7.0263">
        <ele>1105.4</ele>
      </trkpt>
      <trkpt lat="48.05756" lon="7.02603">
        <ele>1108.4</ele>
      </trkpt>
      <trkpt lat="48.05767" lon="7.02591">
        <ele>1109</ele>
      </trkpt>
      <trkpt lat="48.05793" lon="7.02575">
        <ele>1106.7</ele>
      </trkpt>
      <trkpt lat="48.05797" lon="7.02571">
        <ele>1106.5</ele>
      </trkpt>
      <trkpt lat="48.05802" lon="7.02565">
        <ele>1106.4</ele>
      </trkpt>
      <trkpt lat="48.05808" lon="7.02535">
        <ele>1112.3</ele>
      </trkpt>
      <trkpt lat="48.05809" lon="7.02533">
        <ele>1112.2</ele>
      </trkpt>
      <trkpt lat="48.05822" lon="7.02525">
        <ele>1109.2</ele>
      </trkpt>
      <trkpt lat="48.05826" lon="7.02516">
        <ele>1114.3</ele>
      </trkpt>
      <trkpt lat="48.0583" lon="7.02514">
        <ele>1113.8</ele>
      </trkpt>
      <trkpt lat="48.05832" lon="7.02514">
        <ele>1112.9</ele>
      </trkpt>
      <trkpt lat="48.05841" lon="7.0252">
        <ele>1107.9</ele>
      </trkpt>
      <trkpt lat="48.0585" lon="7.02531">
        <ele>1103.9</ele>
      </trkpt>
      <trkpt lat="48.05857" lon="7.02534">
        <ele>1102.9</ele>
      </trkpt>
      <trkpt lat="48.05859" lon="7.02534">
        <ele>1103.7</ele>
      </trkpt>
      <trkpt lat="48.0586" lon="7.02531">
        <ele>1106.2</ele>
      </trkpt>
      <trkpt lat="48.0586" lon="7.02528">
        <ele>1108.4</ele>
      </trkpt>
      <trkpt lat="48.05857" lon="7.02523">
        <ele>1108.1</ele>
      </trkpt>
      <trkpt lat="48.05854" lon="7.0251">
        <ele>1109.8</ele>
      </trkpt>
      <trkpt lat="48.05853" lon="7.02494">
        <ele>1113.9</ele>
      </trkpt>
      <trkpt lat="48.0586" lon="7.02479">
        <ele>1115.3</ele>
      </trkpt>
      <trkpt lat="48.05864" lon="7.02474">
        <ele>1116.2</ele>
      </trkpt>
      <trkpt lat="48.05871" lon="7.02472">
        <ele>1117.8</ele>
      </trkpt>
      <trkpt lat="48.05881" lon="7.02473">
        <ele>1117.5</ele>
      </trkpt>
      <trkpt lat="48.05885" lon="7.02475">
        <ele>1115.9</ele>
      </trkpt>
      <trkpt lat="48.0589" lon="7.02481">
        <ele>1110.6</ele>
      </trkpt>
      <trkpt lat="48.05898" lon="7.02493">
        <ele>1101.1</ele>
      </trkpt>
      <trkpt lat="48.05902" lon="7.02497">
        <ele>1098.3</ele>
      </trkpt>
      <trkpt lat="48.05907" lon="7.02499">
        <ele>1097.1</ele>
      </trkpt>
      <trkpt lat="48.05919" lon="7.02493">
        <ele>1102.9</ele>
      </trkpt>
      <trkpt lat="48.05918" lon="7.02484">
        <ele>1109.9</ele>
      </trkpt>
      <trkpt lat="48.05919" lon="7.02482">
        <ele>1111.1</ele>
      </trkpt>
      <trkpt lat="48.05927" lon="7.02485">
        <ele>1109.3</ele>
      </trkpt>
      <trkpt lat="48.05937" lon="7.02491">
        <ele>1105.2</ele>
      </trkpt>
      <trkpt lat="48.05943" lon="7.02496">
        <ele>1102.3</ele>
      </trkpt>
      <trkpt lat="48.05943" lon="7.02497">
        <ele>1101.5</ele>
      </trkpt>
      <trkpt lat="48.05923" lon="7.02501">
        <ele>1097.9</ele>
      </trkpt>
      <trkpt lat="48.0592" lon="7.02503">
        <ele>1096.7</ele>
      </trkpt>
      <trkpt lat="48.0592" lon="7.02504">
        <ele>1096</ele>
      </trkpt>
      <trkpt lat="48.05927" lon="7.02515">
        <ele>1090.6</ele>
      </trkpt>
      <trkpt lat="48.05936" lon="7.02522">
        <ele>1087.6</ele>
      </trkpt>
      <trkpt lat="48.05946" lon="7.02526">
        <ele>1085.9</ele>
      </trkpt>
      <trkpt lat="48.05953" lon="7.02525">
        <ele>1088</ele>
      </trkpt>
      <trkpt lat="48.05963" lon="7.02521">
        <ele>1093</ele>
      </trkpt>
      <trkpt lat="48.05972" lon="7.02527">
        <ele>1088.1</ele>
      </trkpt>
      <trkpt lat="48.05979" lon="7.02534">
        <ele>1087.1</ele>
      </trkpt>
      <trkpt lat="48.05984" lon="7.02534">
        <ele>1089.2</ele>
      </trkpt>
      <trkpt lat="48.05996" lon="7.02547">
        <ele>1088.9</ele>
      </trkpt>
      <trkpt lat="48.06006" lon="7.02552">
        <ele>1094.4</ele>
      </trkpt>
      <trkpt lat="48.06012" lon="7.02562">
        <ele>1095</ele>
      </trkpt>
      <trkpt lat="48.06022" lon="7.0257">
        <ele>1101.4</ele>
      </trkpt>
      <trkpt lat="48.06024" lon="7.02578">
        <ele>1100.7</ele>
      </trkpt>
      <trkpt lat="48.06026" lon="7.02594">
        <ele>1091.2</ele>
      </trkpt>
      <trkpt lat="48.06033" lon="7.02605">
        <ele>1089.4</ele>
      </trkpt>
      <trkpt lat="48.06041" lon="7.0261">
        <ele>1093.3</ele>
      </trkpt>
      <trkpt lat="48.06052" lon="7.02614">
        <ele>1102.1</ele>
      </trkpt>
      <trkpt lat="48.06061" lon="7.02615">
        <ele>1107.6</ele>
      </trkpt>
      <trkpt lat="48.06082" lon="7.02624">
        <ele>1101.5</ele>
      </trkpt>
      <trkpt lat="48.06086" lon="7.0262">
        <ele>1106.5</ele>
      </trkpt>
      <trkpt lat="48.06089" lon="7.02614">
        <ele>1111.2</ele>
      </trkpt>
      <trkpt lat="48.06092" lon="7.02598">
        <ele>1119.4</ele>
      </trkpt>
      <trkpt lat="48.06099" lon="7.02591">
        <ele>1120.2</ele>
      </trkpt>
      <trkpt lat="48.06108" lon="7.0259">
        <ele>1118.2</ele>
      </trkpt>
      <trkpt lat="48.06112" lon="7.0259">
        <ele>1116.8</ele>
      </trkpt>
      <trkpt lat="48.06116" lon="7.02602">
        <ele>1112.1</ele>
      </trkpt>
      <trkpt lat="48.0612" lon="7.02613">
        <ele>1107.1</ele>
      </trkpt>
      <trkpt lat="48.06122" lon="7.02612">
        <ele>1107.2</ele>
      </trkpt>
      <trkpt lat="48.06128" lon="7.02607">
        <ele>1110.2</ele>
      </trkpt>
      <trkpt lat="48.06132" lon="7.02603">
        <ele>1113.9</ele>
      </trkpt>
      <trkpt lat="48.06139" lon="7.02604">
        <ele>1113.9</ele>
      </trkpt>
      <trkpt lat="48.06144" lon="7.02604">
        <ele>1111.7</ele>
      </trkpt>
      <trkpt lat="48.06148" lon="7.02596">
        <ele>1115.9</ele>
      </trkpt>
      <trkpt lat="48.06154" lon="7.02591">
        <ele>1118</ele>
      </trkpt>
      <trkpt lat="48.06177" lon="7.0259">
        <ele>1107.6</ele>
      </trkpt>
      <trkpt lat="48.06181" lon="7.02588">
        <ele>1107.1</ele>
      </trkpt>
      <trkpt lat="48.06184" lon="7.02585">
        <ele>1108.2</ele>
      </trkpt>
      <trkpt lat="48.06187" lon="7.02578">
        <ele>1109.6</ele>
      </trkpt>
      <trkpt lat="48.06192" lon="7.0256">
        <ele>1112.4</ele>
      </trkpt>
      <trkpt lat="48.06196" lon="7.0255">
        <ele>1113.4</ele>
      </trkpt>
      <trkpt lat="48.06202" lon="7.02539">
        <ele>1114.7</ele>
      </trkpt>
      <trkpt lat="48.06209" lon="7.0253">
        <ele>1115.5</ele>
      </trkpt>
      <trkpt lat="48.06233" lon="7.02509">
        <ele>1116.2</ele>
      </trkpt>
      <trkpt lat="48.06252" lon="7.02484">
        <ele>1121.1</ele>
      </trkpt>
      <trkpt lat="48.06264" lon="7.02479">
        <ele>1122.2</ele>
      </trkpt>
      <trkpt lat="48.06273" lon="7.02471">
        <ele>1124</ele>
      </trkpt>
      <trkpt lat="48.06283" lon="7.02454">
        <ele>1127.4</ele>
      </trkpt>
      <trkpt lat="48.06287" lon="7.02451">
        <ele>1127.8</ele>
      </trkpt>
      <trkpt lat="48.06302" lon="7.02435">
        <ele>1133</ele>
      </trkpt>
      <trkpt lat="48.0633" lon="7.02397">
        <ele>1139.7</ele>
      </trkpt>
      <trkpt lat="48.06357" lon="7.02384">
        <ele>1138.4</ele>
      </trkpt>
      <trkpt lat="48.06364" lon="7.0237">
        <ele>1138.8</ele>
      </trkpt>
      <trkpt lat="48.06366" lon="7.02362">
        <ele>1139</ele>
      </trkpt>
      <trkpt lat="48.06376" lon="7.02311">
        <ele>1140.4</ele>
      </trkpt>
      <trkpt lat="48.06376" lon="7.02311">
        <ele>1140.4</ele>
      </trkpt>
      <trkpt lat="48.06376" lon="7.02311">
        <ele>1140.4</ele>
      </trkpt>
      <trkpt lat="48.06371" lon="7.02315">
        <ele>1140.4</ele>
      </trkpt>
      <trkpt lat="48.06369" lon="7.02314">
        <ele>1140.5</ele>
      </trkpt>
      <trkpt lat="48.06364" lon="7.02312">
        <ele>1140.7</ele>
      </trkpt>
      <trkpt lat="48.0636" lon="7.02307">
        <ele>1141.3</ele>
      </trkpt>
      <trkpt lat="48.06356" lon="7.02295">
        <ele>1142.1</ele>
      </trkpt>
      <trkpt lat="48.0635" lon="7.02282">
        <ele>1142.6</ele>
      </trkpt>
      <trkpt lat="48.0635" lon="7.02296">
        <ele>1143.6</ele>
      </trkpt>
      <trkpt lat="48.06337" lon="7.02327">
        <ele>1147.8</ele>
      </trkpt>
      <trkpt lat="48.06328" lon="7.02344">
        <ele>1148</ele>
      </trkpt>
      <trkpt lat="48.06325" lon="7.02354">
        <ele>1146.8</ele>
      </trkpt>
      <trkpt lat="48.06323" lon="7.02351">
        <ele>1148.3</ele>
      </trkpt>
      <trkpt lat="48.06317" lon="7.02336">
        <ele>1152.4</ele>
      </trkpt>
      <trkpt lat="48.06307" lon="7.02321">
        <ele>1153.9</ele>
      </trkpt>
      <trkpt lat="48.06279" lon="7.02337">
        <ele>1157.8</ele>
      </trkpt>
      <trkpt lat="48.06242" lon="7.02356">
        <ele>1159.4</ele>
      </trkpt>
      <trkpt lat="48.06227" lon="7.02367">
        <ele>1161.2</ele>
      </trkpt>
      <trkpt lat="48.06217" lon="7.02382">
        <ele>1163</ele>
      </trkpt>
      <trkpt lat="48.06203" lon="7.02395">
        <ele>1165</ele>
      </trkpt>
      <trkpt lat="48.06196" lon="7.02402">
        <ele>1165.4</ele>
      </trkpt>
      <trkpt lat="48.06159" lon="7.02428">
        <ele>1171.5</ele>
      </trkpt>
      <trkpt lat="48.06156" lon="7.0243">
        <ele>1172.3</ele>
      </trkpt>
      <trkpt lat="48.06156" lon="7.0243">
        <ele>1172.3</ele>
      </trkpt>
      <trkpt lat="48.06139" lon="7.02442">
        <ele>1177.9</ele>
      </trkpt>
      <trkpt lat="48.06132" lon="7.02453">
        <ele>1179.3</ele>
      </trkpt>
      <trkpt lat="48.06119" lon="7.02487">
        <ele>1178.2</ele>
      </trkpt>
      <trkpt lat="48.06114" lon="7.02493">
        <ele>1178.6</ele>
      </trkpt>
      <trkpt lat="48.06104" lon="7.02495">
        <ele>1180</ele>
      </trkpt>
      <trkpt lat="48.06081" lon="7.02489">
        <ele>1183.6</ele>
      </trkpt>
      <trkpt lat="48.06068" lon="7.02478">
        <ele>1183.4</ele>
      </trkpt>
      <trkpt lat="48.06036" lon="7.02432">
        <ele>1189.4</ele>
      </trkpt>
      <trkpt lat="48.06015" lon="7.02418">
        <ele>1192.1</ele>
      </trkpt>
      <trkpt lat="48.05993" lon="7.02408">
        <ele>1194</ele>
      </trkpt>
      <trkpt lat="48.05973" lon="7.02397">
        <ele>1198</ele>
      </trkpt>
      <trkpt lat="48.05964" lon="7.02397">
        <ele>1195.5</ele>
      </trkpt>
      <trkpt lat="48.05939" lon="7.02382">
        <ele>1197.5</ele>
      </trkpt>
      <trkpt lat="48.05933" lon="7.02387">
        <ele>1194</ele>
      </trkpt>
      <trkpt lat="48.05921" lon="7.02387">
        <ele>1188.9</ele>
      </trkpt>
      <trkpt lat="48.05919" lon="7.02366">
        <ele>1199.4</ele>
      </trkpt>
      <trkpt lat="48.05916" lon="7.02342">
        <ele>1203.8</ele>
      </trkpt>
      <trkpt lat="48.05859" lon="7.02308">
        <ele>1206.7</ele>
      </trkpt>
      <trkpt lat="48.05843" lon="7.02309">
        <ele>1208.8</ele>
      </trkpt>
      <trkpt lat="48.05816" lon="7.02303">
        <ele>1212.9</ele>
      </trkpt>
      <trkpt lat="48.05804" lon="7.02303">
        <ele>1214.4</ele>
      </trkpt>
      <trkpt lat="48.05804" lon="7.02303">
        <ele>1214.4</ele>
      </trkpt>
      <trkpt lat="48.05801" lon="7.02303">
        <ele>1214.9</ele>
      </trkpt>
      <trkpt lat="48.05791" lon="7.02306">
        <ele>1216.4</ele>
      </trkpt>
      <trkpt lat="48.05786" lon="7.0231">
        <ele>1216.9</ele>
      </trkpt>
      <trkpt lat="48.0577" lon="7.02337">
        <ele>1219.7</ele>
      </trkpt>
      <trkpt lat="48.05736" lon="7.02384">
        <ele>1225.9</ele>
      </trkpt>
      <trkpt lat="48.05702" lon="7.02403">
        <ele>1227.6</ele>
      </trkpt>
      <trkpt lat="48.05687" lon="7.02408">
        <ele>1230.4</ele>
      </trkpt>
      <trkpt lat="48.05671" lon="7.02421">
        <ele>1234.3</ele>
      </trkpt>
      <trkpt lat="48.0566" lon="7.02423">
        <ele>1236.6</ele>
      </trkpt>
      <trkpt lat="48.05651" lon="7.02423">
        <ele>1238</ele>
      </trkpt>
      <trkpt lat="48.05633" lon="7.02415">
        <ele>1240.4</ele>
      </trkpt>
      <trkpt lat="48.05615" lon="7.02404">
        <ele>1241.7</ele>
      </trkpt>
      <trkpt lat="48.05576" lon="7.02362">
        <ele>1240.8</ele>
      </trkpt>
      <trkpt lat="48.05565" lon="7.02349">
        <ele>1239.8</ele>
      </trkpt>
      <trkpt lat="48.05542" lon="7.02323">
        <ele>1237.8</ele>
      </trkpt>
      <trkpt lat="48.0553" lon="7.02306">
        <ele>1237.1</ele>
      </trkpt>
      <trkpt lat="48.05523" lon="7.02294">
        <ele>1236.7</ele>
      </trkpt>
      <trkpt lat="48.0552" lon="7.02289">
        <ele>1236.6</ele>
      </trkpt>
      <trkpt lat="48.05509" lon="7.02272">
        <ele>1236.7</ele>
      </trkpt>
      <trkpt lat="48.05495" lon="7.02258">
        <ele>1237.1</ele>
      </trkpt>
      <trkpt lat="48.05476" lon="7.02241">
        <ele>1236.9</ele>
      </trkpt>
      <trkpt lat="48.05455" lon="7.02226">
        <ele>1237.1</ele>
      </trkpt>
      <trkpt lat="48.05403" lon="7.02185">
        <ele>1236.5</ele>
      </trkpt>
      <trkpt lat="48.05377" lon="7.02158">
        <ele>1236</ele>
      </trkpt>
      <trkpt lat="48.05335" lon="7.0212">
        <ele>1233.9</ele>
      </trkpt>
      <trkpt lat="48.05309" lon="7.02092">
        <ele>1232.7</ele>
      </trkpt>
      <trkpt lat="48.0526" lon="7.02049">
        <ele>1229.6</ele>
      </trkpt>
      <trkpt lat="48.0524" lon="7.02031">
        <ele>1229.1</ele>
      </trkpt>
      <trkpt lat="48.05222" lon="7.02015">
        <ele>1228.9</ele>
      </trkpt>
      <trkpt lat="48.05199" lon="7.01982">
        <ele>1229.1</ele>
      </trkpt>
      <trkpt lat="48.05199" lon="7.01983">
        <ele>1229.1</ele>
      </trkpt>
      <trkpt lat="48.05197" lon="7.01979">
        <ele>1229</ele>
      </trkpt>
      <trkpt lat="48.05191" lon="7.01978">
        <ele>1228.6</ele>
      </trkpt>
      <trkpt lat="48.05169" lon="7.0193">
        <ele>1227.7</ele>
      </trkpt>
      <trkpt lat="48.05168" lon="7.01927">
        <ele>1227.7</ele>
      </trkpt>
      <trkpt lat="48.05167" lon="7.01923">
        <ele>1227.8</ele>
      </trkpt>
      <trkpt lat="48.05164" lon="7.01907">
        <ele>1227.6</ele>
      </trkpt>
      <trkpt lat="48.05165" lon="7.01896">
        <ele>1227.7</ele>
      </trkpt>
      <trkpt lat="48.05166" lon="7.01878">
        <ele>1228.2</ele>
      </trkpt>
      <trkpt lat="48.05163" lon="7.01873">
        <ele>1228.1</ele>
      </trkpt>
      <trkpt lat="48.05165" lon="7.01826">
        <ele>1228.7</ele>
      </trkpt>
      <trkpt lat="48.05168" lon="7.01786">
        <ele>1229.1</ele>
      </trkpt>
      <trkpt lat="48.05173" lon="7.01755">
        <ele>1230.5</ele>
      </trkpt>
      <trkpt lat="48.05176" lon="7.01706">
        <ele>1231</ele>
      </trkpt>
      <trkpt lat="48.05182" lon="7.01633">
        <ele>1233</ele>
      </trkpt>
      <trkpt lat="48.05182" lon="7.01622">
        <ele>1233</ele>
      </trkpt>
      <trkpt lat="48.05179" lon="7.01614">
        <ele>1233.1</ele>
      </trkpt>
      <trkpt lat="48.05173" lon="7.01612">
        <ele>1233.6</ele>
      </trkpt>
      <trkpt lat="48.05157" lon="7.01602">
        <ele>1234.1</ele>
      </trkpt>
      <trkpt lat="48.0515" lon="7.01599">
        <ele>1234.4</ele>
      </trkpt>
      <trkpt lat="48.0514" lon="7.01594">
        <ele>1235</ele>
      </trkpt>
      <trkpt lat="48.0499" lon="7.01551">
        <ele>1243.7</ele>
      </trkpt>
      <trkpt lat="48.04968" lon="7.01541">
        <ele>1245.2</ele>
      </trkpt>
      <trkpt lat="48.04861" lon="7.0147">
        <ele>1259.1</ele>
      </trkpt>
      <trkpt lat="48.04833" lon="7.01456">
        <ele>1263.1</ele>
      </trkpt>
      <trkpt lat="48.04828" lon="7.01454">
        <ele>1263.6</ele>
      </trkpt>
      <trkpt lat="48.0481" lon="7.01449">
        <ele>1265.5</ele>
      </trkpt>
      <trkpt lat="48.04795" lon="7.01447">
        <ele>1267.5</ele>
      </trkpt>
      <trkpt lat="48.04794" lon="7.01448">
        <ele>1267.7</ele>
      </trkpt>
      <trkpt lat="48.04794" lon="7.01448">
        <ele>1267.7</ele>
      </trkpt>
      <trkpt lat="48.04782" lon="7.01454">
        <ele>1269.1</ele>
      </trkpt>
      <trkpt lat="48.04765" lon="7.01473">
        <ele>1269.9</ele>
      </trkpt>
      <trkpt lat="48.04752" lon="7.01491">
        <ele>1270.9</ele>
      </trkpt>
      <trkpt lat="48.04735" lon="7.01485">
        <ele>1272.1</ele>
      </trkpt>
      <trkpt lat="48.04726" lon="7.01482">
        <ele>1272.7</ele>
      </trkpt>
      <trkpt lat="48.04705" lon="7.01447">
        <ele>1273.5</ele>
      </trkpt>
      <trkpt lat="48.04704" lon="7.01444">
        <ele>1273.7</ele>
      </trkpt>
      <trkpt lat="48.04695" lon="7.01428">
        <ele>1274</ele>
      </trkpt>
      <trkpt lat="48.0468" lon="7.01404">
        <ele>1274.2</ele>
      </trkpt>
      <trkpt lat="48.0466" lon="7.01382">
        <ele>1275.1</ele>
      </trkpt>
      <trkpt lat="48.04608" lon="7.01347">
        <ele>1277.5</ele>
      </trkpt>
      <trkpt lat="48.04597" lon="7.01338">
        <ele>1278.5</ele>
      </trkpt>
      <trkpt lat="48.04597" lon="7.01338">
        <ele>1278.5</ele>
      </trkpt>
      <trkpt lat="48.04593" lon="7.01335">
        <ele>1278.9</ele>
      </trkpt>
      <trkpt lat="48.04584" lon="7.01327">
        <ele>1279.6</ele>
      </trkpt>
      <trkpt lat="48.04573" lon="7.01318">
        <ele>1281</ele>
      </trkpt>
      <trkpt lat="48.04545" lon="7.013">
        <ele>1283.8</ele>
      </trkpt>
      <trkpt lat="48.04507" lon="7.0127">
        <ele>1287.3</ele>
      </trkpt>
      <trkpt lat="48.04457" lon="7.01237">
        <ele>1291.6</ele>
      </trkpt>
      <trkpt lat="48.04428" lon="7.0121">
        <ele>1292.1</ele>
      </trkpt>
      <trkpt lat="48.04425" lon="7.01209">
        <ele>1292.2</ele>
      </trkpt>
      <trkpt lat="48.04424" lon="7.01207">
        <ele>1292.3</ele>
      </trkpt>
      <trkpt lat="48.04416" lon="7.01205">
        <ele>1292.2</ele>
      </trkpt>
      <trkpt lat="48.04396" lon="7.01208">
        <ele>1293.6</ele>
      </trkpt>
      <trkpt lat="48.04361" lon="7.01193">
        <ele>1295.1</ele>
      </trkpt>
      <trkpt lat="48.04337" lon="7.01193">
        <ele>1295.1</ele>
      </trkpt>
      <trkpt lat="48.04321" lon="7.01188">
        <ele>1294.4</ele>
      </trkpt>
      <trkpt lat="48.04311" lon="7.01184">
        <ele>1294.5</ele>
      </trkpt>
      <trkpt lat="48.04265" lon="7.01152">
        <ele>1297.2</ele>
      </trkpt>
      <trkpt lat="48.04245" lon="7.01143">
        <ele>1295.6</ele>
      </trkpt>
      <trkpt lat="48.04232" lon="7.01136">
        <ele>1294.4</ele>
      </trkpt>
      <trkpt lat="48.04212" lon="7.01124">
        <ele>1292.3</ele>
      </trkpt>
      <trkpt lat="48.04179" lon="7.01109">
        <ele>1292.1</ele>
      </trkpt>
      <trkpt lat="48.04177" lon="7.01109">
        <ele>1292.2</ele>
      </trkpt>
      <trkpt lat="48.04177" lon="7.01109">
        <ele>1292.2</ele>
      </trkpt>
      <trkpt lat="48.0417" lon="7.01107">
        <ele>1292.2</ele>
      </trkpt>
      <trkpt lat="48.04159" lon="7.01099">
        <ele>1293.4</ele>
      </trkpt>
      <trkpt lat="48.04138" lon="7.01088">
        <ele>1294.5</ele>
      </trkpt>
      <trkpt lat="48.04137" lon="7.01082">
        <ele>1293.9</ele>
      </trkpt>
      <trkpt lat="48.0411" lon="7.01054">
        <ele>1289.8</ele>
      </trkpt>
      <trkpt lat="48.04097" lon="7.01046">
        <ele>1288.5</ele>
      </trkpt>
      <trkpt lat="48.04087" lon="7.01062">
        <ele>1289.8</ele>
      </trkpt>
      <trkpt lat="48.04059" lon="7.01084">
        <ele>1292</ele>
      </trkpt>
      <trkpt lat="48.0397" lon="7.01088">
        <ele>1291</ele>
      </trkpt>
      <trkpt lat="48.03904" lon="7.01089">
        <ele>1292.3</ele>
      </trkpt>
      <trkpt lat="48.03848" lon="7.01083">
        <ele>1290.4</ele>
      </trkpt>
      <trkpt lat="48.03814" lon="7.01085">
        <ele>1290.3</ele>
      </trkpt>
      <trkpt lat="48.03777" lon="7.01083">
        <ele>1288.9</ele>
      </trkpt>
      <trkpt lat="48.03777" lon="7.01083">
        <ele>1288.9</ele>
      </trkpt>
      <trkpt lat="48.03714" lon="7.0108">
        <ele>1288</ele>
      </trkpt>
      <trkpt lat="48.03675" lon="7.01071">
        <ele>1285.7</ele>
      </trkpt>
      <trkpt lat="48.03652" lon="7.01072">
        <ele>1284.8</ele>
      </trkpt>
      <trkpt lat="48.03642" lon="7.01071">
        <ele>1283.9</ele>
      </trkpt>
      <trkpt lat="48.03614" lon="7.01092">
        <ele>1285.8</ele>
      </trkpt>
      <trkpt lat="48.03607" lon="7.01098">
        <ele>1286.2</ele>
      </trkpt>
      <trkpt lat="48.03601" lon="7.01104">
        <ele>1286.7</ele>
      </trkpt>
      <trkpt lat="48.0358" lon="7.01092">
        <ele>1282.9</ele>
      </trkpt>
      <trkpt lat="48.03524" lon="7.01082">
        <ele>1278.7</ele>
      </trkpt>
      <trkpt lat="48.0351" lon="7.01078">
        <ele>1278</ele>
      </trkpt>
      <trkpt lat="48.03486" lon="7.01054">
        <ele>1277.5</ele>
      </trkpt>
      <trkpt lat="48.03485" lon="7.01055">
        <ele>1277.5</ele>
      </trkpt>
      <trkpt lat="48.03484" lon="7.01057">
        <ele>1277.6</ele>
      </trkpt>
      <trkpt lat="48.0349" lon="7.01077">
        <ele>1277.9</ele>
      </trkpt>
      <trkpt lat="48.03493" lon="7.01097">
        <ele>1277.8</ele>
      </trkpt>
      <trkpt lat="48.03468" lon="7.0106">
        <ele>1278.4</ele>
      </trkpt>
      <trkpt lat="48.03449" lon="7.01043">
        <ele>1281.3</ele>
      </trkpt>
      <trkpt lat="48.03428" lon="7.01029">
        <ele>1286.4</ele>
      </trkpt>
      <trkpt lat="48.03409" lon="7.01011">
        <ele>1290.8</ele>
      </trkpt>
      <trkpt lat="48.03399" lon="7.01002">
        <ele>1293.1</ele>
      </trkpt>
      <trkpt lat="48.03399" lon="7.01002">
        <ele>1293.1</ele>
      </trkpt>
      <trkpt lat="48.0339" lon="7.00993">
        <ele>1294.8</ele>
      </trkpt>
      <trkpt lat="48.03284" lon="7.00911">
        <ele>1305</ele>
      </trkpt>
      <trkpt lat="48.03271" lon="7.00902">
        <ele>1304.8</ele>
      </trkpt>
      <trkpt lat="48.03213" lon="7.00882">
        <ele>1300.3</ele>
      </trkpt>
      <trkpt lat="48.03085" lon="7.00832">
        <ele>1287.9</ele>
      </trkpt>
      <trkpt lat="48.03016" lon="7.00799">
        <ele>1286.7</ele>
      </trkpt>
      <trkpt lat="48.02985" lon="7.00787">
        <ele>1286</ele>
      </trkpt>
      <trkpt lat="48.02975" lon="7.00779">
        <ele>1285.1</ele>
      </trkpt>
      <trkpt lat="48.02899" lon="7.00711">
        <ele>1284.1</ele>
      </trkpt>
      <trkpt lat="48.02863" lon="7.00677">
        <ele>1285.2</ele>
      </trkpt>
      <trkpt lat="48.02863" lon="7.00677">
        <ele>1285.2</ele>
      </trkpt>
      <trkpt lat="48.02838" lon="7.00654">
        <ele>1286.1</ele>
      </trkpt>
      <trkpt lat="48.02822" lon="7.00638">
        <ele>1286.7</ele>
      </trkpt>
      <trkpt lat="48.02786" lon="7.00603">
        <ele>1288.8</ele>
      </trkpt>
      <trkpt lat="48.02773" lon="7.00583">
        <ele>1289.7</ele>
      </trkpt>
      <trkpt lat="48.02761" lon="7.00561">
        <ele>1290.2</ele>
      </trkpt>
      <trkpt lat="48.0275" lon="7.00537">
        <ele>1291.3</ele>
      </trkpt>
      <trkpt lat="48.02738" lon="7.00509">
        <ele>1292.9</ele>
      </trkpt>
      <trkpt lat="48.02729" lon="7.00484">
        <ele>1294</ele>
      </trkpt>
      <trkpt lat="48.02707" lon="7.00416">
        <ele>1296.3</ele>
      </trkpt>
      <trkpt lat="48.02695" lon="7.00359">
        <ele>1297.8</ele>
      </trkpt>
      <trkpt lat="48.02681" lon="7.00271">
        <ele>1298.6</ele>
      </trkpt>
      <trkpt lat="48.02669" lon="7.00209">
        <ele>1298.9</ele>
      </trkpt>
      <trkpt lat="48.02659" lon="7.00172">
        <ele>1299.3</ele>
      </trkpt>
      <trkpt lat="48.02639" lon="7.00115">
        <ele>1299.3</ele>
      </trkpt>
      <trkpt lat="48.0262" lon="7.00075">
        <ele>1299.8</ele>
      </trkpt>
      <trkpt lat="48.02609" lon="7.00057">
        <ele>1300.4</ele>
      </trkpt>
      <trkpt lat="48.02577" lon="7.00018">
        <ele>1299.7</ele>
      </trkpt>
      <trkpt lat="48.02563" lon="7.00003">
        <ele>1299.5</ele>
      </trkpt>
      <trkpt lat="48.02547" lon="6.99989">
        <ele>1299.7</ele>
      </trkpt>
      <trkpt lat="48.02497" lon="6.99952">
        <ele>1300.2</ele>
      </trkpt>
      <trkpt lat="48.02468" lon="6.99912">
        <ele>1299.3</ele>
      </trkpt>
      <trkpt lat="48.02452" lon="6.99883">
        <ele>1298.9</ele>
      </trkpt>
      <trkpt lat="48.02402" lon="6.99798">
        <ele>1301.4</ele>
      </trkpt>
      <trkpt lat="48.02393" lon="6.99779">
        <ele>1301.2</ele>
      </trkpt>
      <trkpt lat="48.02382" lon="6.99747">
        <ele>1300.9</ele>
      </trkpt>
      <trkpt lat="48.02373" lon="6.99713">
        <ele>1299.4</ele>
      </trkpt>
      <trkpt lat="48.02358" lon="6.99682">
        <ele>1298.9</ele>
      </trkpt>
      <trkpt lat="48.02312" lon="6.9959">
        <ele>1295.9</ele>
      </trkpt>
      <trkpt lat="48.02279" lon="6.99542">
        <ele>1294.8</ele>
      </trkpt>
      <trkpt lat="48.02245" lon="6.99498">
        <ele>1293.3</ele>
      </trkpt>
      <trkpt lat="48.02239" lon="6.99489">
        <ele>1292.5</ele>
      </trkpt>
      <trkpt lat="48.02233" lon="6.9948">
        <ele>1292</ele>
      </trkpt>
      <trkpt lat="48.0222" lon="6.9947">
        <ele>1291.9</ele>
      </trkpt>
      <trkpt lat="48.0221" lon="6.99458">
        <ele>1291.3</ele>
      </trkpt>
      <trkpt lat="48.02195" lon="6.99445">
        <ele>1291.1</ele>
      </trkpt>
      <trkpt lat="48.02181" lon="6.9943">
        <ele>1289.9</ele>
      </trkpt>
      <trkpt lat="48.02171" lon="6.9942">
        <ele>1289.2</ele>
      </trkpt>
      <trkpt lat="48.02164" lon="6.99416">
        <ele>1289.1</ele>
      </trkpt>
      <trkpt lat="48.02154" lon="6.99403">
        <ele>1287.9</ele>
      </trkpt>
      <trkpt lat="48.02145" lon="6.99392">
        <ele>1287.1</ele>
      </trkpt>
      <trkpt lat="48.02136" lon="6.99378">
        <ele>1286</ele>
      </trkpt>
      <trkpt lat="48.0211" lon="6.99352">
        <ele>1284</ele>
      </trkpt>
      <trkpt lat="48.02109" lon="6.99348">
        <ele>1283.5</ele>
      </trkpt>
      <trkpt lat="48.02078" lon="6.99333">
        <ele>1282.8</ele>
      </trkpt>
      <trkpt lat="48.02074" lon="6.99332">
        <ele>1282.6</ele>
      </trkpt>
      <trkpt lat="48.0207" lon="6.99335">
        <ele>1282.5</ele>
      </trkpt>
      <trkpt lat="48.02066" lon="6.99317">
        <ele>1281.3</ele>
      </trkpt>
      <trkpt lat="48.02055" lon="6.99288">
        <ele>1282.2</ele>
      </trkpt>
      <trkpt lat="48.02037" lon="6.99253">
        <ele>1281.4</ele>
      </trkpt>
      <trkpt lat="48.02018" lon="6.99213">
        <ele>1280.3</ele>
      </trkpt>
      <trkpt lat="48.02013" lon="6.99199">
        <ele>1281.3</ele>
      </trkpt>
      <trkpt lat="48.02002" lon="6.99182">
        <ele>1281.6</ele>
      </trkpt>
      <trkpt lat="48.01995" lon="6.99176">
        <ele>1280.9</ele>
      </trkpt>
      <trkpt lat="48.01988" lon="6.99163">
        <ele>1281</ele>
      </trkpt>
      <trkpt lat="48.01979" lon="6.99121">
        <ele>1279.1</ele>
      </trkpt>
      <trkpt lat="48.01964" lon="6.99067">
        <ele>1271.3</ele>
      </trkpt>
      <trkpt lat="48.01964" lon="6.99054">
        <ele>1270.1</ele>
      </trkpt>
      <trkpt lat="48.01963" lon="6.99048">
        <ele>1268.9</ele>
      </trkpt>
      <trkpt lat="48.01959" lon="6.99043">
        <ele>1267.6</ele>
      </trkpt>
      <trkpt lat="48.01943" lon="6.99021">
        <ele>1261.6</ele>
      </trkpt>
      <trkpt lat="48.01931" lon="6.99001">
        <ele>1256.6</ele>
      </trkpt>
      <trkpt lat="48.01922" lon="6.98998">
        <ele>1254.8</ele>
      </trkpt>
      <trkpt lat="48.01914" lon="6.98991">
        <ele>1253</ele>
      </trkpt>
      <trkpt lat="48.01902" lon="6.98979">
        <ele>1250.7</ele>
      </trkpt>
      <trkpt lat="48.01892" lon="6.98973">
        <ele>1249.3</ele>
      </trkpt>
      <trkpt lat="48.01875" lon="6.98967">
        <ele>1246.7</ele>
      </trkpt>
      <trkpt lat="48.01865" lon="6.98967">
        <ele>1245.3</ele>
      </trkpt>
      <trkpt lat="48.01852" lon="6.98952">
        <ele>1243</ele>
      </trkpt>
      <trkpt lat="48.01839" lon="6.9894">
        <ele>1240.7</ele>
      </trkpt>
      <trkpt lat="48.01839" lon="6.9894">
        <ele>1240.6</ele>
      </trkpt>
      <trkpt lat="48.01839" lon="6.9894">
        <ele>1240.6</ele>
      </trkpt>
      <trkpt lat="48.01827" lon="6.98926">
        <ele>1238.4</ele>
      </trkpt>
      <trkpt lat="48.01802" lon="6.98898">
        <ele>1233</ele>
      </trkpt>
      <trkpt lat="48.01777" lon="6.98877">
        <ele>1228.4</ele>
      </trkpt>
      <trkpt lat="48.01731" lon="6.98836">
        <ele>1219.2</ele>
      </trkpt>
      <trkpt lat="48.01725" lon="6.98828">
        <ele>1218</ele>
      </trkpt>
      <trkpt lat="48.01719" lon="6.9882">
        <ele>1217.5</ele>
      </trkpt>
      <trkpt lat="48.01711" lon="6.98812">
        <ele>1217</ele>
      </trkpt>
      <trkpt lat="48.01695" lon="6.98785">
        <ele>1214.5</ele>
      </trkpt>
      <trkpt lat="48.01686" lon="6.98773">
        <ele>1213.9</ele>
      </trkpt>
      <trkpt lat="48.01676" lon="6.98761">
        <ele>1213.1</ele>
      </trkpt>
      <trkpt lat="48.0166" lon="6.98736">
        <ele>1210.6</ele>
      </trkpt>
      <trkpt lat="48.01653" lon="6.9872">
        <ele>1209.3</ele>
      </trkpt>
      <trkpt lat="48.01644" lon="6.98708">
        <ele>1208</ele>
      </trkpt>
      <trkpt lat="48.01635" lon="6.98688">
        <ele>1206.3</ele>
      </trkpt>
      <trkpt lat="48.01626" lon="6.98678">
        <ele>1205.6</ele>
      </trkpt>
      <trkpt lat="48.01623" lon="6.98671">
        <ele>1205.3</ele>
      </trkpt>
      <trkpt lat="48.01617" lon="6.9866">
        <ele>1204.8</ele>
      </trkpt>
      <trkpt lat="48.01612" lon="6.98649">
        <ele>1204</ele>
      </trkpt>
      <trkpt lat="48.0161" lon="6.98639">
        <ele>1203</ele>
      </trkpt>
      <trkpt lat="48.01607" lon="6.9863">
        <ele>1201.3</ele>
      </trkpt>
      <trkpt lat="48.01599" lon="6.98621">
        <ele>1199.8</ele>
      </trkpt>
      <trkpt lat="48.01575" lon="6.98588">
        <ele>1194.9</ele>
      </trkpt>
      <trkpt lat="48.01531" lon="6.98564">
        <ele>1191</ele>
      </trkpt>
      <trkpt lat="48.0151" lon="6.98558">
        <ele>1190.9</ele>
      </trkpt>
      <trkpt lat="48.01498" lon="6.9856">
        <ele>1191.5</ele>
      </trkpt>
      <trkpt lat="48.01501" lon="6.98566">
        <ele>1191.7</ele>
      </trkpt>
      <trkpt lat="48.01487" lon="6.98555">
        <ele>1191.9</ele>
      </trkpt>
      <trkpt lat="48.01462" lon="6.98536">
        <ele>1193.9</ele>
      </trkpt>
      <trkpt lat="48.01453" lon="6.98527">
        <ele>1194.8</ele>
      </trkpt>
      <trkpt lat="48.01448" lon="6.98525">
        <ele>1195.3</ele>
      </trkpt>
      <trkpt lat="48.01435" lon="6.9851">
        <ele>1196.9</ele>
      </trkpt>
      <trkpt lat="48.01395" lon="6.98481">
        <ele>1201.6</ele>
      </trkpt>
      <trkpt lat="48.01389" lon="6.98475">
        <ele>1202.2</ele>
      </trkpt>
      <trkpt lat="48.01382" lon="6.98471">
        <ele>1203.5</ele>
      </trkpt>
      <trkpt lat="48.01374" lon="6.98462">
        <ele>1204.6</ele>
      </trkpt>
      <trkpt lat="48.01355" lon="6.98432">
        <ele>1207.1</ele>
      </trkpt>
      <trkpt lat="48.01332" lon="6.98404">
        <ele>1208.1</ele>
      </trkpt>
      <trkpt lat="48.01287" lon="6.98372">
        <ele>1215.3</ele>
      </trkpt>
      <trkpt lat="48.0127" lon="6.98348">
        <ele>1216.2</ele>
      </trkpt>
      <trkpt lat="48.01243" lon="6.98322">
        <ele>1220.5</ele>
      </trkpt>
      <trkpt lat="48.01234" lon="6.983">
        <ele>1220.3</ele>
      </trkpt>
      <trkpt lat="48.01225" lon="6.98284">
        <ele>1221.5</ele>
      </trkpt>
      <trkpt lat="48.01182" lon="6.98187">
        <ele>1228.3</ele>
      </trkpt>
      <trkpt lat="48.0114" lon="6.98099">
        <ele>1235.7</ele>
      </trkpt>
      <trkpt lat="48.01096" lon="6.97988">
        <ele>1237</ele>
      </trkpt>
      <trkpt lat="48.0108" lon="6.97966">
        <ele>1238.9</ele>
      </trkpt>
      <trkpt lat="48.0107" lon="6.97957">
        <ele>1238.2</ele>
      </trkpt>
      <trkpt lat="48.01058" lon="6.97955">
        <ele>1240.7</ele>
      </trkpt>
      <trkpt lat="48.0105" lon="6.97946">
        <ele>1240.6</ele>
      </trkpt>
      <trkpt lat="48.01041" lon="6.9791">
        <ele>1240.3</ele>
      </trkpt>
      <trkpt lat="48.0102" lon="6.9784">
        <ele>1238.1</ele>
      </trkpt>
      <trkpt lat="48.01013" lon="6.97826">
        <ele>1239.1</ele>
      </trkpt>
      <trkpt lat="48.00989" lon="6.97753">
        <ele>1235.8</ele>
      </trkpt>
      <trkpt lat="48.00971" lon="6.9771">
        <ele>1237.9</ele>
      </trkpt>
      <trkpt lat="48.00958" lon="6.97659">
        <ele>1233.2</ele>
      </trkpt>
      <trkpt lat="48.00949" lon="6.97642">
        <ele>1236.4</ele>
      </trkpt>
      <trkpt lat="48.00933" lon="6.97621">
        <ele>1237.3</ele>
      </trkpt>
      <trkpt lat="48.0093" lon="6.97619">
        <ele>1237.3</ele>
      </trkpt>
      <trkpt lat="48.0093" lon="6.97618">
        <ele>1237.1</ele>
      </trkpt>
    </trkseg>
  </trk>
</gpx>